<?xml version="1.0" encoding="UTF-8" standalone="no" ?>
<gpx xmlns="http://www.topografix.com/GPX/1/1" xmlns:xsi="http://www.w3.org/2001/XMLSchema-instance" xsi:schemaLocation="http://www.topografix.com/GPX/1/1 http://www.topografix.com/GPX/1/1/gpx.xsd" version="1.1" creator="VisuGPX - https://www.visugpx.com">
  <metadata>
    <name>GRAND PARADIS</name>
  </metadata>
  <trk>
    <name><![CDATA[GRAND PARADIS_1]]></name>
    <trkseg>
      <trkpt lat="45.52499" lon="7.20106">
        <ele>1958.6</ele>
        <time>2021-11-07T05:38:14Z</time>
      </trkpt>
      <trkpt lat="45.52499" lon="7.20106">
        <ele>1958.6</ele>
        <time>2021-11-07T05:38:15Z</time>
      </trkpt>
      <trkpt lat="45.52498" lon="7.20108">
        <ele>1958.2</ele>
        <time>2021-11-07T05:38:17Z</time>
      </trkpt>
      <trkpt lat="45.52497" lon="7.20109">
        <ele>1958.2</ele>
        <time>2021-11-07T05:38:18Z</time>
      </trkpt>
      <trkpt lat="45.52494" lon="7.20113">
        <ele>1957.6</ele>
        <time>2021-11-07T05:38:22Z</time>
      </trkpt>
      <trkpt lat="45.52493" lon="7.20114">
        <ele>1957.6</ele>
        <time>2021-11-07T05:38:23Z</time>
      </trkpt>
      <trkpt lat="45.52492" lon="7.20116">
        <ele>1957.1</ele>
        <time>2021-11-07T05:38:24Z</time>
      </trkpt>
      <trkpt lat="45.52487" lon="7.20126">
        <ele>1956.4</ele>
        <time>2021-11-07T05:38:30Z</time>
      </trkpt>
      <trkpt lat="45.52485" lon="7.2013">
        <ele>1956.2</ele>
        <time>2021-11-07T05:38:33Z</time>
      </trkpt>
      <trkpt lat="45.52484" lon="7.20131">
        <ele>1956.2</ele>
        <time>2021-11-07T05:38:34Z</time>
      </trkpt>
      <trkpt lat="45.52485" lon="7.20139">
        <ele>1955.8</ele>
        <time>2021-11-07T05:38:39Z</time>
      </trkpt>
      <trkpt lat="45.52484" lon="7.20139">
        <ele>1955.8</ele>
        <time>2021-11-07T05:38:40Z</time>
      </trkpt>
      <trkpt lat="45.52483" lon="7.20145">
        <ele>1955.6</ele>
        <time>2021-11-07T05:38:44Z</time>
      </trkpt>
      <trkpt lat="45.52483" lon="7.20148">
        <ele>1955.4</ele>
        <time>2021-11-07T05:38:46Z</time>
      </trkpt>
      <trkpt lat="45.52477" lon="7.2016">
        <ele>1955</ele>
        <time>2021-11-07T05:38:54Z</time>
      </trkpt>
      <trkpt lat="45.52476" lon="7.20163">
        <ele>1954.9</ele>
        <time>2021-11-07T05:38:56Z</time>
      </trkpt>
      <trkpt lat="45.52473" lon="7.20168">
        <ele>1954.7</ele>
        <time>2021-11-07T05:39:00Z</time>
      </trkpt>
      <trkpt lat="45.52472" lon="7.20171">
        <ele>1954.6</ele>
        <time>2021-11-07T05:39:02Z</time>
      </trkpt>
      <trkpt lat="45.52471" lon="7.20174">
        <ele>1954.6</ele>
        <time>2021-11-07T05:39:04Z</time>
      </trkpt>
      <trkpt lat="45.52469" lon="7.20177">
        <ele>1954.5</ele>
        <time>2021-11-07T05:39:06Z</time>
      </trkpt>
      <trkpt lat="45.52467" lon="7.2018">
        <ele>1954.4</ele>
        <time>2021-11-07T05:39:09Z</time>
      </trkpt>
      <trkpt lat="45.52466" lon="7.20182">
        <ele>1954.4</ele>
        <time>2021-11-07T05:39:11Z</time>
      </trkpt>
      <trkpt lat="45.52465" lon="7.20185">
        <ele>1954.3</ele>
        <time>2021-11-07T05:39:13Z</time>
      </trkpt>
      <trkpt lat="45.5246" lon="7.20192">
        <ele>1954.3</ele>
        <time>2021-11-07T05:39:19Z</time>
      </trkpt>
      <trkpt lat="45.52459" lon="7.20194">
        <ele>1954.3</ele>
        <time>2021-11-07T05:39:20Z</time>
      </trkpt>
      <trkpt lat="45.52454" lon="7.20204">
        <ele>1954.3</ele>
        <time>2021-11-07T05:39:27Z</time>
      </trkpt>
      <trkpt lat="45.52451" lon="7.20216">
        <ele>1954.2</ele>
        <time>2021-11-07T05:39:34Z</time>
      </trkpt>
      <trkpt lat="45.52452" lon="7.20216">
        <ele>1954.2</ele>
        <time>2021-11-07T05:39:35Z</time>
      </trkpt>
      <trkpt lat="45.52454" lon="7.2021">
        <ele>1954.2</ele>
        <time>2021-11-07T05:39:38Z</time>
      </trkpt>
      <trkpt lat="45.5246" lon="7.2019">
        <ele>1954.3</ele>
        <time>2021-11-07T05:39:44Z</time>
      </trkpt>
      <trkpt lat="45.52465" lon="7.20175">
        <ele>1954.4</ele>
        <time>2021-11-07T05:39:48Z</time>
      </trkpt>
      <trkpt lat="45.52469" lon="7.20166">
        <ele>1954.8</ele>
        <time>2021-11-07T05:39:51Z</time>
      </trkpt>
      <trkpt lat="45.52471" lon="7.20164">
        <ele>1954.8</ele>
        <time>2021-11-07T05:39:52Z</time>
      </trkpt>
      <trkpt lat="45.52476" lon="7.20151">
        <ele>1955.2</ele>
        <time>2021-11-07T05:39:56Z</time>
      </trkpt>
      <trkpt lat="45.5248" lon="7.20139">
        <ele>1955.6</ele>
        <time>2021-11-07T05:40:00Z</time>
      </trkpt>
      <trkpt lat="45.52482" lon="7.20135">
        <ele>1955.9</ele>
        <time>2021-11-07T05:40:02Z</time>
      </trkpt>
      <trkpt lat="45.52484" lon="7.20132">
        <ele>1956.1</ele>
        <time>2021-11-07T05:40:03Z</time>
      </trkpt>
      <trkpt lat="45.52487" lon="7.20127">
        <ele>1956.4</ele>
        <time>2021-11-07T05:40:05Z</time>
      </trkpt>
      <trkpt lat="45.52492" lon="7.20117">
        <ele>1957.1</ele>
        <time>2021-11-07T05:40:09Z</time>
      </trkpt>
      <trkpt lat="45.52493" lon="7.20114">
        <ele>1957.6</ele>
        <time>2021-11-07T05:40:10Z</time>
      </trkpt>
      <trkpt lat="45.52495" lon="7.20111">
        <ele>1957.6</ele>
        <time>2021-11-07T05:40:11Z</time>
      </trkpt>
      <trkpt lat="45.52499" lon="7.20101">
        <ele>1959.1</ele>
        <time>2021-11-07T05:40:16Z</time>
      </trkpt>
      <trkpt lat="45.525" lon="7.201">
        <ele>1959.4</ele>
        <time>2021-11-07T05:40:19Z</time>
      </trkpt>
      <trkpt lat="45.525" lon="7.201">
        <ele>1959.4</ele>
        <time>2021-11-07T05:40:20Z</time>
      </trkpt>
      <trkpt lat="45.52499" lon="7.20099">
        <ele>1959.1</ele>
        <time>2021-11-07T05:40:21Z</time>
      </trkpt>
      <trkpt lat="45.52498" lon="7.20099">
        <ele>1959.1</ele>
        <time>2021-11-07T05:40:22Z</time>
      </trkpt>
      <trkpt lat="45.52497" lon="7.20098">
        <ele>1959.1</ele>
        <time>2021-11-07T05:40:25Z</time>
      </trkpt>
      <trkpt lat="45.52497" lon="7.20104">
        <ele>1958.6</ele>
        <time>2021-11-07T05:40:54Z</time>
      </trkpt>
      <trkpt lat="45.52494" lon="7.20111">
        <ele>1957.6</ele>
        <time>2021-11-07T05:40:59Z</time>
      </trkpt>
      <trkpt lat="45.52493" lon="7.20114">
        <ele>1957.4</ele>
        <time>2021-11-07T05:41:01Z</time>
      </trkpt>
      <trkpt lat="45.52493" lon="7.2012">
        <ele>1956.9</ele>
        <time>2021-11-07T05:41:04Z</time>
      </trkpt>
      <trkpt lat="45.52491" lon="7.20127">
        <ele>1956.7</ele>
        <time>2021-11-07T05:41:08Z</time>
      </trkpt>
      <trkpt lat="45.5249" lon="7.20132">
        <ele>1956.3</ele>
        <time>2021-11-07T05:41:10Z</time>
      </trkpt>
      <trkpt lat="45.52485" lon="7.20144">
        <ele>1955.7</ele>
        <time>2021-11-07T05:41:14Z</time>
      </trkpt>
      <trkpt lat="45.52483" lon="7.20146">
        <ele>1955.4</ele>
        <time>2021-11-07T05:41:15Z</time>
      </trkpt>
      <trkpt lat="45.52481" lon="7.2015">
        <ele>1955.3</ele>
        <time>2021-11-07T05:41:17Z</time>
      </trkpt>
      <trkpt lat="45.5248" lon="7.20153">
        <ele>1955.2</ele>
        <time>2021-11-07T05:41:18Z</time>
      </trkpt>
      <trkpt lat="45.52473" lon="7.20166">
        <ele>1954.8</ele>
        <time>2021-11-07T05:41:23Z</time>
      </trkpt>
      <trkpt lat="45.52471" lon="7.20168">
        <ele>1954.7</ele>
        <time>2021-11-07T05:41:24Z</time>
      </trkpt>
      <trkpt lat="45.5247" lon="7.2017">
        <ele>1954.7</ele>
        <time>2021-11-07T05:41:25Z</time>
      </trkpt>
      <trkpt lat="45.52469" lon="7.20173">
        <ele>1954.5</ele>
        <time>2021-11-07T05:41:26Z</time>
      </trkpt>
      <trkpt lat="45.52468" lon="7.20176">
        <ele>1954.4</ele>
        <time>2021-11-07T05:41:27Z</time>
      </trkpt>
      <trkpt lat="45.52466" lon="7.20179">
        <ele>1954.4</ele>
        <time>2021-11-07T05:41:28Z</time>
      </trkpt>
      <trkpt lat="45.52463" lon="7.20184">
        <ele>1954.3</ele>
        <time>2021-11-07T05:41:30Z</time>
      </trkpt>
      <trkpt lat="45.52461" lon="7.2019">
        <ele>1954.3</ele>
        <time>2021-11-07T05:41:32Z</time>
      </trkpt>
      <trkpt lat="45.5246" lon="7.20192">
        <ele>1954.3</ele>
        <time>2021-11-07T05:41:33Z</time>
      </trkpt>
      <trkpt lat="45.52458" lon="7.20195">
        <ele>1954.3</ele>
        <time>2021-11-07T05:41:34Z</time>
      </trkpt>
      <trkpt lat="45.52453" lon="7.20213">
        <ele>1954.4</ele>
        <time>2021-11-07T05:41:40Z</time>
      </trkpt>
      <trkpt lat="45.52451" lon="7.20229">
        <ele>1954.4</ele>
        <time>2021-11-07T05:41:45Z</time>
      </trkpt>
      <trkpt lat="45.5245" lon="7.20232">
        <ele>1954.4</ele>
        <time>2021-11-07T05:41:46Z</time>
      </trkpt>
      <trkpt lat="45.52449" lon="7.20235">
        <ele>1954.4</ele>
        <time>2021-11-07T05:41:47Z</time>
      </trkpt>
      <trkpt lat="45.52448" lon="7.20253">
        <ele>1954.3</ele>
        <time>2021-11-07T05:41:52Z</time>
      </trkpt>
      <trkpt lat="45.52447" lon="7.20259">
        <ele>1954.3</ele>
        <time>2021-11-07T05:41:54Z</time>
      </trkpt>
      <trkpt lat="45.52441" lon="7.20265">
        <ele>1954.2</ele>
        <time>2021-11-07T05:41:58Z</time>
      </trkpt>
      <trkpt lat="45.52439" lon="7.20264">
        <ele>1954.2</ele>
        <time>2021-11-07T05:42:00Z</time>
      </trkpt>
      <trkpt lat="45.52439" lon="7.20264">
        <ele>1954.2</ele>
        <time>2021-11-07T05:42:02Z</time>
      </trkpt>
      <trkpt lat="45.52429" lon="7.20262">
        <ele>1954.1</ele>
        <time>2021-11-07T05:42:11Z</time>
      </trkpt>
      <trkpt lat="45.52426" lon="7.20262">
        <ele>1954</ele>
        <time>2021-11-07T05:42:13Z</time>
      </trkpt>
      <trkpt lat="45.52421" lon="7.20264">
        <ele>1954.1</ele>
        <time>2021-11-07T05:42:18Z</time>
      </trkpt>
      <trkpt lat="45.52419" lon="7.20265">
        <ele>1954.2</ele>
        <time>2021-11-07T05:42:21Z</time>
      </trkpt>
      <trkpt lat="45.52418" lon="7.20265">
        <ele>1954.2</ele>
        <time>2021-11-07T05:42:23Z</time>
      </trkpt>
      <trkpt lat="45.52418" lon="7.20265">
        <ele>1954.2</ele>
        <time>2021-11-07T05:42:32Z</time>
      </trkpt>
      <trkpt lat="45.52419" lon="7.20265">
        <ele>1954.2</ele>
        <time>2021-11-07T05:42:33Z</time>
      </trkpt>
      <trkpt lat="45.52419" lon="7.20265">
        <ele>1954.2</ele>
        <time>2021-11-07T05:42:35Z</time>
      </trkpt>
      <trkpt lat="45.52419" lon="7.20264">
        <ele>1954.2</ele>
        <time>2021-11-07T05:42:39Z</time>
      </trkpt>
      <trkpt lat="45.52417" lon="7.20265">
        <ele>1954.3</ele>
        <time>2021-11-07T05:42:44Z</time>
      </trkpt>
      <trkpt lat="45.52414" lon="7.20265">
        <ele>1954.4</ele>
        <time>2021-11-07T05:42:46Z</time>
      </trkpt>
      <trkpt lat="45.52411" lon="7.20264">
        <ele>1954.5</ele>
        <time>2021-11-07T05:42:51Z</time>
      </trkpt>
      <trkpt lat="45.52411" lon="7.20264">
        <ele>1954.5</ele>
        <time>2021-11-07T05:42:54Z</time>
      </trkpt>
      <trkpt lat="45.52405" lon="7.20263">
        <ele>1954.8</ele>
        <time>2021-11-07T05:43:02Z</time>
      </trkpt>
      <trkpt lat="45.52405" lon="7.20263">
        <ele>1954.8</ele>
        <time>2021-11-07T05:43:04Z</time>
      </trkpt>
      <trkpt lat="45.52404" lon="7.20263">
        <ele>1954.8</ele>
        <time>2021-11-07T05:43:08Z</time>
      </trkpt>
      <trkpt lat="45.524" lon="7.20262">
        <ele>1955</ele>
        <time>2021-11-07T05:43:15Z</time>
      </trkpt>
      <trkpt lat="45.52399" lon="7.20263">
        <ele>1955</ele>
        <time>2021-11-07T05:43:16Z</time>
      </trkpt>
      <trkpt lat="45.52394" lon="7.20263">
        <ele>1955.2</ele>
        <time>2021-11-07T05:43:20Z</time>
      </trkpt>
      <trkpt lat="45.52392" lon="7.20264">
        <ele>1955.3</ele>
        <time>2021-11-07T05:43:22Z</time>
      </trkpt>
      <trkpt lat="45.52389" lon="7.20263">
        <ele>1955.5</ele>
        <time>2021-11-07T05:43:25Z</time>
      </trkpt>
      <trkpt lat="45.52386" lon="7.20264">
        <ele>1955.6</ele>
        <time>2021-11-07T05:43:27Z</time>
      </trkpt>
      <trkpt lat="45.52376" lon="7.20265">
        <ele>1955.9</ele>
        <time>2021-11-07T05:43:34Z</time>
      </trkpt>
      <trkpt lat="45.52367" lon="7.20266">
        <ele>1956.3</ele>
        <time>2021-11-07T05:43:40Z</time>
      </trkpt>
      <trkpt lat="45.52362" lon="7.20268">
        <ele>1956.4</ele>
        <time>2021-11-07T05:43:44Z</time>
      </trkpt>
      <trkpt lat="45.52357" lon="7.2027">
        <ele>1956.6</ele>
        <time>2021-11-07T05:43:48Z</time>
      </trkpt>
      <trkpt lat="45.52352" lon="7.20269">
        <ele>1956.8</ele>
        <time>2021-11-07T05:43:52Z</time>
      </trkpt>
      <trkpt lat="45.52349" lon="7.20269">
        <ele>1956.9</ele>
        <time>2021-11-07T05:43:54Z</time>
      </trkpt>
      <trkpt lat="45.52348" lon="7.20269">
        <ele>1957</ele>
        <time>2021-11-07T05:43:55Z</time>
      </trkpt>
      <trkpt lat="45.52345" lon="7.2027">
        <ele>1957.1</ele>
        <time>2021-11-07T05:43:57Z</time>
      </trkpt>
      <trkpt lat="45.52341" lon="7.2027">
        <ele>1957.2</ele>
        <time>2021-11-07T05:44:00Z</time>
      </trkpt>
      <trkpt lat="45.52334" lon="7.20272">
        <ele>1957.5</ele>
        <time>2021-11-07T05:44:05Z</time>
      </trkpt>
      <trkpt lat="45.5233" lon="7.20273">
        <ele>1957.7</ele>
        <time>2021-11-07T05:44:08Z</time>
      </trkpt>
      <trkpt lat="45.52322" lon="7.20273">
        <ele>1958</ele>
        <time>2021-11-07T05:44:14Z</time>
      </trkpt>
      <trkpt lat="45.52314" lon="7.20275">
        <ele>1958.4</ele>
        <time>2021-11-07T05:44:20Z</time>
      </trkpt>
      <trkpt lat="45.5231" lon="7.20274">
        <ele>1958.5</ele>
        <time>2021-11-07T05:44:22Z</time>
      </trkpt>
      <trkpt lat="45.52306" lon="7.20273">
        <ele>1958.7</ele>
        <time>2021-11-07T05:44:25Z</time>
      </trkpt>
      <trkpt lat="45.52305" lon="7.20273">
        <ele>1958.7</ele>
        <time>2021-11-07T05:44:26Z</time>
      </trkpt>
      <trkpt lat="45.52299" lon="7.20274">
        <ele>1958.9</ele>
        <time>2021-11-07T05:44:30Z</time>
      </trkpt>
      <trkpt lat="45.52296" lon="7.20273">
        <ele>1959</ele>
        <time>2021-11-07T05:44:32Z</time>
      </trkpt>
      <trkpt lat="45.52287" lon="7.20274">
        <ele>1959.2</ele>
        <time>2021-11-07T05:44:39Z</time>
      </trkpt>
      <trkpt lat="45.52285" lon="7.20274">
        <ele>1959.3</ele>
        <time>2021-11-07T05:44:40Z</time>
      </trkpt>
      <trkpt lat="45.52274" lon="7.20276">
        <ele>1959.6</ele>
        <time>2021-11-07T05:44:48Z</time>
      </trkpt>
      <trkpt lat="45.52272" lon="7.20277">
        <ele>1959.7</ele>
        <time>2021-11-07T05:44:49Z</time>
      </trkpt>
      <trkpt lat="45.52268" lon="7.20277">
        <ele>1959.8</ele>
        <time>2021-11-07T05:44:53Z</time>
      </trkpt>
      <trkpt lat="45.52264" lon="7.20276">
        <ele>1959.8</ele>
        <time>2021-11-07T05:44:56Z</time>
      </trkpt>
      <trkpt lat="45.52255" lon="7.20278">
        <ele>1959.9</ele>
        <time>2021-11-07T05:45:02Z</time>
      </trkpt>
      <trkpt lat="45.5225" lon="7.20279">
        <ele>1960</ele>
        <time>2021-11-07T05:45:05Z</time>
      </trkpt>
      <trkpt lat="45.5224" lon="7.20283">
        <ele>1960.2</ele>
        <time>2021-11-07T05:45:12Z</time>
      </trkpt>
      <trkpt lat="45.52232" lon="7.20285">
        <ele>1960.4</ele>
        <time>2021-11-07T05:45:18Z</time>
      </trkpt>
      <trkpt lat="45.52221" lon="7.20288">
        <ele>1960.7</ele>
        <time>2021-11-07T05:45:26Z</time>
      </trkpt>
      <trkpt lat="45.52211" lon="7.20285">
        <ele>1960.9</ele>
        <time>2021-11-07T05:45:33Z</time>
      </trkpt>
      <trkpt lat="45.52201" lon="7.20281">
        <ele>1961.2</ele>
        <time>2021-11-07T05:45:40Z</time>
      </trkpt>
      <trkpt lat="45.52191" lon="7.20281">
        <ele>1961.8</ele>
        <time>2021-11-07T05:45:47Z</time>
      </trkpt>
      <trkpt lat="45.52189" lon="7.20282">
        <ele>1961.9</ele>
        <time>2021-11-07T05:45:48Z</time>
      </trkpt>
      <trkpt lat="45.52185" lon="7.20283">
        <ele>1962.2</ele>
        <time>2021-11-07T05:45:51Z</time>
      </trkpt>
      <trkpt lat="45.52181" lon="7.20283">
        <ele>1962.6</ele>
        <time>2021-11-07T05:45:54Z</time>
      </trkpt>
      <trkpt lat="45.52178" lon="7.20283">
        <ele>1962.9</ele>
        <time>2021-11-07T05:45:57Z</time>
      </trkpt>
      <trkpt lat="45.52177" lon="7.20284">
        <ele>1963.1</ele>
        <time>2021-11-07T05:45:58Z</time>
      </trkpt>
      <trkpt lat="45.52173" lon="7.20285">
        <ele>1963.5</ele>
        <time>2021-11-07T05:46:01Z</time>
      </trkpt>
      <trkpt lat="45.52172" lon="7.20285">
        <ele>1963.6</ele>
        <time>2021-11-07T05:46:02Z</time>
      </trkpt>
      <trkpt lat="45.52171" lon="7.20286">
        <ele>1963.8</ele>
        <time>2021-11-07T05:46:03Z</time>
      </trkpt>
      <trkpt lat="45.5217" lon="7.20286">
        <ele>1964</ele>
        <time>2021-11-07T05:46:04Z</time>
      </trkpt>
      <trkpt lat="45.52165" lon="7.20288">
        <ele>1964.7</ele>
        <time>2021-11-07T05:46:08Z</time>
      </trkpt>
      <trkpt lat="45.52155" lon="7.20295">
        <ele>1966.1</ele>
        <time>2021-11-07T05:46:17Z</time>
      </trkpt>
      <trkpt lat="45.52151" lon="7.20297">
        <ele>1966.8</ele>
        <time>2021-11-07T05:46:21Z</time>
      </trkpt>
      <trkpt lat="45.52146" lon="7.203">
        <ele>1967.5</ele>
        <time>2021-11-07T05:46:25Z</time>
      </trkpt>
      <trkpt lat="45.52144" lon="7.203">
        <ele>1967.6</ele>
        <time>2021-11-07T05:46:26Z</time>
      </trkpt>
      <trkpt lat="45.52139" lon="7.20302">
        <ele>1967.9</ele>
        <time>2021-11-07T05:46:30Z</time>
      </trkpt>
      <trkpt lat="45.52134" lon="7.20305">
        <ele>1968.3</ele>
        <time>2021-11-07T05:46:34Z</time>
      </trkpt>
      <trkpt lat="45.5213" lon="7.20309">
        <ele>1968.5</ele>
        <time>2021-11-07T05:46:38Z</time>
      </trkpt>
      <trkpt lat="45.52127" lon="7.20312">
        <ele>1968.6</ele>
        <time>2021-11-07T05:46:41Z</time>
      </trkpt>
      <trkpt lat="45.52124" lon="7.20317">
        <ele>1968.7</ele>
        <time>2021-11-07T05:46:44Z</time>
      </trkpt>
      <trkpt lat="45.5212" lon="7.20322">
        <ele>1968.7</ele>
        <time>2021-11-07T05:46:48Z</time>
      </trkpt>
      <trkpt lat="45.52119" lon="7.20323">
        <ele>1968.7</ele>
        <time>2021-11-07T05:46:49Z</time>
      </trkpt>
      <trkpt lat="45.5211" lon="7.20329">
        <ele>1968.3</ele>
        <time>2021-11-07T05:46:56Z</time>
      </trkpt>
      <trkpt lat="45.52099" lon="7.20333">
        <ele>1967.7</ele>
        <time>2021-11-07T05:47:04Z</time>
      </trkpt>
      <trkpt lat="45.52098" lon="7.20334">
        <ele>1967.7</ele>
        <time>2021-11-07T05:47:05Z</time>
      </trkpt>
      <trkpt lat="45.52088" lon="7.20337">
        <ele>1967.4</ele>
        <time>2021-11-07T05:47:13Z</time>
      </trkpt>
      <trkpt lat="45.52077" lon="7.20343">
        <ele>1967.3</ele>
        <time>2021-11-07T05:47:21Z</time>
      </trkpt>
      <trkpt lat="45.52075" lon="7.20344">
        <ele>1967.3</ele>
        <time>2021-11-07T05:47:22Z</time>
      </trkpt>
      <trkpt lat="45.52067" lon="7.20344">
        <ele>1967.3</ele>
        <time>2021-11-07T05:47:28Z</time>
      </trkpt>
      <trkpt lat="45.52066" lon="7.20344">
        <ele>1967.3</ele>
        <time>2021-11-07T05:47:29Z</time>
      </trkpt>
      <trkpt lat="45.52057" lon="7.20347">
        <ele>1967.3</ele>
        <time>2021-11-07T05:47:35Z</time>
      </trkpt>
      <trkpt lat="45.5205" lon="7.20349">
        <ele>1967.5</ele>
        <time>2021-11-07T05:47:41Z</time>
      </trkpt>
      <trkpt lat="45.52047" lon="7.2035">
        <ele>1967.6</ele>
        <time>2021-11-07T05:47:44Z</time>
      </trkpt>
      <trkpt lat="45.52042" lon="7.20353">
        <ele>1967.8</ele>
        <time>2021-11-07T05:47:47Z</time>
      </trkpt>
      <trkpt lat="45.52041" lon="7.20354">
        <ele>1967.9</ele>
        <time>2021-11-07T05:47:48Z</time>
      </trkpt>
      <trkpt lat="45.52037" lon="7.20354">
        <ele>1968.1</ele>
        <time>2021-11-07T05:47:51Z</time>
      </trkpt>
      <trkpt lat="45.52034" lon="7.20355">
        <ele>1968.2</ele>
        <time>2021-11-07T05:47:53Z</time>
      </trkpt>
      <trkpt lat="45.52024" lon="7.20357">
        <ele>1968.5</ele>
        <time>2021-11-07T05:48:01Z</time>
      </trkpt>
      <trkpt lat="45.52018" lon="7.2036">
        <ele>1968.7</ele>
        <time>2021-11-07T05:48:06Z</time>
      </trkpt>
      <trkpt lat="45.52008" lon="7.20361">
        <ele>1969.1</ele>
        <time>2021-11-07T05:48:13Z</time>
      </trkpt>
      <trkpt lat="45.52" lon="7.20366">
        <ele>1969.6</ele>
        <time>2021-11-07T05:48:20Z</time>
      </trkpt>
      <trkpt lat="45.51996" lon="7.20368">
        <ele>1969.9</ele>
        <time>2021-11-07T05:48:24Z</time>
      </trkpt>
      <trkpt lat="45.51992" lon="7.20368">
        <ele>1970.1</ele>
        <time>2021-11-07T05:48:27Z</time>
      </trkpt>
      <trkpt lat="45.51988" lon="7.20369">
        <ele>1970.3</ele>
        <time>2021-11-07T05:48:30Z</time>
      </trkpt>
      <trkpt lat="45.51982" lon="7.20373">
        <ele>1970.6</ele>
        <time>2021-11-07T05:48:35Z</time>
      </trkpt>
      <trkpt lat="45.51981" lon="7.20374">
        <ele>1970.7</ele>
        <time>2021-11-07T05:48:36Z</time>
      </trkpt>
      <trkpt lat="45.51974" lon="7.20382">
        <ele>1971</ele>
        <time>2021-11-07T05:48:43Z</time>
      </trkpt>
      <trkpt lat="45.51973" lon="7.20383">
        <ele>1971.1</ele>
        <time>2021-11-07T05:48:44Z</time>
      </trkpt>
      <trkpt lat="45.51967" lon="7.20389">
        <ele>1971.4</ele>
        <time>2021-11-07T05:48:50Z</time>
      </trkpt>
      <trkpt lat="45.51964" lon="7.20391">
        <ele>1971.5</ele>
        <time>2021-11-07T05:48:52Z</time>
      </trkpt>
      <trkpt lat="45.51958" lon="7.20397">
        <ele>1971.7</ele>
        <time>2021-11-07T05:48:57Z</time>
      </trkpt>
      <trkpt lat="45.51954" lon="7.20399">
        <ele>1971.8</ele>
        <time>2021-11-07T05:49:00Z</time>
      </trkpt>
      <trkpt lat="45.51942" lon="7.204">
        <ele>1972.2</ele>
        <time>2021-11-07T05:49:08Z</time>
      </trkpt>
      <trkpt lat="45.51936" lon="7.20401">
        <ele>1972.5</ele>
        <time>2021-11-07T05:49:12Z</time>
      </trkpt>
      <trkpt lat="45.51931" lon="7.20402">
        <ele>1972.7</ele>
        <time>2021-11-07T05:49:15Z</time>
      </trkpt>
      <trkpt lat="45.51921" lon="7.20407">
        <ele>1973.2</ele>
        <time>2021-11-07T05:49:23Z</time>
      </trkpt>
      <trkpt lat="45.51916" lon="7.20409">
        <ele>1973.3</ele>
        <time>2021-11-07T05:49:27Z</time>
      </trkpt>
      <trkpt lat="45.5191" lon="7.2041">
        <ele>1973.5</ele>
        <time>2021-11-07T05:49:31Z</time>
      </trkpt>
      <trkpt lat="45.51899" lon="7.20409">
        <ele>1973.7</ele>
        <time>2021-11-07T05:49:38Z</time>
      </trkpt>
      <trkpt lat="45.51893" lon="7.20409">
        <ele>1973.7</ele>
        <time>2021-11-07T05:49:42Z</time>
      </trkpt>
      <trkpt lat="45.51889" lon="7.2041">
        <ele>1973.8</ele>
        <time>2021-11-07T05:49:45Z</time>
      </trkpt>
      <trkpt lat="45.51886" lon="7.2041">
        <ele>1973.8</ele>
        <time>2021-11-07T05:49:47Z</time>
      </trkpt>
      <trkpt lat="45.51881" lon="7.20412">
        <ele>1974</ele>
        <time>2021-11-07T05:49:51Z</time>
      </trkpt>
      <trkpt lat="45.51878" lon="7.20414">
        <ele>1974.1</ele>
        <time>2021-11-07T05:49:53Z</time>
      </trkpt>
      <trkpt lat="45.51872" lon="7.20416">
        <ele>1974.4</ele>
        <time>2021-11-07T05:49:57Z</time>
      </trkpt>
      <trkpt lat="45.5187" lon="7.20415">
        <ele>1974.5</ele>
        <time>2021-11-07T05:49:58Z</time>
      </trkpt>
      <trkpt lat="45.51868" lon="7.20416">
        <ele>1974.6</ele>
        <time>2021-11-07T05:50:00Z</time>
      </trkpt>
      <trkpt lat="45.51862" lon="7.20416">
        <ele>1975</ele>
        <time>2021-11-07T05:50:04Z</time>
      </trkpt>
      <trkpt lat="45.51861" lon="7.20416">
        <ele>1975</ele>
        <time>2021-11-07T05:50:05Z</time>
      </trkpt>
      <trkpt lat="45.51854" lon="7.20417">
        <ele>1975.5</ele>
        <time>2021-11-07T05:50:10Z</time>
      </trkpt>
      <trkpt lat="45.51853" lon="7.20417">
        <ele>1975.6</ele>
        <time>2021-11-07T05:50:11Z</time>
      </trkpt>
      <trkpt lat="45.51844" lon="7.20416">
        <ele>1976.2</ele>
        <time>2021-11-07T05:50:17Z</time>
      </trkpt>
      <trkpt lat="45.51843" lon="7.20416">
        <ele>1976.2</ele>
        <time>2021-11-07T05:50:18Z</time>
      </trkpt>
      <trkpt lat="45.5184" lon="7.20419">
        <ele>1976.4</ele>
        <time>2021-11-07T05:50:21Z</time>
      </trkpt>
      <trkpt lat="45.51833" lon="7.2042">
        <ele>1976.8</ele>
        <time>2021-11-07T05:50:26Z</time>
      </trkpt>
      <trkpt lat="45.51826" lon="7.2042">
        <ele>1977.1</ele>
        <time>2021-11-07T05:50:31Z</time>
      </trkpt>
      <trkpt lat="45.51815" lon="7.2042">
        <ele>1977.5</ele>
        <time>2021-11-07T05:50:38Z</time>
      </trkpt>
      <trkpt lat="45.5181" lon="7.20424">
        <ele>1977.8</ele>
        <time>2021-11-07T05:50:43Z</time>
      </trkpt>
      <trkpt lat="45.51808" lon="7.20427">
        <ele>1977.9</ele>
        <time>2021-11-07T05:50:45Z</time>
      </trkpt>
      <trkpt lat="45.518" lon="7.2043">
        <ele>1978.3</ele>
        <time>2021-11-07T05:50:51Z</time>
      </trkpt>
      <trkpt lat="45.51796" lon="7.2043">
        <ele>1978.4</ele>
        <time>2021-11-07T05:50:54Z</time>
      </trkpt>
      <trkpt lat="45.51791" lon="7.20431">
        <ele>1978.6</ele>
        <time>2021-11-07T05:50:58Z</time>
      </trkpt>
      <trkpt lat="45.5178" lon="7.20432">
        <ele>1979.1</ele>
        <time>2021-11-07T05:51:05Z</time>
      </trkpt>
      <trkpt lat="45.51774" lon="7.20435">
        <ele>1979.4</ele>
        <time>2021-11-07T05:51:09Z</time>
      </trkpt>
      <trkpt lat="45.51769" lon="7.20437">
        <ele>1979.6</ele>
        <time>2021-11-07T05:51:12Z</time>
      </trkpt>
      <trkpt lat="45.51763" lon="7.20441">
        <ele>1980</ele>
        <time>2021-11-07T05:51:16Z</time>
      </trkpt>
      <trkpt lat="45.5176" lon="7.20442">
        <ele>1980.2</ele>
        <time>2021-11-07T05:51:18Z</time>
      </trkpt>
      <trkpt lat="45.51756" lon="7.20444">
        <ele>1980.4</ele>
        <time>2021-11-07T05:51:21Z</time>
      </trkpt>
      <trkpt lat="45.51751" lon="7.20445">
        <ele>1980.7</ele>
        <time>2021-11-07T05:51:25Z</time>
      </trkpt>
      <trkpt lat="45.51748" lon="7.20446">
        <ele>1980.9</ele>
        <time>2021-11-07T05:51:27Z</time>
      </trkpt>
      <trkpt lat="45.51742" lon="7.20446">
        <ele>1981.2</ele>
        <time>2021-11-07T05:51:31Z</time>
      </trkpt>
      <trkpt lat="45.5174" lon="7.20447">
        <ele>1981.2</ele>
        <time>2021-11-07T05:51:32Z</time>
      </trkpt>
      <trkpt lat="45.51733" lon="7.20451">
        <ele>1981.5</ele>
        <time>2021-11-07T05:51:37Z</time>
      </trkpt>
      <trkpt lat="45.51731" lon="7.20451">
        <ele>1981.5</ele>
        <time>2021-11-07T05:51:38Z</time>
      </trkpt>
      <trkpt lat="45.51728" lon="7.20452">
        <ele>1981.6</ele>
        <time>2021-11-07T05:51:40Z</time>
      </trkpt>
      <trkpt lat="45.51724" lon="7.20454">
        <ele>1981.7</ele>
        <time>2021-11-07T05:51:43Z</time>
      </trkpt>
      <trkpt lat="45.51719" lon="7.20456">
        <ele>1981.7</ele>
        <time>2021-11-07T05:51:46Z</time>
      </trkpt>
      <trkpt lat="45.51714" lon="7.20458">
        <ele>1981.8</ele>
        <time>2021-11-07T05:51:49Z</time>
      </trkpt>
      <trkpt lat="45.51704" lon="7.20462">
        <ele>1981.9</ele>
        <time>2021-11-07T05:51:56Z</time>
      </trkpt>
      <trkpt lat="45.51696" lon="7.20465">
        <ele>1982.1</ele>
        <time>2021-11-07T05:52:02Z</time>
      </trkpt>
      <trkpt lat="45.51687" lon="7.20467">
        <ele>1982.5</ele>
        <time>2021-11-07T05:52:09Z</time>
      </trkpt>
      <trkpt lat="45.5168" lon="7.20471">
        <ele>1982.8</ele>
        <time>2021-11-07T05:52:14Z</time>
      </trkpt>
      <trkpt lat="45.51678" lon="7.20471">
        <ele>1982.8</ele>
        <time>2021-11-07T05:52:15Z</time>
      </trkpt>
      <trkpt lat="45.51677" lon="7.20471">
        <ele>1982.8</ele>
        <time>2021-11-07T05:52:16Z</time>
      </trkpt>
      <trkpt lat="45.51676" lon="7.20471">
        <ele>1982.9</ele>
        <time>2021-11-07T05:52:17Z</time>
      </trkpt>
      <trkpt lat="45.51665" lon="7.2047">
        <ele>1983.1</ele>
        <time>2021-11-07T05:52:25Z</time>
      </trkpt>
      <trkpt lat="45.51662" lon="7.2047">
        <ele>1983.2</ele>
        <time>2021-11-07T05:52:27Z</time>
      </trkpt>
      <trkpt lat="45.51657" lon="7.20471">
        <ele>1983.4</ele>
        <time>2021-11-07T05:52:31Z</time>
      </trkpt>
      <trkpt lat="45.51654" lon="7.20472">
        <ele>1983.5</ele>
        <time>2021-11-07T05:52:33Z</time>
      </trkpt>
      <trkpt lat="45.51644" lon="7.20479">
        <ele>1983.9</ele>
        <time>2021-11-07T05:52:40Z</time>
      </trkpt>
      <trkpt lat="45.51638" lon="7.20487">
        <ele>1984.4</ele>
        <time>2021-11-07T05:52:45Z</time>
      </trkpt>
      <trkpt lat="45.51636" lon="7.20488">
        <ele>1984.5</ele>
        <time>2021-11-07T05:52:46Z</time>
      </trkpt>
      <trkpt lat="45.51633" lon="7.20491">
        <ele>1984.7</ele>
        <time>2021-11-07T05:52:49Z</time>
      </trkpt>
      <trkpt lat="45.51629" lon="7.20494">
        <ele>1985</ele>
        <time>2021-11-07T05:52:53Z</time>
      </trkpt>
      <trkpt lat="45.5162" lon="7.20499">
        <ele>1985.5</ele>
        <time>2021-11-07T05:53:00Z</time>
      </trkpt>
      <trkpt lat="45.5161" lon="7.20502">
        <ele>1986</ele>
        <time>2021-11-07T05:53:08Z</time>
      </trkpt>
      <trkpt lat="45.51603" lon="7.20511">
        <ele>1986.3</ele>
        <time>2021-11-07T05:53:15Z</time>
      </trkpt>
      <trkpt lat="45.51599" lon="7.20526">
        <ele>1986.7</ele>
        <time>2021-11-07T05:53:22Z</time>
      </trkpt>
      <trkpt lat="45.51594" lon="7.20538">
        <ele>1987.1</ele>
        <time>2021-11-07T05:53:29Z</time>
      </trkpt>
      <trkpt lat="45.5159" lon="7.20545">
        <ele>1987.4</ele>
        <time>2021-11-07T05:53:35Z</time>
      </trkpt>
      <trkpt lat="45.51587" lon="7.20547">
        <ele>1987.6</ele>
        <time>2021-11-07T05:53:38Z</time>
      </trkpt>
      <trkpt lat="45.51585" lon="7.20549">
        <ele>1987.7</ele>
        <time>2021-11-07T05:53:40Z</time>
      </trkpt>
      <trkpt lat="45.51583" lon="7.20549">
        <ele>1987.8</ele>
        <time>2021-11-07T05:53:43Z</time>
      </trkpt>
      <trkpt lat="45.51578" lon="7.2055">
        <ele>1988.1</ele>
        <time>2021-11-07T05:53:51Z</time>
      </trkpt>
      <trkpt lat="45.51578" lon="7.20551">
        <ele>1988.1</ele>
        <time>2021-11-07T05:53:53Z</time>
      </trkpt>
      <trkpt lat="45.51577" lon="7.20554">
        <ele>1988.2</ele>
        <time>2021-11-07T05:53:57Z</time>
      </trkpt>
      <trkpt lat="45.51575" lon="7.20557">
        <ele>1988.4</ele>
        <time>2021-11-07T05:53:59Z</time>
      </trkpt>
      <trkpt lat="45.5157" lon="7.20565">
        <ele>1988.7</ele>
        <time>2021-11-07T05:54:05Z</time>
      </trkpt>
      <trkpt lat="45.51569" lon="7.20566">
        <ele>1988.8</ele>
        <time>2021-11-07T05:54:06Z</time>
      </trkpt>
      <trkpt lat="45.51566" lon="7.2057">
        <ele>1988.9</ele>
        <time>2021-11-07T05:54:09Z</time>
      </trkpt>
      <trkpt lat="45.51564" lon="7.20572">
        <ele>1989.1</ele>
        <time>2021-11-07T05:54:11Z</time>
      </trkpt>
      <trkpt lat="45.51552" lon="7.20576">
        <ele>1989.8</ele>
        <time>2021-11-07T05:54:22Z</time>
      </trkpt>
      <trkpt lat="45.51549" lon="7.20577">
        <ele>1990</ele>
        <time>2021-11-07T05:54:24Z</time>
      </trkpt>
      <trkpt lat="45.51534" lon="7.20581">
        <ele>1990.7</ele>
        <time>2021-11-07T05:54:36Z</time>
      </trkpt>
      <trkpt lat="45.51522" lon="7.20592">
        <ele>1991.8</ele>
        <time>2021-11-07T05:54:46Z</time>
      </trkpt>
      <trkpt lat="45.51515" lon="7.20597">
        <ele>1992.6</ele>
        <time>2021-11-07T05:54:52Z</time>
      </trkpt>
      <trkpt lat="45.51515" lon="7.20598">
        <ele>1992.7</ele>
        <time>2021-11-07T05:54:53Z</time>
      </trkpt>
      <trkpt lat="45.51513" lon="7.20599">
        <ele>1992.9</ele>
        <time>2021-11-07T05:54:55Z</time>
      </trkpt>
      <trkpt lat="45.51512" lon="7.20599">
        <ele>1993</ele>
        <time>2021-11-07T05:54:56Z</time>
      </trkpt>
      <trkpt lat="45.5151" lon="7.206">
        <ele>1993.2</ele>
        <time>2021-11-07T05:54:57Z</time>
      </trkpt>
      <trkpt lat="45.51508" lon="7.20603">
        <ele>1993.6</ele>
        <time>2021-11-07T05:54:59Z</time>
      </trkpt>
      <trkpt lat="45.51508" lon="7.20605">
        <ele>1993.7</ele>
        <time>2021-11-07T05:55:00Z</time>
      </trkpt>
      <trkpt lat="45.51507" lon="7.20613">
        <ele>1994.4</ele>
        <time>2021-11-07T05:55:06Z</time>
      </trkpt>
      <trkpt lat="45.51508" lon="7.20618">
        <ele>1994.8</ele>
        <time>2021-11-07T05:55:10Z</time>
      </trkpt>
      <trkpt lat="45.51507" lon="7.2062">
        <ele>1995</ele>
        <time>2021-11-07T05:55:12Z</time>
      </trkpt>
      <trkpt lat="45.51507" lon="7.20623">
        <ele>1995.2</ele>
        <time>2021-11-07T05:55:15Z</time>
      </trkpt>
      <trkpt lat="45.51506" lon="7.20627">
        <ele>1995.4</ele>
        <time>2021-11-07T05:55:18Z</time>
      </trkpt>
      <trkpt lat="45.51506" lon="7.20628">
        <ele>1995.5</ele>
        <time>2021-11-07T05:55:19Z</time>
      </trkpt>
      <trkpt lat="45.51506" lon="7.20631">
        <ele>1995.7</ele>
        <time>2021-11-07T05:55:21Z</time>
      </trkpt>
      <trkpt lat="45.51506" lon="7.20634">
        <ele>1995.8</ele>
        <time>2021-11-07T05:55:23Z</time>
      </trkpt>
      <trkpt lat="45.51504" lon="7.20637">
        <ele>1995.9</ele>
        <time>2021-11-07T05:55:25Z</time>
      </trkpt>
      <trkpt lat="45.51503" lon="7.20638">
        <ele>1995.9</ele>
        <time>2021-11-07T05:55:26Z</time>
      </trkpt>
      <trkpt lat="45.51502" lon="7.20639">
        <ele>1996</ele>
        <time>2021-11-07T05:55:27Z</time>
      </trkpt>
      <trkpt lat="45.515" lon="7.20641">
        <ele>1996.1</ele>
        <time>2021-11-07T05:55:29Z</time>
      </trkpt>
      <trkpt lat="45.51499" lon="7.20643">
        <ele>1996.2</ele>
        <time>2021-11-07T05:55:31Z</time>
      </trkpt>
      <trkpt lat="45.51498" lon="7.20646">
        <ele>1996.3</ele>
        <time>2021-11-07T05:55:33Z</time>
      </trkpt>
      <trkpt lat="45.51495" lon="7.20654">
        <ele>1996.7</ele>
        <time>2021-11-07T05:55:38Z</time>
      </trkpt>
      <trkpt lat="45.51494" lon="7.20655">
        <ele>1996.7</ele>
        <time>2021-11-07T05:55:39Z</time>
      </trkpt>
      <trkpt lat="45.51494" lon="7.20655">
        <ele>1996.7</ele>
        <time>2021-11-07T05:55:40Z</time>
      </trkpt>
      <trkpt lat="45.51495" lon="7.20655">
        <ele>1996.8</ele>
        <time>2021-11-07T05:55:42Z</time>
      </trkpt>
      <trkpt lat="45.51495" lon="7.20656">
        <ele>1996.8</ele>
        <time>2021-11-07T05:55:44Z</time>
      </trkpt>
      <trkpt lat="45.51496" lon="7.20653">
        <ele>1997</ele>
        <time>2021-11-07T05:56:06Z</time>
      </trkpt>
      <trkpt lat="45.51496" lon="7.20653">
        <ele>1997</ele>
        <time>2021-11-07T05:56:07Z</time>
      </trkpt>
      <trkpt lat="45.51494" lon="7.20657">
        <ele>1997.3</ele>
        <time>2021-11-07T05:56:11Z</time>
      </trkpt>
      <trkpt lat="45.51491" lon="7.20661">
        <ele>1997.6</ele>
        <time>2021-11-07T05:56:14Z</time>
      </trkpt>
      <trkpt lat="45.51487" lon="7.20667">
        <ele>1998.1</ele>
        <time>2021-11-07T05:56:18Z</time>
      </trkpt>
      <trkpt lat="45.51485" lon="7.20671">
        <ele>1998.4</ele>
        <time>2021-11-07T05:56:22Z</time>
      </trkpt>
      <trkpt lat="45.51477" lon="7.20683">
        <ele>1999.2</ele>
        <time>2021-11-07T05:56:29Z</time>
      </trkpt>
      <trkpt lat="45.51474" lon="7.20689">
        <ele>1999.3</ele>
        <time>2021-11-07T05:56:33Z</time>
      </trkpt>
      <trkpt lat="45.51472" lon="7.20692">
        <ele>1999.9</ele>
        <time>2021-11-07T05:56:36Z</time>
      </trkpt>
      <trkpt lat="45.51473" lon="7.20692">
        <ele>2000</ele>
        <time>2021-11-07T05:56:39Z</time>
      </trkpt>
      <trkpt lat="45.51472" lon="7.20692">
        <ele>2000.1</ele>
        <time>2021-11-07T05:56:40Z</time>
      </trkpt>
      <trkpt lat="45.51472" lon="7.20694">
        <ele>2000.3</ele>
        <time>2021-11-07T05:56:42Z</time>
      </trkpt>
      <trkpt lat="45.5147" lon="7.20697">
        <ele>2000.9</ele>
        <time>2021-11-07T05:56:45Z</time>
      </trkpt>
      <trkpt lat="45.51467" lon="7.20701">
        <ele>2001.7</ele>
        <time>2021-11-07T05:56:48Z</time>
      </trkpt>
      <trkpt lat="45.51466" lon="7.20703">
        <ele>2002.1</ele>
        <time>2021-11-07T05:56:50Z</time>
      </trkpt>
      <trkpt lat="45.51465" lon="7.20704">
        <ele>2002.4</ele>
        <time>2021-11-07T05:56:52Z</time>
      </trkpt>
      <trkpt lat="45.51461" lon="7.20707">
        <ele>2003.2</ele>
        <time>2021-11-07T05:56:57Z</time>
      </trkpt>
      <trkpt lat="45.5146" lon="7.20708">
        <ele>2003.4</ele>
        <time>2021-11-07T05:56:58Z</time>
      </trkpt>
      <trkpt lat="45.51457" lon="7.2071">
        <ele>2004</ele>
        <time>2021-11-07T05:57:01Z</time>
      </trkpt>
      <trkpt lat="45.51456" lon="7.20711">
        <ele>2004.4</ele>
        <time>2021-11-07T05:57:03Z</time>
      </trkpt>
      <trkpt lat="45.51455" lon="7.20711">
        <ele>2004.6</ele>
        <time>2021-11-07T05:57:04Z</time>
      </trkpt>
      <trkpt lat="45.51454" lon="7.20712">
        <ele>2004.7</ele>
        <time>2021-11-07T05:57:05Z</time>
      </trkpt>
      <trkpt lat="45.51454" lon="7.20713">
        <ele>2004.9</ele>
        <time>2021-11-07T05:57:06Z</time>
      </trkpt>
      <trkpt lat="45.51453" lon="7.20717">
        <ele>2005.5</ele>
        <time>2021-11-07T05:57:09Z</time>
      </trkpt>
      <trkpt lat="45.5145" lon="7.20723">
        <ele>2006.6</ele>
        <time>2021-11-07T05:57:14Z</time>
      </trkpt>
      <trkpt lat="45.51449" lon="7.20724">
        <ele>2006.7</ele>
        <time>2021-11-07T05:57:15Z</time>
      </trkpt>
      <trkpt lat="45.51447" lon="7.20725">
        <ele>2007.2</ele>
        <time>2021-11-07T05:57:17Z</time>
      </trkpt>
      <trkpt lat="45.51445" lon="7.20727">
        <ele>2007.7</ele>
        <time>2021-11-07T05:57:19Z</time>
      </trkpt>
      <trkpt lat="45.51444" lon="7.20727">
        <ele>2007.8</ele>
        <time>2021-11-07T05:57:20Z</time>
      </trkpt>
      <trkpt lat="45.51438" lon="7.20727">
        <ele>2008.9</ele>
        <time>2021-11-07T05:57:25Z</time>
      </trkpt>
      <trkpt lat="45.51436" lon="7.20728">
        <ele>2009.5</ele>
        <time>2021-11-07T05:57:27Z</time>
      </trkpt>
      <trkpt lat="45.51434" lon="7.20729">
        <ele>2009.8</ele>
        <time>2021-11-07T05:57:28Z</time>
      </trkpt>
      <trkpt lat="45.51431" lon="7.20731">
        <ele>2010.6</ele>
        <time>2021-11-07T05:57:32Z</time>
      </trkpt>
      <trkpt lat="45.51428" lon="7.20735">
        <ele>2011.3</ele>
        <time>2021-11-07T05:57:35Z</time>
      </trkpt>
      <trkpt lat="45.51427" lon="7.20736">
        <ele>2011.6</ele>
        <time>2021-11-07T05:57:36Z</time>
      </trkpt>
      <trkpt lat="45.51426" lon="7.20737">
        <ele>2011.9</ele>
        <time>2021-11-07T05:57:37Z</time>
      </trkpt>
      <trkpt lat="45.51423" lon="7.20739">
        <ele>2012.5</ele>
        <time>2021-11-07T05:57:41Z</time>
      </trkpt>
      <trkpt lat="45.51419" lon="7.20742">
        <ele>2013.5</ele>
        <time>2021-11-07T05:57:46Z</time>
      </trkpt>
      <trkpt lat="45.51415" lon="7.20744">
        <ele>2014.3</ele>
        <time>2021-11-07T05:57:50Z</time>
      </trkpt>
      <trkpt lat="45.51414" lon="7.20745">
        <ele>2014.5</ele>
        <time>2021-11-07T05:57:51Z</time>
      </trkpt>
      <trkpt lat="45.51411" lon="7.20745">
        <ele>2015</ele>
        <time>2021-11-07T05:57:54Z</time>
      </trkpt>
      <trkpt lat="45.51408" lon="7.2075">
        <ele>2016</ele>
        <time>2021-11-07T05:58:01Z</time>
      </trkpt>
      <trkpt lat="45.51406" lon="7.20752">
        <ele>2016.4</ele>
        <time>2021-11-07T05:58:04Z</time>
      </trkpt>
      <trkpt lat="45.51405" lon="7.20752">
        <ele>2016.6</ele>
        <time>2021-11-07T05:58:06Z</time>
      </trkpt>
      <trkpt lat="45.51399" lon="7.20754">
        <ele>2017.9</ele>
        <time>2021-11-07T05:58:15Z</time>
      </trkpt>
      <trkpt lat="45.51397" lon="7.20757">
        <ele>2018.5</ele>
        <time>2021-11-07T05:58:18Z</time>
      </trkpt>
      <trkpt lat="45.51396" lon="7.2076">
        <ele>2018.9</ele>
        <time>2021-11-07T05:58:21Z</time>
      </trkpt>
      <trkpt lat="45.51395" lon="7.20763">
        <ele>2019.4</ele>
        <time>2021-11-07T05:58:25Z</time>
      </trkpt>
      <trkpt lat="45.51395" lon="7.20764">
        <ele>2019.6</ele>
        <time>2021-11-07T05:58:27Z</time>
      </trkpt>
      <trkpt lat="45.51394" lon="7.20767">
        <ele>2020.1</ele>
        <time>2021-11-07T05:58:32Z</time>
      </trkpt>
      <trkpt lat="45.51391" lon="7.20772">
        <ele>2020.9</ele>
        <time>2021-11-07T05:58:37Z</time>
      </trkpt>
      <trkpt lat="45.51391" lon="7.20772">
        <ele>2021</ele>
        <time>2021-11-07T05:58:39Z</time>
      </trkpt>
      <trkpt lat="45.5139" lon="7.20773">
        <ele>2021.1</ele>
        <time>2021-11-07T05:58:40Z</time>
      </trkpt>
      <trkpt lat="45.51391" lon="7.20776">
        <ele>2021.5</ele>
        <time>2021-11-07T05:58:46Z</time>
      </trkpt>
      <trkpt lat="45.51395" lon="7.20777">
        <ele>2022.3</ele>
        <time>2021-11-07T05:58:51Z</time>
      </trkpt>
      <trkpt lat="45.51401" lon="7.20775">
        <ele>2023.6</ele>
        <time>2021-11-07T05:58:57Z</time>
      </trkpt>
      <trkpt lat="45.51402" lon="7.20774">
        <ele>2023.7</ele>
        <time>2021-11-07T05:58:58Z</time>
      </trkpt>
      <trkpt lat="45.51409" lon="7.20773">
        <ele>2025.2</ele>
        <time>2021-11-07T05:59:06Z</time>
      </trkpt>
      <trkpt lat="45.51411" lon="7.20771">
        <ele>2025.8</ele>
        <time>2021-11-07T05:59:11Z</time>
      </trkpt>
      <trkpt lat="45.51413" lon="7.2077">
        <ele>2026.1</ele>
        <time>2021-11-07T05:59:13Z</time>
      </trkpt>
      <trkpt lat="45.51414" lon="7.2077">
        <ele>2026.3</ele>
        <time>2021-11-07T05:59:14Z</time>
      </trkpt>
      <trkpt lat="45.51415" lon="7.20768">
        <ele>2026.6</ele>
        <time>2021-11-07T05:59:17Z</time>
      </trkpt>
      <trkpt lat="45.51415" lon="7.20768">
        <ele>2026.7</ele>
        <time>2021-11-07T05:59:18Z</time>
      </trkpt>
      <trkpt lat="45.51417" lon="7.20767">
        <ele>2027</ele>
        <time>2021-11-07T05:59:20Z</time>
      </trkpt>
      <trkpt lat="45.51417" lon="7.20767">
        <ele>2027.1</ele>
        <time>2021-11-07T05:59:21Z</time>
      </trkpt>
      <trkpt lat="45.51418" lon="7.20767">
        <ele>2027.2</ele>
        <time>2021-11-07T05:59:22Z</time>
      </trkpt>
      <trkpt lat="45.5142" lon="7.20768">
        <ele>2027.7</ele>
        <time>2021-11-07T05:59:25Z</time>
      </trkpt>
      <trkpt lat="45.51422" lon="7.20768">
        <ele>2028.1</ele>
        <time>2021-11-07T05:59:27Z</time>
      </trkpt>
      <trkpt lat="45.51423" lon="7.20768">
        <ele>2028.3</ele>
        <time>2021-11-07T05:59:28Z</time>
      </trkpt>
      <trkpt lat="45.51431" lon="7.20771">
        <ele>2030</ele>
        <time>2021-11-07T05:59:36Z</time>
      </trkpt>
      <trkpt lat="45.51435" lon="7.20774">
        <ele>2030.9</ele>
        <time>2021-11-07T05:59:41Z</time>
      </trkpt>
      <trkpt lat="45.51436" lon="7.20774">
        <ele>2031.1</ele>
        <time>2021-11-07T05:59:42Z</time>
      </trkpt>
      <trkpt lat="45.51443" lon="7.20776">
        <ele>2032.5</ele>
        <time>2021-11-07T05:59:49Z</time>
      </trkpt>
      <trkpt lat="45.51445" lon="7.20778">
        <ele>2033</ele>
        <time>2021-11-07T05:59:52Z</time>
      </trkpt>
      <trkpt lat="45.5145" lon="7.20779">
        <ele>2033.9</ele>
        <time>2021-11-07T05:59:56Z</time>
      </trkpt>
      <trkpt lat="45.51451" lon="7.2078">
        <ele>2034.1</ele>
        <time>2021-11-07T05:59:57Z</time>
      </trkpt>
      <trkpt lat="45.51451" lon="7.20781">
        <ele>2034.3</ele>
        <time>2021-11-07T05:59:58Z</time>
      </trkpt>
      <trkpt lat="45.51454" lon="7.20782">
        <ele>2034.9</ele>
        <time>2021-11-07T06:00:02Z</time>
      </trkpt>
      <trkpt lat="45.5146" lon="7.20783">
        <ele>2036.1</ele>
        <time>2021-11-07T06:00:07Z</time>
      </trkpt>
      <trkpt lat="45.51461" lon="7.20784">
        <ele>2036.4</ele>
        <time>2021-11-07T06:00:09Z</time>
      </trkpt>
      <trkpt lat="45.51462" lon="7.20784">
        <ele>2036.5</ele>
        <time>2021-11-07T06:00:10Z</time>
      </trkpt>
      <trkpt lat="45.51462" lon="7.20785">
        <ele>2036.7</ele>
        <time>2021-11-07T06:00:12Z</time>
      </trkpt>
      <trkpt lat="45.51463" lon="7.20785">
        <ele>2036.8</ele>
        <time>2021-11-07T06:00:13Z</time>
      </trkpt>
      <trkpt lat="45.51464" lon="7.20785">
        <ele>2036.9</ele>
        <time>2021-11-07T06:00:14Z</time>
      </trkpt>
      <trkpt lat="45.51465" lon="7.20787">
        <ele>2037.3</ele>
        <time>2021-11-07T06:00:16Z</time>
      </trkpt>
      <trkpt lat="45.51469" lon="7.20788">
        <ele>2038.2</ele>
        <time>2021-11-07T06:00:19Z</time>
      </trkpt>
      <trkpt lat="45.51472" lon="7.2079">
        <ele>2038.8</ele>
        <time>2021-11-07T06:00:22Z</time>
      </trkpt>
      <trkpt lat="45.51479" lon="7.20795">
        <ele>2040.2</ele>
        <time>2021-11-07T06:00:29Z</time>
      </trkpt>
      <trkpt lat="45.51481" lon="7.20796">
        <ele>2040.7</ele>
        <time>2021-11-07T06:00:30Z</time>
      </trkpt>
      <trkpt lat="45.51485" lon="7.20797">
        <ele>2041.5</ele>
        <time>2021-11-07T06:00:33Z</time>
      </trkpt>
      <trkpt lat="45.51488" lon="7.20798">
        <ele>2042.2</ele>
        <time>2021-11-07T06:00:38Z</time>
      </trkpt>
      <trkpt lat="45.51489" lon="7.20796">
        <ele>2042.5</ele>
        <time>2021-11-07T06:00:41Z</time>
      </trkpt>
      <trkpt lat="45.51491" lon="7.20796">
        <ele>2042.8</ele>
        <time>2021-11-07T06:00:44Z</time>
      </trkpt>
      <trkpt lat="45.51492" lon="7.20796">
        <ele>2042.9</ele>
        <time>2021-11-07T06:00:45Z</time>
      </trkpt>
      <trkpt lat="45.51493" lon="7.20796">
        <ele>2043.2</ele>
        <time>2021-11-07T06:00:47Z</time>
      </trkpt>
      <trkpt lat="45.51495" lon="7.20795">
        <ele>2043.6</ele>
        <time>2021-11-07T06:00:51Z</time>
      </trkpt>
      <trkpt lat="45.51495" lon="7.20795">
        <ele>2043.7</ele>
        <time>2021-11-07T06:00:52Z</time>
      </trkpt>
      <trkpt lat="45.51496" lon="7.20795">
        <ele>2043.9</ele>
        <time>2021-11-07T06:00:53Z</time>
      </trkpt>
      <trkpt lat="45.51497" lon="7.20795">
        <ele>2044.1</ele>
        <time>2021-11-07T06:00:54Z</time>
      </trkpt>
      <trkpt lat="45.51499" lon="7.20795">
        <ele>2044.4</ele>
        <time>2021-11-07T06:00:57Z</time>
      </trkpt>
      <trkpt lat="45.515" lon="7.20795">
        <ele>2044.7</ele>
        <time>2021-11-07T06:01:00Z</time>
      </trkpt>
      <trkpt lat="45.51501" lon="7.20794">
        <ele>2044.9</ele>
        <time>2021-11-07T06:01:02Z</time>
      </trkpt>
      <trkpt lat="45.51501" lon="7.20796">
        <ele>2045.1</ele>
        <time>2021-11-07T06:01:06Z</time>
      </trkpt>
      <trkpt lat="45.51498" lon="7.20803">
        <ele>2046.3</ele>
        <time>2021-11-07T06:01:13Z</time>
      </trkpt>
      <trkpt lat="45.51494" lon="7.20807">
        <ele>2047.3</ele>
        <time>2021-11-07T06:01:19Z</time>
      </trkpt>
      <trkpt lat="45.51493" lon="7.20808">
        <ele>2047.5</ele>
        <time>2021-11-07T06:01:20Z</time>
      </trkpt>
      <trkpt lat="45.51491" lon="7.20809">
        <ele>2047.9</ele>
        <time>2021-11-07T06:01:24Z</time>
      </trkpt>
      <trkpt lat="45.5149" lon="7.2081">
        <ele>2048.2</ele>
        <time>2021-11-07T06:01:26Z</time>
      </trkpt>
      <trkpt lat="45.51488" lon="7.20812">
        <ele>2048.7</ele>
        <time>2021-11-07T06:01:29Z</time>
      </trkpt>
      <trkpt lat="45.51487" lon="7.20814">
        <ele>2049.1</ele>
        <time>2021-11-07T06:01:32Z</time>
      </trkpt>
      <trkpt lat="45.51486" lon="7.20816">
        <ele>2049.3</ele>
        <time>2021-11-07T06:01:34Z</time>
      </trkpt>
      <trkpt lat="45.51486" lon="7.20817">
        <ele>2049.5</ele>
        <time>2021-11-07T06:01:35Z</time>
      </trkpt>
      <trkpt lat="45.51484" lon="7.20819">
        <ele>2050</ele>
        <time>2021-11-07T06:01:38Z</time>
      </trkpt>
      <trkpt lat="45.51482" lon="7.2082">
        <ele>2050.4</ele>
        <time>2021-11-07T06:01:41Z</time>
      </trkpt>
      <trkpt lat="45.51481" lon="7.20822">
        <ele>2050.7</ele>
        <time>2021-11-07T06:01:43Z</time>
      </trkpt>
      <trkpt lat="45.5148" lon="7.20824">
        <ele>2051</ele>
        <time>2021-11-07T06:01:45Z</time>
      </trkpt>
      <trkpt lat="45.5148" lon="7.20824">
        <ele>2051.1</ele>
        <time>2021-11-07T06:01:46Z</time>
      </trkpt>
      <trkpt lat="45.51478" lon="7.20826">
        <ele>2051.5</ele>
        <time>2021-11-07T06:01:49Z</time>
      </trkpt>
      <trkpt lat="45.51476" lon="7.20828">
        <ele>2052</ele>
        <time>2021-11-07T06:01:52Z</time>
      </trkpt>
      <trkpt lat="45.51475" lon="7.20829">
        <ele>2052.2</ele>
        <time>2021-11-07T06:01:53Z</time>
      </trkpt>
      <trkpt lat="45.51473" lon="7.20831">
        <ele>2052.7</ele>
        <time>2021-11-07T06:01:56Z</time>
      </trkpt>
      <trkpt lat="45.51471" lon="7.20832">
        <ele>2053.1</ele>
        <time>2021-11-07T06:01:58Z</time>
      </trkpt>
      <trkpt lat="45.51471" lon="7.20833">
        <ele>2053.2</ele>
        <time>2021-11-07T06:01:59Z</time>
      </trkpt>
      <trkpt lat="45.5147" lon="7.20834">
        <ele>2053.4</ele>
        <time>2021-11-07T06:02:00Z</time>
      </trkpt>
      <trkpt lat="45.51468" lon="7.20833">
        <ele>2053.9</ele>
        <time>2021-11-07T06:02:03Z</time>
      </trkpt>
      <trkpt lat="45.51463" lon="7.20835">
        <ele>2054.8</ele>
        <time>2021-11-07T06:02:07Z</time>
      </trkpt>
      <trkpt lat="45.51462" lon="7.20836">
        <ele>2055.1</ele>
        <time>2021-11-07T06:02:08Z</time>
      </trkpt>
      <trkpt lat="45.51461" lon="7.20839">
        <ele>2055.6</ele>
        <time>2021-11-07T06:02:10Z</time>
      </trkpt>
      <trkpt lat="45.5146" lon="7.20839">
        <ele>2055.7</ele>
        <time>2021-11-07T06:02:11Z</time>
      </trkpt>
      <trkpt lat="45.51459" lon="7.2084">
        <ele>2056</ele>
        <time>2021-11-07T06:02:13Z</time>
      </trkpt>
      <trkpt lat="45.51457" lon="7.20841">
        <ele>2056.3</ele>
        <time>2021-11-07T06:02:15Z</time>
      </trkpt>
      <trkpt lat="45.51457" lon="7.20842">
        <ele>2056.5</ele>
        <time>2021-11-07T06:02:16Z</time>
      </trkpt>
      <trkpt lat="45.51456" lon="7.20843">
        <ele>2056.8</ele>
        <time>2021-11-07T06:02:18Z</time>
      </trkpt>
      <trkpt lat="45.51453" lon="7.20844">
        <ele>2057.3</ele>
        <time>2021-11-07T06:02:23Z</time>
      </trkpt>
      <trkpt lat="45.51449" lon="7.20844">
        <ele>2058.2</ele>
        <time>2021-11-07T06:02:30Z</time>
      </trkpt>
      <trkpt lat="45.51448" lon="7.20845">
        <ele>2058.3</ele>
        <time>2021-11-07T06:02:32Z</time>
      </trkpt>
      <trkpt lat="45.51444" lon="7.20845">
        <ele>2059.1</ele>
        <time>2021-11-07T06:02:39Z</time>
      </trkpt>
      <trkpt lat="45.51442" lon="7.20845">
        <ele>2059.5</ele>
        <time>2021-11-07T06:02:42Z</time>
      </trkpt>
      <trkpt lat="45.51441" lon="7.20846">
        <ele>2059.8</ele>
        <time>2021-11-07T06:02:44Z</time>
      </trkpt>
      <trkpt lat="45.51439" lon="7.20847">
        <ele>2060.2</ele>
        <time>2021-11-07T06:02:46Z</time>
      </trkpt>
      <trkpt lat="45.51437" lon="7.20847">
        <ele>2060.5</ele>
        <time>2021-11-07T06:02:48Z</time>
      </trkpt>
      <trkpt lat="45.51436" lon="7.20847">
        <ele>2060.9</ele>
        <time>2021-11-07T06:02:50Z</time>
      </trkpt>
      <trkpt lat="45.51434" lon="7.20848">
        <ele>2061.2</ele>
        <time>2021-11-07T06:02:52Z</time>
      </trkpt>
      <trkpt lat="45.51433" lon="7.20848">
        <ele>2061.4</ele>
        <time>2021-11-07T06:02:53Z</time>
      </trkpt>
      <trkpt lat="45.51429" lon="7.20852">
        <ele>2062.4</ele>
        <time>2021-11-07T06:02:58Z</time>
      </trkpt>
      <trkpt lat="45.51427" lon="7.20853">
        <ele>2062.8</ele>
        <time>2021-11-07T06:03:00Z</time>
      </trkpt>
      <trkpt lat="45.51426" lon="7.20858">
        <ele>2063.5</ele>
        <time>2021-11-07T06:03:03Z</time>
      </trkpt>
      <trkpt lat="45.51424" lon="7.20859">
        <ele>2064</ele>
        <time>2021-11-07T06:03:09Z</time>
      </trkpt>
      <trkpt lat="45.51422" lon="7.2086">
        <ele>2064.4</ele>
        <time>2021-11-07T06:03:13Z</time>
      </trkpt>
      <trkpt lat="45.5142" lon="7.20861">
        <ele>2064.7</ele>
        <time>2021-11-07T06:03:15Z</time>
      </trkpt>
      <trkpt lat="45.51419" lon="7.20861">
        <ele>2064.9</ele>
        <time>2021-11-07T06:03:16Z</time>
      </trkpt>
      <trkpt lat="45.51418" lon="7.2086">
        <ele>2065.1</ele>
        <time>2021-11-07T06:03:17Z</time>
      </trkpt>
      <trkpt lat="45.51413" lon="7.20856">
        <ele>2066.4</ele>
        <time>2021-11-07T06:03:20Z</time>
      </trkpt>
      <trkpt lat="45.51411" lon="7.20857">
        <ele>2066.7</ele>
        <time>2021-11-07T06:03:22Z</time>
      </trkpt>
      <trkpt lat="45.51409" lon="7.20858">
        <ele>2067.1</ele>
        <time>2021-11-07T06:03:25Z</time>
      </trkpt>
      <trkpt lat="45.51409" lon="7.20859">
        <ele>2067.3</ele>
        <time>2021-11-07T06:03:26Z</time>
      </trkpt>
      <trkpt lat="45.51408" lon="7.20859">
        <ele>2067.5</ele>
        <time>2021-11-07T06:03:27Z</time>
      </trkpt>
      <trkpt lat="45.51406" lon="7.20861">
        <ele>2067.9</ele>
        <time>2021-11-07T06:03:30Z</time>
      </trkpt>
      <trkpt lat="45.51405" lon="7.20861">
        <ele>2068.2</ele>
        <time>2021-11-07T06:03:31Z</time>
      </trkpt>
      <trkpt lat="45.51401" lon="7.20858">
        <ele>2069.1</ele>
        <time>2021-11-07T06:03:34Z</time>
      </trkpt>
      <trkpt lat="45.51398" lon="7.20857">
        <ele>2069.6</ele>
        <time>2021-11-07T06:03:37Z</time>
      </trkpt>
      <trkpt lat="45.51399" lon="7.20858">
        <ele>2069.7</ele>
        <time>2021-11-07T06:03:40Z</time>
      </trkpt>
      <trkpt lat="45.514" lon="7.20856">
        <ele>2070.1</ele>
        <time>2021-11-07T06:03:42Z</time>
      </trkpt>
      <trkpt lat="45.51401" lon="7.20855">
        <ele>2070.3</ele>
        <time>2021-11-07T06:03:44Z</time>
      </trkpt>
      <trkpt lat="45.51402" lon="7.20855">
        <ele>2070.6</ele>
        <time>2021-11-07T06:03:46Z</time>
      </trkpt>
      <trkpt lat="45.51405" lon="7.20855">
        <ele>2071</ele>
        <time>2021-11-07T06:03:48Z</time>
      </trkpt>
      <trkpt lat="45.51405" lon="7.20855">
        <ele>2071.2</ele>
        <time>2021-11-07T06:03:49Z</time>
      </trkpt>
      <trkpt lat="45.51408" lon="7.20855">
        <ele>2071.7</ele>
        <time>2021-11-07T06:03:51Z</time>
      </trkpt>
      <trkpt lat="45.51408" lon="7.20855">
        <ele>2071.8</ele>
        <time>2021-11-07T06:03:52Z</time>
      </trkpt>
      <trkpt lat="45.51409" lon="7.20854">
        <ele>2071.9</ele>
        <time>2021-11-07T06:03:53Z</time>
      </trkpt>
      <trkpt lat="45.5141" lon="7.20854">
        <ele>2072.3</ele>
        <time>2021-11-07T06:03:55Z</time>
      </trkpt>
      <trkpt lat="45.51412" lon="7.20854">
        <ele>2072.1</ele>
        <time>2021-11-07T06:03:56Z</time>
      </trkpt>
      <trkpt lat="45.51415" lon="7.20855">
        <ele>2071.9</ele>
        <time>2021-11-07T06:04:00Z</time>
      </trkpt>
      <trkpt lat="45.51417" lon="7.20857">
        <ele>2071.8</ele>
        <time>2021-11-07T06:04:01Z</time>
      </trkpt>
      <trkpt lat="45.51419" lon="7.20861">
        <ele>2073.8</ele>
        <time>2021-11-07T06:04:04Z</time>
      </trkpt>
      <trkpt lat="45.51423" lon="7.20863">
        <ele>2075.8</ele>
        <time>2021-11-07T06:04:07Z</time>
      </trkpt>
      <trkpt lat="45.51426" lon="7.20864">
        <ele>2075.6</ele>
        <time>2021-11-07T06:04:10Z</time>
      </trkpt>
      <trkpt lat="45.51428" lon="7.20864">
        <ele>2075.6</ele>
        <time>2021-11-07T06:04:11Z</time>
      </trkpt>
      <trkpt lat="45.51429" lon="7.20864">
        <ele>2075.5</ele>
        <time>2021-11-07T06:04:12Z</time>
      </trkpt>
      <trkpt lat="45.51433" lon="7.20864">
        <ele>2075.5</ele>
        <time>2021-11-07T06:04:17Z</time>
      </trkpt>
      <trkpt lat="45.51436" lon="7.20863">
        <ele>2075.5</ele>
        <time>2021-11-07T06:04:20Z</time>
      </trkpt>
      <trkpt lat="45.51439" lon="7.20864">
        <ele>2075.5</ele>
        <time>2021-11-07T06:04:22Z</time>
      </trkpt>
      <trkpt lat="45.51441" lon="7.20863">
        <ele>2075.5</ele>
        <time>2021-11-07T06:04:24Z</time>
      </trkpt>
      <trkpt lat="45.51442" lon="7.20862">
        <ele>2075.5</ele>
        <time>2021-11-07T06:04:25Z</time>
      </trkpt>
      <trkpt lat="45.51445" lon="7.20862">
        <ele>2075.6</ele>
        <time>2021-11-07T06:04:29Z</time>
      </trkpt>
      <trkpt lat="45.51448" lon="7.20862">
        <ele>2073.6</ele>
        <time>2021-11-07T06:04:32Z</time>
      </trkpt>
      <trkpt lat="45.51451" lon="7.20864">
        <ele>2075.7</ele>
        <time>2021-11-07T06:04:36Z</time>
      </trkpt>
      <trkpt lat="45.51451" lon="7.20864">
        <ele>2075.7</ele>
        <time>2021-11-07T06:04:37Z</time>
      </trkpt>
      <trkpt lat="45.51453" lon="7.20865">
        <ele>2075.8</ele>
        <time>2021-11-07T06:04:40Z</time>
      </trkpt>
      <trkpt lat="45.51456" lon="7.2087">
        <ele>2077.9</ele>
        <time>2021-11-07T06:04:45Z</time>
      </trkpt>
      <trkpt lat="45.51457" lon="7.20872">
        <ele>2079.8</ele>
        <time>2021-11-07T06:04:46Z</time>
      </trkpt>
      <trkpt lat="45.51457" lon="7.20873">
        <ele>2079.8</ele>
        <time>2021-11-07T06:04:47Z</time>
      </trkpt>
      <trkpt lat="45.51457" lon="7.20874">
        <ele>2079.8</ele>
        <time>2021-11-07T06:04:49Z</time>
      </trkpt>
      <trkpt lat="45.51456" lon="7.20875">
        <ele>2079.7</ele>
        <time>2021-11-07T06:04:52Z</time>
      </trkpt>
      <trkpt lat="45.51456" lon="7.20875">
        <ele>2081.5</ele>
        <time>2021-11-07T06:04:54Z</time>
      </trkpt>
      <trkpt lat="45.51454" lon="7.20875">
        <ele>2081.4</ele>
        <time>2021-11-07T06:04:57Z</time>
      </trkpt>
      <trkpt lat="45.51454" lon="7.20875">
        <ele>2081.4</ele>
        <time>2021-11-07T06:04:58Z</time>
      </trkpt>
      <trkpt lat="45.51453" lon="7.20875">
        <ele>2081.4</ele>
        <time>2021-11-07T06:04:59Z</time>
      </trkpt>
      <trkpt lat="45.51452" lon="7.20878">
        <ele>2081.2</ele>
        <time>2021-11-07T06:05:01Z</time>
      </trkpt>
      <trkpt lat="45.51451" lon="7.20879">
        <ele>2081.2</ele>
        <time>2021-11-07T06:05:02Z</time>
      </trkpt>
      <trkpt lat="45.5145" lon="7.2088">
        <ele>2083.1</ele>
        <time>2021-11-07T06:05:04Z</time>
      </trkpt>
      <trkpt lat="45.51449" lon="7.20882">
        <ele>2083</ele>
        <time>2021-11-07T06:05:06Z</time>
      </trkpt>
      <trkpt lat="45.51446" lon="7.20882">
        <ele>2082.8</ele>
        <time>2021-11-07T06:05:08Z</time>
      </trkpt>
      <trkpt lat="45.51445" lon="7.20884">
        <ele>2084.9</ele>
        <time>2021-11-07T06:05:10Z</time>
      </trkpt>
      <trkpt lat="45.51443" lon="7.20884">
        <ele>2084.8</ele>
        <time>2021-11-07T06:05:13Z</time>
      </trkpt>
      <trkpt lat="45.51441" lon="7.20885">
        <ele>2084.8</ele>
        <time>2021-11-07T06:05:16Z</time>
      </trkpt>
      <trkpt lat="45.5144" lon="7.20886">
        <ele>2084.7</ele>
        <time>2021-11-07T06:05:18Z</time>
      </trkpt>
      <trkpt lat="45.51439" lon="7.20887">
        <ele>2084.6</ele>
        <time>2021-11-07T06:05:19Z</time>
      </trkpt>
      <trkpt lat="45.51442" lon="7.2089">
        <ele>2086.9</ele>
        <time>2021-11-07T06:05:26Z</time>
      </trkpt>
      <trkpt lat="45.51448" lon="7.20891">
        <ele>2087.1</ele>
        <time>2021-11-07T06:05:37Z</time>
      </trkpt>
      <trkpt lat="45.51451" lon="7.20893">
        <ele>2089.6</ele>
        <time>2021-11-07T06:05:40Z</time>
      </trkpt>
      <trkpt lat="45.51457" lon="7.20895">
        <ele>2089.8</ele>
        <time>2021-11-07T06:05:46Z</time>
      </trkpt>
      <trkpt lat="45.5146" lon="7.20895">
        <ele>2089.9</ele>
        <time>2021-11-07T06:05:48Z</time>
      </trkpt>
      <trkpt lat="45.51463" lon="7.20894">
        <ele>2090</ele>
        <time>2021-11-07T06:05:52Z</time>
      </trkpt>
      <trkpt lat="45.51465" lon="7.20894">
        <ele>2090</ele>
        <time>2021-11-07T06:05:54Z</time>
      </trkpt>
      <trkpt lat="45.51471" lon="7.20898">
        <ele>2092.5</ele>
        <time>2021-11-07T06:06:02Z</time>
      </trkpt>
      <trkpt lat="45.51471" lon="7.20899">
        <ele>2092.6</ele>
        <time>2021-11-07T06:06:03Z</time>
      </trkpt>
      <trkpt lat="45.51471" lon="7.20901">
        <ele>2094.8</ele>
        <time>2021-11-07T06:06:05Z</time>
      </trkpt>
      <trkpt lat="45.51471" lon="7.20902">
        <ele>2094.8</ele>
        <time>2021-11-07T06:06:06Z</time>
      </trkpt>
      <trkpt lat="45.51469" lon="7.20904">
        <ele>2094.6</ele>
        <time>2021-11-07T06:06:10Z</time>
      </trkpt>
      <trkpt lat="45.51468" lon="7.20906">
        <ele>2096.7</ele>
        <time>2021-11-07T06:06:12Z</time>
      </trkpt>
      <trkpt lat="45.51467" lon="7.20906">
        <ele>2096.7</ele>
        <time>2021-11-07T06:06:13Z</time>
      </trkpt>
      <trkpt lat="45.51466" lon="7.20907">
        <ele>2096.7</ele>
        <time>2021-11-07T06:06:15Z</time>
      </trkpt>
      <trkpt lat="45.51465" lon="7.20907">
        <ele>2096.5</ele>
        <time>2021-11-07T06:06:18Z</time>
      </trkpt>
      <trkpt lat="45.51464" lon="7.20907">
        <ele>2096.5</ele>
        <time>2021-11-07T06:06:19Z</time>
      </trkpt>
      <trkpt lat="45.51463" lon="7.20908">
        <ele>2096.5</ele>
        <time>2021-11-07T06:06:21Z</time>
      </trkpt>
      <trkpt lat="45.51463" lon="7.2091">
        <ele>2098.6</ele>
        <time>2021-11-07T06:06:24Z</time>
      </trkpt>
      <trkpt lat="45.51464" lon="7.2091">
        <ele>2098.6</ele>
        <time>2021-11-07T06:06:25Z</time>
      </trkpt>
      <trkpt lat="45.51464" lon="7.2091">
        <ele>2098.6</ele>
        <time>2021-11-07T06:06:27Z</time>
      </trkpt>
      <trkpt lat="45.51469" lon="7.20912">
        <ele>2098.7</ele>
        <time>2021-11-07T06:06:38Z</time>
      </trkpt>
      <trkpt lat="45.51466" lon="7.20915">
        <ele>2100.8</ele>
        <time>2021-11-07T06:06:45Z</time>
      </trkpt>
      <trkpt lat="45.51466" lon="7.20916">
        <ele>2100.8</ele>
        <time>2021-11-07T06:06:46Z</time>
      </trkpt>
      <trkpt lat="45.51465" lon="7.20917">
        <ele>2100.7</ele>
        <time>2021-11-07T06:06:48Z</time>
      </trkpt>
      <trkpt lat="45.51464" lon="7.20918">
        <ele>2102.8</ele>
        <time>2021-11-07T06:06:50Z</time>
      </trkpt>
      <trkpt lat="45.51463" lon="7.20918">
        <ele>2102.7</ele>
        <time>2021-11-07T06:06:52Z</time>
      </trkpt>
      <trkpt lat="45.51463" lon="7.20918">
        <ele>2102.7</ele>
        <time>2021-11-07T06:06:54Z</time>
      </trkpt>
      <trkpt lat="45.51465" lon="7.20921">
        <ele>2102.8</ele>
        <time>2021-11-07T06:06:57Z</time>
      </trkpt>
      <trkpt lat="45.51469" lon="7.20921">
        <ele>2102.8</ele>
        <time>2021-11-07T06:07:02Z</time>
      </trkpt>
      <trkpt lat="45.51471" lon="7.20921">
        <ele>2102.9</ele>
        <time>2021-11-07T06:07:05Z</time>
      </trkpt>
      <trkpt lat="45.51472" lon="7.20921">
        <ele>2102.9</ele>
        <time>2021-11-07T06:07:07Z</time>
      </trkpt>
      <trkpt lat="45.51473" lon="7.20922">
        <ele>2102.8</ele>
        <time>2021-11-07T06:07:08Z</time>
      </trkpt>
      <trkpt lat="45.51476" lon="7.20923">
        <ele>2105.1</ele>
        <time>2021-11-07T06:07:12Z</time>
      </trkpt>
      <trkpt lat="45.51475" lon="7.20925">
        <ele>2105.1</ele>
        <time>2021-11-07T06:07:14Z</time>
      </trkpt>
      <trkpt lat="45.51475" lon="7.20927">
        <ele>2107.3</ele>
        <time>2021-11-07T06:07:17Z</time>
      </trkpt>
      <trkpt lat="45.51473" lon="7.20929">
        <ele>2107.2</ele>
        <time>2021-11-07T06:07:20Z</time>
      </trkpt>
      <trkpt lat="45.51472" lon="7.20931">
        <ele>2109.5</ele>
        <time>2021-11-07T06:07:23Z</time>
      </trkpt>
      <trkpt lat="45.51472" lon="7.20932">
        <ele>2109.5</ele>
        <time>2021-11-07T06:07:27Z</time>
      </trkpt>
      <trkpt lat="45.51473" lon="7.20933">
        <ele>2109.4</ele>
        <time>2021-11-07T06:07:28Z</time>
      </trkpt>
      <trkpt lat="45.51472" lon="7.20936">
        <ele>2111.9</ele>
        <time>2021-11-07T06:07:32Z</time>
      </trkpt>
      <trkpt lat="45.51472" lon="7.20937">
        <ele>2111.9</ele>
        <time>2021-11-07T06:07:33Z</time>
      </trkpt>
      <trkpt lat="45.51471" lon="7.20937">
        <ele>2111.9</ele>
        <time>2021-11-07T06:07:34Z</time>
      </trkpt>
      <trkpt lat="45.51471" lon="7.20938">
        <ele>2111.8</ele>
        <time>2021-11-07T06:07:35Z</time>
      </trkpt>
      <trkpt lat="45.51471" lon="7.20938">
        <ele>2111.8</ele>
        <time>2021-11-07T06:07:36Z</time>
      </trkpt>
      <trkpt lat="45.51471" lon="7.20938">
        <ele>2111.7</ele>
        <time>2021-11-07T06:07:37Z</time>
      </trkpt>
      <trkpt lat="45.5147" lon="7.20939">
        <ele>2111.7</ele>
        <time>2021-11-07T06:07:39Z</time>
      </trkpt>
      <trkpt lat="45.51469" lon="7.20941">
        <ele>2114.3</ele>
        <time>2021-11-07T06:07:42Z</time>
      </trkpt>
      <trkpt lat="45.51466" lon="7.20941">
        <ele>2114.2</ele>
        <time>2021-11-07T06:07:45Z</time>
      </trkpt>
      <trkpt lat="45.51463" lon="7.2094">
        <ele>2114.1</ele>
        <time>2021-11-07T06:07:49Z</time>
      </trkpt>
      <trkpt lat="45.51461" lon="7.20941">
        <ele>2114.1</ele>
        <time>2021-11-07T06:07:51Z</time>
      </trkpt>
      <trkpt lat="45.51459" lon="7.20941">
        <ele>2114</ele>
        <time>2021-11-07T06:07:54Z</time>
      </trkpt>
      <trkpt lat="45.51457" lon="7.20944">
        <ele>2116.7</ele>
        <time>2021-11-07T06:07:58Z</time>
      </trkpt>
      <trkpt lat="45.51456" lon="7.20944">
        <ele>2116.7</ele>
        <time>2021-11-07T06:08:01Z</time>
      </trkpt>
      <trkpt lat="45.51459" lon="7.20946">
        <ele>2116.7</ele>
        <time>2021-11-07T06:08:10Z</time>
      </trkpt>
      <trkpt lat="45.51461" lon="7.20946">
        <ele>2116.7</ele>
        <time>2021-11-07T06:08:15Z</time>
      </trkpt>
      <trkpt lat="45.51462" lon="7.20946">
        <ele>2116.7</ele>
        <time>2021-11-07T06:08:17Z</time>
      </trkpt>
      <trkpt lat="45.51465" lon="7.20946">
        <ele>2116.6</ele>
        <time>2021-11-07T06:08:21Z</time>
      </trkpt>
      <trkpt lat="45.51468" lon="7.20949">
        <ele>2119.3</ele>
        <time>2021-11-07T06:08:27Z</time>
      </trkpt>
      <trkpt lat="45.51465" lon="7.2095">
        <ele>2119.3</ele>
        <time>2021-11-07T06:08:32Z</time>
      </trkpt>
      <trkpt lat="45.51463" lon="7.20951">
        <ele>2119.2</ele>
        <time>2021-11-07T06:08:35Z</time>
      </trkpt>
      <trkpt lat="45.51463" lon="7.20951">
        <ele>2119.2</ele>
        <time>2021-11-07T06:08:37Z</time>
      </trkpt>
      <trkpt lat="45.51463" lon="7.20952">
        <ele>2121.8</ele>
        <time>2021-11-07T06:08:40Z</time>
      </trkpt>
      <trkpt lat="45.51463" lon="7.20953">
        <ele>2121.7</ele>
        <time>2021-11-07T06:08:43Z</time>
      </trkpt>
      <trkpt lat="45.51459" lon="7.20955">
        <ele>2121.7</ele>
        <time>2021-11-07T06:08:52Z</time>
      </trkpt>
      <trkpt lat="45.51458" lon="7.20955">
        <ele>2121.7</ele>
        <time>2021-11-07T06:08:53Z</time>
      </trkpt>
      <trkpt lat="45.51458" lon="7.20955">
        <ele>2121.7</ele>
        <time>2021-11-07T06:08:54Z</time>
      </trkpt>
      <trkpt lat="45.51457" lon="7.20955">
        <ele>2121.6</ele>
        <time>2021-11-07T06:08:55Z</time>
      </trkpt>
      <trkpt lat="45.51456" lon="7.20955">
        <ele>2121.6</ele>
        <time>2021-11-07T06:08:56Z</time>
      </trkpt>
      <trkpt lat="45.51455" lon="7.20955">
        <ele>2121.6</ele>
        <time>2021-11-07T06:08:57Z</time>
      </trkpt>
      <trkpt lat="45.51454" lon="7.20955">
        <ele>2121.6</ele>
        <time>2021-11-07T06:08:58Z</time>
      </trkpt>
      <trkpt lat="45.51452" lon="7.20956">
        <ele>2124.1</ele>
        <time>2021-11-07T06:09:01Z</time>
      </trkpt>
      <trkpt lat="45.51452" lon="7.20957">
        <ele>2124.1</ele>
        <time>2021-11-07T06:09:04Z</time>
      </trkpt>
      <trkpt lat="45.51452" lon="7.20958">
        <ele>2124</ele>
        <time>2021-11-07T06:09:05Z</time>
      </trkpt>
      <trkpt lat="45.51456" lon="7.2096">
        <ele>2124</ele>
        <time>2021-11-07T06:09:14Z</time>
      </trkpt>
      <trkpt lat="45.51457" lon="7.20963">
        <ele>2126.4</ele>
        <time>2021-11-07T06:09:21Z</time>
      </trkpt>
      <trkpt lat="45.5146" lon="7.20965">
        <ele>2126.3</ele>
        <time>2021-11-07T06:09:25Z</time>
      </trkpt>
      <trkpt lat="45.51463" lon="7.20964">
        <ele>2126.3</ele>
        <time>2021-11-07T06:09:31Z</time>
      </trkpt>
      <trkpt lat="45.51464" lon="7.20963">
        <ele>2126.2</ele>
        <time>2021-11-07T06:09:33Z</time>
      </trkpt>
      <trkpt lat="45.51466" lon="7.20965">
        <ele>2126.1</ele>
        <time>2021-11-07T06:09:36Z</time>
      </trkpt>
      <trkpt lat="45.51477" lon="7.20969">
        <ele>2130.5</ele>
        <time>2021-11-07T06:09:46Z</time>
      </trkpt>
      <trkpt lat="45.51482" lon="7.20967">
        <ele>2127.9</ele>
        <time>2021-11-07T06:09:51Z</time>
      </trkpt>
      <trkpt lat="45.51488" lon="7.20964">
        <ele>2125.3</ele>
        <time>2021-11-07T06:09:58Z</time>
      </trkpt>
      <trkpt lat="45.51489" lon="7.20963">
        <ele>2125.3</ele>
        <time>2021-11-07T06:09:59Z</time>
      </trkpt>
      <trkpt lat="45.5149" lon="7.20965">
        <ele>2127.4</ele>
        <time>2021-11-07T06:10:01Z</time>
      </trkpt>
      <trkpt lat="45.51491" lon="7.20968">
        <ele>2127.4</ele>
        <time>2021-11-07T06:10:03Z</time>
      </trkpt>
      <trkpt lat="45.51491" lon="7.20972">
        <ele>2129.7</ele>
        <time>2021-11-07T06:10:07Z</time>
      </trkpt>
      <trkpt lat="45.51491" lon="7.20973">
        <ele>2129.7</ele>
        <time>2021-11-07T06:10:08Z</time>
      </trkpt>
      <trkpt lat="45.51493" lon="7.20973">
        <ele>2129.5</ele>
        <time>2021-11-07T06:10:09Z</time>
      </trkpt>
      <trkpt lat="45.51493" lon="7.20973">
        <ele>2129.5</ele>
        <time>2021-11-07T06:10:11Z</time>
      </trkpt>
      <trkpt lat="45.51496" lon="7.20974">
        <ele>2131.8</ele>
        <time>2021-11-07T06:10:15Z</time>
      </trkpt>
      <trkpt lat="45.51497" lon="7.20977">
        <ele>2131.8</ele>
        <time>2021-11-07T06:10:26Z</time>
      </trkpt>
      <trkpt lat="45.51496" lon="7.20975">
        <ele>2131.8</ele>
        <time>2021-11-07T06:10:29Z</time>
      </trkpt>
      <trkpt lat="45.51496" lon="7.20975">
        <ele>2131.7</ele>
        <time>2021-11-07T06:10:32Z</time>
      </trkpt>
      <trkpt lat="45.51496" lon="7.20976">
        <ele>2131.7</ele>
        <time>2021-11-07T06:10:34Z</time>
      </trkpt>
      <trkpt lat="45.51496" lon="7.20976">
        <ele>2131.7</ele>
        <time>2021-11-07T06:10:38Z</time>
      </trkpt>
      <trkpt lat="45.51495" lon="7.20976">
        <ele>2131.6</ele>
        <time>2021-11-07T06:10:40Z</time>
      </trkpt>
      <trkpt lat="45.51495" lon="7.20976">
        <ele>2131.6</ele>
        <time>2021-11-07T06:10:44Z</time>
      </trkpt>
      <trkpt lat="45.51495" lon="7.20975">
        <ele>2131.6</ele>
        <time>2021-11-07T06:10:47Z</time>
      </trkpt>
      <trkpt lat="45.51494" lon="7.20975">
        <ele>2131.6</ele>
        <time>2021-11-07T06:10:57Z</time>
      </trkpt>
      <trkpt lat="45.51495" lon="7.20975">
        <ele>2131.6</ele>
        <time>2021-11-07T06:10:58Z</time>
      </trkpt>
      <trkpt lat="45.51499" lon="7.20977">
        <ele>2131.4</ele>
        <time>2021-11-07T06:11:05Z</time>
      </trkpt>
      <trkpt lat="45.515" lon="7.20977">
        <ele>2131.4</ele>
        <time>2021-11-07T06:11:12Z</time>
      </trkpt>
      <trkpt lat="45.515" lon="7.20977">
        <ele>2131.4</ele>
        <time>2021-11-07T06:11:13Z</time>
      </trkpt>
      <trkpt lat="45.51501" lon="7.20977">
        <ele>2131.3</ele>
        <time>2021-11-07T06:11:17Z</time>
      </trkpt>
      <trkpt lat="45.515" lon="7.20977">
        <ele>2131.3</ele>
        <time>2021-11-07T06:11:21Z</time>
      </trkpt>
      <trkpt lat="45.515" lon="7.20977">
        <ele>2131.3</ele>
        <time>2021-11-07T06:11:22Z</time>
      </trkpt>
      <trkpt lat="45.515" lon="7.20977">
        <ele>2131.3</ele>
        <time>2021-11-07T06:11:25Z</time>
      </trkpt>
      <trkpt lat="45.515" lon="7.20977">
        <ele>2131.2</ele>
        <time>2021-11-07T06:11:27Z</time>
      </trkpt>
      <trkpt lat="45.515" lon="7.20977">
        <ele>2131.2</ele>
        <time>2021-11-07T06:11:29Z</time>
      </trkpt>
      <trkpt lat="45.51499" lon="7.20977">
        <ele>2131.2</ele>
        <time>2021-11-07T06:11:34Z</time>
      </trkpt>
      <trkpt lat="45.515" lon="7.20977">
        <ele>2131.1</ele>
        <time>2021-11-07T06:11:42Z</time>
      </trkpt>
      <trkpt lat="45.515" lon="7.20977">
        <ele>2131.1</ele>
        <time>2021-11-07T06:11:43Z</time>
      </trkpt>
      <trkpt lat="45.51499" lon="7.20976">
        <ele>2131.1</ele>
        <time>2021-11-07T06:11:47Z</time>
      </trkpt>
      <trkpt lat="45.51498" lon="7.20977">
        <ele>2131</ele>
        <time>2021-11-07T06:11:53Z</time>
      </trkpt>
      <trkpt lat="45.51497" lon="7.20977">
        <ele>2131.1</ele>
        <time>2021-11-07T06:11:56Z</time>
      </trkpt>
      <trkpt lat="45.51496" lon="7.20977">
        <ele>2131</ele>
        <time>2021-11-07T06:12:04Z</time>
      </trkpt>
      <trkpt lat="45.51495" lon="7.20978">
        <ele>2133.5</ele>
        <time>2021-11-07T06:12:13Z</time>
      </trkpt>
      <trkpt lat="45.51495" lon="7.20978">
        <ele>2133.5</ele>
        <time>2021-11-07T06:12:21Z</time>
      </trkpt>
      <trkpt lat="45.51495" lon="7.20978">
        <ele>2133.4</ele>
        <time>2021-11-07T06:12:24Z</time>
      </trkpt>
      <trkpt lat="45.51495" lon="7.20977">
        <ele>2130.9</ele>
        <time>2021-11-07T06:12:27Z</time>
      </trkpt>
      <trkpt lat="45.51495" lon="7.20976">
        <ele>2130.9</ele>
        <time>2021-11-07T06:12:29Z</time>
      </trkpt>
      <trkpt lat="45.51494" lon="7.20974">
        <ele>2130.9</ele>
        <time>2021-11-07T06:12:32Z</time>
      </trkpt>
      <trkpt lat="45.51495" lon="7.20973">
        <ele>2128.5</ele>
        <time>2021-11-07T06:12:35Z</time>
      </trkpt>
      <trkpt lat="45.51495" lon="7.20972">
        <ele>2128.4</ele>
        <time>2021-11-07T06:12:36Z</time>
      </trkpt>
      <trkpt lat="45.51495" lon="7.20972">
        <ele>2128.4</ele>
        <time>2021-11-07T06:12:38Z</time>
      </trkpt>
      <trkpt lat="45.51496" lon="7.20974">
        <ele>2130.7</ele>
        <time>2021-11-07T06:12:46Z</time>
      </trkpt>
      <trkpt lat="45.51496" lon="7.20974">
        <ele>2130.7</ele>
        <time>2021-11-07T06:12:53Z</time>
      </trkpt>
      <trkpt lat="45.51494" lon="7.20971">
        <ele>2128.3</ele>
        <time>2021-11-07T06:13:07Z</time>
      </trkpt>
      <trkpt lat="45.51495" lon="7.20974">
        <ele>2130.6</ele>
        <time>2021-11-07T06:13:12Z</time>
      </trkpt>
      <trkpt lat="45.51494" lon="7.20973">
        <ele>2128.2</ele>
        <time>2021-11-07T06:13:19Z</time>
      </trkpt>
      <trkpt lat="45.51494" lon="7.20973">
        <ele>2128.2</ele>
        <time>2021-11-07T06:13:22Z</time>
      </trkpt>
      <trkpt lat="45.51493" lon="7.20973">
        <ele>2128.2</ele>
        <time>2021-11-07T06:13:27Z</time>
      </trkpt>
      <trkpt lat="45.51494" lon="7.20972">
        <ele>2128.1</ele>
        <time>2021-11-07T06:13:31Z</time>
      </trkpt>
      <trkpt lat="45.51494" lon="7.20973">
        <ele>2128.1</ele>
        <time>2021-11-07T06:13:34Z</time>
      </trkpt>
      <trkpt lat="45.51493" lon="7.20974">
        <ele>2130.5</ele>
        <time>2021-11-07T06:13:44Z</time>
      </trkpt>
      <trkpt lat="45.51492" lon="7.20975">
        <ele>2130.6</ele>
        <time>2021-11-07T06:13:50Z</time>
      </trkpt>
      <trkpt lat="45.51492" lon="7.20976">
        <ele>2130.5</ele>
        <time>2021-11-07T06:13:52Z</time>
      </trkpt>
      <trkpt lat="45.51495" lon="7.20981">
        <ele>2132.9</ele>
        <time>2021-11-07T06:14:05Z</time>
      </trkpt>
      <trkpt lat="45.51496" lon="7.20981">
        <ele>2132.8</ele>
        <time>2021-11-07T06:14:06Z</time>
      </trkpt>
      <trkpt lat="45.51496" lon="7.20981">
        <ele>2132.8</ele>
        <time>2021-11-07T06:14:07Z</time>
      </trkpt>
      <trkpt lat="45.51498" lon="7.20979">
        <ele>2132.7</ele>
        <time>2021-11-07T06:14:20Z</time>
      </trkpt>
      <trkpt lat="45.51498" lon="7.20979">
        <ele>2132.7</ele>
        <time>2021-11-07T06:14:21Z</time>
      </trkpt>
      <trkpt lat="45.515" lon="7.20981">
        <ele>2132.6</ele>
        <time>2021-11-07T06:14:27Z</time>
      </trkpt>
      <trkpt lat="45.515" lon="7.20982">
        <ele>2132.6</ele>
        <time>2021-11-07T06:14:30Z</time>
      </trkpt>
      <trkpt lat="45.51499" lon="7.20982">
        <ele>2135.1</ele>
        <time>2021-11-07T06:14:35Z</time>
      </trkpt>
      <trkpt lat="45.51499" lon="7.2098">
        <ele>2132.5</ele>
        <time>2021-11-07T06:14:50Z</time>
      </trkpt>
      <trkpt lat="45.51498" lon="7.20977">
        <ele>2130.1</ele>
        <time>2021-11-07T06:15:00Z</time>
      </trkpt>
      <trkpt lat="45.51498" lon="7.20977">
        <ele>2130</ele>
        <time>2021-11-07T06:15:05Z</time>
      </trkpt>
      <trkpt lat="45.51497" lon="7.20977">
        <ele>2130</ele>
        <time>2021-11-07T06:15:07Z</time>
      </trkpt>
      <trkpt lat="45.51495" lon="7.20977">
        <ele>2130</ele>
        <time>2021-11-07T06:15:16Z</time>
      </trkpt>
      <trkpt lat="45.51495" lon="7.20977">
        <ele>2129.9</ele>
        <time>2021-11-07T06:15:17Z</time>
      </trkpt>
      <trkpt lat="45.51497" lon="7.20977">
        <ele>2129.9</ele>
        <time>2021-11-07T06:15:23Z</time>
      </trkpt>
      <trkpt lat="45.51497" lon="7.20977">
        <ele>2129.9</ele>
        <time>2021-11-07T06:15:30Z</time>
      </trkpt>
      <trkpt lat="45.51495" lon="7.20974">
        <ele>2129.9</ele>
        <time>2021-11-07T06:15:45Z</time>
      </trkpt>
      <trkpt lat="45.51494" lon="7.20972">
        <ele>2127.5</ele>
        <time>2021-11-07T06:15:51Z</time>
      </trkpt>
      <trkpt lat="45.51494" lon="7.20973">
        <ele>2127.4</ele>
        <time>2021-11-07T06:16:00Z</time>
      </trkpt>
      <trkpt lat="45.51494" lon="7.20971">
        <ele>2127.4</ele>
        <time>2021-11-07T06:16:08Z</time>
      </trkpt>
      <trkpt lat="45.51493" lon="7.20971">
        <ele>2127.4</ele>
        <time>2021-11-07T06:16:14Z</time>
      </trkpt>
      <trkpt lat="45.51494" lon="7.20971">
        <ele>2127.3</ele>
        <time>2021-11-07T06:16:18Z</time>
      </trkpt>
      <trkpt lat="45.51494" lon="7.20971">
        <ele>2127.3</ele>
        <time>2021-11-07T06:16:21Z</time>
      </trkpt>
      <trkpt lat="45.51493" lon="7.2097">
        <ele>2127.3</ele>
        <time>2021-11-07T06:16:24Z</time>
      </trkpt>
      <trkpt lat="45.51493" lon="7.20969">
        <ele>2124.9</ele>
        <time>2021-11-07T06:16:26Z</time>
      </trkpt>
      <trkpt lat="45.51494" lon="7.20969">
        <ele>2124.9</ele>
        <time>2021-11-07T06:16:28Z</time>
      </trkpt>
      <trkpt lat="45.51494" lon="7.20969">
        <ele>2124.9</ele>
        <time>2021-11-07T06:16:29Z</time>
      </trkpt>
      <trkpt lat="45.51495" lon="7.2097">
        <ele>2127.1</ele>
        <time>2021-11-07T06:16:32Z</time>
      </trkpt>
      <trkpt lat="45.51498" lon="7.20972">
        <ele>2127.1</ele>
        <time>2021-11-07T06:16:35Z</time>
      </trkpt>
      <trkpt lat="45.51501" lon="7.20974">
        <ele>2129.4</ele>
        <time>2021-11-07T06:16:38Z</time>
      </trkpt>
      <trkpt lat="45.51506" lon="7.20976">
        <ele>2129.4</ele>
        <time>2021-11-07T06:16:44Z</time>
      </trkpt>
      <trkpt lat="45.51507" lon="7.2098">
        <ele>2131.8</ele>
        <time>2021-11-07T06:16:49Z</time>
      </trkpt>
      <trkpt lat="45.51505" lon="7.20983">
        <ele>2134.3</ele>
        <time>2021-11-07T06:16:53Z</time>
      </trkpt>
      <trkpt lat="45.51505" lon="7.20983">
        <ele>2134.2</ele>
        <time>2021-11-07T06:16:54Z</time>
      </trkpt>
      <trkpt lat="45.51505" lon="7.20984">
        <ele>2134.2</ele>
        <time>2021-11-07T06:16:56Z</time>
      </trkpt>
      <trkpt lat="45.51504" lon="7.20984">
        <ele>2134.2</ele>
        <time>2021-11-07T06:16:57Z</time>
      </trkpt>
      <trkpt lat="45.51504" lon="7.20985">
        <ele>2134.2</ele>
        <time>2021-11-07T06:16:58Z</time>
      </trkpt>
      <trkpt lat="45.51503" lon="7.20985">
        <ele>2134.2</ele>
        <time>2021-11-07T06:17:00Z</time>
      </trkpt>
      <trkpt lat="45.51502" lon="7.20987">
        <ele>2136.7</ele>
        <time>2021-11-07T06:17:02Z</time>
      </trkpt>
      <trkpt lat="45.51502" lon="7.20989">
        <ele>2136.6</ele>
        <time>2021-11-07T06:17:03Z</time>
      </trkpt>
      <trkpt lat="45.51502" lon="7.20989">
        <ele>2136.6</ele>
        <time>2021-11-07T06:17:04Z</time>
      </trkpt>
      <trkpt lat="45.51502" lon="7.2099">
        <ele>2136.6</ele>
        <time>2021-11-07T06:17:05Z</time>
      </trkpt>
      <trkpt lat="45.51502" lon="7.20991">
        <ele>2136.6</ele>
        <time>2021-11-07T06:17:06Z</time>
      </trkpt>
      <trkpt lat="45.51501" lon="7.20992">
        <ele>2139.1</ele>
        <time>2021-11-07T06:17:08Z</time>
      </trkpt>
      <trkpt lat="45.51501" lon="7.20992">
        <ele>2139</ele>
        <time>2021-11-07T06:17:09Z</time>
      </trkpt>
      <trkpt lat="45.51506" lon="7.20995">
        <ele>2139</ele>
        <time>2021-11-07T06:17:17Z</time>
      </trkpt>
      <trkpt lat="45.51506" lon="7.20995">
        <ele>2138.9</ele>
        <time>2021-11-07T06:17:18Z</time>
      </trkpt>
      <trkpt lat="45.51506" lon="7.20997">
        <ele>2141.4</ele>
        <time>2021-11-07T06:17:28Z</time>
      </trkpt>
      <trkpt lat="45.51504" lon="7.21002">
        <ele>2143.9</ele>
        <time>2021-11-07T06:17:39Z</time>
      </trkpt>
      <trkpt lat="45.51503" lon="7.21002">
        <ele>2143.8</ele>
        <time>2021-11-07T06:17:40Z</time>
      </trkpt>
      <trkpt lat="45.51503" lon="7.21003">
        <ele>2143.8</ele>
        <time>2021-11-07T06:17:42Z</time>
      </trkpt>
      <trkpt lat="45.51502" lon="7.21003">
        <ele>2143.8</ele>
        <time>2021-11-07T06:17:43Z</time>
      </trkpt>
      <trkpt lat="45.51502" lon="7.21003">
        <ele>2143.8</ele>
        <time>2021-11-07T06:17:44Z</time>
      </trkpt>
      <trkpt lat="45.51502" lon="7.21003">
        <ele>2143.7</ele>
        <time>2021-11-07T06:17:45Z</time>
      </trkpt>
      <trkpt lat="45.51501" lon="7.21004">
        <ele>2146.2</ele>
        <time>2021-11-07T06:17:46Z</time>
      </trkpt>
      <trkpt lat="45.515" lon="7.21005">
        <ele>2146.1</ele>
        <time>2021-11-07T06:17:47Z</time>
      </trkpt>
      <trkpt lat="45.51501" lon="7.21007">
        <ele>2146.1</ele>
        <time>2021-11-07T06:17:49Z</time>
      </trkpt>
      <trkpt lat="45.51503" lon="7.21011">
        <ele>2148.2</ele>
        <time>2021-11-07T06:17:52Z</time>
      </trkpt>
      <trkpt lat="45.51503" lon="7.21013">
        <ele>2150.4</ele>
        <time>2021-11-07T06:17:55Z</time>
      </trkpt>
      <trkpt lat="45.51502" lon="7.21015">
        <ele>2150.4</ele>
        <time>2021-11-07T06:17:58Z</time>
      </trkpt>
      <trkpt lat="45.51499" lon="7.21014">
        <ele>2150.5</ele>
        <time>2021-11-07T06:18:00Z</time>
      </trkpt>
      <trkpt lat="45.51499" lon="7.21014">
        <ele>2150.5</ele>
        <time>2021-11-07T06:18:01Z</time>
      </trkpt>
      <trkpt lat="45.51498" lon="7.21015">
        <ele>2150.4</ele>
        <time>2021-11-07T06:18:03Z</time>
      </trkpt>
      <trkpt lat="45.51497" lon="7.21015">
        <ele>2150.6</ele>
        <time>2021-11-07T06:18:04Z</time>
      </trkpt>
      <trkpt lat="45.51497" lon="7.21015">
        <ele>2150.6</ele>
        <time>2021-11-07T06:18:05Z</time>
      </trkpt>
      <trkpt lat="45.51496" lon="7.21015">
        <ele>2150.6</ele>
        <time>2021-11-07T06:18:06Z</time>
      </trkpt>
      <trkpt lat="45.51494" lon="7.21014">
        <ele>2150.8</ele>
        <time>2021-11-07T06:18:08Z</time>
      </trkpt>
      <trkpt lat="45.51492" lon="7.21013">
        <ele>2150.8</ele>
        <time>2021-11-07T06:18:11Z</time>
      </trkpt>
      <trkpt lat="45.51489" lon="7.21012">
        <ele>2151.4</ele>
        <time>2021-11-07T06:18:15Z</time>
      </trkpt>
      <trkpt lat="45.51487" lon="7.21013">
        <ele>2151.3</ele>
        <time>2021-11-07T06:18:17Z</time>
      </trkpt>
      <trkpt lat="45.51486" lon="7.21013">
        <ele>2151.3</ele>
        <time>2021-11-07T06:18:18Z</time>
      </trkpt>
      <trkpt lat="45.51486" lon="7.21015">
        <ele>2151.3</ele>
        <time>2021-11-07T06:18:20Z</time>
      </trkpt>
      <trkpt lat="45.51488" lon="7.21016">
        <ele>2151.2</ele>
        <time>2021-11-07T06:18:28Z</time>
      </trkpt>
      <trkpt lat="45.51488" lon="7.21017">
        <ele>2153.6</ele>
        <time>2021-11-07T06:18:30Z</time>
      </trkpt>
      <trkpt lat="45.51491" lon="7.21024">
        <ele>2155.7</ele>
        <time>2021-11-07T06:18:40Z</time>
      </trkpt>
      <trkpt lat="45.51491" lon="7.21024">
        <ele>2155.7</ele>
        <time>2021-11-07T06:18:41Z</time>
      </trkpt>
      <trkpt lat="45.51491" lon="7.21026">
        <ele>2158.2</ele>
        <time>2021-11-07T06:18:42Z</time>
      </trkpt>
      <trkpt lat="45.5149" lon="7.21027">
        <ele>2158.2</ele>
        <time>2021-11-07T06:18:43Z</time>
      </trkpt>
      <trkpt lat="45.5149" lon="7.21028">
        <ele>2158.2</ele>
        <time>2021-11-07T06:18:44Z</time>
      </trkpt>
      <trkpt lat="45.5149" lon="7.21029">
        <ele>2158.1</ele>
        <time>2021-11-07T06:18:45Z</time>
      </trkpt>
      <trkpt lat="45.5149" lon="7.21029">
        <ele>2158.1</ele>
        <time>2021-11-07T06:18:46Z</time>
      </trkpt>
      <trkpt lat="45.51489" lon="7.21034">
        <ele>2163.2</ele>
        <time>2021-11-07T06:18:51Z</time>
      </trkpt>
      <trkpt lat="45.51489" lon="7.21036">
        <ele>2163.2</ele>
        <time>2021-11-07T06:18:53Z</time>
      </trkpt>
      <trkpt lat="45.5149" lon="7.21037">
        <ele>2163.2</ele>
        <time>2021-11-07T06:18:55Z</time>
      </trkpt>
      <trkpt lat="45.5149" lon="7.21038">
        <ele>2163.2</ele>
        <time>2021-11-07T06:18:56Z</time>
      </trkpt>
      <trkpt lat="45.51491" lon="7.21041">
        <ele>2165.6</ele>
        <time>2021-11-07T06:19:01Z</time>
      </trkpt>
      <trkpt lat="45.51493" lon="7.21043">
        <ele>2167.5</ele>
        <time>2021-11-07T06:19:04Z</time>
      </trkpt>
      <trkpt lat="45.51498" lon="7.21052">
        <ele>2171.5</ele>
        <time>2021-11-07T06:19:13Z</time>
      </trkpt>
      <trkpt lat="45.515" lon="7.21052">
        <ele>2171.5</ele>
        <time>2021-11-07T06:19:15Z</time>
      </trkpt>
      <trkpt lat="45.515" lon="7.21052">
        <ele>2171.4</ele>
        <time>2021-11-07T06:19:16Z</time>
      </trkpt>
      <trkpt lat="45.51503" lon="7.21052">
        <ele>2171.3</ele>
        <time>2021-11-07T06:19:18Z</time>
      </trkpt>
      <trkpt lat="45.51504" lon="7.21051">
        <ele>2171.1</ele>
        <time>2021-11-07T06:19:20Z</time>
      </trkpt>
      <trkpt lat="45.51505" lon="7.21051">
        <ele>2171.1</ele>
        <time>2021-11-07T06:19:22Z</time>
      </trkpt>
      <trkpt lat="45.51508" lon="7.21051">
        <ele>2168.7</ele>
        <time>2021-11-07T06:19:25Z</time>
      </trkpt>
      <trkpt lat="45.5151" lon="7.21049">
        <ele>2168.7</ele>
        <time>2021-11-07T06:19:26Z</time>
      </trkpt>
      <trkpt lat="45.51518" lon="7.21046">
        <ele>2166.6</ele>
        <time>2021-11-07T06:19:34Z</time>
      </trkpt>
      <trkpt lat="45.51521" lon="7.21046">
        <ele>2166.9</ele>
        <time>2021-11-07T06:19:38Z</time>
      </trkpt>
      <trkpt lat="45.51522" lon="7.21045">
        <ele>2167.3</ele>
        <time>2021-11-07T06:19:39Z</time>
      </trkpt>
      <trkpt lat="45.51524" lon="7.21046">
        <ele>2167.3</ele>
        <time>2021-11-07T06:19:42Z</time>
      </trkpt>
      <trkpt lat="45.51524" lon="7.2105">
        <ele>2169.7</ele>
        <time>2021-11-07T06:19:46Z</time>
      </trkpt>
      <trkpt lat="45.51523" lon="7.2105">
        <ele>2169.6</ele>
        <time>2021-11-07T06:19:47Z</time>
      </trkpt>
      <trkpt lat="45.51522" lon="7.21051">
        <ele>2172</ele>
        <time>2021-11-07T06:19:48Z</time>
      </trkpt>
      <trkpt lat="45.51522" lon="7.21052">
        <ele>2171.5</ele>
        <time>2021-11-07T06:19:49Z</time>
      </trkpt>
      <trkpt lat="45.51521" lon="7.21055">
        <ele>2171.5</ele>
        <time>2021-11-07T06:19:51Z</time>
      </trkpt>
      <trkpt lat="45.5152" lon="7.21057">
        <ele>2173.9</ele>
        <time>2021-11-07T06:19:53Z</time>
      </trkpt>
      <trkpt lat="45.51519" lon="7.21056">
        <ele>2173.5</ele>
        <time>2021-11-07T06:19:54Z</time>
      </trkpt>
      <trkpt lat="45.51518" lon="7.21057">
        <ele>2173.5</ele>
        <time>2021-11-07T06:19:55Z</time>
      </trkpt>
      <trkpt lat="45.51517" lon="7.21057">
        <ele>2173.4</ele>
        <time>2021-11-07T06:19:57Z</time>
      </trkpt>
      <trkpt lat="45.51516" lon="7.21058">
        <ele>2173.4</ele>
        <time>2021-11-07T06:19:58Z</time>
      </trkpt>
      <trkpt lat="45.51515" lon="7.21058">
        <ele>2173.1</ele>
        <time>2021-11-07T06:19:59Z</time>
      </trkpt>
      <trkpt lat="45.51514" lon="7.21058">
        <ele>2173.1</ele>
        <time>2021-11-07T06:20:00Z</time>
      </trkpt>
      <trkpt lat="45.51514" lon="7.21058">
        <ele>2173.1</ele>
        <time>2021-11-07T06:20:01Z</time>
      </trkpt>
      <trkpt lat="45.51513" lon="7.21059">
        <ele>2173</ele>
        <time>2021-11-07T06:20:02Z</time>
      </trkpt>
      <trkpt lat="45.51512" lon="7.2106">
        <ele>2175.3</ele>
        <time>2021-11-07T06:20:04Z</time>
      </trkpt>
      <trkpt lat="45.51513" lon="7.21061">
        <ele>2175.3</ele>
        <time>2021-11-07T06:20:07Z</time>
      </trkpt>
      <trkpt lat="45.51514" lon="7.21061">
        <ele>2175.4</ele>
        <time>2021-11-07T06:20:09Z</time>
      </trkpt>
      <trkpt lat="45.51517" lon="7.2106">
        <ele>2175.6</ele>
        <time>2021-11-07T06:20:14Z</time>
      </trkpt>
      <trkpt lat="45.51519" lon="7.21061">
        <ele>2175.6</ele>
        <time>2021-11-07T06:20:16Z</time>
      </trkpt>
      <trkpt lat="45.5152" lon="7.21064">
        <ele>2178.5</ele>
        <time>2021-11-07T06:20:19Z</time>
      </trkpt>
      <trkpt lat="45.51522" lon="7.21068">
        <ele>2178.9</ele>
        <time>2021-11-07T06:20:23Z</time>
      </trkpt>
      <trkpt lat="45.51523" lon="7.21069">
        <ele>2181.5</ele>
        <time>2021-11-07T06:20:24Z</time>
      </trkpt>
      <trkpt lat="45.51523" lon="7.2107">
        <ele>2181.5</ele>
        <time>2021-11-07T06:20:25Z</time>
      </trkpt>
      <trkpt lat="45.51523" lon="7.21071">
        <ele>2181.5</ele>
        <time>2021-11-07T06:20:26Z</time>
      </trkpt>
      <trkpt lat="45.51523" lon="7.21072">
        <ele>2184.2</ele>
        <time>2021-11-07T06:20:28Z</time>
      </trkpt>
      <trkpt lat="45.51524" lon="7.21076">
        <ele>2184.2</ele>
        <time>2021-11-07T06:20:31Z</time>
      </trkpt>
      <trkpt lat="45.51524" lon="7.21077">
        <ele>2187</ele>
        <time>2021-11-07T06:20:33Z</time>
      </trkpt>
      <trkpt lat="45.51523" lon="7.2108">
        <ele>2186.9</ele>
        <time>2021-11-07T06:20:36Z</time>
      </trkpt>
      <trkpt lat="45.51523" lon="7.2108">
        <ele>2186.9</ele>
        <time>2021-11-07T06:20:37Z</time>
      </trkpt>
      <trkpt lat="45.51524" lon="7.21081">
        <ele>2186.9</ele>
        <time>2021-11-07T06:20:39Z</time>
      </trkpt>
      <trkpt lat="45.51526" lon="7.21082">
        <ele>2190.3</ele>
        <time>2021-11-07T06:20:43Z</time>
      </trkpt>
      <trkpt lat="45.51526" lon="7.21084">
        <ele>2190.3</ele>
        <time>2021-11-07T06:20:44Z</time>
      </trkpt>
      <trkpt lat="45.51526" lon="7.21085">
        <ele>2193.1</ele>
        <time>2021-11-07T06:20:46Z</time>
      </trkpt>
      <trkpt lat="45.51527" lon="7.21087">
        <ele>2193</ele>
        <time>2021-11-07T06:20:54Z</time>
      </trkpt>
      <trkpt lat="45.51527" lon="7.21088">
        <ele>2193</ele>
        <time>2021-11-07T06:20:56Z</time>
      </trkpt>
      <trkpt lat="45.51527" lon="7.21088">
        <ele>2193</ele>
        <time>2021-11-07T06:20:57Z</time>
      </trkpt>
      <trkpt lat="45.51527" lon="7.21089">
        <ele>2192.9</ele>
        <time>2021-11-07T06:21:01Z</time>
      </trkpt>
      <trkpt lat="45.51525" lon="7.21091">
        <ele>2195.6</ele>
        <time>2021-11-07T06:21:10Z</time>
      </trkpt>
      <trkpt lat="45.51524" lon="7.2109">
        <ele>2195</ele>
        <time>2021-11-07T06:21:12Z</time>
      </trkpt>
      <trkpt lat="45.51523" lon="7.21089">
        <ele>2195</ele>
        <time>2021-11-07T06:21:13Z</time>
      </trkpt>
      <trkpt lat="45.51523" lon="7.21089">
        <ele>2192.2</ele>
        <time>2021-11-07T06:21:14Z</time>
      </trkpt>
      <trkpt lat="45.51522" lon="7.21088">
        <ele>2191.7</ele>
        <time>2021-11-07T06:21:16Z</time>
      </trkpt>
      <trkpt lat="45.51519" lon="7.21086">
        <ele>2191.3</ele>
        <time>2021-11-07T06:21:20Z</time>
      </trkpt>
      <trkpt lat="45.5152" lon="7.21083">
        <ele>2188.8</ele>
        <time>2021-11-07T06:21:23Z</time>
      </trkpt>
      <trkpt lat="45.5152" lon="7.21081">
        <ele>2188.8</ele>
        <time>2021-11-07T06:21:26Z</time>
      </trkpt>
      <trkpt lat="45.51519" lon="7.2108">
        <ele>2185.9</ele>
        <time>2021-11-07T06:21:27Z</time>
      </trkpt>
      <trkpt lat="45.51519" lon="7.21081">
        <ele>2185.5</ele>
        <time>2021-11-07T06:21:28Z</time>
      </trkpt>
      <trkpt lat="45.51518" lon="7.21081">
        <ele>2188.3</ele>
        <time>2021-11-07T06:21:29Z</time>
      </trkpt>
      <trkpt lat="45.51517" lon="7.2108">
        <ele>2185.4</ele>
        <time>2021-11-07T06:21:30Z</time>
      </trkpt>
      <trkpt lat="45.51515" lon="7.2108">
        <ele>2185.1</ele>
        <time>2021-11-07T06:21:32Z</time>
      </trkpt>
      <trkpt lat="45.51512" lon="7.21079">
        <ele>2184.9</ele>
        <time>2021-11-07T06:21:35Z</time>
      </trkpt>
      <trkpt lat="45.51511" lon="7.21078">
        <ele>2184.8</ele>
        <time>2021-11-07T06:21:37Z</time>
      </trkpt>
      <trkpt lat="45.51507" lon="7.21078">
        <ele>2184.7</ele>
        <time>2021-11-07T06:21:41Z</time>
      </trkpt>
      <trkpt lat="45.51505" lon="7.21078">
        <ele>2184.6</ele>
        <time>2021-11-07T06:21:43Z</time>
      </trkpt>
      <trkpt lat="45.51503" lon="7.2108">
        <ele>2184.5</ele>
        <time>2021-11-07T06:21:45Z</time>
      </trkpt>
      <trkpt lat="45.51503" lon="7.21081">
        <ele>2184.5</ele>
        <time>2021-11-07T06:21:46Z</time>
      </trkpt>
      <trkpt lat="45.51502" lon="7.21081">
        <ele>2187.3</ele>
        <time>2021-11-07T06:21:47Z</time>
      </trkpt>
      <trkpt lat="45.51503" lon="7.21082">
        <ele>2187.3</ele>
        <time>2021-11-07T06:21:48Z</time>
      </trkpt>
      <trkpt lat="45.51503" lon="7.21082">
        <ele>2187.2</ele>
        <time>2021-11-07T06:21:49Z</time>
      </trkpt>
      <trkpt lat="45.51506" lon="7.21081">
        <ele>2187.2</ele>
        <time>2021-11-07T06:21:54Z</time>
      </trkpt>
      <trkpt lat="45.51509" lon="7.21082">
        <ele>2187.3</ele>
        <time>2021-11-07T06:21:58Z</time>
      </trkpt>
      <trkpt lat="45.51511" lon="7.21082">
        <ele>2187.4</ele>
        <time>2021-11-07T06:22:00Z</time>
      </trkpt>
      <trkpt lat="45.51511" lon="7.21084">
        <ele>2187.3</ele>
        <time>2021-11-07T06:22:01Z</time>
      </trkpt>
      <trkpt lat="45.5151" lon="7.21086">
        <ele>2190</ele>
        <time>2021-11-07T06:22:04Z</time>
      </trkpt>
      <trkpt lat="45.51507" lon="7.21089">
        <ele>2189.9</ele>
        <time>2021-11-07T06:22:09Z</time>
      </trkpt>
      <trkpt lat="45.51507" lon="7.21089">
        <ele>2189.9</ele>
        <time>2021-11-07T06:22:10Z</time>
      </trkpt>
      <trkpt lat="45.51505" lon="7.21089">
        <ele>2189.8</ele>
        <time>2021-11-07T06:22:12Z</time>
      </trkpt>
      <trkpt lat="45.51505" lon="7.2109">
        <ele>2192.5</ele>
        <time>2021-11-07T06:22:13Z</time>
      </trkpt>
      <trkpt lat="45.51502" lon="7.2109">
        <ele>2192.4</ele>
        <time>2021-11-07T06:22:17Z</time>
      </trkpt>
      <trkpt lat="45.515" lon="7.2109">
        <ele>2192.4</ele>
        <time>2021-11-07T06:22:19Z</time>
      </trkpt>
      <trkpt lat="45.51498" lon="7.2109">
        <ele>2192.4</ele>
        <time>2021-11-07T06:22:21Z</time>
      </trkpt>
      <trkpt lat="45.51498" lon="7.21091">
        <ele>2192.5</ele>
        <time>2021-11-07T06:22:23Z</time>
      </trkpt>
      <trkpt lat="45.51497" lon="7.21091">
        <ele>2192.5</ele>
        <time>2021-11-07T06:22:25Z</time>
      </trkpt>
      <trkpt lat="45.51496" lon="7.21091">
        <ele>2192.4</ele>
        <time>2021-11-07T06:22:26Z</time>
      </trkpt>
      <trkpt lat="45.51495" lon="7.21091">
        <ele>2192.4</ele>
        <time>2021-11-07T06:22:27Z</time>
      </trkpt>
      <trkpt lat="45.51494" lon="7.21092">
        <ele>2192.6</ele>
        <time>2021-11-07T06:22:29Z</time>
      </trkpt>
      <trkpt lat="45.51491" lon="7.21092">
        <ele>2192.9</ele>
        <time>2021-11-07T06:22:32Z</time>
      </trkpt>
      <trkpt lat="45.51488" lon="7.21092">
        <ele>2193.2</ele>
        <time>2021-11-07T06:22:35Z</time>
      </trkpt>
      <trkpt lat="45.51486" lon="7.21091">
        <ele>2193.2</ele>
        <time>2021-11-07T06:22:37Z</time>
      </trkpt>
      <trkpt lat="45.51484" lon="7.21091">
        <ele>2193.6</ele>
        <time>2021-11-07T06:22:39Z</time>
      </trkpt>
      <trkpt lat="45.51482" lon="7.21091">
        <ele>2194.1</ele>
        <time>2021-11-07T06:22:41Z</time>
      </trkpt>
      <trkpt lat="45.5148" lon="7.2109">
        <ele>2194.6</ele>
        <time>2021-11-07T06:22:43Z</time>
      </trkpt>
      <trkpt lat="45.51478" lon="7.21088">
        <ele>2191.9</ele>
        <time>2021-11-07T06:22:45Z</time>
      </trkpt>
      <trkpt lat="45.51476" lon="7.21085">
        <ele>2189.8</ele>
        <time>2021-11-07T06:22:48Z</time>
      </trkpt>
      <trkpt lat="45.51474" lon="7.21081">
        <ele>2189.7</ele>
        <time>2021-11-07T06:22:53Z</time>
      </trkpt>
      <trkpt lat="45.51473" lon="7.21079">
        <ele>2187.6</ele>
        <time>2021-11-07T06:22:55Z</time>
      </trkpt>
      <trkpt lat="45.51471" lon="7.21078">
        <ele>2187.6</ele>
        <time>2021-11-07T06:22:58Z</time>
      </trkpt>
      <trkpt lat="45.5147" lon="7.21079">
        <ele>2188.2</ele>
        <time>2021-11-07T06:23:03Z</time>
      </trkpt>
      <trkpt lat="45.51469" lon="7.21078">
        <ele>2188.2</ele>
        <time>2021-11-07T06:23:06Z</time>
      </trkpt>
      <trkpt lat="45.51469" lon="7.21075">
        <ele>2185.4</ele>
        <time>2021-11-07T06:23:08Z</time>
      </trkpt>
      <trkpt lat="45.51468" lon="7.21074">
        <ele>2185.4</ele>
        <time>2021-11-07T06:23:10Z</time>
      </trkpt>
      <trkpt lat="45.51467" lon="7.21072">
        <ele>2183.3</ele>
        <time>2021-11-07T06:23:12Z</time>
      </trkpt>
      <trkpt lat="45.51464" lon="7.21069">
        <ele>2184</ele>
        <time>2021-11-07T06:23:15Z</time>
      </trkpt>
      <trkpt lat="45.51464" lon="7.21068">
        <ele>2181.4</ele>
        <time>2021-11-07T06:23:17Z</time>
      </trkpt>
      <trkpt lat="45.51463" lon="7.21066">
        <ele>2181.3</ele>
        <time>2021-11-07T06:23:18Z</time>
      </trkpt>
      <trkpt lat="45.51463" lon="7.21065">
        <ele>2181.3</ele>
        <time>2021-11-07T06:23:19Z</time>
      </trkpt>
      <trkpt lat="45.51462" lon="7.21063">
        <ele>2178.8</ele>
        <time>2021-11-07T06:23:21Z</time>
      </trkpt>
      <trkpt lat="45.51461" lon="7.21062">
        <ele>2179.4</ele>
        <time>2021-11-07T06:23:23Z</time>
      </trkpt>
      <trkpt lat="45.51461" lon="7.21063">
        <ele>2179.3</ele>
        <time>2021-11-07T06:23:24Z</time>
      </trkpt>
      <trkpt lat="45.5146" lon="7.21065">
        <ele>2181.8</ele>
        <time>2021-11-07T06:23:26Z</time>
      </trkpt>
      <trkpt lat="45.51459" lon="7.21071">
        <ele>2184.4</ele>
        <time>2021-11-07T06:23:32Z</time>
      </trkpt>
      <trkpt lat="45.51459" lon="7.21072">
        <ele>2184.4</ele>
        <time>2021-11-07T06:23:33Z</time>
      </trkpt>
      <trkpt lat="45.51459" lon="7.21074">
        <ele>2187</ele>
        <time>2021-11-07T06:23:35Z</time>
      </trkpt>
      <trkpt lat="45.51459" lon="7.21075">
        <ele>2187</ele>
        <time>2021-11-07T06:23:36Z</time>
      </trkpt>
      <trkpt lat="45.5146" lon="7.21082">
        <ele>2192.5</ele>
        <time>2021-11-07T06:23:42Z</time>
      </trkpt>
      <trkpt lat="45.5146" lon="7.21083">
        <ele>2192.4</ele>
        <time>2021-11-07T06:23:43Z</time>
      </trkpt>
      <trkpt lat="45.51462" lon="7.21091">
        <ele>2197</ele>
        <time>2021-11-07T06:23:49Z</time>
      </trkpt>
      <trkpt lat="45.51463" lon="7.21094">
        <ele>2199.4</ele>
        <time>2021-11-07T06:23:52Z</time>
      </trkpt>
      <trkpt lat="45.51464" lon="7.21096">
        <ele>2199.4</ele>
        <time>2021-11-07T06:23:54Z</time>
      </trkpt>
      <trkpt lat="45.51466" lon="7.21098">
        <ele>2198.7</ele>
        <time>2021-11-07T06:23:56Z</time>
      </trkpt>
      <trkpt lat="45.51468" lon="7.21101">
        <ele>2201.1</ele>
        <time>2021-11-07T06:23:59Z</time>
      </trkpt>
      <trkpt lat="45.51466" lon="7.21104">
        <ele>2203.6</ele>
        <time>2021-11-07T06:24:03Z</time>
      </trkpt>
      <trkpt lat="45.51464" lon="7.21104">
        <ele>2204.2</ele>
        <time>2021-11-07T06:24:06Z</time>
      </trkpt>
      <trkpt lat="45.51463" lon="7.21103">
        <ele>2204.1</ele>
        <time>2021-11-07T06:24:08Z</time>
      </trkpt>
      <trkpt lat="45.51459" lon="7.211">
        <ele>2202.2</ele>
        <time>2021-11-07T06:24:11Z</time>
      </trkpt>
      <trkpt lat="45.51458" lon="7.211">
        <ele>2202.8</ele>
        <time>2021-11-07T06:24:12Z</time>
      </trkpt>
      <trkpt lat="45.51457" lon="7.21099">
        <ele>2202.8</ele>
        <time>2021-11-07T06:24:14Z</time>
      </trkpt>
      <trkpt lat="45.51456" lon="7.21098">
        <ele>2203.4</ele>
        <time>2021-11-07T06:24:15Z</time>
      </trkpt>
      <trkpt lat="45.51455" lon="7.21097">
        <ele>2201</ele>
        <time>2021-11-07T06:24:16Z</time>
      </trkpt>
      <trkpt lat="45.51454" lon="7.21096">
        <ele>2200.9</ele>
        <time>2021-11-07T06:24:18Z</time>
      </trkpt>
      <trkpt lat="45.51453" lon="7.21095">
        <ele>2201.1</ele>
        <time>2021-11-07T06:24:19Z</time>
      </trkpt>
      <trkpt lat="45.51452" lon="7.21095">
        <ele>2201.3</ele>
        <time>2021-11-07T06:24:20Z</time>
      </trkpt>
      <trkpt lat="45.51451" lon="7.21091">
        <ele>2201.9</ele>
        <time>2021-11-07T06:24:24Z</time>
      </trkpt>
      <trkpt lat="45.5145" lon="7.2109">
        <ele>2202.2</ele>
        <time>2021-11-07T06:24:26Z</time>
      </trkpt>
      <trkpt lat="45.51449" lon="7.21089">
        <ele>2202.5</ele>
        <time>2021-11-07T06:24:28Z</time>
      </trkpt>
      <trkpt lat="45.51448" lon="7.21088">
        <ele>2202.7</ele>
        <time>2021-11-07T06:24:29Z</time>
      </trkpt>
      <trkpt lat="45.51447" lon="7.21086">
        <ele>2203.1</ele>
        <time>2021-11-07T06:24:32Z</time>
      </trkpt>
      <trkpt lat="45.51446" lon="7.21085">
        <ele>2203.5</ele>
        <time>2021-11-07T06:24:34Z</time>
      </trkpt>
      <trkpt lat="45.51443" lon="7.21083">
        <ele>2204.1</ele>
        <time>2021-11-07T06:24:37Z</time>
      </trkpt>
      <trkpt lat="45.51443" lon="7.21082">
        <ele>2204.3</ele>
        <time>2021-11-07T06:24:39Z</time>
      </trkpt>
      <trkpt lat="45.51443" lon="7.21082">
        <ele>2204.3</ele>
        <time>2021-11-07T06:24:44Z</time>
      </trkpt>
      <trkpt lat="45.51443" lon="7.21082">
        <ele>2204.4</ele>
        <time>2021-11-07T06:24:46Z</time>
      </trkpt>
      <trkpt lat="45.51443" lon="7.21083">
        <ele>2204.4</ele>
        <time>2021-11-07T06:24:48Z</time>
      </trkpt>
      <trkpt lat="45.51443" lon="7.21083">
        <ele>2204.5</ele>
        <time>2021-11-07T06:24:50Z</time>
      </trkpt>
      <trkpt lat="45.51443" lon="7.21083">
        <ele>2204.6</ele>
        <time>2021-11-07T06:24:55Z</time>
      </trkpt>
      <trkpt lat="45.51443" lon="7.21083">
        <ele>2204.6</ele>
        <time>2021-11-07T06:24:59Z</time>
      </trkpt>
      <trkpt lat="45.51443" lon="7.21083">
        <ele>2204.7</ele>
        <time>2021-11-07T06:25:06Z</time>
      </trkpt>
      <trkpt lat="45.51444" lon="7.21083">
        <ele>2204.8</ele>
        <time>2021-11-07T06:25:10Z</time>
      </trkpt>
      <trkpt lat="45.51444" lon="7.21083">
        <ele>2204.9</ele>
        <time>2021-11-07T06:25:12Z</time>
      </trkpt>
      <trkpt lat="45.51444" lon="7.21083">
        <ele>2204.9</ele>
        <time>2021-11-07T06:25:15Z</time>
      </trkpt>
      <trkpt lat="45.51443" lon="7.21083">
        <ele>2205</ele>
        <time>2021-11-07T06:25:19Z</time>
      </trkpt>
      <trkpt lat="45.51443" lon="7.21084">
        <ele>2205</ele>
        <time>2021-11-07T06:25:22Z</time>
      </trkpt>
      <trkpt lat="45.51443" lon="7.21084">
        <ele>2205.1</ele>
        <time>2021-11-07T06:25:26Z</time>
      </trkpt>
      <trkpt lat="45.51443" lon="7.21084">
        <ele>2205.2</ele>
        <time>2021-11-07T06:25:28Z</time>
      </trkpt>
      <trkpt lat="45.51443" lon="7.21084">
        <ele>2205.2</ele>
        <time>2021-11-07T06:25:30Z</time>
      </trkpt>
      <trkpt lat="45.51443" lon="7.21083">
        <ele>2205.2</ele>
        <time>2021-11-07T06:25:33Z</time>
      </trkpt>
      <trkpt lat="45.51443" lon="7.21084">
        <ele>2205.3</ele>
        <time>2021-11-07T06:25:35Z</time>
      </trkpt>
      <trkpt lat="45.51443" lon="7.21084">
        <ele>2205.4</ele>
        <time>2021-11-07T06:25:39Z</time>
      </trkpt>
      <trkpt lat="45.51442" lon="7.21084">
        <ele>2205.5</ele>
        <time>2021-11-07T06:25:42Z</time>
      </trkpt>
      <trkpt lat="45.51443" lon="7.21084">
        <ele>2205.5</ele>
        <time>2021-11-07T06:25:44Z</time>
      </trkpt>
      <trkpt lat="45.51443" lon="7.21083">
        <ele>2205.8</ele>
        <time>2021-11-07T06:25:52Z</time>
      </trkpt>
      <trkpt lat="45.51444" lon="7.21083">
        <ele>2205.9</ele>
        <time>2021-11-07T06:25:59Z</time>
      </trkpt>
      <trkpt lat="45.51444" lon="7.21083">
        <ele>2205.9</ele>
        <time>2021-11-07T06:26:03Z</time>
      </trkpt>
      <trkpt lat="45.51444" lon="7.21084">
        <ele>2206</ele>
        <time>2021-11-07T06:26:06Z</time>
      </trkpt>
      <trkpt lat="45.51444" lon="7.21083">
        <ele>2206</ele>
        <time>2021-11-07T06:26:08Z</time>
      </trkpt>
      <trkpt lat="45.51444" lon="7.21083">
        <ele>2206</ele>
        <time>2021-11-07T06:26:09Z</time>
      </trkpt>
      <trkpt lat="45.51443" lon="7.21084">
        <ele>2206.2</ele>
        <time>2021-11-07T06:26:14Z</time>
      </trkpt>
      <trkpt lat="45.51438" lon="7.21084">
        <ele>2207.6</ele>
        <time>2021-11-07T06:26:22Z</time>
      </trkpt>
      <trkpt lat="45.51436" lon="7.21085">
        <ele>2207.9</ele>
        <time>2021-11-07T06:26:23Z</time>
      </trkpt>
      <trkpt lat="45.51435" lon="7.21085">
        <ele>2208.2</ele>
        <time>2021-11-07T06:26:24Z</time>
      </trkpt>
      <trkpt lat="45.51434" lon="7.21085">
        <ele>2208.4</ele>
        <time>2021-11-07T06:26:25Z</time>
      </trkpt>
      <trkpt lat="45.51433" lon="7.21084">
        <ele>2208.5</ele>
        <time>2021-11-07T06:26:26Z</time>
      </trkpt>
      <trkpt lat="45.51433" lon="7.21083">
        <ele>2208.8</ele>
        <time>2021-11-07T06:26:28Z</time>
      </trkpt>
      <trkpt lat="45.51432" lon="7.21083">
        <ele>2208.9</ele>
        <time>2021-11-07T06:26:31Z</time>
      </trkpt>
      <trkpt lat="45.51432" lon="7.21083">
        <ele>2209</ele>
        <time>2021-11-07T06:26:32Z</time>
      </trkpt>
      <trkpt lat="45.51433" lon="7.21084">
        <ele>2209.3</ele>
        <time>2021-11-07T06:26:34Z</time>
      </trkpt>
      <trkpt lat="45.51427" lon="7.21081">
        <ele>2210.8</ele>
        <time>2021-11-07T06:26:41Z</time>
      </trkpt>
      <trkpt lat="45.51425" lon="7.2108">
        <ele>2211.2</ele>
        <time>2021-11-07T06:26:43Z</time>
      </trkpt>
      <trkpt lat="45.51422" lon="7.21079">
        <ele>2211.9</ele>
        <time>2021-11-07T06:26:46Z</time>
      </trkpt>
      <trkpt lat="45.5142" lon="7.21079">
        <ele>2212.2</ele>
        <time>2021-11-07T06:26:48Z</time>
      </trkpt>
      <trkpt lat="45.51419" lon="7.21081">
        <ele>2212.7</ele>
        <time>2021-11-07T06:26:50Z</time>
      </trkpt>
      <trkpt lat="45.51418" lon="7.21081">
        <ele>2213</ele>
        <time>2021-11-07T06:26:51Z</time>
      </trkpt>
      <trkpt lat="45.51417" lon="7.21082">
        <ele>2213.2</ele>
        <time>2021-11-07T06:26:52Z</time>
      </trkpt>
      <trkpt lat="45.51416" lon="7.21083">
        <ele>2213.4</ele>
        <time>2021-11-07T06:26:53Z</time>
      </trkpt>
      <trkpt lat="45.51415" lon="7.21084">
        <ele>2213.7</ele>
        <time>2021-11-07T06:26:54Z</time>
      </trkpt>
      <trkpt lat="45.51414" lon="7.21085">
        <ele>2213.9</ele>
        <time>2021-11-07T06:26:55Z</time>
      </trkpt>
      <trkpt lat="45.51413" lon="7.21086">
        <ele>2214.4</ele>
        <time>2021-11-07T06:26:57Z</time>
      </trkpt>
      <trkpt lat="45.51411" lon="7.21087">
        <ele>2214.8</ele>
        <time>2021-11-07T06:26:59Z</time>
      </trkpt>
      <trkpt lat="45.51409" lon="7.21087">
        <ele>2215.2</ele>
        <time>2021-11-07T06:27:01Z</time>
      </trkpt>
      <trkpt lat="45.51407" lon="7.21088">
        <ele>2215.6</ele>
        <time>2021-11-07T06:27:03Z</time>
      </trkpt>
      <trkpt lat="45.51407" lon="7.21088">
        <ele>2215.8</ele>
        <time>2021-11-07T06:27:05Z</time>
      </trkpt>
      <trkpt lat="45.51406" lon="7.21091">
        <ele>2216.2</ele>
        <time>2021-11-07T06:27:08Z</time>
      </trkpt>
      <trkpt lat="45.51406" lon="7.21092">
        <ele>2216.4</ele>
        <time>2021-11-07T06:27:10Z</time>
      </trkpt>
      <trkpt lat="45.51407" lon="7.21093">
        <ele>2216.6</ele>
        <time>2021-11-07T06:27:11Z</time>
      </trkpt>
      <trkpt lat="45.51407" lon="7.21093">
        <ele>2216.7</ele>
        <time>2021-11-07T06:27:12Z</time>
      </trkpt>
      <trkpt lat="45.51408" lon="7.21093">
        <ele>2216.9</ele>
        <time>2021-11-07T06:27:13Z</time>
      </trkpt>
      <trkpt lat="45.51409" lon="7.21094">
        <ele>2217</ele>
        <time>2021-11-07T06:27:14Z</time>
      </trkpt>
      <trkpt lat="45.5141" lon="7.21096">
        <ele>2217.4</ele>
        <time>2021-11-07T06:27:16Z</time>
      </trkpt>
      <trkpt lat="45.5141" lon="7.21097">
        <ele>2217.6</ele>
        <time>2021-11-07T06:27:17Z</time>
      </trkpt>
      <trkpt lat="45.51411" lon="7.21097">
        <ele>2217.7</ele>
        <time>2021-11-07T06:27:18Z</time>
      </trkpt>
      <trkpt lat="45.51411" lon="7.21097">
        <ele>2217.9</ele>
        <time>2021-11-07T06:27:19Z</time>
      </trkpt>
      <trkpt lat="45.51412" lon="7.21098">
        <ele>2218.1</ele>
        <time>2021-11-07T06:27:20Z</time>
      </trkpt>
      <trkpt lat="45.51417" lon="7.21101">
        <ele>2219.3</ele>
        <time>2021-11-07T06:27:25Z</time>
      </trkpt>
      <trkpt lat="45.51419" lon="7.21103">
        <ele>2220</ele>
        <time>2021-11-07T06:27:28Z</time>
      </trkpt>
      <trkpt lat="45.51422" lon="7.21106">
        <ele>2220.6</ele>
        <time>2021-11-07T06:27:31Z</time>
      </trkpt>
      <trkpt lat="45.51424" lon="7.21108">
        <ele>2221.2</ele>
        <time>2021-11-07T06:27:34Z</time>
      </trkpt>
      <trkpt lat="45.51428" lon="7.21111">
        <ele>2222</ele>
        <time>2021-11-07T06:27:38Z</time>
      </trkpt>
      <trkpt lat="45.51429" lon="7.21112">
        <ele>2222.4</ele>
        <time>2021-11-07T06:27:40Z</time>
      </trkpt>
      <trkpt lat="45.51431" lon="7.21113">
        <ele>2222.7</ele>
        <time>2021-11-07T06:27:42Z</time>
      </trkpt>
      <trkpt lat="45.51434" lon="7.21119">
        <ele>2223.5</ele>
        <time>2021-11-07T06:27:48Z</time>
      </trkpt>
      <trkpt lat="45.51435" lon="7.2112">
        <ele>2223.6</ele>
        <time>2021-11-07T06:27:49Z</time>
      </trkpt>
      <trkpt lat="45.51439" lon="7.21123">
        <ele>2224.1</ele>
        <time>2021-11-07T06:27:53Z</time>
      </trkpt>
      <trkpt lat="45.51446" lon="7.21134">
        <ele>2225</ele>
        <time>2021-11-07T06:28:02Z</time>
      </trkpt>
      <trkpt lat="45.51447" lon="7.21135">
        <ele>2225.2</ele>
        <time>2021-11-07T06:28:04Z</time>
      </trkpt>
      <trkpt lat="45.51449" lon="7.21138">
        <ele>2225.4</ele>
        <time>2021-11-07T06:28:06Z</time>
      </trkpt>
      <trkpt lat="45.5145" lon="7.2114">
        <ele>2225.6</ele>
        <time>2021-11-07T06:28:08Z</time>
      </trkpt>
      <trkpt lat="45.5145" lon="7.21141">
        <ele>2225.7</ele>
        <time>2021-11-07T06:28:09Z</time>
      </trkpt>
      <trkpt lat="45.51451" lon="7.21144">
        <ele>2226.1</ele>
        <time>2021-11-07T06:28:12Z</time>
      </trkpt>
      <trkpt lat="45.51456" lon="7.21149">
        <ele>2227</ele>
        <time>2021-11-07T06:28:19Z</time>
      </trkpt>
      <trkpt lat="45.51459" lon="7.21151">
        <ele>2227.7</ele>
        <time>2021-11-07T06:28:23Z</time>
      </trkpt>
      <trkpt lat="45.5146" lon="7.21152">
        <ele>2227.9</ele>
        <time>2021-11-07T06:28:24Z</time>
      </trkpt>
      <trkpt lat="45.51462" lon="7.21155">
        <ele>2228.3</ele>
        <time>2021-11-07T06:28:27Z</time>
      </trkpt>
      <trkpt lat="45.51461" lon="7.21157">
        <ele>2228.5</ele>
        <time>2021-11-07T06:28:29Z</time>
      </trkpt>
      <trkpt lat="45.51461" lon="7.21157">
        <ele>2228.6</ele>
        <time>2021-11-07T06:28:30Z</time>
      </trkpt>
      <trkpt lat="45.51458" lon="7.21157">
        <ele>2229</ele>
        <time>2021-11-07T06:28:33Z</time>
      </trkpt>
      <trkpt lat="45.51457" lon="7.21157">
        <ele>2229.3</ele>
        <time>2021-11-07T06:28:35Z</time>
      </trkpt>
      <trkpt lat="45.51456" lon="7.21156">
        <ele>2229.5</ele>
        <time>2021-11-07T06:28:36Z</time>
      </trkpt>
      <trkpt lat="45.51455" lon="7.21156">
        <ele>2229.6</ele>
        <time>2021-11-07T06:28:37Z</time>
      </trkpt>
      <trkpt lat="45.51453" lon="7.21156">
        <ele>2229.8</ele>
        <time>2021-11-07T06:28:38Z</time>
      </trkpt>
      <trkpt lat="45.51451" lon="7.21155">
        <ele>2230.1</ele>
        <time>2021-11-07T06:28:40Z</time>
      </trkpt>
      <trkpt lat="45.51449" lon="7.21154">
        <ele>2230.5</ele>
        <time>2021-11-07T06:28:42Z</time>
      </trkpt>
      <trkpt lat="45.51447" lon="7.21154">
        <ele>2230.7</ele>
        <time>2021-11-07T06:28:44Z</time>
      </trkpt>
      <trkpt lat="45.51445" lon="7.21153">
        <ele>2231</ele>
        <time>2021-11-07T06:28:46Z</time>
      </trkpt>
      <trkpt lat="45.51444" lon="7.21153">
        <ele>2231.2</ele>
        <time>2021-11-07T06:28:47Z</time>
      </trkpt>
      <trkpt lat="45.51443" lon="7.21153">
        <ele>2231.3</ele>
        <time>2021-11-07T06:28:48Z</time>
      </trkpt>
      <trkpt lat="45.51442" lon="7.21153">
        <ele>2231.5</ele>
        <time>2021-11-07T06:28:49Z</time>
      </trkpt>
      <trkpt lat="45.51441" lon="7.21152">
        <ele>2231.6</ele>
        <time>2021-11-07T06:28:50Z</time>
      </trkpt>
      <trkpt lat="45.5144" lon="7.21151">
        <ele>2231.8</ele>
        <time>2021-11-07T06:28:51Z</time>
      </trkpt>
      <trkpt lat="45.51437" lon="7.21148">
        <ele>2232.3</ele>
        <time>2021-11-07T06:28:54Z</time>
      </trkpt>
      <trkpt lat="45.51434" lon="7.21146">
        <ele>2232.7</ele>
        <time>2021-11-07T06:28:57Z</time>
      </trkpt>
      <trkpt lat="45.51433" lon="7.21145">
        <ele>2233</ele>
        <time>2021-11-07T06:28:59Z</time>
      </trkpt>
      <trkpt lat="45.51431" lon="7.21143">
        <ele>2233.3</ele>
        <time>2021-11-07T06:29:01Z</time>
      </trkpt>
      <trkpt lat="45.51429" lon="7.21141">
        <ele>2233.6</ele>
        <time>2021-11-07T06:29:03Z</time>
      </trkpt>
      <trkpt lat="45.51426" lon="7.21139">
        <ele>2234.2</ele>
        <time>2021-11-07T06:29:07Z</time>
      </trkpt>
      <trkpt lat="45.51424" lon="7.21138">
        <ele>2234.5</ele>
        <time>2021-11-07T06:29:09Z</time>
      </trkpt>
      <trkpt lat="45.51422" lon="7.21137">
        <ele>2234.9</ele>
        <time>2021-11-07T06:29:12Z</time>
      </trkpt>
      <trkpt lat="45.5142" lon="7.21137">
        <ele>2235.2</ele>
        <time>2021-11-07T06:29:14Z</time>
      </trkpt>
      <trkpt lat="45.51416" lon="7.21135">
        <ele>2235.9</ele>
        <time>2021-11-07T06:29:19Z</time>
      </trkpt>
      <trkpt lat="45.51414" lon="7.21137">
        <ele>2236.4</ele>
        <time>2021-11-07T06:29:23Z</time>
      </trkpt>
      <trkpt lat="45.51411" lon="7.21136">
        <ele>2236.9</ele>
        <time>2021-11-07T06:29:27Z</time>
      </trkpt>
      <trkpt lat="45.51407" lon="7.21136">
        <ele>2237.6</ele>
        <time>2021-11-07T06:29:31Z</time>
      </trkpt>
      <trkpt lat="45.51405" lon="7.21136">
        <ele>2238</ele>
        <time>2021-11-07T06:29:34Z</time>
      </trkpt>
      <trkpt lat="45.51403" lon="7.21137">
        <ele>2238.5</ele>
        <time>2021-11-07T06:29:37Z</time>
      </trkpt>
      <trkpt lat="45.51402" lon="7.21137">
        <ele>2238.7</ele>
        <time>2021-11-07T06:29:38Z</time>
      </trkpt>
      <trkpt lat="45.514" lon="7.21138">
        <ele>2239.1</ele>
        <time>2021-11-07T06:29:40Z</time>
      </trkpt>
      <trkpt lat="45.514" lon="7.21138">
        <ele>2239.2</ele>
        <time>2021-11-07T06:29:41Z</time>
      </trkpt>
      <trkpt lat="45.51397" lon="7.2114">
        <ele>2239.8</ele>
        <time>2021-11-07T06:29:45Z</time>
      </trkpt>
      <trkpt lat="45.51393" lon="7.21141">
        <ele>2240.7</ele>
        <time>2021-11-07T06:29:50Z</time>
      </trkpt>
      <trkpt lat="45.51387" lon="7.21142">
        <ele>2241.8</ele>
        <time>2021-11-07T06:29:56Z</time>
      </trkpt>
      <trkpt lat="45.51383" lon="7.2114">
        <ele>2242.8</ele>
        <time>2021-11-07T06:30:02Z</time>
      </trkpt>
      <trkpt lat="45.51381" lon="7.21139">
        <ele>2243.4</ele>
        <time>2021-11-07T06:30:04Z</time>
      </trkpt>
      <trkpt lat="45.5138" lon="7.21139">
        <ele>2243.5</ele>
        <time>2021-11-07T06:30:05Z</time>
      </trkpt>
      <trkpt lat="45.51378" lon="7.21138">
        <ele>2244</ele>
        <time>2021-11-07T06:30:08Z</time>
      </trkpt>
      <trkpt lat="45.51378" lon="7.21137">
        <ele>2244.1</ele>
        <time>2021-11-07T06:30:09Z</time>
      </trkpt>
      <trkpt lat="45.51376" lon="7.21137">
        <ele>2244.6</ele>
        <time>2021-11-07T06:30:12Z</time>
      </trkpt>
      <trkpt lat="45.51374" lon="7.21136">
        <ele>2244.9</ele>
        <time>2021-11-07T06:30:14Z</time>
      </trkpt>
      <trkpt lat="45.51373" lon="7.21135">
        <ele>2245.4</ele>
        <time>2021-11-07T06:30:17Z</time>
      </trkpt>
      <trkpt lat="45.51371" lon="7.21134">
        <ele>2245.9</ele>
        <time>2021-11-07T06:30:20Z</time>
      </trkpt>
      <trkpt lat="45.51367" lon="7.21135">
        <ele>2246.7</ele>
        <time>2021-11-07T06:30:25Z</time>
      </trkpt>
      <trkpt lat="45.51367" lon="7.21135">
        <ele>2246.8</ele>
        <time>2021-11-07T06:30:26Z</time>
      </trkpt>
      <trkpt lat="45.51363" lon="7.2114">
        <ele>2248.1</ele>
        <time>2021-11-07T06:30:38Z</time>
      </trkpt>
      <trkpt lat="45.51367" lon="7.21141">
        <ele>2249.1</ele>
        <time>2021-11-07T06:30:43Z</time>
      </trkpt>
      <trkpt lat="45.51369" lon="7.21142">
        <ele>2249.5</ele>
        <time>2021-11-07T06:30:46Z</time>
      </trkpt>
      <trkpt lat="45.51371" lon="7.21143">
        <ele>2249.8</ele>
        <time>2021-11-07T06:30:48Z</time>
      </trkpt>
      <trkpt lat="45.51373" lon="7.21146">
        <ele>2250.4</ele>
        <time>2021-11-07T06:30:52Z</time>
      </trkpt>
      <trkpt lat="45.51374" lon="7.21147">
        <ele>2250.5</ele>
        <time>2021-11-07T06:30:53Z</time>
      </trkpt>
      <trkpt lat="45.51374" lon="7.21148">
        <ele>2250.6</ele>
        <time>2021-11-07T06:30:54Z</time>
      </trkpt>
      <trkpt lat="45.51375" lon="7.21149">
        <ele>2250.8</ele>
        <time>2021-11-07T06:30:55Z</time>
      </trkpt>
      <trkpt lat="45.51376" lon="7.2115">
        <ele>2251</ele>
        <time>2021-11-07T06:30:56Z</time>
      </trkpt>
      <trkpt lat="45.51377" lon="7.21151">
        <ele>2251.1</ele>
        <time>2021-11-07T06:30:57Z</time>
      </trkpt>
      <trkpt lat="45.51386" lon="7.21156">
        <ele>2252.5</ele>
        <time>2021-11-07T06:31:06Z</time>
      </trkpt>
      <trkpt lat="45.51388" lon="7.21157">
        <ele>2252.7</ele>
        <time>2021-11-07T06:31:08Z</time>
      </trkpt>
      <trkpt lat="45.51391" lon="7.21159">
        <ele>2253.2</ele>
        <time>2021-11-07T06:31:12Z</time>
      </trkpt>
      <trkpt lat="45.51392" lon="7.2116">
        <ele>2253.3</ele>
        <time>2021-11-07T06:31:13Z</time>
      </trkpt>
      <trkpt lat="45.51393" lon="7.21161">
        <ele>2253.4</ele>
        <time>2021-11-07T06:31:14Z</time>
      </trkpt>
      <trkpt lat="45.51395" lon="7.21163">
        <ele>2253.8</ele>
        <time>2021-11-07T06:31:17Z</time>
      </trkpt>
      <trkpt lat="45.51397" lon="7.21164">
        <ele>2254</ele>
        <time>2021-11-07T06:31:19Z</time>
      </trkpt>
      <trkpt lat="45.51398" lon="7.21165">
        <ele>2254.3</ele>
        <time>2021-11-07T06:31:21Z</time>
      </trkpt>
      <trkpt lat="45.51408" lon="7.21173">
        <ele>2255.7</ele>
        <time>2021-11-07T06:31:34Z</time>
      </trkpt>
      <trkpt lat="45.51412" lon="7.21178">
        <ele>2256.4</ele>
        <time>2021-11-07T06:31:39Z</time>
      </trkpt>
      <trkpt lat="45.51416" lon="7.21184">
        <ele>2257.2</ele>
        <time>2021-11-07T06:31:44Z</time>
      </trkpt>
      <trkpt lat="45.51417" lon="7.21184">
        <ele>2258.8</ele>
        <time>2021-11-07T06:31:45Z</time>
      </trkpt>
      <trkpt lat="45.51417" lon="7.21186">
        <ele>2258.9</ele>
        <time>2021-11-07T06:31:47Z</time>
      </trkpt>
      <trkpt lat="45.51418" lon="7.21188">
        <ele>2258.9</ele>
        <time>2021-11-07T06:31:48Z</time>
      </trkpt>
      <trkpt lat="45.51417" lon="7.21189">
        <ele>2261</ele>
        <time>2021-11-07T06:31:51Z</time>
      </trkpt>
      <trkpt lat="45.51416" lon="7.2119">
        <ele>2261.4</ele>
        <time>2021-11-07T06:31:54Z</time>
      </trkpt>
      <trkpt lat="45.51412" lon="7.21188">
        <ele>2259.9</ele>
        <time>2021-11-07T06:31:57Z</time>
      </trkpt>
      <trkpt lat="45.5141" lon="7.21185">
        <ele>2260.3</ele>
        <time>2021-11-07T06:31:59Z</time>
      </trkpt>
      <trkpt lat="45.51409" lon="7.21184">
        <ele>2260.3</ele>
        <time>2021-11-07T06:32:01Z</time>
      </trkpt>
      <trkpt lat="45.51408" lon="7.21183">
        <ele>2258.4</ele>
        <time>2021-11-07T06:32:03Z</time>
      </trkpt>
      <trkpt lat="45.51406" lon="7.21183">
        <ele>2258.8</ele>
        <time>2021-11-07T06:32:05Z</time>
      </trkpt>
      <trkpt lat="45.51405" lon="7.21183">
        <ele>2258.8</ele>
        <time>2021-11-07T06:32:07Z</time>
      </trkpt>
      <trkpt lat="45.51403" lon="7.21183">
        <ele>2259.3</ele>
        <time>2021-11-07T06:32:09Z</time>
      </trkpt>
      <trkpt lat="45.51401" lon="7.21183">
        <ele>2259.5</ele>
        <time>2021-11-07T06:32:12Z</time>
      </trkpt>
      <trkpt lat="45.514" lon="7.21184">
        <ele>2261.5</ele>
        <time>2021-11-07T06:32:14Z</time>
      </trkpt>
      <trkpt lat="45.51397" lon="7.21185">
        <ele>2261.7</ele>
        <time>2021-11-07T06:32:18Z</time>
      </trkpt>
      <trkpt lat="45.51395" lon="7.21185">
        <ele>2261.8</ele>
        <time>2021-11-07T06:32:20Z</time>
      </trkpt>
      <trkpt lat="45.51393" lon="7.21185">
        <ele>2261.8</ele>
        <time>2021-11-07T06:32:23Z</time>
      </trkpt>
      <trkpt lat="45.51386" lon="7.21185">
        <ele>2261.5</ele>
        <time>2021-11-07T06:32:31Z</time>
      </trkpt>
      <trkpt lat="45.51385" lon="7.21185">
        <ele>2261.6</ele>
        <time>2021-11-07T06:32:33Z</time>
      </trkpt>
      <trkpt lat="45.51382" lon="7.21184">
        <ele>2261.4</ele>
        <time>2021-11-07T06:32:37Z</time>
      </trkpt>
      <trkpt lat="45.51374" lon="7.21186">
        <ele>2260.5</ele>
        <time>2021-11-07T06:32:45Z</time>
      </trkpt>
      <trkpt lat="45.51372" lon="7.21187">
        <ele>2260.5</ele>
        <time>2021-11-07T06:32:47Z</time>
      </trkpt>
      <trkpt lat="45.51371" lon="7.21188">
        <ele>2260.2</ele>
        <time>2021-11-07T06:32:48Z</time>
      </trkpt>
      <trkpt lat="45.5137" lon="7.21189">
        <ele>2262</ele>
        <time>2021-11-07T06:32:50Z</time>
      </trkpt>
      <trkpt lat="45.51369" lon="7.2119">
        <ele>2262.1</ele>
        <time>2021-11-07T06:32:51Z</time>
      </trkpt>
      <trkpt lat="45.51368" lon="7.21191">
        <ele>2261.6</ele>
        <time>2021-11-07T06:32:53Z</time>
      </trkpt>
      <trkpt lat="45.51367" lon="7.21193">
        <ele>2263.5</ele>
        <time>2021-11-07T06:32:56Z</time>
      </trkpt>
      <trkpt lat="45.51367" lon="7.21193">
        <ele>2263.5</ele>
        <time>2021-11-07T06:32:57Z</time>
      </trkpt>
      <trkpt lat="45.5137" lon="7.21192">
        <ele>2262.2</ele>
        <time>2021-11-07T06:33:00Z</time>
      </trkpt>
      <trkpt lat="45.51371" lon="7.21192">
        <ele>2262.2</ele>
        <time>2021-11-07T06:33:01Z</time>
      </trkpt>
      <trkpt lat="45.51374" lon="7.21192">
        <ele>2262.7</ele>
        <time>2021-11-07T06:33:04Z</time>
      </trkpt>
      <trkpt lat="45.51374" lon="7.21192">
        <ele>2262.7</ele>
        <time>2021-11-07T06:33:05Z</time>
      </trkpt>
      <trkpt lat="45.51378" lon="7.21195">
        <ele>2265.3</ele>
        <time>2021-11-07T06:33:09Z</time>
      </trkpt>
      <trkpt lat="45.51378" lon="7.21196">
        <ele>2265.3</ele>
        <time>2021-11-07T06:33:10Z</time>
      </trkpt>
      <trkpt lat="45.51377" lon="7.21197">
        <ele>2266.9</ele>
        <time>2021-11-07T06:33:12Z</time>
      </trkpt>
      <trkpt lat="45.51377" lon="7.21198">
        <ele>2267</ele>
        <time>2021-11-07T06:33:13Z</time>
      </trkpt>
      <trkpt lat="45.51376" lon="7.21201">
        <ele>2267</ele>
        <time>2021-11-07T06:33:16Z</time>
      </trkpt>
      <trkpt lat="45.51377" lon="7.21201">
        <ele>2267</ele>
        <time>2021-11-07T06:33:19Z</time>
      </trkpt>
      <trkpt lat="45.51379" lon="7.21201">
        <ele>2269.3</ele>
        <time>2021-11-07T06:33:21Z</time>
      </trkpt>
      <trkpt lat="45.51384" lon="7.212">
        <ele>2267.9</ele>
        <time>2021-11-07T06:33:27Z</time>
      </trkpt>
      <trkpt lat="45.51388" lon="7.21201">
        <ele>2270</ele>
        <time>2021-11-07T06:33:31Z</time>
      </trkpt>
      <trkpt lat="45.51393" lon="7.21204">
        <ele>2270.2</ele>
        <time>2021-11-07T06:33:36Z</time>
      </trkpt>
      <trkpt lat="45.51394" lon="7.21204">
        <ele>2270.3</ele>
        <time>2021-11-07T06:33:37Z</time>
      </trkpt>
      <trkpt lat="45.51397" lon="7.2121">
        <ele>2274.1</ele>
        <time>2021-11-07T06:33:43Z</time>
      </trkpt>
      <trkpt lat="45.51402" lon="7.21216">
        <ele>2276</ele>
        <time>2021-11-07T06:33:51Z</time>
      </trkpt>
      <trkpt lat="45.51404" lon="7.21219">
        <ele>2278</ele>
        <time>2021-11-07T06:33:55Z</time>
      </trkpt>
      <trkpt lat="45.51405" lon="7.21221">
        <ele>2277.8</ele>
        <time>2021-11-07T06:33:57Z</time>
      </trkpt>
      <trkpt lat="45.51408" lon="7.21226">
        <ele>2279.6</ele>
        <time>2021-11-07T06:34:02Z</time>
      </trkpt>
      <trkpt lat="45.51411" lon="7.21229">
        <ele>2281.2</ele>
        <time>2021-11-07T06:34:06Z</time>
      </trkpt>
      <trkpt lat="45.51412" lon="7.2123">
        <ele>2281.3</ele>
        <time>2021-11-07T06:34:07Z</time>
      </trkpt>
      <trkpt lat="45.51414" lon="7.2123">
        <ele>2281.1</ele>
        <time>2021-11-07T06:34:09Z</time>
      </trkpt>
      <trkpt lat="45.51417" lon="7.21238">
        <ele>2284.4</ele>
        <time>2021-11-07T06:34:19Z</time>
      </trkpt>
      <trkpt lat="45.51416" lon="7.21237">
        <ele>2284.7</ele>
        <time>2021-11-07T06:34:20Z</time>
      </trkpt>
      <trkpt lat="45.51415" lon="7.21237">
        <ele>2284.7</ele>
        <time>2021-11-07T06:34:21Z</time>
      </trkpt>
      <trkpt lat="45.51414" lon="7.21237">
        <ele>2284.7</ele>
        <time>2021-11-07T06:34:22Z</time>
      </trkpt>
      <trkpt lat="45.51413" lon="7.21237">
        <ele>2285</ele>
        <time>2021-11-07T06:34:23Z</time>
      </trkpt>
      <trkpt lat="45.51411" lon="7.21236">
        <ele>2285</ele>
        <time>2021-11-07T06:34:25Z</time>
      </trkpt>
      <trkpt lat="45.5141" lon="7.21236">
        <ele>2285.2</ele>
        <time>2021-11-07T06:34:26Z</time>
      </trkpt>
      <trkpt lat="45.51409" lon="7.21236">
        <ele>2285.2</ele>
        <time>2021-11-07T06:34:27Z</time>
      </trkpt>
      <trkpt lat="45.51407" lon="7.21236">
        <ele>2285.4</ele>
        <time>2021-11-07T06:34:30Z</time>
      </trkpt>
      <trkpt lat="45.51405" lon="7.21236">
        <ele>2285.4</ele>
        <time>2021-11-07T06:34:32Z</time>
      </trkpt>
      <trkpt lat="45.51403" lon="7.21236">
        <ele>2285.7</ele>
        <time>2021-11-07T06:34:35Z</time>
      </trkpt>
      <trkpt lat="45.51402" lon="7.21236">
        <ele>2285.7</ele>
        <time>2021-11-07T06:34:37Z</time>
      </trkpt>
      <trkpt lat="45.51401" lon="7.21235">
        <ele>2284.1</ele>
        <time>2021-11-07T06:34:38Z</time>
      </trkpt>
      <trkpt lat="45.51399" lon="7.21234">
        <ele>2284.1</ele>
        <time>2021-11-07T06:34:40Z</time>
      </trkpt>
      <trkpt lat="45.51398" lon="7.21234">
        <ele>2284.2</ele>
        <time>2021-11-07T06:34:41Z</time>
      </trkpt>
      <trkpt lat="45.51398" lon="7.21234">
        <ele>2284.2</ele>
        <time>2021-11-07T06:34:42Z</time>
      </trkpt>
      <trkpt lat="45.51396" lon="7.21233">
        <ele>2284.3</ele>
        <time>2021-11-07T06:34:44Z</time>
      </trkpt>
      <trkpt lat="45.51394" lon="7.21233">
        <ele>2284.3</ele>
        <time>2021-11-07T06:34:47Z</time>
      </trkpt>
      <trkpt lat="45.51392" lon="7.21233">
        <ele>2284.3</ele>
        <time>2021-11-07T06:34:49Z</time>
      </trkpt>
      <trkpt lat="45.51391" lon="7.21234">
        <ele>2284.3</ele>
        <time>2021-11-07T06:34:51Z</time>
      </trkpt>
      <trkpt lat="45.51389" lon="7.21235">
        <ele>2284.3</ele>
        <time>2021-11-07T06:34:53Z</time>
      </trkpt>
      <trkpt lat="45.51388" lon="7.21236">
        <ele>2286</ele>
        <time>2021-11-07T06:34:55Z</time>
      </trkpt>
      <trkpt lat="45.51388" lon="7.21237">
        <ele>2286</ele>
        <time>2021-11-07T06:34:56Z</time>
      </trkpt>
      <trkpt lat="45.51388" lon="7.21238">
        <ele>2286.1</ele>
        <time>2021-11-07T06:34:57Z</time>
      </trkpt>
      <trkpt lat="45.5139" lon="7.21239">
        <ele>2286.2</ele>
        <time>2021-11-07T06:35:00Z</time>
      </trkpt>
      <trkpt lat="45.51391" lon="7.21239">
        <ele>2286.3</ele>
        <time>2021-11-07T06:35:01Z</time>
      </trkpt>
      <trkpt lat="45.51392" lon="7.2124">
        <ele>2288</ele>
        <time>2021-11-07T06:35:03Z</time>
      </trkpt>
      <trkpt lat="45.51396" lon="7.21242">
        <ele>2288.1</ele>
        <time>2021-11-07T06:35:07Z</time>
      </trkpt>
      <trkpt lat="45.51399" lon="7.21245">
        <ele>2290</ele>
        <time>2021-11-07T06:35:10Z</time>
      </trkpt>
      <trkpt lat="45.514" lon="7.21246">
        <ele>2290.1</ele>
        <time>2021-11-07T06:35:11Z</time>
      </trkpt>
      <trkpt lat="45.51402" lon="7.21248">
        <ele>2290</ele>
        <time>2021-11-07T06:35:13Z</time>
      </trkpt>
      <trkpt lat="45.51407" lon="7.2125">
        <ele>2291.8</ele>
        <time>2021-11-07T06:35:19Z</time>
      </trkpt>
      <trkpt lat="45.51412" lon="7.21253">
        <ele>2293.6</ele>
        <time>2021-11-07T06:35:24Z</time>
      </trkpt>
      <trkpt lat="45.5142" lon="7.21254">
        <ele>2293</ele>
        <time>2021-11-07T06:35:31Z</time>
      </trkpt>
      <trkpt lat="45.51426" lon="7.21256">
        <ele>2292.4</ele>
        <time>2021-11-07T06:35:37Z</time>
      </trkpt>
      <trkpt lat="45.51427" lon="7.21257">
        <ele>2294.4</ele>
        <time>2021-11-07T06:35:38Z</time>
      </trkpt>
      <trkpt lat="45.5143" lon="7.21259">
        <ele>2294.1</ele>
        <time>2021-11-07T06:35:43Z</time>
      </trkpt>
      <trkpt lat="45.51435" lon="7.21262">
        <ele>2295.2</ele>
        <time>2021-11-07T06:35:48Z</time>
      </trkpt>
      <trkpt lat="45.51437" lon="7.21263">
        <ele>2295.2</ele>
        <time>2021-11-07T06:35:51Z</time>
      </trkpt>
      <trkpt lat="45.51441" lon="7.21267">
        <ele>2296.2</ele>
        <time>2021-11-07T06:35:59Z</time>
      </trkpt>
      <trkpt lat="45.51441" lon="7.21267">
        <ele>2296.7</ele>
        <time>2021-11-07T06:36:00Z</time>
      </trkpt>
      <trkpt lat="45.5144" lon="7.21267">
        <ele>2296.7</ele>
        <time>2021-11-07T06:36:01Z</time>
      </trkpt>
      <trkpt lat="45.51439" lon="7.21267">
        <ele>2296.7</ele>
        <time>2021-11-07T06:36:02Z</time>
      </trkpt>
      <trkpt lat="45.51438" lon="7.21267">
        <ele>2296.8</ele>
        <time>2021-11-07T06:36:03Z</time>
      </trkpt>
      <trkpt lat="45.51438" lon="7.21268">
        <ele>2296.8</ele>
        <time>2021-11-07T06:36:04Z</time>
      </trkpt>
      <trkpt lat="45.51436" lon="7.21269">
        <ele>2297.3</ele>
        <time>2021-11-07T06:36:06Z</time>
      </trkpt>
      <trkpt lat="45.51434" lon="7.21269">
        <ele>2297.7</ele>
        <time>2021-11-07T06:36:08Z</time>
      </trkpt>
      <trkpt lat="45.51433" lon="7.21269">
        <ele>2297.7</ele>
        <time>2021-11-07T06:36:10Z</time>
      </trkpt>
      <trkpt lat="45.51431" lon="7.21269">
        <ele>2298.1</ele>
        <time>2021-11-07T06:36:12Z</time>
      </trkpt>
      <trkpt lat="45.51429" lon="7.2127">
        <ele>2299.8</ele>
        <time>2021-11-07T06:36:14Z</time>
      </trkpt>
      <trkpt lat="45.51428" lon="7.21271">
        <ele>2300.2</ele>
        <time>2021-11-07T06:36:16Z</time>
      </trkpt>
      <trkpt lat="45.51427" lon="7.21272">
        <ele>2300.2</ele>
        <time>2021-11-07T06:36:18Z</time>
      </trkpt>
      <trkpt lat="45.51425" lon="7.21273">
        <ele>2300.6</ele>
        <time>2021-11-07T06:36:20Z</time>
      </trkpt>
      <trkpt lat="45.51423" lon="7.21273">
        <ele>2300.6</ele>
        <time>2021-11-07T06:36:22Z</time>
      </trkpt>
      <trkpt lat="45.51421" lon="7.21273">
        <ele>2300.9</ele>
        <time>2021-11-07T06:36:24Z</time>
      </trkpt>
      <trkpt lat="45.5142" lon="7.21274">
        <ele>2301</ele>
        <time>2021-11-07T06:36:25Z</time>
      </trkpt>
      <trkpt lat="45.51418" lon="7.21274">
        <ele>2302.8</ele>
        <time>2021-11-07T06:36:28Z</time>
      </trkpt>
      <trkpt lat="45.51416" lon="7.21274">
        <ele>2303.1</ele>
        <time>2021-11-07T06:36:31Z</time>
      </trkpt>
      <trkpt lat="45.51413" lon="7.21275">
        <ele>2303.3</ele>
        <time>2021-11-07T06:36:34Z</time>
      </trkpt>
      <trkpt lat="45.51413" lon="7.21275">
        <ele>2303.3</ele>
        <time>2021-11-07T06:36:35Z</time>
      </trkpt>
      <trkpt lat="45.5141" lon="7.21277">
        <ele>2303.5</ele>
        <time>2021-11-07T06:36:39Z</time>
      </trkpt>
      <trkpt lat="45.51406" lon="7.21277">
        <ele>2303.7</ele>
        <time>2021-11-07T06:36:43Z</time>
      </trkpt>
      <trkpt lat="45.51404" lon="7.21277">
        <ele>2303.9</ele>
        <time>2021-11-07T06:36:46Z</time>
      </trkpt>
      <trkpt lat="45.51401" lon="7.21278">
        <ele>2305.4</ele>
        <time>2021-11-07T06:36:50Z</time>
      </trkpt>
      <trkpt lat="45.514" lon="7.21279">
        <ele>2305.5</ele>
        <time>2021-11-07T06:36:51Z</time>
      </trkpt>
      <trkpt lat="45.51397" lon="7.21282">
        <ele>2305.5</ele>
        <time>2021-11-07T06:36:56Z</time>
      </trkpt>
      <trkpt lat="45.51397" lon="7.21282">
        <ele>2305.5</ele>
        <time>2021-11-07T06:36:57Z</time>
      </trkpt>
      <trkpt lat="45.51399" lon="7.21281">
        <ele>2305.6</ele>
        <time>2021-11-07T06:37:00Z</time>
      </trkpt>
      <trkpt lat="45.51399" lon="7.21282">
        <ele>2305.6</ele>
        <time>2021-11-07T06:37:01Z</time>
      </trkpt>
      <trkpt lat="45.51401" lon="7.21283">
        <ele>2307.2</ele>
        <time>2021-11-07T06:37:03Z</time>
      </trkpt>
      <trkpt lat="45.51401" lon="7.21283">
        <ele>2307.2</ele>
        <time>2021-11-07T06:37:04Z</time>
      </trkpt>
      <trkpt lat="45.51402" lon="7.21284">
        <ele>2307.3</ele>
        <time>2021-11-07T06:37:05Z</time>
      </trkpt>
      <trkpt lat="45.51403" lon="7.21284">
        <ele>2307.3</ele>
        <time>2021-11-07T06:37:07Z</time>
      </trkpt>
      <trkpt lat="45.51406" lon="7.21285">
        <ele>2307.2</ele>
        <time>2021-11-07T06:37:10Z</time>
      </trkpt>
      <trkpt lat="45.5141" lon="7.21285">
        <ele>2307.1</ele>
        <time>2021-11-07T06:37:15Z</time>
      </trkpt>
      <trkpt lat="45.51412" lon="7.21286">
        <ele>2307</ele>
        <time>2021-11-07T06:37:17Z</time>
      </trkpt>
      <trkpt lat="45.51413" lon="7.21287">
        <ele>2308.6</ele>
        <time>2021-11-07T06:37:20Z</time>
      </trkpt>
      <trkpt lat="45.51415" lon="7.21288">
        <ele>2308.5</ele>
        <time>2021-11-07T06:37:23Z</time>
      </trkpt>
      <trkpt lat="45.51418" lon="7.21291">
        <ele>2308.3</ele>
        <time>2021-11-07T06:37:27Z</time>
      </trkpt>
      <trkpt lat="45.5142" lon="7.21293">
        <ele>2309.6</ele>
        <time>2021-11-07T06:37:30Z</time>
      </trkpt>
      <trkpt lat="45.5142" lon="7.21294">
        <ele>2309.7</ele>
        <time>2021-11-07T06:37:31Z</time>
      </trkpt>
      <trkpt lat="45.51422" lon="7.21295">
        <ele>2309.7</ele>
        <time>2021-11-07T06:37:33Z</time>
      </trkpt>
      <trkpt lat="45.51428" lon="7.21301">
        <ele>2312.4</ele>
        <time>2021-11-07T06:37:42Z</time>
      </trkpt>
      <trkpt lat="45.51429" lon="7.21303">
        <ele>2312.1</ele>
        <time>2021-11-07T06:37:44Z</time>
      </trkpt>
      <trkpt lat="45.5143" lon="7.21303">
        <ele>2312.1</ele>
        <time>2021-11-07T06:37:45Z</time>
      </trkpt>
      <trkpt lat="45.51431" lon="7.21305">
        <ele>2313.8</ele>
        <time>2021-11-07T06:37:47Z</time>
      </trkpt>
      <trkpt lat="45.51432" lon="7.21306">
        <ele>2313.4</ele>
        <time>2021-11-07T06:37:48Z</time>
      </trkpt>
      <trkpt lat="45.51436" lon="7.21311">
        <ele>2314.7</ele>
        <time>2021-11-07T06:37:53Z</time>
      </trkpt>
      <trkpt lat="45.51437" lon="7.21312">
        <ele>2314.8</ele>
        <time>2021-11-07T06:37:54Z</time>
      </trkpt>
      <trkpt lat="45.51437" lon="7.21314">
        <ele>2316.3</ele>
        <time>2021-11-07T06:37:56Z</time>
      </trkpt>
      <trkpt lat="45.51435" lon="7.21316">
        <ele>2316.4</ele>
        <time>2021-11-07T06:37:59Z</time>
      </trkpt>
      <trkpt lat="45.51434" lon="7.21317">
        <ele>2316.8</ele>
        <time>2021-11-07T06:38:01Z</time>
      </trkpt>
      <trkpt lat="45.51432" lon="7.21317">
        <ele>2316.8</ele>
        <time>2021-11-07T06:38:03Z</time>
      </trkpt>
      <trkpt lat="45.51432" lon="7.21317">
        <ele>2317.2</ele>
        <time>2021-11-07T06:38:04Z</time>
      </trkpt>
      <trkpt lat="45.5143" lon="7.21317">
        <ele>2318.8</ele>
        <time>2021-11-07T06:38:06Z</time>
      </trkpt>
      <trkpt lat="45.51429" lon="7.21317">
        <ele>2318.8</ele>
        <time>2021-11-07T06:38:08Z</time>
      </trkpt>
      <trkpt lat="45.51428" lon="7.21317">
        <ele>2317.7</ele>
        <time>2021-11-07T06:38:10Z</time>
      </trkpt>
      <trkpt lat="45.51427" lon="7.21317">
        <ele>2317.8</ele>
        <time>2021-11-07T06:38:11Z</time>
      </trkpt>
      <trkpt lat="45.51426" lon="7.21316">
        <ele>2317.8</ele>
        <time>2021-11-07T06:38:13Z</time>
      </trkpt>
      <trkpt lat="45.51424" lon="7.21316">
        <ele>2318.2</ele>
        <time>2021-11-07T06:38:15Z</time>
      </trkpt>
      <trkpt lat="45.51423" lon="7.21317">
        <ele>2318.3</ele>
        <time>2021-11-07T06:38:17Z</time>
      </trkpt>
      <trkpt lat="45.51422" lon="7.21317">
        <ele>2318.7</ele>
        <time>2021-11-07T06:38:19Z</time>
      </trkpt>
      <trkpt lat="45.5142" lon="7.21318">
        <ele>2320.2</ele>
        <time>2021-11-07T06:38:21Z</time>
      </trkpt>
      <trkpt lat="45.5142" lon="7.21318">
        <ele>2320.3</ele>
        <time>2021-11-07T06:38:22Z</time>
      </trkpt>
      <trkpt lat="45.51419" lon="7.21318">
        <ele>2320.7</ele>
        <time>2021-11-07T06:38:23Z</time>
      </trkpt>
      <trkpt lat="45.51418" lon="7.21318">
        <ele>2320.7</ele>
        <time>2021-11-07T06:38:24Z</time>
      </trkpt>
      <trkpt lat="45.51416" lon="7.21318">
        <ele>2321.1</ele>
        <time>2021-11-07T06:38:27Z</time>
      </trkpt>
      <trkpt lat="45.51414" lon="7.21318">
        <ele>2321.1</ele>
        <time>2021-11-07T06:38:29Z</time>
      </trkpt>
      <trkpt lat="45.51414" lon="7.21318">
        <ele>2321.4</ele>
        <time>2021-11-07T06:38:30Z</time>
      </trkpt>
      <trkpt lat="45.51411" lon="7.21316">
        <ele>2320.2</ele>
        <time>2021-11-07T06:38:35Z</time>
      </trkpt>
      <trkpt lat="45.51408" lon="7.21315">
        <ele>2320.2</ele>
        <time>2021-11-07T06:38:39Z</time>
      </trkpt>
      <trkpt lat="45.51406" lon="7.21315">
        <ele>2320.4</ele>
        <time>2021-11-07T06:38:42Z</time>
      </trkpt>
      <trkpt lat="45.51406" lon="7.21316">
        <ele>2320.4</ele>
        <time>2021-11-07T06:38:43Z</time>
      </trkpt>
      <trkpt lat="45.51405" lon="7.21316">
        <ele>2320.5</ele>
        <time>2021-11-07T06:38:45Z</time>
      </trkpt>
      <trkpt lat="45.51408" lon="7.21319">
        <ele>2321.9</ele>
        <time>2021-11-07T06:38:50Z</time>
      </trkpt>
      <trkpt lat="45.51408" lon="7.2132">
        <ele>2321.9</ele>
        <time>2021-11-07T06:38:51Z</time>
      </trkpt>
      <trkpt lat="45.51409" lon="7.21321">
        <ele>2323.4</ele>
        <time>2021-11-07T06:38:54Z</time>
      </trkpt>
      <trkpt lat="45.5141" lon="7.21325">
        <ele>2323.5</ele>
        <time>2021-11-07T06:38:58Z</time>
      </trkpt>
      <trkpt lat="45.5141" lon="7.21326">
        <ele>2324.9</ele>
        <time>2021-11-07T06:38:59Z</time>
      </trkpt>
      <trkpt lat="45.51412" lon="7.21328">
        <ele>2324.8</ele>
        <time>2021-11-07T06:39:02Z</time>
      </trkpt>
      <trkpt lat="45.51412" lon="7.21329">
        <ele>2324.8</ele>
        <time>2021-11-07T06:39:03Z</time>
      </trkpt>
      <trkpt lat="45.51413" lon="7.2133">
        <ele>2326.3</ele>
        <time>2021-11-07T06:39:05Z</time>
      </trkpt>
      <trkpt lat="45.51416" lon="7.21334">
        <ele>2327.6</ele>
        <time>2021-11-07T06:39:09Z</time>
      </trkpt>
      <trkpt lat="45.51418" lon="7.21337">
        <ele>2327.4</ele>
        <time>2021-11-07T06:39:13Z</time>
      </trkpt>
      <trkpt lat="45.5142" lon="7.21339">
        <ele>2329</ele>
        <time>2021-11-07T06:39:15Z</time>
      </trkpt>
      <trkpt lat="45.51422" lon="7.21342">
        <ele>2328.7</ele>
        <time>2021-11-07T06:39:18Z</time>
      </trkpt>
      <trkpt lat="45.51426" lon="7.21346">
        <ele>2329.5</ele>
        <time>2021-11-07T06:39:22Z</time>
      </trkpt>
      <trkpt lat="45.51427" lon="7.21347">
        <ele>2331.1</ele>
        <time>2021-11-07T06:39:24Z</time>
      </trkpt>
      <trkpt lat="45.51429" lon="7.2135">
        <ele>2330.7</ele>
        <time>2021-11-07T06:39:26Z</time>
      </trkpt>
      <trkpt lat="45.5143" lon="7.21352">
        <ele>2332.2</ele>
        <time>2021-11-07T06:39:28Z</time>
      </trkpt>
      <trkpt lat="45.51431" lon="7.21355">
        <ele>2332.2</ele>
        <time>2021-11-07T06:39:31Z</time>
      </trkpt>
      <trkpt lat="45.51431" lon="7.21355">
        <ele>2332.2</ele>
        <time>2021-11-07T06:39:32Z</time>
      </trkpt>
      <trkpt lat="45.5143" lon="7.21356">
        <ele>2333.7</ele>
        <time>2021-11-07T06:39:33Z</time>
      </trkpt>
      <trkpt lat="45.5143" lon="7.21355">
        <ele>2332.3</ele>
        <time>2021-11-07T06:39:34Z</time>
      </trkpt>
      <trkpt lat="45.51429" lon="7.21355">
        <ele>2332.4</ele>
        <time>2021-11-07T06:39:35Z</time>
      </trkpt>
      <trkpt lat="45.51429" lon="7.21355">
        <ele>2332.4</ele>
        <time>2021-11-07T06:39:36Z</time>
      </trkpt>
      <trkpt lat="45.51427" lon="7.21355">
        <ele>2332.9</ele>
        <time>2021-11-07T06:39:38Z</time>
      </trkpt>
      <trkpt lat="45.51426" lon="7.21354">
        <ele>2333.3</ele>
        <time>2021-11-07T06:39:40Z</time>
      </trkpt>
      <trkpt lat="45.51424" lon="7.21354">
        <ele>2333.4</ele>
        <time>2021-11-07T06:39:42Z</time>
      </trkpt>
      <trkpt lat="45.51422" lon="7.21354">
        <ele>2333.8</ele>
        <time>2021-11-07T06:39:44Z</time>
      </trkpt>
      <trkpt lat="45.5142" lon="7.21354">
        <ele>2333.8</ele>
        <time>2021-11-07T06:39:46Z</time>
      </trkpt>
      <trkpt lat="45.51419" lon="7.21353">
        <ele>2334.2</ele>
        <time>2021-11-07T06:39:47Z</time>
      </trkpt>
      <trkpt lat="45.51419" lon="7.21353">
        <ele>2334.2</ele>
        <time>2021-11-07T06:39:48Z</time>
      </trkpt>
      <trkpt lat="45.51417" lon="7.21351">
        <ele>2334.2</ele>
        <time>2021-11-07T06:39:50Z</time>
      </trkpt>
      <trkpt lat="45.51414" lon="7.2135">
        <ele>2333.1</ele>
        <time>2021-11-07T06:39:53Z</time>
      </trkpt>
      <trkpt lat="45.51412" lon="7.21349">
        <ele>2333.3</ele>
        <time>2021-11-07T06:39:56Z</time>
      </trkpt>
      <trkpt lat="45.51409" lon="7.21346">
        <ele>2332</ele>
        <time>2021-11-07T06:40:00Z</time>
      </trkpt>
      <trkpt lat="45.51408" lon="7.21345">
        <ele>2332.1</ele>
        <time>2021-11-07T06:40:02Z</time>
      </trkpt>
      <trkpt lat="45.51404" lon="7.21345">
        <ele>2332.3</ele>
        <time>2021-11-07T06:40:07Z</time>
      </trkpt>
      <trkpt lat="45.51404" lon="7.21344">
        <ele>2332.3</ele>
        <time>2021-11-07T06:40:08Z</time>
      </trkpt>
      <trkpt lat="45.51401" lon="7.21345">
        <ele>2332.3</ele>
        <time>2021-11-07T06:40:11Z</time>
      </trkpt>
      <trkpt lat="45.514" lon="7.21347">
        <ele>2333.8</ele>
        <time>2021-11-07T06:40:13Z</time>
      </trkpt>
      <trkpt lat="45.51399" lon="7.21348">
        <ele>2333.8</ele>
        <time>2021-11-07T06:40:14Z</time>
      </trkpt>
      <trkpt lat="45.51399" lon="7.21348">
        <ele>2333.9</ele>
        <time>2021-11-07T06:40:15Z</time>
      </trkpt>
      <trkpt lat="45.51398" lon="7.2135">
        <ele>2333.8</ele>
        <time>2021-11-07T06:40:18Z</time>
      </trkpt>
      <trkpt lat="45.51396" lon="7.21353">
        <ele>2335.3</ele>
        <time>2021-11-07T06:40:22Z</time>
      </trkpt>
      <trkpt lat="45.51395" lon="7.21358">
        <ele>2336.7</ele>
        <time>2021-11-07T06:40:26Z</time>
      </trkpt>
      <trkpt lat="45.51395" lon="7.21359">
        <ele>2336.7</ele>
        <time>2021-11-07T06:40:28Z</time>
      </trkpt>
      <trkpt lat="45.51397" lon="7.2136">
        <ele>2338.3</ele>
        <time>2021-11-07T06:40:31Z</time>
      </trkpt>
      <trkpt lat="45.51398" lon="7.21361">
        <ele>2338.3</ele>
        <time>2021-11-07T06:40:33Z</time>
      </trkpt>
      <trkpt lat="45.51399" lon="7.21361">
        <ele>2338.4</ele>
        <time>2021-11-07T06:40:34Z</time>
      </trkpt>
      <trkpt lat="45.51403" lon="7.2137">
        <ele>2340.1</ele>
        <time>2021-11-07T06:40:45Z</time>
      </trkpt>
      <trkpt lat="45.51407" lon="7.21377">
        <ele>2341.3</ele>
        <time>2021-11-07T06:40:52Z</time>
      </trkpt>
      <trkpt lat="45.51409" lon="7.2138">
        <ele>2341.8</ele>
        <time>2021-11-07T06:40:56Z</time>
      </trkpt>
      <trkpt lat="45.51409" lon="7.21381">
        <ele>2342</ele>
        <time>2021-11-07T06:40:57Z</time>
      </trkpt>
      <trkpt lat="45.5141" lon="7.21381">
        <ele>2342.2</ele>
        <time>2021-11-07T06:40:58Z</time>
      </trkpt>
      <trkpt lat="45.51411" lon="7.21383">
        <ele>2342.6</ele>
        <time>2021-11-07T06:41:01Z</time>
      </trkpt>
      <trkpt lat="45.51413" lon="7.21386">
        <ele>2343.1</ele>
        <time>2021-11-07T06:41:08Z</time>
      </trkpt>
      <trkpt lat="45.51414" lon="7.21387">
        <ele>2343.3</ele>
        <time>2021-11-07T06:41:09Z</time>
      </trkpt>
      <trkpt lat="45.51415" lon="7.2139">
        <ele>2343.8</ele>
        <time>2021-11-07T06:41:12Z</time>
      </trkpt>
      <trkpt lat="45.51416" lon="7.21394">
        <ele>2344.4</ele>
        <time>2021-11-07T06:41:16Z</time>
      </trkpt>
      <trkpt lat="45.51416" lon="7.21396">
        <ele>2344.7</ele>
        <time>2021-11-07T06:41:18Z</time>
      </trkpt>
      <trkpt lat="45.51416" lon="7.21397">
        <ele>2344.8</ele>
        <time>2021-11-07T06:41:19Z</time>
      </trkpt>
      <trkpt lat="45.51417" lon="7.214">
        <ele>2345.2</ele>
        <time>2021-11-07T06:41:21Z</time>
      </trkpt>
      <trkpt lat="45.51421" lon="7.21412">
        <ele>2346.8</ele>
        <time>2021-11-07T06:41:31Z</time>
      </trkpt>
      <trkpt lat="45.51423" lon="7.21426">
        <ele>2348.7</ele>
        <time>2021-11-07T06:41:44Z</time>
      </trkpt>
      <trkpt lat="45.51423" lon="7.21428">
        <ele>2349</ele>
        <time>2021-11-07T06:41:46Z</time>
      </trkpt>
      <trkpt lat="45.51423" lon="7.21431">
        <ele>2349.4</ele>
        <time>2021-11-07T06:41:49Z</time>
      </trkpt>
      <trkpt lat="45.51423" lon="7.21432">
        <ele>2349.6</ele>
        <time>2021-11-07T06:41:50Z</time>
      </trkpt>
      <trkpt lat="45.51425" lon="7.21437">
        <ele>2350.3</ele>
        <time>2021-11-07T06:41:55Z</time>
      </trkpt>
      <trkpt lat="45.51425" lon="7.21438">
        <ele>2350.5</ele>
        <time>2021-11-07T06:41:56Z</time>
      </trkpt>
      <trkpt lat="45.51425" lon="7.21439">
        <ele>2350.6</ele>
        <time>2021-11-07T06:41:57Z</time>
      </trkpt>
      <trkpt lat="45.51425" lon="7.2144">
        <ele>2350.8</ele>
        <time>2021-11-07T06:41:58Z</time>
      </trkpt>
      <trkpt lat="45.51426" lon="7.21444">
        <ele>2351.3</ele>
        <time>2021-11-07T06:42:01Z</time>
      </trkpt>
      <trkpt lat="45.51428" lon="7.21451">
        <ele>2352.4</ele>
        <time>2021-11-07T06:42:08Z</time>
      </trkpt>
      <trkpt lat="45.51428" lon="7.21452">
        <ele>2352.5</ele>
        <time>2021-11-07T06:42:09Z</time>
      </trkpt>
      <trkpt lat="45.51428" lon="7.21453">
        <ele>2352.6</ele>
        <time>2021-11-07T06:42:10Z</time>
      </trkpt>
      <trkpt lat="45.51428" lon="7.21459">
        <ele>2353.3</ele>
        <time>2021-11-07T06:42:15Z</time>
      </trkpt>
      <trkpt lat="45.51429" lon="7.21466">
        <ele>2354.3</ele>
        <time>2021-11-07T06:42:21Z</time>
      </trkpt>
      <trkpt lat="45.5143" lon="7.21469">
        <ele>2354.7</ele>
        <time>2021-11-07T06:42:24Z</time>
      </trkpt>
      <trkpt lat="45.51428" lon="7.21472">
        <ele>2355.2</ele>
        <time>2021-11-07T06:42:27Z</time>
      </trkpt>
      <trkpt lat="45.51426" lon="7.21472">
        <ele>2355.6</ele>
        <time>2021-11-07T06:42:30Z</time>
      </trkpt>
      <trkpt lat="45.51424" lon="7.21471">
        <ele>2356</ele>
        <time>2021-11-07T06:42:32Z</time>
      </trkpt>
      <trkpt lat="45.51421" lon="7.21467">
        <ele>2356.8</ele>
        <time>2021-11-07T06:42:37Z</time>
      </trkpt>
      <trkpt lat="45.5142" lon="7.21464">
        <ele>2357.1</ele>
        <time>2021-11-07T06:42:40Z</time>
      </trkpt>
      <trkpt lat="45.51419" lon="7.21463">
        <ele>2357.4</ele>
        <time>2021-11-07T06:42:42Z</time>
      </trkpt>
      <trkpt lat="45.51419" lon="7.21463">
        <ele>2357.5</ele>
        <time>2021-11-07T06:42:43Z</time>
      </trkpt>
      <trkpt lat="45.51418" lon="7.21462">
        <ele>2357.7</ele>
        <time>2021-11-07T06:42:45Z</time>
      </trkpt>
      <trkpt lat="45.51416" lon="7.21464">
        <ele>2358</ele>
        <time>2021-11-07T06:42:47Z</time>
      </trkpt>
      <trkpt lat="45.51415" lon="7.21466">
        <ele>2358.4</ele>
        <time>2021-11-07T06:42:50Z</time>
      </trkpt>
      <trkpt lat="45.51415" lon="7.21468">
        <ele>2358.6</ele>
        <time>2021-11-07T06:42:51Z</time>
      </trkpt>
      <trkpt lat="45.51415" lon="7.2147">
        <ele>2358.9</ele>
        <time>2021-11-07T06:42:53Z</time>
      </trkpt>
      <trkpt lat="45.51414" lon="7.21474">
        <ele>2359.4</ele>
        <time>2021-11-07T06:42:57Z</time>
      </trkpt>
      <trkpt lat="45.51413" lon="7.21479">
        <ele>2360</ele>
        <time>2021-11-07T06:43:01Z</time>
      </trkpt>
      <trkpt lat="45.51412" lon="7.21479">
        <ele>2360.1</ele>
        <time>2021-11-07T06:43:02Z</time>
      </trkpt>
      <trkpt lat="45.51412" lon="7.2148">
        <ele>2360.2</ele>
        <time>2021-11-07T06:43:03Z</time>
      </trkpt>
      <trkpt lat="45.5141" lon="7.21481">
        <ele>2360.6</ele>
        <time>2021-11-07T06:43:05Z</time>
      </trkpt>
      <trkpt lat="45.51409" lon="7.2148">
        <ele>2360.9</ele>
        <time>2021-11-07T06:43:07Z</time>
      </trkpt>
      <trkpt lat="45.51406" lon="7.2148">
        <ele>2361.4</ele>
        <time>2021-11-07T06:43:10Z</time>
      </trkpt>
      <trkpt lat="45.51405" lon="7.2148">
        <ele>2361.6</ele>
        <time>2021-11-07T06:43:11Z</time>
      </trkpt>
      <trkpt lat="45.51401" lon="7.21479">
        <ele>2362.2</ele>
        <time>2021-11-07T06:43:16Z</time>
      </trkpt>
      <trkpt lat="45.51402" lon="7.21483">
        <ele>2362.8</ele>
        <time>2021-11-07T06:43:21Z</time>
      </trkpt>
      <trkpt lat="45.51405" lon="7.21486">
        <ele>2363.5</ele>
        <time>2021-11-07T06:43:26Z</time>
      </trkpt>
      <trkpt lat="45.51406" lon="7.21487">
        <ele>2363.8</ele>
        <time>2021-11-07T06:43:28Z</time>
      </trkpt>
      <trkpt lat="45.51406" lon="7.21488">
        <ele>2363.9</ele>
        <time>2021-11-07T06:43:29Z</time>
      </trkpt>
      <trkpt lat="45.51408" lon="7.21491">
        <ele>2364.5</ele>
        <time>2021-11-07T06:43:33Z</time>
      </trkpt>
      <trkpt lat="45.51408" lon="7.21493">
        <ele>2364.7</ele>
        <time>2021-11-07T06:43:35Z</time>
      </trkpt>
      <trkpt lat="45.51408" lon="7.21494">
        <ele>2364.9</ele>
        <time>2021-11-07T06:43:36Z</time>
      </trkpt>
      <trkpt lat="45.51408" lon="7.21495">
        <ele>2365.1</ele>
        <time>2021-11-07T06:43:37Z</time>
      </trkpt>
      <trkpt lat="45.51408" lon="7.21497">
        <ele>2365.4</ele>
        <time>2021-11-07T06:43:39Z</time>
      </trkpt>
      <trkpt lat="45.51409" lon="7.21499">
        <ele>2365.7</ele>
        <time>2021-11-07T06:43:41Z</time>
      </trkpt>
      <trkpt lat="45.51411" lon="7.21504">
        <ele>2366.4</ele>
        <time>2021-11-07T06:43:45Z</time>
      </trkpt>
      <trkpt lat="45.51412" lon="7.21508">
        <ele>2367.1</ele>
        <time>2021-11-07T06:43:49Z</time>
      </trkpt>
      <trkpt lat="45.51415" lon="7.21511">
        <ele>2367.7</ele>
        <time>2021-11-07T06:43:52Z</time>
      </trkpt>
      <trkpt lat="45.51416" lon="7.21513">
        <ele>2368</ele>
        <time>2021-11-07T06:43:54Z</time>
      </trkpt>
      <trkpt lat="45.51418" lon="7.21515">
        <ele>2368.4</ele>
        <time>2021-11-07T06:43:56Z</time>
      </trkpt>
      <trkpt lat="45.5142" lon="7.21518">
        <ele>2368.9</ele>
        <time>2021-11-07T06:43:59Z</time>
      </trkpt>
      <trkpt lat="45.51421" lon="7.21519">
        <ele>2369.2</ele>
        <time>2021-11-07T06:44:01Z</time>
      </trkpt>
      <trkpt lat="45.51425" lon="7.21527">
        <ele>2370.5</ele>
        <time>2021-11-07T06:44:09Z</time>
      </trkpt>
      <trkpt lat="45.51424" lon="7.21531">
        <ele>2371.3</ele>
        <time>2021-11-07T06:44:12Z</time>
      </trkpt>
      <trkpt lat="45.51424" lon="7.21532">
        <ele>2371.4</ele>
        <time>2021-11-07T06:44:13Z</time>
      </trkpt>
      <trkpt lat="45.51421" lon="7.21535">
        <ele>2372</ele>
        <time>2021-11-07T06:44:18Z</time>
      </trkpt>
      <trkpt lat="45.51421" lon="7.21536">
        <ele>2372.1</ele>
        <time>2021-11-07T06:44:19Z</time>
      </trkpt>
      <trkpt lat="45.5142" lon="7.21536">
        <ele>2372.2</ele>
        <time>2021-11-07T06:44:20Z</time>
      </trkpt>
      <trkpt lat="45.51418" lon="7.21539">
        <ele>2372.6</ele>
        <time>2021-11-07T06:44:22Z</time>
      </trkpt>
      <trkpt lat="45.51416" lon="7.21541">
        <ele>2372.9</ele>
        <time>2021-11-07T06:44:24Z</time>
      </trkpt>
      <trkpt lat="45.51415" lon="7.21544">
        <ele>2373.3</ele>
        <time>2021-11-07T06:44:27Z</time>
      </trkpt>
      <trkpt lat="45.51414" lon="7.21545">
        <ele>2373.4</ele>
        <time>2021-11-07T06:44:28Z</time>
      </trkpt>
      <trkpt lat="45.51413" lon="7.21547">
        <ele>2373.7</ele>
        <time>2021-11-07T06:44:31Z</time>
      </trkpt>
      <trkpt lat="45.51411" lon="7.21551">
        <ele>2374.2</ele>
        <time>2021-11-07T06:44:37Z</time>
      </trkpt>
      <trkpt lat="45.51409" lon="7.21552">
        <ele>2374.4</ele>
        <time>2021-11-07T06:44:39Z</time>
      </trkpt>
      <trkpt lat="45.51408" lon="7.21553">
        <ele>2374.7</ele>
        <time>2021-11-07T06:44:41Z</time>
      </trkpt>
      <trkpt lat="45.51407" lon="7.21555">
        <ele>2375.1</ele>
        <time>2021-11-07T06:44:43Z</time>
      </trkpt>
      <trkpt lat="45.51405" lon="7.21558">
        <ele>2375.6</ele>
        <time>2021-11-07T06:44:46Z</time>
      </trkpt>
      <trkpt lat="45.51403" lon="7.21564">
        <ele>2376.4</ele>
        <time>2021-11-07T06:44:52Z</time>
      </trkpt>
      <trkpt lat="45.51402" lon="7.21569">
        <ele>2377</ele>
        <time>2021-11-07T06:44:56Z</time>
      </trkpt>
      <trkpt lat="45.51402" lon="7.21573">
        <ele>2377.6</ele>
        <time>2021-11-07T06:45:00Z</time>
      </trkpt>
      <trkpt lat="45.514" lon="7.2158">
        <ele>2378.6</ele>
        <time>2021-11-07T06:45:07Z</time>
      </trkpt>
      <trkpt lat="45.514" lon="7.21581">
        <ele>2378.7</ele>
        <time>2021-11-07T06:45:08Z</time>
      </trkpt>
      <trkpt lat="45.51399" lon="7.21583">
        <ele>2379</ele>
        <time>2021-11-07T06:45:10Z</time>
      </trkpt>
      <trkpt lat="45.51398" lon="7.21584">
        <ele>2379.1</ele>
        <time>2021-11-07T06:45:11Z</time>
      </trkpt>
      <trkpt lat="45.51398" lon="7.21585">
        <ele>2379.3</ele>
        <time>2021-11-07T06:45:12Z</time>
      </trkpt>
      <trkpt lat="45.51396" lon="7.21589">
        <ele>2379.8</ele>
        <time>2021-11-07T06:45:15Z</time>
      </trkpt>
      <trkpt lat="45.51396" lon="7.21592">
        <ele>2380.2</ele>
        <time>2021-11-07T06:45:17Z</time>
      </trkpt>
      <trkpt lat="45.51394" lon="7.21595">
        <ele>2380.6</ele>
        <time>2021-11-07T06:45:20Z</time>
      </trkpt>
      <trkpt lat="45.51393" lon="7.21596">
        <ele>2380.8</ele>
        <time>2021-11-07T06:45:21Z</time>
      </trkpt>
      <trkpt lat="45.51391" lon="7.21602">
        <ele>2381.8</ele>
        <time>2021-11-07T06:45:27Z</time>
      </trkpt>
      <trkpt lat="45.51388" lon="7.21606">
        <ele>2382.6</ele>
        <time>2021-11-07T06:45:33Z</time>
      </trkpt>
      <trkpt lat="45.51387" lon="7.21608">
        <ele>2382.9</ele>
        <time>2021-11-07T06:45:35Z</time>
      </trkpt>
      <trkpt lat="45.51386" lon="7.21608">
        <ele>2383.1</ele>
        <time>2021-11-07T06:45:37Z</time>
      </trkpt>
      <trkpt lat="45.51384" lon="7.21609">
        <ele>2383.4</ele>
        <time>2021-11-07T06:45:40Z</time>
      </trkpt>
      <trkpt lat="45.51383" lon="7.21609">
        <ele>2383.8</ele>
        <time>2021-11-07T06:45:42Z</time>
      </trkpt>
      <trkpt lat="45.5138" lon="7.21611">
        <ele>2384.3</ele>
        <time>2021-11-07T06:45:45Z</time>
      </trkpt>
      <trkpt lat="45.5138" lon="7.21611">
        <ele>2384.5</ele>
        <time>2021-11-07T06:45:46Z</time>
      </trkpt>
      <trkpt lat="45.51377" lon="7.21613">
        <ele>2385.2</ele>
        <time>2021-11-07T06:45:50Z</time>
      </trkpt>
      <trkpt lat="45.51374" lon="7.21615">
        <ele>2385.8</ele>
        <time>2021-11-07T06:45:54Z</time>
      </trkpt>
      <trkpt lat="45.51373" lon="7.21615">
        <ele>2386.2</ele>
        <time>2021-11-07T06:45:56Z</time>
      </trkpt>
      <trkpt lat="45.51372" lon="7.21615">
        <ele>2386.3</ele>
        <time>2021-11-07T06:45:57Z</time>
      </trkpt>
      <trkpt lat="45.51371" lon="7.21616">
        <ele>2386.5</ele>
        <time>2021-11-07T06:45:58Z</time>
      </trkpt>
      <trkpt lat="45.5137" lon="7.21616">
        <ele>2386.9</ele>
        <time>2021-11-07T06:46:00Z</time>
      </trkpt>
      <trkpt lat="45.51368" lon="7.21617">
        <ele>2387.4</ele>
        <time>2021-11-07T06:46:04Z</time>
      </trkpt>
      <trkpt lat="45.51365" lon="7.2162">
        <ele>2388.2</ele>
        <time>2021-11-07T06:46:09Z</time>
      </trkpt>
      <trkpt lat="45.51363" lon="7.21623">
        <ele>2388.8</ele>
        <time>2021-11-07T06:46:13Z</time>
      </trkpt>
      <trkpt lat="45.51362" lon="7.21624">
        <ele>2389.1</ele>
        <time>2021-11-07T06:46:15Z</time>
      </trkpt>
      <trkpt lat="45.51359" lon="7.21625">
        <ele>2389.9</ele>
        <time>2021-11-07T06:46:20Z</time>
      </trkpt>
      <trkpt lat="45.51356" lon="7.21627">
        <ele>2390.6</ele>
        <time>2021-11-07T06:46:24Z</time>
      </trkpt>
      <trkpt lat="45.51356" lon="7.21628">
        <ele>2390.7</ele>
        <time>2021-11-07T06:46:25Z</time>
      </trkpt>
      <trkpt lat="45.51356" lon="7.21628">
        <ele>2390.9</ele>
        <time>2021-11-07T06:46:26Z</time>
      </trkpt>
      <trkpt lat="45.51354" lon="7.21629">
        <ele>2391.2</ele>
        <time>2021-11-07T06:46:28Z</time>
      </trkpt>
      <trkpt lat="45.51354" lon="7.21629">
        <ele>2391.4</ele>
        <time>2021-11-07T06:46:29Z</time>
      </trkpt>
      <trkpt lat="45.51352" lon="7.21632">
        <ele>2392</ele>
        <time>2021-11-07T06:46:33Z</time>
      </trkpt>
      <trkpt lat="45.51348" lon="7.21635">
        <ele>2393</ele>
        <time>2021-11-07T06:46:39Z</time>
      </trkpt>
      <trkpt lat="45.51348" lon="7.21636">
        <ele>2393.2</ele>
        <time>2021-11-07T06:46:41Z</time>
      </trkpt>
      <trkpt lat="45.51346" lon="7.2164">
        <ele>2394</ele>
        <time>2021-11-07T06:46:47Z</time>
      </trkpt>
      <trkpt lat="45.51345" lon="7.21644">
        <ele>2394.6</ele>
        <time>2021-11-07T06:46:51Z</time>
      </trkpt>
      <trkpt lat="45.51345" lon="7.21644">
        <ele>2394.7</ele>
        <time>2021-11-07T06:46:52Z</time>
      </trkpt>
      <trkpt lat="45.51344" lon="7.21648">
        <ele>2395.4</ele>
        <time>2021-11-07T06:46:56Z</time>
      </trkpt>
      <trkpt lat="45.51344" lon="7.21649">
        <ele>2395.5</ele>
        <time>2021-11-07T06:46:57Z</time>
      </trkpt>
      <trkpt lat="45.51346" lon="7.2165">
        <ele>2396</ele>
        <time>2021-11-07T06:47:00Z</time>
      </trkpt>
      <trkpt lat="45.51346" lon="7.2165">
        <ele>2396.1</ele>
        <time>2021-11-07T06:47:01Z</time>
      </trkpt>
      <trkpt lat="45.51345" lon="7.21651">
        <ele>2396.3</ele>
        <time>2021-11-07T06:47:05Z</time>
      </trkpt>
      <trkpt lat="45.51345" lon="7.21658">
        <ele>2397.4</ele>
        <time>2021-11-07T06:47:14Z</time>
      </trkpt>
      <trkpt lat="45.51345" lon="7.21659">
        <ele>2397.5</ele>
        <time>2021-11-07T06:47:15Z</time>
      </trkpt>
      <trkpt lat="45.51346" lon="7.21659">
        <ele>2397.6</ele>
        <time>2021-11-07T06:47:17Z</time>
      </trkpt>
      <trkpt lat="45.51346" lon="7.2166">
        <ele>2397.8</ele>
        <time>2021-11-07T06:47:19Z</time>
      </trkpt>
      <trkpt lat="45.51347" lon="7.21662">
        <ele>2398</ele>
        <time>2021-11-07T06:47:21Z</time>
      </trkpt>
      <trkpt lat="45.51347" lon="7.21664">
        <ele>2398.4</ele>
        <time>2021-11-07T06:47:24Z</time>
      </trkpt>
      <trkpt lat="45.51347" lon="7.21667">
        <ele>2398.9</ele>
        <time>2021-11-07T06:47:27Z</time>
      </trkpt>
      <trkpt lat="45.51348" lon="7.21667">
        <ele>2399.1</ele>
        <time>2021-11-07T06:47:30Z</time>
      </trkpt>
      <trkpt lat="45.5135" lon="7.21665">
        <ele>2399.6</ele>
        <time>2021-11-07T06:47:33Z</time>
      </trkpt>
      <trkpt lat="45.51351" lon="7.21664">
        <ele>2399.9</ele>
        <time>2021-11-07T06:47:34Z</time>
      </trkpt>
      <trkpt lat="45.51352" lon="7.21662">
        <ele>2400.3</ele>
        <time>2021-11-07T06:47:36Z</time>
      </trkpt>
      <trkpt lat="45.51357" lon="7.21659">
        <ele>2401.4</ele>
        <time>2021-11-07T06:47:42Z</time>
      </trkpt>
      <trkpt lat="45.5136" lon="7.21656">
        <ele>2402.3</ele>
        <time>2021-11-07T06:47:47Z</time>
      </trkpt>
      <trkpt lat="45.51362" lon="7.21656">
        <ele>2402.6</ele>
        <time>2021-11-07T06:47:49Z</time>
      </trkpt>
      <trkpt lat="45.51364" lon="7.21655">
        <ele>2403.1</ele>
        <time>2021-11-07T06:47:52Z</time>
      </trkpt>
      <trkpt lat="45.51365" lon="7.21654">
        <ele>2403.3</ele>
        <time>2021-11-07T06:47:53Z</time>
      </trkpt>
      <trkpt lat="45.51366" lon="7.21654">
        <ele>2403.4</ele>
        <time>2021-11-07T06:47:54Z</time>
      </trkpt>
      <trkpt lat="45.51368" lon="7.21654">
        <ele>2403.8</ele>
        <time>2021-11-07T06:47:56Z</time>
      </trkpt>
      <trkpt lat="45.51369" lon="7.21654">
        <ele>2403.9</ele>
        <time>2021-11-07T06:47:57Z</time>
      </trkpt>
      <trkpt lat="45.5137" lon="7.21654">
        <ele>2404.1</ele>
        <time>2021-11-07T06:47:58Z</time>
      </trkpt>
      <trkpt lat="45.51371" lon="7.21654">
        <ele>2404.3</ele>
        <time>2021-11-07T06:47:59Z</time>
      </trkpt>
      <trkpt lat="45.51372" lon="7.21654">
        <ele>2404.6</ele>
        <time>2021-11-07T06:48:01Z</time>
      </trkpt>
      <trkpt lat="45.51378" lon="7.21651">
        <ele>2405.4</ele>
        <time>2021-11-07T06:48:07Z</time>
      </trkpt>
      <trkpt lat="45.5138" lon="7.2165">
        <ele>2405.7</ele>
        <time>2021-11-07T06:48:09Z</time>
      </trkpt>
      <trkpt lat="45.51381" lon="7.2165">
        <ele>2405.9</ele>
        <time>2021-11-07T06:48:10Z</time>
      </trkpt>
      <trkpt lat="45.51383" lon="7.2165">
        <ele>2406.1</ele>
        <time>2021-11-07T06:48:12Z</time>
      </trkpt>
      <trkpt lat="45.51386" lon="7.21649">
        <ele>2406.6</ele>
        <time>2021-11-07T06:48:15Z</time>
      </trkpt>
      <trkpt lat="45.51395" lon="7.21649">
        <ele>2407.9</ele>
        <time>2021-11-07T06:48:24Z</time>
      </trkpt>
      <trkpt lat="45.51395" lon="7.21649">
        <ele>2408</ele>
        <time>2021-11-07T06:48:25Z</time>
      </trkpt>
      <trkpt lat="45.51396" lon="7.21648">
        <ele>2408.1</ele>
        <time>2021-11-07T06:48:26Z</time>
      </trkpt>
      <trkpt lat="45.51398" lon="7.21653">
        <ele>2408.8</ele>
        <time>2021-11-07T06:48:33Z</time>
      </trkpt>
      <trkpt lat="45.51398" lon="7.21653">
        <ele>2408.9</ele>
        <time>2021-11-07T06:48:34Z</time>
      </trkpt>
      <trkpt lat="45.51397" lon="7.21656">
        <ele>2409.3</ele>
        <time>2021-11-07T06:48:37Z</time>
      </trkpt>
      <trkpt lat="45.51396" lon="7.21656">
        <ele>2409.5</ele>
        <time>2021-11-07T06:48:38Z</time>
      </trkpt>
      <trkpt lat="45.51396" lon="7.21657">
        <ele>2409.6</ele>
        <time>2021-11-07T06:48:39Z</time>
      </trkpt>
      <trkpt lat="45.51394" lon="7.21658">
        <ele>2410.1</ele>
        <time>2021-11-07T06:48:42Z</time>
      </trkpt>
      <trkpt lat="45.51393" lon="7.2166">
        <ele>2410.4</ele>
        <time>2021-11-07T06:48:44Z</time>
      </trkpt>
      <trkpt lat="45.51393" lon="7.21661">
        <ele>2410.5</ele>
        <time>2021-11-07T06:48:45Z</time>
      </trkpt>
      <trkpt lat="45.51392" lon="7.21661">
        <ele>2410.7</ele>
        <time>2021-11-07T06:48:46Z</time>
      </trkpt>
      <trkpt lat="45.51391" lon="7.21663">
        <ele>2411.1</ele>
        <time>2021-11-07T06:48:48Z</time>
      </trkpt>
      <trkpt lat="45.51389" lon="7.21664">
        <ele>2411.5</ele>
        <time>2021-11-07T06:48:51Z</time>
      </trkpt>
      <trkpt lat="45.51388" lon="7.21665">
        <ele>2412</ele>
        <time>2021-11-07T06:48:54Z</time>
      </trkpt>
      <trkpt lat="45.51387" lon="7.21666">
        <ele>2412.3</ele>
        <time>2021-11-07T06:48:56Z</time>
      </trkpt>
      <trkpt lat="45.51386" lon="7.21666">
        <ele>2412.5</ele>
        <time>2021-11-07T06:48:57Z</time>
      </trkpt>
      <trkpt lat="45.51386" lon="7.21668">
        <ele>2412.7</ele>
        <time>2021-11-07T06:48:58Z</time>
      </trkpt>
      <trkpt lat="45.51384" lon="7.21669">
        <ele>2413.1</ele>
        <time>2021-11-07T06:49:01Z</time>
      </trkpt>
      <trkpt lat="45.51383" lon="7.21672">
        <ele>2413.6</ele>
        <time>2021-11-07T06:49:04Z</time>
      </trkpt>
      <trkpt lat="45.51382" lon="7.21674">
        <ele>2414.1</ele>
        <time>2021-11-07T06:49:07Z</time>
      </trkpt>
      <trkpt lat="45.5138" lon="7.21676">
        <ele>2414.6</ele>
        <time>2021-11-07T06:49:10Z</time>
      </trkpt>
      <trkpt lat="45.51379" lon="7.21677">
        <ele>2415</ele>
        <time>2021-11-07T06:49:12Z</time>
      </trkpt>
      <trkpt lat="45.51378" lon="7.21678">
        <ele>2415.2</ele>
        <time>2021-11-07T06:49:13Z</time>
      </trkpt>
      <trkpt lat="45.51378" lon="7.21679">
        <ele>2415.3</ele>
        <time>2021-11-07T06:49:14Z</time>
      </trkpt>
      <trkpt lat="45.51377" lon="7.2168">
        <ele>2415.7</ele>
        <time>2021-11-07T06:49:16Z</time>
      </trkpt>
      <trkpt lat="45.51376" lon="7.21683">
        <ele>2416.2</ele>
        <time>2021-11-07T06:49:18Z</time>
      </trkpt>
      <trkpt lat="45.51376" lon="7.21684">
        <ele>2416.4</ele>
        <time>2021-11-07T06:49:19Z</time>
      </trkpt>
      <trkpt lat="45.51375" lon="7.21685">
        <ele>2416.5</ele>
        <time>2021-11-07T06:49:20Z</time>
      </trkpt>
      <trkpt lat="45.51375" lon="7.21687">
        <ele>2416.8</ele>
        <time>2021-11-07T06:49:22Z</time>
      </trkpt>
      <trkpt lat="45.51375" lon="7.21688">
        <ele>2417</ele>
        <time>2021-11-07T06:49:23Z</time>
      </trkpt>
      <trkpt lat="45.51375" lon="7.21691">
        <ele>2417.4</ele>
        <time>2021-11-07T06:49:26Z</time>
      </trkpt>
      <trkpt lat="45.51375" lon="7.21693">
        <ele>2417.7</ele>
        <time>2021-11-07T06:49:28Z</time>
      </trkpt>
      <trkpt lat="45.51375" lon="7.21694">
        <ele>2417.9</ele>
        <time>2021-11-07T06:49:29Z</time>
      </trkpt>
      <trkpt lat="45.51374" lon="7.21696">
        <ele>2418.2</ele>
        <time>2021-11-07T06:49:31Z</time>
      </trkpt>
      <trkpt lat="45.51373" lon="7.21699">
        <ele>2418.8</ele>
        <time>2021-11-07T06:49:35Z</time>
      </trkpt>
      <trkpt lat="45.51373" lon="7.21701">
        <ele>2419.1</ele>
        <time>2021-11-07T06:49:37Z</time>
      </trkpt>
      <trkpt lat="45.51372" lon="7.21704">
        <ele>2419.5</ele>
        <time>2021-11-07T06:49:39Z</time>
      </trkpt>
      <trkpt lat="45.51372" lon="7.21707">
        <ele>2420.1</ele>
        <time>2021-11-07T06:49:42Z</time>
      </trkpt>
      <trkpt lat="45.51372" lon="7.21708">
        <ele>2420.2</ele>
        <time>2021-11-07T06:49:43Z</time>
      </trkpt>
      <trkpt lat="45.51371" lon="7.21712">
        <ele>2420.8</ele>
        <time>2021-11-07T06:49:46Z</time>
      </trkpt>
      <trkpt lat="45.51371" lon="7.21715">
        <ele>2421.1</ele>
        <time>2021-11-07T06:49:48Z</time>
      </trkpt>
      <trkpt lat="45.5137" lon="7.21717">
        <ele>2421.5</ele>
        <time>2021-11-07T06:49:50Z</time>
      </trkpt>
      <trkpt lat="45.5137" lon="7.21719">
        <ele>2421.8</ele>
        <time>2021-11-07T06:49:53Z</time>
      </trkpt>
      <trkpt lat="45.51369" lon="7.21723">
        <ele>2422.4</ele>
        <time>2021-11-07T06:49:57Z</time>
      </trkpt>
      <trkpt lat="45.51367" lon="7.21726">
        <ele>2422.9</ele>
        <time>2021-11-07T06:50:01Z</time>
      </trkpt>
      <trkpt lat="45.51366" lon="7.21729">
        <ele>2423.4</ele>
        <time>2021-11-07T06:50:04Z</time>
      </trkpt>
      <trkpt lat="45.51365" lon="7.2173">
        <ele>2423.7</ele>
        <time>2021-11-07T06:50:06Z</time>
      </trkpt>
      <trkpt lat="45.51365" lon="7.21733">
        <ele>2424</ele>
        <time>2021-11-07T06:50:09Z</time>
      </trkpt>
      <trkpt lat="45.51364" lon="7.21734">
        <ele>2424.2</ele>
        <time>2021-11-07T06:50:10Z</time>
      </trkpt>
      <trkpt lat="45.51364" lon="7.21736">
        <ele>2424.5</ele>
        <time>2021-11-07T06:50:13Z</time>
      </trkpt>
      <trkpt lat="45.51362" lon="7.2174">
        <ele>2425.2</ele>
        <time>2021-11-07T06:50:17Z</time>
      </trkpt>
      <trkpt lat="45.5136" lon="7.21743">
        <ele>2425.8</ele>
        <time>2021-11-07T06:50:21Z</time>
      </trkpt>
      <trkpt lat="45.51359" lon="7.21744">
        <ele>2426</ele>
        <time>2021-11-07T06:50:22Z</time>
      </trkpt>
      <trkpt lat="45.51358" lon="7.21747">
        <ele>2426.5</ele>
        <time>2021-11-07T06:50:25Z</time>
      </trkpt>
      <trkpt lat="45.51354" lon="7.2175">
        <ele>2427.5</ele>
        <time>2021-11-07T06:50:32Z</time>
      </trkpt>
      <trkpt lat="45.51353" lon="7.21751">
        <ele>2427.7</ele>
        <time>2021-11-07T06:50:34Z</time>
      </trkpt>
      <trkpt lat="45.51353" lon="7.21752">
        <ele>2428</ele>
        <time>2021-11-07T06:50:35Z</time>
      </trkpt>
      <trkpt lat="45.51353" lon="7.21753">
        <ele>2428.1</ele>
        <time>2021-11-07T06:50:36Z</time>
      </trkpt>
      <trkpt lat="45.51352" lon="7.21753">
        <ele>2428.2</ele>
        <time>2021-11-07T06:50:37Z</time>
      </trkpt>
      <trkpt lat="45.51351" lon="7.21757">
        <ele>2428.9</ele>
        <time>2021-11-07T06:50:41Z</time>
      </trkpt>
      <trkpt lat="45.51351" lon="7.21758">
        <ele>2429</ele>
        <time>2021-11-07T06:50:42Z</time>
      </trkpt>
      <trkpt lat="45.51351" lon="7.21759">
        <ele>2429.2</ele>
        <time>2021-11-07T06:50:44Z</time>
      </trkpt>
      <trkpt lat="45.5135" lon="7.21761">
        <ele>2429.6</ele>
        <time>2021-11-07T06:50:47Z</time>
      </trkpt>
      <trkpt lat="45.51349" lon="7.21762">
        <ele>2429.8</ele>
        <time>2021-11-07T06:50:48Z</time>
      </trkpt>
      <trkpt lat="45.51349" lon="7.21762">
        <ele>2429.9</ele>
        <time>2021-11-07T06:50:49Z</time>
      </trkpt>
      <trkpt lat="45.51348" lon="7.21763">
        <ele>2430.2</ele>
        <time>2021-11-07T06:50:50Z</time>
      </trkpt>
      <trkpt lat="45.51348" lon="7.21764">
        <ele>2430.4</ele>
        <time>2021-11-07T06:50:51Z</time>
      </trkpt>
      <trkpt lat="45.51347" lon="7.21765">
        <ele>2430.6</ele>
        <time>2021-11-07T06:50:52Z</time>
      </trkpt>
      <trkpt lat="45.51346" lon="7.21767">
        <ele>2431</ele>
        <time>2021-11-07T06:50:54Z</time>
      </trkpt>
      <trkpt lat="45.51345" lon="7.21768">
        <ele>2431.2</ele>
        <time>2021-11-07T06:50:55Z</time>
      </trkpt>
      <trkpt lat="45.51345" lon="7.21769">
        <ele>2431.4</ele>
        <time>2021-11-07T06:50:56Z</time>
      </trkpt>
      <trkpt lat="45.51344" lon="7.21771">
        <ele>2431.8</ele>
        <time>2021-11-07T06:50:58Z</time>
      </trkpt>
      <trkpt lat="45.51343" lon="7.21773">
        <ele>2432.2</ele>
        <time>2021-11-07T06:51:01Z</time>
      </trkpt>
      <trkpt lat="45.51343" lon="7.21777">
        <ele>2432.9</ele>
        <time>2021-11-07T06:51:05Z</time>
      </trkpt>
      <trkpt lat="45.51344" lon="7.21779">
        <ele>2433.3</ele>
        <time>2021-11-07T06:51:07Z</time>
      </trkpt>
      <trkpt lat="45.51341" lon="7.21784">
        <ele>2434.3</ele>
        <time>2021-11-07T06:51:12Z</time>
      </trkpt>
      <trkpt lat="45.5134" lon="7.21787">
        <ele>2435.8</ele>
        <time>2021-11-07T06:51:16Z</time>
      </trkpt>
      <trkpt lat="45.5134" lon="7.21787">
        <ele>2435.9</ele>
        <time>2021-11-07T06:51:17Z</time>
      </trkpt>
      <trkpt lat="45.51339" lon="7.21789">
        <ele>2437.5</ele>
        <time>2021-11-07T06:51:20Z</time>
      </trkpt>
      <trkpt lat="45.51339" lon="7.21791">
        <ele>2437.7</ele>
        <time>2021-11-07T06:51:22Z</time>
      </trkpt>
      <trkpt lat="45.51339" lon="7.21795">
        <ele>2439.3</ele>
        <time>2021-11-07T06:51:28Z</time>
      </trkpt>
      <trkpt lat="45.51339" lon="7.218">
        <ele>2440.9</ele>
        <time>2021-11-07T06:51:33Z</time>
      </trkpt>
      <trkpt lat="45.51338" lon="7.21805">
        <ele>2442.2</ele>
        <time>2021-11-07T06:51:39Z</time>
      </trkpt>
      <trkpt lat="45.51338" lon="7.21806">
        <ele>2442.4</ele>
        <time>2021-11-07T06:51:40Z</time>
      </trkpt>
      <trkpt lat="45.51337" lon="7.21807">
        <ele>2443.9</ele>
        <time>2021-11-07T06:51:42Z</time>
      </trkpt>
      <trkpt lat="45.51337" lon="7.21808">
        <ele>2444.1</ele>
        <time>2021-11-07T06:51:43Z</time>
      </trkpt>
      <trkpt lat="45.51334" lon="7.21812">
        <ele>2444.4</ele>
        <time>2021-11-07T06:51:49Z</time>
      </trkpt>
      <trkpt lat="45.51334" lon="7.21813">
        <ele>2444.5</ele>
        <time>2021-11-07T06:51:50Z</time>
      </trkpt>
      <trkpt lat="45.51333" lon="7.21814">
        <ele>2444.6</ele>
        <time>2021-11-07T06:51:51Z</time>
      </trkpt>
      <trkpt lat="45.51333" lon="7.21815">
        <ele>2444.7</ele>
        <time>2021-11-07T06:51:53Z</time>
      </trkpt>
      <trkpt lat="45.51332" lon="7.21816">
        <ele>2444.8</ele>
        <time>2021-11-07T06:51:55Z</time>
      </trkpt>
      <trkpt lat="45.51332" lon="7.21816">
        <ele>2444.9</ele>
        <time>2021-11-07T06:51:56Z</time>
      </trkpt>
      <trkpt lat="45.51332" lon="7.21815">
        <ele>2444.9</ele>
        <time>2021-11-07T06:52:00Z</time>
      </trkpt>
      <trkpt lat="45.51333" lon="7.2182">
        <ele>2445.3</ele>
        <time>2021-11-07T06:52:06Z</time>
      </trkpt>
      <trkpt lat="45.51334" lon="7.21818">
        <ele>2445.5</ele>
        <time>2021-11-07T06:52:08Z</time>
      </trkpt>
      <trkpt lat="45.51336" lon="7.21815">
        <ele>2445.8</ele>
        <time>2021-11-07T06:52:11Z</time>
      </trkpt>
      <trkpt lat="45.51337" lon="7.21812">
        <ele>2446.1</ele>
        <time>2021-11-07T06:52:14Z</time>
      </trkpt>
      <trkpt lat="45.51339" lon="7.2181">
        <ele>2446.3</ele>
        <time>2021-11-07T06:52:16Z</time>
      </trkpt>
      <trkpt lat="45.51339" lon="7.21809">
        <ele>2446.4</ele>
        <time>2021-11-07T06:52:17Z</time>
      </trkpt>
      <trkpt lat="45.5134" lon="7.21806">
        <ele>2446.6</ele>
        <time>2021-11-07T06:52:19Z</time>
      </trkpt>
      <trkpt lat="45.51341" lon="7.21805">
        <ele>2446.7</ele>
        <time>2021-11-07T06:52:21Z</time>
      </trkpt>
      <trkpt lat="45.51341" lon="7.21804">
        <ele>2446.7</ele>
        <time>2021-11-07T06:52:22Z</time>
      </trkpt>
      <trkpt lat="45.51341" lon="7.21803">
        <ele>2446.8</ele>
        <time>2021-11-07T06:52:25Z</time>
      </trkpt>
      <trkpt lat="45.51341" lon="7.21803">
        <ele>2446.8</ele>
        <time>2021-11-07T06:52:26Z</time>
      </trkpt>
      <trkpt lat="45.51344" lon="7.21801">
        <ele>2447</ele>
        <time>2021-11-07T06:52:30Z</time>
      </trkpt>
      <trkpt lat="45.51346" lon="7.218">
        <ele>2447.2</ele>
        <time>2021-11-07T06:52:33Z</time>
      </trkpt>
      <trkpt lat="45.51348" lon="7.21798">
        <ele>2447.3</ele>
        <time>2021-11-07T06:52:37Z</time>
      </trkpt>
      <trkpt lat="45.51348" lon="7.21797">
        <ele>2447.3</ele>
        <time>2021-11-07T06:52:38Z</time>
      </trkpt>
      <trkpt lat="45.5135" lon="7.21796">
        <ele>2447.4</ele>
        <time>2021-11-07T06:52:40Z</time>
      </trkpt>
      <trkpt lat="45.51352" lon="7.21793">
        <ele>2447.6</ele>
        <time>2021-11-07T06:52:43Z</time>
      </trkpt>
      <trkpt lat="45.51355" lon="7.21789">
        <ele>2447.7</ele>
        <time>2021-11-07T06:52:46Z</time>
      </trkpt>
      <trkpt lat="45.51361" lon="7.21782">
        <ele>2448.3</ele>
        <time>2021-11-07T06:52:53Z</time>
      </trkpt>
      <trkpt lat="45.51365" lon="7.21777">
        <ele>2448.7</ele>
        <time>2021-11-07T06:52:57Z</time>
      </trkpt>
      <trkpt lat="45.5137" lon="7.21772">
        <ele>2449.3</ele>
        <time>2021-11-07T06:53:02Z</time>
      </trkpt>
      <trkpt lat="45.51374" lon="7.21768">
        <ele>2449.9</ele>
        <time>2021-11-07T06:53:06Z</time>
      </trkpt>
      <trkpt lat="45.51376" lon="7.21767">
        <ele>2450.1</ele>
        <time>2021-11-07T06:53:08Z</time>
      </trkpt>
      <trkpt lat="45.51377" lon="7.21767">
        <ele>2450.2</ele>
        <time>2021-11-07T06:53:09Z</time>
      </trkpt>
      <trkpt lat="45.51377" lon="7.21767">
        <ele>2450.3</ele>
        <time>2021-11-07T06:53:10Z</time>
      </trkpt>
      <trkpt lat="45.51378" lon="7.21766">
        <ele>2450.5</ele>
        <time>2021-11-07T06:53:11Z</time>
      </trkpt>
      <trkpt lat="45.51379" lon="7.21766">
        <ele>2450.6</ele>
        <time>2021-11-07T06:53:12Z</time>
      </trkpt>
      <trkpt lat="45.51383" lon="7.21766">
        <ele>2451.1</ele>
        <time>2021-11-07T06:53:16Z</time>
      </trkpt>
      <trkpt lat="45.51386" lon="7.21764">
        <ele>2451.5</ele>
        <time>2021-11-07T06:53:20Z</time>
      </trkpt>
      <trkpt lat="45.51388" lon="7.21762">
        <ele>2451.7</ele>
        <time>2021-11-07T06:53:22Z</time>
      </trkpt>
      <trkpt lat="45.51389" lon="7.21761">
        <ele>2452</ele>
        <time>2021-11-07T06:53:24Z</time>
      </trkpt>
      <trkpt lat="45.5139" lon="7.2176">
        <ele>2452.1</ele>
        <time>2021-11-07T06:53:25Z</time>
      </trkpt>
      <trkpt lat="45.51392" lon="7.21759">
        <ele>2452.4</ele>
        <time>2021-11-07T06:53:27Z</time>
      </trkpt>
      <trkpt lat="45.514" lon="7.21753">
        <ele>2453.7</ele>
        <time>2021-11-07T06:53:37Z</time>
      </trkpt>
      <trkpt lat="45.51402" lon="7.21753">
        <ele>2454</ele>
        <time>2021-11-07T06:53:40Z</time>
      </trkpt>
      <trkpt lat="45.51404" lon="7.21756">
        <ele>2454.4</ele>
        <time>2021-11-07T06:53:48Z</time>
      </trkpt>
      <trkpt lat="45.51403" lon="7.21757">
        <ele>2454.7</ele>
        <time>2021-11-07T06:53:50Z</time>
      </trkpt>
      <trkpt lat="45.51402" lon="7.21759">
        <ele>2454.9</ele>
        <time>2021-11-07T06:53:52Z</time>
      </trkpt>
      <trkpt lat="45.51401" lon="7.21759">
        <ele>2455</ele>
        <time>2021-11-07T06:53:53Z</time>
      </trkpt>
      <trkpt lat="45.514" lon="7.2176">
        <ele>2455.1</ele>
        <time>2021-11-07T06:53:54Z</time>
      </trkpt>
      <trkpt lat="45.51399" lon="7.21762">
        <ele>2455.4</ele>
        <time>2021-11-07T06:53:56Z</time>
      </trkpt>
      <trkpt lat="45.51399" lon="7.21764">
        <ele>2455.6</ele>
        <time>2021-11-07T06:53:58Z</time>
      </trkpt>
      <trkpt lat="45.51398" lon="7.21765">
        <ele>2455.7</ele>
        <time>2021-11-07T06:53:59Z</time>
      </trkpt>
      <trkpt lat="45.51397" lon="7.21767">
        <ele>2456</ele>
        <time>2021-11-07T06:54:01Z</time>
      </trkpt>
      <trkpt lat="45.51396" lon="7.21769">
        <ele>2456.3</ele>
        <time>2021-11-07T06:54:03Z</time>
      </trkpt>
      <trkpt lat="45.51394" lon="7.21771">
        <ele>2456.6</ele>
        <time>2021-11-07T06:54:06Z</time>
      </trkpt>
      <trkpt lat="45.51393" lon="7.21772">
        <ele>2456.8</ele>
        <time>2021-11-07T06:54:08Z</time>
      </trkpt>
      <trkpt lat="45.51392" lon="7.21774">
        <ele>2457.1</ele>
        <time>2021-11-07T06:54:10Z</time>
      </trkpt>
      <trkpt lat="45.51391" lon="7.21775">
        <ele>2457.3</ele>
        <time>2021-11-07T06:54:12Z</time>
      </trkpt>
      <trkpt lat="45.5139" lon="7.21776">
        <ele>2457.4</ele>
        <time>2021-11-07T06:54:14Z</time>
      </trkpt>
      <trkpt lat="45.51389" lon="7.21777">
        <ele>2458.1</ele>
        <time>2021-11-07T06:54:15Z</time>
      </trkpt>
      <trkpt lat="45.5139" lon="7.21782">
        <ele>2459.1</ele>
        <time>2021-11-07T06:54:20Z</time>
      </trkpt>
      <trkpt lat="45.5139" lon="7.21787">
        <ele>2460.2</ele>
        <time>2021-11-07T06:54:27Z</time>
      </trkpt>
      <trkpt lat="45.51389" lon="7.2179">
        <ele>2460.9</ele>
        <time>2021-11-07T06:54:33Z</time>
      </trkpt>
      <trkpt lat="45.51388" lon="7.21794">
        <ele>2461.7</ele>
        <time>2021-11-07T06:54:40Z</time>
      </trkpt>
      <trkpt lat="45.51387" lon="7.21794">
        <ele>2461.9</ele>
        <time>2021-11-07T06:54:42Z</time>
      </trkpt>
      <trkpt lat="45.51387" lon="7.21792">
        <ele>2462.2</ele>
        <time>2021-11-07T06:54:48Z</time>
      </trkpt>
      <trkpt lat="45.51387" lon="7.21792">
        <ele>2462.3</ele>
        <time>2021-11-07T06:54:50Z</time>
      </trkpt>
      <trkpt lat="45.51387" lon="7.21792">
        <ele>2462.3</ele>
        <time>2021-11-07T06:54:51Z</time>
      </trkpt>
      <trkpt lat="45.51387" lon="7.21793">
        <ele>2462.4</ele>
        <time>2021-11-07T06:54:57Z</time>
      </trkpt>
      <trkpt lat="45.51387" lon="7.21795">
        <ele>2462.8</ele>
        <time>2021-11-07T06:55:06Z</time>
      </trkpt>
      <trkpt lat="45.51387" lon="7.21795">
        <ele>2462.8</ele>
        <time>2021-11-07T06:55:07Z</time>
      </trkpt>
      <trkpt lat="45.51387" lon="7.21795">
        <ele>2462.9</ele>
        <time>2021-11-07T06:55:12Z</time>
      </trkpt>
      <trkpt lat="45.51387" lon="7.21796">
        <ele>2463.2</ele>
        <time>2021-11-07T06:55:19Z</time>
      </trkpt>
      <trkpt lat="45.51387" lon="7.21797">
        <ele>2463.5</ele>
        <time>2021-11-07T06:55:21Z</time>
      </trkpt>
      <trkpt lat="45.51387" lon="7.21798">
        <ele>2463.7</ele>
        <time>2021-11-07T06:55:22Z</time>
      </trkpt>
      <trkpt lat="45.51386" lon="7.21799">
        <ele>2463.9</ele>
        <time>2021-11-07T06:55:23Z</time>
      </trkpt>
      <trkpt lat="45.51385" lon="7.21799">
        <ele>2464.2</ele>
        <time>2021-11-07T06:55:24Z</time>
      </trkpt>
      <trkpt lat="45.51385" lon="7.21802">
        <ele>2464.7</ele>
        <time>2021-11-07T06:55:27Z</time>
      </trkpt>
      <trkpt lat="45.51384" lon="7.21805">
        <ele>2465.4</ele>
        <time>2021-11-07T06:55:31Z</time>
      </trkpt>
      <trkpt lat="45.51383" lon="7.21806">
        <ele>2465.6</ele>
        <time>2021-11-07T06:55:32Z</time>
      </trkpt>
      <trkpt lat="45.51381" lon="7.21811">
        <ele>2466.8</ele>
        <time>2021-11-07T06:55:37Z</time>
      </trkpt>
      <trkpt lat="45.51381" lon="7.21813">
        <ele>2467.2</ele>
        <time>2021-11-07T06:55:40Z</time>
      </trkpt>
      <trkpt lat="45.5138" lon="7.21815">
        <ele>2467.6</ele>
        <time>2021-11-07T06:55:42Z</time>
      </trkpt>
      <trkpt lat="45.5138" lon="7.21816">
        <ele>2467.8</ele>
        <time>2021-11-07T06:55:43Z</time>
      </trkpt>
      <trkpt lat="45.5138" lon="7.21819">
        <ele>2468.4</ele>
        <time>2021-11-07T06:55:46Z</time>
      </trkpt>
      <trkpt lat="45.51379" lon="7.2182">
        <ele>2468.7</ele>
        <time>2021-11-07T06:55:49Z</time>
      </trkpt>
      <trkpt lat="45.51379" lon="7.21822">
        <ele>2469</ele>
        <time>2021-11-07T06:55:51Z</time>
      </trkpt>
      <trkpt lat="45.51378" lon="7.21823">
        <ele>2469.4</ele>
        <time>2021-11-07T06:55:53Z</time>
      </trkpt>
      <trkpt lat="45.51377" lon="7.21826">
        <ele>2469.9</ele>
        <time>2021-11-07T06:55:57Z</time>
      </trkpt>
      <trkpt lat="45.51376" lon="7.21831">
        <ele>2471</ele>
        <time>2021-11-07T06:56:05Z</time>
      </trkpt>
      <trkpt lat="45.51376" lon="7.21832">
        <ele>2471.2</ele>
        <time>2021-11-07T06:56:06Z</time>
      </trkpt>
      <trkpt lat="45.51374" lon="7.2184">
        <ele>2472.8</ele>
        <time>2021-11-07T06:56:15Z</time>
      </trkpt>
      <trkpt lat="45.51374" lon="7.21843">
        <ele>2473.3</ele>
        <time>2021-11-07T06:56:18Z</time>
      </trkpt>
      <trkpt lat="45.51373" lon="7.21847">
        <ele>2474.1</ele>
        <time>2021-11-07T06:56:22Z</time>
      </trkpt>
      <trkpt lat="45.51372" lon="7.2185">
        <ele>2474.7</ele>
        <time>2021-11-07T06:56:25Z</time>
      </trkpt>
      <trkpt lat="45.51372" lon="7.21853">
        <ele>2475.3</ele>
        <time>2021-11-07T06:56:28Z</time>
      </trkpt>
      <trkpt lat="45.51372" lon="7.21854">
        <ele>2475.5</ele>
        <time>2021-11-07T06:56:30Z</time>
      </trkpt>
      <trkpt lat="45.5137" lon="7.21856">
        <ele>2476</ele>
        <time>2021-11-07T06:56:34Z</time>
      </trkpt>
      <trkpt lat="45.5137" lon="7.21859">
        <ele>2476.7</ele>
        <time>2021-11-07T06:56:38Z</time>
      </trkpt>
      <trkpt lat="45.51369" lon="7.21861">
        <ele>2477.1</ele>
        <time>2021-11-07T06:56:41Z</time>
      </trkpt>
      <trkpt lat="45.51368" lon="7.21861">
        <ele>2477.2</ele>
        <time>2021-11-07T06:56:42Z</time>
      </trkpt>
      <trkpt lat="45.51369" lon="7.21864">
        <ele>2477.8</ele>
        <time>2021-11-07T06:56:47Z</time>
      </trkpt>
      <trkpt lat="45.51368" lon="7.21866">
        <ele>2478.1</ele>
        <time>2021-11-07T06:56:51Z</time>
      </trkpt>
      <trkpt lat="45.51367" lon="7.21867">
        <ele>2478.4</ele>
        <time>2021-11-07T06:56:53Z</time>
      </trkpt>
      <trkpt lat="45.51364" lon="7.21871">
        <ele>2479.5</ele>
        <time>2021-11-07T06:57:01Z</time>
      </trkpt>
      <trkpt lat="45.51364" lon="7.21871">
        <ele>2479.6</ele>
        <time>2021-11-07T06:57:02Z</time>
      </trkpt>
      <trkpt lat="45.51364" lon="7.21872">
        <ele>2479.7</ele>
        <time>2021-11-07T06:57:03Z</time>
      </trkpt>
      <trkpt lat="45.51363" lon="7.21874">
        <ele>2480.1</ele>
        <time>2021-11-07T06:57:05Z</time>
      </trkpt>
      <trkpt lat="45.51363" lon="7.21875">
        <ele>2480.4</ele>
        <time>2021-11-07T06:57:07Z</time>
      </trkpt>
      <trkpt lat="45.51363" lon="7.21877">
        <ele>2480.8</ele>
        <time>2021-11-07T06:57:09Z</time>
      </trkpt>
      <trkpt lat="45.51362" lon="7.21879">
        <ele>2481.1</ele>
        <time>2021-11-07T06:57:11Z</time>
      </trkpt>
      <trkpt lat="45.51362" lon="7.21881">
        <ele>2481.4</ele>
        <time>2021-11-07T06:57:13Z</time>
      </trkpt>
      <trkpt lat="45.51362" lon="7.21881">
        <ele>2481.6</ele>
        <time>2021-11-07T06:57:14Z</time>
      </trkpt>
      <trkpt lat="45.51361" lon="7.21887">
        <ele>2482.6</ele>
        <time>2021-11-07T06:57:19Z</time>
      </trkpt>
      <trkpt lat="45.5136" lon="7.21894">
        <ele>2484</ele>
        <time>2021-11-07T06:57:27Z</time>
      </trkpt>
      <trkpt lat="45.51359" lon="7.21895">
        <ele>2484.2</ele>
        <time>2021-11-07T06:57:30Z</time>
      </trkpt>
      <trkpt lat="45.51359" lon="7.21896">
        <ele>2484.4</ele>
        <time>2021-11-07T06:57:33Z</time>
      </trkpt>
      <trkpt lat="45.51361" lon="7.21904">
        <ele>2485.9</ele>
        <time>2021-11-07T06:57:40Z</time>
      </trkpt>
      <trkpt lat="45.5136" lon="7.21909">
        <ele>2486.6</ele>
        <time>2021-11-07T06:57:45Z</time>
      </trkpt>
      <trkpt lat="45.5136" lon="7.21913">
        <ele>2487.2</ele>
        <time>2021-11-07T06:57:49Z</time>
      </trkpt>
      <trkpt lat="45.51361" lon="7.21916">
        <ele>2487.8</ele>
        <time>2021-11-07T06:57:52Z</time>
      </trkpt>
      <trkpt lat="45.51361" lon="7.21919">
        <ele>2488.2</ele>
        <time>2021-11-07T06:57:55Z</time>
      </trkpt>
      <trkpt lat="45.5136" lon="7.21921">
        <ele>2488.5</ele>
        <time>2021-11-07T06:57:58Z</time>
      </trkpt>
      <trkpt lat="45.5136" lon="7.21924">
        <ele>2489</ele>
        <time>2021-11-07T06:58:02Z</time>
      </trkpt>
      <trkpt lat="45.51361" lon="7.21927">
        <ele>2489.4</ele>
        <time>2021-11-07T06:58:05Z</time>
      </trkpt>
      <trkpt lat="45.51361" lon="7.21928">
        <ele>2489.6</ele>
        <time>2021-11-07T06:58:06Z</time>
      </trkpt>
      <trkpt lat="45.51361" lon="7.2193">
        <ele>2490</ele>
        <time>2021-11-07T06:58:10Z</time>
      </trkpt>
      <trkpt lat="45.51361" lon="7.2193">
        <ele>2490</ele>
        <time>2021-11-07T06:58:12Z</time>
      </trkpt>
      <trkpt lat="45.51361" lon="7.2193">
        <ele>2490</ele>
        <time>2021-11-07T06:58:15Z</time>
      </trkpt>
      <trkpt lat="45.51361" lon="7.2193">
        <ele>2490.1</ele>
        <time>2021-11-07T06:58:17Z</time>
      </trkpt>
      <trkpt lat="45.51361" lon="7.21931">
        <ele>2490.2</ele>
        <time>2021-11-07T06:58:21Z</time>
      </trkpt>
      <trkpt lat="45.51359" lon="7.21934">
        <ele>2490.9</ele>
        <time>2021-11-07T06:58:28Z</time>
      </trkpt>
      <trkpt lat="45.51359" lon="7.21935">
        <ele>2491.1</ele>
        <time>2021-11-07T06:58:29Z</time>
      </trkpt>
      <trkpt lat="45.51358" lon="7.21939">
        <ele>2491.8</ele>
        <time>2021-11-07T06:58:33Z</time>
      </trkpt>
      <trkpt lat="45.51358" lon="7.2194">
        <ele>2491.9</ele>
        <time>2021-11-07T06:58:34Z</time>
      </trkpt>
      <trkpt lat="45.51357" lon="7.21943">
        <ele>2492.3</ele>
        <time>2021-11-07T06:58:36Z</time>
      </trkpt>
      <trkpt lat="45.51357" lon="7.21946">
        <ele>2492.8</ele>
        <time>2021-11-07T06:58:39Z</time>
      </trkpt>
      <trkpt lat="45.51357" lon="7.21947">
        <ele>2493</ele>
        <time>2021-11-07T06:58:40Z</time>
      </trkpt>
      <trkpt lat="45.51357" lon="7.21948">
        <ele>2493.1</ele>
        <time>2021-11-07T06:58:41Z</time>
      </trkpt>
      <trkpt lat="45.51357" lon="7.21952">
        <ele>2493.7</ele>
        <time>2021-11-07T06:58:45Z</time>
      </trkpt>
      <trkpt lat="45.51357" lon="7.21954">
        <ele>2494</ele>
        <time>2021-11-07T06:58:48Z</time>
      </trkpt>
      <trkpt lat="45.51357" lon="7.21955">
        <ele>2494.2</ele>
        <time>2021-11-07T06:58:49Z</time>
      </trkpt>
      <trkpt lat="45.51357" lon="7.21958">
        <ele>2494.6</ele>
        <time>2021-11-07T06:58:53Z</time>
      </trkpt>
      <trkpt lat="45.5136" lon="7.21972">
        <ele>2496.8</ele>
        <time>2021-11-07T06:59:06Z</time>
      </trkpt>
      <trkpt lat="45.5136" lon="7.21974">
        <ele>2497.1</ele>
        <time>2021-11-07T06:59:07Z</time>
      </trkpt>
      <trkpt lat="45.51364" lon="7.21985">
        <ele>2498.9</ele>
        <time>2021-11-07T06:59:16Z</time>
      </trkpt>
      <trkpt lat="45.51365" lon="7.21989">
        <ele>2499.5</ele>
        <time>2021-11-07T06:59:19Z</time>
      </trkpt>
      <trkpt lat="45.51367" lon="7.21996">
        <ele>2500.6</ele>
        <time>2021-11-07T06:59:24Z</time>
      </trkpt>
      <trkpt lat="45.51368" lon="7.21998">
        <ele>2500.9</ele>
        <time>2021-11-07T06:59:26Z</time>
      </trkpt>
      <trkpt lat="45.51369" lon="7.21999">
        <ele>2501.5</ele>
        <time>2021-11-07T06:59:29Z</time>
      </trkpt>
      <trkpt lat="45.51369" lon="7.22002">
        <ele>2502</ele>
        <time>2021-11-07T06:59:32Z</time>
      </trkpt>
      <trkpt lat="45.5137" lon="7.22007">
        <ele>2502.9</ele>
        <time>2021-11-07T06:59:37Z</time>
      </trkpt>
      <trkpt lat="45.51369" lon="7.22012">
        <ele>2503.7</ele>
        <time>2021-11-07T06:59:43Z</time>
      </trkpt>
      <trkpt lat="45.51369" lon="7.22013">
        <ele>2503.9</ele>
        <time>2021-11-07T06:59:44Z</time>
      </trkpt>
      <trkpt lat="45.51369" lon="7.22015">
        <ele>2504.2</ele>
        <time>2021-11-07T06:59:46Z</time>
      </trkpt>
      <trkpt lat="45.51369" lon="7.22018">
        <ele>2504.5</ele>
        <time>2021-11-07T06:59:48Z</time>
      </trkpt>
      <trkpt lat="45.51369" lon="7.22027">
        <ele>2505.8</ele>
        <time>2021-11-07T06:59:56Z</time>
      </trkpt>
      <trkpt lat="45.51368" lon="7.22035">
        <ele>2506.7</ele>
        <time>2021-11-07T07:00:02Z</time>
      </trkpt>
      <trkpt lat="45.51366" lon="7.22038">
        <ele>2507.2</ele>
        <time>2021-11-07T07:00:05Z</time>
      </trkpt>
      <trkpt lat="45.51366" lon="7.2204">
        <ele>2507.5</ele>
        <time>2021-11-07T07:00:07Z</time>
      </trkpt>
      <trkpt lat="45.51365" lon="7.22043">
        <ele>2507.8</ele>
        <time>2021-11-07T07:00:09Z</time>
      </trkpt>
      <trkpt lat="45.51364" lon="7.22045">
        <ele>2508</ele>
        <time>2021-11-07T07:00:11Z</time>
      </trkpt>
      <trkpt lat="45.51364" lon="7.22047">
        <ele>2508.2</ele>
        <time>2021-11-07T07:00:12Z</time>
      </trkpt>
      <trkpt lat="45.51364" lon="7.22049">
        <ele>2508.4</ele>
        <time>2021-11-07T07:00:14Z</time>
      </trkpt>
      <trkpt lat="45.51363" lon="7.2205">
        <ele>2508.5</ele>
        <time>2021-11-07T07:00:15Z</time>
      </trkpt>
      <trkpt lat="45.51363" lon="7.22051">
        <ele>2508.7</ele>
        <time>2021-11-07T07:00:17Z</time>
      </trkpt>
      <trkpt lat="45.51363" lon="7.22053">
        <ele>2508.9</ele>
        <time>2021-11-07T07:00:18Z</time>
      </trkpt>
      <trkpt lat="45.51362" lon="7.22055">
        <ele>2509.1</ele>
        <time>2021-11-07T07:00:20Z</time>
      </trkpt>
      <trkpt lat="45.5136" lon="7.22057">
        <ele>2509.5</ele>
        <time>2021-11-07T07:00:23Z</time>
      </trkpt>
      <trkpt lat="45.51358" lon="7.2206">
        <ele>2510.1</ele>
        <time>2021-11-07T07:00:27Z</time>
      </trkpt>
      <trkpt lat="45.51356" lon="7.22061">
        <ele>2510.4</ele>
        <time>2021-11-07T07:00:29Z</time>
      </trkpt>
      <trkpt lat="45.51355" lon="7.22061">
        <ele>2510.5</ele>
        <time>2021-11-07T07:00:30Z</time>
      </trkpt>
      <trkpt lat="45.51352" lon="7.22064">
        <ele>2511.3</ele>
        <time>2021-11-07T07:00:37Z</time>
      </trkpt>
      <trkpt lat="45.51351" lon="7.22067">
        <ele>2511.7</ele>
        <time>2021-11-07T07:00:41Z</time>
      </trkpt>
      <trkpt lat="45.51347" lon="7.22072">
        <ele>2512.8</ele>
        <time>2021-11-07T07:00:47Z</time>
      </trkpt>
      <trkpt lat="45.51346" lon="7.22076">
        <ele>2513.3</ele>
        <time>2021-11-07T07:00:49Z</time>
      </trkpt>
      <trkpt lat="45.51345" lon="7.22079">
        <ele>2513.8</ele>
        <time>2021-11-07T07:00:52Z</time>
      </trkpt>
      <trkpt lat="45.51344" lon="7.22083">
        <ele>2514.4</ele>
        <time>2021-11-07T07:00:56Z</time>
      </trkpt>
      <trkpt lat="45.51344" lon="7.22084">
        <ele>2514.6</ele>
        <time>2021-11-07T07:00:58Z</time>
      </trkpt>
      <trkpt lat="45.51344" lon="7.22085">
        <ele>2514.8</ele>
        <time>2021-11-07T07:00:59Z</time>
      </trkpt>
      <trkpt lat="45.51343" lon="7.22088">
        <ele>2515.3</ele>
        <time>2021-11-07T07:01:02Z</time>
      </trkpt>
      <trkpt lat="45.51342" lon="7.2209">
        <ele>2515.5</ele>
        <time>2021-11-07T07:01:04Z</time>
      </trkpt>
      <trkpt lat="45.51342" lon="7.22091">
        <ele>2515.8</ele>
        <time>2021-11-07T07:01:06Z</time>
      </trkpt>
      <trkpt lat="45.51341" lon="7.22095">
        <ele>2516.4</ele>
        <time>2021-11-07T07:01:10Z</time>
      </trkpt>
      <trkpt lat="45.51339" lon="7.22098">
        <ele>2517</ele>
        <time>2021-11-07T07:01:15Z</time>
      </trkpt>
      <trkpt lat="45.51339" lon="7.22098">
        <ele>2517.2</ele>
        <time>2021-11-07T07:01:16Z</time>
      </trkpt>
      <trkpt lat="45.51338" lon="7.221">
        <ele>2517.6</ele>
        <time>2021-11-07T07:01:19Z</time>
      </trkpt>
      <trkpt lat="45.51336" lon="7.22102">
        <ele>2518</ele>
        <time>2021-11-07T07:01:23Z</time>
      </trkpt>
      <trkpt lat="45.51336" lon="7.22102">
        <ele>2518.1</ele>
        <time>2021-11-07T07:01:24Z</time>
      </trkpt>
      <trkpt lat="45.51336" lon="7.22102">
        <ele>2518.2</ele>
        <time>2021-11-07T07:01:25Z</time>
      </trkpt>
      <trkpt lat="45.51336" lon="7.22103">
        <ele>2518.5</ele>
        <time>2021-11-07T07:01:27Z</time>
      </trkpt>
      <trkpt lat="45.51338" lon="7.22104">
        <ele>2518.9</ele>
        <time>2021-11-07T07:01:30Z</time>
      </trkpt>
      <trkpt lat="45.51341" lon="7.22101">
        <ele>2519.8</ele>
        <time>2021-11-07T07:01:35Z</time>
      </trkpt>
      <trkpt lat="45.51345" lon="7.22099">
        <ele>2520.8</ele>
        <time>2021-11-07T07:01:39Z</time>
      </trkpt>
      <trkpt lat="45.51347" lon="7.22097">
        <ele>2521.5</ele>
        <time>2021-11-07T07:01:42Z</time>
      </trkpt>
      <trkpt lat="45.51348" lon="7.22097">
        <ele>2521.7</ele>
        <time>2021-11-07T07:01:43Z</time>
      </trkpt>
      <trkpt lat="45.51351" lon="7.22095">
        <ele>2522.3</ele>
        <time>2021-11-07T07:01:47Z</time>
      </trkpt>
      <trkpt lat="45.51352" lon="7.22094">
        <ele>2522.6</ele>
        <time>2021-11-07T07:01:49Z</time>
      </trkpt>
      <trkpt lat="45.51353" lon="7.22093">
        <ele>2523</ele>
        <time>2021-11-07T07:01:51Z</time>
      </trkpt>
      <trkpt lat="45.51357" lon="7.2209">
        <ele>2523.9</ele>
        <time>2021-11-07T07:01:56Z</time>
      </trkpt>
      <trkpt lat="45.51359" lon="7.22088">
        <ele>2524.4</ele>
        <time>2021-11-07T07:01:59Z</time>
      </trkpt>
      <trkpt lat="45.51364" lon="7.2209">
        <ele>2525.5</ele>
        <time>2021-11-07T07:02:09Z</time>
      </trkpt>
      <trkpt lat="45.51361" lon="7.22094">
        <ele>2526.3</ele>
        <time>2021-11-07T07:02:14Z</time>
      </trkpt>
      <trkpt lat="45.51359" lon="7.22096">
        <ele>2526.8</ele>
        <time>2021-11-07T07:02:17Z</time>
      </trkpt>
      <trkpt lat="45.51359" lon="7.22097">
        <ele>2526.9</ele>
        <time>2021-11-07T07:02:18Z</time>
      </trkpt>
      <trkpt lat="45.51359" lon="7.22098">
        <ele>2527.1</ele>
        <time>2021-11-07T07:02:19Z</time>
      </trkpt>
      <trkpt lat="45.51358" lon="7.221">
        <ele>2527.4</ele>
        <time>2021-11-07T07:02:21Z</time>
      </trkpt>
      <trkpt lat="45.51357" lon="7.22101">
        <ele>2527.6</ele>
        <time>2021-11-07T07:02:23Z</time>
      </trkpt>
      <trkpt lat="45.51357" lon="7.22103">
        <ele>2527.9</ele>
        <time>2021-11-07T07:02:25Z</time>
      </trkpt>
      <trkpt lat="45.51357" lon="7.22105">
        <ele>2528.2</ele>
        <time>2021-11-07T07:02:27Z</time>
      </trkpt>
      <trkpt lat="45.51356" lon="7.22108">
        <ele>2528.6</ele>
        <time>2021-11-07T07:02:30Z</time>
      </trkpt>
      <trkpt lat="45.51356" lon="7.22109">
        <ele>2528.7</ele>
        <time>2021-11-07T07:02:31Z</time>
      </trkpt>
      <trkpt lat="45.51356" lon="7.22111">
        <ele>2529</ele>
        <time>2021-11-07T07:02:33Z</time>
      </trkpt>
      <trkpt lat="45.51356" lon="7.22113">
        <ele>2529.3</ele>
        <time>2021-11-07T07:02:35Z</time>
      </trkpt>
      <trkpt lat="45.51355" lon="7.22113">
        <ele>2529.4</ele>
        <time>2021-11-07T07:02:36Z</time>
      </trkpt>
      <trkpt lat="45.51355" lon="7.22115">
        <ele>2529.6</ele>
        <time>2021-11-07T07:02:37Z</time>
      </trkpt>
      <trkpt lat="45.51354" lon="7.22118">
        <ele>2530.1</ele>
        <time>2021-11-07T07:02:40Z</time>
      </trkpt>
      <trkpt lat="45.51354" lon="7.22119">
        <ele>2530.3</ele>
        <time>2021-11-07T07:02:41Z</time>
      </trkpt>
      <trkpt lat="45.51354" lon="7.2212">
        <ele>2530.5</ele>
        <time>2021-11-07T07:02:42Z</time>
      </trkpt>
      <trkpt lat="45.51352" lon="7.22123">
        <ele>2531</ele>
        <time>2021-11-07T07:02:45Z</time>
      </trkpt>
      <trkpt lat="45.51351" lon="7.22125">
        <ele>2531.3</ele>
        <time>2021-11-07T07:02:47Z</time>
      </trkpt>
      <trkpt lat="45.51349" lon="7.22128">
        <ele>2531.7</ele>
        <time>2021-11-07T07:02:50Z</time>
      </trkpt>
      <trkpt lat="45.51349" lon="7.22129">
        <ele>2532</ele>
        <time>2021-11-07T07:02:51Z</time>
      </trkpt>
      <trkpt lat="45.51348" lon="7.22131">
        <ele>2532.1</ele>
        <time>2021-11-07T07:02:52Z</time>
      </trkpt>
      <trkpt lat="45.51348" lon="7.22132">
        <ele>2532.3</ele>
        <time>2021-11-07T07:02:53Z</time>
      </trkpt>
      <trkpt lat="45.51348" lon="7.22134">
        <ele>2532.6</ele>
        <time>2021-11-07T07:02:55Z</time>
      </trkpt>
      <trkpt lat="45.51348" lon="7.22135">
        <ele>2532.7</ele>
        <time>2021-11-07T07:02:56Z</time>
      </trkpt>
      <trkpt lat="45.51347" lon="7.22138">
        <ele>2533.2</ele>
        <time>2021-11-07T07:02:59Z</time>
      </trkpt>
      <trkpt lat="45.51348" lon="7.22142">
        <ele>2533.7</ele>
        <time>2021-11-07T07:03:02Z</time>
      </trkpt>
      <trkpt lat="45.51348" lon="7.22144">
        <ele>2533.8</ele>
        <time>2021-11-07T07:03:05Z</time>
      </trkpt>
      <trkpt lat="45.51348" lon="7.22147">
        <ele>2535.6</ele>
        <time>2021-11-07T07:03:08Z</time>
      </trkpt>
      <trkpt lat="45.51348" lon="7.2215">
        <ele>2537.4</ele>
        <time>2021-11-07T07:03:12Z</time>
      </trkpt>
      <trkpt lat="45.51349" lon="7.22154">
        <ele>2539.2</ele>
        <time>2021-11-07T07:03:19Z</time>
      </trkpt>
      <trkpt lat="45.51349" lon="7.22155">
        <ele>2539.4</ele>
        <time>2021-11-07T07:03:20Z</time>
      </trkpt>
      <trkpt lat="45.51349" lon="7.22159">
        <ele>2541.2</ele>
        <time>2021-11-07T07:03:27Z</time>
      </trkpt>
      <trkpt lat="45.5135" lon="7.22157">
        <ele>2539.7</ele>
        <time>2021-11-07T07:03:30Z</time>
      </trkpt>
      <trkpt lat="45.51352" lon="7.22153">
        <ele>2539.1</ele>
        <time>2021-11-07T07:03:35Z</time>
      </trkpt>
      <trkpt lat="45.51353" lon="7.22151">
        <ele>2539.3</ele>
        <time>2021-11-07T07:03:38Z</time>
      </trkpt>
      <trkpt lat="45.51355" lon="7.22149">
        <ele>2538.8</ele>
        <time>2021-11-07T07:03:41Z</time>
      </trkpt>
      <trkpt lat="45.51356" lon="7.22147">
        <ele>2538.9</ele>
        <time>2021-11-07T07:03:43Z</time>
      </trkpt>
      <trkpt lat="45.5136" lon="7.22145">
        <ele>2539.5</ele>
        <time>2021-11-07T07:03:49Z</time>
      </trkpt>
      <trkpt lat="45.51362" lon="7.22144">
        <ele>2539.7</ele>
        <time>2021-11-07T07:03:52Z</time>
      </trkpt>
      <trkpt lat="45.51364" lon="7.22141">
        <ele>2539.4</ele>
        <time>2021-11-07T07:03:57Z</time>
      </trkpt>
      <trkpt lat="45.51364" lon="7.2214">
        <ele>2539.5</ele>
        <time>2021-11-07T07:03:58Z</time>
      </trkpt>
      <trkpt lat="45.51365" lon="7.22139">
        <ele>2539.7</ele>
        <time>2021-11-07T07:03:59Z</time>
      </trkpt>
      <trkpt lat="45.51367" lon="7.22137">
        <ele>2540.9</ele>
        <time>2021-11-07T07:04:03Z</time>
      </trkpt>
      <trkpt lat="45.51369" lon="7.22136">
        <ele>2540.5</ele>
        <time>2021-11-07T07:04:07Z</time>
      </trkpt>
      <trkpt lat="45.51371" lon="7.22138">
        <ele>2542.2</ele>
        <time>2021-11-07T07:04:10Z</time>
      </trkpt>
      <trkpt lat="45.5137" lon="7.22141">
        <ele>2543.9</ele>
        <time>2021-11-07T07:04:13Z</time>
      </trkpt>
      <trkpt lat="45.5137" lon="7.22143">
        <ele>2544.1</ele>
        <time>2021-11-07T07:04:15Z</time>
      </trkpt>
      <trkpt lat="45.51369" lon="7.22145">
        <ele>2544.2</ele>
        <time>2021-11-07T07:04:17Z</time>
      </trkpt>
      <trkpt lat="45.51369" lon="7.22146">
        <ele>2546</ele>
        <time>2021-11-07T07:04:19Z</time>
      </trkpt>
      <trkpt lat="45.51369" lon="7.2215">
        <ele>2547.7</ele>
        <time>2021-11-07T07:04:23Z</time>
      </trkpt>
      <trkpt lat="45.51369" lon="7.22152">
        <ele>2547.9</ele>
        <time>2021-11-07T07:04:25Z</time>
      </trkpt>
      <trkpt lat="45.51368" lon="7.22154">
        <ele>2548.7</ele>
        <time>2021-11-07T07:04:27Z</time>
      </trkpt>
      <trkpt lat="45.51368" lon="7.22156">
        <ele>2548.8</ele>
        <time>2021-11-07T07:04:29Z</time>
      </trkpt>
      <trkpt lat="45.51366" lon="7.22162">
        <ele>2552.2</ele>
        <time>2021-11-07T07:04:34Z</time>
      </trkpt>
      <trkpt lat="45.51365" lon="7.22164">
        <ele>2551.4</ele>
        <time>2021-11-07T07:04:35Z</time>
      </trkpt>
      <trkpt lat="45.51365" lon="7.22166">
        <ele>2551.5</ele>
        <time>2021-11-07T07:04:37Z</time>
      </trkpt>
      <trkpt lat="45.51365" lon="7.22168">
        <ele>2553.2</ele>
        <time>2021-11-07T07:04:38Z</time>
      </trkpt>
      <trkpt lat="45.51365" lon="7.22169">
        <ele>2553.4</ele>
        <time>2021-11-07T07:04:39Z</time>
      </trkpt>
      <trkpt lat="45.51365" lon="7.22171">
        <ele>2553.5</ele>
        <time>2021-11-07T07:04:41Z</time>
      </trkpt>
      <trkpt lat="45.51365" lon="7.22172">
        <ele>2555.2</ele>
        <time>2021-11-07T07:04:42Z</time>
      </trkpt>
      <trkpt lat="45.51364" lon="7.22175">
        <ele>2556.7</ele>
        <time>2021-11-07T07:04:45Z</time>
      </trkpt>
      <trkpt lat="45.51364" lon="7.22176">
        <ele>2556.9</ele>
        <time>2021-11-07T07:04:46Z</time>
      </trkpt>
      <trkpt lat="45.51364" lon="7.22179">
        <ele>2557.1</ele>
        <time>2021-11-07T07:04:48Z</time>
      </trkpt>
      <trkpt lat="45.51364" lon="7.22184">
        <ele>2558.6</ele>
        <time>2021-11-07T07:04:53Z</time>
      </trkpt>
      <trkpt lat="45.51363" lon="7.22186">
        <ele>2560.2</ele>
        <time>2021-11-07T07:04:56Z</time>
      </trkpt>
      <trkpt lat="45.51362" lon="7.22188">
        <ele>2560.9</ele>
        <time>2021-11-07T07:04:58Z</time>
      </trkpt>
      <trkpt lat="45.51362" lon="7.22189">
        <ele>2561.1</ele>
        <time>2021-11-07T07:04:59Z</time>
      </trkpt>
      <trkpt lat="45.5136" lon="7.22192">
        <ele>2561.2</ele>
        <time>2021-11-07T07:05:05Z</time>
      </trkpt>
      <trkpt lat="45.51359" lon="7.22192">
        <ele>2562</ele>
        <time>2021-11-07T07:05:06Z</time>
      </trkpt>
      <trkpt lat="45.51358" lon="7.22193">
        <ele>2562.2</ele>
        <time>2021-11-07T07:05:08Z</time>
      </trkpt>
      <trkpt lat="45.51358" lon="7.22194">
        <ele>2562.3</ele>
        <time>2021-11-07T07:05:09Z</time>
      </trkpt>
      <trkpt lat="45.51358" lon="7.22197">
        <ele>2562.5</ele>
        <time>2021-11-07T07:05:11Z</time>
      </trkpt>
      <trkpt lat="45.51358" lon="7.22198">
        <ele>2564.2</ele>
        <time>2021-11-07T07:05:12Z</time>
      </trkpt>
      <trkpt lat="45.51357" lon="7.22199">
        <ele>2564.4</ele>
        <time>2021-11-07T07:05:13Z</time>
      </trkpt>
      <trkpt lat="45.51357" lon="7.22202">
        <ele>2566.1</ele>
        <time>2021-11-07T07:05:16Z</time>
      </trkpt>
      <trkpt lat="45.51357" lon="7.22204">
        <ele>2566.2</ele>
        <time>2021-11-07T07:05:20Z</time>
      </trkpt>
      <trkpt lat="45.51358" lon="7.22203">
        <ele>2566.4</ele>
        <time>2021-11-07T07:05:22Z</time>
      </trkpt>
      <trkpt lat="45.51361" lon="7.222">
        <ele>2565.9</ele>
        <time>2021-11-07T07:05:27Z</time>
      </trkpt>
      <trkpt lat="45.51362" lon="7.22199">
        <ele>2566.1</ele>
        <time>2021-11-07T07:05:28Z</time>
      </trkpt>
      <trkpt lat="45.51365" lon="7.22196">
        <ele>2565.6</ele>
        <time>2021-11-07T07:05:32Z</time>
      </trkpt>
      <trkpt lat="45.51365" lon="7.22196">
        <ele>2565.8</ele>
        <time>2021-11-07T07:05:33Z</time>
      </trkpt>
      <trkpt lat="45.51365" lon="7.22195">
        <ele>2565.9</ele>
        <time>2021-11-07T07:05:34Z</time>
      </trkpt>
      <trkpt lat="45.51366" lon="7.22191">
        <ele>2565.4</ele>
        <time>2021-11-07T07:05:37Z</time>
      </trkpt>
      <trkpt lat="45.51366" lon="7.2219">
        <ele>2565.6</ele>
        <time>2021-11-07T07:05:38Z</time>
      </trkpt>
      <trkpt lat="45.51367" lon="7.22187">
        <ele>2564.3</ele>
        <time>2021-11-07T07:05:40Z</time>
      </trkpt>
      <trkpt lat="45.51367" lon="7.22186">
        <ele>2564.4</ele>
        <time>2021-11-07T07:05:41Z</time>
      </trkpt>
      <trkpt lat="45.51367" lon="7.22185">
        <ele>2564.6</ele>
        <time>2021-11-07T07:05:42Z</time>
      </trkpt>
      <trkpt lat="45.51369" lon="7.22183">
        <ele>2564.2</ele>
        <time>2021-11-07T07:05:45Z</time>
      </trkpt>
      <trkpt lat="45.5137" lon="7.22184">
        <ele>2564.4</ele>
        <time>2021-11-07T07:05:48Z</time>
      </trkpt>
      <trkpt lat="45.5137" lon="7.22184">
        <ele>2564.6</ele>
        <time>2021-11-07T07:05:49Z</time>
      </trkpt>
      <trkpt lat="45.51371" lon="7.22181">
        <ele>2564.7</ele>
        <time>2021-11-07T07:05:54Z</time>
      </trkpt>
      <trkpt lat="45.51372" lon="7.22177">
        <ele>2564.4</ele>
        <time>2021-11-07T07:05:57Z</time>
      </trkpt>
      <trkpt lat="45.51377" lon="7.22169">
        <ele>2562.7</ele>
        <time>2021-11-07T07:06:03Z</time>
      </trkpt>
      <trkpt lat="45.51379" lon="7.22166">
        <ele>2563.3</ele>
        <time>2021-11-07T07:06:06Z</time>
      </trkpt>
      <trkpt lat="45.51383" lon="7.22157">
        <ele>2564.6</ele>
        <time>2021-11-07T07:06:13Z</time>
      </trkpt>
      <trkpt lat="45.51383" lon="7.22156">
        <ele>2564.7</ele>
        <time>2021-11-07T07:06:14Z</time>
      </trkpt>
      <trkpt lat="45.51384" lon="7.22156">
        <ele>2564.8</ele>
        <time>2021-11-07T07:06:15Z</time>
      </trkpt>
      <trkpt lat="45.51384" lon="7.22158">
        <ele>2565.1</ele>
        <time>2021-11-07T07:06:18Z</time>
      </trkpt>
      <trkpt lat="45.51383" lon="7.2216">
        <ele>2565.4</ele>
        <time>2021-11-07T07:06:20Z</time>
      </trkpt>
      <trkpt lat="45.51383" lon="7.22162">
        <ele>2565.6</ele>
        <time>2021-11-07T07:06:21Z</time>
      </trkpt>
      <trkpt lat="45.51383" lon="7.22163">
        <ele>2565.7</ele>
        <time>2021-11-07T07:06:22Z</time>
      </trkpt>
      <trkpt lat="45.51381" lon="7.22169">
        <ele>2566.6</ele>
        <time>2021-11-07T07:06:29Z</time>
      </trkpt>
      <trkpt lat="45.51381" lon="7.2217">
        <ele>2566.8</ele>
        <time>2021-11-07T07:06:30Z</time>
      </trkpt>
      <trkpt lat="45.5138" lon="7.22172">
        <ele>2567.1</ele>
        <time>2021-11-07T07:06:32Z</time>
      </trkpt>
      <trkpt lat="45.51379" lon="7.22175">
        <ele>2567.5</ele>
        <time>2021-11-07T07:06:34Z</time>
      </trkpt>
      <trkpt lat="45.51379" lon="7.22177">
        <ele>2567.8</ele>
        <time>2021-11-07T07:06:36Z</time>
      </trkpt>
      <trkpt lat="45.51379" lon="7.22178">
        <ele>2568</ele>
        <time>2021-11-07T07:06:38Z</time>
      </trkpt>
      <trkpt lat="45.51378" lon="7.22181">
        <ele>2568.3</ele>
        <time>2021-11-07T07:06:40Z</time>
      </trkpt>
      <trkpt lat="45.51378" lon="7.22183">
        <ele>2568.7</ele>
        <time>2021-11-07T07:06:42Z</time>
      </trkpt>
      <trkpt lat="45.51375" lon="7.22188">
        <ele>2569.5</ele>
        <time>2021-11-07T07:06:46Z</time>
      </trkpt>
      <trkpt lat="45.51374" lon="7.22192">
        <ele>2570.2</ele>
        <time>2021-11-07T07:06:50Z</time>
      </trkpt>
      <trkpt lat="45.51373" lon="7.22195">
        <ele>2570.8</ele>
        <time>2021-11-07T07:06:53Z</time>
      </trkpt>
      <trkpt lat="45.51373" lon="7.22197">
        <ele>2571.1</ele>
        <time>2021-11-07T07:06:55Z</time>
      </trkpt>
      <trkpt lat="45.51374" lon="7.22204">
        <ele>2572.1</ele>
        <time>2021-11-07T07:07:01Z</time>
      </trkpt>
      <trkpt lat="45.51374" lon="7.22208">
        <ele>2572.7</ele>
        <time>2021-11-07T07:07:04Z</time>
      </trkpt>
      <trkpt lat="45.51374" lon="7.22211">
        <ele>2573.1</ele>
        <time>2021-11-07T07:07:06Z</time>
      </trkpt>
      <trkpt lat="45.51375" lon="7.22214">
        <ele>2573.5</ele>
        <time>2021-11-07T07:07:09Z</time>
      </trkpt>
      <trkpt lat="45.51375" lon="7.22218">
        <ele>2574.1</ele>
        <time>2021-11-07T07:07:13Z</time>
      </trkpt>
      <trkpt lat="45.51375" lon="7.22219">
        <ele>2574.2</ele>
        <time>2021-11-07T07:07:14Z</time>
      </trkpt>
      <trkpt lat="45.51375" lon="7.22221">
        <ele>2574.4</ele>
        <time>2021-11-07T07:07:16Z</time>
      </trkpt>
      <trkpt lat="45.51375" lon="7.22224">
        <ele>2574.8</ele>
        <time>2021-11-07T07:07:19Z</time>
      </trkpt>
      <trkpt lat="45.51374" lon="7.22227">
        <ele>2575.2</ele>
        <time>2021-11-07T07:07:22Z</time>
      </trkpt>
      <trkpt lat="45.51373" lon="7.2223">
        <ele>2575.8</ele>
        <time>2021-11-07T07:07:26Z</time>
      </trkpt>
      <trkpt lat="45.5137" lon="7.22232">
        <ele>2576.3</ele>
        <time>2021-11-07T07:07:29Z</time>
      </trkpt>
      <trkpt lat="45.51368" lon="7.22234">
        <ele>2576.7</ele>
        <time>2021-11-07T07:07:31Z</time>
      </trkpt>
      <trkpt lat="45.51366" lon="7.22238">
        <ele>2577.4</ele>
        <time>2021-11-07T07:07:35Z</time>
      </trkpt>
      <trkpt lat="45.51365" lon="7.22239">
        <ele>2577.5</ele>
        <time>2021-11-07T07:07:36Z</time>
      </trkpt>
      <trkpt lat="45.51364" lon="7.2224">
        <ele>2577.8</ele>
        <time>2021-11-07T07:07:38Z</time>
      </trkpt>
      <trkpt lat="45.51363" lon="7.22241">
        <ele>2578</ele>
        <time>2021-11-07T07:07:39Z</time>
      </trkpt>
      <trkpt lat="45.51362" lon="7.22243">
        <ele>2578.4</ele>
        <time>2021-11-07T07:07:42Z</time>
      </trkpt>
      <trkpt lat="45.5136" lon="7.22245">
        <ele>2578.7</ele>
        <time>2021-11-07T07:07:44Z</time>
      </trkpt>
      <trkpt lat="45.51359" lon="7.22248">
        <ele>2579.1</ele>
        <time>2021-11-07T07:07:47Z</time>
      </trkpt>
      <trkpt lat="45.51359" lon="7.22249">
        <ele>2579.4</ele>
        <time>2021-11-07T07:07:49Z</time>
      </trkpt>
      <trkpt lat="45.51358" lon="7.22254">
        <ele>2579.9</ele>
        <time>2021-11-07T07:07:53Z</time>
      </trkpt>
      <trkpt lat="45.51356" lon="7.22257">
        <ele>2580.6</ele>
        <time>2021-11-07T07:07:58Z</time>
      </trkpt>
      <trkpt lat="45.51355" lon="7.22259">
        <ele>2580.8</ele>
        <time>2021-11-07T07:08:00Z</time>
      </trkpt>
      <trkpt lat="45.51354" lon="7.2226">
        <ele>2581</ele>
        <time>2021-11-07T07:08:01Z</time>
      </trkpt>
      <trkpt lat="45.51352" lon="7.22263">
        <ele>2581.5</ele>
        <time>2021-11-07T07:08:05Z</time>
      </trkpt>
      <trkpt lat="45.51352" lon="7.22265">
        <ele>2581.8</ele>
        <time>2021-11-07T07:08:07Z</time>
      </trkpt>
      <trkpt lat="45.51351" lon="7.2227">
        <ele>2582.4</ele>
        <time>2021-11-07T07:08:11Z</time>
      </trkpt>
      <trkpt lat="45.51351" lon="7.22271">
        <ele>2582.6</ele>
        <time>2021-11-07T07:08:12Z</time>
      </trkpt>
      <trkpt lat="45.5135" lon="7.22273">
        <ele>2582.8</ele>
        <time>2021-11-07T07:08:14Z</time>
      </trkpt>
      <trkpt lat="45.5135" lon="7.22273">
        <ele>2582.9</ele>
        <time>2021-11-07T07:08:15Z</time>
      </trkpt>
      <trkpt lat="45.51349" lon="7.22276">
        <ele>2583.3</ele>
        <time>2021-11-07T07:08:18Z</time>
      </trkpt>
      <trkpt lat="45.51346" lon="7.22279">
        <ele>2583.9</ele>
        <time>2021-11-07T07:08:22Z</time>
      </trkpt>
      <trkpt lat="45.51345" lon="7.22282">
        <ele>2584.3</ele>
        <time>2021-11-07T07:08:25Z</time>
      </trkpt>
      <trkpt lat="45.51345" lon="7.22282">
        <ele>2584.4</ele>
        <time>2021-11-07T07:08:26Z</time>
      </trkpt>
      <trkpt lat="45.51344" lon="7.22285">
        <ele>2584.8</ele>
        <time>2021-11-07T07:08:30Z</time>
      </trkpt>
      <trkpt lat="45.51344" lon="7.22286">
        <ele>2585</ele>
        <time>2021-11-07T07:08:32Z</time>
      </trkpt>
      <trkpt lat="45.51344" lon="7.22288">
        <ele>2585.1</ele>
        <time>2021-11-07T07:08:34Z</time>
      </trkpt>
      <trkpt lat="45.51342" lon="7.22292">
        <ele>2585.7</ele>
        <time>2021-11-07T07:08:38Z</time>
      </trkpt>
      <trkpt lat="45.51342" lon="7.22293">
        <ele>2585.9</ele>
        <time>2021-11-07T07:08:39Z</time>
      </trkpt>
      <trkpt lat="45.5134" lon="7.22297">
        <ele>2586.6</ele>
        <time>2021-11-07T07:08:44Z</time>
      </trkpt>
      <trkpt lat="45.51339" lon="7.22298">
        <ele>2586.9</ele>
        <time>2021-11-07T07:08:46Z</time>
      </trkpt>
      <trkpt lat="45.51336" lon="7.22304">
        <ele>2587.9</ele>
        <time>2021-11-07T07:08:52Z</time>
      </trkpt>
      <trkpt lat="45.51333" lon="7.22308">
        <ele>2588.8</ele>
        <time>2021-11-07T07:08:57Z</time>
      </trkpt>
      <trkpt lat="45.51332" lon="7.22311">
        <ele>2589.3</ele>
        <time>2021-11-07T07:09:00Z</time>
      </trkpt>
      <trkpt lat="45.51331" lon="7.22315">
        <ele>2590.1</ele>
        <time>2021-11-07T07:09:05Z</time>
      </trkpt>
      <trkpt lat="45.51328" lon="7.22319">
        <ele>2590.9</ele>
        <time>2021-11-07T07:09:10Z</time>
      </trkpt>
      <trkpt lat="45.51326" lon="7.22324">
        <ele>2591.8</ele>
        <time>2021-11-07T07:09:17Z</time>
      </trkpt>
      <trkpt lat="45.51325" lon="7.22328">
        <ele>2592.4</ele>
        <time>2021-11-07T07:09:22Z</time>
      </trkpt>
      <trkpt lat="45.51325" lon="7.22328">
        <ele>2592.5</ele>
        <time>2021-11-07T07:09:23Z</time>
      </trkpt>
      <trkpt lat="45.51324" lon="7.22331">
        <ele>2592.9</ele>
        <time>2021-11-07T07:09:26Z</time>
      </trkpt>
      <trkpt lat="45.51324" lon="7.22332">
        <ele>2593.1</ele>
        <time>2021-11-07T07:09:28Z</time>
      </trkpt>
      <trkpt lat="45.51323" lon="7.22333">
        <ele>2593.3</ele>
        <time>2021-11-07T07:09:29Z</time>
      </trkpt>
      <trkpt lat="45.51323" lon="7.22334">
        <ele>2593.5</ele>
        <time>2021-11-07T07:09:31Z</time>
      </trkpt>
      <trkpt lat="45.51322" lon="7.22337">
        <ele>2593.9</ele>
        <time>2021-11-07T07:09:35Z</time>
      </trkpt>
      <trkpt lat="45.51322" lon="7.22338">
        <ele>2594.1</ele>
        <time>2021-11-07T07:09:37Z</time>
      </trkpt>
      <trkpt lat="45.51321" lon="7.22341">
        <ele>2594.5</ele>
        <time>2021-11-07T07:09:40Z</time>
      </trkpt>
      <trkpt lat="45.51321" lon="7.22342">
        <ele>2594.6</ele>
        <time>2021-11-07T07:09:41Z</time>
      </trkpt>
      <trkpt lat="45.51321" lon="7.22346">
        <ele>2595.2</ele>
        <time>2021-11-07T07:09:46Z</time>
      </trkpt>
      <trkpt lat="45.5132" lon="7.22349">
        <ele>2595.7</ele>
        <time>2021-11-07T07:09:49Z</time>
      </trkpt>
      <trkpt lat="45.5132" lon="7.22354">
        <ele>2596.4</ele>
        <time>2021-11-07T07:09:55Z</time>
      </trkpt>
      <trkpt lat="45.51319" lon="7.22356">
        <ele>2596.7</ele>
        <time>2021-11-07T07:09:57Z</time>
      </trkpt>
      <trkpt lat="45.51319" lon="7.22359">
        <ele>2597.1</ele>
        <time>2021-11-07T07:09:59Z</time>
      </trkpt>
      <trkpt lat="45.51318" lon="7.22361">
        <ele>2597.3</ele>
        <time>2021-11-07T07:10:01Z</time>
      </trkpt>
      <trkpt lat="45.51318" lon="7.22364">
        <ele>2597.7</ele>
        <time>2021-11-07T07:10:03Z</time>
      </trkpt>
      <trkpt lat="45.51318" lon="7.22367">
        <ele>2598.1</ele>
        <time>2021-11-07T07:10:06Z</time>
      </trkpt>
      <trkpt lat="45.51317" lon="7.2237">
        <ele>2598.6</ele>
        <time>2021-11-07T07:10:11Z</time>
      </trkpt>
      <trkpt lat="45.51317" lon="7.22372">
        <ele>2598.8</ele>
        <time>2021-11-07T07:10:13Z</time>
      </trkpt>
      <trkpt lat="45.51315" lon="7.22378">
        <ele>2599.6</ele>
        <time>2021-11-07T07:10:19Z</time>
      </trkpt>
      <trkpt lat="45.51315" lon="7.22382">
        <ele>2600.1</ele>
        <time>2021-11-07T07:10:24Z</time>
      </trkpt>
      <trkpt lat="45.51313" lon="7.22384">
        <ele>2600.5</ele>
        <time>2021-11-07T07:10:29Z</time>
      </trkpt>
      <trkpt lat="45.51311" lon="7.22388">
        <ele>2601</ele>
        <time>2021-11-07T07:10:34Z</time>
      </trkpt>
      <trkpt lat="45.51311" lon="7.22389">
        <ele>2601</ele>
        <time>2021-11-07T07:10:35Z</time>
      </trkpt>
      <trkpt lat="45.5131" lon="7.22391">
        <ele>2601.3</ele>
        <time>2021-11-07T07:10:38Z</time>
      </trkpt>
      <trkpt lat="45.51311" lon="7.22394">
        <ele>2601.5</ele>
        <time>2021-11-07T07:10:41Z</time>
      </trkpt>
      <trkpt lat="45.51311" lon="7.22395">
        <ele>2601.7</ele>
        <time>2021-11-07T07:10:42Z</time>
      </trkpt>
      <trkpt lat="45.5131" lon="7.22401">
        <ele>2602.2</ele>
        <time>2021-11-07T07:10:48Z</time>
      </trkpt>
      <trkpt lat="45.5131" lon="7.22406">
        <ele>2602.7</ele>
        <time>2021-11-07T07:10:52Z</time>
      </trkpt>
      <trkpt lat="45.51309" lon="7.2241">
        <ele>2603</ele>
        <time>2021-11-07T07:10:56Z</time>
      </trkpt>
      <trkpt lat="45.51309" lon="7.22414">
        <ele>2603.3</ele>
        <time>2021-11-07T07:10:59Z</time>
      </trkpt>
      <trkpt lat="45.51309" lon="7.22415">
        <ele>2603.4</ele>
        <time>2021-11-07T07:11:00Z</time>
      </trkpt>
      <trkpt lat="45.51309" lon="7.22417">
        <ele>2603.6</ele>
        <time>2021-11-07T07:11:02Z</time>
      </trkpt>
      <trkpt lat="45.51309" lon="7.22421">
        <ele>2604</ele>
        <time>2021-11-07T07:11:05Z</time>
      </trkpt>
      <trkpt lat="45.5131" lon="7.22433">
        <ele>2605</ele>
        <time>2021-11-07T07:11:14Z</time>
      </trkpt>
      <trkpt lat="45.5131" lon="7.22434">
        <ele>2605.1</ele>
        <time>2021-11-07T07:11:15Z</time>
      </trkpt>
      <trkpt lat="45.51309" lon="7.22435">
        <ele>2605.2</ele>
        <time>2021-11-07T07:11:16Z</time>
      </trkpt>
      <trkpt lat="45.51305" lon="7.22446">
        <ele>2606.6</ele>
        <time>2021-11-07T07:11:27Z</time>
      </trkpt>
      <trkpt lat="45.51304" lon="7.22446">
        <ele>2606.7</ele>
        <time>2021-11-07T07:11:28Z</time>
      </trkpt>
      <trkpt lat="45.51304" lon="7.22452">
        <ele>2607.4</ele>
        <time>2021-11-07T07:11:39Z</time>
      </trkpt>
      <trkpt lat="45.51304" lon="7.22464">
        <ele>2609</ele>
        <time>2021-11-07T07:11:48Z</time>
      </trkpt>
      <trkpt lat="45.51305" lon="7.22465">
        <ele>2609.2</ele>
        <time>2021-11-07T07:11:50Z</time>
      </trkpt>
      <trkpt lat="45.51305" lon="7.22471">
        <ele>2610.2</ele>
        <time>2021-11-07T07:11:56Z</time>
      </trkpt>
      <trkpt lat="45.51303" lon="7.2248">
        <ele>2611.6</ele>
        <time>2021-11-07T07:12:08Z</time>
      </trkpt>
      <trkpt lat="45.51298" lon="7.22486">
        <ele>2613</ele>
        <time>2021-11-07T07:12:18Z</time>
      </trkpt>
      <trkpt lat="45.51298" lon="7.22488">
        <ele>2613.3</ele>
        <time>2021-11-07T07:12:20Z</time>
      </trkpt>
      <trkpt lat="45.51298" lon="7.22494">
        <ele>2614.1</ele>
        <time>2021-11-07T07:12:25Z</time>
      </trkpt>
      <trkpt lat="45.51299" lon="7.22495">
        <ele>2614.3</ele>
        <time>2021-11-07T07:12:26Z</time>
      </trkpt>
      <trkpt lat="45.51298" lon="7.22498">
        <ele>2614.6</ele>
        <time>2021-11-07T07:12:28Z</time>
      </trkpt>
      <trkpt lat="45.51298" lon="7.22499">
        <ele>2614.7</ele>
        <time>2021-11-07T07:12:29Z</time>
      </trkpt>
      <trkpt lat="45.51298" lon="7.225">
        <ele>2614.9</ele>
        <time>2021-11-07T07:12:30Z</time>
      </trkpt>
      <trkpt lat="45.51298" lon="7.22502">
        <ele>2615.1</ele>
        <time>2021-11-07T07:12:32Z</time>
      </trkpt>
      <trkpt lat="45.51297" lon="7.22507">
        <ele>2615.8</ele>
        <time>2021-11-07T07:12:36Z</time>
      </trkpt>
      <trkpt lat="45.51296" lon="7.22509">
        <ele>2616.1</ele>
        <time>2021-11-07T07:12:38Z</time>
      </trkpt>
      <trkpt lat="45.51295" lon="7.2251">
        <ele>2616.4</ele>
        <time>2021-11-07T07:12:40Z</time>
      </trkpt>
      <trkpt lat="45.51294" lon="7.2251">
        <ele>2616.5</ele>
        <time>2021-11-07T07:12:41Z</time>
      </trkpt>
      <trkpt lat="45.51294" lon="7.22512">
        <ele>2616.7</ele>
        <time>2021-11-07T07:12:43Z</time>
      </trkpt>
      <trkpt lat="45.5129" lon="7.22514">
        <ele>2617.3</ele>
        <time>2021-11-07T07:12:48Z</time>
      </trkpt>
      <trkpt lat="45.5129" lon="7.22515">
        <ele>2617.4</ele>
        <time>2021-11-07T07:12:49Z</time>
      </trkpt>
      <trkpt lat="45.51289" lon="7.22517">
        <ele>2617.7</ele>
        <time>2021-11-07T07:12:51Z</time>
      </trkpt>
      <trkpt lat="45.51289" lon="7.22518">
        <ele>2617.9</ele>
        <time>2021-11-07T07:12:52Z</time>
      </trkpt>
      <trkpt lat="45.51288" lon="7.2252">
        <ele>2618.1</ele>
        <time>2021-11-07T07:12:53Z</time>
      </trkpt>
      <trkpt lat="45.51289" lon="7.22524">
        <ele>2618.7</ele>
        <time>2021-11-07T07:12:56Z</time>
      </trkpt>
      <trkpt lat="45.51288" lon="7.22529">
        <ele>2619.4</ele>
        <time>2021-11-07T07:13:00Z</time>
      </trkpt>
      <trkpt lat="45.51288" lon="7.22531">
        <ele>2619.7</ele>
        <time>2021-11-07T07:13:02Z</time>
      </trkpt>
      <trkpt lat="45.51287" lon="7.22532">
        <ele>2619.9</ele>
        <time>2021-11-07T07:13:03Z</time>
      </trkpt>
      <trkpt lat="45.51286" lon="7.22534">
        <ele>2620.3</ele>
        <time>2021-11-07T07:13:06Z</time>
      </trkpt>
      <trkpt lat="45.51283" lon="7.22538">
        <ele>2621.2</ele>
        <time>2021-11-07T07:13:11Z</time>
      </trkpt>
      <trkpt lat="45.51282" lon="7.2254">
        <ele>2621.5</ele>
        <time>2021-11-07T07:13:13Z</time>
      </trkpt>
      <trkpt lat="45.51282" lon="7.22541">
        <ele>2621.6</ele>
        <time>2021-11-07T07:13:15Z</time>
      </trkpt>
      <trkpt lat="45.51282" lon="7.22543">
        <ele>2621.9</ele>
        <time>2021-11-07T07:13:17Z</time>
      </trkpt>
      <trkpt lat="45.51281" lon="7.22545">
        <ele>2622.3</ele>
        <time>2021-11-07T07:13:19Z</time>
      </trkpt>
      <trkpt lat="45.5128" lon="7.22547">
        <ele>2622.6</ele>
        <time>2021-11-07T07:13:22Z</time>
      </trkpt>
      <trkpt lat="45.5128" lon="7.22548">
        <ele>2622.8</ele>
        <time>2021-11-07T07:13:23Z</time>
      </trkpt>
      <trkpt lat="45.51278" lon="7.22556">
        <ele>2623.9</ele>
        <time>2021-11-07T07:13:31Z</time>
      </trkpt>
      <trkpt lat="45.51278" lon="7.22558">
        <ele>2624.3</ele>
        <time>2021-11-07T07:13:33Z</time>
      </trkpt>
      <trkpt lat="45.51277" lon="7.2256">
        <ele>2624.6</ele>
        <time>2021-11-07T07:13:36Z</time>
      </trkpt>
      <trkpt lat="45.51273" lon="7.22562">
        <ele>2625.5</ele>
        <time>2021-11-07T07:13:43Z</time>
      </trkpt>
      <trkpt lat="45.51272" lon="7.22564">
        <ele>2625.7</ele>
        <time>2021-11-07T07:13:45Z</time>
      </trkpt>
      <trkpt lat="45.51271" lon="7.22566">
        <ele>2626</ele>
        <time>2021-11-07T07:13:47Z</time>
      </trkpt>
      <trkpt lat="45.51269" lon="7.22571">
        <ele>2626.7</ele>
        <time>2021-11-07T07:13:52Z</time>
      </trkpt>
      <trkpt lat="45.51267" lon="7.22573">
        <ele>2627.2</ele>
        <time>2021-11-07T07:13:56Z</time>
      </trkpt>
      <trkpt lat="45.51266" lon="7.22573">
        <ele>2627.4</ele>
        <time>2021-11-07T07:13:57Z</time>
      </trkpt>
      <trkpt lat="45.51264" lon="7.22576">
        <ele>2627.9</ele>
        <time>2021-11-07T07:14:01Z</time>
      </trkpt>
      <trkpt lat="45.51264" lon="7.22577">
        <ele>2628</ele>
        <time>2021-11-07T07:14:02Z</time>
      </trkpt>
      <trkpt lat="45.51263" lon="7.22578">
        <ele>2628.3</ele>
        <time>2021-11-07T07:14:04Z</time>
      </trkpt>
      <trkpt lat="45.51258" lon="7.22583">
        <ele>2629.4</ele>
        <time>2021-11-07T07:14:15Z</time>
      </trkpt>
      <trkpt lat="45.51259" lon="7.22585">
        <ele>2629.7</ele>
        <time>2021-11-07T07:14:17Z</time>
      </trkpt>
      <trkpt lat="45.51261" lon="7.22585">
        <ele>2630.1</ele>
        <time>2021-11-07T07:14:20Z</time>
      </trkpt>
      <trkpt lat="45.51262" lon="7.22583">
        <ele>2630.6</ele>
        <time>2021-11-07T07:14:23Z</time>
      </trkpt>
      <trkpt lat="45.51263" lon="7.22582">
        <ele>2630.8</ele>
        <time>2021-11-07T07:14:24Z</time>
      </trkpt>
      <trkpt lat="45.51264" lon="7.22582">
        <ele>2631</ele>
        <time>2021-11-07T07:14:25Z</time>
      </trkpt>
      <trkpt lat="45.51265" lon="7.22581">
        <ele>2631.3</ele>
        <time>2021-11-07T07:14:27Z</time>
      </trkpt>
      <trkpt lat="45.51267" lon="7.2258">
        <ele>2631.7</ele>
        <time>2021-11-07T07:14:29Z</time>
      </trkpt>
      <trkpt lat="45.5127" lon="7.22575">
        <ele>2632.8</ele>
        <time>2021-11-07T07:14:35Z</time>
      </trkpt>
      <trkpt lat="45.51272" lon="7.22572">
        <ele>2633.6</ele>
        <time>2021-11-07T07:14:39Z</time>
      </trkpt>
      <trkpt lat="45.51273" lon="7.22578">
        <ele>2634.7</ele>
        <time>2021-11-07T07:14:45Z</time>
      </trkpt>
      <trkpt lat="45.51273" lon="7.22579">
        <ele>2635</ele>
        <time>2021-11-07T07:14:46Z</time>
      </trkpt>
      <trkpt lat="45.51273" lon="7.2258">
        <ele>2635.2</ele>
        <time>2021-11-07T07:14:47Z</time>
      </trkpt>
      <trkpt lat="45.51273" lon="7.22584">
        <ele>2635.9</ele>
        <time>2021-11-07T07:14:51Z</time>
      </trkpt>
      <trkpt lat="45.51272" lon="7.22587">
        <ele>2636.5</ele>
        <time>2021-11-07T07:14:54Z</time>
      </trkpt>
      <trkpt lat="45.51271" lon="7.22588">
        <ele>2636.8</ele>
        <time>2021-11-07T07:14:56Z</time>
      </trkpt>
      <trkpt lat="45.51271" lon="7.22588">
        <ele>2637</ele>
        <time>2021-11-07T07:14:57Z</time>
      </trkpt>
      <trkpt lat="45.51269" lon="7.2259">
        <ele>2637.5</ele>
        <time>2021-11-07T07:15:00Z</time>
      </trkpt>
      <trkpt lat="45.51267" lon="7.22591">
        <ele>2638.1</ele>
        <time>2021-11-07T07:15:04Z</time>
      </trkpt>
      <trkpt lat="45.51266" lon="7.22593">
        <ele>2638.5</ele>
        <time>2021-11-07T07:15:07Z</time>
      </trkpt>
      <trkpt lat="45.51266" lon="7.22594">
        <ele>2638.6</ele>
        <time>2021-11-07T07:15:08Z</time>
      </trkpt>
      <trkpt lat="45.51266" lon="7.22594">
        <ele>2638.8</ele>
        <time>2021-11-07T07:15:09Z</time>
      </trkpt>
      <trkpt lat="45.51265" lon="7.22595">
        <ele>2639.1</ele>
        <time>2021-11-07T07:15:11Z</time>
      </trkpt>
      <trkpt lat="45.51262" lon="7.22596">
        <ele>2639.8</ele>
        <time>2021-11-07T07:15:15Z</time>
      </trkpt>
      <trkpt lat="45.51261" lon="7.22597">
        <ele>2640.3</ele>
        <time>2021-11-07T07:15:18Z</time>
      </trkpt>
      <trkpt lat="45.51259" lon="7.22597">
        <ele>2640.8</ele>
        <time>2021-11-07T07:15:22Z</time>
      </trkpt>
      <trkpt lat="45.51258" lon="7.22598">
        <ele>2641</ele>
        <time>2021-11-07T07:15:23Z</time>
      </trkpt>
      <trkpt lat="45.51255" lon="7.226">
        <ele>2641.9</ele>
        <time>2021-11-07T07:15:27Z</time>
      </trkpt>
      <trkpt lat="45.51253" lon="7.22604">
        <ele>2642.6</ele>
        <time>2021-11-07T07:15:31Z</time>
      </trkpt>
      <trkpt lat="45.51253" lon="7.22606">
        <ele>2642.9</ele>
        <time>2021-11-07T07:15:33Z</time>
      </trkpt>
      <trkpt lat="45.51253" lon="7.22608">
        <ele>2643.2</ele>
        <time>2021-11-07T07:15:35Z</time>
      </trkpt>
      <trkpt lat="45.51249" lon="7.22613">
        <ele>2644.5</ele>
        <time>2021-11-07T07:15:45Z</time>
      </trkpt>
      <trkpt lat="45.51251" lon="7.22618">
        <ele>2645.9</ele>
        <time>2021-11-07T07:15:51Z</time>
      </trkpt>
      <trkpt lat="45.51252" lon="7.22619">
        <ele>2646.4</ele>
        <time>2021-11-07T07:15:54Z</time>
      </trkpt>
      <trkpt lat="45.51253" lon="7.22622">
        <ele>2646.8</ele>
        <time>2021-11-07T07:15:58Z</time>
      </trkpt>
      <trkpt lat="45.51254" lon="7.22625">
        <ele>2647.5</ele>
        <time>2021-11-07T07:16:02Z</time>
      </trkpt>
      <trkpt lat="45.51254" lon="7.22627">
        <ele>2647.8</ele>
        <time>2021-11-07T07:16:04Z</time>
      </trkpt>
      <trkpt lat="45.51254" lon="7.22627">
        <ele>2648</ele>
        <time>2021-11-07T07:16:05Z</time>
      </trkpt>
      <trkpt lat="45.51254" lon="7.2263">
        <ele>2648.4</ele>
        <time>2021-11-07T07:16:07Z</time>
      </trkpt>
      <trkpt lat="45.51254" lon="7.22632">
        <ele>2648.8</ele>
        <time>2021-11-07T07:16:09Z</time>
      </trkpt>
      <trkpt lat="45.51255" lon="7.2264">
        <ele>2650.1</ele>
        <time>2021-11-07T07:16:15Z</time>
      </trkpt>
      <trkpt lat="45.51254" lon="7.22642">
        <ele>2650.4</ele>
        <time>2021-11-07T07:16:17Z</time>
      </trkpt>
      <trkpt lat="45.51254" lon="7.22643">
        <ele>2650.6</ele>
        <time>2021-11-07T07:16:19Z</time>
      </trkpt>
      <trkpt lat="45.51254" lon="7.22645">
        <ele>2651</ele>
        <time>2021-11-07T07:16:21Z</time>
      </trkpt>
      <trkpt lat="45.51254" lon="7.22646">
        <ele>2651.1</ele>
        <time>2021-11-07T07:16:22Z</time>
      </trkpt>
      <trkpt lat="45.51254" lon="7.22648">
        <ele>2651.5</ele>
        <time>2021-11-07T07:16:25Z</time>
      </trkpt>
      <trkpt lat="45.51254" lon="7.22651">
        <ele>2652</ele>
        <time>2021-11-07T07:16:28Z</time>
      </trkpt>
      <trkpt lat="45.51253" lon="7.22654">
        <ele>2652.4</ele>
        <time>2021-11-07T07:16:31Z</time>
      </trkpt>
      <trkpt lat="45.51251" lon="7.22657">
        <ele>2652.9</ele>
        <time>2021-11-07T07:16:36Z</time>
      </trkpt>
      <trkpt lat="45.51251" lon="7.22661">
        <ele>2653.6</ele>
        <time>2021-11-07T07:16:43Z</time>
      </trkpt>
      <trkpt lat="45.51251" lon="7.22667">
        <ele>2654.5</ele>
        <time>2021-11-07T07:16:49Z</time>
      </trkpt>
      <trkpt lat="45.51251" lon="7.22667">
        <ele>2654.6</ele>
        <time>2021-11-07T07:16:50Z</time>
      </trkpt>
      <trkpt lat="45.5125" lon="7.2267">
        <ele>2655</ele>
        <time>2021-11-07T07:16:53Z</time>
      </trkpt>
      <trkpt lat="45.51249" lon="7.22672">
        <ele>2655.4</ele>
        <time>2021-11-07T07:16:56Z</time>
      </trkpt>
      <trkpt lat="45.51249" lon="7.22673">
        <ele>2655.6</ele>
        <time>2021-11-07T07:16:58Z</time>
      </trkpt>
      <trkpt lat="45.51249" lon="7.22674">
        <ele>2655.8</ele>
        <time>2021-11-07T07:16:59Z</time>
      </trkpt>
      <trkpt lat="45.51248" lon="7.22674">
        <ele>2655.9</ele>
        <time>2021-11-07T07:17:00Z</time>
      </trkpt>
      <trkpt lat="45.51246" lon="7.22675">
        <ele>2656.4</ele>
        <time>2021-11-07T07:17:03Z</time>
      </trkpt>
      <trkpt lat="45.51245" lon="7.22676">
        <ele>2656.8</ele>
        <time>2021-11-07T07:17:07Z</time>
      </trkpt>
      <trkpt lat="45.51244" lon="7.22676">
        <ele>2656.9</ele>
        <time>2021-11-07T07:17:09Z</time>
      </trkpt>
      <trkpt lat="45.51243" lon="7.22677">
        <ele>2657.2</ele>
        <time>2021-11-07T07:17:12Z</time>
      </trkpt>
      <trkpt lat="45.5124" lon="7.2268">
        <ele>2658</ele>
        <time>2021-11-07T07:17:17Z</time>
      </trkpt>
      <trkpt lat="45.51238" lon="7.22683">
        <ele>2658.6</ele>
        <time>2021-11-07T07:17:22Z</time>
      </trkpt>
      <trkpt lat="45.51237" lon="7.22685">
        <ele>2658.9</ele>
        <time>2021-11-07T07:17:25Z</time>
      </trkpt>
      <trkpt lat="45.51235" lon="7.22691">
        <ele>2659.9</ele>
        <time>2021-11-07T07:17:31Z</time>
      </trkpt>
      <trkpt lat="45.51235" lon="7.22703">
        <ele>2661.9</ele>
        <time>2021-11-07T07:17:42Z</time>
      </trkpt>
      <trkpt lat="45.51235" lon="7.22705">
        <ele>2662.1</ele>
        <time>2021-11-07T07:17:43Z</time>
      </trkpt>
      <trkpt lat="45.51235" lon="7.22707">
        <ele>2662.5</ele>
        <time>2021-11-07T07:17:46Z</time>
      </trkpt>
      <trkpt lat="45.51235" lon="7.22708">
        <ele>2662.8</ele>
        <time>2021-11-07T07:17:48Z</time>
      </trkpt>
      <trkpt lat="45.51236" lon="7.22712">
        <ele>2663.4</ele>
        <time>2021-11-07T07:17:52Z</time>
      </trkpt>
      <trkpt lat="45.51237" lon="7.22713">
        <ele>2663.7</ele>
        <time>2021-11-07T07:17:53Z</time>
      </trkpt>
      <trkpt lat="45.5124" lon="7.22714">
        <ele>2664.4</ele>
        <time>2021-11-07T07:18:02Z</time>
      </trkpt>
      <trkpt lat="45.51244" lon="7.22713">
        <ele>2665.4</ele>
        <time>2021-11-07T07:18:09Z</time>
      </trkpt>
      <trkpt lat="45.51246" lon="7.22716">
        <ele>2666</ele>
        <time>2021-11-07T07:18:13Z</time>
      </trkpt>
      <trkpt lat="45.51247" lon="7.22718">
        <ele>2666.4</ele>
        <time>2021-11-07T07:18:16Z</time>
      </trkpt>
      <trkpt lat="45.51247" lon="7.2272">
        <ele>2666.7</ele>
        <time>2021-11-07T07:18:19Z</time>
      </trkpt>
      <trkpt lat="45.51249" lon="7.22724">
        <ele>2667.3</ele>
        <time>2021-11-07T07:18:23Z</time>
      </trkpt>
      <trkpt lat="45.51249" lon="7.22725">
        <ele>2667.5</ele>
        <time>2021-11-07T07:18:24Z</time>
      </trkpt>
      <trkpt lat="45.51248" lon="7.22727">
        <ele>2667.7</ele>
        <time>2021-11-07T07:18:26Z</time>
      </trkpt>
      <trkpt lat="45.51247" lon="7.22729">
        <ele>2668</ele>
        <time>2021-11-07T07:18:28Z</time>
      </trkpt>
      <trkpt lat="45.51246" lon="7.22732">
        <ele>2668.3</ele>
        <time>2021-11-07T07:18:30Z</time>
      </trkpt>
      <trkpt lat="45.51244" lon="7.22735">
        <ele>2668.8</ele>
        <time>2021-11-07T07:18:33Z</time>
      </trkpt>
      <trkpt lat="45.51243" lon="7.22739">
        <ele>2669.3</ele>
        <time>2021-11-07T07:18:36Z</time>
      </trkpt>
      <trkpt lat="45.51243" lon="7.22742">
        <ele>2669.6</ele>
        <time>2021-11-07T07:18:39Z</time>
      </trkpt>
      <trkpt lat="45.51243" lon="7.22744">
        <ele>2670</ele>
        <time>2021-11-07T07:18:42Z</time>
      </trkpt>
      <trkpt lat="45.51243" lon="7.22746">
        <ele>2670.1</ele>
        <time>2021-11-07T07:18:44Z</time>
      </trkpt>
      <trkpt lat="45.51244" lon="7.22749">
        <ele>2670.7</ele>
        <time>2021-11-07T07:18:50Z</time>
      </trkpt>
      <trkpt lat="45.51244" lon="7.22751">
        <ele>2670.9</ele>
        <time>2021-11-07T07:18:53Z</time>
      </trkpt>
      <trkpt lat="45.51244" lon="7.2276">
        <ele>2672.2</ele>
        <time>2021-11-07T07:19:01Z</time>
      </trkpt>
      <trkpt lat="45.51243" lon="7.22763">
        <ele>2672.6</ele>
        <time>2021-11-07T07:19:04Z</time>
      </trkpt>
      <trkpt lat="45.51242" lon="7.22768">
        <ele>2673.6</ele>
        <time>2021-11-07T07:19:10Z</time>
      </trkpt>
      <trkpt lat="45.51242" lon="7.22769">
        <ele>2673.7</ele>
        <time>2021-11-07T07:19:11Z</time>
      </trkpt>
      <trkpt lat="45.51242" lon="7.22771">
        <ele>2674.1</ele>
        <time>2021-11-07T07:19:14Z</time>
      </trkpt>
      <trkpt lat="45.51242" lon="7.22773">
        <ele>2674.3</ele>
        <time>2021-11-07T07:19:16Z</time>
      </trkpt>
      <trkpt lat="45.51243" lon="7.22774">
        <ele>2674.6</ele>
        <time>2021-11-07T07:19:17Z</time>
      </trkpt>
      <trkpt lat="45.51242" lon="7.22779">
        <ele>2675.5</ele>
        <time>2021-11-07T07:19:24Z</time>
      </trkpt>
      <trkpt lat="45.51243" lon="7.22783">
        <ele>2676.3</ele>
        <time>2021-11-07T07:19:30Z</time>
      </trkpt>
      <trkpt lat="45.51244" lon="7.22785">
        <ele>2676.7</ele>
        <time>2021-11-07T07:19:33Z</time>
      </trkpt>
      <trkpt lat="45.51245" lon="7.22786">
        <ele>2676.9</ele>
        <time>2021-11-07T07:19:34Z</time>
      </trkpt>
      <trkpt lat="45.51245" lon="7.22788">
        <ele>2677.4</ele>
        <time>2021-11-07T07:19:37Z</time>
      </trkpt>
      <trkpt lat="45.51245" lon="7.22795">
        <ele>2678.5</ele>
        <time>2021-11-07T07:19:43Z</time>
      </trkpt>
      <trkpt lat="45.51246" lon="7.22795">
        <ele>2678.6</ele>
        <time>2021-11-07T07:19:44Z</time>
      </trkpt>
      <trkpt lat="45.51248" lon="7.22805">
        <ele>2680.1</ele>
        <time>2021-11-07T07:19:55Z</time>
      </trkpt>
      <trkpt lat="45.51249" lon="7.22808">
        <ele>2680.6</ele>
        <time>2021-11-07T07:20:01Z</time>
      </trkpt>
      <trkpt lat="45.51249" lon="7.2281">
        <ele>2680.9</ele>
        <time>2021-11-07T07:20:03Z</time>
      </trkpt>
      <trkpt lat="45.51249" lon="7.22814">
        <ele>2681.5</ele>
        <time>2021-11-07T07:20:06Z</time>
      </trkpt>
      <trkpt lat="45.51249" lon="7.22815">
        <ele>2681.7</ele>
        <time>2021-11-07T07:20:07Z</time>
      </trkpt>
      <trkpt lat="45.51249" lon="7.22817">
        <ele>2681.9</ele>
        <time>2021-11-07T07:20:09Z</time>
      </trkpt>
      <trkpt lat="45.51247" lon="7.22817">
        <ele>2682.2</ele>
        <time>2021-11-07T07:20:11Z</time>
      </trkpt>
      <trkpt lat="45.51247" lon="7.2282">
        <ele>2682.7</ele>
        <time>2021-11-07T07:20:16Z</time>
      </trkpt>
      <trkpt lat="45.51251" lon="7.22828">
        <ele>2683.7</ele>
        <time>2021-11-07T07:20:26Z</time>
      </trkpt>
      <trkpt lat="45.51252" lon="7.22831">
        <ele>2684.1</ele>
        <time>2021-11-07T07:20:29Z</time>
      </trkpt>
      <trkpt lat="45.51257" lon="7.22842">
        <ele>2685</ele>
        <time>2021-11-07T07:20:41Z</time>
      </trkpt>
      <trkpt lat="45.51258" lon="7.22845">
        <ele>2685.2</ele>
        <time>2021-11-07T07:20:43Z</time>
      </trkpt>
      <trkpt lat="45.5126" lon="7.22856">
        <ele>2686</ele>
        <time>2021-11-07T07:20:52Z</time>
      </trkpt>
      <trkpt lat="45.5126" lon="7.22859">
        <ele>2686.2</ele>
        <time>2021-11-07T07:20:54Z</time>
      </trkpt>
      <trkpt lat="45.5126" lon="7.22865">
        <ele>2687</ele>
        <time>2021-11-07T07:20:59Z</time>
      </trkpt>
      <trkpt lat="45.5126" lon="7.22868">
        <ele>2687.5</ele>
        <time>2021-11-07T07:21:03Z</time>
      </trkpt>
      <trkpt lat="45.51261" lon="7.22876">
        <ele>2688.7</ele>
        <time>2021-11-07T07:21:12Z</time>
      </trkpt>
      <trkpt lat="45.51261" lon="7.22876">
        <ele>2688.9</ele>
        <time>2021-11-07T07:21:14Z</time>
      </trkpt>
      <trkpt lat="45.51263" lon="7.22881">
        <ele>2689.8</ele>
        <time>2021-11-07T07:21:19Z</time>
      </trkpt>
      <trkpt lat="45.51264" lon="7.22882">
        <ele>2690.2</ele>
        <time>2021-11-07T07:21:22Z</time>
      </trkpt>
      <trkpt lat="45.51265" lon="7.22882">
        <ele>2690.4</ele>
        <time>2021-11-07T07:21:23Z</time>
      </trkpt>
      <trkpt lat="45.51267" lon="7.22884">
        <ele>2691.3</ele>
        <time>2021-11-07T07:21:30Z</time>
      </trkpt>
      <trkpt lat="45.51268" lon="7.22887">
        <ele>2692</ele>
        <time>2021-11-07T07:21:33Z</time>
      </trkpt>
      <trkpt lat="45.51269" lon="7.22889">
        <ele>2692.5</ele>
        <time>2021-11-07T07:21:36Z</time>
      </trkpt>
      <trkpt lat="45.51269" lon="7.22891">
        <ele>2692.9</ele>
        <time>2021-11-07T07:21:38Z</time>
      </trkpt>
      <trkpt lat="45.51267" lon="7.22895">
        <ele>2693.9</ele>
        <time>2021-11-07T07:21:42Z</time>
      </trkpt>
      <trkpt lat="45.51268" lon="7.22898">
        <ele>2694.6</ele>
        <time>2021-11-07T07:21:45Z</time>
      </trkpt>
      <trkpt lat="45.51271" lon="7.22899">
        <ele>2695.3</ele>
        <time>2021-11-07T07:21:49Z</time>
      </trkpt>
      <trkpt lat="45.51272" lon="7.22899">
        <ele>2695.5</ele>
        <time>2021-11-07T07:21:51Z</time>
      </trkpt>
      <trkpt lat="45.51272" lon="7.22898">
        <ele>2695.7</ele>
        <time>2021-11-07T07:21:53Z</time>
      </trkpt>
      <trkpt lat="45.51271" lon="7.22897">
        <ele>2695.9</ele>
        <time>2021-11-07T07:21:56Z</time>
      </trkpt>
      <trkpt lat="45.51271" lon="7.22896">
        <ele>2696.2</ele>
        <time>2021-11-07T07:21:59Z</time>
      </trkpt>
      <trkpt lat="45.51271" lon="7.22897">
        <ele>2696.4</ele>
        <time>2021-11-07T07:22:05Z</time>
      </trkpt>
      <trkpt lat="45.5127" lon="7.22899">
        <ele>2696.8</ele>
        <time>2021-11-07T07:22:08Z</time>
      </trkpt>
      <trkpt lat="45.51269" lon="7.22898">
        <ele>2696.9</ele>
        <time>2021-11-07T07:22:11Z</time>
      </trkpt>
      <trkpt lat="45.51268" lon="7.22899">
        <ele>2697.2</ele>
        <time>2021-11-07T07:22:13Z</time>
      </trkpt>
      <trkpt lat="45.51267" lon="7.229">
        <ele>2697.4</ele>
        <time>2021-11-07T07:22:15Z</time>
      </trkpt>
      <trkpt lat="45.51267" lon="7.22901">
        <ele>2697.6</ele>
        <time>2021-11-07T07:22:16Z</time>
      </trkpt>
      <trkpt lat="45.51266" lon="7.22903">
        <ele>2698</ele>
        <time>2021-11-07T07:22:18Z</time>
      </trkpt>
      <trkpt lat="45.51266" lon="7.22904">
        <ele>2698.2</ele>
        <time>2021-11-07T07:22:19Z</time>
      </trkpt>
      <trkpt lat="45.51264" lon="7.22906">
        <ele>2698.6</ele>
        <time>2021-11-07T07:22:21Z</time>
      </trkpt>
      <trkpt lat="45.51262" lon="7.2291">
        <ele>2699.3</ele>
        <time>2021-11-07T07:22:24Z</time>
      </trkpt>
      <trkpt lat="45.51262" lon="7.22912">
        <ele>2699.5</ele>
        <time>2021-11-07T07:22:25Z</time>
      </trkpt>
      <trkpt lat="45.51262" lon="7.22913">
        <ele>2699.7</ele>
        <time>2021-11-07T07:22:26Z</time>
      </trkpt>
      <trkpt lat="45.51261" lon="7.22916">
        <ele>2700.2</ele>
        <time>2021-11-07T07:22:28Z</time>
      </trkpt>
      <trkpt lat="45.51258" lon="7.22923">
        <ele>2700.6</ele>
        <time>2021-11-07T07:22:33Z</time>
      </trkpt>
      <trkpt lat="45.51256" lon="7.22929">
        <ele>2701.2</ele>
        <time>2021-11-07T07:22:37Z</time>
      </trkpt>
      <trkpt lat="45.51256" lon="7.2293">
        <ele>2701.3</ele>
        <time>2021-11-07T07:22:38Z</time>
      </trkpt>
      <trkpt lat="45.51255" lon="7.22936">
        <ele>2701.9</ele>
        <time>2021-11-07T07:22:42Z</time>
      </trkpt>
      <trkpt lat="45.51254" lon="7.22943">
        <ele>2702.5</ele>
        <time>2021-11-07T07:22:47Z</time>
      </trkpt>
      <trkpt lat="45.51253" lon="7.22944">
        <ele>2702.7</ele>
        <time>2021-11-07T07:22:48Z</time>
      </trkpt>
      <trkpt lat="45.51253" lon="7.22945">
        <ele>2702.8</ele>
        <time>2021-11-07T07:22:49Z</time>
      </trkpt>
      <trkpt lat="45.51253" lon="7.22947">
        <ele>2703</ele>
        <time>2021-11-07T07:22:51Z</time>
      </trkpt>
      <trkpt lat="45.51253" lon="7.22953">
        <ele>2703.6</ele>
        <time>2021-11-07T07:22:55Z</time>
      </trkpt>
      <trkpt lat="45.51249" lon="7.22962">
        <ele>2705</ele>
        <time>2021-11-07T07:23:03Z</time>
      </trkpt>
      <trkpt lat="45.51247" lon="7.22966">
        <ele>2705.1</ele>
        <time>2021-11-07T07:23:07Z</time>
      </trkpt>
      <trkpt lat="45.51246" lon="7.2297">
        <ele>2705.2</ele>
        <time>2021-11-07T07:23:10Z</time>
      </trkpt>
      <trkpt lat="45.51244" lon="7.22977">
        <ele>2705.3</ele>
        <time>2021-11-07T07:23:15Z</time>
      </trkpt>
      <trkpt lat="45.51245" lon="7.22979">
        <ele>2705.4</ele>
        <time>2021-11-07T07:23:17Z</time>
      </trkpt>
      <trkpt lat="45.51247" lon="7.22983">
        <ele>2705.4</ele>
        <time>2021-11-07T07:23:20Z</time>
      </trkpt>
      <trkpt lat="45.51247" lon="7.22984">
        <ele>2705.4</ele>
        <time>2021-11-07T07:23:21Z</time>
      </trkpt>
      <trkpt lat="45.51248" lon="7.22985">
        <ele>2705.5</ele>
        <time>2021-11-07T07:23:22Z</time>
      </trkpt>
      <trkpt lat="45.51249" lon="7.22986">
        <ele>2705.5</ele>
        <time>2021-11-07T07:23:23Z</time>
      </trkpt>
      <trkpt lat="45.51251" lon="7.22983">
        <ele>2705.6</ele>
        <time>2021-11-07T07:23:27Z</time>
      </trkpt>
      <trkpt lat="45.51253" lon="7.22982">
        <ele>2705.6</ele>
        <time>2021-11-07T07:23:29Z</time>
      </trkpt>
      <trkpt lat="45.51259" lon="7.22976">
        <ele>2705.8</ele>
        <time>2021-11-07T07:23:37Z</time>
      </trkpt>
      <trkpt lat="45.5126" lon="7.22976">
        <ele>2705.8</ele>
        <time>2021-11-07T07:23:39Z</time>
      </trkpt>
      <trkpt lat="45.51262" lon="7.22976">
        <ele>2705.8</ele>
        <time>2021-11-07T07:23:40Z</time>
      </trkpt>
      <trkpt lat="45.51262" lon="7.22975">
        <ele>2705.8</ele>
        <time>2021-11-07T07:23:42Z</time>
      </trkpt>
      <trkpt lat="45.51263" lon="7.22976">
        <ele>2705.9</ele>
        <time>2021-11-07T07:23:43Z</time>
      </trkpt>
      <trkpt lat="45.51264" lon="7.22972">
        <ele>2705.9</ele>
        <time>2021-11-07T07:23:48Z</time>
      </trkpt>
      <trkpt lat="45.51264" lon="7.22972">
        <ele>2705.9</ele>
        <time>2021-11-07T07:23:49Z</time>
      </trkpt>
      <trkpt lat="45.51264" lon="7.22969">
        <ele>2706</ele>
        <time>2021-11-07T07:23:51Z</time>
      </trkpt>
      <trkpt lat="45.51265" lon="7.22962">
        <ele>2706.1</ele>
        <time>2021-11-07T07:23:56Z</time>
      </trkpt>
      <trkpt lat="45.51268" lon="7.22956">
        <ele>2706.2</ele>
        <time>2021-11-07T07:24:01Z</time>
      </trkpt>
      <trkpt lat="45.51269" lon="7.22959">
        <ele>2706.2</ele>
        <time>2021-11-07T07:24:06Z</time>
      </trkpt>
      <trkpt lat="45.51268" lon="7.22965">
        <ele>2706.3</ele>
        <time>2021-11-07T07:24:09Z</time>
      </trkpt>
      <trkpt lat="45.51267" lon="7.22969">
        <ele>2706.4</ele>
        <time>2021-11-07T07:24:12Z</time>
      </trkpt>
      <trkpt lat="45.51266" lon="7.22972">
        <ele>2706.5</ele>
        <time>2021-11-07T07:24:14Z</time>
      </trkpt>
      <trkpt lat="45.51265" lon="7.22978">
        <ele>2706.5</ele>
        <time>2021-11-07T07:24:17Z</time>
      </trkpt>
      <trkpt lat="45.51264" lon="7.22983">
        <ele>2710.2</ele>
        <time>2021-11-07T07:24:21Z</time>
      </trkpt>
      <trkpt lat="45.51264" lon="7.22985">
        <ele>2710.2</ele>
        <time>2021-11-07T07:24:23Z</time>
      </trkpt>
      <trkpt lat="45.51264" lon="7.22986">
        <ele>2710.2</ele>
        <time>2021-11-07T07:24:24Z</time>
      </trkpt>
      <trkpt lat="45.51265" lon="7.22987">
        <ele>2710.2</ele>
        <time>2021-11-07T07:24:25Z</time>
      </trkpt>
      <trkpt lat="45.51265" lon="7.22988">
        <ele>2710.2</ele>
        <time>2021-11-07T07:24:26Z</time>
      </trkpt>
      <trkpt lat="45.51265" lon="7.22987">
        <ele>2710.2</ele>
        <time>2021-11-07T07:24:27Z</time>
      </trkpt>
      <trkpt lat="45.51266" lon="7.22985">
        <ele>2710.3</ele>
        <time>2021-11-07T07:24:30Z</time>
      </trkpt>
      <trkpt lat="45.51269" lon="7.22986">
        <ele>2710.3</ele>
        <time>2021-11-07T07:24:34Z</time>
      </trkpt>
      <trkpt lat="45.51268" lon="7.22986">
        <ele>2710.3</ele>
        <time>2021-11-07T07:24:36Z</time>
      </trkpt>
      <trkpt lat="45.51268" lon="7.22987">
        <ele>2710.3</ele>
        <time>2021-11-07T07:24:42Z</time>
      </trkpt>
      <trkpt lat="45.51268" lon="7.22987">
        <ele>2710.3</ele>
        <time>2021-11-07T07:24:43Z</time>
      </trkpt>
      <trkpt lat="45.51268" lon="7.22987">
        <ele>2710.3</ele>
        <time>2021-11-07T07:24:46Z</time>
      </trkpt>
      <trkpt lat="45.51267" lon="7.22987">
        <ele>2710.3</ele>
        <time>2021-11-07T07:24:47Z</time>
      </trkpt>
      <trkpt lat="45.51262" lon="7.22984">
        <ele>2710.4</ele>
        <time>2021-11-07T07:24:53Z</time>
      </trkpt>
      <trkpt lat="45.51261" lon="7.22982">
        <ele>2710.4</ele>
        <time>2021-11-07T07:24:54Z</time>
      </trkpt>
      <trkpt lat="45.5126" lon="7.2298">
        <ele>2710.4</ele>
        <time>2021-11-07T07:24:58Z</time>
      </trkpt>
      <trkpt lat="45.5126" lon="7.22977">
        <ele>2710.4</ele>
        <time>2021-11-07T07:25:00Z</time>
      </trkpt>
      <trkpt lat="45.5126" lon="7.22975">
        <ele>2710.4</ele>
        <time>2021-11-07T07:25:01Z</time>
      </trkpt>
      <trkpt lat="45.51261" lon="7.22974">
        <ele>2710.4</ele>
        <time>2021-11-07T07:25:02Z</time>
      </trkpt>
      <trkpt lat="45.51262" lon="7.22971">
        <ele>2710.5</ele>
        <time>2021-11-07T07:25:04Z</time>
      </trkpt>
      <trkpt lat="45.51262" lon="7.22969">
        <ele>2710.5</ele>
        <time>2021-11-07T07:25:07Z</time>
      </trkpt>
      <trkpt lat="45.51262" lon="7.22967">
        <ele>2710.5</ele>
        <time>2021-11-07T07:25:08Z</time>
      </trkpt>
      <trkpt lat="45.51263" lon="7.22966">
        <ele>2710.5</ele>
        <time>2021-11-07T07:25:09Z</time>
      </trkpt>
      <trkpt lat="45.51266" lon="7.2296">
        <ele>2710.6</ele>
        <time>2021-11-07T07:25:13Z</time>
      </trkpt>
      <trkpt lat="45.51267" lon="7.22951">
        <ele>2710.6</ele>
        <time>2021-11-07T07:25:18Z</time>
      </trkpt>
      <trkpt lat="45.51268" lon="7.22948">
        <ele>2710.6</ele>
        <time>2021-11-07T07:25:20Z</time>
      </trkpt>
      <trkpt lat="45.51269" lon="7.22944">
        <ele>2710.7</ele>
        <time>2021-11-07T07:25:26Z</time>
      </trkpt>
      <trkpt lat="45.51269" lon="7.22946">
        <ele>2710.7</ele>
        <time>2021-11-07T07:25:28Z</time>
      </trkpt>
      <trkpt lat="45.51267" lon="7.22949">
        <ele>2710.7</ele>
        <time>2021-11-07T07:25:31Z</time>
      </trkpt>
      <trkpt lat="45.51267" lon="7.22951">
        <ele>2710.7</ele>
        <time>2021-11-07T07:25:32Z</time>
      </trkpt>
      <trkpt lat="45.51266" lon="7.22952">
        <ele>2710.7</ele>
        <time>2021-11-07T07:25:33Z</time>
      </trkpt>
      <trkpt lat="45.51266" lon="7.22955">
        <ele>2710.8</ele>
        <time>2021-11-07T07:25:35Z</time>
      </trkpt>
      <trkpt lat="45.51265" lon="7.22959">
        <ele>2710.8</ele>
        <time>2021-11-07T07:25:37Z</time>
      </trkpt>
      <trkpt lat="45.51265" lon="7.22961">
        <ele>2710.8</ele>
        <time>2021-11-07T07:25:38Z</time>
      </trkpt>
      <trkpt lat="45.51264" lon="7.22965">
        <ele>2710.8</ele>
        <time>2021-11-07T07:25:40Z</time>
      </trkpt>
      <trkpt lat="45.51264" lon="7.22968">
        <ele>2710.9</ele>
        <time>2021-11-07T07:25:42Z</time>
      </trkpt>
      <trkpt lat="45.51263" lon="7.2297">
        <ele>2710.9</ele>
        <time>2021-11-07T07:25:43Z</time>
      </trkpt>
      <trkpt lat="45.51264" lon="7.22971">
        <ele>2710.9</ele>
        <time>2021-11-07T07:25:46Z</time>
      </trkpt>
      <trkpt lat="45.51265" lon="7.22971">
        <ele>2710.9</ele>
        <time>2021-11-07T07:25:49Z</time>
      </trkpt>
      <trkpt lat="45.51265" lon="7.22972">
        <ele>2710.9</ele>
        <time>2021-11-07T07:25:53Z</time>
      </trkpt>
      <trkpt lat="45.51266" lon="7.22972">
        <ele>2710.9</ele>
        <time>2021-11-07T07:25:56Z</time>
      </trkpt>
      <trkpt lat="45.51266" lon="7.22972">
        <ele>2710.9</ele>
        <time>2021-11-07T07:25:59Z</time>
      </trkpt>
      <trkpt lat="45.51267" lon="7.22973">
        <ele>2710.9</ele>
        <time>2021-11-07T07:26:03Z</time>
      </trkpt>
      <trkpt lat="45.51267" lon="7.22973">
        <ele>2710.9</ele>
        <time>2021-11-07T07:26:04Z</time>
      </trkpt>
      <trkpt lat="45.51267" lon="7.22976">
        <ele>2710.9</ele>
        <time>2021-11-07T07:26:09Z</time>
      </trkpt>
      <trkpt lat="45.51266" lon="7.22981">
        <ele>2711</ele>
        <time>2021-11-07T07:26:14Z</time>
      </trkpt>
      <trkpt lat="45.51266" lon="7.22981">
        <ele>2711</ele>
        <time>2021-11-07T07:26:15Z</time>
      </trkpt>
      <trkpt lat="45.51266" lon="7.22981">
        <ele>2711</ele>
        <time>2021-11-07T07:26:16Z</time>
      </trkpt>
      <trkpt lat="45.51266" lon="7.22986">
        <ele>2711</ele>
        <time>2021-11-07T07:26:25Z</time>
      </trkpt>
      <trkpt lat="45.51265" lon="7.22984">
        <ele>2711</ele>
        <time>2021-11-07T07:26:26Z</time>
      </trkpt>
      <trkpt lat="45.51263" lon="7.22984">
        <ele>2711</ele>
        <time>2021-11-07T07:26:27Z</time>
      </trkpt>
      <trkpt lat="45.51263" lon="7.22986">
        <ele>2711.1</ele>
        <time>2021-11-07T07:26:30Z</time>
      </trkpt>
      <trkpt lat="45.51263" lon="7.22989">
        <ele>2711.1</ele>
        <time>2021-11-07T07:26:32Z</time>
      </trkpt>
      <trkpt lat="45.51262" lon="7.22992">
        <ele>2711.1</ele>
        <time>2021-11-07T07:26:34Z</time>
      </trkpt>
      <trkpt lat="45.51262" lon="7.22993">
        <ele>2711.1</ele>
        <time>2021-11-07T07:26:35Z</time>
      </trkpt>
      <trkpt lat="45.51261" lon="7.23008">
        <ele>2711.2</ele>
        <time>2021-11-07T07:26:43Z</time>
      </trkpt>
      <trkpt lat="45.51261" lon="7.23012">
        <ele>2711.2</ele>
        <time>2021-11-07T07:26:45Z</time>
      </trkpt>
      <trkpt lat="45.51261" lon="7.23018">
        <ele>2711.3</ele>
        <time>2021-11-07T07:26:48Z</time>
      </trkpt>
      <trkpt lat="45.51261" lon="7.2302">
        <ele>2711.3</ele>
        <time>2021-11-07T07:26:49Z</time>
      </trkpt>
      <trkpt lat="45.51261" lon="7.23023">
        <ele>2711.3</ele>
        <time>2021-11-07T07:26:51Z</time>
      </trkpt>
      <trkpt lat="45.51261" lon="7.23026">
        <ele>2711.3</ele>
        <time>2021-11-07T07:26:53Z</time>
      </trkpt>
      <trkpt lat="45.51261" lon="7.23029">
        <ele>2711.3</ele>
        <time>2021-11-07T07:26:55Z</time>
      </trkpt>
      <trkpt lat="45.51261" lon="7.23032">
        <ele>2711.3</ele>
        <time>2021-11-07T07:26:57Z</time>
      </trkpt>
      <trkpt lat="45.51262" lon="7.23034">
        <ele>2711.3</ele>
        <time>2021-11-07T07:26:59Z</time>
      </trkpt>
      <trkpt lat="45.51262" lon="7.23037">
        <ele>2711.3</ele>
        <time>2021-11-07T07:27:01Z</time>
      </trkpt>
      <trkpt lat="45.51262" lon="7.2304">
        <ele>2711.3</ele>
        <time>2021-11-07T07:27:03Z</time>
      </trkpt>
      <trkpt lat="45.51263" lon="7.23044">
        <ele>2711.3</ele>
        <time>2021-11-07T07:27:05Z</time>
      </trkpt>
      <trkpt lat="45.51263" lon="7.23048">
        <ele>2711.3</ele>
        <time>2021-11-07T07:27:08Z</time>
      </trkpt>
      <trkpt lat="45.51264" lon="7.23051">
        <ele>2711.3</ele>
        <time>2021-11-07T07:27:11Z</time>
      </trkpt>
      <trkpt lat="45.51265" lon="7.23054">
        <ele>2711.3</ele>
        <time>2021-11-07T07:27:13Z</time>
      </trkpt>
      <trkpt lat="45.51265" lon="7.23056">
        <ele>2711.3</ele>
        <time>2021-11-07T07:27:16Z</time>
      </trkpt>
      <trkpt lat="45.51264" lon="7.23057">
        <ele>2711.3</ele>
        <time>2021-11-07T07:27:17Z</time>
      </trkpt>
      <trkpt lat="45.51264" lon="7.23058">
        <ele>2711.3</ele>
        <time>2021-11-07T07:27:18Z</time>
      </trkpt>
      <trkpt lat="45.51265" lon="7.23062">
        <ele>2711.3</ele>
        <time>2021-11-07T07:27:28Z</time>
      </trkpt>
      <trkpt lat="45.51265" lon="7.23062">
        <ele>2711.3</ele>
        <time>2021-11-07T07:27:29Z</time>
      </trkpt>
      <trkpt lat="45.51265" lon="7.23063">
        <ele>2711.3</ele>
        <time>2021-11-07T07:27:31Z</time>
      </trkpt>
      <trkpt lat="45.51265" lon="7.23064">
        <ele>2711.3</ele>
        <time>2021-11-07T07:27:33Z</time>
      </trkpt>
      <trkpt lat="45.51263" lon="7.23065">
        <ele>2711.3</ele>
        <time>2021-11-07T07:27:36Z</time>
      </trkpt>
      <trkpt lat="45.51263" lon="7.23063">
        <ele>2711.3</ele>
        <time>2021-11-07T07:27:41Z</time>
      </trkpt>
      <trkpt lat="45.5126" lon="7.23058">
        <ele>2711.3</ele>
        <time>2021-11-07T07:27:53Z</time>
      </trkpt>
      <trkpt lat="45.51259" lon="7.23057">
        <ele>2711.3</ele>
        <time>2021-11-07T07:27:57Z</time>
      </trkpt>
      <trkpt lat="45.51259" lon="7.23056">
        <ele>2711.3</ele>
        <time>2021-11-07T07:28:01Z</time>
      </trkpt>
      <trkpt lat="45.5126" lon="7.23056">
        <ele>2711.3</ele>
        <time>2021-11-07T07:28:03Z</time>
      </trkpt>
      <trkpt lat="45.5126" lon="7.23056">
        <ele>2711.3</ele>
        <time>2021-11-07T07:28:09Z</time>
      </trkpt>
      <trkpt lat="45.5126" lon="7.23056">
        <ele>2711.3</ele>
        <time>2021-11-07T07:28:12Z</time>
      </trkpt>
      <trkpt lat="45.5126" lon="7.23056">
        <ele>2711.3</ele>
        <time>2021-11-07T07:28:14Z</time>
      </trkpt>
      <trkpt lat="45.5126" lon="7.23056">
        <ele>2711.3</ele>
        <time>2021-11-07T07:28:17Z</time>
      </trkpt>
      <trkpt lat="45.5126" lon="7.23056">
        <ele>2711.3</ele>
        <time>2021-11-07T07:28:21Z</time>
      </trkpt>
      <trkpt lat="45.51264" lon="7.23051">
        <ele>2710.7</ele>
        <time>2021-11-07T07:47:10Z</time>
      </trkpt>
      <trkpt lat="45.51264" lon="7.23051">
        <ele>2710.7</ele>
        <time>2021-11-07T07:47:11Z</time>
      </trkpt>
      <trkpt lat="45.51267" lon="7.23051">
        <ele>2710.5</ele>
        <time>2021-11-07T07:47:14Z</time>
      </trkpt>
      <trkpt lat="45.5127" lon="7.23049">
        <ele>2710.2</ele>
        <time>2021-11-07T07:47:19Z</time>
      </trkpt>
      <trkpt lat="45.51272" lon="7.23048">
        <ele>2710.1</ele>
        <time>2021-11-07T07:47:21Z</time>
      </trkpt>
      <trkpt lat="45.51274" lon="7.23046">
        <ele>2709.9</ele>
        <time>2021-11-07T07:47:25Z</time>
      </trkpt>
      <trkpt lat="45.51282" lon="7.23045">
        <ele>2709.4</ele>
        <time>2021-11-07T07:47:36Z</time>
      </trkpt>
      <trkpt lat="45.51284" lon="7.23044">
        <ele>2709.3</ele>
        <time>2021-11-07T07:47:40Z</time>
      </trkpt>
      <trkpt lat="45.51285" lon="7.23043">
        <ele>2709.3</ele>
        <time>2021-11-07T07:47:43Z</time>
      </trkpt>
      <trkpt lat="45.51286" lon="7.23044">
        <ele>2709.2</ele>
        <time>2021-11-07T07:47:49Z</time>
      </trkpt>
      <trkpt lat="45.51286" lon="7.23044">
        <ele>2709.2</ele>
        <time>2021-11-07T07:47:51Z</time>
      </trkpt>
      <trkpt lat="45.51286" lon="7.23042">
        <ele>2709.2</ele>
        <time>2021-11-07T07:47:53Z</time>
      </trkpt>
      <trkpt lat="45.51288" lon="7.23039">
        <ele>2709.1</ele>
        <time>2021-11-07T07:47:57Z</time>
      </trkpt>
      <trkpt lat="45.5129" lon="7.23037">
        <ele>2709</ele>
        <time>2021-11-07T07:48:00Z</time>
      </trkpt>
      <trkpt lat="45.51292" lon="7.23034">
        <ele>2709</ele>
        <time>2021-11-07T07:48:05Z</time>
      </trkpt>
      <trkpt lat="45.51292" lon="7.23033">
        <ele>2709</ele>
        <time>2021-11-07T07:48:06Z</time>
      </trkpt>
      <trkpt lat="45.51293" lon="7.23031">
        <ele>2709</ele>
        <time>2021-11-07T07:48:11Z</time>
      </trkpt>
      <trkpt lat="45.51295" lon="7.23028">
        <ele>2709.1</ele>
        <time>2021-11-07T07:48:15Z</time>
      </trkpt>
      <trkpt lat="45.51296" lon="7.23025">
        <ele>2709.1</ele>
        <time>2021-11-07T07:48:18Z</time>
      </trkpt>
      <trkpt lat="45.51296" lon="7.23024">
        <ele>2709.1</ele>
        <time>2021-11-07T07:48:20Z</time>
      </trkpt>
      <trkpt lat="45.51298" lon="7.23023">
        <ele>2709.2</ele>
        <time>2021-11-07T07:48:23Z</time>
      </trkpt>
      <trkpt lat="45.51298" lon="7.23022">
        <ele>2709.2</ele>
        <time>2021-11-07T07:48:24Z</time>
      </trkpt>
      <trkpt lat="45.51301" lon="7.2302">
        <ele>2709.3</ele>
        <time>2021-11-07T07:48:28Z</time>
      </trkpt>
      <trkpt lat="45.51303" lon="7.2302">
        <ele>2709.4</ele>
        <time>2021-11-07T07:48:30Z</time>
      </trkpt>
      <trkpt lat="45.51304" lon="7.23018">
        <ele>2709.4</ele>
        <time>2021-11-07T07:48:38Z</time>
      </trkpt>
      <trkpt lat="45.51304" lon="7.23017">
        <ele>2709.5</ele>
        <time>2021-11-07T07:48:41Z</time>
      </trkpt>
      <trkpt lat="45.51306" lon="7.23013">
        <ele>2709.6</ele>
        <time>2021-11-07T07:48:45Z</time>
      </trkpt>
      <trkpt lat="45.51307" lon="7.23011">
        <ele>2709.7</ele>
        <time>2021-11-07T07:48:48Z</time>
      </trkpt>
      <trkpt lat="45.51309" lon="7.23009">
        <ele>2709.8</ele>
        <time>2021-11-07T07:48:51Z</time>
      </trkpt>
      <trkpt lat="45.5131" lon="7.23008">
        <ele>2709.8</ele>
        <time>2021-11-07T07:48:53Z</time>
      </trkpt>
      <trkpt lat="45.51315" lon="7.23015">
        <ele>2710</ele>
        <time>2021-11-07T07:49:04Z</time>
      </trkpt>
      <trkpt lat="45.51316" lon="7.23018">
        <ele>2710.1</ele>
        <time>2021-11-07T07:49:06Z</time>
      </trkpt>
      <trkpt lat="45.51318" lon="7.23022">
        <ele>2710.2</ele>
        <time>2021-11-07T07:49:10Z</time>
      </trkpt>
      <trkpt lat="45.51323" lon="7.23025">
        <ele>2710.3</ele>
        <time>2021-11-07T07:49:15Z</time>
      </trkpt>
      <trkpt lat="45.51327" lon="7.23027">
        <ele>2710.3</ele>
        <time>2021-11-07T07:49:19Z</time>
      </trkpt>
      <trkpt lat="45.51333" lon="7.2303">
        <ele>2710.4</ele>
        <time>2021-11-07T07:49:26Z</time>
      </trkpt>
      <trkpt lat="45.51335" lon="7.23033">
        <ele>2710.5</ele>
        <time>2021-11-07T07:49:30Z</time>
      </trkpt>
      <trkpt lat="45.5134" lon="7.23034">
        <ele>2710.6</ele>
        <time>2021-11-07T07:49:37Z</time>
      </trkpt>
      <trkpt lat="45.51345" lon="7.23041">
        <ele>2710.7</ele>
        <time>2021-11-07T07:49:46Z</time>
      </trkpt>
      <trkpt lat="45.51349" lon="7.23042">
        <ele>2710.8</ele>
        <time>2021-11-07T07:49:51Z</time>
      </trkpt>
      <trkpt lat="45.51354" lon="7.23041">
        <ele>2711</ele>
        <time>2021-11-07T07:49:57Z</time>
      </trkpt>
      <trkpt lat="45.51358" lon="7.23039">
        <ele>2711.3</ele>
        <time>2021-11-07T07:50:02Z</time>
      </trkpt>
      <trkpt lat="45.5136" lon="7.23037">
        <ele>2711.5</ele>
        <time>2021-11-07T07:50:06Z</time>
      </trkpt>
      <trkpt lat="45.51361" lon="7.23037">
        <ele>2711.5</ele>
        <time>2021-11-07T07:50:08Z</time>
      </trkpt>
      <trkpt lat="45.51362" lon="7.23037">
        <ele>2711.6</ele>
        <time>2021-11-07T07:50:09Z</time>
      </trkpt>
      <trkpt lat="45.51365" lon="7.23038">
        <ele>2711.8</ele>
        <time>2021-11-07T07:50:13Z</time>
      </trkpt>
      <trkpt lat="45.51368" lon="7.23038">
        <ele>2712.1</ele>
        <time>2021-11-07T07:50:19Z</time>
      </trkpt>
      <trkpt lat="45.51371" lon="7.23039">
        <ele>2712.4</ele>
        <time>2021-11-07T07:50:26Z</time>
      </trkpt>
      <trkpt lat="45.51372" lon="7.23039">
        <ele>2712.5</ele>
        <time>2021-11-07T07:50:28Z</time>
      </trkpt>
      <trkpt lat="45.51376" lon="7.23045">
        <ele>2713</ele>
        <time>2021-11-07T07:50:37Z</time>
      </trkpt>
      <trkpt lat="45.51378" lon="7.23047">
        <ele>2713.2</ele>
        <time>2021-11-07T07:50:41Z</time>
      </trkpt>
      <trkpt lat="45.51379" lon="7.23047">
        <ele>2713.3</ele>
        <time>2021-11-07T07:50:42Z</time>
      </trkpt>
      <trkpt lat="45.51379" lon="7.23047">
        <ele>2713.3</ele>
        <time>2021-11-07T07:50:43Z</time>
      </trkpt>
      <trkpt lat="45.5138" lon="7.23047">
        <ele>2713.4</ele>
        <time>2021-11-07T07:50:45Z</time>
      </trkpt>
      <trkpt lat="45.5138" lon="7.23048">
        <ele>2713.4</ele>
        <time>2021-11-07T07:50:46Z</time>
      </trkpt>
      <trkpt lat="45.51385" lon="7.2305">
        <ele>2713.9</ele>
        <time>2021-11-07T07:50:55Z</time>
      </trkpt>
      <trkpt lat="45.51386" lon="7.23051">
        <ele>2713.9</ele>
        <time>2021-11-07T07:50:56Z</time>
      </trkpt>
      <trkpt lat="45.51387" lon="7.23053">
        <ele>2714.1</ele>
        <time>2021-11-07T07:50:58Z</time>
      </trkpt>
      <trkpt lat="45.51389" lon="7.23052">
        <ele>2714.4</ele>
        <time>2021-11-07T07:51:04Z</time>
      </trkpt>
      <trkpt lat="45.51392" lon="7.2305">
        <ele>2714.7</ele>
        <time>2021-11-07T07:51:14Z</time>
      </trkpt>
      <trkpt lat="45.51392" lon="7.2305">
        <ele>2714.8</ele>
        <time>2021-11-07T07:51:16Z</time>
      </trkpt>
      <trkpt lat="45.51394" lon="7.23053">
        <ele>2715.2</ele>
        <time>2021-11-07T07:51:21Z</time>
      </trkpt>
      <trkpt lat="45.51395" lon="7.23054">
        <ele>2715.3</ele>
        <time>2021-11-07T07:51:23Z</time>
      </trkpt>
      <trkpt lat="45.51396" lon="7.23055">
        <ele>2715.5</ele>
        <time>2021-11-07T07:51:30Z</time>
      </trkpt>
      <trkpt lat="45.51398" lon="7.23054">
        <ele>2715.8</ele>
        <time>2021-11-07T07:51:33Z</time>
      </trkpt>
      <trkpt lat="45.51402" lon="7.23052">
        <ele>2716.5</ele>
        <time>2021-11-07T07:51:43Z</time>
      </trkpt>
      <trkpt lat="45.51404" lon="7.23053">
        <ele>2716.9</ele>
        <time>2021-11-07T07:51:47Z</time>
      </trkpt>
      <trkpt lat="45.51405" lon="7.23053">
        <ele>2717</ele>
        <time>2021-11-07T07:51:51Z</time>
      </trkpt>
      <trkpt lat="45.51405" lon="7.23053">
        <ele>2717.1</ele>
        <time>2021-11-07T07:51:53Z</time>
      </trkpt>
      <trkpt lat="45.51407" lon="7.23056">
        <ele>2717.5</ele>
        <time>2021-11-07T07:51:59Z</time>
      </trkpt>
      <trkpt lat="45.51407" lon="7.23056">
        <ele>2717.5</ele>
        <time>2021-11-07T07:52:00Z</time>
      </trkpt>
      <trkpt lat="45.51408" lon="7.23056">
        <ele>2717.6</ele>
        <time>2021-11-07T07:52:02Z</time>
      </trkpt>
      <trkpt lat="45.51408" lon="7.23056">
        <ele>2717.7</ele>
        <time>2021-11-07T07:52:03Z</time>
      </trkpt>
      <trkpt lat="45.51408" lon="7.23056">
        <ele>2717.7</ele>
        <time>2021-11-07T07:52:05Z</time>
      </trkpt>
      <trkpt lat="45.51409" lon="7.23055">
        <ele>2717.9</ele>
        <time>2021-11-07T07:52:10Z</time>
      </trkpt>
      <trkpt lat="45.5141" lon="7.23054">
        <ele>2718</ele>
        <time>2021-11-07T07:52:12Z</time>
      </trkpt>
      <trkpt lat="45.51411" lon="7.23054">
        <ele>2718.3</ele>
        <time>2021-11-07T07:52:16Z</time>
      </trkpt>
      <trkpt lat="45.51413" lon="7.23053">
        <ele>2718.7</ele>
        <time>2021-11-07T07:52:22Z</time>
      </trkpt>
      <trkpt lat="45.51415" lon="7.23054">
        <ele>2719.1</ele>
        <time>2021-11-07T07:52:28Z</time>
      </trkpt>
      <trkpt lat="45.51417" lon="7.23056">
        <ele>2719.6</ele>
        <time>2021-11-07T07:52:31Z</time>
      </trkpt>
      <trkpt lat="45.51417" lon="7.23057">
        <ele>2719.7</ele>
        <time>2021-11-07T07:52:32Z</time>
      </trkpt>
      <trkpt lat="45.51417" lon="7.23059">
        <ele>2720</ele>
        <time>2021-11-07T07:52:34Z</time>
      </trkpt>
      <trkpt lat="45.51418" lon="7.2306">
        <ele>2720.2</ele>
        <time>2021-11-07T07:52:35Z</time>
      </trkpt>
      <trkpt lat="45.51418" lon="7.2306">
        <ele>2720.3</ele>
        <time>2021-11-07T07:52:36Z</time>
      </trkpt>
      <trkpt lat="45.51419" lon="7.23061">
        <ele>2720.5</ele>
        <time>2021-11-07T07:52:37Z</time>
      </trkpt>
      <trkpt lat="45.5142" lon="7.23066">
        <ele>2721.2</ele>
        <time>2021-11-07T07:52:42Z</time>
      </trkpt>
      <trkpt lat="45.51422" lon="7.23066">
        <ele>2721.6</ele>
        <time>2021-11-07T07:52:45Z</time>
      </trkpt>
      <trkpt lat="45.51424" lon="7.23065">
        <ele>2721.9</ele>
        <time>2021-11-07T07:52:47Z</time>
      </trkpt>
      <trkpt lat="45.51425" lon="7.23065">
        <ele>2722.3</ele>
        <time>2021-11-07T07:52:49Z</time>
      </trkpt>
      <trkpt lat="45.51428" lon="7.23066">
        <ele>2722.8</ele>
        <time>2021-11-07T07:52:52Z</time>
      </trkpt>
      <trkpt lat="45.5143" lon="7.23069">
        <ele>2723.6</ele>
        <time>2021-11-07T07:52:56Z</time>
      </trkpt>
      <trkpt lat="45.51431" lon="7.23071">
        <ele>2723.9</ele>
        <time>2021-11-07T07:52:58Z</time>
      </trkpt>
      <trkpt lat="45.51431" lon="7.23071">
        <ele>2724</ele>
        <time>2021-11-07T07:52:59Z</time>
      </trkpt>
      <trkpt lat="45.51434" lon="7.23072">
        <ele>2724.7</ele>
        <time>2021-11-07T07:53:03Z</time>
      </trkpt>
      <trkpt lat="45.51436" lon="7.23075">
        <ele>2725.4</ele>
        <time>2021-11-07T07:53:07Z</time>
      </trkpt>
      <trkpt lat="45.51437" lon="7.23078">
        <ele>2726.1</ele>
        <time>2021-11-07T07:53:11Z</time>
      </trkpt>
      <trkpt lat="45.51438" lon="7.23081">
        <ele>2726.7</ele>
        <time>2021-11-07T07:53:17Z</time>
      </trkpt>
      <trkpt lat="45.51438" lon="7.23082">
        <ele>2726.8</ele>
        <time>2021-11-07T07:53:18Z</time>
      </trkpt>
      <trkpt lat="45.51437" lon="7.23086">
        <ele>2727.5</ele>
        <time>2021-11-07T07:53:23Z</time>
      </trkpt>
      <trkpt lat="45.51438" lon="7.23088">
        <ele>2727.8</ele>
        <time>2021-11-07T07:53:24Z</time>
      </trkpt>
      <trkpt lat="45.51438" lon="7.23089">
        <ele>2728</ele>
        <time>2021-11-07T07:53:25Z</time>
      </trkpt>
      <trkpt lat="45.51438" lon="7.23091">
        <ele>2728.2</ele>
        <time>2021-11-07T07:53:28Z</time>
      </trkpt>
      <trkpt lat="45.51439" lon="7.23095">
        <ele>2729.1</ele>
        <time>2021-11-07T07:53:33Z</time>
      </trkpt>
      <trkpt lat="45.5144" lon="7.23097">
        <ele>2729.4</ele>
        <time>2021-11-07T07:53:35Z</time>
      </trkpt>
      <trkpt lat="45.51441" lon="7.23102">
        <ele>2730.2</ele>
        <time>2021-11-07T07:53:41Z</time>
      </trkpt>
      <trkpt lat="45.51442" lon="7.23103">
        <ele>2730.5</ele>
        <time>2021-11-07T07:53:44Z</time>
      </trkpt>
      <trkpt lat="45.51442" lon="7.23104">
        <ele>2730.6</ele>
        <time>2021-11-07T07:53:45Z</time>
      </trkpt>
      <trkpt lat="45.51444" lon="7.23105">
        <ele>2731.1</ele>
        <time>2021-11-07T07:53:51Z</time>
      </trkpt>
      <trkpt lat="45.51446" lon="7.23105">
        <ele>2731.5</ele>
        <time>2021-11-07T07:53:55Z</time>
      </trkpt>
      <trkpt lat="45.51446" lon="7.23106">
        <ele>2731.7</ele>
        <time>2021-11-07T07:53:57Z</time>
      </trkpt>
      <trkpt lat="45.51449" lon="7.23105">
        <ele>2732.2</ele>
        <time>2021-11-07T07:54:04Z</time>
      </trkpt>
      <trkpt lat="45.51451" lon="7.23105">
        <ele>2733.1</ele>
        <time>2021-11-07T07:54:07Z</time>
      </trkpt>
      <trkpt lat="45.51455" lon="7.23107">
        <ele>2734</ele>
        <time>2021-11-07T07:54:15Z</time>
      </trkpt>
      <trkpt lat="45.51456" lon="7.23107">
        <ele>2734.4</ele>
        <time>2021-11-07T07:54:18Z</time>
      </trkpt>
      <trkpt lat="45.51461" lon="7.23105">
        <ele>2735.4</ele>
        <time>2021-11-07T07:54:24Z</time>
      </trkpt>
      <trkpt lat="45.51465" lon="7.23103">
        <ele>2736.4</ele>
        <time>2021-11-07T07:54:30Z</time>
      </trkpt>
      <trkpt lat="45.51467" lon="7.23104">
        <ele>2736.8</ele>
        <time>2021-11-07T07:54:33Z</time>
      </trkpt>
      <trkpt lat="45.51469" lon="7.23106">
        <ele>2737.3</ele>
        <time>2021-11-07T07:54:36Z</time>
      </trkpt>
      <trkpt lat="45.51472" lon="7.23108">
        <ele>2738.1</ele>
        <time>2021-11-07T07:54:40Z</time>
      </trkpt>
      <trkpt lat="45.51475" lon="7.23109">
        <ele>2738.8</ele>
        <time>2021-11-07T07:54:45Z</time>
      </trkpt>
      <trkpt lat="45.51477" lon="7.23112">
        <ele>2739.3</ele>
        <time>2021-11-07T07:54:49Z</time>
      </trkpt>
      <trkpt lat="45.51477" lon="7.23112">
        <ele>2739.4</ele>
        <time>2021-11-07T07:54:51Z</time>
      </trkpt>
      <trkpt lat="45.51478" lon="7.23113">
        <ele>2739.6</ele>
        <time>2021-11-07T07:54:53Z</time>
      </trkpt>
      <trkpt lat="45.5148" lon="7.2311">
        <ele>2740.2</ele>
        <time>2021-11-07T07:54:57Z</time>
      </trkpt>
      <trkpt lat="45.51482" lon="7.23108">
        <ele>2740.7</ele>
        <time>2021-11-07T07:55:00Z</time>
      </trkpt>
      <trkpt lat="45.51483" lon="7.23107">
        <ele>2740.9</ele>
        <time>2021-11-07T07:55:02Z</time>
      </trkpt>
      <trkpt lat="45.51484" lon="7.23107">
        <ele>2741.2</ele>
        <time>2021-11-07T07:55:04Z</time>
      </trkpt>
      <trkpt lat="45.51485" lon="7.23107">
        <ele>2741.3</ele>
        <time>2021-11-07T07:55:05Z</time>
      </trkpt>
      <trkpt lat="45.51486" lon="7.23107">
        <ele>2741.5</ele>
        <time>2021-11-07T07:55:06Z</time>
      </trkpt>
      <trkpt lat="45.51489" lon="7.23106">
        <ele>2742.1</ele>
        <time>2021-11-07T07:55:10Z</time>
      </trkpt>
      <trkpt lat="45.51489" lon="7.23107">
        <ele>2742.2</ele>
        <time>2021-11-07T07:55:11Z</time>
      </trkpt>
      <trkpt lat="45.51491" lon="7.23108">
        <ele>2742.7</ele>
        <time>2021-11-07T07:55:15Z</time>
      </trkpt>
      <trkpt lat="45.51494" lon="7.23109">
        <ele>2743.1</ele>
        <time>2021-11-07T07:55:19Z</time>
      </trkpt>
      <trkpt lat="45.51494" lon="7.2311">
        <ele>2743.2</ele>
        <time>2021-11-07T07:55:20Z</time>
      </trkpt>
      <trkpt lat="45.51496" lon="7.23111">
        <ele>2743.6</ele>
        <time>2021-11-07T07:55:23Z</time>
      </trkpt>
      <trkpt lat="45.51497" lon="7.23111">
        <ele>2743.9</ele>
        <time>2021-11-07T07:55:26Z</time>
      </trkpt>
      <trkpt lat="45.51498" lon="7.23111">
        <ele>2744</ele>
        <time>2021-11-07T07:55:27Z</time>
      </trkpt>
      <trkpt lat="45.515" lon="7.23111">
        <ele>2744.4</ele>
        <time>2021-11-07T07:55:29Z</time>
      </trkpt>
      <trkpt lat="45.51501" lon="7.23111">
        <ele>2744.6</ele>
        <time>2021-11-07T07:55:31Z</time>
      </trkpt>
      <trkpt lat="45.51502" lon="7.23111">
        <ele>2744.8</ele>
        <time>2021-11-07T07:55:32Z</time>
      </trkpt>
      <trkpt lat="45.51503" lon="7.23111">
        <ele>2744.9</ele>
        <time>2021-11-07T07:55:33Z</time>
      </trkpt>
      <trkpt lat="45.51504" lon="7.23112">
        <ele>2745.1</ele>
        <time>2021-11-07T07:55:35Z</time>
      </trkpt>
      <trkpt lat="45.51506" lon="7.23112">
        <ele>2745.5</ele>
        <time>2021-11-07T07:55:38Z</time>
      </trkpt>
      <trkpt lat="45.51509" lon="7.23113">
        <ele>2746</ele>
        <time>2021-11-07T07:55:42Z</time>
      </trkpt>
      <trkpt lat="45.5151" lon="7.23115">
        <ele>2746.3</ele>
        <time>2021-11-07T07:55:45Z</time>
      </trkpt>
      <trkpt lat="45.51511" lon="7.23117">
        <ele>2746.5</ele>
        <time>2021-11-07T07:55:47Z</time>
      </trkpt>
      <trkpt lat="45.51514" lon="7.23121">
        <ele>2747.1</ele>
        <time>2021-11-07T07:55:53Z</time>
      </trkpt>
      <trkpt lat="45.51515" lon="7.23123">
        <ele>2747.3</ele>
        <time>2021-11-07T07:55:55Z</time>
      </trkpt>
      <trkpt lat="45.51516" lon="7.23124">
        <ele>2747.4</ele>
        <time>2021-11-07T07:55:56Z</time>
      </trkpt>
      <trkpt lat="45.51518" lon="7.23127">
        <ele>2747.8</ele>
        <time>2021-11-07T07:56:01Z</time>
      </trkpt>
      <trkpt lat="45.51522" lon="7.23131">
        <ele>2748.3</ele>
        <time>2021-11-07T07:56:09Z</time>
      </trkpt>
      <trkpt lat="45.51525" lon="7.23134">
        <ele>2748.7</ele>
        <time>2021-11-07T07:56:19Z</time>
      </trkpt>
      <trkpt lat="45.51527" lon="7.23137">
        <ele>2749.3</ele>
        <time>2021-11-07T07:56:23Z</time>
      </trkpt>
      <trkpt lat="45.51527" lon="7.23137">
        <ele>2749.4</ele>
        <time>2021-11-07T07:56:24Z</time>
      </trkpt>
      <trkpt lat="45.51528" lon="7.23138">
        <ele>2749.5</ele>
        <time>2021-11-07T07:56:25Z</time>
      </trkpt>
      <trkpt lat="45.51529" lon="7.2314">
        <ele>2749.8</ele>
        <time>2021-11-07T07:56:27Z</time>
      </trkpt>
      <trkpt lat="45.5153" lon="7.23141">
        <ele>2749.9</ele>
        <time>2021-11-07T07:56:29Z</time>
      </trkpt>
      <trkpt lat="45.51531" lon="7.23141">
        <ele>2750.1</ele>
        <time>2021-11-07T07:56:30Z</time>
      </trkpt>
      <trkpt lat="45.51531" lon="7.23142">
        <ele>2750.2</ele>
        <time>2021-11-07T07:56:31Z</time>
      </trkpt>
      <trkpt lat="45.51532" lon="7.23143">
        <ele>2750.3</ele>
        <time>2021-11-07T07:56:32Z</time>
      </trkpt>
      <trkpt lat="45.51534" lon="7.23144">
        <ele>2750.6</ele>
        <time>2021-11-07T07:56:35Z</time>
      </trkpt>
      <trkpt lat="45.51535" lon="7.23145">
        <ele>2750.8</ele>
        <time>2021-11-07T07:56:36Z</time>
      </trkpt>
      <trkpt lat="45.51537" lon="7.23145">
        <ele>2751</ele>
        <time>2021-11-07T07:56:38Z</time>
      </trkpt>
      <trkpt lat="45.51539" lon="7.23146">
        <ele>2751.2</ele>
        <time>2021-11-07T07:56:40Z</time>
      </trkpt>
      <trkpt lat="45.51541" lon="7.23147">
        <ele>2751.5</ele>
        <time>2021-11-07T07:56:42Z</time>
      </trkpt>
      <trkpt lat="45.51544" lon="7.23148">
        <ele>2751.9</ele>
        <time>2021-11-07T07:56:46Z</time>
      </trkpt>
      <trkpt lat="45.51549" lon="7.23149">
        <ele>2752.5</ele>
        <time>2021-11-07T07:56:52Z</time>
      </trkpt>
      <trkpt lat="45.5155" lon="7.23149">
        <ele>2752.7</ele>
        <time>2021-11-07T07:56:54Z</time>
      </trkpt>
      <trkpt lat="45.51556" lon="7.23151">
        <ele>2753.5</ele>
        <time>2021-11-07T07:57:00Z</time>
      </trkpt>
      <trkpt lat="45.51558" lon="7.23152">
        <ele>2753.7</ele>
        <time>2021-11-07T07:57:03Z</time>
      </trkpt>
      <trkpt lat="45.51559" lon="7.23152">
        <ele>2753.8</ele>
        <time>2021-11-07T07:57:04Z</time>
      </trkpt>
      <trkpt lat="45.5156" lon="7.23152">
        <ele>2754</ele>
        <time>2021-11-07T07:57:06Z</time>
      </trkpt>
      <trkpt lat="45.51563" lon="7.23154">
        <ele>2754.3</ele>
        <time>2021-11-07T07:57:10Z</time>
      </trkpt>
      <trkpt lat="45.51567" lon="7.23157">
        <ele>2754.9</ele>
        <time>2021-11-07T07:57:15Z</time>
      </trkpt>
      <trkpt lat="45.51567" lon="7.23157">
        <ele>2755</ele>
        <time>2021-11-07T07:57:16Z</time>
      </trkpt>
      <trkpt lat="45.51566" lon="7.23158">
        <ele>2755.1</ele>
        <time>2021-11-07T07:57:25Z</time>
      </trkpt>
      <trkpt lat="45.51566" lon="7.23158">
        <ele>2755.1</ele>
        <time>2021-11-07T07:57:26Z</time>
      </trkpt>
      <trkpt lat="45.51566" lon="7.23157">
        <ele>2755.2</ele>
        <time>2021-11-07T07:57:29Z</time>
      </trkpt>
      <trkpt lat="45.51568" lon="7.23158">
        <ele>2755.5</ele>
        <time>2021-11-07T07:57:34Z</time>
      </trkpt>
      <trkpt lat="45.51569" lon="7.23159">
        <ele>2755.6</ele>
        <time>2021-11-07T07:57:36Z</time>
      </trkpt>
      <trkpt lat="45.5157" lon="7.23158">
        <ele>2755.8</ele>
        <time>2021-11-07T07:57:38Z</time>
      </trkpt>
      <trkpt lat="45.51573" lon="7.23159">
        <ele>2756.1</ele>
        <time>2021-11-07T07:57:42Z</time>
      </trkpt>
      <trkpt lat="45.51574" lon="7.23159">
        <ele>2756.3</ele>
        <time>2021-11-07T07:57:44Z</time>
      </trkpt>
      <trkpt lat="45.51576" lon="7.2316">
        <ele>2756.5</ele>
        <time>2021-11-07T07:57:46Z</time>
      </trkpt>
      <trkpt lat="45.51576" lon="7.23161">
        <ele>2756.6</ele>
        <time>2021-11-07T07:57:47Z</time>
      </trkpt>
      <trkpt lat="45.51577" lon="7.23161">
        <ele>2756.7</ele>
        <time>2021-11-07T07:57:48Z</time>
      </trkpt>
      <trkpt lat="45.51578" lon="7.23162">
        <ele>2756.9</ele>
        <time>2021-11-07T07:57:50Z</time>
      </trkpt>
      <trkpt lat="45.5158" lon="7.23163">
        <ele>2757.2</ele>
        <time>2021-11-07T07:57:53Z</time>
      </trkpt>
      <trkpt lat="45.51582" lon="7.23165">
        <ele>2757.6</ele>
        <time>2021-11-07T07:57:58Z</time>
      </trkpt>
      <trkpt lat="45.51583" lon="7.23166">
        <ele>2757.8</ele>
        <time>2021-11-07T07:58:00Z</time>
      </trkpt>
      <trkpt lat="45.51585" lon="7.23169">
        <ele>2758.3</ele>
        <time>2021-11-07T07:58:05Z</time>
      </trkpt>
      <trkpt lat="45.51586" lon="7.23169">
        <ele>2758.4</ele>
        <time>2021-11-07T07:58:06Z</time>
      </trkpt>
      <trkpt lat="45.51588" lon="7.23173">
        <ele>2759</ele>
        <time>2021-11-07T07:58:11Z</time>
      </trkpt>
      <trkpt lat="45.51593" lon="7.23182">
        <ele>2760.5</ele>
        <time>2021-11-07T07:58:24Z</time>
      </trkpt>
      <trkpt lat="45.51595" lon="7.23184">
        <ele>2761</ele>
        <time>2021-11-07T07:58:29Z</time>
      </trkpt>
      <trkpt lat="45.51594" lon="7.23187">
        <ele>2761.4</ele>
        <time>2021-11-07T07:58:36Z</time>
      </trkpt>
      <trkpt lat="45.51594" lon="7.23187">
        <ele>2761.6</ele>
        <time>2021-11-07T07:58:39Z</time>
      </trkpt>
      <trkpt lat="45.51595" lon="7.23187">
        <ele>2761.8</ele>
        <time>2021-11-07T07:58:43Z</time>
      </trkpt>
      <trkpt lat="45.51595" lon="7.23188">
        <ele>2761.8</ele>
        <time>2021-11-07T07:58:46Z</time>
      </trkpt>
      <trkpt lat="45.51595" lon="7.23188">
        <ele>2761.9</ele>
        <time>2021-11-07T07:58:48Z</time>
      </trkpt>
      <trkpt lat="45.51595" lon="7.23188">
        <ele>2761.9</ele>
        <time>2021-11-07T07:58:51Z</time>
      </trkpt>
      <trkpt lat="45.51596" lon="7.23188">
        <ele>2762</ele>
        <time>2021-11-07T07:58:53Z</time>
      </trkpt>
      <trkpt lat="45.51596" lon="7.23189">
        <ele>2762.1</ele>
        <time>2021-11-07T07:58:55Z</time>
      </trkpt>
      <trkpt lat="45.51596" lon="7.23189">
        <ele>2762.2</ele>
        <time>2021-11-07T07:59:02Z</time>
      </trkpt>
      <trkpt lat="45.51597" lon="7.2319">
        <ele>2762.5</ele>
        <time>2021-11-07T07:59:10Z</time>
      </trkpt>
      <trkpt lat="45.51597" lon="7.2319">
        <ele>2762.6</ele>
        <time>2021-11-07T07:59:12Z</time>
      </trkpt>
      <trkpt lat="45.51597" lon="7.23191">
        <ele>2762.6</ele>
        <time>2021-11-07T07:59:13Z</time>
      </trkpt>
      <trkpt lat="45.51598" lon="7.23191">
        <ele>2762.8</ele>
        <time>2021-11-07T07:59:16Z</time>
      </trkpt>
      <trkpt lat="45.51598" lon="7.23191">
        <ele>2762.9</ele>
        <time>2021-11-07T07:59:19Z</time>
      </trkpt>
      <trkpt lat="45.51599" lon="7.23191">
        <ele>2763</ele>
        <time>2021-11-07T07:59:22Z</time>
      </trkpt>
      <trkpt lat="45.51598" lon="7.2319">
        <ele>2763.1</ele>
        <time>2021-11-07T07:59:25Z</time>
      </trkpt>
      <trkpt lat="45.51598" lon="7.23191">
        <ele>2763.1</ele>
        <time>2021-11-07T07:59:26Z</time>
      </trkpt>
      <trkpt lat="45.51598" lon="7.2319">
        <ele>2763.2</ele>
        <time>2021-11-07T07:59:27Z</time>
      </trkpt>
      <trkpt lat="45.51598" lon="7.23191">
        <ele>2763.2</ele>
        <time>2021-11-07T07:59:28Z</time>
      </trkpt>
      <trkpt lat="45.51599" lon="7.23191">
        <ele>2763.3</ele>
        <time>2021-11-07T07:59:29Z</time>
      </trkpt>
      <trkpt lat="45.51599" lon="7.23193">
        <ele>2763.6</ele>
        <time>2021-11-07T07:59:35Z</time>
      </trkpt>
      <trkpt lat="45.51599" lon="7.23194">
        <ele>2763.7</ele>
        <time>2021-11-07T07:59:36Z</time>
      </trkpt>
      <trkpt lat="45.51599" lon="7.23194">
        <ele>2763.8</ele>
        <time>2021-11-07T07:59:37Z</time>
      </trkpt>
      <trkpt lat="45.51599" lon="7.23194">
        <ele>2764</ele>
        <time>2021-11-07T07:59:40Z</time>
      </trkpt>
      <trkpt lat="45.51599" lon="7.23194">
        <ele>2764.1</ele>
        <time>2021-11-07T07:59:46Z</time>
      </trkpt>
      <trkpt lat="45.516" lon="7.23195">
        <ele>2764.4</ele>
        <time>2021-11-07T07:59:51Z</time>
      </trkpt>
      <trkpt lat="45.51601" lon="7.23197">
        <ele>2764.8</ele>
        <time>2021-11-07T07:59:55Z</time>
      </trkpt>
      <trkpt lat="45.51601" lon="7.23199">
        <ele>2765.1</ele>
        <time>2021-11-07T07:59:58Z</time>
      </trkpt>
      <trkpt lat="45.51602" lon="7.23197">
        <ele>2765.5</ele>
        <time>2021-11-07T08:00:05Z</time>
      </trkpt>
      <trkpt lat="45.51603" lon="7.23198">
        <ele>2765.8</ele>
        <time>2021-11-07T08:00:07Z</time>
      </trkpt>
      <trkpt lat="45.51604" lon="7.23199">
        <ele>2766</ele>
        <time>2021-11-07T08:00:08Z</time>
      </trkpt>
      <trkpt lat="45.51604" lon="7.232">
        <ele>2766.1</ele>
        <time>2021-11-07T08:00:09Z</time>
      </trkpt>
      <trkpt lat="45.51605" lon="7.23201">
        <ele>2766.4</ele>
        <time>2021-11-07T08:00:11Z</time>
      </trkpt>
      <trkpt lat="45.51606" lon="7.23201">
        <ele>2766.6</ele>
        <time>2021-11-07T08:00:12Z</time>
      </trkpt>
      <trkpt lat="45.51606" lon="7.23202">
        <ele>2766.8</ele>
        <time>2021-11-07T08:00:13Z</time>
      </trkpt>
      <trkpt lat="45.51607" lon="7.23202">
        <ele>2767</ele>
        <time>2021-11-07T08:00:14Z</time>
      </trkpt>
      <trkpt lat="45.51608" lon="7.23202">
        <ele>2767.2</ele>
        <time>2021-11-07T08:00:15Z</time>
      </trkpt>
      <trkpt lat="45.51609" lon="7.23203">
        <ele>2767.5</ele>
        <time>2021-11-07T08:00:17Z</time>
      </trkpt>
      <trkpt lat="45.5161" lon="7.23203">
        <ele>2767.7</ele>
        <time>2021-11-07T08:00:19Z</time>
      </trkpt>
      <trkpt lat="45.5161" lon="7.23205">
        <ele>2768</ele>
        <time>2021-11-07T08:00:21Z</time>
      </trkpt>
      <trkpt lat="45.51611" lon="7.23205">
        <ele>2768.2</ele>
        <time>2021-11-07T08:00:24Z</time>
      </trkpt>
      <trkpt lat="45.51612" lon="7.23206">
        <ele>2768.5</ele>
        <time>2021-11-07T08:00:26Z</time>
      </trkpt>
      <trkpt lat="45.51613" lon="7.23206">
        <ele>2768.6</ele>
        <time>2021-11-07T08:00:27Z</time>
      </trkpt>
      <trkpt lat="45.51615" lon="7.23208">
        <ele>2769.3</ele>
        <time>2021-11-07T08:00:32Z</time>
      </trkpt>
      <trkpt lat="45.51616" lon="7.23209">
        <ele>2769.7</ele>
        <time>2021-11-07T08:00:35Z</time>
      </trkpt>
      <trkpt lat="45.51617" lon="7.23209">
        <ele>2769.8</ele>
        <time>2021-11-07T08:00:36Z</time>
      </trkpt>
      <trkpt lat="45.51618" lon="7.23208">
        <ele>2770.1</ele>
        <time>2021-11-07T08:00:41Z</time>
      </trkpt>
      <trkpt lat="45.5162" lon="7.2321">
        <ele>2770.7</ele>
        <time>2021-11-07T08:00:47Z</time>
      </trkpt>
      <trkpt lat="45.5162" lon="7.23211">
        <ele>2770.7</ele>
        <time>2021-11-07T08:00:48Z</time>
      </trkpt>
      <trkpt lat="45.5162" lon="7.23211">
        <ele>2770.8</ele>
        <time>2021-11-07T08:00:49Z</time>
      </trkpt>
      <trkpt lat="45.5162" lon="7.23211">
        <ele>2770.9</ele>
        <time>2021-11-07T08:00:50Z</time>
      </trkpt>
      <trkpt lat="45.51621" lon="7.23212">
        <ele>2771</ele>
        <time>2021-11-07T08:00:51Z</time>
      </trkpt>
      <trkpt lat="45.51622" lon="7.23211">
        <ele>2771.4</ele>
        <time>2021-11-07T08:00:55Z</time>
      </trkpt>
      <trkpt lat="45.51623" lon="7.23211">
        <ele>2771.5</ele>
        <time>2021-11-07T08:00:56Z</time>
      </trkpt>
      <trkpt lat="45.51625" lon="7.23212">
        <ele>2772</ele>
        <time>2021-11-07T08:00:59Z</time>
      </trkpt>
      <trkpt lat="45.51625" lon="7.23212">
        <ele>2772.1</ele>
        <time>2021-11-07T08:01:00Z</time>
      </trkpt>
      <trkpt lat="45.51629" lon="7.23212">
        <ele>2773</ele>
        <time>2021-11-07T08:01:08Z</time>
      </trkpt>
      <trkpt lat="45.5163" lon="7.23212">
        <ele>2773.2</ele>
        <time>2021-11-07T08:01:10Z</time>
      </trkpt>
      <trkpt lat="45.51632" lon="7.23213">
        <ele>2773.6</ele>
        <time>2021-11-07T08:01:13Z</time>
      </trkpt>
      <trkpt lat="45.51632" lon="7.23214">
        <ele>2773.7</ele>
        <time>2021-11-07T08:01:14Z</time>
      </trkpt>
      <trkpt lat="45.51633" lon="7.23214">
        <ele>2774</ele>
        <time>2021-11-07T08:01:16Z</time>
      </trkpt>
      <trkpt lat="45.51633" lon="7.23214">
        <ele>2774.1</ele>
        <time>2021-11-07T08:01:17Z</time>
      </trkpt>
      <trkpt lat="45.51635" lon="7.23214">
        <ele>2774.5</ele>
        <time>2021-11-07T08:01:20Z</time>
      </trkpt>
      <trkpt lat="45.51638" lon="7.23213">
        <ele>2775.1</ele>
        <time>2021-11-07T08:01:25Z</time>
      </trkpt>
      <trkpt lat="45.51639" lon="7.23213">
        <ele>2775.3</ele>
        <time>2021-11-07T08:01:26Z</time>
      </trkpt>
      <trkpt lat="45.51642" lon="7.23212">
        <ele>2776.1</ele>
        <time>2021-11-07T08:01:32Z</time>
      </trkpt>
      <trkpt lat="45.51643" lon="7.23212">
        <ele>2776.3</ele>
        <time>2021-11-07T08:01:35Z</time>
      </trkpt>
      <trkpt lat="45.51642" lon="7.23213">
        <ele>2776.5</ele>
        <time>2021-11-07T08:01:40Z</time>
      </trkpt>
      <trkpt lat="45.51643" lon="7.23213">
        <ele>2776.6</ele>
        <time>2021-11-07T08:01:45Z</time>
      </trkpt>
      <trkpt lat="45.51643" lon="7.23213">
        <ele>2776.7</ele>
        <time>2021-11-07T08:01:46Z</time>
      </trkpt>
      <trkpt lat="45.51645" lon="7.23214">
        <ele>2777.2</ele>
        <time>2021-11-07T08:01:51Z</time>
      </trkpt>
      <trkpt lat="45.51645" lon="7.23214">
        <ele>2777.3</ele>
        <time>2021-11-07T08:01:52Z</time>
      </trkpt>
      <trkpt lat="45.51646" lon="7.23214">
        <ele>2777.5</ele>
        <time>2021-11-07T08:01:54Z</time>
      </trkpt>
      <trkpt lat="45.51647" lon="7.23215">
        <ele>2777.7</ele>
        <time>2021-11-07T08:01:56Z</time>
      </trkpt>
      <trkpt lat="45.51647" lon="7.23215">
        <ele>2777.9</ele>
        <time>2021-11-07T08:01:57Z</time>
      </trkpt>
      <trkpt lat="45.51648" lon="7.23215">
        <ele>2778</ele>
        <time>2021-11-07T08:01:58Z</time>
      </trkpt>
      <trkpt lat="45.5165" lon="7.23216">
        <ele>2778.5</ele>
        <time>2021-11-07T08:02:01Z</time>
      </trkpt>
      <trkpt lat="45.51651" lon="7.23218">
        <ele>2779</ele>
        <time>2021-11-07T08:02:06Z</time>
      </trkpt>
      <trkpt lat="45.51653" lon="7.2322">
        <ele>2779.7</ele>
        <time>2021-11-07T08:02:10Z</time>
      </trkpt>
      <trkpt lat="45.51653" lon="7.23222">
        <ele>2780.1</ele>
        <time>2021-11-07T08:02:13Z</time>
      </trkpt>
      <trkpt lat="45.51653" lon="7.23223">
        <ele>2780.2</ele>
        <time>2021-11-07T08:02:14Z</time>
      </trkpt>
      <trkpt lat="45.51653" lon="7.23223">
        <ele>2780.3</ele>
        <time>2021-11-07T08:02:15Z</time>
      </trkpt>
      <trkpt lat="45.51653" lon="7.23224">
        <ele>2780.5</ele>
        <time>2021-11-07T08:02:17Z</time>
      </trkpt>
      <trkpt lat="45.51654" lon="7.23226">
        <ele>2780.8</ele>
        <time>2021-11-07T08:02:21Z</time>
      </trkpt>
      <trkpt lat="45.51653" lon="7.23228">
        <ele>2781.2</ele>
        <time>2021-11-07T08:02:25Z</time>
      </trkpt>
      <trkpt lat="45.51654" lon="7.23229">
        <ele>2781.4</ele>
        <time>2021-11-07T08:02:28Z</time>
      </trkpt>
      <trkpt lat="45.51655" lon="7.23228">
        <ele>2781.7</ele>
        <time>2021-11-07T08:02:32Z</time>
      </trkpt>
      <trkpt lat="45.51656" lon="7.23228">
        <ele>2782.1</ele>
        <time>2021-11-07T08:02:35Z</time>
      </trkpt>
      <trkpt lat="45.51657" lon="7.23228">
        <ele>2782.3</ele>
        <time>2021-11-07T08:02:37Z</time>
      </trkpt>
      <trkpt lat="45.51657" lon="7.23229">
        <ele>2782.6</ele>
        <time>2021-11-07T08:02:39Z</time>
      </trkpt>
      <trkpt lat="45.51657" lon="7.2323">
        <ele>2782.7</ele>
        <time>2021-11-07T08:02:40Z</time>
      </trkpt>
      <trkpt lat="45.51657" lon="7.23231">
        <ele>2782.8</ele>
        <time>2021-11-07T08:02:42Z</time>
      </trkpt>
      <trkpt lat="45.51657" lon="7.23232">
        <ele>2783.1</ele>
        <time>2021-11-07T08:02:45Z</time>
      </trkpt>
      <trkpt lat="45.51658" lon="7.23232">
        <ele>2783.1</ele>
        <time>2021-11-07T08:02:46Z</time>
      </trkpt>
      <trkpt lat="45.51658" lon="7.23234">
        <ele>2783.6</ele>
        <time>2021-11-07T08:02:50Z</time>
      </trkpt>
      <trkpt lat="45.51661" lon="7.23235">
        <ele>2784.2</ele>
        <time>2021-11-07T08:02:56Z</time>
      </trkpt>
      <trkpt lat="45.51661" lon="7.23234">
        <ele>2784.3</ele>
        <time>2021-11-07T08:02:57Z</time>
      </trkpt>
      <trkpt lat="45.51662" lon="7.23235">
        <ele>2784.7</ele>
        <time>2021-11-07T08:03:04Z</time>
      </trkpt>
      <trkpt lat="45.51662" lon="7.23234">
        <ele>2784.8</ele>
        <time>2021-11-07T08:03:06Z</time>
      </trkpt>
      <trkpt lat="45.51666" lon="7.23231">
        <ele>2786.1</ele>
        <time>2021-11-07T08:03:16Z</time>
      </trkpt>
      <trkpt lat="45.51667" lon="7.23232">
        <ele>2786.4</ele>
        <time>2021-11-07T08:03:19Z</time>
      </trkpt>
      <trkpt lat="45.51669" lon="7.23234">
        <ele>2787</ele>
        <time>2021-11-07T08:03:25Z</time>
      </trkpt>
      <trkpt lat="45.51669" lon="7.23235">
        <ele>2787.2</ele>
        <time>2021-11-07T08:03:26Z</time>
      </trkpt>
      <trkpt lat="45.51669" lon="7.23237">
        <ele>2787.7</ele>
        <time>2021-11-07T08:03:30Z</time>
      </trkpt>
      <trkpt lat="45.51671" lon="7.23237">
        <ele>2788.3</ele>
        <time>2021-11-07T08:03:35Z</time>
      </trkpt>
      <trkpt lat="45.51671" lon="7.23237">
        <ele>2788.5</ele>
        <time>2021-11-07T08:03:36Z</time>
      </trkpt>
      <trkpt lat="45.51676" lon="7.23233">
        <ele>2789.9</ele>
        <time>2021-11-07T08:03:44Z</time>
      </trkpt>
      <trkpt lat="45.51677" lon="7.23233">
        <ele>2790.3</ele>
        <time>2021-11-07T08:03:46Z</time>
      </trkpt>
      <trkpt lat="45.51677" lon="7.23233">
        <ele>2790.2</ele>
        <time>2021-11-07T08:03:47Z</time>
      </trkpt>
      <trkpt lat="45.5168" lon="7.23235">
        <ele>2791.2</ele>
        <time>2021-11-07T08:03:55Z</time>
      </trkpt>
      <trkpt lat="45.51679" lon="7.23235">
        <ele>2791.2</ele>
        <time>2021-11-07T08:03:56Z</time>
      </trkpt>
      <trkpt lat="45.51679" lon="7.23235">
        <ele>2791.3</ele>
        <time>2021-11-07T08:03:57Z</time>
      </trkpt>
      <trkpt lat="45.51679" lon="7.23235">
        <ele>2791.4</ele>
        <time>2021-11-07T08:03:58Z</time>
      </trkpt>
      <trkpt lat="45.51679" lon="7.23235">
        <ele>2791.5</ele>
        <time>2021-11-07T08:04:00Z</time>
      </trkpt>
      <trkpt lat="45.51679" lon="7.23236">
        <ele>2791.5</ele>
        <time>2021-11-07T08:04:05Z</time>
      </trkpt>
      <trkpt lat="45.51679" lon="7.23236">
        <ele>2791.5</ele>
        <time>2021-11-07T08:04:08Z</time>
      </trkpt>
      <trkpt lat="45.51679" lon="7.23236">
        <ele>2791.5</ele>
        <time>2021-11-07T08:04:09Z</time>
      </trkpt>
      <trkpt lat="45.51679" lon="7.23235">
        <ele>2791.5</ele>
        <time>2021-11-07T08:04:11Z</time>
      </trkpt>
      <trkpt lat="45.51679" lon="7.23235">
        <ele>2791.5</ele>
        <time>2021-11-07T08:04:12Z</time>
      </trkpt>
      <trkpt lat="45.51679" lon="7.23235">
        <ele>2791.6</ele>
        <time>2021-11-07T08:04:15Z</time>
      </trkpt>
      <trkpt lat="45.51679" lon="7.23235">
        <ele>2791.6</ele>
        <time>2021-11-07T08:04:17Z</time>
      </trkpt>
      <trkpt lat="45.51679" lon="7.23235">
        <ele>2791.6</ele>
        <time>2021-11-07T08:04:18Z</time>
      </trkpt>
      <trkpt lat="45.51679" lon="7.23236">
        <ele>2791.9</ele>
        <time>2021-11-07T08:04:20Z</time>
      </trkpt>
      <trkpt lat="45.51678" lon="7.23239">
        <ele>2792.5</ele>
        <time>2021-11-07T08:04:25Z</time>
      </trkpt>
      <trkpt lat="45.51678" lon="7.2324">
        <ele>2792.8</ele>
        <time>2021-11-07T08:04:28Z</time>
      </trkpt>
      <trkpt lat="45.51679" lon="7.2324">
        <ele>2793.1</ele>
        <time>2021-11-07T08:04:31Z</time>
      </trkpt>
      <trkpt lat="45.5168" lon="7.2324">
        <ele>2793.2</ele>
        <time>2021-11-07T08:04:32Z</time>
      </trkpt>
      <trkpt lat="45.5168" lon="7.2324">
        <ele>2793.4</ele>
        <time>2021-11-07T08:04:33Z</time>
      </trkpt>
      <trkpt lat="45.51682" lon="7.2324">
        <ele>2793.7</ele>
        <time>2021-11-07T08:04:35Z</time>
      </trkpt>
      <trkpt lat="45.51685" lon="7.23244">
        <ele>2794.9</ele>
        <time>2021-11-07T08:04:42Z</time>
      </trkpt>
      <trkpt lat="45.51685" lon="7.23244">
        <ele>2795.1</ele>
        <time>2021-11-07T08:04:44Z</time>
      </trkpt>
      <trkpt lat="45.51686" lon="7.23244">
        <ele>2795.4</ele>
        <time>2021-11-07T08:04:46Z</time>
      </trkpt>
      <trkpt lat="45.51687" lon="7.23244">
        <ele>2795.7</ele>
        <time>2021-11-07T08:04:48Z</time>
      </trkpt>
      <trkpt lat="45.51689" lon="7.23244">
        <ele>2796</ele>
        <time>2021-11-07T08:04:50Z</time>
      </trkpt>
      <trkpt lat="45.51691" lon="7.23243">
        <ele>2796.5</ele>
        <time>2021-11-07T08:04:53Z</time>
      </trkpt>
      <trkpt lat="45.51692" lon="7.23242">
        <ele>2797</ele>
        <time>2021-11-07T08:04:56Z</time>
      </trkpt>
      <trkpt lat="45.51694" lon="7.2324">
        <ele>2797.7</ele>
        <time>2021-11-07T08:05:00Z</time>
      </trkpt>
      <trkpt lat="45.51697" lon="7.23241">
        <ele>2798.7</ele>
        <time>2021-11-07T08:05:06Z</time>
      </trkpt>
      <trkpt lat="45.51699" lon="7.23242">
        <ele>2799.2</ele>
        <time>2021-11-07T08:05:09Z</time>
      </trkpt>
      <trkpt lat="45.517" lon="7.23242">
        <ele>2799.6</ele>
        <time>2021-11-07T08:05:11Z</time>
      </trkpt>
      <trkpt lat="45.51701" lon="7.23243">
        <ele>2799.8</ele>
        <time>2021-11-07T08:05:12Z</time>
      </trkpt>
      <trkpt lat="45.51703" lon="7.23246">
        <ele>2800.6</ele>
        <time>2021-11-07T08:05:16Z</time>
      </trkpt>
      <trkpt lat="45.51704" lon="7.23247">
        <ele>2800.9</ele>
        <time>2021-11-07T08:05:18Z</time>
      </trkpt>
      <trkpt lat="45.51703" lon="7.23253">
        <ele>2802.1</ele>
        <time>2021-11-07T08:05:24Z</time>
      </trkpt>
      <trkpt lat="45.51703" lon="7.23254">
        <ele>2802.2</ele>
        <time>2021-11-07T08:05:25Z</time>
      </trkpt>
      <trkpt lat="45.51703" lon="7.23254">
        <ele>2802.4</ele>
        <time>2021-11-07T08:05:26Z</time>
      </trkpt>
      <trkpt lat="45.51704" lon="7.23256">
        <ele>2802.9</ele>
        <time>2021-11-07T08:05:30Z</time>
      </trkpt>
      <trkpt lat="45.51705" lon="7.23261">
        <ele>2804</ele>
        <time>2021-11-07T08:05:36Z</time>
      </trkpt>
      <trkpt lat="45.51708" lon="7.23264">
        <ele>2805</ele>
        <time>2021-11-07T08:05:41Z</time>
      </trkpt>
      <trkpt lat="45.51709" lon="7.23265">
        <ele>2805.2</ele>
        <time>2021-11-07T08:05:42Z</time>
      </trkpt>
      <trkpt lat="45.51709" lon="7.23265">
        <ele>2805.4</ele>
        <time>2021-11-07T08:05:43Z</time>
      </trkpt>
      <trkpt lat="45.51711" lon="7.23267">
        <ele>2806</ele>
        <time>2021-11-07T08:05:46Z</time>
      </trkpt>
      <trkpt lat="45.51712" lon="7.23267">
        <ele>2806.2</ele>
        <time>2021-11-07T08:05:47Z</time>
      </trkpt>
      <trkpt lat="45.51713" lon="7.23268">
        <ele>2806.6</ele>
        <time>2021-11-07T08:05:49Z</time>
      </trkpt>
      <trkpt lat="45.51715" lon="7.2327">
        <ele>2807.3</ele>
        <time>2021-11-07T08:05:52Z</time>
      </trkpt>
      <trkpt lat="45.5172" lon="7.23273">
        <ele>2808.5</ele>
        <time>2021-11-07T08:05:58Z</time>
      </trkpt>
      <trkpt lat="45.51721" lon="7.23273">
        <ele>2808.8</ele>
        <time>2021-11-07T08:06:00Z</time>
      </trkpt>
      <trkpt lat="45.51722" lon="7.23274">
        <ele>2809.2</ele>
        <time>2021-11-07T08:06:02Z</time>
      </trkpt>
      <trkpt lat="45.51726" lon="7.23277">
        <ele>2810.2</ele>
        <time>2021-11-07T08:06:08Z</time>
      </trkpt>
      <trkpt lat="45.51726" lon="7.23279">
        <ele>2810.5</ele>
        <time>2021-11-07T08:06:10Z</time>
      </trkpt>
      <trkpt lat="45.51725" lon="7.23279">
        <ele>2810.7</ele>
        <time>2021-11-07T08:06:11Z</time>
      </trkpt>
      <trkpt lat="45.51725" lon="7.2328">
        <ele>2810.8</ele>
        <time>2021-11-07T08:06:12Z</time>
      </trkpt>
      <trkpt lat="45.51726" lon="7.23284">
        <ele>2811.5</ele>
        <time>2021-11-07T08:06:15Z</time>
      </trkpt>
      <trkpt lat="45.51727" lon="7.23285">
        <ele>2811.7</ele>
        <time>2021-11-07T08:06:16Z</time>
      </trkpt>
      <trkpt lat="45.51728" lon="7.23286">
        <ele>2812.1</ele>
        <time>2021-11-07T08:06:19Z</time>
      </trkpt>
      <trkpt lat="45.5173" lon="7.23286">
        <ele>2812.5</ele>
        <time>2021-11-07T08:06:21Z</time>
      </trkpt>
      <trkpt lat="45.51731" lon="7.23287">
        <ele>2812.9</ele>
        <time>2021-11-07T08:06:23Z</time>
      </trkpt>
      <trkpt lat="45.51735" lon="7.2329">
        <ele>2814.1</ele>
        <time>2021-11-07T08:06:29Z</time>
      </trkpt>
      <trkpt lat="45.51735" lon="7.2329">
        <ele>2814.2</ele>
        <time>2021-11-07T08:06:30Z</time>
      </trkpt>
      <trkpt lat="45.51736" lon="7.2329">
        <ele>2814.3</ele>
        <time>2021-11-07T08:06:31Z</time>
      </trkpt>
      <trkpt lat="45.51738" lon="7.23291">
        <ele>2815.1</ele>
        <time>2021-11-07T08:06:37Z</time>
      </trkpt>
      <trkpt lat="45.51739" lon="7.23291">
        <ele>2815.3</ele>
        <time>2021-11-07T08:06:38Z</time>
      </trkpt>
      <trkpt lat="45.51743" lon="7.23293">
        <ele>2816.2</ele>
        <time>2021-11-07T08:06:43Z</time>
      </trkpt>
      <trkpt lat="45.51743" lon="7.23294">
        <ele>2816.4</ele>
        <time>2021-11-07T08:06:48Z</time>
      </trkpt>
      <trkpt lat="45.51742" lon="7.23294">
        <ele>2816.5</ele>
        <time>2021-11-07T08:06:50Z</time>
      </trkpt>
      <trkpt lat="45.51742" lon="7.23295">
        <ele>2816.9</ele>
        <time>2021-11-07T08:06:53Z</time>
      </trkpt>
      <trkpt lat="45.51742" lon="7.23296">
        <ele>2817</ele>
        <time>2021-11-07T08:06:54Z</time>
      </trkpt>
      <trkpt lat="45.51742" lon="7.23297">
        <ele>2817.2</ele>
        <time>2021-11-07T08:06:55Z</time>
      </trkpt>
      <trkpt lat="45.51742" lon="7.23298">
        <ele>2817.4</ele>
        <time>2021-11-07T08:06:56Z</time>
      </trkpt>
      <trkpt lat="45.51741" lon="7.23299">
        <ele>2817.6</ele>
        <time>2021-11-07T08:06:57Z</time>
      </trkpt>
      <trkpt lat="45.51741" lon="7.233">
        <ele>2817.8</ele>
        <time>2021-11-07T08:06:58Z</time>
      </trkpt>
      <trkpt lat="45.51739" lon="7.23302">
        <ele>2818.4</ele>
        <time>2021-11-07T08:07:01Z</time>
      </trkpt>
      <trkpt lat="45.51739" lon="7.23304">
        <ele>2818.8</ele>
        <time>2021-11-07T08:07:03Z</time>
      </trkpt>
      <trkpt lat="45.51739" lon="7.23305">
        <ele>2818.9</ele>
        <time>2021-11-07T08:07:04Z</time>
      </trkpt>
      <trkpt lat="45.51738" lon="7.23307">
        <ele>2819.4</ele>
        <time>2021-11-07T08:07:07Z</time>
      </trkpt>
      <trkpt lat="45.51737" lon="7.23309">
        <ele>2819.9</ele>
        <time>2021-11-07T08:07:10Z</time>
      </trkpt>
      <trkpt lat="45.51738" lon="7.23311">
        <ele>2820.2</ele>
        <time>2021-11-07T08:07:15Z</time>
      </trkpt>
      <trkpt lat="45.51738" lon="7.23312">
        <ele>2820.4</ele>
        <time>2021-11-07T08:07:17Z</time>
      </trkpt>
      <trkpt lat="45.5174" lon="7.23313">
        <ele>2820.9</ele>
        <time>2021-11-07T08:07:21Z</time>
      </trkpt>
      <trkpt lat="45.51742" lon="7.23315">
        <ele>2821.5</ele>
        <time>2021-11-07T08:07:26Z</time>
      </trkpt>
      <trkpt lat="45.51742" lon="7.23316">
        <ele>2821.6</ele>
        <time>2021-11-07T08:07:27Z</time>
      </trkpt>
      <trkpt lat="45.51741" lon="7.23319">
        <ele>2822.3</ele>
        <time>2021-11-07T08:07:34Z</time>
      </trkpt>
      <trkpt lat="45.5174" lon="7.2332">
        <ele>2822.4</ele>
        <time>2021-11-07T08:07:35Z</time>
      </trkpt>
      <trkpt lat="45.51739" lon="7.23322">
        <ele>2823.7</ele>
        <time>2021-11-07T08:07:38Z</time>
      </trkpt>
      <trkpt lat="45.5174" lon="7.23324">
        <ele>2823.7</ele>
        <time>2021-11-07T08:07:42Z</time>
      </trkpt>
      <trkpt lat="45.51741" lon="7.23325">
        <ele>2823.8</ele>
        <time>2021-11-07T08:07:44Z</time>
      </trkpt>
      <trkpt lat="45.51745" lon="7.23327">
        <ele>2826.4</ele>
        <time>2021-11-07T08:07:50Z</time>
      </trkpt>
      <trkpt lat="45.51747" lon="7.23329">
        <ele>2826.4</ele>
        <time>2021-11-07T08:07:54Z</time>
      </trkpt>
      <trkpt lat="45.51748" lon="7.23331">
        <ele>2828.4</ele>
        <time>2021-11-07T08:07:57Z</time>
      </trkpt>
      <trkpt lat="45.51748" lon="7.23334">
        <ele>2828.4</ele>
        <time>2021-11-07T08:08:00Z</time>
      </trkpt>
      <trkpt lat="45.51747" lon="7.23336">
        <ele>2828.9</ele>
        <time>2021-11-07T08:08:03Z</time>
      </trkpt>
      <trkpt lat="45.51747" lon="7.23336">
        <ele>2829</ele>
        <time>2021-11-07T08:08:04Z</time>
      </trkpt>
      <trkpt lat="45.51747" lon="7.23339">
        <ele>2830.2</ele>
        <time>2021-11-07T08:08:08Z</time>
      </trkpt>
      <trkpt lat="45.51747" lon="7.23342">
        <ele>2830.3</ele>
        <time>2021-11-07T08:08:13Z</time>
      </trkpt>
      <trkpt lat="45.51749" lon="7.23344">
        <ele>2832</ele>
        <time>2021-11-07T08:08:21Z</time>
      </trkpt>
      <trkpt lat="45.51749" lon="7.23344">
        <ele>2832.1</ele>
        <time>2021-11-07T08:08:23Z</time>
      </trkpt>
      <trkpt lat="45.51751" lon="7.23349">
        <ele>2833.9</ele>
        <time>2021-11-07T08:08:31Z</time>
      </trkpt>
      <trkpt lat="45.51753" lon="7.2335">
        <ele>2833.9</ele>
        <time>2021-11-07T08:08:33Z</time>
      </trkpt>
      <trkpt lat="45.51753" lon="7.23351">
        <ele>2834</ele>
        <time>2021-11-07T08:08:35Z</time>
      </trkpt>
      <trkpt lat="45.51754" lon="7.23352">
        <ele>2835.8</ele>
        <time>2021-11-07T08:08:37Z</time>
      </trkpt>
      <trkpt lat="45.51754" lon="7.23353">
        <ele>2835.9</ele>
        <time>2021-11-07T08:08:38Z</time>
      </trkpt>
      <trkpt lat="45.51755" lon="7.23355">
        <ele>2836</ele>
        <time>2021-11-07T08:08:40Z</time>
      </trkpt>
      <trkpt lat="45.51755" lon="7.23356">
        <ele>2837.1</ele>
        <time>2021-11-07T08:08:41Z</time>
      </trkpt>
      <trkpt lat="45.51756" lon="7.23356">
        <ele>2837.2</ele>
        <time>2021-11-07T08:08:42Z</time>
      </trkpt>
      <trkpt lat="45.51756" lon="7.23357">
        <ele>2837.3</ele>
        <time>2021-11-07T08:08:43Z</time>
      </trkpt>
      <trkpt lat="45.51757" lon="7.23358">
        <ele>2838</ele>
        <time>2021-11-07T08:08:44Z</time>
      </trkpt>
      <trkpt lat="45.51758" lon="7.23359">
        <ele>2838.1</ele>
        <time>2021-11-07T08:08:46Z</time>
      </trkpt>
      <trkpt lat="45.5176" lon="7.23359">
        <ele>2838.9</ele>
        <time>2021-11-07T08:08:49Z</time>
      </trkpt>
      <trkpt lat="45.51761" lon="7.2336">
        <ele>2838.9</ele>
        <time>2021-11-07T08:08:51Z</time>
      </trkpt>
      <trkpt lat="45.51763" lon="7.23361">
        <ele>2840.8</ele>
        <time>2021-11-07T08:08:56Z</time>
      </trkpt>
      <trkpt lat="45.51765" lon="7.23364">
        <ele>2842.1</ele>
        <time>2021-11-07T08:09:01Z</time>
      </trkpt>
      <trkpt lat="45.51765" lon="7.23366">
        <ele>2842.1</ele>
        <time>2021-11-07T08:09:03Z</time>
      </trkpt>
      <trkpt lat="45.51765" lon="7.23368">
        <ele>2843.4</ele>
        <time>2021-11-07T08:09:06Z</time>
      </trkpt>
      <trkpt lat="45.51765" lon="7.23373">
        <ele>2844.6</ele>
        <time>2021-11-07T08:09:11Z</time>
      </trkpt>
      <trkpt lat="45.51766" lon="7.23375">
        <ele>2845.4</ele>
        <time>2021-11-07T08:09:14Z</time>
      </trkpt>
      <trkpt lat="45.51766" lon="7.23377">
        <ele>2845.5</ele>
        <time>2021-11-07T08:09:16Z</time>
      </trkpt>
      <trkpt lat="45.51766" lon="7.23378">
        <ele>2846.7</ele>
        <time>2021-11-07T08:09:18Z</time>
      </trkpt>
      <trkpt lat="45.51767" lon="7.23379">
        <ele>2846.7</ele>
        <time>2021-11-07T08:09:19Z</time>
      </trkpt>
      <trkpt lat="45.51767" lon="7.23385">
        <ele>2847.9</ele>
        <time>2021-11-07T08:09:26Z</time>
      </trkpt>
      <trkpt lat="45.51768" lon="7.23386">
        <ele>2849.1</ele>
        <time>2021-11-07T08:09:33Z</time>
      </trkpt>
      <trkpt lat="45.51768" lon="7.23386">
        <ele>2849.1</ele>
        <time>2021-11-07T08:09:35Z</time>
      </trkpt>
      <trkpt lat="45.51768" lon="7.23385">
        <ele>2848.1</ele>
        <time>2021-11-07T08:09:43Z</time>
      </trkpt>
      <trkpt lat="45.51769" lon="7.23385">
        <ele>2850</ele>
        <time>2021-11-07T08:09:46Z</time>
      </trkpt>
      <trkpt lat="45.51769" lon="7.23392">
        <ele>2851.2</ele>
        <time>2021-11-07T08:09:55Z</time>
      </trkpt>
      <trkpt lat="45.51771" lon="7.23395">
        <ele>2852.3</ele>
        <time>2021-11-07T08:09:59Z</time>
      </trkpt>
      <trkpt lat="45.51772" lon="7.23397">
        <ele>2853.2</ele>
        <time>2021-11-07T08:10:02Z</time>
      </trkpt>
      <trkpt lat="45.51773" lon="7.23399">
        <ele>2854.4</ele>
        <time>2021-11-07T08:10:06Z</time>
      </trkpt>
      <trkpt lat="45.51772" lon="7.23405">
        <ele>2855.6</ele>
        <time>2021-11-07T08:10:12Z</time>
      </trkpt>
      <trkpt lat="45.51771" lon="7.23406">
        <ele>2854.9</ele>
        <time>2021-11-07T08:10:14Z</time>
      </trkpt>
      <trkpt lat="45.51771" lon="7.23408">
        <ele>2856.2</ele>
        <time>2021-11-07T08:10:16Z</time>
      </trkpt>
      <trkpt lat="45.51771" lon="7.23411">
        <ele>2857.5</ele>
        <time>2021-11-07T08:10:20Z</time>
      </trkpt>
      <trkpt lat="45.51771" lon="7.23416">
        <ele>2858.8</ele>
        <time>2021-11-07T08:10:26Z</time>
      </trkpt>
      <trkpt lat="45.51771" lon="7.23424">
        <ele>2860</ele>
        <time>2021-11-07T08:10:36Z</time>
      </trkpt>
      <trkpt lat="45.51771" lon="7.23429">
        <ele>2862.2</ele>
        <time>2021-11-07T08:10:42Z</time>
      </trkpt>
      <trkpt lat="45.5177" lon="7.2343">
        <ele>2862.3</ele>
        <time>2021-11-07T08:10:43Z</time>
      </trkpt>
      <trkpt lat="45.5177" lon="7.23431">
        <ele>2862.4</ele>
        <time>2021-11-07T08:10:44Z</time>
      </trkpt>
      <trkpt lat="45.5177" lon="7.23433">
        <ele>2863.4</ele>
        <time>2021-11-07T08:10:47Z</time>
      </trkpt>
      <trkpt lat="45.51772" lon="7.23435">
        <ele>2864.2</ele>
        <time>2021-11-07T08:10:51Z</time>
      </trkpt>
      <trkpt lat="45.51773" lon="7.23438">
        <ele>2865.2</ele>
        <time>2021-11-07T08:10:56Z</time>
      </trkpt>
      <trkpt lat="45.51775" lon="7.23445">
        <ele>2867</ele>
        <time>2021-11-07T08:11:06Z</time>
      </trkpt>
      <trkpt lat="45.51775" lon="7.23446">
        <ele>2868</ele>
        <time>2021-11-07T08:11:07Z</time>
      </trkpt>
      <trkpt lat="45.51774" lon="7.23454">
        <ele>2869.1</ele>
        <time>2021-11-07T08:11:17Z</time>
      </trkpt>
      <trkpt lat="45.51773" lon="7.2346">
        <ele>2870</ele>
        <time>2021-11-07T08:11:25Z</time>
      </trkpt>
      <trkpt lat="45.51773" lon="7.2346">
        <ele>2870.1</ele>
        <time>2021-11-07T08:11:26Z</time>
      </trkpt>
      <trkpt lat="45.51773" lon="7.23462">
        <ele>2870.2</ele>
        <time>2021-11-07T08:11:28Z</time>
      </trkpt>
      <trkpt lat="45.51773" lon="7.23462">
        <ele>2870.3</ele>
        <time>2021-11-07T08:11:29Z</time>
      </trkpt>
      <trkpt lat="45.51773" lon="7.23463">
        <ele>2871.2</ele>
        <time>2021-11-07T08:11:30Z</time>
      </trkpt>
      <trkpt lat="45.51773" lon="7.23466">
        <ele>2871.3</ele>
        <time>2021-11-07T08:11:33Z</time>
      </trkpt>
      <trkpt lat="45.51773" lon="7.23466">
        <ele>2871.3</ele>
        <time>2021-11-07T08:11:34Z</time>
      </trkpt>
      <trkpt lat="45.51774" lon="7.23471">
        <ele>2873.1</ele>
        <time>2021-11-07T08:11:40Z</time>
      </trkpt>
      <trkpt lat="45.51773" lon="7.23472">
        <ele>2873.1</ele>
        <time>2021-11-07T08:11:41Z</time>
      </trkpt>
      <trkpt lat="45.51773" lon="7.23473">
        <ele>2873.2</ele>
        <time>2021-11-07T08:11:42Z</time>
      </trkpt>
      <trkpt lat="45.51773" lon="7.23475">
        <ele>2873.3</ele>
        <time>2021-11-07T08:11:44Z</time>
      </trkpt>
      <trkpt lat="45.51773" lon="7.23477">
        <ele>2874.1</ele>
        <time>2021-11-07T08:11:47Z</time>
      </trkpt>
      <trkpt lat="45.51773" lon="7.2348">
        <ele>2875</ele>
        <time>2021-11-07T08:11:50Z</time>
      </trkpt>
      <trkpt lat="45.51773" lon="7.23481">
        <ele>2875.1</ele>
        <time>2021-11-07T08:11:51Z</time>
      </trkpt>
      <trkpt lat="45.51773" lon="7.23482">
        <ele>2875.1</ele>
        <time>2021-11-07T08:11:52Z</time>
      </trkpt>
      <trkpt lat="45.51772" lon="7.23483">
        <ele>2875.2</ele>
        <time>2021-11-07T08:11:53Z</time>
      </trkpt>
      <trkpt lat="45.51773" lon="7.23486">
        <ele>2876</ele>
        <time>2021-11-07T08:11:58Z</time>
      </trkpt>
      <trkpt lat="45.51773" lon="7.23487">
        <ele>2876.1</ele>
        <time>2021-11-07T08:12:01Z</time>
      </trkpt>
      <trkpt lat="45.51774" lon="7.23488">
        <ele>2876.2</ele>
        <time>2021-11-07T08:12:02Z</time>
      </trkpt>
      <trkpt lat="45.51775" lon="7.23492">
        <ele>2877.9</ele>
        <time>2021-11-07T08:12:10Z</time>
      </trkpt>
      <trkpt lat="45.51776" lon="7.23494">
        <ele>2878.8</ele>
        <time>2021-11-07T08:12:14Z</time>
      </trkpt>
      <trkpt lat="45.51776" lon="7.23495">
        <ele>2878.8</ele>
        <time>2021-11-07T08:12:15Z</time>
      </trkpt>
      <trkpt lat="45.51777" lon="7.23498">
        <ele>2879.8</ele>
        <time>2021-11-07T08:12:20Z</time>
      </trkpt>
      <trkpt lat="45.51776" lon="7.23501">
        <ele>2879.8</ele>
        <time>2021-11-07T08:12:24Z</time>
      </trkpt>
      <trkpt lat="45.51776" lon="7.23502">
        <ele>2880.7</ele>
        <time>2021-11-07T08:12:25Z</time>
      </trkpt>
      <trkpt lat="45.51775" lon="7.23503">
        <ele>2880.8</ele>
        <time>2021-11-07T08:12:27Z</time>
      </trkpt>
      <trkpt lat="45.51776" lon="7.23506">
        <ele>2881.7</ele>
        <time>2021-11-07T08:12:33Z</time>
      </trkpt>
      <trkpt lat="45.51777" lon="7.23506">
        <ele>2881.8</ele>
        <time>2021-11-07T08:12:35Z</time>
      </trkpt>
      <trkpt lat="45.5178" lon="7.23512">
        <ele>2883.4</ele>
        <time>2021-11-07T08:12:44Z</time>
      </trkpt>
      <trkpt lat="45.5178" lon="7.23513">
        <ele>2883.5</ele>
        <time>2021-11-07T08:12:46Z</time>
      </trkpt>
      <trkpt lat="45.5178" lon="7.23515">
        <ele>2884.3</ele>
        <time>2021-11-07T08:12:49Z</time>
      </trkpt>
      <trkpt lat="45.5178" lon="7.2352">
        <ele>2885</ele>
        <time>2021-11-07T08:12:55Z</time>
      </trkpt>
      <trkpt lat="45.5178" lon="7.23522">
        <ele>2885.1</ele>
        <time>2021-11-07T08:12:57Z</time>
      </trkpt>
      <trkpt lat="45.51781" lon="7.23524">
        <ele>2886.5</ele>
        <time>2021-11-07T08:13:01Z</time>
      </trkpt>
      <trkpt lat="45.51782" lon="7.2353">
        <ele>2887.1</ele>
        <time>2021-11-07T08:13:07Z</time>
      </trkpt>
      <trkpt lat="45.51782" lon="7.23531">
        <ele>2887.2</ele>
        <time>2021-11-07T08:13:08Z</time>
      </trkpt>
      <trkpt lat="45.51782" lon="7.23534">
        <ele>2887.7</ele>
        <time>2021-11-07T08:13:11Z</time>
      </trkpt>
      <trkpt lat="45.51782" lon="7.23535">
        <ele>2887.8</ele>
        <time>2021-11-07T08:13:13Z</time>
      </trkpt>
      <trkpt lat="45.51783" lon="7.23538">
        <ele>2888.4</ele>
        <time>2021-11-07T08:13:16Z</time>
      </trkpt>
      <trkpt lat="45.51784" lon="7.23539">
        <ele>2889.2</ele>
        <time>2021-11-07T08:13:17Z</time>
      </trkpt>
      <trkpt lat="45.51784" lon="7.23541">
        <ele>2889.7</ele>
        <time>2021-11-07T08:13:19Z</time>
      </trkpt>
      <trkpt lat="45.51785" lon="7.23544">
        <ele>2889.8</ele>
        <time>2021-11-07T08:13:22Z</time>
      </trkpt>
      <trkpt lat="45.51785" lon="7.23546">
        <ele>2890</ele>
        <time>2021-11-07T08:13:24Z</time>
      </trkpt>
      <trkpt lat="45.51785" lon="7.23551">
        <ele>2890.7</ele>
        <time>2021-11-07T08:13:29Z</time>
      </trkpt>
      <trkpt lat="45.51786" lon="7.23553">
        <ele>2890.9</ele>
        <time>2021-11-07T08:13:31Z</time>
      </trkpt>
      <trkpt lat="45.51787" lon="7.23561">
        <ele>2892</ele>
        <time>2021-11-07T08:13:40Z</time>
      </trkpt>
      <trkpt lat="45.51787" lon="7.23562">
        <ele>2892.1</ele>
        <time>2021-11-07T08:13:41Z</time>
      </trkpt>
      <trkpt lat="45.51788" lon="7.23563">
        <ele>2892.2</ele>
        <time>2021-11-07T08:13:42Z</time>
      </trkpt>
      <trkpt lat="45.51788" lon="7.23565">
        <ele>2892.4</ele>
        <time>2021-11-07T08:13:44Z</time>
      </trkpt>
      <trkpt lat="45.51788" lon="7.23568">
        <ele>2892.8</ele>
        <time>2021-11-07T08:13:47Z</time>
      </trkpt>
      <trkpt lat="45.51788" lon="7.23576">
        <ele>2893.8</ele>
        <time>2021-11-07T08:13:55Z</time>
      </trkpt>
      <trkpt lat="45.51788" lon="7.23577">
        <ele>2893.9</ele>
        <time>2021-11-07T08:13:56Z</time>
      </trkpt>
      <trkpt lat="45.51788" lon="7.23579">
        <ele>2894.2</ele>
        <time>2021-11-07T08:13:58Z</time>
      </trkpt>
      <trkpt lat="45.51788" lon="7.23582">
        <ele>2894.6</ele>
        <time>2021-11-07T08:14:05Z</time>
      </trkpt>
      <trkpt lat="45.51788" lon="7.23582">
        <ele>2894.6</ele>
        <time>2021-11-07T08:14:08Z</time>
      </trkpt>
      <trkpt lat="45.51787" lon="7.23583">
        <ele>2894.7</ele>
        <time>2021-11-07T08:14:11Z</time>
      </trkpt>
      <trkpt lat="45.51787" lon="7.23582">
        <ele>2894.8</ele>
        <time>2021-11-07T08:14:20Z</time>
      </trkpt>
      <trkpt lat="45.51787" lon="7.23582">
        <ele>2894.9</ele>
        <time>2021-11-07T08:14:21Z</time>
      </trkpt>
      <trkpt lat="45.51787" lon="7.2358">
        <ele>2895</ele>
        <time>2021-11-07T08:14:25Z</time>
      </trkpt>
      <trkpt lat="45.51786" lon="7.23579">
        <ele>2895.2</ele>
        <time>2021-11-07T08:14:28Z</time>
      </trkpt>
      <trkpt lat="45.51787" lon="7.23578">
        <ele>2895.3</ele>
        <time>2021-11-07T08:14:31Z</time>
      </trkpt>
      <trkpt lat="45.51787" lon="7.23579">
        <ele>2895.3</ele>
        <time>2021-11-07T08:14:32Z</time>
      </trkpt>
      <trkpt lat="45.51787" lon="7.23579">
        <ele>2895.3</ele>
        <time>2021-11-07T08:14:33Z</time>
      </trkpt>
      <trkpt lat="45.51786" lon="7.23579">
        <ele>2895.4</ele>
        <time>2021-11-07T08:14:36Z</time>
      </trkpt>
      <trkpt lat="45.51786" lon="7.23579">
        <ele>2895.4</ele>
        <time>2021-11-07T08:14:37Z</time>
      </trkpt>
      <trkpt lat="45.51786" lon="7.2358">
        <ele>2895.5</ele>
        <time>2021-11-07T08:14:39Z</time>
      </trkpt>
      <trkpt lat="45.51786" lon="7.2358">
        <ele>2895.6</ele>
        <time>2021-11-07T08:14:42Z</time>
      </trkpt>
      <trkpt lat="45.51786" lon="7.2358">
        <ele>2895.6</ele>
        <time>2021-11-07T08:14:45Z</time>
      </trkpt>
      <trkpt lat="45.51785" lon="7.23582">
        <ele>2895.9</ele>
        <time>2021-11-07T08:14:50Z</time>
      </trkpt>
      <trkpt lat="45.51784" lon="7.23582">
        <ele>2896</ele>
        <time>2021-11-07T08:14:52Z</time>
      </trkpt>
      <trkpt lat="45.51784" lon="7.23583">
        <ele>2896.1</ele>
        <time>2021-11-07T08:14:55Z</time>
      </trkpt>
      <trkpt lat="45.51785" lon="7.23582">
        <ele>2896.4</ele>
        <time>2021-11-07T08:15:01Z</time>
      </trkpt>
      <trkpt lat="45.51786" lon="7.23583">
        <ele>2896.6</ele>
        <time>2021-11-07T08:15:03Z</time>
      </trkpt>
      <trkpt lat="45.51786" lon="7.23583">
        <ele>2896.7</ele>
        <time>2021-11-07T08:15:04Z</time>
      </trkpt>
      <trkpt lat="45.51788" lon="7.23587">
        <ele>2897.3</ele>
        <time>2021-11-07T08:15:10Z</time>
      </trkpt>
      <trkpt lat="45.51789" lon="7.23588">
        <ele>2897.4</ele>
        <time>2021-11-07T08:15:11Z</time>
      </trkpt>
      <trkpt lat="45.5179" lon="7.23591">
        <ele>2897.8</ele>
        <time>2021-11-07T08:15:16Z</time>
      </trkpt>
      <trkpt lat="45.5179" lon="7.23593">
        <ele>2898</ele>
        <time>2021-11-07T08:15:18Z</time>
      </trkpt>
      <trkpt lat="45.5179" lon="7.23594">
        <ele>2898.2</ele>
        <time>2021-11-07T08:15:20Z</time>
      </trkpt>
      <trkpt lat="45.5179" lon="7.23595">
        <ele>2898.3</ele>
        <time>2021-11-07T08:15:21Z</time>
      </trkpt>
      <trkpt lat="45.51791" lon="7.23595">
        <ele>2898.4</ele>
        <time>2021-11-07T08:15:22Z</time>
      </trkpt>
      <trkpt lat="45.51791" lon="7.23596">
        <ele>2898.5</ele>
        <time>2021-11-07T08:15:24Z</time>
      </trkpt>
      <trkpt lat="45.51792" lon="7.23598">
        <ele>2898.7</ele>
        <time>2021-11-07T08:15:26Z</time>
      </trkpt>
      <trkpt lat="45.51792" lon="7.23599">
        <ele>2898.9</ele>
        <time>2021-11-07T08:15:28Z</time>
      </trkpt>
      <trkpt lat="45.51792" lon="7.236">
        <ele>2899</ele>
        <time>2021-11-07T08:15:29Z</time>
      </trkpt>
      <trkpt lat="45.51792" lon="7.236">
        <ele>2899</ele>
        <time>2021-11-07T08:15:30Z</time>
      </trkpt>
      <trkpt lat="45.51792" lon="7.236">
        <ele>2899.2</ele>
        <time>2021-11-07T08:15:31Z</time>
      </trkpt>
      <trkpt lat="45.51793" lon="7.23599">
        <ele>2899.3</ele>
        <time>2021-11-07T08:15:35Z</time>
      </trkpt>
      <trkpt lat="45.51792" lon="7.23599">
        <ele>2899.4</ele>
        <time>2021-11-07T08:15:37Z</time>
      </trkpt>
      <trkpt lat="45.51792" lon="7.23599">
        <ele>2899.5</ele>
        <time>2021-11-07T08:15:39Z</time>
      </trkpt>
      <trkpt lat="45.51792" lon="7.23598">
        <ele>2899.6</ele>
        <time>2021-11-07T08:15:41Z</time>
      </trkpt>
      <trkpt lat="45.51791" lon="7.23597">
        <ele>2899.7</ele>
        <time>2021-11-07T08:15:43Z</time>
      </trkpt>
      <trkpt lat="45.51791" lon="7.23596">
        <ele>2899.8</ele>
        <time>2021-11-07T08:15:45Z</time>
      </trkpt>
      <trkpt lat="45.51791" lon="7.23596">
        <ele>2899.8</ele>
        <time>2021-11-07T08:15:47Z</time>
      </trkpt>
      <trkpt lat="45.51791" lon="7.23596">
        <ele>2899.8</ele>
        <time>2021-11-07T08:15:50Z</time>
      </trkpt>
      <trkpt lat="45.51791" lon="7.23595">
        <ele>2900</ele>
        <time>2021-11-07T08:15:53Z</time>
      </trkpt>
      <trkpt lat="45.51791" lon="7.23592">
        <ele>2900.3</ele>
        <time>2021-11-07T08:15:57Z</time>
      </trkpt>
      <trkpt lat="45.51791" lon="7.2359">
        <ele>2900.6</ele>
        <time>2021-11-07T08:15:59Z</time>
      </trkpt>
      <trkpt lat="45.51791" lon="7.23589">
        <ele>2900.8</ele>
        <time>2021-11-07T08:16:00Z</time>
      </trkpt>
      <trkpt lat="45.5179" lon="7.23585">
        <ele>2901.2</ele>
        <time>2021-11-07T08:16:03Z</time>
      </trkpt>
      <trkpt lat="45.5179" lon="7.23582">
        <ele>2901.6</ele>
        <time>2021-11-07T08:16:07Z</time>
      </trkpt>
      <trkpt lat="45.5179" lon="7.23582">
        <ele>2901.7</ele>
        <time>2021-11-07T08:16:12Z</time>
      </trkpt>
      <trkpt lat="45.5179" lon="7.23582">
        <ele>2901.7</ele>
        <time>2021-11-07T08:16:21Z</time>
      </trkpt>
      <trkpt lat="45.5179" lon="7.23582">
        <ele>2901.8</ele>
        <time>2021-11-07T08:16:22Z</time>
      </trkpt>
      <trkpt lat="45.51789" lon="7.23583">
        <ele>2901.9</ele>
        <time>2021-11-07T08:16:23Z</time>
      </trkpt>
      <trkpt lat="45.51789" lon="7.23583">
        <ele>2901.9</ele>
        <time>2021-11-07T08:16:24Z</time>
      </trkpt>
      <trkpt lat="45.51789" lon="7.23583">
        <ele>2902</ele>
        <time>2021-11-07T08:16:26Z</time>
      </trkpt>
      <trkpt lat="45.51787" lon="7.23585">
        <ele>2902.3</ele>
        <time>2021-11-07T08:16:29Z</time>
      </trkpt>
      <trkpt lat="45.51786" lon="7.23585">
        <ele>2902.5</ele>
        <time>2021-11-07T08:16:31Z</time>
      </trkpt>
      <trkpt lat="45.51786" lon="7.23586">
        <ele>2902.6</ele>
        <time>2021-11-07T08:16:33Z</time>
      </trkpt>
      <trkpt lat="45.51784" lon="7.23588">
        <ele>2903</ele>
        <time>2021-11-07T08:16:39Z</time>
      </trkpt>
      <trkpt lat="45.51784" lon="7.23588">
        <ele>2903.1</ele>
        <time>2021-11-07T08:16:40Z</time>
      </trkpt>
      <trkpt lat="45.51783" lon="7.23587">
        <ele>2903.2</ele>
        <time>2021-11-07T08:16:43Z</time>
      </trkpt>
      <trkpt lat="45.51783" lon="7.23588">
        <ele>2903.3</ele>
        <time>2021-11-07T08:16:45Z</time>
      </trkpt>
      <trkpt lat="45.51783" lon="7.23587">
        <ele>2903.4</ele>
        <time>2021-11-07T08:16:48Z</time>
      </trkpt>
      <trkpt lat="45.51783" lon="7.23587">
        <ele>2903.5</ele>
        <time>2021-11-07T08:16:51Z</time>
      </trkpt>
      <trkpt lat="45.51783" lon="7.23588">
        <ele>2903.6</ele>
        <time>2021-11-07T08:16:53Z</time>
      </trkpt>
      <trkpt lat="45.51781" lon="7.23588">
        <ele>2903.8</ele>
        <time>2021-11-07T08:16:58Z</time>
      </trkpt>
      <trkpt lat="45.51781" lon="7.23588">
        <ele>2903.9</ele>
        <time>2021-11-07T08:16:59Z</time>
      </trkpt>
      <trkpt lat="45.51782" lon="7.23587">
        <ele>2904.2</ele>
        <time>2021-11-07T08:17:02Z</time>
      </trkpt>
      <trkpt lat="45.51784" lon="7.23586">
        <ele>2904.7</ele>
        <time>2021-11-07T08:17:10Z</time>
      </trkpt>
      <trkpt lat="45.51785" lon="7.23585">
        <ele>2904.8</ele>
        <time>2021-11-07T08:17:14Z</time>
      </trkpt>
      <trkpt lat="45.51785" lon="7.23585">
        <ele>2904.9</ele>
        <time>2021-11-07T08:17:15Z</time>
      </trkpt>
      <trkpt lat="45.51786" lon="7.23585">
        <ele>2904.9</ele>
        <time>2021-11-07T08:17:16Z</time>
      </trkpt>
      <trkpt lat="45.51786" lon="7.23584">
        <ele>2905</ele>
        <time>2021-11-07T08:17:18Z</time>
      </trkpt>
      <trkpt lat="45.51787" lon="7.23584">
        <ele>2905.2</ele>
        <time>2021-11-07T08:17:22Z</time>
      </trkpt>
      <trkpt lat="45.51788" lon="7.23583">
        <ele>2905.3</ele>
        <time>2021-11-07T08:17:25Z</time>
      </trkpt>
      <trkpt lat="45.51788" lon="7.23583">
        <ele>2905.5</ele>
        <time>2021-11-07T08:17:28Z</time>
      </trkpt>
      <trkpt lat="45.51789" lon="7.23582">
        <ele>2905.6</ele>
        <time>2021-11-07T08:17:31Z</time>
      </trkpt>
      <trkpt lat="45.5179" lon="7.23581">
        <ele>2905.8</ele>
        <time>2021-11-07T08:17:35Z</time>
      </trkpt>
      <trkpt lat="45.5179" lon="7.23581">
        <ele>2905.9</ele>
        <time>2021-11-07T08:17:39Z</time>
      </trkpt>
      <trkpt lat="45.5179" lon="7.23581">
        <ele>2905.9</ele>
        <time>2021-11-07T08:17:41Z</time>
      </trkpt>
      <trkpt lat="45.5179" lon="7.23581">
        <ele>2905.9</ele>
        <time>2021-11-07T08:17:43Z</time>
      </trkpt>
      <trkpt lat="45.5179" lon="7.2358">
        <ele>2906</ele>
        <time>2021-11-07T08:17:46Z</time>
      </trkpt>
      <trkpt lat="45.5179" lon="7.2358">
        <ele>2906</ele>
        <time>2021-11-07T08:17:51Z</time>
      </trkpt>
      <trkpt lat="45.5179" lon="7.23579">
        <ele>2906.1</ele>
        <time>2021-11-07T08:17:58Z</time>
      </trkpt>
      <trkpt lat="45.5179" lon="7.23579">
        <ele>2906.2</ele>
        <time>2021-11-07T08:18:00Z</time>
      </trkpt>
      <trkpt lat="45.51789" lon="7.23579">
        <ele>2906.2</ele>
        <time>2021-11-07T08:18:01Z</time>
      </trkpt>
      <trkpt lat="45.51789" lon="7.2358">
        <ele>2906.4</ele>
        <time>2021-11-07T08:18:05Z</time>
      </trkpt>
      <trkpt lat="45.51788" lon="7.23581">
        <ele>2906.5</ele>
        <time>2021-11-07T08:18:13Z</time>
      </trkpt>
      <trkpt lat="45.51789" lon="7.23581">
        <ele>2906.6</ele>
        <time>2021-11-07T08:18:16Z</time>
      </trkpt>
      <trkpt lat="45.51789" lon="7.2358">
        <ele>2906.7</ele>
        <time>2021-11-07T08:18:26Z</time>
      </trkpt>
      <trkpt lat="45.51789" lon="7.2358">
        <ele>2906.8</ele>
        <time>2021-11-07T08:18:30Z</time>
      </trkpt>
      <trkpt lat="45.51789" lon="7.2358">
        <ele>2906.8</ele>
        <time>2021-11-07T08:18:31Z</time>
      </trkpt>
      <trkpt lat="45.51789" lon="7.2358">
        <ele>2906.8</ele>
        <time>2021-11-07T08:18:32Z</time>
      </trkpt>
      <trkpt lat="45.51789" lon="7.2358">
        <ele>2906.9</ele>
        <time>2021-11-07T08:18:36Z</time>
      </trkpt>
      <trkpt lat="45.51789" lon="7.2358">
        <ele>2906.9</ele>
        <time>2021-11-07T08:18:37Z</time>
      </trkpt>
      <trkpt lat="45.5179" lon="7.23582">
        <ele>2907.2</ele>
        <time>2021-11-07T08:18:46Z</time>
      </trkpt>
      <trkpt lat="45.5179" lon="7.23583">
        <ele>2907.2</ele>
        <time>2021-11-07T08:18:47Z</time>
      </trkpt>
      <trkpt lat="45.51791" lon="7.23586">
        <ele>2907.6</ele>
        <time>2021-11-07T08:18:50Z</time>
      </trkpt>
      <trkpt lat="45.51791" lon="7.23586">
        <ele>2907.7</ele>
        <time>2021-11-07T08:18:51Z</time>
      </trkpt>
      <trkpt lat="45.51791" lon="7.23587">
        <ele>2907.8</ele>
        <time>2021-11-07T08:18:52Z</time>
      </trkpt>
      <trkpt lat="45.51791" lon="7.23588">
        <ele>2907.9</ele>
        <time>2021-11-07T08:18:53Z</time>
      </trkpt>
      <trkpt lat="45.51791" lon="7.23589">
        <ele>2908</ele>
        <time>2021-11-07T08:18:54Z</time>
      </trkpt>
      <trkpt lat="45.51791" lon="7.23591">
        <ele>2908.3</ele>
        <time>2021-11-07T08:18:56Z</time>
      </trkpt>
      <trkpt lat="45.51792" lon="7.23593">
        <ele>2908.6</ele>
        <time>2021-11-07T08:18:59Z</time>
      </trkpt>
      <trkpt lat="45.51793" lon="7.23594">
        <ele>2908.8</ele>
        <time>2021-11-07T08:19:00Z</time>
      </trkpt>
      <trkpt lat="45.51793" lon="7.23597">
        <ele>2909.1</ele>
        <time>2021-11-07T08:19:04Z</time>
      </trkpt>
      <trkpt lat="45.51794" lon="7.23598">
        <ele>2909.3</ele>
        <time>2021-11-07T08:19:06Z</time>
      </trkpt>
      <trkpt lat="45.51795" lon="7.23598">
        <ele>2909.5</ele>
        <time>2021-11-07T08:19:09Z</time>
      </trkpt>
      <trkpt lat="45.51795" lon="7.23599">
        <ele>2909.5</ele>
        <time>2021-11-07T08:19:10Z</time>
      </trkpt>
      <trkpt lat="45.51796" lon="7.23599">
        <ele>2909.6</ele>
        <time>2021-11-07T08:19:11Z</time>
      </trkpt>
      <trkpt lat="45.51797" lon="7.236">
        <ele>2909.9</ele>
        <time>2021-11-07T08:19:13Z</time>
      </trkpt>
      <trkpt lat="45.51798" lon="7.23603">
        <ele>2910.3</ele>
        <time>2021-11-07T08:19:17Z</time>
      </trkpt>
      <trkpt lat="45.518" lon="7.23609">
        <ele>2911</ele>
        <time>2021-11-07T08:19:23Z</time>
      </trkpt>
      <trkpt lat="45.51802" lon="7.23611">
        <ele>2911.5</ele>
        <time>2021-11-07T08:19:26Z</time>
      </trkpt>
      <trkpt lat="45.51804" lon="7.23612">
        <ele>2912</ele>
        <time>2021-11-07T08:19:29Z</time>
      </trkpt>
      <trkpt lat="45.51805" lon="7.23615">
        <ele>2912.4</ele>
        <time>2021-11-07T08:19:32Z</time>
      </trkpt>
      <trkpt lat="45.51806" lon="7.23617">
        <ele>2912.7</ele>
        <time>2021-11-07T08:19:34Z</time>
      </trkpt>
      <trkpt lat="45.51808" lon="7.23619">
        <ele>2913</ele>
        <time>2021-11-07T08:19:36Z</time>
      </trkpt>
      <trkpt lat="45.51809" lon="7.2362">
        <ele>2913.3</ele>
        <time>2021-11-07T08:19:38Z</time>
      </trkpt>
      <trkpt lat="45.5181" lon="7.2362">
        <ele>2913.4</ele>
        <time>2021-11-07T08:19:39Z</time>
      </trkpt>
      <trkpt lat="45.51811" lon="7.23622">
        <ele>2913.6</ele>
        <time>2021-11-07T08:19:42Z</time>
      </trkpt>
      <trkpt lat="45.51811" lon="7.23622">
        <ele>2913.8</ele>
        <time>2021-11-07T08:19:43Z</time>
      </trkpt>
      <trkpt lat="45.51812" lon="7.23623">
        <ele>2913.9</ele>
        <time>2021-11-07T08:19:44Z</time>
      </trkpt>
      <trkpt lat="45.51813" lon="7.23626">
        <ele>2914.2</ele>
        <time>2021-11-07T08:19:48Z</time>
      </trkpt>
      <trkpt lat="45.51813" lon="7.23628">
        <ele>2914.5</ele>
        <time>2021-11-07T08:19:50Z</time>
      </trkpt>
      <trkpt lat="45.51814" lon="7.2363">
        <ele>2914.8</ele>
        <time>2021-11-07T08:19:52Z</time>
      </trkpt>
      <trkpt lat="45.51815" lon="7.23632">
        <ele>2915.2</ele>
        <time>2021-11-07T08:19:57Z</time>
      </trkpt>
      <trkpt lat="45.51818" lon="7.23634">
        <ele>2915.6</ele>
        <time>2021-11-07T08:20:01Z</time>
      </trkpt>
      <trkpt lat="45.51818" lon="7.23634">
        <ele>2915.7</ele>
        <time>2021-11-07T08:20:02Z</time>
      </trkpt>
      <trkpt lat="45.51821" lon="7.23637">
        <ele>2916.3</ele>
        <time>2021-11-07T08:20:08Z</time>
      </trkpt>
      <trkpt lat="45.51821" lon="7.23641">
        <ele>2916.8</ele>
        <time>2021-11-07T08:20:12Z</time>
      </trkpt>
      <trkpt lat="45.51822" lon="7.23645">
        <ele>2917.3</ele>
        <time>2021-11-07T08:20:16Z</time>
      </trkpt>
      <trkpt lat="45.51822" lon="7.23646">
        <ele>2917.5</ele>
        <time>2021-11-07T08:20:18Z</time>
      </trkpt>
      <trkpt lat="45.51823" lon="7.23648">
        <ele>2917.7</ele>
        <time>2021-11-07T08:20:20Z</time>
      </trkpt>
      <trkpt lat="45.51823" lon="7.23651">
        <ele>2918</ele>
        <time>2021-11-07T08:20:24Z</time>
      </trkpt>
      <trkpt lat="45.51823" lon="7.23652">
        <ele>2918.2</ele>
        <time>2021-11-07T08:20:26Z</time>
      </trkpt>
      <trkpt lat="45.51824" lon="7.23655">
        <ele>2918.6</ele>
        <time>2021-11-07T08:20:31Z</time>
      </trkpt>
      <trkpt lat="45.51826" lon="7.23656">
        <ele>2919.1</ele>
        <time>2021-11-07T08:20:37Z</time>
      </trkpt>
      <trkpt lat="45.51827" lon="7.23656">
        <ele>2919.1</ele>
        <time>2021-11-07T08:20:38Z</time>
      </trkpt>
      <trkpt lat="45.51828" lon="7.23656">
        <ele>2919.3</ele>
        <time>2021-11-07T08:20:40Z</time>
      </trkpt>
      <trkpt lat="45.51832" lon="7.2366">
        <ele>2920.2</ele>
        <time>2021-11-07T08:20:50Z</time>
      </trkpt>
      <trkpt lat="45.51837" lon="7.23665">
        <ele>2921.2</ele>
        <time>2021-11-07T08:21:00Z</time>
      </trkpt>
      <trkpt lat="45.51837" lon="7.23666">
        <ele>2921.3</ele>
        <time>2021-11-07T08:21:01Z</time>
      </trkpt>
      <trkpt lat="45.51837" lon="7.23666">
        <ele>2921.4</ele>
        <time>2021-11-07T08:21:02Z</time>
      </trkpt>
      <trkpt lat="45.51838" lon="7.23667">
        <ele>2921.5</ele>
        <time>2021-11-07T08:21:03Z</time>
      </trkpt>
      <trkpt lat="45.51838" lon="7.23668">
        <ele>2921.6</ele>
        <time>2021-11-07T08:21:05Z</time>
      </trkpt>
      <trkpt lat="45.5184" lon="7.23672">
        <ele>2922.2</ele>
        <time>2021-11-07T08:21:13Z</time>
      </trkpt>
      <trkpt lat="45.51842" lon="7.23676">
        <ele>2922.8</ele>
        <time>2021-11-07T08:21:24Z</time>
      </trkpt>
      <trkpt lat="45.51842" lon="7.23676">
        <ele>2923</ele>
        <time>2021-11-07T08:21:25Z</time>
      </trkpt>
      <trkpt lat="45.51843" lon="7.23678">
        <ele>2923.1</ele>
        <time>2021-11-07T08:21:27Z</time>
      </trkpt>
      <trkpt lat="45.51843" lon="7.23679">
        <ele>2923.4</ele>
        <time>2021-11-07T08:21:30Z</time>
      </trkpt>
      <trkpt lat="45.51842" lon="7.2368">
        <ele>2923.5</ele>
        <time>2021-11-07T08:21:34Z</time>
      </trkpt>
      <trkpt lat="45.51842" lon="7.23681">
        <ele>2923.6</ele>
        <time>2021-11-07T08:21:35Z</time>
      </trkpt>
      <trkpt lat="45.51844" lon="7.23682">
        <ele>2923.9</ele>
        <time>2021-11-07T08:21:45Z</time>
      </trkpt>
      <trkpt lat="45.51844" lon="7.23683">
        <ele>2924</ele>
        <time>2021-11-07T08:21:46Z</time>
      </trkpt>
      <trkpt lat="45.51845" lon="7.23683">
        <ele>2924.1</ele>
        <time>2021-11-07T08:21:48Z</time>
      </trkpt>
      <trkpt lat="45.51846" lon="7.23684">
        <ele>2924.3</ele>
        <time>2021-11-07T08:21:57Z</time>
      </trkpt>
      <trkpt lat="45.51846" lon="7.23684">
        <ele>2924.4</ele>
        <time>2021-11-07T08:22:00Z</time>
      </trkpt>
      <trkpt lat="45.51846" lon="7.23684">
        <ele>2924.4</ele>
        <time>2021-11-07T08:22:01Z</time>
      </trkpt>
      <trkpt lat="45.51846" lon="7.23684">
        <ele>2924.5</ele>
        <time>2021-11-07T08:22:02Z</time>
      </trkpt>
      <trkpt lat="45.51846" lon="7.23684">
        <ele>2924.5</ele>
        <time>2021-11-07T08:22:03Z</time>
      </trkpt>
      <trkpt lat="45.51847" lon="7.23685">
        <ele>2924.7</ele>
        <time>2021-11-07T08:22:07Z</time>
      </trkpt>
      <trkpt lat="45.51848" lon="7.23685">
        <ele>2924.8</ele>
        <time>2021-11-07T08:22:08Z</time>
      </trkpt>
      <trkpt lat="45.51849" lon="7.23687">
        <ele>2925.1</ele>
        <time>2021-11-07T08:22:12Z</time>
      </trkpt>
      <trkpt lat="45.5185" lon="7.23689">
        <ele>2925.4</ele>
        <time>2021-11-07T08:22:15Z</time>
      </trkpt>
      <trkpt lat="45.51849" lon="7.23692">
        <ele>2925.8</ele>
        <time>2021-11-07T08:22:19Z</time>
      </trkpt>
      <trkpt lat="45.51849" lon="7.23693">
        <ele>2925.9</ele>
        <time>2021-11-07T08:22:20Z</time>
      </trkpt>
      <trkpt lat="45.51849" lon="7.23693">
        <ele>2925.9</ele>
        <time>2021-11-07T08:22:21Z</time>
      </trkpt>
      <trkpt lat="45.51849" lon="7.23694">
        <ele>2926</ele>
        <time>2021-11-07T08:22:22Z</time>
      </trkpt>
      <trkpt lat="45.51849" lon="7.23694">
        <ele>2926</ele>
        <time>2021-11-07T08:22:23Z</time>
      </trkpt>
      <trkpt lat="45.51849" lon="7.23694">
        <ele>2926.1</ele>
        <time>2021-11-07T08:22:25Z</time>
      </trkpt>
      <trkpt lat="45.5185" lon="7.23697">
        <ele>2926.5</ele>
        <time>2021-11-07T08:22:31Z</time>
      </trkpt>
      <trkpt lat="45.5185" lon="7.23698">
        <ele>2926.6</ele>
        <time>2021-11-07T08:22:32Z</time>
      </trkpt>
      <trkpt lat="45.51851" lon="7.23699">
        <ele>2926.8</ele>
        <time>2021-11-07T08:22:35Z</time>
      </trkpt>
      <trkpt lat="45.51852" lon="7.237">
        <ele>2927</ele>
        <time>2021-11-07T08:22:39Z</time>
      </trkpt>
      <trkpt lat="45.51852" lon="7.23702">
        <ele>2927.2</ele>
        <time>2021-11-07T08:22:44Z</time>
      </trkpt>
      <trkpt lat="45.51853" lon="7.23702">
        <ele>2927.3</ele>
        <time>2021-11-07T08:22:45Z</time>
      </trkpt>
      <trkpt lat="45.51853" lon="7.23702">
        <ele>2927.3</ele>
        <time>2021-11-07T08:22:47Z</time>
      </trkpt>
      <trkpt lat="45.51853" lon="7.23703">
        <ele>2927.4</ele>
        <time>2021-11-07T08:22:48Z</time>
      </trkpt>
      <trkpt lat="45.51854" lon="7.23704">
        <ele>2927.7</ele>
        <time>2021-11-07T08:22:57Z</time>
      </trkpt>
      <trkpt lat="45.51856" lon="7.23704">
        <ele>2928.1</ele>
        <time>2021-11-07T08:23:05Z</time>
      </trkpt>
      <trkpt lat="45.51857" lon="7.23705">
        <ele>2928.3</ele>
        <time>2021-11-07T08:23:07Z</time>
      </trkpt>
      <trkpt lat="45.51858" lon="7.2371">
        <ele>2928.9</ele>
        <time>2021-11-07T08:23:17Z</time>
      </trkpt>
      <trkpt lat="45.51859" lon="7.23712">
        <ele>2929.1</ele>
        <time>2021-11-07T08:23:19Z</time>
      </trkpt>
      <trkpt lat="45.51857" lon="7.23715">
        <ele>2929.6</ele>
        <time>2021-11-07T08:23:24Z</time>
      </trkpt>
      <trkpt lat="45.51857" lon="7.23718">
        <ele>2929.9</ele>
        <time>2021-11-07T08:23:27Z</time>
      </trkpt>
      <trkpt lat="45.51858" lon="7.23719">
        <ele>2930.1</ele>
        <time>2021-11-07T08:23:29Z</time>
      </trkpt>
      <trkpt lat="45.51859" lon="7.23724">
        <ele>2930.8</ele>
        <time>2021-11-07T08:23:40Z</time>
      </trkpt>
      <trkpt lat="45.5186" lon="7.23724">
        <ele>2931.1</ele>
        <time>2021-11-07T08:23:42Z</time>
      </trkpt>
      <trkpt lat="45.5186" lon="7.23725">
        <ele>2931.1</ele>
        <time>2021-11-07T08:23:43Z</time>
      </trkpt>
      <trkpt lat="45.51862" lon="7.23729">
        <ele>2932.9</ele>
        <time>2021-11-07T08:23:53Z</time>
      </trkpt>
      <trkpt lat="45.51863" lon="7.23731">
        <ele>2933.2</ele>
        <time>2021-11-07T08:23:57Z</time>
      </trkpt>
      <trkpt lat="45.51862" lon="7.23733">
        <ele>2933.4</ele>
        <time>2021-11-07T08:24:00Z</time>
      </trkpt>
      <trkpt lat="45.51862" lon="7.23735">
        <ele>2933.4</ele>
        <time>2021-11-07T08:24:02Z</time>
      </trkpt>
      <trkpt lat="45.51862" lon="7.23735">
        <ele>2933.5</ele>
        <time>2021-11-07T08:24:03Z</time>
      </trkpt>
      <trkpt lat="45.51862" lon="7.23736">
        <ele>2933.5</ele>
        <time>2021-11-07T08:24:04Z</time>
      </trkpt>
      <trkpt lat="45.51863" lon="7.23738">
        <ele>2933.7</ele>
        <time>2021-11-07T08:24:08Z</time>
      </trkpt>
      <trkpt lat="45.51863" lon="7.23739">
        <ele>2933.8</ele>
        <time>2021-11-07T08:24:09Z</time>
      </trkpt>
      <trkpt lat="45.51863" lon="7.23742">
        <ele>2934</ele>
        <time>2021-11-07T08:24:13Z</time>
      </trkpt>
      <trkpt lat="45.51863" lon="7.23742">
        <ele>2934</ele>
        <time>2021-11-07T08:24:14Z</time>
      </trkpt>
      <trkpt lat="45.51864" lon="7.23746">
        <ele>2934.3</ele>
        <time>2021-11-07T08:24:23Z</time>
      </trkpt>
      <trkpt lat="45.51864" lon="7.23746">
        <ele>2934.3</ele>
        <time>2021-11-07T08:24:24Z</time>
      </trkpt>
      <trkpt lat="45.51865" lon="7.23747">
        <ele>2936</ele>
        <time>2021-11-07T08:24:29Z</time>
      </trkpt>
      <trkpt lat="45.51866" lon="7.23748">
        <ele>2936.1</ele>
        <time>2021-11-07T08:24:34Z</time>
      </trkpt>
      <trkpt lat="45.51867" lon="7.23748">
        <ele>2936.1</ele>
        <time>2021-11-07T08:24:36Z</time>
      </trkpt>
      <trkpt lat="45.51866" lon="7.23752">
        <ele>2936.3</ele>
        <time>2021-11-07T08:24:43Z</time>
      </trkpt>
      <trkpt lat="45.51866" lon="7.23753">
        <ele>2936.3</ele>
        <time>2021-11-07T08:24:45Z</time>
      </trkpt>
      <trkpt lat="45.51866" lon="7.23754">
        <ele>2936.3</ele>
        <time>2021-11-07T08:24:47Z</time>
      </trkpt>
      <trkpt lat="45.51867" lon="7.23755">
        <ele>2936.6</ele>
        <time>2021-11-07T08:24:49Z</time>
      </trkpt>
      <trkpt lat="45.51867" lon="7.23756">
        <ele>2936.6</ele>
        <time>2021-11-07T08:24:51Z</time>
      </trkpt>
      <trkpt lat="45.51867" lon="7.23758">
        <ele>2936.6</ele>
        <time>2021-11-07T08:24:54Z</time>
      </trkpt>
      <trkpt lat="45.51868" lon="7.2376">
        <ele>2938.6</ele>
        <time>2021-11-07T08:24:58Z</time>
      </trkpt>
      <trkpt lat="45.51868" lon="7.23762">
        <ele>2938.6</ele>
        <time>2021-11-07T08:25:00Z</time>
      </trkpt>
      <trkpt lat="45.51868" lon="7.23764">
        <ele>2938.9</ele>
        <time>2021-11-07T08:25:04Z</time>
      </trkpt>
      <trkpt lat="45.51868" lon="7.23765">
        <ele>2938.9</ele>
        <time>2021-11-07T08:25:06Z</time>
      </trkpt>
      <trkpt lat="45.51869" lon="7.23768">
        <ele>2939.2</ele>
        <time>2021-11-07T08:25:09Z</time>
      </trkpt>
      <trkpt lat="45.51869" lon="7.2377">
        <ele>2939.2</ele>
        <time>2021-11-07T08:25:16Z</time>
      </trkpt>
      <trkpt lat="45.51869" lon="7.23771">
        <ele>2939.3</ele>
        <time>2021-11-07T08:25:20Z</time>
      </trkpt>
      <trkpt lat="45.51872" lon="7.23774">
        <ele>2941.2</ele>
        <time>2021-11-07T08:25:26Z</time>
      </trkpt>
      <trkpt lat="45.51872" lon="7.23774">
        <ele>2941.2</ele>
        <time>2021-11-07T08:25:27Z</time>
      </trkpt>
      <trkpt lat="45.51872" lon="7.23774">
        <ele>2941.2</ele>
        <time>2021-11-07T08:25:29Z</time>
      </trkpt>
      <trkpt lat="45.51873" lon="7.23774">
        <ele>2941.2</ele>
        <time>2021-11-07T08:25:30Z</time>
      </trkpt>
      <trkpt lat="45.51873" lon="7.23775">
        <ele>2941.2</ele>
        <time>2021-11-07T08:25:31Z</time>
      </trkpt>
      <trkpt lat="45.51873" lon="7.23775">
        <ele>2941.3</ele>
        <time>2021-11-07T08:25:32Z</time>
      </trkpt>
      <trkpt lat="45.51873" lon="7.23776">
        <ele>2941.6</ele>
        <time>2021-11-07T08:25:34Z</time>
      </trkpt>
      <trkpt lat="45.51873" lon="7.23776">
        <ele>2941.3</ele>
        <time>2021-11-07T08:25:36Z</time>
      </trkpt>
      <trkpt lat="45.51876" lon="7.23774">
        <ele>2942.8</ele>
        <time>2021-11-07T08:25:42Z</time>
      </trkpt>
      <trkpt lat="45.51876" lon="7.23775">
        <ele>2942.8</ele>
        <time>2021-11-07T08:25:43Z</time>
      </trkpt>
      <trkpt lat="45.51877" lon="7.23774">
        <ele>2944.3</ele>
        <time>2021-11-07T08:25:45Z</time>
      </trkpt>
      <trkpt lat="45.51879" lon="7.23774">
        <ele>2944.4</ele>
        <time>2021-11-07T08:25:47Z</time>
      </trkpt>
      <trkpt lat="45.5188" lon="7.23774">
        <ele>2945.9</ele>
        <time>2021-11-07T08:25:50Z</time>
      </trkpt>
      <trkpt lat="45.51881" lon="7.23775">
        <ele>2946</ele>
        <time>2021-11-07T08:25:52Z</time>
      </trkpt>
      <trkpt lat="45.51881" lon="7.23775">
        <ele>2946</ele>
        <time>2021-11-07T08:25:55Z</time>
      </trkpt>
      <trkpt lat="45.51882" lon="7.23774">
        <ele>2946</ele>
        <time>2021-11-07T08:25:57Z</time>
      </trkpt>
      <trkpt lat="45.51884" lon="7.23773">
        <ele>2947.6</ele>
        <time>2021-11-07T08:26:02Z</time>
      </trkpt>
      <trkpt lat="45.51885" lon="7.23775">
        <ele>2947.6</ele>
        <time>2021-11-07T08:26:06Z</time>
      </trkpt>
      <trkpt lat="45.51886" lon="7.23775">
        <ele>2947.6</ele>
        <time>2021-11-07T08:26:07Z</time>
      </trkpt>
      <trkpt lat="45.51888" lon="7.23781">
        <ele>2950.2</ele>
        <time>2021-11-07T08:26:14Z</time>
      </trkpt>
      <trkpt lat="45.51889" lon="7.23783">
        <ele>2950.2</ele>
        <time>2021-11-07T08:26:17Z</time>
      </trkpt>
      <trkpt lat="45.51889" lon="7.23785">
        <ele>2952.3</ele>
        <time>2021-11-07T08:26:20Z</time>
      </trkpt>
      <trkpt lat="45.5189" lon="7.23787">
        <ele>2952.3</ele>
        <time>2021-11-07T08:26:22Z</time>
      </trkpt>
      <trkpt lat="45.5189" lon="7.23787">
        <ele>2952.3</ele>
        <time>2021-11-07T08:26:23Z</time>
      </trkpt>
      <trkpt lat="45.51894" lon="7.23792">
        <ele>2954.3</ele>
        <time>2021-11-07T08:26:31Z</time>
      </trkpt>
      <trkpt lat="45.51895" lon="7.23793">
        <ele>2956.1</ele>
        <time>2021-11-07T08:26:33Z</time>
      </trkpt>
      <trkpt lat="45.51896" lon="7.23794">
        <ele>2956.2</ele>
        <time>2021-11-07T08:26:35Z</time>
      </trkpt>
      <trkpt lat="45.519" lon="7.23795">
        <ele>2957.6</ele>
        <time>2021-11-07T08:26:43Z</time>
      </trkpt>
      <trkpt lat="45.51901" lon="7.23796">
        <ele>2959.1</ele>
        <time>2021-11-07T08:26:46Z</time>
      </trkpt>
      <trkpt lat="45.51902" lon="7.23798">
        <ele>2959.5</ele>
        <time>2021-11-07T08:26:48Z</time>
      </trkpt>
      <trkpt lat="45.51904" lon="7.23799">
        <ele>2961</ele>
        <time>2021-11-07T08:26:51Z</time>
      </trkpt>
      <trkpt lat="45.51905" lon="7.238">
        <ele>2961</ele>
        <time>2021-11-07T08:26:53Z</time>
      </trkpt>
      <trkpt lat="45.51905" lon="7.23801">
        <ele>2961</ele>
        <time>2021-11-07T08:26:54Z</time>
      </trkpt>
      <trkpt lat="45.51906" lon="7.23802">
        <ele>2961</ele>
        <time>2021-11-07T08:26:56Z</time>
      </trkpt>
      <trkpt lat="45.51907" lon="7.23801">
        <ele>2962.5</ele>
        <time>2021-11-07T08:27:00Z</time>
      </trkpt>
      <trkpt lat="45.51909" lon="7.238">
        <ele>2962.5</ele>
        <time>2021-11-07T08:27:04Z</time>
      </trkpt>
      <trkpt lat="45.51914" lon="7.23802">
        <ele>2966.1</ele>
        <time>2021-11-07T08:27:14Z</time>
      </trkpt>
      <trkpt lat="45.51918" lon="7.23801">
        <ele>2967.1</ele>
        <time>2021-11-07T08:27:23Z</time>
      </trkpt>
      <trkpt lat="45.5192" lon="7.23806">
        <ele>2969.1</ele>
        <time>2021-11-07T08:27:30Z</time>
      </trkpt>
      <trkpt lat="45.5192" lon="7.23807">
        <ele>2969.6</ele>
        <time>2021-11-07T08:27:33Z</time>
      </trkpt>
      <trkpt lat="45.51923" lon="7.23811">
        <ele>2971.6</ele>
        <time>2021-11-07T08:27:39Z</time>
      </trkpt>
      <trkpt lat="45.51925" lon="7.23813">
        <ele>2971.6</ele>
        <time>2021-11-07T08:27:44Z</time>
      </trkpt>
      <trkpt lat="45.51926" lon="7.23815">
        <ele>2973.5</ele>
        <time>2021-11-07T08:27:47Z</time>
      </trkpt>
      <trkpt lat="45.51926" lon="7.23818">
        <ele>2973.5</ele>
        <time>2021-11-07T08:27:50Z</time>
      </trkpt>
      <trkpt lat="45.51926" lon="7.23822">
        <ele>2974</ele>
        <time>2021-11-07T08:27:55Z</time>
      </trkpt>
      <trkpt lat="45.51927" lon="7.23823">
        <ele>2974</ele>
        <time>2021-11-07T08:27:57Z</time>
      </trkpt>
      <trkpt lat="45.51927" lon="7.23824">
        <ele>2974.5</ele>
        <time>2021-11-07T08:27:58Z</time>
      </trkpt>
      <trkpt lat="45.51928" lon="7.23828">
        <ele>2976.2</ele>
        <time>2021-11-07T08:28:05Z</time>
      </trkpt>
      <trkpt lat="45.5193" lon="7.23833">
        <ele>2976.6</ele>
        <time>2021-11-07T08:28:11Z</time>
      </trkpt>
      <trkpt lat="45.51933" lon="7.23836">
        <ele>2978.2</ele>
        <time>2021-11-07T08:28:22Z</time>
      </trkpt>
      <trkpt lat="45.51935" lon="7.23835">
        <ele>2978.9</ele>
        <time>2021-11-07T08:28:28Z</time>
      </trkpt>
      <trkpt lat="45.51936" lon="7.23838">
        <ele>2979.4</ele>
        <time>2021-11-07T08:28:31Z</time>
      </trkpt>
      <trkpt lat="45.51936" lon="7.23839">
        <ele>2979.4</ele>
        <time>2021-11-07T08:28:32Z</time>
      </trkpt>
      <trkpt lat="45.51936" lon="7.23842">
        <ele>2979.8</ele>
        <time>2021-11-07T08:28:36Z</time>
      </trkpt>
      <trkpt lat="45.51936" lon="7.23843">
        <ele>2979.8</ele>
        <time>2021-11-07T08:28:37Z</time>
      </trkpt>
      <trkpt lat="45.51937" lon="7.23847">
        <ele>2980.2</ele>
        <time>2021-11-07T08:28:41Z</time>
      </trkpt>
      <trkpt lat="45.51937" lon="7.23848">
        <ele>2980.2</ele>
        <time>2021-11-07T08:28:43Z</time>
      </trkpt>
      <trkpt lat="45.51937" lon="7.23849">
        <ele>2981.4</ele>
        <time>2021-11-07T08:28:44Z</time>
      </trkpt>
      <trkpt lat="45.51937" lon="7.23851">
        <ele>2981.9</ele>
        <time>2021-11-07T08:28:47Z</time>
      </trkpt>
      <trkpt lat="45.51938" lon="7.23852">
        <ele>2981.9</ele>
        <time>2021-11-07T08:28:49Z</time>
      </trkpt>
      <trkpt lat="45.51937" lon="7.23854">
        <ele>2982.3</ele>
        <time>2021-11-07T08:28:53Z</time>
      </trkpt>
      <trkpt lat="45.51938" lon="7.23855">
        <ele>2982.3</ele>
        <time>2021-11-07T08:28:56Z</time>
      </trkpt>
      <trkpt lat="45.51941" lon="7.23861">
        <ele>2984.1</ele>
        <time>2021-11-07T08:29:05Z</time>
      </trkpt>
      <trkpt lat="45.51941" lon="7.23864">
        <ele>2984.6</ele>
        <time>2021-11-07T08:29:08Z</time>
      </trkpt>
      <trkpt lat="45.51942" lon="7.23865">
        <ele>2984.6</ele>
        <time>2021-11-07T08:29:10Z</time>
      </trkpt>
      <trkpt lat="45.51943" lon="7.23866">
        <ele>2985</ele>
        <time>2021-11-07T08:29:12Z</time>
      </trkpt>
      <trkpt lat="45.51945" lon="7.23866">
        <ele>2986</ele>
        <time>2021-11-07T08:29:18Z</time>
      </trkpt>
      <trkpt lat="45.51946" lon="7.23867">
        <ele>2986.5</ele>
        <time>2021-11-07T08:29:19Z</time>
      </trkpt>
      <trkpt lat="45.51946" lon="7.23867">
        <ele>2987.9</ele>
        <time>2021-11-07T08:29:20Z</time>
      </trkpt>
      <trkpt lat="45.51948" lon="7.2387">
        <ele>2987.9</ele>
        <time>2021-11-07T08:29:25Z</time>
      </trkpt>
      <trkpt lat="45.51948" lon="7.2387">
        <ele>2987.9</ele>
        <time>2021-11-07T08:29:26Z</time>
      </trkpt>
      <trkpt lat="45.51948" lon="7.23869">
        <ele>2987.9</ele>
        <time>2021-11-07T08:29:27Z</time>
      </trkpt>
      <trkpt lat="45.51949" lon="7.23869">
        <ele>2987.9</ele>
        <time>2021-11-07T08:29:29Z</time>
      </trkpt>
      <trkpt lat="45.51949" lon="7.23868">
        <ele>2989.3</ele>
        <time>2021-11-07T08:29:30Z</time>
      </trkpt>
      <trkpt lat="45.5195" lon="7.23867">
        <ele>2989.3</ele>
        <time>2021-11-07T08:29:33Z</time>
      </trkpt>
      <trkpt lat="45.51953" lon="7.23868">
        <ele>2990.5</ele>
        <time>2021-11-07T08:29:39Z</time>
      </trkpt>
      <trkpt lat="45.51955" lon="7.2387">
        <ele>2991.6</ele>
        <time>2021-11-07T08:29:45Z</time>
      </trkpt>
      <trkpt lat="45.51955" lon="7.2387">
        <ele>2991.6</ele>
        <time>2021-11-07T08:29:46Z</time>
      </trkpt>
      <trkpt lat="45.51956" lon="7.23872">
        <ele>2992</ele>
        <time>2021-11-07T08:29:49Z</time>
      </trkpt>
      <trkpt lat="45.51956" lon="7.23872">
        <ele>2992</ele>
        <time>2021-11-07T08:29:50Z</time>
      </trkpt>
      <trkpt lat="45.51956" lon="7.23873">
        <ele>2992</ele>
        <time>2021-11-07T08:29:51Z</time>
      </trkpt>
      <trkpt lat="45.51957" lon="7.23874">
        <ele>2992</ele>
        <time>2021-11-07T08:29:53Z</time>
      </trkpt>
      <trkpt lat="45.51956" lon="7.23878">
        <ele>2992.4</ele>
        <time>2021-11-07T08:30:00Z</time>
      </trkpt>
      <trkpt lat="45.51955" lon="7.2388">
        <ele>2992.7</ele>
        <time>2021-11-07T08:30:03Z</time>
      </trkpt>
      <trkpt lat="45.51958" lon="7.23883">
        <ele>2993</ele>
        <time>2021-11-07T08:30:11Z</time>
      </trkpt>
      <trkpt lat="45.51962" lon="7.23884">
        <ele>2995.1</ele>
        <time>2021-11-07T08:30:22Z</time>
      </trkpt>
      <trkpt lat="45.51963" lon="7.23886">
        <ele>2995.1</ele>
        <time>2021-11-07T08:30:24Z</time>
      </trkpt>
      <trkpt lat="45.51963" lon="7.23888">
        <ele>2995.5</ele>
        <time>2021-11-07T08:30:28Z</time>
      </trkpt>
      <trkpt lat="45.51964" lon="7.23889">
        <ele>2995.5</ele>
        <time>2021-11-07T08:30:29Z</time>
      </trkpt>
      <trkpt lat="45.51964" lon="7.23889">
        <ele>2996.6</ele>
        <time>2021-11-07T08:30:30Z</time>
      </trkpt>
      <trkpt lat="45.51965" lon="7.2389">
        <ele>2996.6</ele>
        <time>2021-11-07T08:30:31Z</time>
      </trkpt>
      <trkpt lat="45.51965" lon="7.23892">
        <ele>2997.1</ele>
        <time>2021-11-07T08:30:37Z</time>
      </trkpt>
      <trkpt lat="45.51967" lon="7.23892">
        <ele>2997.1</ele>
        <time>2021-11-07T08:30:41Z</time>
      </trkpt>
      <trkpt lat="45.51968" lon="7.23891">
        <ele>2997.9</ele>
        <time>2021-11-07T08:30:47Z</time>
      </trkpt>
      <trkpt lat="45.51968" lon="7.23892">
        <ele>2998.4</ele>
        <time>2021-11-07T08:30:49Z</time>
      </trkpt>
      <trkpt lat="45.51969" lon="7.23893">
        <ele>2998.4</ele>
        <time>2021-11-07T08:30:51Z</time>
      </trkpt>
      <trkpt lat="45.5197" lon="7.23895">
        <ele>2998.4</ele>
        <time>2021-11-07T08:30:56Z</time>
      </trkpt>
      <trkpt lat="45.5197" lon="7.23896">
        <ele>3000.2</ele>
        <time>2021-11-07T08:30:59Z</time>
      </trkpt>
      <trkpt lat="45.5197" lon="7.23897">
        <ele>3000.2</ele>
        <time>2021-11-07T08:31:00Z</time>
      </trkpt>
      <trkpt lat="45.5197" lon="7.23898">
        <ele>3000.2</ele>
        <time>2021-11-07T08:31:01Z</time>
      </trkpt>
      <trkpt lat="45.5197" lon="7.23898">
        <ele>3000.2</ele>
        <time>2021-11-07T08:31:02Z</time>
      </trkpt>
      <trkpt lat="45.51972" lon="7.23898">
        <ele>3000.2</ele>
        <time>2021-11-07T08:31:07Z</time>
      </trkpt>
      <trkpt lat="45.51972" lon="7.23898">
        <ele>3000.2</ele>
        <time>2021-11-07T08:31:08Z</time>
      </trkpt>
      <trkpt lat="45.51973" lon="7.23899">
        <ele>3000.2</ele>
        <time>2021-11-07T08:31:09Z</time>
      </trkpt>
      <trkpt lat="45.51973" lon="7.23899">
        <ele>3000.2</ele>
        <time>2021-11-07T08:31:12Z</time>
      </trkpt>
      <trkpt lat="45.51974" lon="7.23901">
        <ele>3002.1</ele>
        <time>2021-11-07T08:31:16Z</time>
      </trkpt>
      <trkpt lat="45.51974" lon="7.23901">
        <ele>3002.1</ele>
        <time>2021-11-07T08:31:19Z</time>
      </trkpt>
      <trkpt lat="45.51974" lon="7.23902">
        <ele>3002.1</ele>
        <time>2021-11-07T08:31:23Z</time>
      </trkpt>
      <trkpt lat="45.51974" lon="7.23902">
        <ele>3002.1</ele>
        <time>2021-11-07T08:31:24Z</time>
      </trkpt>
      <trkpt lat="45.51977" lon="7.23905">
        <ele>3003.9</ele>
        <time>2021-11-07T08:31:32Z</time>
      </trkpt>
      <trkpt lat="45.51978" lon="7.23905">
        <ele>3003.9</ele>
        <time>2021-11-07T08:31:33Z</time>
      </trkpt>
      <trkpt lat="45.51978" lon="7.23906">
        <ele>3003.9</ele>
        <time>2021-11-07T08:31:34Z</time>
      </trkpt>
      <trkpt lat="45.51979" lon="7.23906">
        <ele>3003.9</ele>
        <time>2021-11-07T08:31:35Z</time>
      </trkpt>
      <trkpt lat="45.51979" lon="7.23909">
        <ele>3005</ele>
        <time>2021-11-07T08:31:38Z</time>
      </trkpt>
      <trkpt lat="45.51979" lon="7.23909">
        <ele>3005.5</ele>
        <time>2021-11-07T08:31:39Z</time>
      </trkpt>
      <trkpt lat="45.5198" lon="7.2391">
        <ele>3005.5</ele>
        <time>2021-11-07T08:31:40Z</time>
      </trkpt>
      <trkpt lat="45.5198" lon="7.2391">
        <ele>3005.5</ele>
        <time>2021-11-07T08:31:41Z</time>
      </trkpt>
      <trkpt lat="45.51979" lon="7.23911">
        <ele>3005.6</ele>
        <time>2021-11-07T08:31:43Z</time>
      </trkpt>
      <trkpt lat="45.5198" lon="7.23911">
        <ele>3005.6</ele>
        <time>2021-11-07T08:31:44Z</time>
      </trkpt>
      <trkpt lat="45.5198" lon="7.23911">
        <ele>3005.6</ele>
        <time>2021-11-07T08:31:45Z</time>
      </trkpt>
      <trkpt lat="45.51981" lon="7.23912">
        <ele>3005.6</ele>
        <time>2021-11-07T08:31:48Z</time>
      </trkpt>
      <trkpt lat="45.51981" lon="7.23914">
        <ele>3006.1</ele>
        <time>2021-11-07T08:31:51Z</time>
      </trkpt>
      <trkpt lat="45.51981" lon="7.23914">
        <ele>3006.1</ele>
        <time>2021-11-07T08:31:52Z</time>
      </trkpt>
      <trkpt lat="45.51981" lon="7.23915">
        <ele>3006.1</ele>
        <time>2021-11-07T08:31:53Z</time>
      </trkpt>
      <trkpt lat="45.51982" lon="7.23916">
        <ele>3006.1</ele>
        <time>2021-11-07T08:31:55Z</time>
      </trkpt>
      <trkpt lat="45.51982" lon="7.23917">
        <ele>3006.1</ele>
        <time>2021-11-07T08:31:56Z</time>
      </trkpt>
      <trkpt lat="45.51981" lon="7.23919">
        <ele>3006.6</ele>
        <time>2021-11-07T08:31:59Z</time>
      </trkpt>
      <trkpt lat="45.51981" lon="7.23922">
        <ele>3006.6</ele>
        <time>2021-11-07T08:32:03Z</time>
      </trkpt>
      <trkpt lat="45.51981" lon="7.23924">
        <ele>3007.1</ele>
        <time>2021-11-07T08:32:06Z</time>
      </trkpt>
      <trkpt lat="45.51982" lon="7.23925">
        <ele>3007.1</ele>
        <time>2021-11-07T08:32:09Z</time>
      </trkpt>
      <trkpt lat="45.51981" lon="7.23926">
        <ele>3007.1</ele>
        <time>2021-11-07T08:32:11Z</time>
      </trkpt>
      <trkpt lat="45.51982" lon="7.23926">
        <ele>3007.5</ele>
        <time>2021-11-07T08:32:12Z</time>
      </trkpt>
      <trkpt lat="45.51982" lon="7.23927">
        <ele>3007.5</ele>
        <time>2021-11-07T08:32:18Z</time>
      </trkpt>
      <trkpt lat="45.51983" lon="7.23926">
        <ele>3008.5</ele>
        <time>2021-11-07T08:32:20Z</time>
      </trkpt>
      <trkpt lat="45.51983" lon="7.23926">
        <ele>3008.5</ele>
        <time>2021-11-07T08:32:22Z</time>
      </trkpt>
      <trkpt lat="45.51986" lon="7.23929">
        <ele>3009.5</ele>
        <time>2021-11-07T08:32:30Z</time>
      </trkpt>
      <trkpt lat="45.51986" lon="7.23929">
        <ele>3009.5</ele>
        <time>2021-11-07T08:32:31Z</time>
      </trkpt>
      <trkpt lat="45.51988" lon="7.23929">
        <ele>3009.6</ele>
        <time>2021-11-07T08:32:35Z</time>
      </trkpt>
      <trkpt lat="45.51988" lon="7.23929">
        <ele>3010.6</ele>
        <time>2021-11-07T08:32:37Z</time>
      </trkpt>
      <trkpt lat="45.51988" lon="7.2393">
        <ele>3010.6</ele>
        <time>2021-11-07T08:32:39Z</time>
      </trkpt>
      <trkpt lat="45.51989" lon="7.23931">
        <ele>3011</ele>
        <time>2021-11-07T08:32:41Z</time>
      </trkpt>
      <trkpt lat="45.5199" lon="7.23931">
        <ele>3011</ele>
        <time>2021-11-07T08:32:43Z</time>
      </trkpt>
      <trkpt lat="45.51992" lon="7.23931">
        <ele>3012.1</ele>
        <time>2021-11-07T08:32:52Z</time>
      </trkpt>
      <trkpt lat="45.51994" lon="7.23933">
        <ele>3013.1</ele>
        <time>2021-11-07T08:33:04Z</time>
      </trkpt>
      <trkpt lat="45.51996" lon="7.23935">
        <ele>3013.6</ele>
        <time>2021-11-07T08:33:08Z</time>
      </trkpt>
      <trkpt lat="45.51996" lon="7.23935">
        <ele>3013.6</ele>
        <time>2021-11-07T08:33:11Z</time>
      </trkpt>
      <trkpt lat="45.51996" lon="7.23936">
        <ele>3013.6</ele>
        <time>2021-11-07T08:33:12Z</time>
      </trkpt>
      <trkpt lat="45.51996" lon="7.23936">
        <ele>3013.6</ele>
        <time>2021-11-07T08:33:14Z</time>
      </trkpt>
      <trkpt lat="45.51997" lon="7.23939">
        <ele>3013.6</ele>
        <time>2021-11-07T08:33:18Z</time>
      </trkpt>
      <trkpt lat="45.51998" lon="7.23942">
        <ele>3015.2</ele>
        <time>2021-11-07T08:33:23Z</time>
      </trkpt>
      <trkpt lat="45.51998" lon="7.23942">
        <ele>3015.2</ele>
        <time>2021-11-07T08:33:24Z</time>
      </trkpt>
      <trkpt lat="45.51998" lon="7.23943">
        <ele>3015.3</ele>
        <time>2021-11-07T08:33:26Z</time>
      </trkpt>
      <trkpt lat="45.51998" lon="7.23944">
        <ele>3015.8</ele>
        <time>2021-11-07T08:33:27Z</time>
      </trkpt>
      <trkpt lat="45.51998" lon="7.23944">
        <ele>3015.8</ele>
        <time>2021-11-07T08:33:28Z</time>
      </trkpt>
      <trkpt lat="45.51998" lon="7.23947">
        <ele>3015.8</ele>
        <time>2021-11-07T08:33:33Z</time>
      </trkpt>
      <trkpt lat="45.51998" lon="7.23949">
        <ele>3016.4</ele>
        <time>2021-11-07T08:33:36Z</time>
      </trkpt>
      <trkpt lat="45.51998" lon="7.2395">
        <ele>3016.4</ele>
        <time>2021-11-07T08:33:37Z</time>
      </trkpt>
      <trkpt lat="45.51998" lon="7.23952">
        <ele>3017</ele>
        <time>2021-11-07T08:33:40Z</time>
      </trkpt>
      <trkpt lat="45.51998" lon="7.23955">
        <ele>3017</ele>
        <time>2021-11-07T08:33:44Z</time>
      </trkpt>
      <trkpt lat="45.51998" lon="7.23957">
        <ele>3017.5</ele>
        <time>2021-11-07T08:33:47Z</time>
      </trkpt>
      <trkpt lat="45.51998" lon="7.23958">
        <ele>3017.5</ele>
        <time>2021-11-07T08:33:50Z</time>
      </trkpt>
      <trkpt lat="45.51998" lon="7.23959">
        <ele>3017.5</ele>
        <time>2021-11-07T08:33:52Z</time>
      </trkpt>
      <trkpt lat="45.51998" lon="7.23961">
        <ele>3018</ele>
        <time>2021-11-07T08:33:58Z</time>
      </trkpt>
      <trkpt lat="45.51998" lon="7.23962">
        <ele>3018</ele>
        <time>2021-11-07T08:34:00Z</time>
      </trkpt>
      <trkpt lat="45.51997" lon="7.23962">
        <ele>3018</ele>
        <time>2021-11-07T08:34:01Z</time>
      </trkpt>
      <trkpt lat="45.51997" lon="7.23963">
        <ele>3018</ele>
        <time>2021-11-07T08:34:12Z</time>
      </trkpt>
      <trkpt lat="45.51999" lon="7.23965">
        <ele>3018.5</ele>
        <time>2021-11-07T08:34:22Z</time>
      </trkpt>
      <trkpt lat="45.52" lon="7.23966">
        <ele>3019.6</ele>
        <time>2021-11-07T08:34:26Z</time>
      </trkpt>
      <trkpt lat="45.52" lon="7.23968">
        <ele>3019.6</ele>
        <time>2021-11-07T08:34:29Z</time>
      </trkpt>
      <trkpt lat="45.52" lon="7.2397">
        <ele>3020.1</ele>
        <time>2021-11-07T08:34:33Z</time>
      </trkpt>
      <trkpt lat="45.52" lon="7.23971">
        <ele>3019</ele>
        <time>2021-11-07T08:34:35Z</time>
      </trkpt>
      <trkpt lat="45.51999" lon="7.23975">
        <ele>3019.4</ele>
        <time>2021-11-07T08:34:42Z</time>
      </trkpt>
      <trkpt lat="45.52001" lon="7.23977">
        <ele>3020.6</ele>
        <time>2021-11-07T08:34:46Z</time>
      </trkpt>
      <trkpt lat="45.52001" lon="7.23978">
        <ele>3021</ele>
        <time>2021-11-07T08:34:47Z</time>
      </trkpt>
      <trkpt lat="45.52001" lon="7.23979">
        <ele>3021</ele>
        <time>2021-11-07T08:34:48Z</time>
      </trkpt>
      <trkpt lat="45.52001" lon="7.2398">
        <ele>3021</ele>
        <time>2021-11-07T08:34:49Z</time>
      </trkpt>
      <trkpt lat="45.52" lon="7.23982">
        <ele>3021.5</ele>
        <time>2021-11-07T08:34:52Z</time>
      </trkpt>
      <trkpt lat="45.52" lon="7.23984">
        <ele>3021.5</ele>
        <time>2021-11-07T08:34:56Z</time>
      </trkpt>
      <trkpt lat="45.52" lon="7.23985">
        <ele>3021.5</ele>
        <time>2021-11-07T08:34:57Z</time>
      </trkpt>
      <trkpt lat="45.52" lon="7.23989">
        <ele>3022</ele>
        <time>2021-11-07T08:35:04Z</time>
      </trkpt>
      <trkpt lat="45.52001" lon="7.2399">
        <ele>3022</ele>
        <time>2021-11-07T08:35:07Z</time>
      </trkpt>
      <trkpt lat="45.52001" lon="7.23991">
        <ele>3022.4</ele>
        <time>2021-11-07T08:35:09Z</time>
      </trkpt>
      <trkpt lat="45.52002" lon="7.23992">
        <ele>3022.5</ele>
        <time>2021-11-07T08:35:13Z</time>
      </trkpt>
      <trkpt lat="45.52002" lon="7.23994">
        <ele>3022.5</ele>
        <time>2021-11-07T08:35:16Z</time>
      </trkpt>
      <trkpt lat="45.52002" lon="7.23995">
        <ele>3023</ele>
        <time>2021-11-07T08:35:18Z</time>
      </trkpt>
      <trkpt lat="45.52002" lon="7.23995">
        <ele>3023</ele>
        <time>2021-11-07T08:35:19Z</time>
      </trkpt>
      <trkpt lat="45.52002" lon="7.23997">
        <ele>3023</ele>
        <time>2021-11-07T08:35:24Z</time>
      </trkpt>
      <trkpt lat="45.52002" lon="7.24001">
        <ele>3023.8</ele>
        <time>2021-11-07T08:35:28Z</time>
      </trkpt>
      <trkpt lat="45.52002" lon="7.24003">
        <ele>3023.8</ele>
        <time>2021-11-07T08:35:31Z</time>
      </trkpt>
      <trkpt lat="45.52002" lon="7.24006">
        <ele>3024.3</ele>
        <time>2021-11-07T08:35:36Z</time>
      </trkpt>
      <trkpt lat="45.52002" lon="7.24009">
        <ele>3024.8</ele>
        <time>2021-11-07T08:35:39Z</time>
      </trkpt>
      <trkpt lat="45.52002" lon="7.2401">
        <ele>3024.8</ele>
        <time>2021-11-07T08:35:40Z</time>
      </trkpt>
      <trkpt lat="45.52002" lon="7.24011">
        <ele>3024.8</ele>
        <time>2021-11-07T08:35:42Z</time>
      </trkpt>
      <trkpt lat="45.52005" lon="7.24014">
        <ele>3026.4</ele>
        <time>2021-11-07T08:35:49Z</time>
      </trkpt>
      <trkpt lat="45.52006" lon="7.24014">
        <ele>3027.6</ele>
        <time>2021-11-07T08:35:52Z</time>
      </trkpt>
      <trkpt lat="45.52008" lon="7.24019">
        <ele>3028</ele>
        <time>2021-11-07T08:36:03Z</time>
      </trkpt>
      <trkpt lat="45.52008" lon="7.24023">
        <ele>3028.4</ele>
        <time>2021-11-07T08:36:06Z</time>
      </trkpt>
      <trkpt lat="45.52008" lon="7.24024">
        <ele>3028.5</ele>
        <time>2021-11-07T08:36:08Z</time>
      </trkpt>
      <trkpt lat="45.52009" lon="7.24029">
        <ele>3030</ele>
        <time>2021-11-07T08:36:13Z</time>
      </trkpt>
      <trkpt lat="45.5201" lon="7.2403">
        <ele>3030.4</ele>
        <time>2021-11-07T08:36:14Z</time>
      </trkpt>
      <trkpt lat="45.52011" lon="7.24038">
        <ele>3031.2</ele>
        <time>2021-11-07T08:36:24Z</time>
      </trkpt>
      <trkpt lat="45.5201" lon="7.24039">
        <ele>3031.2</ele>
        <time>2021-11-07T08:36:26Z</time>
      </trkpt>
      <trkpt lat="45.52009" lon="7.24044">
        <ele>3030.4</ele>
        <time>2021-11-07T08:36:31Z</time>
      </trkpt>
      <trkpt lat="45.52008" lon="7.24046">
        <ele>3030.4</ele>
        <time>2021-11-07T08:36:33Z</time>
      </trkpt>
      <trkpt lat="45.52008" lon="7.24049">
        <ele>3030.8</ele>
        <time>2021-11-07T08:36:36Z</time>
      </trkpt>
      <trkpt lat="45.5201" lon="7.24059">
        <ele>3032.7</ele>
        <time>2021-11-07T08:36:45Z</time>
      </trkpt>
      <trkpt lat="45.52011" lon="7.24067">
        <ele>3033.3</ele>
        <time>2021-11-07T08:36:55Z</time>
      </trkpt>
      <trkpt lat="45.52012" lon="7.24068">
        <ele>3033.6</ele>
        <time>2021-11-07T08:36:56Z</time>
      </trkpt>
      <trkpt lat="45.52012" lon="7.2407">
        <ele>3033.6</ele>
        <time>2021-11-07T08:36:58Z</time>
      </trkpt>
      <trkpt lat="45.52013" lon="7.24073">
        <ele>3035.1</ele>
        <time>2021-11-07T08:37:02Z</time>
      </trkpt>
      <trkpt lat="45.52012" lon="7.24077">
        <ele>3035.4</ele>
        <time>2021-11-07T08:37:06Z</time>
      </trkpt>
      <trkpt lat="45.52012" lon="7.24078">
        <ele>3035.4</ele>
        <time>2021-11-07T08:37:07Z</time>
      </trkpt>
      <trkpt lat="45.52013" lon="7.24079">
        <ele>3035.4</ele>
        <time>2021-11-07T08:37:08Z</time>
      </trkpt>
      <trkpt lat="45.52014" lon="7.24081">
        <ele>3035.7</ele>
        <time>2021-11-07T08:37:11Z</time>
      </trkpt>
      <trkpt lat="45.52016" lon="7.24084">
        <ele>3036.8</ele>
        <time>2021-11-07T08:37:16Z</time>
      </trkpt>
      <trkpt lat="45.52017" lon="7.24088">
        <ele>3037.1</ele>
        <time>2021-11-07T08:37:20Z</time>
      </trkpt>
      <trkpt lat="45.52017" lon="7.24088">
        <ele>3037.1</ele>
        <time>2021-11-07T08:37:21Z</time>
      </trkpt>
      <trkpt lat="45.52018" lon="7.24089">
        <ele>3037.1</ele>
        <time>2021-11-07T08:37:22Z</time>
      </trkpt>
      <trkpt lat="45.52018" lon="7.2409">
        <ele>3038.5</ele>
        <time>2021-11-07T08:37:24Z</time>
      </trkpt>
      <trkpt lat="45.52021" lon="7.24099">
        <ele>3038.9</ele>
        <time>2021-11-07T08:37:35Z</time>
      </trkpt>
      <trkpt lat="45.52021" lon="7.24101">
        <ele>3040</ele>
        <time>2021-11-07T08:37:37Z</time>
      </trkpt>
      <trkpt lat="45.52022" lon="7.24102">
        <ele>3040</ele>
        <time>2021-11-07T08:37:38Z</time>
      </trkpt>
      <trkpt lat="45.52023" lon="7.24106">
        <ele>3040.2</ele>
        <time>2021-11-07T08:37:43Z</time>
      </trkpt>
      <trkpt lat="45.52023" lon="7.24109">
        <ele>3040.4</ele>
        <time>2021-11-07T08:37:47Z</time>
      </trkpt>
      <trkpt lat="45.52023" lon="7.24112">
        <ele>3040.6</ele>
        <time>2021-11-07T08:37:50Z</time>
      </trkpt>
      <trkpt lat="45.52023" lon="7.24113">
        <ele>3040.6</ele>
        <time>2021-11-07T08:37:52Z</time>
      </trkpt>
      <trkpt lat="45.52027" lon="7.24119">
        <ele>3042.1</ele>
        <time>2021-11-07T08:38:01Z</time>
      </trkpt>
      <trkpt lat="45.52029" lon="7.24125">
        <ele>3043.9</ele>
        <time>2021-11-07T08:38:09Z</time>
      </trkpt>
      <trkpt lat="45.52029" lon="7.24128">
        <ele>3044.3</ele>
        <time>2021-11-07T08:38:14Z</time>
      </trkpt>
      <trkpt lat="45.52029" lon="7.24131">
        <ele>3044.3</ele>
        <time>2021-11-07T08:38:19Z</time>
      </trkpt>
      <trkpt lat="45.5203" lon="7.24135">
        <ele>3044.7</ele>
        <time>2021-11-07T08:38:24Z</time>
      </trkpt>
      <trkpt lat="45.5203" lon="7.24138">
        <ele>3045</ele>
        <time>2021-11-07T08:38:26Z</time>
      </trkpt>
      <trkpt lat="45.5203" lon="7.2414">
        <ele>3045.1</ele>
        <time>2021-11-07T08:38:28Z</time>
      </trkpt>
      <trkpt lat="45.5203" lon="7.24145">
        <ele>3047.1</ele>
        <time>2021-11-07T08:38:35Z</time>
      </trkpt>
      <trkpt lat="45.52031" lon="7.24147">
        <ele>3047.1</ele>
        <time>2021-11-07T08:38:37Z</time>
      </trkpt>
      <trkpt lat="45.52031" lon="7.24148">
        <ele>3047.1</ele>
        <time>2021-11-07T08:38:42Z</time>
      </trkpt>
      <trkpt lat="45.52031" lon="7.24147">
        <ele>3047.1</ele>
        <time>2021-11-07T08:38:45Z</time>
      </trkpt>
      <trkpt lat="45.52031" lon="7.24147">
        <ele>3047.1</ele>
        <time>2021-11-07T08:38:46Z</time>
      </trkpt>
      <trkpt lat="45.52032" lon="7.24147">
        <ele>3047.1</ele>
        <time>2021-11-07T08:38:47Z</time>
      </trkpt>
      <trkpt lat="45.52032" lon="7.24147">
        <ele>3047.2</ele>
        <time>2021-11-07T08:38:48Z</time>
      </trkpt>
      <trkpt lat="45.52032" lon="7.24147">
        <ele>3047.2</ele>
        <time>2021-11-07T08:38:53Z</time>
      </trkpt>
      <trkpt lat="45.52031" lon="7.24149">
        <ele>3047.2</ele>
        <time>2021-11-07T08:39:02Z</time>
      </trkpt>
      <trkpt lat="45.52031" lon="7.24149">
        <ele>3047.2</ele>
        <time>2021-11-07T08:39:04Z</time>
      </trkpt>
      <trkpt lat="45.52031" lon="7.24149">
        <ele>3047.2</ele>
        <time>2021-11-07T08:39:10Z</time>
      </trkpt>
      <trkpt lat="45.52031" lon="7.24149">
        <ele>3047.2</ele>
        <time>2021-11-07T08:39:11Z</time>
      </trkpt>
      <trkpt lat="45.52032" lon="7.24149">
        <ele>3047.2</ele>
        <time>2021-11-07T08:39:14Z</time>
      </trkpt>
      <trkpt lat="45.52031" lon="7.24149">
        <ele>3047.2</ele>
        <time>2021-11-07T08:39:15Z</time>
      </trkpt>
      <trkpt lat="45.52031" lon="7.24148">
        <ele>3047.2</ele>
        <time>2021-11-07T08:39:19Z</time>
      </trkpt>
      <trkpt lat="45.52031" lon="7.24148">
        <ele>3047.3</ele>
        <time>2021-11-07T08:39:23Z</time>
      </trkpt>
      <trkpt lat="45.5203" lon="7.24148">
        <ele>3047.3</ele>
        <time>2021-11-07T08:39:24Z</time>
      </trkpt>
      <trkpt lat="45.5203" lon="7.24148">
        <ele>3047.3</ele>
        <time>2021-11-07T08:39:26Z</time>
      </trkpt>
      <trkpt lat="45.5203" lon="7.24148">
        <ele>3047.3</ele>
        <time>2021-11-07T08:39:30Z</time>
      </trkpt>
      <trkpt lat="45.5203" lon="7.24147">
        <ele>3045.9</ele>
        <time>2021-11-07T08:39:37Z</time>
      </trkpt>
      <trkpt lat="45.5203" lon="7.24147">
        <ele>3045.9</ele>
        <time>2021-11-07T08:39:40Z</time>
      </trkpt>
      <trkpt lat="45.5203" lon="7.24148">
        <ele>3045.9</ele>
        <time>2021-11-07T08:39:42Z</time>
      </trkpt>
      <trkpt lat="45.5203" lon="7.24147">
        <ele>3046</ele>
        <time>2021-11-07T08:39:49Z</time>
      </trkpt>
      <trkpt lat="45.5203" lon="7.24147">
        <ele>3047.3</ele>
        <time>2021-11-07T08:39:51Z</time>
      </trkpt>
      <trkpt lat="45.52031" lon="7.24147">
        <ele>3047.4</ele>
        <time>2021-11-07T08:39:54Z</time>
      </trkpt>
      <trkpt lat="45.52032" lon="7.24147">
        <ele>3047.4</ele>
        <time>2021-11-07T08:39:57Z</time>
      </trkpt>
      <trkpt lat="45.52032" lon="7.24147">
        <ele>3047.4</ele>
        <time>2021-11-07T08:39:58Z</time>
      </trkpt>
      <trkpt lat="45.52033" lon="7.24148">
        <ele>3047.4</ele>
        <time>2021-11-07T08:40:06Z</time>
      </trkpt>
      <trkpt lat="45.52033" lon="7.24148">
        <ele>3047.4</ele>
        <time>2021-11-07T08:40:10Z</time>
      </trkpt>
      <trkpt lat="45.52032" lon="7.24148">
        <ele>3047.4</ele>
        <time>2021-11-07T08:40:14Z</time>
      </trkpt>
      <trkpt lat="45.52032" lon="7.24148">
        <ele>3047.4</ele>
        <time>2021-11-07T08:40:20Z</time>
      </trkpt>
      <trkpt lat="45.52032" lon="7.24148">
        <ele>3047.4</ele>
        <time>2021-11-07T08:40:26Z</time>
      </trkpt>
      <trkpt lat="45.52032" lon="7.24148">
        <ele>3047.4</ele>
        <time>2021-11-07T08:40:28Z</time>
      </trkpt>
      <trkpt lat="45.52032" lon="7.24148">
        <ele>3047.5</ele>
        <time>2021-11-07T08:40:30Z</time>
      </trkpt>
      <trkpt lat="45.52032" lon="7.24148">
        <ele>3047.5</ele>
        <time>2021-11-07T08:40:32Z</time>
      </trkpt>
      <trkpt lat="45.52032" lon="7.24147">
        <ele>3047.5</ele>
        <time>2021-11-07T08:40:36Z</time>
      </trkpt>
      <trkpt lat="45.52032" lon="7.24147">
        <ele>3047.5</ele>
        <time>2021-11-07T08:40:48Z</time>
      </trkpt>
      <trkpt lat="45.52032" lon="7.24147">
        <ele>3047.5</ele>
        <time>2021-11-07T08:40:49Z</time>
      </trkpt>
      <trkpt lat="45.52032" lon="7.24147">
        <ele>3047.5</ele>
        <time>2021-11-07T08:40:59Z</time>
      </trkpt>
      <trkpt lat="45.52032" lon="7.24147">
        <ele>3047.5</ele>
        <time>2021-11-07T08:41:01Z</time>
      </trkpt>
      <trkpt lat="45.52032" lon="7.24146">
        <ele>3047.5</ele>
        <time>2021-11-07T08:41:04Z</time>
      </trkpt>
      <trkpt lat="45.52033" lon="7.24146">
        <ele>3047.5</ele>
        <time>2021-11-07T08:41:08Z</time>
      </trkpt>
      <trkpt lat="45.52034" lon="7.24146">
        <ele>3048.9</ele>
        <time>2021-11-07T08:41:19Z</time>
      </trkpt>
      <trkpt lat="45.52034" lon="7.24147">
        <ele>3048.9</ele>
        <time>2021-11-07T08:41:26Z</time>
      </trkpt>
      <trkpt lat="45.52033" lon="7.24146">
        <ele>3048.9</ele>
        <time>2021-11-07T08:41:31Z</time>
      </trkpt>
      <trkpt lat="45.52033" lon="7.24146">
        <ele>3048.9</ele>
        <time>2021-11-07T08:41:32Z</time>
      </trkpt>
      <trkpt lat="45.52033" lon="7.24147">
        <ele>3048.9</ele>
        <time>2021-11-07T08:41:40Z</time>
      </trkpt>
      <trkpt lat="45.52033" lon="7.24148">
        <ele>3048.9</ele>
        <time>2021-11-07T08:41:41Z</time>
      </trkpt>
      <trkpt lat="45.52033" lon="7.24148">
        <ele>3048.9</ele>
        <time>2021-11-07T08:41:43Z</time>
      </trkpt>
      <trkpt lat="45.52033" lon="7.24148">
        <ele>3048.9</ele>
        <time>2021-11-07T08:41:46Z</time>
      </trkpt>
      <trkpt lat="45.52033" lon="7.24148">
        <ele>3047.6</ele>
        <time>2021-11-07T08:41:49Z</time>
      </trkpt>
      <trkpt lat="45.52032" lon="7.24149">
        <ele>3047.9</ele>
        <time>2021-11-07T08:41:59Z</time>
      </trkpt>
      <trkpt lat="45.52032" lon="7.24151">
        <ele>3047.9</ele>
        <time>2021-11-07T08:42:13Z</time>
      </trkpt>
      <trkpt lat="45.52031" lon="7.24151">
        <ele>3048</ele>
        <time>2021-11-07T08:42:19Z</time>
      </trkpt>
      <trkpt lat="45.52031" lon="7.24151">
        <ele>3048</ele>
        <time>2021-11-07T08:42:20Z</time>
      </trkpt>
      <trkpt lat="45.52032" lon="7.24151">
        <ele>3048</ele>
        <time>2021-11-07T08:42:27Z</time>
      </trkpt>
      <trkpt lat="45.52032" lon="7.2415">
        <ele>3048</ele>
        <time>2021-11-07T08:42:36Z</time>
      </trkpt>
      <trkpt lat="45.52032" lon="7.2415">
        <ele>3048</ele>
        <time>2021-11-07T08:42:39Z</time>
      </trkpt>
      <trkpt lat="45.52032" lon="7.2415">
        <ele>3048</ele>
        <time>2021-11-07T08:42:40Z</time>
      </trkpt>
      <trkpt lat="45.52032" lon="7.2415">
        <ele>3048</ele>
        <time>2021-11-07T08:42:42Z</time>
      </trkpt>
      <trkpt lat="45.52032" lon="7.2415">
        <ele>3048</ele>
        <time>2021-11-07T08:42:43Z</time>
      </trkpt>
      <trkpt lat="45.52032" lon="7.2415">
        <ele>3048</ele>
        <time>2021-11-07T08:42:44Z</time>
      </trkpt>
      <trkpt lat="45.52032" lon="7.2415">
        <ele>3048.1</ele>
        <time>2021-11-07T08:42:45Z</time>
      </trkpt>
      <trkpt lat="45.52032" lon="7.2415">
        <ele>3048.1</ele>
        <time>2021-11-07T08:42:46Z</time>
      </trkpt>
      <trkpt lat="45.52032" lon="7.24149">
        <ele>3048.1</ele>
        <time>2021-11-07T08:42:50Z</time>
      </trkpt>
      <trkpt lat="45.52031" lon="7.24149">
        <ele>3048.1</ele>
        <time>2021-11-07T08:42:51Z</time>
      </trkpt>
      <trkpt lat="45.52031" lon="7.2415">
        <ele>3048.1</ele>
        <time>2021-11-07T08:42:55Z</time>
      </trkpt>
      <trkpt lat="45.52031" lon="7.2415">
        <ele>3048.1</ele>
        <time>2021-11-07T08:42:58Z</time>
      </trkpt>
      <trkpt lat="45.52031" lon="7.2415">
        <ele>3048.1</ele>
        <time>2021-11-07T08:43:01Z</time>
      </trkpt>
      <trkpt lat="45.5203" lon="7.24151">
        <ele>3048.1</ele>
        <time>2021-11-07T08:43:06Z</time>
      </trkpt>
      <trkpt lat="45.52031" lon="7.24151">
        <ele>3048.1</ele>
        <time>2021-11-07T08:43:10Z</time>
      </trkpt>
      <trkpt lat="45.52031" lon="7.24151">
        <ele>3048.2</ele>
        <time>2021-11-07T08:43:11Z</time>
      </trkpt>
      <trkpt lat="45.5203" lon="7.24151">
        <ele>3048.2</ele>
        <time>2021-11-07T08:43:16Z</time>
      </trkpt>
      <trkpt lat="45.5203" lon="7.24152">
        <ele>3046.8</ele>
        <time>2021-11-07T08:43:19Z</time>
      </trkpt>
      <trkpt lat="45.5203" lon="7.24155">
        <ele>3047.1</ele>
        <time>2021-11-07T08:43:23Z</time>
      </trkpt>
      <trkpt lat="45.52032" lon="7.24164">
        <ele>3048.9</ele>
        <time>2021-11-07T08:43:34Z</time>
      </trkpt>
      <trkpt lat="45.52033" lon="7.24169">
        <ele>3049.1</ele>
        <time>2021-11-07T08:43:39Z</time>
      </trkpt>
      <trkpt lat="45.52033" lon="7.24171">
        <ele>3049.1</ele>
        <time>2021-11-07T08:43:40Z</time>
      </trkpt>
      <trkpt lat="45.52033" lon="7.24172">
        <ele>3049.3</ele>
        <time>2021-11-07T08:43:41Z</time>
      </trkpt>
      <trkpt lat="45.52033" lon="7.24173">
        <ele>3050.7</ele>
        <time>2021-11-07T08:43:42Z</time>
      </trkpt>
      <trkpt lat="45.52033" lon="7.24174">
        <ele>3050.7</ele>
        <time>2021-11-07T08:43:43Z</time>
      </trkpt>
      <trkpt lat="45.52034" lon="7.24176">
        <ele>3050.9</ele>
        <time>2021-11-07T08:43:45Z</time>
      </trkpt>
      <trkpt lat="45.52034" lon="7.24177">
        <ele>3051</ele>
        <time>2021-11-07T08:43:47Z</time>
      </trkpt>
      <trkpt lat="45.52035" lon="7.24179">
        <ele>3051</ele>
        <time>2021-11-07T08:43:50Z</time>
      </trkpt>
      <trkpt lat="45.52035" lon="7.24183">
        <ele>3051.2</ele>
        <time>2021-11-07T08:43:55Z</time>
      </trkpt>
      <trkpt lat="45.52036" lon="7.24184">
        <ele>3051.5</ele>
        <time>2021-11-07T08:43:56Z</time>
      </trkpt>
      <trkpt lat="45.52036" lon="7.24188">
        <ele>3051.8</ele>
        <time>2021-11-07T08:44:01Z</time>
      </trkpt>
      <trkpt lat="45.52037" lon="7.24193">
        <ele>3053.3</ele>
        <time>2021-11-07T08:44:08Z</time>
      </trkpt>
      <trkpt lat="45.52038" lon="7.24198">
        <ele>3053.6</ele>
        <time>2021-11-07T08:44:15Z</time>
      </trkpt>
      <trkpt lat="45.52039" lon="7.24201">
        <ele>3053.9</ele>
        <time>2021-11-07T08:44:18Z</time>
      </trkpt>
      <trkpt lat="45.52039" lon="7.24202">
        <ele>3053.9</ele>
        <time>2021-11-07T08:44:20Z</time>
      </trkpt>
      <trkpt lat="45.52039" lon="7.24203">
        <ele>3055</ele>
        <time>2021-11-07T08:44:21Z</time>
      </trkpt>
      <trkpt lat="45.52041" lon="7.24209">
        <ele>3055.3</ele>
        <time>2021-11-07T08:44:28Z</time>
      </trkpt>
      <trkpt lat="45.52042" lon="7.24212">
        <ele>3055.6</ele>
        <time>2021-11-07T08:44:31Z</time>
      </trkpt>
      <trkpt lat="45.52041" lon="7.24213">
        <ele>3055.7</ele>
        <time>2021-11-07T08:44:32Z</time>
      </trkpt>
      <trkpt lat="45.52041" lon="7.24214">
        <ele>3056</ele>
        <time>2021-11-07T08:44:33Z</time>
      </trkpt>
      <trkpt lat="45.52041" lon="7.24216">
        <ele>3056</ele>
        <time>2021-11-07T08:44:35Z</time>
      </trkpt>
      <trkpt lat="45.52041" lon="7.24218">
        <ele>3056</ele>
        <time>2021-11-07T08:44:37Z</time>
      </trkpt>
      <trkpt lat="45.52042" lon="7.24221">
        <ele>3056.4</ele>
        <time>2021-11-07T08:44:42Z</time>
      </trkpt>
      <trkpt lat="45.52042" lon="7.24221">
        <ele>3056.4</ele>
        <time>2021-11-07T08:44:43Z</time>
      </trkpt>
      <trkpt lat="45.52042" lon="7.24222">
        <ele>3057.5</ele>
        <time>2021-11-07T08:44:44Z</time>
      </trkpt>
      <trkpt lat="45.52043" lon="7.24221">
        <ele>3057.5</ele>
        <time>2021-11-07T08:44:50Z</time>
      </trkpt>
      <trkpt lat="45.52043" lon="7.24223">
        <ele>3057.9</ele>
        <time>2021-11-07T08:44:54Z</time>
      </trkpt>
      <trkpt lat="45.52043" lon="7.24227">
        <ele>3058.3</ele>
        <time>2021-11-07T08:44:58Z</time>
      </trkpt>
      <trkpt lat="45.52042" lon="7.2423">
        <ele>3058.3</ele>
        <time>2021-11-07T08:45:03Z</time>
      </trkpt>
      <trkpt lat="45.52042" lon="7.24232">
        <ele>3057.5</ele>
        <time>2021-11-07T08:45:05Z</time>
      </trkpt>
      <trkpt lat="45.52042" lon="7.24232">
        <ele>3057.6</ele>
        <time>2021-11-07T08:45:06Z</time>
      </trkpt>
      <trkpt lat="45.52041" lon="7.24235">
        <ele>3057.6</ele>
        <time>2021-11-07T08:45:11Z</time>
      </trkpt>
      <trkpt lat="45.52041" lon="7.24237">
        <ele>3057.9</ele>
        <time>2021-11-07T08:45:15Z</time>
      </trkpt>
      <trkpt lat="45.52041" lon="7.2424">
        <ele>3058.3</ele>
        <time>2021-11-07T08:45:18Z</time>
      </trkpt>
      <trkpt lat="45.52041" lon="7.24242">
        <ele>3058.3</ele>
        <time>2021-11-07T08:45:28Z</time>
      </trkpt>
      <trkpt lat="45.52042" lon="7.24243">
        <ele>3059.4</ele>
        <time>2021-11-07T08:45:32Z</time>
      </trkpt>
      <trkpt lat="45.52044" lon="7.24245">
        <ele>3059.8</ele>
        <time>2021-11-07T08:45:40Z</time>
      </trkpt>
      <trkpt lat="45.52045" lon="7.24244">
        <ele>3060.9</ele>
        <time>2021-11-07T08:45:45Z</time>
      </trkpt>
      <trkpt lat="45.52047" lon="7.24247">
        <ele>3060.9</ele>
        <time>2021-11-07T08:45:51Z</time>
      </trkpt>
      <trkpt lat="45.52048" lon="7.24248">
        <ele>3061</ele>
        <time>2021-11-07T08:45:52Z</time>
      </trkpt>
      <trkpt lat="45.52048" lon="7.2425">
        <ele>3061.4</ele>
        <time>2021-11-07T08:45:56Z</time>
      </trkpt>
      <trkpt lat="45.52049" lon="7.24254">
        <ele>3063</ele>
        <time>2021-11-07T08:46:03Z</time>
      </trkpt>
      <trkpt lat="45.5205" lon="7.24256">
        <ele>3063</ele>
        <time>2021-11-07T08:46:08Z</time>
      </trkpt>
      <trkpt lat="45.5205" lon="7.24256">
        <ele>3063</ele>
        <time>2021-11-07T08:46:09Z</time>
      </trkpt>
      <trkpt lat="45.5205" lon="7.24258">
        <ele>3063.5</ele>
        <time>2021-11-07T08:46:15Z</time>
      </trkpt>
      <trkpt lat="45.52052" lon="7.24261">
        <ele>3064.8</ele>
        <time>2021-11-07T08:46:23Z</time>
      </trkpt>
      <trkpt lat="45.52052" lon="7.24262">
        <ele>3065.3</ele>
        <time>2021-11-07T08:46:25Z</time>
      </trkpt>
      <trkpt lat="45.52055" lon="7.24267">
        <ele>3067.3</ele>
        <time>2021-11-07T08:46:35Z</time>
      </trkpt>
      <trkpt lat="45.52055" lon="7.24267">
        <ele>3067.3</ele>
        <time>2021-11-07T08:46:36Z</time>
      </trkpt>
      <trkpt lat="45.52054" lon="7.24268">
        <ele>3065.9</ele>
        <time>2021-11-07T08:46:38Z</time>
      </trkpt>
      <trkpt lat="45.52053" lon="7.24269">
        <ele>3065.9</ele>
        <time>2021-11-07T08:46:41Z</time>
      </trkpt>
      <trkpt lat="45.5205" lon="7.24272">
        <ele>3065.2</ele>
        <time>2021-11-07T08:46:45Z</time>
      </trkpt>
      <trkpt lat="45.5205" lon="7.24272">
        <ele>3065.2</ele>
        <time>2021-11-07T08:46:46Z</time>
      </trkpt>
      <trkpt lat="45.52048" lon="7.24274">
        <ele>3064.6</ele>
        <time>2021-11-07T08:46:49Z</time>
      </trkpt>
      <trkpt lat="45.52047" lon="7.24276">
        <ele>3064.6</ele>
        <time>2021-11-07T08:46:51Z</time>
      </trkpt>
      <trkpt lat="45.52046" lon="7.2428">
        <ele>3065.2</ele>
        <time>2021-11-07T08:46:55Z</time>
      </trkpt>
      <trkpt lat="45.52045" lon="7.24282">
        <ele>3065.2</ele>
        <time>2021-11-07T08:46:56Z</time>
      </trkpt>
      <trkpt lat="45.52045" lon="7.24284">
        <ele>3064.8</ele>
        <time>2021-11-07T08:46:58Z</time>
      </trkpt>
      <trkpt lat="45.52044" lon="7.24286">
        <ele>3064.8</ele>
        <time>2021-11-07T08:47:01Z</time>
      </trkpt>
      <trkpt lat="45.52044" lon="7.24287">
        <ele>3065.4</ele>
        <time>2021-11-07T08:47:02Z</time>
      </trkpt>
      <trkpt lat="45.52044" lon="7.24288">
        <ele>3065.4</ele>
        <time>2021-11-07T08:47:03Z</time>
      </trkpt>
      <trkpt lat="45.52045" lon="7.24291">
        <ele>3065.4</ele>
        <time>2021-11-07T08:47:06Z</time>
      </trkpt>
      <trkpt lat="45.52045" lon="7.24292">
        <ele>3067.2</ele>
        <time>2021-11-07T08:47:07Z</time>
      </trkpt>
      <trkpt lat="45.52045" lon="7.24292">
        <ele>3067.2</ele>
        <time>2021-11-07T08:47:08Z</time>
      </trkpt>
      <trkpt lat="45.52045" lon="7.24293">
        <ele>3067.2</ele>
        <time>2021-11-07T08:47:09Z</time>
      </trkpt>
      <trkpt lat="45.52045" lon="7.24294">
        <ele>3066.1</ele>
        <time>2021-11-07T08:47:12Z</time>
      </trkpt>
      <trkpt lat="45.52043" lon="7.24297">
        <ele>3066.8</ele>
        <time>2021-11-07T08:47:15Z</time>
      </trkpt>
      <trkpt lat="45.52041" lon="7.24299">
        <ele>3065.7</ele>
        <time>2021-11-07T08:47:19Z</time>
      </trkpt>
      <trkpt lat="45.5204" lon="7.243">
        <ele>3066.5</ele>
        <time>2021-11-07T08:47:21Z</time>
      </trkpt>
      <trkpt lat="45.52037" lon="7.24309">
        <ele>3066.9</ele>
        <time>2021-11-07T08:47:30Z</time>
      </trkpt>
      <trkpt lat="45.52036" lon="7.24313">
        <ele>3066.5</ele>
        <time>2021-11-07T08:47:35Z</time>
      </trkpt>
      <trkpt lat="45.52035" lon="7.24315">
        <ele>3066.5</ele>
        <time>2021-11-07T08:47:38Z</time>
      </trkpt>
      <trkpt lat="45.52034" lon="7.24317">
        <ele>3067.3</ele>
        <time>2021-11-07T08:47:41Z</time>
      </trkpt>
      <trkpt lat="45.52033" lon="7.24318">
        <ele>3067.3</ele>
        <time>2021-11-07T08:47:42Z</time>
      </trkpt>
      <trkpt lat="45.52033" lon="7.24319">
        <ele>3066</ele>
        <time>2021-11-07T08:47:43Z</time>
      </trkpt>
      <trkpt lat="45.52029" lon="7.24327">
        <ele>3066.3</ele>
        <time>2021-11-07T08:47:53Z</time>
      </trkpt>
      <trkpt lat="45.52026" lon="7.24335">
        <ele>3066.6</ele>
        <time>2021-11-07T08:48:01Z</time>
      </trkpt>
      <trkpt lat="45.52025" lon="7.24336">
        <ele>3066.6</ele>
        <time>2021-11-07T08:48:02Z</time>
      </trkpt>
      <trkpt lat="45.52025" lon="7.24338">
        <ele>3066.6</ele>
        <time>2021-11-07T08:48:05Z</time>
      </trkpt>
      <trkpt lat="45.52024" lon="7.24342">
        <ele>3066.3</ele>
        <time>2021-11-07T08:48:11Z</time>
      </trkpt>
      <trkpt lat="45.52023" lon="7.24343">
        <ele>3067.2</ele>
        <time>2021-11-07T08:48:13Z</time>
      </trkpt>
      <trkpt lat="45.5202" lon="7.24347">
        <ele>3067.1</ele>
        <time>2021-11-07T08:48:18Z</time>
      </trkpt>
      <trkpt lat="45.5202" lon="7.24348">
        <ele>3067.1</ele>
        <time>2021-11-07T08:48:19Z</time>
      </trkpt>
      <trkpt lat="45.52019" lon="7.2435">
        <ele>3067.1</ele>
        <time>2021-11-07T08:48:22Z</time>
      </trkpt>
      <trkpt lat="45.52015" lon="7.24356">
        <ele>3067.1</ele>
        <time>2021-11-07T08:48:29Z</time>
      </trkpt>
      <trkpt lat="45.52014" lon="7.24357">
        <ele>3067.1</ele>
        <time>2021-11-07T08:48:30Z</time>
      </trkpt>
      <trkpt lat="45.52011" lon="7.2436">
        <ele>3067.2</ele>
        <time>2021-11-07T08:48:34Z</time>
      </trkpt>
      <trkpt lat="45.52008" lon="7.24363">
        <ele>3066.2</ele>
        <time>2021-11-07T08:48:43Z</time>
      </trkpt>
      <trkpt lat="45.52005" lon="7.24371">
        <ele>3067.2</ele>
        <time>2021-11-07T08:48:52Z</time>
      </trkpt>
      <trkpt lat="45.52005" lon="7.24372">
        <ele>3067.2</ele>
        <time>2021-11-07T08:48:53Z</time>
      </trkpt>
      <trkpt lat="45.52004" lon="7.24374">
        <ele>3068.2</ele>
        <time>2021-11-07T08:48:55Z</time>
      </trkpt>
      <trkpt lat="45.52003" lon="7.24376">
        <ele>3067.2</ele>
        <time>2021-11-07T08:48:57Z</time>
      </trkpt>
      <trkpt lat="45.52002" lon="7.24377">
        <ele>3068.1</ele>
        <time>2021-11-07T08:48:59Z</time>
      </trkpt>
      <trkpt lat="45.52001" lon="7.24381">
        <ele>3069.1</ele>
        <time>2021-11-07T08:49:03Z</time>
      </trkpt>
      <trkpt lat="45.52" lon="7.24384">
        <ele>3069.1</ele>
        <time>2021-11-07T08:49:05Z</time>
      </trkpt>
      <trkpt lat="45.51999" lon="7.24384">
        <ele>3068.1</ele>
        <time>2021-11-07T08:49:06Z</time>
      </trkpt>
      <trkpt lat="45.51998" lon="7.24386">
        <ele>3069.1</ele>
        <time>2021-11-07T08:49:08Z</time>
      </trkpt>
      <trkpt lat="45.51994" lon="7.24392">
        <ele>3069.1</ele>
        <time>2021-11-07T08:49:18Z</time>
      </trkpt>
      <trkpt lat="45.51993" lon="7.24393">
        <ele>3068.2</ele>
        <time>2021-11-07T08:49:20Z</time>
      </trkpt>
      <trkpt lat="45.51992" lon="7.24395">
        <ele>3069.3</ele>
        <time>2021-11-07T08:49:25Z</time>
      </trkpt>
      <trkpt lat="45.51991" lon="7.24396">
        <ele>3068.4</ele>
        <time>2021-11-07T08:49:27Z</time>
      </trkpt>
      <trkpt lat="45.51989" lon="7.24396">
        <ele>3068.4</ele>
        <time>2021-11-07T08:49:29Z</time>
      </trkpt>
      <trkpt lat="45.51985" lon="7.24396">
        <ele>3066.9</ele>
        <time>2021-11-07T08:49:37Z</time>
      </trkpt>
      <trkpt lat="45.51983" lon="7.24397">
        <ele>3066.9</ele>
        <time>2021-11-07T08:49:39Z</time>
      </trkpt>
      <trkpt lat="45.51982" lon="7.24397">
        <ele>3066.9</ele>
        <time>2021-11-07T08:49:40Z</time>
      </trkpt>
      <trkpt lat="45.51978" lon="7.24404">
        <ele>3067.5</ele>
        <time>2021-11-07T08:49:51Z</time>
      </trkpt>
      <trkpt lat="45.51977" lon="7.24405">
        <ele>3067.5</ele>
        <time>2021-11-07T08:49:58Z</time>
      </trkpt>
      <trkpt lat="45.51978" lon="7.24405">
        <ele>3067.5</ele>
        <time>2021-11-07T08:50:01Z</time>
      </trkpt>
      <trkpt lat="45.51982" lon="7.24407">
        <ele>3069.9</ele>
        <time>2021-11-07T08:50:09Z</time>
      </trkpt>
      <trkpt lat="45.51982" lon="7.24407">
        <ele>3070</ele>
        <time>2021-11-07T08:50:10Z</time>
      </trkpt>
      <trkpt lat="45.51982" lon="7.24407">
        <ele>3069.3</ele>
        <time>2021-11-07T08:50:14Z</time>
      </trkpt>
      <trkpt lat="45.51981" lon="7.24408">
        <ele>3069.3</ele>
        <time>2021-11-07T08:50:18Z</time>
      </trkpt>
      <trkpt lat="45.51981" lon="7.24408">
        <ele>3069.3</ele>
        <time>2021-11-07T08:50:28Z</time>
      </trkpt>
      <trkpt lat="45.51981" lon="7.24408">
        <ele>3069.3</ele>
        <time>2021-11-07T08:50:33Z</time>
      </trkpt>
      <trkpt lat="45.51981" lon="7.24408">
        <ele>3069.3</ele>
        <time>2021-11-07T08:50:34Z</time>
      </trkpt>
      <trkpt lat="45.51981" lon="7.24408">
        <ele>3069.3</ele>
        <time>2021-11-07T08:50:35Z</time>
      </trkpt>
      <trkpt lat="45.51981" lon="7.24408">
        <ele>3069.3</ele>
        <time>2021-11-07T08:50:36Z</time>
      </trkpt>
      <trkpt lat="45.51979" lon="7.24408">
        <ele>3069.3</ele>
        <time>2021-11-07T08:50:46Z</time>
      </trkpt>
      <trkpt lat="45.51984" lon="7.24407">
        <ele>3070.1</ele>
        <time>2021-11-07T08:50:56Z</time>
      </trkpt>
      <trkpt lat="45.51985" lon="7.24407">
        <ele>3070.1</ele>
        <time>2021-11-07T08:50:57Z</time>
      </trkpt>
      <trkpt lat="45.51985" lon="7.24407">
        <ele>3070.8</ele>
        <time>2021-11-07T08:50:58Z</time>
      </trkpt>
      <trkpt lat="45.51987" lon="7.24407">
        <ele>3070.8</ele>
        <time>2021-11-07T08:51:00Z</time>
      </trkpt>
      <trkpt lat="45.51987" lon="7.24407">
        <ele>3069.8</ele>
        <time>2021-11-07T08:51:01Z</time>
      </trkpt>
      <trkpt lat="45.51989" lon="7.24407">
        <ele>3070.6</ele>
        <time>2021-11-07T08:51:04Z</time>
      </trkpt>
      <trkpt lat="45.5199" lon="7.24407">
        <ele>3071.6</ele>
        <time>2021-11-07T08:51:05Z</time>
      </trkpt>
      <trkpt lat="45.51991" lon="7.24408">
        <ele>3071.6</ele>
        <time>2021-11-07T08:51:07Z</time>
      </trkpt>
      <trkpt lat="45.51991" lon="7.24409">
        <ele>3072.5</ele>
        <time>2021-11-07T08:51:09Z</time>
      </trkpt>
      <trkpt lat="45.51994" lon="7.24411">
        <ele>3072.5</ele>
        <time>2021-11-07T08:51:14Z</time>
      </trkpt>
      <trkpt lat="45.51996" lon="7.24412">
        <ele>3074.3</ele>
        <time>2021-11-07T08:51:18Z</time>
      </trkpt>
      <trkpt lat="45.51997" lon="7.24413">
        <ele>3074.3</ele>
        <time>2021-11-07T08:51:20Z</time>
      </trkpt>
      <trkpt lat="45.51998" lon="7.24413">
        <ele>3075.2</ele>
        <time>2021-11-07T08:51:22Z</time>
      </trkpt>
      <trkpt lat="45.52" lon="7.24413">
        <ele>3076.2</ele>
        <time>2021-11-07T08:51:25Z</time>
      </trkpt>
      <trkpt lat="45.52001" lon="7.24413">
        <ele>3076.2</ele>
        <time>2021-11-07T08:51:26Z</time>
      </trkpt>
      <trkpt lat="45.52002" lon="7.24416">
        <ele>3077.1</ele>
        <time>2021-11-07T08:51:30Z</time>
      </trkpt>
      <trkpt lat="45.52003" lon="7.2442">
        <ele>3077.9</ele>
        <time>2021-11-07T08:51:37Z</time>
      </trkpt>
      <trkpt lat="45.52003" lon="7.24421">
        <ele>3077.9</ele>
        <time>2021-11-07T08:51:39Z</time>
      </trkpt>
      <trkpt lat="45.52002" lon="7.24423">
        <ele>3077.9</ele>
        <time>2021-11-07T08:51:42Z</time>
      </trkpt>
      <trkpt lat="45.52001" lon="7.24427">
        <ele>3078.7</ele>
        <time>2021-11-07T08:51:46Z</time>
      </trkpt>
      <trkpt lat="45.52" lon="7.24428">
        <ele>3078.7</ele>
        <time>2021-11-07T08:51:48Z</time>
      </trkpt>
      <trkpt lat="45.52" lon="7.24429">
        <ele>3078.7</ele>
        <time>2021-11-07T08:51:50Z</time>
      </trkpt>
      <trkpt lat="45.51999" lon="7.24429">
        <ele>3078.7</ele>
        <time>2021-11-07T08:51:51Z</time>
      </trkpt>
      <trkpt lat="45.51998" lon="7.24431">
        <ele>3078.7</ele>
        <time>2021-11-07T08:51:53Z</time>
      </trkpt>
      <trkpt lat="45.51997" lon="7.24433">
        <ele>3079.6</ele>
        <time>2021-11-07T08:51:55Z</time>
      </trkpt>
      <trkpt lat="45.51996" lon="7.24436">
        <ele>3078.8</ele>
        <time>2021-11-07T08:51:58Z</time>
      </trkpt>
      <trkpt lat="45.51996" lon="7.24436">
        <ele>3078.8</ele>
        <time>2021-11-07T08:51:59Z</time>
      </trkpt>
      <trkpt lat="45.51994" lon="7.24438">
        <ele>3078.9</ele>
        <time>2021-11-07T08:52:02Z</time>
      </trkpt>
      <trkpt lat="45.51992" lon="7.24439">
        <ele>3078.9</ele>
        <time>2021-11-07T08:52:05Z</time>
      </trkpt>
      <trkpt lat="45.51992" lon="7.2444">
        <ele>3078.9</ele>
        <time>2021-11-07T08:52:06Z</time>
      </trkpt>
      <trkpt lat="45.51991" lon="7.24441">
        <ele>3078.2</ele>
        <time>2021-11-07T08:52:08Z</time>
      </trkpt>
      <trkpt lat="45.5199" lon="7.24442">
        <ele>3079.2</ele>
        <time>2021-11-07T08:52:10Z</time>
      </trkpt>
      <trkpt lat="45.51989" lon="7.24443">
        <ele>3079.3</ele>
        <time>2021-11-07T08:52:12Z</time>
      </trkpt>
      <trkpt lat="45.51988" lon="7.24444">
        <ele>3079.3</ele>
        <time>2021-11-07T08:52:13Z</time>
      </trkpt>
      <trkpt lat="45.51987" lon="7.24445">
        <ele>3078.6</ele>
        <time>2021-11-07T08:52:15Z</time>
      </trkpt>
      <trkpt lat="45.51986" lon="7.24446">
        <ele>3079.7</ele>
        <time>2021-11-07T08:52:16Z</time>
      </trkpt>
      <trkpt lat="45.5198" lon="7.24455">
        <ele>3080.5</ele>
        <time>2021-11-07T08:52:25Z</time>
      </trkpt>
      <trkpt lat="45.5198" lon="7.24457">
        <ele>3080.5</ele>
        <time>2021-11-07T08:52:26Z</time>
      </trkpt>
      <trkpt lat="45.51979" lon="7.24458">
        <ele>3080.5</ele>
        <time>2021-11-07T08:52:27Z</time>
      </trkpt>
      <trkpt lat="45.51978" lon="7.24462">
        <ele>3080.8</ele>
        <time>2021-11-07T08:52:31Z</time>
      </trkpt>
      <trkpt lat="45.51977" lon="7.24464">
        <ele>3081.7</ele>
        <time>2021-11-07T08:52:34Z</time>
      </trkpt>
      <trkpt lat="45.51977" lon="7.24465">
        <ele>3081.7</ele>
        <time>2021-11-07T08:52:35Z</time>
      </trkpt>
      <trkpt lat="45.51976" lon="7.24466">
        <ele>3081.7</ele>
        <time>2021-11-07T08:52:37Z</time>
      </trkpt>
      <trkpt lat="45.51975" lon="7.24466">
        <ele>3081.2</ele>
        <time>2021-11-07T08:52:40Z</time>
      </trkpt>
      <trkpt lat="45.51971" lon="7.24465">
        <ele>3081.9</ele>
        <time>2021-11-07T08:52:47Z</time>
      </trkpt>
      <trkpt lat="45.5197" lon="7.24469">
        <ele>3082.5</ele>
        <time>2021-11-07T08:52:54Z</time>
      </trkpt>
      <trkpt lat="45.5197" lon="7.2447">
        <ele>3082.7</ele>
        <time>2021-11-07T08:52:57Z</time>
      </trkpt>
      <trkpt lat="45.5197" lon="7.24471">
        <ele>3082.9</ele>
        <time>2021-11-07T08:52:59Z</time>
      </trkpt>
      <trkpt lat="45.51971" lon="7.24473">
        <ele>3083.2</ele>
        <time>2021-11-07T08:53:03Z</time>
      </trkpt>
      <trkpt lat="45.51971" lon="7.24474">
        <ele>3083.3</ele>
        <time>2021-11-07T08:53:05Z</time>
      </trkpt>
      <trkpt lat="45.51971" lon="7.24476">
        <ele>3083.7</ele>
        <time>2021-11-07T08:53:10Z</time>
      </trkpt>
      <trkpt lat="45.51971" lon="7.24476">
        <ele>3083.8</ele>
        <time>2021-11-07T08:53:12Z</time>
      </trkpt>
      <trkpt lat="45.51971" lon="7.24477">
        <ele>3083.9</ele>
        <time>2021-11-07T08:53:13Z</time>
      </trkpt>
      <trkpt lat="45.51972" lon="7.24478">
        <ele>3084.2</ele>
        <time>2021-11-07T08:53:16Z</time>
      </trkpt>
      <trkpt lat="45.51971" lon="7.2448">
        <ele>3084.4</ele>
        <time>2021-11-07T08:53:21Z</time>
      </trkpt>
      <trkpt lat="45.51971" lon="7.2448">
        <ele>3084.5</ele>
        <time>2021-11-07T08:53:24Z</time>
      </trkpt>
      <trkpt lat="45.51972" lon="7.24482">
        <ele>3084.8</ele>
        <time>2021-11-07T08:53:27Z</time>
      </trkpt>
      <trkpt lat="45.51972" lon="7.24482">
        <ele>3084.9</ele>
        <time>2021-11-07T08:53:29Z</time>
      </trkpt>
      <trkpt lat="45.51973" lon="7.24483">
        <ele>3085.1</ele>
        <time>2021-11-07T08:53:31Z</time>
      </trkpt>
      <trkpt lat="45.51973" lon="7.24485">
        <ele>3085.4</ele>
        <time>2021-11-07T08:53:35Z</time>
      </trkpt>
      <trkpt lat="45.51974" lon="7.24486">
        <ele>3085.6</ele>
        <time>2021-11-07T08:53:41Z</time>
      </trkpt>
      <trkpt lat="45.51974" lon="7.24488">
        <ele>3086</ele>
        <time>2021-11-07T08:53:45Z</time>
      </trkpt>
      <trkpt lat="45.51976" lon="7.24494">
        <ele>3087.1</ele>
        <time>2021-11-07T08:53:52Z</time>
      </trkpt>
      <trkpt lat="45.51976" lon="7.24495">
        <ele>3087.2</ele>
        <time>2021-11-07T08:53:53Z</time>
      </trkpt>
      <trkpt lat="45.51976" lon="7.24497">
        <ele>3087.5</ele>
        <time>2021-11-07T08:53:59Z</time>
      </trkpt>
      <trkpt lat="45.51976" lon="7.24497">
        <ele>3087.6</ele>
        <time>2021-11-07T08:54:01Z</time>
      </trkpt>
      <trkpt lat="45.51976" lon="7.24498">
        <ele>3087.7</ele>
        <time>2021-11-07T08:54:05Z</time>
      </trkpt>
      <trkpt lat="45.51976" lon="7.24501">
        <ele>3088.1</ele>
        <time>2021-11-07T08:54:11Z</time>
      </trkpt>
      <trkpt lat="45.51976" lon="7.24502">
        <ele>3088.3</ele>
        <time>2021-11-07T08:54:13Z</time>
      </trkpt>
      <trkpt lat="45.51976" lon="7.24502">
        <ele>3088.4</ele>
        <time>2021-11-07T08:54:14Z</time>
      </trkpt>
      <trkpt lat="45.51976" lon="7.24504">
        <ele>3088.7</ele>
        <time>2021-11-07T08:54:17Z</time>
      </trkpt>
      <trkpt lat="45.51976" lon="7.24506">
        <ele>3089</ele>
        <time>2021-11-07T08:54:22Z</time>
      </trkpt>
      <trkpt lat="45.51975" lon="7.24505">
        <ele>3089.2</ele>
        <time>2021-11-07T08:54:30Z</time>
      </trkpt>
      <trkpt lat="45.51975" lon="7.24506">
        <ele>3089.3</ele>
        <time>2021-11-07T08:54:35Z</time>
      </trkpt>
      <trkpt lat="45.51975" lon="7.24508">
        <ele>3089.6</ele>
        <time>2021-11-07T08:54:41Z</time>
      </trkpt>
      <trkpt lat="45.51975" lon="7.24508">
        <ele>3089.6</ele>
        <time>2021-11-07T08:54:42Z</time>
      </trkpt>
      <trkpt lat="45.51975" lon="7.24508">
        <ele>3089.6</ele>
        <time>2021-11-07T08:54:43Z</time>
      </trkpt>
      <trkpt lat="45.51976" lon="7.24511">
        <ele>3090.3</ele>
        <time>2021-11-07T08:54:49Z</time>
      </trkpt>
      <trkpt lat="45.51976" lon="7.24512">
        <ele>3090.4</ele>
        <time>2021-11-07T08:54:50Z</time>
      </trkpt>
      <trkpt lat="45.51976" lon="7.24516">
        <ele>3091.1</ele>
        <time>2021-11-07T08:54:53Z</time>
      </trkpt>
      <trkpt lat="45.51976" lon="7.24519">
        <ele>3091.5</ele>
        <time>2021-11-07T08:54:55Z</time>
      </trkpt>
      <trkpt lat="45.51975" lon="7.2452">
        <ele>3091.7</ele>
        <time>2021-11-07T08:54:56Z</time>
      </trkpt>
      <trkpt lat="45.51976" lon="7.24521">
        <ele>3091.8</ele>
        <time>2021-11-07T08:54:57Z</time>
      </trkpt>
      <trkpt lat="45.51977" lon="7.24526">
        <ele>3092.7</ele>
        <time>2021-11-07T08:55:00Z</time>
      </trkpt>
      <trkpt lat="45.51977" lon="7.24531">
        <ele>3093.5</ele>
        <time>2021-11-07T08:55:03Z</time>
      </trkpt>
      <trkpt lat="45.51976" lon="7.2454">
        <ele>3095</ele>
        <time>2021-11-07T08:55:12Z</time>
      </trkpt>
      <trkpt lat="45.51976" lon="7.24541">
        <ele>3095.2</ele>
        <time>2021-11-07T08:55:13Z</time>
      </trkpt>
      <trkpt lat="45.51975" lon="7.24544">
        <ele>3095.6</ele>
        <time>2021-11-07T08:55:15Z</time>
      </trkpt>
      <trkpt lat="45.51975" lon="7.24545">
        <ele>3095.9</ele>
        <time>2021-11-07T08:55:17Z</time>
      </trkpt>
      <trkpt lat="45.51975" lon="7.24546">
        <ele>3096</ele>
        <time>2021-11-07T08:55:18Z</time>
      </trkpt>
      <trkpt lat="45.51975" lon="7.24549">
        <ele>3096.5</ele>
        <time>2021-11-07T08:55:22Z</time>
      </trkpt>
      <trkpt lat="45.51976" lon="7.24552">
        <ele>3097</ele>
        <time>2021-11-07T08:55:26Z</time>
      </trkpt>
      <trkpt lat="45.51979" lon="7.24555">
        <ele>3097.9</ele>
        <time>2021-11-07T08:55:33Z</time>
      </trkpt>
      <trkpt lat="45.5198" lon="7.24556">
        <ele>3098.1</ele>
        <time>2021-11-07T08:55:34Z</time>
      </trkpt>
      <trkpt lat="45.51982" lon="7.24559">
        <ele>3098.8</ele>
        <time>2021-11-07T08:55:38Z</time>
      </trkpt>
      <trkpt lat="45.51982" lon="7.2456">
        <ele>3099</ele>
        <time>2021-11-07T08:55:39Z</time>
      </trkpt>
      <trkpt lat="45.51983" lon="7.24561">
        <ele>3099.3</ele>
        <time>2021-11-07T08:55:41Z</time>
      </trkpt>
      <trkpt lat="45.51983" lon="7.24564">
        <ele>3099.6</ele>
        <time>2021-11-07T08:55:43Z</time>
      </trkpt>
      <trkpt lat="45.51983" lon="7.24564">
        <ele>3099.7</ele>
        <time>2021-11-07T08:55:44Z</time>
      </trkpt>
      <trkpt lat="45.51985" lon="7.24566">
        <ele>3100.2</ele>
        <time>2021-11-07T08:55:47Z</time>
      </trkpt>
      <trkpt lat="45.51986" lon="7.24567">
        <ele>3100.4</ele>
        <time>2021-11-07T08:55:48Z</time>
      </trkpt>
      <trkpt lat="45.51985" lon="7.24572">
        <ele>3101.1</ele>
        <time>2021-11-07T08:55:53Z</time>
      </trkpt>
      <trkpt lat="45.51984" lon="7.24575">
        <ele>3101.9</ele>
        <time>2021-11-07T08:55:58Z</time>
      </trkpt>
      <trkpt lat="45.51983" lon="7.24576">
        <ele>3102</ele>
        <time>2021-11-07T08:55:59Z</time>
      </trkpt>
      <trkpt lat="45.51983" lon="7.24577">
        <ele>3102.3</ele>
        <time>2021-11-07T08:56:02Z</time>
      </trkpt>
      <trkpt lat="45.51983" lon="7.24578">
        <ele>3102.4</ele>
        <time>2021-11-07T08:56:04Z</time>
      </trkpt>
      <trkpt lat="45.51985" lon="7.24579">
        <ele>3102.7</ele>
        <time>2021-11-07T08:56:06Z</time>
      </trkpt>
      <trkpt lat="45.51986" lon="7.24579">
        <ele>3102.9</ele>
        <time>2021-11-07T08:56:07Z</time>
      </trkpt>
      <trkpt lat="45.51986" lon="7.24586">
        <ele>3103.9</ele>
        <time>2021-11-07T08:56:14Z</time>
      </trkpt>
      <trkpt lat="45.51985" lon="7.24587">
        <ele>3104.1</ele>
        <time>2021-11-07T08:56:15Z</time>
      </trkpt>
      <trkpt lat="45.51986" lon="7.24595">
        <ele>3105.5</ele>
        <time>2021-11-07T08:56:27Z</time>
      </trkpt>
      <trkpt lat="45.51987" lon="7.24596">
        <ele>3105.7</ele>
        <time>2021-11-07T08:56:29Z</time>
      </trkpt>
      <trkpt lat="45.51987" lon="7.246">
        <ele>3106.3</ele>
        <time>2021-11-07T08:56:34Z</time>
      </trkpt>
      <trkpt lat="45.51988" lon="7.24602">
        <ele>3106.6</ele>
        <time>2021-11-07T08:56:37Z</time>
      </trkpt>
      <trkpt lat="45.51986" lon="7.24609">
        <ele>3107.8</ele>
        <time>2021-11-07T08:56:46Z</time>
      </trkpt>
      <trkpt lat="45.51986" lon="7.24614">
        <ele>3108.7</ele>
        <time>2021-11-07T08:56:51Z</time>
      </trkpt>
      <trkpt lat="45.51986" lon="7.24618">
        <ele>3109.2</ele>
        <time>2021-11-07T08:56:54Z</time>
      </trkpt>
      <trkpt lat="45.51986" lon="7.24619">
        <ele>3109.4</ele>
        <time>2021-11-07T08:56:55Z</time>
      </trkpt>
      <trkpt lat="45.51986" lon="7.24621">
        <ele>3109.7</ele>
        <time>2021-11-07T08:56:57Z</time>
      </trkpt>
      <trkpt lat="45.51986" lon="7.24622">
        <ele>3109.9</ele>
        <time>2021-11-07T08:56:58Z</time>
      </trkpt>
      <trkpt lat="45.51986" lon="7.24623">
        <ele>3110</ele>
        <time>2021-11-07T08:56:59Z</time>
      </trkpt>
      <trkpt lat="45.51988" lon="7.24627">
        <ele>3110.8</ele>
        <time>2021-11-07T08:57:08Z</time>
      </trkpt>
      <trkpt lat="45.51987" lon="7.24628">
        <ele>3111</ele>
        <time>2021-11-07T08:57:11Z</time>
      </trkpt>
      <trkpt lat="45.51987" lon="7.24628">
        <ele>3111.1</ele>
        <time>2021-11-07T08:57:16Z</time>
      </trkpt>
      <trkpt lat="45.51987" lon="7.2463">
        <ele>3111.4</ele>
        <time>2021-11-07T08:57:18Z</time>
      </trkpt>
      <trkpt lat="45.51986" lon="7.24631">
        <ele>3111.6</ele>
        <time>2021-11-07T08:57:19Z</time>
      </trkpt>
      <trkpt lat="45.51985" lon="7.24635">
        <ele>3112.3</ele>
        <time>2021-11-07T08:57:24Z</time>
      </trkpt>
      <trkpt lat="45.51985" lon="7.24637">
        <ele>3112.6</ele>
        <time>2021-11-07T08:57:26Z</time>
      </trkpt>
      <trkpt lat="45.51984" lon="7.2464">
        <ele>3113.1</ele>
        <time>2021-11-07T08:57:35Z</time>
      </trkpt>
      <trkpt lat="45.51984" lon="7.24638">
        <ele>3113.3</ele>
        <time>2021-11-07T08:57:43Z</time>
      </trkpt>
      <trkpt lat="45.51984" lon="7.24638">
        <ele>3113.4</ele>
        <time>2021-11-07T08:57:49Z</time>
      </trkpt>
      <trkpt lat="45.51984" lon="7.24638">
        <ele>3113.4</ele>
        <time>2021-11-07T08:57:52Z</time>
      </trkpt>
      <trkpt lat="45.51984" lon="7.24639">
        <ele>3113.6</ele>
        <time>2021-11-07T08:57:56Z</time>
      </trkpt>
      <trkpt lat="45.51983" lon="7.24639">
        <ele>3113.7</ele>
        <time>2021-11-07T08:57:57Z</time>
      </trkpt>
      <trkpt lat="45.51983" lon="7.24639">
        <ele>3113.7</ele>
        <time>2021-11-07T08:57:58Z</time>
      </trkpt>
      <trkpt lat="45.51983" lon="7.24641">
        <ele>3114</ele>
        <time>2021-11-07T08:58:04Z</time>
      </trkpt>
      <trkpt lat="45.51983" lon="7.24642">
        <ele>3114.1</ele>
        <time>2021-11-07T08:58:05Z</time>
      </trkpt>
      <trkpt lat="45.51984" lon="7.24646">
        <ele>3114.8</ele>
        <time>2021-11-07T08:58:10Z</time>
      </trkpt>
      <trkpt lat="45.51985" lon="7.24646">
        <ele>3115.1</ele>
        <time>2021-11-07T08:58:12Z</time>
      </trkpt>
      <trkpt lat="45.51985" lon="7.24649">
        <ele>3115.6</ele>
        <time>2021-11-07T08:58:15Z</time>
      </trkpt>
      <trkpt lat="45.51985" lon="7.2465">
        <ele>3115.8</ele>
        <time>2021-11-07T08:58:16Z</time>
      </trkpt>
      <trkpt lat="45.51986" lon="7.24656">
        <ele>3117.1</ele>
        <time>2021-11-07T08:58:25Z</time>
      </trkpt>
      <trkpt lat="45.51985" lon="7.24663">
        <ele>3118.4</ele>
        <time>2021-11-07T08:58:32Z</time>
      </trkpt>
      <trkpt lat="45.51984" lon="7.24667">
        <ele>3119.5</ele>
        <time>2021-11-07T08:58:37Z</time>
      </trkpt>
      <trkpt lat="45.51984" lon="7.24668">
        <ele>3119.7</ele>
        <time>2021-11-07T08:58:38Z</time>
      </trkpt>
      <trkpt lat="45.51981" lon="7.24678">
        <ele>3121.9</ele>
        <time>2021-11-07T08:58:53Z</time>
      </trkpt>
      <trkpt lat="45.51979" lon="7.24678">
        <ele>3122.5</ele>
        <time>2021-11-07T08:59:00Z</time>
      </trkpt>
      <trkpt lat="45.51979" lon="7.24678">
        <ele>3122.7</ele>
        <time>2021-11-07T08:59:05Z</time>
      </trkpt>
      <trkpt lat="45.51975" lon="7.24682">
        <ele>3124.1</ele>
        <time>2021-11-07T08:59:15Z</time>
      </trkpt>
      <trkpt lat="45.51975" lon="7.24683">
        <ele>3124.4</ele>
        <time>2021-11-07T08:59:17Z</time>
      </trkpt>
      <trkpt lat="45.51973" lon="7.24686">
        <ele>3125.1</ele>
        <time>2021-11-07T08:59:23Z</time>
      </trkpt>
      <trkpt lat="45.51973" lon="7.24687">
        <ele>3125.5</ele>
        <time>2021-11-07T08:59:25Z</time>
      </trkpt>
      <trkpt lat="45.51972" lon="7.2469">
        <ele>3126</ele>
        <time>2021-11-07T08:59:28Z</time>
      </trkpt>
      <trkpt lat="45.51972" lon="7.24692">
        <ele>3126.6</ele>
        <time>2021-11-07T08:59:31Z</time>
      </trkpt>
      <trkpt lat="45.51968" lon="7.24697">
        <ele>3128.1</ele>
        <time>2021-11-07T08:59:40Z</time>
      </trkpt>
      <trkpt lat="45.51964" lon="7.24701">
        <ele>3129.6</ele>
        <time>2021-11-07T08:59:51Z</time>
      </trkpt>
      <trkpt lat="45.51963" lon="7.24701">
        <ele>3130</ele>
        <time>2021-11-07T08:59:53Z</time>
      </trkpt>
      <trkpt lat="45.5196" lon="7.24702">
        <ele>3131</ele>
        <time>2021-11-07T08:59:58Z</time>
      </trkpt>
      <trkpt lat="45.51958" lon="7.24702">
        <ele>3131.6</ele>
        <time>2021-11-07T09:00:02Z</time>
      </trkpt>
      <trkpt lat="45.51957" lon="7.24705">
        <ele>3132</ele>
        <time>2021-11-07T09:00:07Z</time>
      </trkpt>
      <trkpt lat="45.51957" lon="7.24707">
        <ele>3132.5</ele>
        <time>2021-11-07T09:00:11Z</time>
      </trkpt>
      <trkpt lat="45.51956" lon="7.24709">
        <ele>3133.2</ele>
        <time>2021-11-07T09:00:19Z</time>
      </trkpt>
      <trkpt lat="45.51956" lon="7.2471">
        <ele>3133.3</ele>
        <time>2021-11-07T09:00:20Z</time>
      </trkpt>
      <trkpt lat="45.51955" lon="7.24711">
        <ele>3133.7</ele>
        <time>2021-11-07T09:00:23Z</time>
      </trkpt>
      <trkpt lat="45.51952" lon="7.24715">
        <ele>3134.9</ele>
        <time>2021-11-07T09:00:29Z</time>
      </trkpt>
      <trkpt lat="45.51952" lon="7.24717">
        <ele>3135.4</ele>
        <time>2021-11-07T09:00:33Z</time>
      </trkpt>
      <trkpt lat="45.51954" lon="7.24722">
        <ele>3136.6</ele>
        <time>2021-11-07T09:00:46Z</time>
      </trkpt>
      <trkpt lat="45.51954" lon="7.24721">
        <ele>3136.7</ele>
        <time>2021-11-07T09:00:47Z</time>
      </trkpt>
      <trkpt lat="45.51954" lon="7.24725">
        <ele>3137.5</ele>
        <time>2021-11-07T09:00:56Z</time>
      </trkpt>
      <trkpt lat="45.51954" lon="7.24725">
        <ele>3137.5</ele>
        <time>2021-11-07T09:00:57Z</time>
      </trkpt>
      <trkpt lat="45.51951" lon="7.24724">
        <ele>3138.7</ele>
        <time>2021-11-07T09:01:04Z</time>
      </trkpt>
      <trkpt lat="45.51949" lon="7.24723">
        <ele>3139.1</ele>
        <time>2021-11-07T09:01:06Z</time>
      </trkpt>
      <trkpt lat="45.51949" lon="7.24723">
        <ele>3139.4</ele>
        <time>2021-11-07T09:01:09Z</time>
      </trkpt>
      <trkpt lat="45.51948" lon="7.24723">
        <ele>3139.6</ele>
        <time>2021-11-07T09:01:11Z</time>
      </trkpt>
      <trkpt lat="45.51949" lon="7.24724">
        <ele>3139.8</ele>
        <time>2021-11-07T09:01:12Z</time>
      </trkpt>
      <trkpt lat="45.51949" lon="7.24724">
        <ele>3139.9</ele>
        <time>2021-11-07T09:01:18Z</time>
      </trkpt>
      <trkpt lat="45.51949" lon="7.24724">
        <ele>3140</ele>
        <time>2021-11-07T09:01:22Z</time>
      </trkpt>
      <trkpt lat="45.51948" lon="7.24724">
        <ele>3140.1</ele>
        <time>2021-11-07T09:01:23Z</time>
      </trkpt>
      <trkpt lat="45.51948" lon="7.24726">
        <ele>3140.6</ele>
        <time>2021-11-07T09:01:29Z</time>
      </trkpt>
      <trkpt lat="45.51947" lon="7.24726">
        <ele>3140.7</ele>
        <time>2021-11-07T09:01:31Z</time>
      </trkpt>
      <trkpt lat="45.51946" lon="7.24728">
        <ele>3141.5</ele>
        <time>2021-11-07T09:01:36Z</time>
      </trkpt>
      <trkpt lat="45.51945" lon="7.24729">
        <ele>3141.9</ele>
        <time>2021-11-07T09:01:38Z</time>
      </trkpt>
      <trkpt lat="45.51944" lon="7.24732">
        <ele>3142.5</ele>
        <time>2021-11-07T09:01:41Z</time>
      </trkpt>
      <trkpt lat="45.51944" lon="7.24733">
        <ele>3143</ele>
        <time>2021-11-07T09:01:44Z</time>
      </trkpt>
      <trkpt lat="45.51941" lon="7.24733">
        <ele>3144.2</ele>
        <time>2021-11-07T09:01:51Z</time>
      </trkpt>
      <trkpt lat="45.51939" lon="7.24733">
        <ele>3144.8</ele>
        <time>2021-11-07T09:01:56Z</time>
      </trkpt>
      <trkpt lat="45.51937" lon="7.24734">
        <ele>3145.6</ele>
        <time>2021-11-07T09:02:09Z</time>
      </trkpt>
      <trkpt lat="45.51934" lon="7.24737">
        <ele>3147.1</ele>
        <time>2021-11-07T09:02:19Z</time>
      </trkpt>
      <trkpt lat="45.51934" lon="7.24737">
        <ele>3147.3</ele>
        <time>2021-11-07T09:02:20Z</time>
      </trkpt>
      <trkpt lat="45.51933" lon="7.24737">
        <ele>3147.6</ele>
        <time>2021-11-07T09:02:21Z</time>
      </trkpt>
      <trkpt lat="45.51933" lon="7.24737">
        <ele>3147.8</ele>
        <time>2021-11-07T09:02:24Z</time>
      </trkpt>
      <trkpt lat="45.51932" lon="7.24737">
        <ele>3148</ele>
        <time>2021-11-07T09:02:28Z</time>
      </trkpt>
      <trkpt lat="45.51932" lon="7.24737">
        <ele>3148.1</ele>
        <time>2021-11-07T09:02:30Z</time>
      </trkpt>
      <trkpt lat="45.51931" lon="7.24738">
        <ele>3148.4</ele>
        <time>2021-11-07T09:02:33Z</time>
      </trkpt>
      <trkpt lat="45.51931" lon="7.24739">
        <ele>3149</ele>
        <time>2021-11-07T09:02:35Z</time>
      </trkpt>
      <trkpt lat="45.51929" lon="7.24742">
        <ele>3149.8</ele>
        <time>2021-11-07T09:02:44Z</time>
      </trkpt>
      <trkpt lat="45.51928" lon="7.24743">
        <ele>3149.9</ele>
        <time>2021-11-07T09:02:45Z</time>
      </trkpt>
      <trkpt lat="45.51927" lon="7.24745">
        <ele>3150.4</ele>
        <time>2021-11-07T09:02:50Z</time>
      </trkpt>
      <trkpt lat="45.51925" lon="7.24748">
        <ele>3151.1</ele>
        <time>2021-11-07T09:02:57Z</time>
      </trkpt>
      <trkpt lat="45.51925" lon="7.24749">
        <ele>3151.2</ele>
        <time>2021-11-07T09:02:58Z</time>
      </trkpt>
      <trkpt lat="45.5192" lon="7.24755">
        <ele>3152.6</ele>
        <time>2021-11-07T09:03:12Z</time>
      </trkpt>
      <trkpt lat="45.51919" lon="7.24757">
        <ele>3153</ele>
        <time>2021-11-07T09:03:21Z</time>
      </trkpt>
      <trkpt lat="45.51919" lon="7.24758">
        <ele>3153</ele>
        <time>2021-11-07T09:03:22Z</time>
      </trkpt>
      <trkpt lat="45.51918" lon="7.24759">
        <ele>3153.4</ele>
        <time>2021-11-07T09:03:24Z</time>
      </trkpt>
      <trkpt lat="45.51916" lon="7.2476">
        <ele>3153.9</ele>
        <time>2021-11-07T09:03:27Z</time>
      </trkpt>
      <trkpt lat="45.51915" lon="7.2476">
        <ele>3154.2</ele>
        <time>2021-11-07T09:03:29Z</time>
      </trkpt>
      <trkpt lat="45.51914" lon="7.24761">
        <ele>3154.3</ele>
        <time>2021-11-07T09:03:30Z</time>
      </trkpt>
      <trkpt lat="45.51913" lon="7.2476">
        <ele>3154.5</ele>
        <time>2021-11-07T09:03:31Z</time>
      </trkpt>
      <trkpt lat="45.51913" lon="7.2476">
        <ele>3154.6</ele>
        <time>2021-11-07T09:03:32Z</time>
      </trkpt>
      <trkpt lat="45.51912" lon="7.24759">
        <ele>3154.7</ele>
        <time>2021-11-07T09:03:34Z</time>
      </trkpt>
      <trkpt lat="45.51909" lon="7.24759">
        <ele>3155.5</ele>
        <time>2021-11-07T09:03:40Z</time>
      </trkpt>
      <trkpt lat="45.51908" lon="7.24758">
        <ele>3155.8</ele>
        <time>2021-11-07T09:03:42Z</time>
      </trkpt>
      <trkpt lat="45.51907" lon="7.24756">
        <ele>3156.1</ele>
        <time>2021-11-07T09:03:45Z</time>
      </trkpt>
      <trkpt lat="45.51907" lon="7.24754">
        <ele>3156.4</ele>
        <time>2021-11-07T09:03:55Z</time>
      </trkpt>
      <trkpt lat="45.51906" lon="7.24754">
        <ele>3156.5</ele>
        <time>2021-11-07T09:03:57Z</time>
      </trkpt>
      <trkpt lat="45.51906" lon="7.24754">
        <ele>3156.5</ele>
        <time>2021-11-07T09:03:59Z</time>
      </trkpt>
      <trkpt lat="45.51906" lon="7.24754">
        <ele>3156.5</ele>
        <time>2021-11-07T09:04:00Z</time>
      </trkpt>
      <trkpt lat="45.51906" lon="7.24754">
        <ele>3156.5</ele>
        <time>2021-11-07T09:04:03Z</time>
      </trkpt>
      <trkpt lat="45.51906" lon="7.24754">
        <ele>3156.6</ele>
        <time>2021-11-07T09:04:08Z</time>
      </trkpt>
      <trkpt lat="45.51906" lon="7.24753">
        <ele>3156.7</ele>
        <time>2021-11-07T09:04:17Z</time>
      </trkpt>
      <trkpt lat="45.51906" lon="7.24753">
        <ele>3156.8</ele>
        <time>2021-11-07T09:04:18Z</time>
      </trkpt>
      <trkpt lat="45.51907" lon="7.24753">
        <ele>3156.8</ele>
        <time>2021-11-07T09:04:23Z</time>
      </trkpt>
      <trkpt lat="45.51907" lon="7.24753">
        <ele>3156.9</ele>
        <time>2021-11-07T09:04:25Z</time>
      </trkpt>
      <trkpt lat="45.51907" lon="7.24753">
        <ele>3157</ele>
        <time>2021-11-07T09:04:32Z</time>
      </trkpt>
      <trkpt lat="45.51907" lon="7.24752">
        <ele>3157.1</ele>
        <time>2021-11-07T09:04:36Z</time>
      </trkpt>
      <trkpt lat="45.51907" lon="7.24752">
        <ele>3157.2</ele>
        <time>2021-11-07T09:04:37Z</time>
      </trkpt>
      <trkpt lat="45.51907" lon="7.24752">
        <ele>3157.2</ele>
        <time>2021-11-07T09:04:38Z</time>
      </trkpt>
      <trkpt lat="45.51898" lon="7.24777">
        <ele>3161.5</ele>
        <time>2021-11-07T09:24:56Z</time>
      </trkpt>
      <trkpt lat="45.51898" lon="7.24777">
        <ele>3161.5</ele>
        <time>2021-11-07T09:24:57Z</time>
      </trkpt>
      <trkpt lat="45.51898" lon="7.24777">
        <ele>3161.6</ele>
        <time>2021-11-07T09:24:58Z</time>
      </trkpt>
      <trkpt lat="45.51898" lon="7.24778">
        <ele>3161.7</ele>
        <time>2021-11-07T09:25:01Z</time>
      </trkpt>
      <trkpt lat="45.51897" lon="7.24776">
        <ele>3162</ele>
        <time>2021-11-07T09:25:04Z</time>
      </trkpt>
      <trkpt lat="45.51897" lon="7.24777">
        <ele>3162.2</ele>
        <time>2021-11-07T09:25:05Z</time>
      </trkpt>
      <trkpt lat="45.51895" lon="7.24777">
        <ele>3162.6</ele>
        <time>2021-11-07T09:25:10Z</time>
      </trkpt>
      <trkpt lat="45.5189" lon="7.2478">
        <ele>3163.9</ele>
        <time>2021-11-07T09:25:18Z</time>
      </trkpt>
      <trkpt lat="45.51889" lon="7.24782">
        <ele>3164.2</ele>
        <time>2021-11-07T09:25:23Z</time>
      </trkpt>
      <trkpt lat="45.51889" lon="7.24782">
        <ele>3164.3</ele>
        <time>2021-11-07T09:25:25Z</time>
      </trkpt>
      <trkpt lat="45.51888" lon="7.24782">
        <ele>3164.4</ele>
        <time>2021-11-07T09:25:26Z</time>
      </trkpt>
      <trkpt lat="45.51888" lon="7.24782">
        <ele>3164.5</ele>
        <time>2021-11-07T09:25:30Z</time>
      </trkpt>
      <trkpt lat="45.51888" lon="7.24782">
        <ele>3164.7</ele>
        <time>2021-11-07T09:25:35Z</time>
      </trkpt>
      <trkpt lat="45.51888" lon="7.24783">
        <ele>3164.8</ele>
        <time>2021-11-07T09:25:37Z</time>
      </trkpt>
      <trkpt lat="45.51887" lon="7.24783">
        <ele>3165.1</ele>
        <time>2021-11-07T09:25:43Z</time>
      </trkpt>
      <trkpt lat="45.51886" lon="7.24782">
        <ele>3165.3</ele>
        <time>2021-11-07T09:25:47Z</time>
      </trkpt>
      <trkpt lat="45.51885" lon="7.24782">
        <ele>3165.4</ele>
        <time>2021-11-07T09:25:48Z</time>
      </trkpt>
      <trkpt lat="45.51884" lon="7.24783">
        <ele>3165.7</ele>
        <time>2021-11-07T09:25:50Z</time>
      </trkpt>
      <trkpt lat="45.51884" lon="7.24785">
        <ele>3166</ele>
        <time>2021-11-07T09:25:52Z</time>
      </trkpt>
      <trkpt lat="45.51884" lon="7.24786">
        <ele>3166.2</ele>
        <time>2021-11-07T09:25:59Z</time>
      </trkpt>
      <trkpt lat="45.51884" lon="7.24786">
        <ele>3166.2</ele>
        <time>2021-11-07T09:26:00Z</time>
      </trkpt>
      <trkpt lat="45.51882" lon="7.24786">
        <ele>3166.8</ele>
        <time>2021-11-07T09:26:08Z</time>
      </trkpt>
      <trkpt lat="45.51882" lon="7.24787">
        <ele>3166.8</ele>
        <time>2021-11-07T09:26:12Z</time>
      </trkpt>
      <trkpt lat="45.51882" lon="7.24787">
        <ele>3167</ele>
        <time>2021-11-07T09:26:14Z</time>
      </trkpt>
      <trkpt lat="45.51881" lon="7.24788">
        <ele>3167.2</ele>
        <time>2021-11-07T09:26:17Z</time>
      </trkpt>
      <trkpt lat="45.51878" lon="7.2479">
        <ele>3168</ele>
        <time>2021-11-07T09:26:26Z</time>
      </trkpt>
      <trkpt lat="45.5188" lon="7.24791">
        <ele>3168.3</ele>
        <time>2021-11-07T09:26:37Z</time>
      </trkpt>
      <trkpt lat="45.51882" lon="7.24787">
        <ele>3169.1</ele>
        <time>2021-11-07T09:26:48Z</time>
      </trkpt>
      <trkpt lat="45.51881" lon="7.24787">
        <ele>3169.2</ele>
        <time>2021-11-07T09:26:50Z</time>
      </trkpt>
      <trkpt lat="45.5188" lon="7.24789">
        <ele>3169.7</ele>
        <time>2021-11-07T09:27:01Z</time>
      </trkpt>
      <trkpt lat="45.51879" lon="7.2479">
        <ele>3170</ele>
        <time>2021-11-07T09:27:14Z</time>
      </trkpt>
      <trkpt lat="45.51879" lon="7.2479">
        <ele>3170</ele>
        <time>2021-11-07T09:27:15Z</time>
      </trkpt>
      <trkpt lat="45.51876" lon="7.24792">
        <ele>3170.7</ele>
        <time>2021-11-07T09:27:24Z</time>
      </trkpt>
      <trkpt lat="45.51874" lon="7.24793">
        <ele>3171.1</ele>
        <time>2021-11-07T09:27:33Z</time>
      </trkpt>
      <trkpt lat="45.51874" lon="7.24792">
        <ele>3171.2</ele>
        <time>2021-11-07T09:27:34Z</time>
      </trkpt>
      <trkpt lat="45.51873" lon="7.24791">
        <ele>3171.4</ele>
        <time>2021-11-07T09:27:38Z</time>
      </trkpt>
      <trkpt lat="45.51872" lon="7.24791">
        <ele>3171.8</ele>
        <time>2021-11-07T09:27:42Z</time>
      </trkpt>
      <trkpt lat="45.51872" lon="7.24791">
        <ele>3171.9</ele>
        <time>2021-11-07T09:27:45Z</time>
      </trkpt>
      <trkpt lat="45.5187" lon="7.24792">
        <ele>3172.3</ele>
        <time>2021-11-07T09:27:51Z</time>
      </trkpt>
      <trkpt lat="45.51869" lon="7.24793">
        <ele>3172.6</ele>
        <time>2021-11-07T09:27:53Z</time>
      </trkpt>
      <trkpt lat="45.51868" lon="7.24793">
        <ele>3172.8</ele>
        <time>2021-11-07T09:27:57Z</time>
      </trkpt>
      <trkpt lat="45.51868" lon="7.24793">
        <ele>3172.9</ele>
        <time>2021-11-07T09:27:58Z</time>
      </trkpt>
      <trkpt lat="45.51867" lon="7.24793">
        <ele>3173</ele>
        <time>2021-11-07T09:27:59Z</time>
      </trkpt>
      <trkpt lat="45.51867" lon="7.24794">
        <ele>3173.1</ele>
        <time>2021-11-07T09:28:00Z</time>
      </trkpt>
      <trkpt lat="45.51867" lon="7.24794">
        <ele>3173.2</ele>
        <time>2021-11-07T09:28:03Z</time>
      </trkpt>
      <trkpt lat="45.51867" lon="7.24794">
        <ele>3173.2</ele>
        <time>2021-11-07T09:28:04Z</time>
      </trkpt>
      <trkpt lat="45.51867" lon="7.24795">
        <ele>3173.3</ele>
        <time>2021-11-07T09:28:06Z</time>
      </trkpt>
      <trkpt lat="45.51863" lon="7.24797">
        <ele>3174.4</ele>
        <time>2021-11-07T09:28:18Z</time>
      </trkpt>
      <trkpt lat="45.51863" lon="7.24797">
        <ele>3174.4</ele>
        <time>2021-11-07T09:28:20Z</time>
      </trkpt>
      <trkpt lat="45.51863" lon="7.24798">
        <ele>3174.6</ele>
        <time>2021-11-07T09:28:22Z</time>
      </trkpt>
      <trkpt lat="45.51862" lon="7.24799">
        <ele>3174.8</ele>
        <time>2021-11-07T09:28:27Z</time>
      </trkpt>
      <trkpt lat="45.51862" lon="7.248">
        <ele>3174.9</ele>
        <time>2021-11-07T09:28:30Z</time>
      </trkpt>
      <trkpt lat="45.51862" lon="7.248">
        <ele>3175</ele>
        <time>2021-11-07T09:28:32Z</time>
      </trkpt>
      <trkpt lat="45.5186" lon="7.24802">
        <ele>3175.5</ele>
        <time>2021-11-07T09:28:41Z</time>
      </trkpt>
      <trkpt lat="45.5186" lon="7.24801">
        <ele>3175.7</ele>
        <time>2021-11-07T09:28:45Z</time>
      </trkpt>
      <trkpt lat="45.51859" lon="7.248">
        <ele>3175.9</ele>
        <time>2021-11-07T09:28:48Z</time>
      </trkpt>
      <trkpt lat="45.51859" lon="7.248">
        <ele>3175.9</ele>
        <time>2021-11-07T09:28:49Z</time>
      </trkpt>
      <trkpt lat="45.51859" lon="7.248">
        <ele>3176</ele>
        <time>2021-11-07T09:28:50Z</time>
      </trkpt>
      <trkpt lat="45.51859" lon="7.24799">
        <ele>3176.2</ele>
        <time>2021-11-07T09:28:55Z</time>
      </trkpt>
      <trkpt lat="45.51858" lon="7.24797">
        <ele>3176.5</ele>
        <time>2021-11-07T09:28:59Z</time>
      </trkpt>
      <trkpt lat="45.51858" lon="7.24796">
        <ele>3176.7</ele>
        <time>2021-11-07T09:29:00Z</time>
      </trkpt>
      <trkpt lat="45.51858" lon="7.24796">
        <ele>3176.7</ele>
        <time>2021-11-07T09:29:01Z</time>
      </trkpt>
      <trkpt lat="45.51858" lon="7.24796">
        <ele>3176.8</ele>
        <time>2021-11-07T09:29:02Z</time>
      </trkpt>
      <trkpt lat="45.51858" lon="7.24795">
        <ele>3176.8</ele>
        <time>2021-11-07T09:29:03Z</time>
      </trkpt>
      <trkpt lat="45.51856" lon="7.24794">
        <ele>3177.3</ele>
        <time>2021-11-07T09:29:10Z</time>
      </trkpt>
      <trkpt lat="45.51855" lon="7.24793">
        <ele>3177.7</ele>
        <time>2021-11-07T09:29:14Z</time>
      </trkpt>
      <trkpt lat="45.51852" lon="7.24793">
        <ele>3178.2</ele>
        <time>2021-11-07T09:29:20Z</time>
      </trkpt>
      <trkpt lat="45.51852" lon="7.24793">
        <ele>3178.4</ele>
        <time>2021-11-07T09:29:21Z</time>
      </trkpt>
      <trkpt lat="45.51851" lon="7.24793">
        <ele>3178.6</ele>
        <time>2021-11-07T09:29:24Z</time>
      </trkpt>
      <trkpt lat="45.51848" lon="7.24793">
        <ele>3179.3</ele>
        <time>2021-11-07T09:29:32Z</time>
      </trkpt>
      <trkpt lat="45.51847" lon="7.24788">
        <ele>3180.2</ele>
        <time>2021-11-07T09:29:47Z</time>
      </trkpt>
      <trkpt lat="45.51846" lon="7.24786">
        <ele>3180.6</ele>
        <time>2021-11-07T09:29:54Z</time>
      </trkpt>
      <trkpt lat="45.51846" lon="7.24786">
        <ele>3180.8</ele>
        <time>2021-11-07T09:29:58Z</time>
      </trkpt>
      <trkpt lat="45.51843" lon="7.24791">
        <ele>3181.8</ele>
        <time>2021-11-07T09:30:03Z</time>
      </trkpt>
      <trkpt lat="45.51841" lon="7.24795">
        <ele>3183.1</ele>
        <time>2021-11-07T09:30:14Z</time>
      </trkpt>
      <trkpt lat="45.5184" lon="7.24795">
        <ele>3184.3</ele>
        <time>2021-11-07T09:30:18Z</time>
      </trkpt>
      <trkpt lat="45.5184" lon="7.24796">
        <ele>3184.2</ele>
        <time>2021-11-07T09:30:20Z</time>
      </trkpt>
      <trkpt lat="45.51839" lon="7.24796">
        <ele>3184.2</ele>
        <time>2021-11-07T09:30:21Z</time>
      </trkpt>
      <trkpt lat="45.51837" lon="7.24798">
        <ele>3186.8</ele>
        <time>2021-11-07T09:30:34Z</time>
      </trkpt>
      <trkpt lat="45.51836" lon="7.24799">
        <ele>3186.7</ele>
        <time>2021-11-07T09:30:40Z</time>
      </trkpt>
      <trkpt lat="45.51836" lon="7.24799">
        <ele>3186.6</ele>
        <time>2021-11-07T09:30:43Z</time>
      </trkpt>
      <trkpt lat="45.51836" lon="7.248">
        <ele>3186.6</ele>
        <time>2021-11-07T09:30:48Z</time>
      </trkpt>
      <trkpt lat="45.51836" lon="7.248">
        <ele>3186.5</ele>
        <time>2021-11-07T09:30:49Z</time>
      </trkpt>
      <trkpt lat="45.51836" lon="7.248">
        <ele>3186.4</ele>
        <time>2021-11-07T09:30:50Z</time>
      </trkpt>
      <trkpt lat="45.51836" lon="7.24798">
        <ele>3186.4</ele>
        <time>2021-11-07T09:30:53Z</time>
      </trkpt>
      <trkpt lat="45.51835" lon="7.24798">
        <ele>3186.3</ele>
        <time>2021-11-07T09:30:59Z</time>
      </trkpt>
      <trkpt lat="45.51834" lon="7.248">
        <ele>3187.5</ele>
        <time>2021-11-07T09:31:03Z</time>
      </trkpt>
      <trkpt lat="45.51833" lon="7.248">
        <ele>3187.4</ele>
        <time>2021-11-07T09:31:07Z</time>
      </trkpt>
      <trkpt lat="45.51833" lon="7.248">
        <ele>3187.4</ele>
        <time>2021-11-07T09:31:08Z</time>
      </trkpt>
      <trkpt lat="45.51832" lon="7.248">
        <ele>3187.3</ele>
        <time>2021-11-07T09:31:10Z</time>
      </trkpt>
      <trkpt lat="45.51832" lon="7.24801">
        <ele>3188.4</ele>
        <time>2021-11-07T09:31:12Z</time>
      </trkpt>
      <trkpt lat="45.5183" lon="7.24801">
        <ele>3188.4</ele>
        <time>2021-11-07T09:31:14Z</time>
      </trkpt>
      <trkpt lat="45.51829" lon="7.248">
        <ele>3188.3</ele>
        <time>2021-11-07T09:31:16Z</time>
      </trkpt>
      <trkpt lat="45.51828" lon="7.248">
        <ele>3189.3</ele>
        <time>2021-11-07T09:31:17Z</time>
      </trkpt>
      <trkpt lat="45.51827" lon="7.24801">
        <ele>3189.3</ele>
        <time>2021-11-07T09:31:20Z</time>
      </trkpt>
      <trkpt lat="45.51828" lon="7.24802">
        <ele>3190.3</ele>
        <time>2021-11-07T09:31:21Z</time>
      </trkpt>
      <trkpt lat="45.51827" lon="7.24802">
        <ele>3190.2</ele>
        <time>2021-11-07T09:31:23Z</time>
      </trkpt>
      <trkpt lat="45.51826" lon="7.24803">
        <ele>3190.2</ele>
        <time>2021-11-07T09:31:25Z</time>
      </trkpt>
      <trkpt lat="45.51826" lon="7.24803">
        <ele>3190.1</ele>
        <time>2021-11-07T09:31:27Z</time>
      </trkpt>
      <trkpt lat="45.51826" lon="7.24803">
        <ele>3190</ele>
        <time>2021-11-07T09:31:28Z</time>
      </trkpt>
      <trkpt lat="45.51826" lon="7.24803">
        <ele>3189.8</ele>
        <time>2021-11-07T09:31:29Z</time>
      </trkpt>
      <trkpt lat="45.51826" lon="7.24802">
        <ele>3189.8</ele>
        <time>2021-11-07T09:31:31Z</time>
      </trkpt>
      <trkpt lat="45.51826" lon="7.24802">
        <ele>3189.7</ele>
        <time>2021-11-07T09:31:33Z</time>
      </trkpt>
      <trkpt lat="45.51826" lon="7.24802">
        <ele>3189.6</ele>
        <time>2021-11-07T09:31:36Z</time>
      </trkpt>
      <trkpt lat="45.51825" lon="7.24801">
        <ele>3189.5</ele>
        <time>2021-11-07T09:31:38Z</time>
      </trkpt>
      <trkpt lat="45.51825" lon="7.24802">
        <ele>3190.4</ele>
        <time>2021-11-07T09:31:40Z</time>
      </trkpt>
      <trkpt lat="45.51825" lon="7.24803">
        <ele>3190.4</ele>
        <time>2021-11-07T09:31:41Z</time>
      </trkpt>
      <trkpt lat="45.51825" lon="7.24805">
        <ele>3190.4</ele>
        <time>2021-11-07T09:31:43Z</time>
      </trkpt>
      <trkpt lat="45.51824" lon="7.24806">
        <ele>3191.2</ele>
        <time>2021-11-07T09:31:44Z</time>
      </trkpt>
      <trkpt lat="45.51824" lon="7.24806">
        <ele>3191.1</ele>
        <time>2021-11-07T09:31:45Z</time>
      </trkpt>
      <trkpt lat="45.51824" lon="7.24806">
        <ele>3191</ele>
        <time>2021-11-07T09:31:46Z</time>
      </trkpt>
      <trkpt lat="45.51824" lon="7.24806">
        <ele>3190.9</ele>
        <time>2021-11-07T09:31:47Z</time>
      </trkpt>
      <trkpt lat="45.51823" lon="7.24806">
        <ele>3190</ele>
        <time>2021-11-07T09:31:48Z</time>
      </trkpt>
      <trkpt lat="45.51823" lon="7.24806">
        <ele>3189.9</ele>
        <time>2021-11-07T09:31:49Z</time>
      </trkpt>
      <trkpt lat="45.51823" lon="7.24806">
        <ele>3190.7</ele>
        <time>2021-11-07T09:31:50Z</time>
      </trkpt>
      <trkpt lat="45.51822" lon="7.24806">
        <ele>3191.3</ele>
        <time>2021-11-07T09:31:51Z</time>
      </trkpt>
      <trkpt lat="45.5182" lon="7.24807">
        <ele>3191.4</ele>
        <time>2021-11-07T09:31:56Z</time>
      </trkpt>
      <trkpt lat="45.5182" lon="7.24807">
        <ele>3191.3</ele>
        <time>2021-11-07T09:32:00Z</time>
      </trkpt>
      <trkpt lat="45.5182" lon="7.24807">
        <ele>3191.2</ele>
        <time>2021-11-07T09:32:02Z</time>
      </trkpt>
      <trkpt lat="45.51821" lon="7.24805">
        <ele>3190.5</ele>
        <time>2021-11-07T09:32:06Z</time>
      </trkpt>
      <trkpt lat="45.5182" lon="7.24803">
        <ele>3190.6</ele>
        <time>2021-11-07T09:32:15Z</time>
      </trkpt>
      <trkpt lat="45.5182" lon="7.24803">
        <ele>3190.6</ele>
        <time>2021-11-07T09:32:18Z</time>
      </trkpt>
      <trkpt lat="45.51819" lon="7.24804">
        <ele>3191.2</ele>
        <time>2021-11-07T09:32:19Z</time>
      </trkpt>
      <trkpt lat="45.51818" lon="7.24806">
        <ele>3192</ele>
        <time>2021-11-07T09:32:24Z</time>
      </trkpt>
      <trkpt lat="45.51818" lon="7.24807">
        <ele>3191.9</ele>
        <time>2021-11-07T09:32:27Z</time>
      </trkpt>
      <trkpt lat="45.51818" lon="7.24807">
        <ele>3191.8</ele>
        <time>2021-11-07T09:32:28Z</time>
      </trkpt>
      <trkpt lat="45.51818" lon="7.24808">
        <ele>3191.8</ele>
        <time>2021-11-07T09:32:31Z</time>
      </trkpt>
      <trkpt lat="45.51818" lon="7.24809">
        <ele>3191.7</ele>
        <time>2021-11-07T09:32:34Z</time>
      </trkpt>
      <trkpt lat="45.51816" lon="7.24809">
        <ele>3192.3</ele>
        <time>2021-11-07T09:32:40Z</time>
      </trkpt>
      <trkpt lat="45.51816" lon="7.24808">
        <ele>3192.3</ele>
        <time>2021-11-07T09:32:45Z</time>
      </trkpt>
      <trkpt lat="45.51815" lon="7.24809">
        <ele>3192.5</ele>
        <time>2021-11-07T09:32:52Z</time>
      </trkpt>
      <trkpt lat="45.51815" lon="7.24809">
        <ele>3192.4</ele>
        <time>2021-11-07T09:32:54Z</time>
      </trkpt>
      <trkpt lat="45.51814" lon="7.24811">
        <ele>3193</ele>
        <time>2021-11-07T09:32:59Z</time>
      </trkpt>
      <trkpt lat="45.51812" lon="7.24812">
        <ele>3193.6</ele>
        <time>2021-11-07T09:33:04Z</time>
      </trkpt>
      <trkpt lat="45.51812" lon="7.24812">
        <ele>3193.5</ele>
        <time>2021-11-07T09:33:09Z</time>
      </trkpt>
      <trkpt lat="45.51811" lon="7.24812">
        <ele>3193.5</ele>
        <time>2021-11-07T09:33:16Z</time>
      </trkpt>
      <trkpt lat="45.51811" lon="7.24812">
        <ele>3193.4</ele>
        <time>2021-11-07T09:33:18Z</time>
      </trkpt>
      <trkpt lat="45.51809" lon="7.24813">
        <ele>3194.1</ele>
        <time>2021-11-07T09:33:29Z</time>
      </trkpt>
      <trkpt lat="45.51809" lon="7.24815">
        <ele>3194.5</ele>
        <time>2021-11-07T09:33:39Z</time>
      </trkpt>
      <trkpt lat="45.51808" lon="7.24815">
        <ele>3194.4</ele>
        <time>2021-11-07T09:33:41Z</time>
      </trkpt>
      <trkpt lat="45.51807" lon="7.24816">
        <ele>3195</ele>
        <time>2021-11-07T09:33:49Z</time>
      </trkpt>
      <trkpt lat="45.51805" lon="7.24817">
        <ele>3195</ele>
        <time>2021-11-07T09:33:53Z</time>
      </trkpt>
      <trkpt lat="45.51804" lon="7.24818">
        <ele>3195.6</ele>
        <time>2021-11-07T09:34:07Z</time>
      </trkpt>
      <trkpt lat="45.51803" lon="7.24818">
        <ele>3195.6</ele>
        <time>2021-11-07T09:34:13Z</time>
      </trkpt>
      <trkpt lat="45.51802" lon="7.24818">
        <ele>3195.5</ele>
        <time>2021-11-07T09:34:16Z</time>
      </trkpt>
      <trkpt lat="45.51802" lon="7.24818">
        <ele>3195.5</ele>
        <time>2021-11-07T09:34:18Z</time>
      </trkpt>
      <trkpt lat="45.51801" lon="7.24819">
        <ele>3196</ele>
        <time>2021-11-07T09:34:29Z</time>
      </trkpt>
      <trkpt lat="45.51799" lon="7.2482">
        <ele>3196.8</ele>
        <time>2021-11-07T09:34:40Z</time>
      </trkpt>
      <trkpt lat="45.51798" lon="7.24819">
        <ele>3196.6</ele>
        <time>2021-11-07T09:34:43Z</time>
      </trkpt>
      <trkpt lat="45.51797" lon="7.24821">
        <ele>3196.9</ele>
        <time>2021-11-07T09:34:51Z</time>
      </trkpt>
      <trkpt lat="45.51797" lon="7.24821">
        <ele>3196.8</ele>
        <time>2021-11-07T09:34:55Z</time>
      </trkpt>
      <trkpt lat="45.51797" lon="7.24821">
        <ele>3196.7</ele>
        <time>2021-11-07T09:34:59Z</time>
      </trkpt>
      <trkpt lat="45.51796" lon="7.24822">
        <ele>3196.7</ele>
        <time>2021-11-07T09:35:03Z</time>
      </trkpt>
      <trkpt lat="45.51795" lon="7.24824">
        <ele>3197.2</ele>
        <time>2021-11-07T09:35:07Z</time>
      </trkpt>
      <trkpt lat="45.51794" lon="7.24824">
        <ele>3197.3</ele>
        <time>2021-11-07T09:35:11Z</time>
      </trkpt>
      <trkpt lat="45.51793" lon="7.24823">
        <ele>3197.2</ele>
        <time>2021-11-07T09:35:14Z</time>
      </trkpt>
      <trkpt lat="45.51792" lon="7.24821">
        <ele>3197.4</ele>
        <time>2021-11-07T09:35:19Z</time>
      </trkpt>
      <trkpt lat="45.51792" lon="7.24821">
        <ele>3197.3</ele>
        <time>2021-11-07T09:35:20Z</time>
      </trkpt>
      <trkpt lat="45.51791" lon="7.24826">
        <ele>3197.9</ele>
        <time>2021-11-07T09:35:33Z</time>
      </trkpt>
      <trkpt lat="45.5179" lon="7.24831">
        <ele>3219.4</ele>
        <time>2021-11-07T09:35:45Z</time>
      </trkpt>
      <trkpt lat="45.51789" lon="7.24834">
        <ele>3220.1</ele>
        <time>2021-11-07T09:35:52Z</time>
      </trkpt>
      <trkpt lat="45.51789" lon="7.24834">
        <ele>3220.2</ele>
        <time>2021-11-07T09:35:56Z</time>
      </trkpt>
      <trkpt lat="45.51789" lon="7.24834">
        <ele>3220.3</ele>
        <time>2021-11-07T09:35:57Z</time>
      </trkpt>
      <trkpt lat="45.51789" lon="7.24835">
        <ele>3220.4</ele>
        <time>2021-11-07T09:35:58Z</time>
      </trkpt>
      <trkpt lat="45.51788" lon="7.24834">
        <ele>3220.6</ele>
        <time>2021-11-07T09:36:03Z</time>
      </trkpt>
      <trkpt lat="45.51787" lon="7.24834">
        <ele>3221</ele>
        <time>2021-11-07T09:36:09Z</time>
      </trkpt>
      <trkpt lat="45.51786" lon="7.24834">
        <ele>3221.2</ele>
        <time>2021-11-07T09:36:10Z</time>
      </trkpt>
      <trkpt lat="45.51783" lon="7.24839">
        <ele>3222.5</ele>
        <time>2021-11-07T09:36:22Z</time>
      </trkpt>
      <trkpt lat="45.51782" lon="7.24837">
        <ele>3223</ele>
        <time>2021-11-07T09:36:36Z</time>
      </trkpt>
      <trkpt lat="45.51781" lon="7.24838">
        <ele>3223.4</ele>
        <time>2021-11-07T09:36:42Z</time>
      </trkpt>
      <trkpt lat="45.5178" lon="7.24838">
        <ele>3223.8</ele>
        <time>2021-11-07T09:36:50Z</time>
      </trkpt>
      <trkpt lat="45.5178" lon="7.24838">
        <ele>3223.9</ele>
        <time>2021-11-07T09:36:59Z</time>
      </trkpt>
      <trkpt lat="45.51779" lon="7.24838">
        <ele>3224.1</ele>
        <time>2021-11-07T09:37:05Z</time>
      </trkpt>
      <trkpt lat="45.51778" lon="7.2484">
        <ele>3224.6</ele>
        <time>2021-11-07T09:37:11Z</time>
      </trkpt>
      <trkpt lat="45.51778" lon="7.24839">
        <ele>3224.8</ele>
        <time>2021-11-07T09:37:14Z</time>
      </trkpt>
      <trkpt lat="45.51777" lon="7.2484">
        <ele>3225</ele>
        <time>2021-11-07T09:37:18Z</time>
      </trkpt>
      <trkpt lat="45.51773" lon="7.2484">
        <ele>3226.2</ele>
        <time>2021-11-07T09:37:29Z</time>
      </trkpt>
      <trkpt lat="45.51772" lon="7.24841">
        <ele>3226.5</ele>
        <time>2021-11-07T09:37:34Z</time>
      </trkpt>
      <trkpt lat="45.51772" lon="7.24842">
        <ele>3226.7</ele>
        <time>2021-11-07T09:37:45Z</time>
      </trkpt>
      <trkpt lat="45.51771" lon="7.24842">
        <ele>3227</ele>
        <time>2021-11-07T09:37:51Z</time>
      </trkpt>
      <trkpt lat="45.5177" lon="7.24841">
        <ele>3227.3</ele>
        <time>2021-11-07T09:37:59Z</time>
      </trkpt>
      <trkpt lat="45.51768" lon="7.2484">
        <ele>3227.7</ele>
        <time>2021-11-07T09:38:02Z</time>
      </trkpt>
      <trkpt lat="45.51768" lon="7.2484">
        <ele>3227.9</ele>
        <time>2021-11-07T09:38:05Z</time>
      </trkpt>
      <trkpt lat="45.51766" lon="7.24839">
        <ele>3228.3</ele>
        <time>2021-11-07T09:38:10Z</time>
      </trkpt>
      <trkpt lat="45.51765" lon="7.24842">
        <ele>3229</ele>
        <time>2021-11-07T09:38:22Z</time>
      </trkpt>
      <trkpt lat="45.51764" lon="7.24843">
        <ele>3229.3</ele>
        <time>2021-11-07T09:38:24Z</time>
      </trkpt>
      <trkpt lat="45.51764" lon="7.2484">
        <ele>3230</ele>
        <time>2021-11-07T09:38:36Z</time>
      </trkpt>
      <trkpt lat="45.51765" lon="7.24839">
        <ele>3230.2</ele>
        <time>2021-11-07T09:38:40Z</time>
      </trkpt>
      <trkpt lat="45.51765" lon="7.2484">
        <ele>3230.3</ele>
        <time>2021-11-07T09:38:41Z</time>
      </trkpt>
      <trkpt lat="45.51763" lon="7.24841">
        <ele>3231</ele>
        <time>2021-11-07T09:38:50Z</time>
      </trkpt>
      <trkpt lat="45.51762" lon="7.24844">
        <ele>3231.6</ele>
        <time>2021-11-07T09:38:57Z</time>
      </trkpt>
      <trkpt lat="45.51761" lon="7.24844">
        <ele>3231.7</ele>
        <time>2021-11-07T09:39:00Z</time>
      </trkpt>
      <trkpt lat="45.51761" lon="7.24846">
        <ele>3232.1</ele>
        <time>2021-11-07T09:39:04Z</time>
      </trkpt>
      <trkpt lat="45.51761" lon="7.24848">
        <ele>3232.5</ele>
        <time>2021-11-07T09:39:08Z</time>
      </trkpt>
      <trkpt lat="45.5176" lon="7.24851">
        <ele>3233.1</ele>
        <time>2021-11-07T09:39:12Z</time>
      </trkpt>
      <trkpt lat="45.51759" lon="7.24853">
        <ele>3233.6</ele>
        <time>2021-11-07T09:39:17Z</time>
      </trkpt>
      <trkpt lat="45.51758" lon="7.24853">
        <ele>3234</ele>
        <time>2021-11-07T09:39:19Z</time>
      </trkpt>
      <trkpt lat="45.51756" lon="7.24854">
        <ele>3234.4</ele>
        <time>2021-11-07T09:39:22Z</time>
      </trkpt>
      <trkpt lat="45.51755" lon="7.24854">
        <ele>3234.6</ele>
        <time>2021-11-07T09:39:25Z</time>
      </trkpt>
      <trkpt lat="45.51755" lon="7.24853">
        <ele>3234.8</ele>
        <time>2021-11-07T09:39:28Z</time>
      </trkpt>
      <trkpt lat="45.51753" lon="7.24854">
        <ele>3235.3</ele>
        <time>2021-11-07T09:39:41Z</time>
      </trkpt>
      <trkpt lat="45.51753" lon="7.24853">
        <ele>3235.6</ele>
        <time>2021-11-07T09:39:47Z</time>
      </trkpt>
      <trkpt lat="45.51751" lon="7.24853">
        <ele>3235.9</ele>
        <time>2021-11-07T09:39:53Z</time>
      </trkpt>
      <trkpt lat="45.5175" lon="7.24854">
        <ele>3236.2</ele>
        <time>2021-11-07T09:39:57Z</time>
      </trkpt>
      <trkpt lat="45.51749" lon="7.24856">
        <ele>3236.8</ele>
        <time>2021-11-07T09:40:06Z</time>
      </trkpt>
      <trkpt lat="45.51749" lon="7.24856">
        <ele>3236.9</ele>
        <time>2021-11-07T09:40:07Z</time>
      </trkpt>
      <trkpt lat="45.51747" lon="7.24856">
        <ele>3237.3</ele>
        <time>2021-11-07T09:40:13Z</time>
      </trkpt>
      <trkpt lat="45.51747" lon="7.24854">
        <ele>3237.7</ele>
        <time>2021-11-07T09:40:18Z</time>
      </trkpt>
      <trkpt lat="45.51747" lon="7.24854">
        <ele>3237.7</ele>
        <time>2021-11-07T09:40:19Z</time>
      </trkpt>
      <trkpt lat="45.51744" lon="7.24857">
        <ele>3238.9</ele>
        <time>2021-11-07T09:40:31Z</time>
      </trkpt>
      <trkpt lat="45.51743" lon="7.24856">
        <ele>3239.1</ele>
        <time>2021-11-07T09:40:36Z</time>
      </trkpt>
      <trkpt lat="45.51743" lon="7.24856">
        <ele>3239.2</ele>
        <time>2021-11-07T09:40:41Z</time>
      </trkpt>
      <trkpt lat="45.51743" lon="7.24856">
        <ele>3239.3</ele>
        <time>2021-11-07T09:40:43Z</time>
      </trkpt>
      <trkpt lat="45.51743" lon="7.24855">
        <ele>3239.4</ele>
        <time>2021-11-07T09:40:44Z</time>
      </trkpt>
      <trkpt lat="45.51742" lon="7.24855">
        <ele>3239.7</ele>
        <time>2021-11-07T09:40:49Z</time>
      </trkpt>
      <trkpt lat="45.51741" lon="7.24853">
        <ele>3240.1</ele>
        <time>2021-11-07T09:40:58Z</time>
      </trkpt>
      <trkpt lat="45.51741" lon="7.24851">
        <ele>3240.5</ele>
        <time>2021-11-07T09:41:02Z</time>
      </trkpt>
      <trkpt lat="45.5174" lon="7.24851">
        <ele>3240.6</ele>
        <time>2021-11-07T09:41:05Z</time>
      </trkpt>
      <trkpt lat="45.51739" lon="7.24852">
        <ele>3241</ele>
        <time>2021-11-07T09:41:12Z</time>
      </trkpt>
      <trkpt lat="45.51738" lon="7.24853">
        <ele>3241.3</ele>
        <time>2021-11-07T09:41:15Z</time>
      </trkpt>
      <trkpt lat="45.51738" lon="7.24853">
        <ele>3241.3</ele>
        <time>2021-11-07T09:41:16Z</time>
      </trkpt>
      <trkpt lat="45.51737" lon="7.24853">
        <ele>3241.6</ele>
        <time>2021-11-07T09:41:20Z</time>
      </trkpt>
      <trkpt lat="45.51736" lon="7.24853">
        <ele>3241.9</ele>
        <time>2021-11-07T09:41:23Z</time>
      </trkpt>
      <trkpt lat="45.51736" lon="7.24854">
        <ele>3242.1</ele>
        <time>2021-11-07T09:41:27Z</time>
      </trkpt>
      <trkpt lat="45.51735" lon="7.24855">
        <ele>3242.3</ele>
        <time>2021-11-07T09:41:30Z</time>
      </trkpt>
      <trkpt lat="45.51735" lon="7.24856">
        <ele>3242.5</ele>
        <time>2021-11-07T09:41:32Z</time>
      </trkpt>
      <trkpt lat="45.51734" lon="7.24858">
        <ele>3243</ele>
        <time>2021-11-07T09:41:37Z</time>
      </trkpt>
      <trkpt lat="45.51733" lon="7.24859">
        <ele>3243.3</ele>
        <time>2021-11-07T09:41:40Z</time>
      </trkpt>
      <trkpt lat="45.51733" lon="7.24859">
        <ele>3243.4</ele>
        <time>2021-11-07T09:41:41Z</time>
      </trkpt>
      <trkpt lat="45.51732" lon="7.24861">
        <ele>3243.8</ele>
        <time>2021-11-07T09:41:45Z</time>
      </trkpt>
      <trkpt lat="45.51731" lon="7.24862">
        <ele>3244.2</ele>
        <time>2021-11-07T09:41:47Z</time>
      </trkpt>
      <trkpt lat="45.5173" lon="7.24863">
        <ele>3244.5</ele>
        <time>2021-11-07T09:41:50Z</time>
      </trkpt>
      <trkpt lat="45.5173" lon="7.24863">
        <ele>3244.5</ele>
        <time>2021-11-07T09:41:53Z</time>
      </trkpt>
      <trkpt lat="45.51729" lon="7.24863">
        <ele>3244.9</ele>
        <time>2021-11-07T09:42:03Z</time>
      </trkpt>
      <trkpt lat="45.51727" lon="7.24864">
        <ele>3245.4</ele>
        <time>2021-11-07T09:42:07Z</time>
      </trkpt>
      <trkpt lat="45.51727" lon="7.24865">
        <ele>3245.7</ele>
        <time>2021-11-07T09:42:11Z</time>
      </trkpt>
      <trkpt lat="45.51726" lon="7.24864">
        <ele>3246</ele>
        <time>2021-11-07T09:42:17Z</time>
      </trkpt>
      <trkpt lat="45.51725" lon="7.24865">
        <ele>3246.3</ele>
        <time>2021-11-07T09:42:19Z</time>
      </trkpt>
      <trkpt lat="45.51724" lon="7.24863">
        <ele>3246.6</ele>
        <time>2021-11-07T09:42:25Z</time>
      </trkpt>
      <trkpt lat="45.51725" lon="7.24861">
        <ele>3247.1</ele>
        <time>2021-11-07T09:42:31Z</time>
      </trkpt>
      <trkpt lat="45.51724" lon="7.24861">
        <ele>3247.2</ele>
        <time>2021-11-07T09:42:32Z</time>
      </trkpt>
      <trkpt lat="45.51724" lon="7.2486">
        <ele>3247.4</ele>
        <time>2021-11-07T09:42:35Z</time>
      </trkpt>
      <trkpt lat="45.51723" lon="7.2486">
        <ele>3247.8</ele>
        <time>2021-11-07T09:42:40Z</time>
      </trkpt>
      <trkpt lat="45.51722" lon="7.24859">
        <ele>3248.1</ele>
        <time>2021-11-07T09:42:45Z</time>
      </trkpt>
      <trkpt lat="45.51721" lon="7.24861">
        <ele>3248.4</ele>
        <time>2021-11-07T09:42:51Z</time>
      </trkpt>
      <trkpt lat="45.51721" lon="7.24861">
        <ele>3248.5</ele>
        <time>2021-11-07T09:42:55Z</time>
      </trkpt>
      <trkpt lat="45.51721" lon="7.24861">
        <ele>3248.6</ele>
        <time>2021-11-07T09:42:56Z</time>
      </trkpt>
      <trkpt lat="45.51721" lon="7.24861">
        <ele>3248.7</ele>
        <time>2021-11-07T09:42:59Z</time>
      </trkpt>
      <trkpt lat="45.5172" lon="7.24861">
        <ele>3248.9</ele>
        <time>2021-11-07T09:43:03Z</time>
      </trkpt>
      <trkpt lat="45.5172" lon="7.24862">
        <ele>3249</ele>
        <time>2021-11-07T09:43:04Z</time>
      </trkpt>
      <trkpt lat="45.5172" lon="7.24862">
        <ele>3249</ele>
        <time>2021-11-07T09:43:08Z</time>
      </trkpt>
      <trkpt lat="45.5172" lon="7.24862">
        <ele>3249.1</ele>
        <time>2021-11-07T09:43:11Z</time>
      </trkpt>
      <trkpt lat="45.51719" lon="7.24864">
        <ele>3249.6</ele>
        <time>2021-11-07T09:43:16Z</time>
      </trkpt>
      <trkpt lat="45.51718" lon="7.24864">
        <ele>3249.8</ele>
        <time>2021-11-07T09:43:18Z</time>
      </trkpt>
      <trkpt lat="45.51718" lon="7.24864">
        <ele>3249.9</ele>
        <time>2021-11-07T09:43:20Z</time>
      </trkpt>
      <trkpt lat="45.51718" lon="7.24864">
        <ele>3249.9</ele>
        <time>2021-11-07T09:43:21Z</time>
      </trkpt>
      <trkpt lat="45.51718" lon="7.24864">
        <ele>3250</ele>
        <time>2021-11-07T09:43:22Z</time>
      </trkpt>
      <trkpt lat="45.51718" lon="7.24864">
        <ele>3250</ele>
        <time>2021-11-07T09:43:23Z</time>
      </trkpt>
      <trkpt lat="45.51718" lon="7.24864">
        <ele>3250.1</ele>
        <time>2021-11-07T09:43:24Z</time>
      </trkpt>
      <trkpt lat="45.51718" lon="7.24864">
        <ele>3250.2</ele>
        <time>2021-11-07T09:43:25Z</time>
      </trkpt>
      <trkpt lat="45.51718" lon="7.24863">
        <ele>3250.2</ele>
        <time>2021-11-07T09:43:28Z</time>
      </trkpt>
      <trkpt lat="45.51718" lon="7.24863">
        <ele>3250.3</ele>
        <time>2021-11-07T09:43:31Z</time>
      </trkpt>
      <trkpt lat="45.51719" lon="7.24864">
        <ele>3250.5</ele>
        <time>2021-11-07T09:43:35Z</time>
      </trkpt>
      <trkpt lat="45.51718" lon="7.24864">
        <ele>3250.6</ele>
        <time>2021-11-07T09:43:37Z</time>
      </trkpt>
      <trkpt lat="45.51718" lon="7.24864">
        <ele>3250.6</ele>
        <time>2021-11-07T09:43:39Z</time>
      </trkpt>
      <trkpt lat="45.51717" lon="7.24865">
        <ele>3251</ele>
        <time>2021-11-07T09:43:42Z</time>
      </trkpt>
      <trkpt lat="45.51715" lon="7.24867">
        <ele>3251.9</ele>
        <time>2021-11-07T09:43:46Z</time>
      </trkpt>
      <trkpt lat="45.51714" lon="7.24868">
        <ele>3252</ele>
        <time>2021-11-07T09:43:47Z</time>
      </trkpt>
      <trkpt lat="45.51713" lon="7.24869">
        <ele>3252.6</ele>
        <time>2021-11-07T09:43:58Z</time>
      </trkpt>
      <trkpt lat="45.51711" lon="7.24868">
        <ele>3253</ele>
        <time>2021-11-07T09:44:04Z</time>
      </trkpt>
      <trkpt lat="45.5171" lon="7.24867">
        <ele>3253.3</ele>
        <time>2021-11-07T09:44:08Z</time>
      </trkpt>
      <trkpt lat="45.51706" lon="7.24868">
        <ele>3254.5</ele>
        <time>2021-11-07T09:44:17Z</time>
      </trkpt>
      <trkpt lat="45.51705" lon="7.24868">
        <ele>3254.7</ele>
        <time>2021-11-07T09:44:19Z</time>
      </trkpt>
      <trkpt lat="45.51704" lon="7.24868">
        <ele>3255</ele>
        <time>2021-11-07T09:44:24Z</time>
      </trkpt>
      <trkpt lat="45.51701" lon="7.24866">
        <ele>3256</ele>
        <time>2021-11-07T09:44:31Z</time>
      </trkpt>
      <trkpt lat="45.517" lon="7.24865">
        <ele>3256.3</ele>
        <time>2021-11-07T09:44:34Z</time>
      </trkpt>
      <trkpt lat="45.51698" lon="7.24864">
        <ele>3256.8</ele>
        <time>2021-11-07T09:44:38Z</time>
      </trkpt>
      <trkpt lat="45.51697" lon="7.24863">
        <ele>3257.2</ele>
        <time>2021-11-07T09:44:42Z</time>
      </trkpt>
      <trkpt lat="45.51696" lon="7.24862">
        <ele>3257.6</ele>
        <time>2021-11-07T09:44:45Z</time>
      </trkpt>
      <trkpt lat="45.51695" lon="7.24861">
        <ele>3257.8</ele>
        <time>2021-11-07T09:44:47Z</time>
      </trkpt>
      <trkpt lat="45.51693" lon="7.24858">
        <ele>3258.5</ele>
        <time>2021-11-07T09:44:52Z</time>
      </trkpt>
      <trkpt lat="45.51693" lon="7.24857">
        <ele>3258.9</ele>
        <time>2021-11-07T09:44:55Z</time>
      </trkpt>
      <trkpt lat="45.51692" lon="7.24857">
        <ele>3259.1</ele>
        <time>2021-11-07T09:44:57Z</time>
      </trkpt>
      <trkpt lat="45.51687" lon="7.24855">
        <ele>3260.5</ele>
        <time>2021-11-07T09:45:09Z</time>
      </trkpt>
      <trkpt lat="45.51686" lon="7.24851">
        <ele>3261.2</ele>
        <time>2021-11-07T09:45:13Z</time>
      </trkpt>
      <trkpt lat="45.51685" lon="7.24849">
        <ele>3261.7</ele>
        <time>2021-11-07T09:45:15Z</time>
      </trkpt>
      <trkpt lat="45.51685" lon="7.24849">
        <ele>3261.8</ele>
        <time>2021-11-07T09:45:16Z</time>
      </trkpt>
      <trkpt lat="45.51685" lon="7.24847">
        <ele>3262.2</ele>
        <time>2021-11-07T09:45:20Z</time>
      </trkpt>
      <trkpt lat="45.51684" lon="7.24846">
        <ele>3262.4</ele>
        <time>2021-11-07T09:45:21Z</time>
      </trkpt>
      <trkpt lat="45.51683" lon="7.2484">
        <ele>3263.5</ele>
        <time>2021-11-07T09:45:31Z</time>
      </trkpt>
      <trkpt lat="45.51683" lon="7.24839">
        <ele>3263.7</ele>
        <time>2021-11-07T09:45:32Z</time>
      </trkpt>
      <trkpt lat="45.51682" lon="7.24836">
        <ele>3264.5</ele>
        <time>2021-11-07T09:45:38Z</time>
      </trkpt>
      <trkpt lat="45.51682" lon="7.24835">
        <ele>3264.7</ele>
        <time>2021-11-07T09:45:42Z</time>
      </trkpt>
      <trkpt lat="45.51682" lon="7.24835">
        <ele>3264.7</ele>
        <time>2021-11-07T09:45:43Z</time>
      </trkpt>
      <trkpt lat="45.51682" lon="7.24835">
        <ele>3264.7</ele>
        <time>2021-11-07T09:45:46Z</time>
      </trkpt>
      <trkpt lat="45.51681" lon="7.24835">
        <ele>3264.8</ele>
        <time>2021-11-07T09:45:48Z</time>
      </trkpt>
      <trkpt lat="45.51681" lon="7.24836">
        <ele>3264.9</ele>
        <time>2021-11-07T09:45:49Z</time>
      </trkpt>
      <trkpt lat="45.51682" lon="7.24836">
        <ele>3265.1</ele>
        <time>2021-11-07T09:45:52Z</time>
      </trkpt>
      <trkpt lat="45.51682" lon="7.24836">
        <ele>3265.2</ele>
        <time>2021-11-07T09:45:54Z</time>
      </trkpt>
      <trkpt lat="45.51682" lon="7.24837">
        <ele>3265.3</ele>
        <time>2021-11-07T09:45:56Z</time>
      </trkpt>
      <trkpt lat="45.51682" lon="7.24837">
        <ele>3265.4</ele>
        <time>2021-11-07T09:45:58Z</time>
      </trkpt>
      <trkpt lat="45.51682" lon="7.24837">
        <ele>3265.4</ele>
        <time>2021-11-07T09:46:00Z</time>
      </trkpt>
      <trkpt lat="45.51682" lon="7.24836">
        <ele>3265.5</ele>
        <time>2021-11-07T09:46:01Z</time>
      </trkpt>
      <trkpt lat="45.51682" lon="7.24835">
        <ele>3265.7</ele>
        <time>2021-11-07T09:46:05Z</time>
      </trkpt>
      <trkpt lat="45.51682" lon="7.24835">
        <ele>3265.8</ele>
        <time>2021-11-07T09:46:07Z</time>
      </trkpt>
      <trkpt lat="45.51682" lon="7.24835">
        <ele>3265.8</ele>
        <time>2021-11-07T09:46:08Z</time>
      </trkpt>
      <trkpt lat="45.51682" lon="7.24835">
        <ele>3265.8</ele>
        <time>2021-11-07T09:46:12Z</time>
      </trkpt>
      <trkpt lat="45.51682" lon="7.24835">
        <ele>3265.9</ele>
        <time>2021-11-07T09:46:16Z</time>
      </trkpt>
      <trkpt lat="45.51682" lon="7.24834">
        <ele>3266.1</ele>
        <time>2021-11-07T09:46:20Z</time>
      </trkpt>
      <trkpt lat="45.51682" lon="7.24834">
        <ele>3266.1</ele>
        <time>2021-11-07T09:46:22Z</time>
      </trkpt>
      <trkpt lat="45.51682" lon="7.24833">
        <ele>3266.3</ele>
        <time>2021-11-07T09:46:28Z</time>
      </trkpt>
      <trkpt lat="45.51682" lon="7.24833">
        <ele>3266.3</ele>
        <time>2021-11-07T09:46:30Z</time>
      </trkpt>
      <trkpt lat="45.51682" lon="7.24834">
        <ele>3266.6</ele>
        <time>2021-11-07T09:46:37Z</time>
      </trkpt>
      <trkpt lat="45.51681" lon="7.24834">
        <ele>3266.8</ele>
        <time>2021-11-07T09:46:40Z</time>
      </trkpt>
      <trkpt lat="45.51683" lon="7.24831">
        <ele>3267.4</ele>
        <time>2021-11-07T09:46:47Z</time>
      </trkpt>
      <trkpt lat="45.51683" lon="7.24831">
        <ele>3267.6</ele>
        <time>2021-11-07T09:46:50Z</time>
      </trkpt>
      <trkpt lat="45.51684" lon="7.24831">
        <ele>3267.7</ele>
        <time>2021-11-07T09:46:51Z</time>
      </trkpt>
      <trkpt lat="45.51684" lon="7.2483">
        <ele>3267.8</ele>
        <time>2021-11-07T09:46:52Z</time>
      </trkpt>
      <trkpt lat="45.51684" lon="7.24831">
        <ele>3267.9</ele>
        <time>2021-11-07T09:46:54Z</time>
      </trkpt>
      <trkpt lat="45.51683" lon="7.24832">
        <ele>3268.2</ele>
        <time>2021-11-07T09:46:56Z</time>
      </trkpt>
      <trkpt lat="45.51683" lon="7.24834">
        <ele>3268.6</ele>
        <time>2021-11-07T09:46:59Z</time>
      </trkpt>
      <trkpt lat="45.51682" lon="7.24835">
        <ele>3269.1</ele>
        <time>2021-11-07T09:47:14Z</time>
      </trkpt>
      <trkpt lat="45.51682" lon="7.24836">
        <ele>3269.1</ele>
        <time>2021-11-07T09:47:15Z</time>
      </trkpt>
      <trkpt lat="45.51681" lon="7.24837">
        <ele>3269.5</ele>
        <time>2021-11-07T09:47:27Z</time>
      </trkpt>
      <trkpt lat="45.51681" lon="7.24837">
        <ele>3269.6</ele>
        <time>2021-11-07T09:47:28Z</time>
      </trkpt>
      <trkpt lat="45.51681" lon="7.24837">
        <ele>3269.6</ele>
        <time>2021-11-07T09:47:29Z</time>
      </trkpt>
      <trkpt lat="45.51681" lon="7.24837">
        <ele>3269.7</ele>
        <time>2021-11-07T09:47:31Z</time>
      </trkpt>
      <trkpt lat="45.51682" lon="7.24836">
        <ele>3270.1</ele>
        <time>2021-11-07T09:47:35Z</time>
      </trkpt>
      <trkpt lat="45.51682" lon="7.24836">
        <ele>3270.1</ele>
        <time>2021-11-07T09:47:36Z</time>
      </trkpt>
      <trkpt lat="45.51683" lon="7.24838">
        <ele>3270.4</ele>
        <time>2021-11-07T09:47:44Z</time>
      </trkpt>
      <trkpt lat="45.51683" lon="7.24839">
        <ele>3270.6</ele>
        <time>2021-11-07T09:47:48Z</time>
      </trkpt>
      <trkpt lat="45.51683" lon="7.24839">
        <ele>3270.7</ele>
        <time>2021-11-07T09:47:54Z</time>
      </trkpt>
      <trkpt lat="45.51683" lon="7.24839">
        <ele>3270.8</ele>
        <time>2021-11-07T09:48:00Z</time>
      </trkpt>
      <trkpt lat="45.51683" lon="7.24839">
        <ele>3270.9</ele>
        <time>2021-11-07T09:48:03Z</time>
      </trkpt>
      <trkpt lat="45.51683" lon="7.24839">
        <ele>3270.9</ele>
        <time>2021-11-07T09:48:07Z</time>
      </trkpt>
      <trkpt lat="45.51683" lon="7.24838">
        <ele>3271.1</ele>
        <time>2021-11-07T09:48:13Z</time>
      </trkpt>
      <trkpt lat="45.51683" lon="7.24839">
        <ele>3271.2</ele>
        <time>2021-11-07T09:48:16Z</time>
      </trkpt>
      <trkpt lat="45.51682" lon="7.24839">
        <ele>3271.6</ele>
        <time>2021-11-07T09:48:23Z</time>
      </trkpt>
      <trkpt lat="45.51682" lon="7.24839">
        <ele>3271.6</ele>
        <time>2021-11-07T09:48:25Z</time>
      </trkpt>
      <trkpt lat="45.51681" lon="7.24839">
        <ele>3271.8</ele>
        <time>2021-11-07T09:48:31Z</time>
      </trkpt>
      <trkpt lat="45.51681" lon="7.24839">
        <ele>3271.8</ele>
        <time>2021-11-07T09:48:32Z</time>
      </trkpt>
      <trkpt lat="45.51681" lon="7.24838">
        <ele>3271.9</ele>
        <time>2021-11-07T09:48:34Z</time>
      </trkpt>
      <trkpt lat="45.51681" lon="7.24838">
        <ele>3272.1</ele>
        <time>2021-11-07T09:48:38Z</time>
      </trkpt>
      <trkpt lat="45.51682" lon="7.24837">
        <ele>3272.2</ele>
        <time>2021-11-07T09:48:40Z</time>
      </trkpt>
      <trkpt lat="45.51683" lon="7.24836">
        <ele>3272.7</ele>
        <time>2021-11-07T09:48:45Z</time>
      </trkpt>
      <trkpt lat="45.51683" lon="7.24835">
        <ele>3272.8</ele>
        <time>2021-11-07T09:48:46Z</time>
      </trkpt>
      <trkpt lat="45.51683" lon="7.24835">
        <ele>3272.8</ele>
        <time>2021-11-07T09:48:47Z</time>
      </trkpt>
      <trkpt lat="45.51683" lon="7.24835">
        <ele>3272.9</ele>
        <time>2021-11-07T09:48:56Z</time>
      </trkpt>
      <trkpt lat="45.51683" lon="7.24838">
        <ele>3273.3</ele>
        <time>2021-11-07T09:48:59Z</time>
      </trkpt>
      <trkpt lat="45.51683" lon="7.24838">
        <ele>3273.4</ele>
        <time>2021-11-07T09:49:01Z</time>
      </trkpt>
      <trkpt lat="45.51682" lon="7.24838">
        <ele>3273.6</ele>
        <time>2021-11-07T09:49:07Z</time>
      </trkpt>
      <trkpt lat="45.51682" lon="7.24837">
        <ele>3273.8</ele>
        <time>2021-11-07T09:49:09Z</time>
      </trkpt>
      <trkpt lat="45.51682" lon="7.24837">
        <ele>3273.9</ele>
        <time>2021-11-07T09:49:12Z</time>
      </trkpt>
      <trkpt lat="45.51681" lon="7.24837">
        <ele>3274</ele>
        <time>2021-11-07T09:49:13Z</time>
      </trkpt>
      <trkpt lat="45.51681" lon="7.24836">
        <ele>3274.1</ele>
        <time>2021-11-07T09:49:14Z</time>
      </trkpt>
      <trkpt lat="45.51681" lon="7.24836">
        <ele>3274.2</ele>
        <time>2021-11-07T09:49:16Z</time>
      </trkpt>
      <trkpt lat="45.51681" lon="7.24836">
        <ele>3274.3</ele>
        <time>2021-11-07T09:49:21Z</time>
      </trkpt>
      <trkpt lat="45.51681" lon="7.24836">
        <ele>3274.3</ele>
        <time>2021-11-07T09:49:23Z</time>
      </trkpt>
      <trkpt lat="45.51681" lon="7.24836">
        <ele>3274.4</ele>
        <time>2021-11-07T09:49:26Z</time>
      </trkpt>
      <trkpt lat="45.51682" lon="7.24835">
        <ele>3274.8</ele>
        <time>2021-11-07T09:49:39Z</time>
      </trkpt>
      <trkpt lat="45.51682" lon="7.24835">
        <ele>3274.9</ele>
        <time>2021-11-07T09:49:42Z</time>
      </trkpt>
      <trkpt lat="45.51682" lon="7.24836">
        <ele>3275.1</ele>
        <time>2021-11-07T09:49:45Z</time>
      </trkpt>
      <trkpt lat="45.51682" lon="7.24836">
        <ele>3275.2</ele>
        <time>2021-11-07T09:49:48Z</time>
      </trkpt>
      <trkpt lat="45.51682" lon="7.24836">
        <ele>3275.3</ele>
        <time>2021-11-07T09:49:52Z</time>
      </trkpt>
      <trkpt lat="45.51682" lon="7.24836">
        <ele>3275.4</ele>
        <time>2021-11-07T09:49:55Z</time>
      </trkpt>
      <trkpt lat="45.51682" lon="7.24836">
        <ele>3275.5</ele>
        <time>2021-11-07T09:49:59Z</time>
      </trkpt>
      <trkpt lat="45.51683" lon="7.24836">
        <ele>3275.7</ele>
        <time>2021-11-07T09:50:05Z</time>
      </trkpt>
      <trkpt lat="45.51683" lon="7.24836">
        <ele>3275.7</ele>
        <time>2021-11-07T09:50:10Z</time>
      </trkpt>
      <trkpt lat="45.51683" lon="7.24837">
        <ele>3275.8</ele>
        <time>2021-11-07T09:50:14Z</time>
      </trkpt>
      <trkpt lat="45.51682" lon="7.24836">
        <ele>3275.8</ele>
        <time>2021-11-07T09:50:15Z</time>
      </trkpt>
      <trkpt lat="45.51682" lon="7.24836">
        <ele>3275.9</ele>
        <time>2021-11-07T09:50:17Z</time>
      </trkpt>
      <trkpt lat="45.51682" lon="7.24836">
        <ele>3275.9</ele>
        <time>2021-11-07T09:50:18Z</time>
      </trkpt>
      <trkpt lat="45.51682" lon="7.24837">
        <ele>3276.2</ele>
        <time>2021-11-07T09:50:30Z</time>
      </trkpt>
      <trkpt lat="45.51682" lon="7.24836">
        <ele>3276.3</ele>
        <time>2021-11-07T09:50:32Z</time>
      </trkpt>
      <trkpt lat="45.5168" lon="7.24837">
        <ele>3276.6</ele>
        <time>2021-11-07T09:50:37Z</time>
      </trkpt>
      <trkpt lat="45.51679" lon="7.24838">
        <ele>3277.1</ele>
        <time>2021-11-07T09:50:42Z</time>
      </trkpt>
      <trkpt lat="45.5168" lon="7.24839">
        <ele>3277.3</ele>
        <time>2021-11-07T09:50:45Z</time>
      </trkpt>
      <trkpt lat="45.5168" lon="7.24839">
        <ele>3277.3</ele>
        <time>2021-11-07T09:50:46Z</time>
      </trkpt>
      <trkpt lat="45.5168" lon="7.24839">
        <ele>3277.4</ele>
        <time>2021-11-07T09:50:48Z</time>
      </trkpt>
      <trkpt lat="45.5168" lon="7.24838">
        <ele>3277.4</ele>
        <time>2021-11-07T09:50:50Z</time>
      </trkpt>
      <trkpt lat="45.51681" lon="7.24838">
        <ele>3277.6</ele>
        <time>2021-11-07T09:50:57Z</time>
      </trkpt>
      <trkpt lat="45.51681" lon="7.24836">
        <ele>3277.9</ele>
        <time>2021-11-07T09:51:02Z</time>
      </trkpt>
      <trkpt lat="45.51681" lon="7.24836">
        <ele>3278</ele>
        <time>2021-11-07T09:51:04Z</time>
      </trkpt>
      <trkpt lat="45.5168" lon="7.24836">
        <ele>3278.1</ele>
        <time>2021-11-07T09:51:07Z</time>
      </trkpt>
      <trkpt lat="45.5168" lon="7.24836">
        <ele>3278.1</ele>
        <time>2021-11-07T09:51:10Z</time>
      </trkpt>
      <trkpt lat="45.51679" lon="7.24837">
        <ele>3278.5</ele>
        <time>2021-11-07T09:51:16Z</time>
      </trkpt>
      <trkpt lat="45.51678" lon="7.24837">
        <ele>3278.9</ele>
        <time>2021-11-07T09:51:19Z</time>
      </trkpt>
      <trkpt lat="45.51673" lon="7.24837">
        <ele>3280.2</ele>
        <time>2021-11-07T09:51:28Z</time>
      </trkpt>
      <trkpt lat="45.51672" lon="7.24837">
        <ele>3280.4</ele>
        <time>2021-11-07T09:51:30Z</time>
      </trkpt>
      <trkpt lat="45.51671" lon="7.24838">
        <ele>3280.8</ele>
        <time>2021-11-07T09:51:32Z</time>
      </trkpt>
      <trkpt lat="45.51669" lon="7.24839">
        <ele>3281.5</ele>
        <time>2021-11-07T09:51:35Z</time>
      </trkpt>
      <trkpt lat="45.51665" lon="7.2484">
        <ele>3282.5</ele>
        <time>2021-11-07T09:51:43Z</time>
      </trkpt>
      <trkpt lat="45.51664" lon="7.2484">
        <ele>3282.8</ele>
        <time>2021-11-07T09:51:45Z</time>
      </trkpt>
      <trkpt lat="45.51663" lon="7.2484">
        <ele>3283.2</ele>
        <time>2021-11-07T09:51:48Z</time>
      </trkpt>
      <trkpt lat="45.51662" lon="7.24839">
        <ele>3283.5</ele>
        <time>2021-11-07T09:51:51Z</time>
      </trkpt>
      <trkpt lat="45.51659" lon="7.24838">
        <ele>3284.2</ele>
        <time>2021-11-07T09:51:56Z</time>
      </trkpt>
      <trkpt lat="45.51657" lon="7.24835">
        <ele>3285.2</ele>
        <time>2021-11-07T09:52:04Z</time>
      </trkpt>
      <trkpt lat="45.51654" lon="7.24835">
        <ele>3286</ele>
        <time>2021-11-07T09:52:08Z</time>
      </trkpt>
      <trkpt lat="45.51654" lon="7.24835">
        <ele>3286</ele>
        <time>2021-11-07T09:52:09Z</time>
      </trkpt>
      <trkpt lat="45.51653" lon="7.24834">
        <ele>3286.2</ele>
        <time>2021-11-07T09:52:10Z</time>
      </trkpt>
      <trkpt lat="45.51652" lon="7.24833">
        <ele>3286.6</ele>
        <time>2021-11-07T09:52:14Z</time>
      </trkpt>
      <trkpt lat="45.51649" lon="7.24835">
        <ele>3287.5</ele>
        <time>2021-11-07T09:52:18Z</time>
      </trkpt>
      <trkpt lat="45.51647" lon="7.24835">
        <ele>3288</ele>
        <time>2021-11-07T09:52:21Z</time>
      </trkpt>
      <trkpt lat="45.51646" lon="7.24836">
        <ele>3288.3</ele>
        <time>2021-11-07T09:52:23Z</time>
      </trkpt>
      <trkpt lat="45.51645" lon="7.24836">
        <ele>3288.6</ele>
        <time>2021-11-07T09:52:25Z</time>
      </trkpt>
      <trkpt lat="45.51645" lon="7.24836">
        <ele>3288.8</ele>
        <time>2021-11-07T09:52:29Z</time>
      </trkpt>
      <trkpt lat="45.51643" lon="7.24835">
        <ele>3289.3</ele>
        <time>2021-11-07T09:52:34Z</time>
      </trkpt>
      <trkpt lat="45.51638" lon="7.24835">
        <ele>3290.5</ele>
        <time>2021-11-07T09:52:43Z</time>
      </trkpt>
      <trkpt lat="45.51638" lon="7.24835">
        <ele>3290.7</ele>
        <time>2021-11-07T09:52:45Z</time>
      </trkpt>
      <trkpt lat="45.51637" lon="7.24836">
        <ele>3291</ele>
        <time>2021-11-07T09:52:48Z</time>
      </trkpt>
      <trkpt lat="45.51637" lon="7.24838">
        <ele>3291.3</ele>
        <time>2021-11-07T09:52:51Z</time>
      </trkpt>
      <trkpt lat="45.51637" lon="7.2484">
        <ele>3291.7</ele>
        <time>2021-11-07T09:52:55Z</time>
      </trkpt>
      <trkpt lat="45.51637" lon="7.24843">
        <ele>3292.3</ele>
        <time>2021-11-07T09:52:59Z</time>
      </trkpt>
      <trkpt lat="45.51637" lon="7.24844">
        <ele>3292.6</ele>
        <time>2021-11-07T09:53:02Z</time>
      </trkpt>
      <trkpt lat="45.51637" lon="7.24844">
        <ele>3292.8</ele>
        <time>2021-11-07T09:53:07Z</time>
      </trkpt>
      <trkpt lat="45.51636" lon="7.24846">
        <ele>3293.2</ele>
        <time>2021-11-07T09:53:12Z</time>
      </trkpt>
      <trkpt lat="45.51633" lon="7.24851">
        <ele>3294.5</ele>
        <time>2021-11-07T09:53:21Z</time>
      </trkpt>
      <trkpt lat="45.51632" lon="7.24854">
        <ele>3295.2</ele>
        <time>2021-11-07T09:53:24Z</time>
      </trkpt>
      <trkpt lat="45.51632" lon="7.24855">
        <ele>3295.5</ele>
        <time>2021-11-07T09:53:28Z</time>
      </trkpt>
      <trkpt lat="45.51632" lon="7.24857">
        <ele>3295.8</ele>
        <time>2021-11-07T09:53:32Z</time>
      </trkpt>
      <trkpt lat="45.51631" lon="7.24859">
        <ele>3296.3</ele>
        <time>2021-11-07T09:53:36Z</time>
      </trkpt>
      <trkpt lat="45.5163" lon="7.24862">
        <ele>3296.9</ele>
        <time>2021-11-07T09:53:41Z</time>
      </trkpt>
      <trkpt lat="45.51629" lon="7.24863">
        <ele>3297.3</ele>
        <time>2021-11-07T09:53:44Z</time>
      </trkpt>
      <trkpt lat="45.51629" lon="7.24864">
        <ele>3297.5</ele>
        <time>2021-11-07T09:53:47Z</time>
      </trkpt>
      <trkpt lat="45.51627" lon="7.24865">
        <ele>3298</ele>
        <time>2021-11-07T09:53:50Z</time>
      </trkpt>
      <trkpt lat="45.51625" lon="7.24865">
        <ele>3298.4</ele>
        <time>2021-11-07T09:53:53Z</time>
      </trkpt>
      <trkpt lat="45.51624" lon="7.24866">
        <ele>3298.8</ele>
        <time>2021-11-07T09:53:56Z</time>
      </trkpt>
      <trkpt lat="45.51622" lon="7.24867">
        <ele>3299.5</ele>
        <time>2021-11-07T09:54:03Z</time>
      </trkpt>
      <trkpt lat="45.51621" lon="7.24867">
        <ele>3299.6</ele>
        <time>2021-11-07T09:54:05Z</time>
      </trkpt>
      <trkpt lat="45.51619" lon="7.24867">
        <ele>3300.3</ele>
        <time>2021-11-07T09:54:09Z</time>
      </trkpt>
      <trkpt lat="45.51618" lon="7.24868">
        <ele>3300.5</ele>
        <time>2021-11-07T09:54:11Z</time>
      </trkpt>
      <trkpt lat="45.51618" lon="7.24867">
        <ele>3300.7</ele>
        <time>2021-11-07T09:54:15Z</time>
      </trkpt>
      <trkpt lat="45.51617" lon="7.24866">
        <ele>3301</ele>
        <time>2021-11-07T09:54:18Z</time>
      </trkpt>
      <trkpt lat="45.51617" lon="7.24866">
        <ele>3301.1</ele>
        <time>2021-11-07T09:54:20Z</time>
      </trkpt>
      <trkpt lat="45.51616" lon="7.24865">
        <ele>3301.5</ele>
        <time>2021-11-07T09:54:24Z</time>
      </trkpt>
      <trkpt lat="45.51616" lon="7.24865">
        <ele>3301.6</ele>
        <time>2021-11-07T09:54:25Z</time>
      </trkpt>
      <trkpt lat="45.51615" lon="7.24865">
        <ele>3301.9</ele>
        <time>2021-11-07T09:54:27Z</time>
      </trkpt>
      <trkpt lat="45.51615" lon="7.24865">
        <ele>3301.9</ele>
        <time>2021-11-07T09:54:28Z</time>
      </trkpt>
      <trkpt lat="45.51614" lon="7.24864">
        <ele>3302.1</ele>
        <time>2021-11-07T09:54:31Z</time>
      </trkpt>
      <trkpt lat="45.5161" lon="7.24864">
        <ele>3303.3</ele>
        <time>2021-11-07T09:54:42Z</time>
      </trkpt>
      <trkpt lat="45.51609" lon="7.24865">
        <ele>3303.8</ele>
        <time>2021-11-07T09:54:45Z</time>
      </trkpt>
      <trkpt lat="45.51608" lon="7.24865">
        <ele>3304</ele>
        <time>2021-11-07T09:54:46Z</time>
      </trkpt>
      <trkpt lat="45.51607" lon="7.24866">
        <ele>3304.3</ele>
        <time>2021-11-07T09:54:48Z</time>
      </trkpt>
      <trkpt lat="45.51606" lon="7.24867">
        <ele>3304.7</ele>
        <time>2021-11-07T09:54:50Z</time>
      </trkpt>
      <trkpt lat="45.51602" lon="7.24868">
        <ele>3305.8</ele>
        <time>2021-11-07T09:54:57Z</time>
      </trkpt>
      <trkpt lat="45.51601" lon="7.24869">
        <ele>3306.1</ele>
        <time>2021-11-07T09:54:59Z</time>
      </trkpt>
      <trkpt lat="45.51598" lon="7.2487">
        <ele>3306.9</ele>
        <time>2021-11-07T09:55:04Z</time>
      </trkpt>
      <trkpt lat="45.51596" lon="7.24873">
        <ele>3307.6</ele>
        <time>2021-11-07T09:55:09Z</time>
      </trkpt>
      <trkpt lat="45.51595" lon="7.24873">
        <ele>3307.9</ele>
        <time>2021-11-07T09:55:11Z</time>
      </trkpt>
      <trkpt lat="45.51595" lon="7.24874">
        <ele>3308</ele>
        <time>2021-11-07T09:55:12Z</time>
      </trkpt>
      <trkpt lat="45.51595" lon="7.24874">
        <ele>3308.1</ele>
        <time>2021-11-07T09:55:13Z</time>
      </trkpt>
      <trkpt lat="45.51595" lon="7.24875">
        <ele>3308.2</ele>
        <time>2021-11-07T09:55:14Z</time>
      </trkpt>
      <trkpt lat="45.51595" lon="7.24876">
        <ele>3308.4</ele>
        <time>2021-11-07T09:55:16Z</time>
      </trkpt>
      <trkpt lat="45.51595" lon="7.2488">
        <ele>3309.3</ele>
        <time>2021-11-07T09:55:23Z</time>
      </trkpt>
      <trkpt lat="45.51594" lon="7.24881">
        <ele>3309.4</ele>
        <time>2021-11-07T09:55:24Z</time>
      </trkpt>
      <trkpt lat="45.51594" lon="7.24882">
        <ele>3309.6</ele>
        <time>2021-11-07T09:55:26Z</time>
      </trkpt>
      <trkpt lat="45.51594" lon="7.24883">
        <ele>3309.8</ele>
        <time>2021-11-07T09:55:30Z</time>
      </trkpt>
      <trkpt lat="45.51594" lon="7.24884">
        <ele>3310.1</ele>
        <time>2021-11-07T09:55:32Z</time>
      </trkpt>
      <trkpt lat="45.51593" lon="7.24886">
        <ele>3310.6</ele>
        <time>2021-11-07T09:55:36Z</time>
      </trkpt>
      <trkpt lat="45.51592" lon="7.24887">
        <ele>3310.8</ele>
        <time>2021-11-07T09:55:37Z</time>
      </trkpt>
      <trkpt lat="45.51592" lon="7.24888">
        <ele>3310.9</ele>
        <time>2021-11-07T09:55:40Z</time>
      </trkpt>
      <trkpt lat="45.5159" lon="7.24891">
        <ele>3311.7</ele>
        <time>2021-11-07T09:55:47Z</time>
      </trkpt>
      <trkpt lat="45.5159" lon="7.24891">
        <ele>3311.9</ele>
        <time>2021-11-07T09:55:49Z</time>
      </trkpt>
      <trkpt lat="45.5159" lon="7.24891">
        <ele>3311.9</ele>
        <time>2021-11-07T09:55:50Z</time>
      </trkpt>
      <trkpt lat="45.51588" lon="7.24893">
        <ele>3312.6</ele>
        <time>2021-11-07T09:55:56Z</time>
      </trkpt>
      <trkpt lat="45.51585" lon="7.24896">
        <ele>3313.4</ele>
        <time>2021-11-07T09:56:02Z</time>
      </trkpt>
      <trkpt lat="45.51584" lon="7.24897">
        <ele>3313.9</ele>
        <time>2021-11-07T09:56:05Z</time>
      </trkpt>
      <trkpt lat="45.51581" lon="7.24899">
        <ele>3314.7</ele>
        <time>2021-11-07T09:56:12Z</time>
      </trkpt>
      <trkpt lat="45.51581" lon="7.24899">
        <ele>3314.9</ele>
        <time>2021-11-07T09:56:13Z</time>
      </trkpt>
      <trkpt lat="45.51579" lon="7.249">
        <ele>3315.3</ele>
        <time>2021-11-07T09:56:18Z</time>
      </trkpt>
      <trkpt lat="45.51579" lon="7.249">
        <ele>3315.4</ele>
        <time>2021-11-07T09:56:20Z</time>
      </trkpt>
      <trkpt lat="45.51578" lon="7.249">
        <ele>3315.7</ele>
        <time>2021-11-07T09:56:23Z</time>
      </trkpt>
      <trkpt lat="45.51577" lon="7.24901">
        <ele>3315.9</ele>
        <time>2021-11-07T09:56:25Z</time>
      </trkpt>
      <trkpt lat="45.51577" lon="7.249">
        <ele>3316</ele>
        <time>2021-11-07T09:56:26Z</time>
      </trkpt>
      <trkpt lat="45.51575" lon="7.24904">
        <ele>3317</ele>
        <time>2021-11-07T09:56:33Z</time>
      </trkpt>
      <trkpt lat="45.51574" lon="7.24905">
        <ele>3317.3</ele>
        <time>2021-11-07T09:56:35Z</time>
      </trkpt>
      <trkpt lat="45.51573" lon="7.24907">
        <ele>3317.7</ele>
        <time>2021-11-07T09:56:39Z</time>
      </trkpt>
      <trkpt lat="45.51573" lon="7.24909">
        <ele>3318.2</ele>
        <time>2021-11-07T09:56:42Z</time>
      </trkpt>
      <trkpt lat="45.51573" lon="7.2491">
        <ele>3318.3</ele>
        <time>2021-11-07T09:56:44Z</time>
      </trkpt>
      <trkpt lat="45.51571" lon="7.24912">
        <ele>3318.8</ele>
        <time>2021-11-07T09:56:48Z</time>
      </trkpt>
      <trkpt lat="45.51571" lon="7.24912">
        <ele>3318.9</ele>
        <time>2021-11-07T09:56:50Z</time>
      </trkpt>
      <trkpt lat="45.51571" lon="7.24914">
        <ele>3319.2</ele>
        <time>2021-11-07T09:56:53Z</time>
      </trkpt>
      <trkpt lat="45.51571" lon="7.24914">
        <ele>3319.3</ele>
        <time>2021-11-07T09:56:55Z</time>
      </trkpt>
      <trkpt lat="45.5157" lon="7.24912">
        <ele>3319.7</ele>
        <time>2021-11-07T09:57:03Z</time>
      </trkpt>
      <trkpt lat="45.51568" lon="7.24915">
        <ele>3320.5</ele>
        <time>2021-11-07T09:57:14Z</time>
      </trkpt>
      <trkpt lat="45.51568" lon="7.24916">
        <ele>3320.7</ele>
        <time>2021-11-07T09:57:16Z</time>
      </trkpt>
      <trkpt lat="45.51567" lon="7.24918">
        <ele>3321.2</ele>
        <time>2021-11-07T09:57:21Z</time>
      </trkpt>
      <trkpt lat="45.51565" lon="7.2492">
        <ele>3321.7</ele>
        <time>2021-11-07T09:57:26Z</time>
      </trkpt>
      <trkpt lat="45.51565" lon="7.2492">
        <ele>3321.8</ele>
        <time>2021-11-07T09:57:27Z</time>
      </trkpt>
      <trkpt lat="45.51565" lon="7.24921">
        <ele>3321.9</ele>
        <time>2021-11-07T09:57:30Z</time>
      </trkpt>
      <trkpt lat="45.51565" lon="7.24921">
        <ele>3321.9</ele>
        <time>2021-11-07T09:57:32Z</time>
      </trkpt>
      <trkpt lat="45.51566" lon="7.24919">
        <ele>3322.4</ele>
        <time>2021-11-07T09:57:37Z</time>
      </trkpt>
      <trkpt lat="45.51567" lon="7.24919">
        <ele>3322.6</ele>
        <time>2021-11-07T09:57:40Z</time>
      </trkpt>
      <trkpt lat="45.51564" lon="7.24923">
        <ele>3323.6</ele>
        <time>2021-11-07T09:57:53Z</time>
      </trkpt>
      <trkpt lat="45.51564" lon="7.24923">
        <ele>3323.7</ele>
        <time>2021-11-07T09:57:54Z</time>
      </trkpt>
      <trkpt lat="45.51563" lon="7.24925">
        <ele>3324.1</ele>
        <time>2021-11-07T09:58:01Z</time>
      </trkpt>
      <trkpt lat="45.51562" lon="7.24926">
        <ele>3324.5</ele>
        <time>2021-11-07T09:58:04Z</time>
      </trkpt>
      <trkpt lat="45.51561" lon="7.24927">
        <ele>3324.8</ele>
        <time>2021-11-07T09:58:06Z</time>
      </trkpt>
      <trkpt lat="45.51561" lon="7.24928">
        <ele>3325.1</ele>
        <time>2021-11-07T09:58:09Z</time>
      </trkpt>
      <trkpt lat="45.5156" lon="7.24928">
        <ele>3325.1</ele>
        <time>2021-11-07T09:58:10Z</time>
      </trkpt>
      <trkpt lat="45.5156" lon="7.24928">
        <ele>3325.2</ele>
        <time>2021-11-07T09:58:11Z</time>
      </trkpt>
      <trkpt lat="45.51559" lon="7.2493">
        <ele>3325.6</ele>
        <time>2021-11-07T09:58:14Z</time>
      </trkpt>
      <trkpt lat="45.51559" lon="7.24932">
        <ele>3326</ele>
        <time>2021-11-07T09:58:17Z</time>
      </trkpt>
      <trkpt lat="45.51558" lon="7.24933">
        <ele>3326.3</ele>
        <time>2021-11-07T09:58:19Z</time>
      </trkpt>
      <trkpt lat="45.51557" lon="7.24935">
        <ele>3326.8</ele>
        <time>2021-11-07T09:58:23Z</time>
      </trkpt>
      <trkpt lat="45.51557" lon="7.24936">
        <ele>3327.1</ele>
        <time>2021-11-07T09:58:25Z</time>
      </trkpt>
      <trkpt lat="45.51556" lon="7.24938">
        <ele>3327.4</ele>
        <time>2021-11-07T09:58:27Z</time>
      </trkpt>
      <trkpt lat="45.51555" lon="7.24939">
        <ele>3327.7</ele>
        <time>2021-11-07T09:58:30Z</time>
      </trkpt>
      <trkpt lat="45.51555" lon="7.24939">
        <ele>3327.8</ele>
        <time>2021-11-07T09:58:31Z</time>
      </trkpt>
      <trkpt lat="45.51554" lon="7.24941">
        <ele>3328.2</ele>
        <time>2021-11-07T09:58:35Z</time>
      </trkpt>
      <trkpt lat="45.51554" lon="7.24941">
        <ele>3328.2</ele>
        <time>2021-11-07T09:58:36Z</time>
      </trkpt>
      <trkpt lat="45.51552" lon="7.24944">
        <ele>3329.3</ele>
        <time>2021-11-07T09:58:43Z</time>
      </trkpt>
      <trkpt lat="45.51551" lon="7.24946">
        <ele>3329.6</ele>
        <time>2021-11-07T09:58:46Z</time>
      </trkpt>
      <trkpt lat="45.51551" lon="7.24947">
        <ele>3329.9</ele>
        <time>2021-11-07T09:58:47Z</time>
      </trkpt>
      <trkpt lat="45.51548" lon="7.24952">
        <ele>3331</ele>
        <time>2021-11-07T09:58:55Z</time>
      </trkpt>
      <trkpt lat="45.51548" lon="7.24953">
        <ele>3331.3</ele>
        <time>2021-11-07T09:58:57Z</time>
      </trkpt>
      <trkpt lat="45.51547" lon="7.24954">
        <ele>3331.6</ele>
        <time>2021-11-07T09:58:59Z</time>
      </trkpt>
      <trkpt lat="45.51546" lon="7.24956">
        <ele>3332</ele>
        <time>2021-11-07T09:59:02Z</time>
      </trkpt>
      <trkpt lat="45.51545" lon="7.24958">
        <ele>3332.5</ele>
        <time>2021-11-07T09:59:06Z</time>
      </trkpt>
      <trkpt lat="45.51545" lon="7.24959">
        <ele>3332.7</ele>
        <time>2021-11-07T09:59:08Z</time>
      </trkpt>
      <trkpt lat="45.51544" lon="7.24961">
        <ele>3333.1</ele>
        <time>2021-11-07T09:59:11Z</time>
      </trkpt>
      <trkpt lat="45.51543" lon="7.24962">
        <ele>3333.4</ele>
        <time>2021-11-07T09:59:13Z</time>
      </trkpt>
      <trkpt lat="45.51542" lon="7.24964">
        <ele>3333.8</ele>
        <time>2021-11-07T09:59:16Z</time>
      </trkpt>
      <trkpt lat="45.5154" lon="7.24965">
        <ele>3334.6</ele>
        <time>2021-11-07T09:59:20Z</time>
      </trkpt>
      <trkpt lat="45.5154" lon="7.24966">
        <ele>3334.8</ele>
        <time>2021-11-07T09:59:22Z</time>
      </trkpt>
      <trkpt lat="45.51538" lon="7.24968">
        <ele>3335.3</ele>
        <time>2021-11-07T09:59:25Z</time>
      </trkpt>
      <trkpt lat="45.51538" lon="7.24968">
        <ele>3335.4</ele>
        <time>2021-11-07T09:59:26Z</time>
      </trkpt>
      <trkpt lat="45.51536" lon="7.24972">
        <ele>3336.3</ele>
        <time>2021-11-07T09:59:31Z</time>
      </trkpt>
      <trkpt lat="45.51536" lon="7.24974">
        <ele>3336.6</ele>
        <time>2021-11-07T09:59:34Z</time>
      </trkpt>
      <trkpt lat="45.51536" lon="7.24977">
        <ele>3337.2</ele>
        <time>2021-11-07T09:59:37Z</time>
      </trkpt>
      <trkpt lat="45.51535" lon="7.24978">
        <ele>3337.6</ele>
        <time>2021-11-07T09:59:39Z</time>
      </trkpt>
      <trkpt lat="45.51535" lon="7.24982">
        <ele>3338.3</ele>
        <time>2021-11-07T09:59:45Z</time>
      </trkpt>
      <trkpt lat="45.51536" lon="7.24985">
        <ele>3338.9</ele>
        <time>2021-11-07T09:59:49Z</time>
      </trkpt>
      <trkpt lat="45.51537" lon="7.24986">
        <ele>3339.2</ele>
        <time>2021-11-07T09:59:50Z</time>
      </trkpt>
      <trkpt lat="45.51537" lon="7.24991">
        <ele>3340.2</ele>
        <time>2021-11-07T09:59:55Z</time>
      </trkpt>
      <trkpt lat="45.51537" lon="7.24993">
        <ele>3340.7</ele>
        <time>2021-11-07T09:59:59Z</time>
      </trkpt>
      <trkpt lat="45.51538" lon="7.24995">
        <ele>3340.9</ele>
        <time>2021-11-07T10:00:02Z</time>
      </trkpt>
      <trkpt lat="45.51538" lon="7.24997">
        <ele>3341.4</ele>
        <time>2021-11-07T10:00:07Z</time>
      </trkpt>
      <trkpt lat="45.51538" lon="7.24998">
        <ele>3341.5</ele>
        <time>2021-11-07T10:00:08Z</time>
      </trkpt>
      <trkpt lat="45.51537" lon="7.24999">
        <ele>3341.9</ele>
        <time>2021-11-07T10:00:11Z</time>
      </trkpt>
      <trkpt lat="45.51537" lon="7.25">
        <ele>3342</ele>
        <time>2021-11-07T10:00:12Z</time>
      </trkpt>
      <trkpt lat="45.51537" lon="7.25">
        <ele>3342.1</ele>
        <time>2021-11-07T10:00:13Z</time>
      </trkpt>
      <trkpt lat="45.51535" lon="7.25003">
        <ele>3342.8</ele>
        <time>2021-11-07T10:00:17Z</time>
      </trkpt>
      <trkpt lat="45.51534" lon="7.25006">
        <ele>3343.4</ele>
        <time>2021-11-07T10:00:21Z</time>
      </trkpt>
      <trkpt lat="45.51534" lon="7.25006">
        <ele>3343.6</ele>
        <time>2021-11-07T10:00:22Z</time>
      </trkpt>
      <trkpt lat="45.51534" lon="7.25008">
        <ele>3343.9</ele>
        <time>2021-11-07T10:00:24Z</time>
      </trkpt>
      <trkpt lat="45.51533" lon="7.2501">
        <ele>3344.4</ele>
        <time>2021-11-07T10:00:28Z</time>
      </trkpt>
      <trkpt lat="45.51533" lon="7.25013">
        <ele>3345</ele>
        <time>2021-11-07T10:00:34Z</time>
      </trkpt>
      <trkpt lat="45.51532" lon="7.25014">
        <ele>3345.1</ele>
        <time>2021-11-07T10:00:35Z</time>
      </trkpt>
      <trkpt lat="45.51532" lon="7.25015">
        <ele>3345.4</ele>
        <time>2021-11-07T10:00:39Z</time>
      </trkpt>
      <trkpt lat="45.51532" lon="7.25015">
        <ele>3345.5</ele>
        <time>2021-11-07T10:00:40Z</time>
      </trkpt>
      <trkpt lat="45.51531" lon="7.25017">
        <ele>3345.7</ele>
        <time>2021-11-07T10:00:42Z</time>
      </trkpt>
      <trkpt lat="45.5153" lon="7.25019">
        <ele>3346.3</ele>
        <time>2021-11-07T10:00:46Z</time>
      </trkpt>
      <trkpt lat="45.5153" lon="7.25021">
        <ele>3346.6</ele>
        <time>2021-11-07T10:00:48Z</time>
      </trkpt>
      <trkpt lat="45.51531" lon="7.25024">
        <ele>3347.3</ele>
        <time>2021-11-07T10:00:53Z</time>
      </trkpt>
      <trkpt lat="45.5153" lon="7.25027">
        <ele>3347.8</ele>
        <time>2021-11-07T10:00:58Z</time>
      </trkpt>
      <trkpt lat="45.51529" lon="7.25028">
        <ele>3348.2</ele>
        <time>2021-11-07T10:01:00Z</time>
      </trkpt>
      <trkpt lat="45.51528" lon="7.2503">
        <ele>3348.6</ele>
        <time>2021-11-07T10:01:02Z</time>
      </trkpt>
      <trkpt lat="45.51526" lon="7.25034">
        <ele>3349.6</ele>
        <time>2021-11-07T10:01:09Z</time>
      </trkpt>
      <trkpt lat="45.51526" lon="7.25035">
        <ele>3349.9</ele>
        <time>2021-11-07T10:01:11Z</time>
      </trkpt>
      <trkpt lat="45.51526" lon="7.25039">
        <ele>3350.5</ele>
        <time>2021-11-07T10:01:16Z</time>
      </trkpt>
      <trkpt lat="45.51526" lon="7.25042">
        <ele>3351.2</ele>
        <time>2021-11-07T10:01:21Z</time>
      </trkpt>
      <trkpt lat="45.51525" lon="7.25044">
        <ele>3351.4</ele>
        <time>2021-11-07T10:01:24Z</time>
      </trkpt>
      <trkpt lat="45.51525" lon="7.25044">
        <ele>3351.6</ele>
        <time>2021-11-07T10:01:26Z</time>
      </trkpt>
      <trkpt lat="45.51525" lon="7.25045">
        <ele>3351.7</ele>
        <time>2021-11-07T10:01:28Z</time>
      </trkpt>
      <trkpt lat="45.51525" lon="7.25045">
        <ele>3351.9</ele>
        <time>2021-11-07T10:01:31Z</time>
      </trkpt>
      <trkpt lat="45.51525" lon="7.25045">
        <ele>3351.9</ele>
        <time>2021-11-07T10:01:35Z</time>
      </trkpt>
      <trkpt lat="45.51525" lon="7.25044">
        <ele>3352</ele>
        <time>2021-11-07T10:01:36Z</time>
      </trkpt>
      <trkpt lat="45.51525" lon="7.25044">
        <ele>3352</ele>
        <time>2021-11-07T10:01:37Z</time>
      </trkpt>
      <trkpt lat="45.51525" lon="7.25044">
        <ele>3352</ele>
        <time>2021-11-07T10:01:39Z</time>
      </trkpt>
      <trkpt lat="45.51525" lon="7.25045">
        <ele>3352.1</ele>
        <time>2021-11-07T10:01:40Z</time>
      </trkpt>
      <trkpt lat="45.51526" lon="7.25049">
        <ele>3353</ele>
        <time>2021-11-07T10:01:51Z</time>
      </trkpt>
      <trkpt lat="45.51526" lon="7.2505">
        <ele>3353.2</ele>
        <time>2021-11-07T10:01:53Z</time>
      </trkpt>
      <trkpt lat="45.51525" lon="7.25052">
        <ele>3353.6</ele>
        <time>2021-11-07T10:01:57Z</time>
      </trkpt>
      <trkpt lat="45.51525" lon="7.25053">
        <ele>3353.8</ele>
        <time>2021-11-07T10:01:59Z</time>
      </trkpt>
      <trkpt lat="45.51525" lon="7.25055">
        <ele>3354.1</ele>
        <time>2021-11-07T10:02:03Z</time>
      </trkpt>
      <trkpt lat="45.51525" lon="7.25055">
        <ele>3354.2</ele>
        <time>2021-11-07T10:02:04Z</time>
      </trkpt>
      <trkpt lat="45.51524" lon="7.25057">
        <ele>3354.6</ele>
        <time>2021-11-07T10:02:09Z</time>
      </trkpt>
      <trkpt lat="45.51524" lon="7.25058">
        <ele>3354.9</ele>
        <time>2021-11-07T10:02:11Z</time>
      </trkpt>
      <trkpt lat="45.51523" lon="7.25062">
        <ele>3355.6</ele>
        <time>2021-11-07T10:02:16Z</time>
      </trkpt>
      <trkpt lat="45.51523" lon="7.25064">
        <ele>3356.1</ele>
        <time>2021-11-07T10:02:19Z</time>
      </trkpt>
      <trkpt lat="45.51525" lon="7.25067">
        <ele>3356.9</ele>
        <time>2021-11-07T10:02:25Z</time>
      </trkpt>
      <trkpt lat="45.51525" lon="7.25068">
        <ele>3357</ele>
        <time>2021-11-07T10:02:26Z</time>
      </trkpt>
      <trkpt lat="45.51526" lon="7.25071">
        <ele>3357.6</ele>
        <time>2021-11-07T10:02:31Z</time>
      </trkpt>
      <trkpt lat="45.51527" lon="7.25072">
        <ele>3358</ele>
        <time>2021-11-07T10:02:34Z</time>
      </trkpt>
      <trkpt lat="45.51527" lon="7.25073">
        <ele>3358.1</ele>
        <time>2021-11-07T10:02:35Z</time>
      </trkpt>
      <trkpt lat="45.51528" lon="7.25076">
        <ele>3358.7</ele>
        <time>2021-11-07T10:02:46Z</time>
      </trkpt>
      <trkpt lat="45.51529" lon="7.25076">
        <ele>3358.9</ele>
        <time>2021-11-07T10:02:47Z</time>
      </trkpt>
      <trkpt lat="45.5153" lon="7.25078">
        <ele>3359.3</ele>
        <time>2021-11-07T10:02:51Z</time>
      </trkpt>
      <trkpt lat="45.51531" lon="7.2508">
        <ele>3359.9</ele>
        <time>2021-11-07T10:02:58Z</time>
      </trkpt>
      <trkpt lat="45.51532" lon="7.25082">
        <ele>3360.3</ele>
        <time>2021-11-07T10:03:05Z</time>
      </trkpt>
      <trkpt lat="45.51532" lon="7.25083">
        <ele>3360.5</ele>
        <time>2021-11-07T10:03:10Z</time>
      </trkpt>
      <trkpt lat="45.51532" lon="7.25083">
        <ele>3360.5</ele>
        <time>2021-11-07T10:03:11Z</time>
      </trkpt>
      <trkpt lat="45.51532" lon="7.25084">
        <ele>3360.8</ele>
        <time>2021-11-07T10:03:15Z</time>
      </trkpt>
      <trkpt lat="45.51532" lon="7.25085">
        <ele>3361</ele>
        <time>2021-11-07T10:03:22Z</time>
      </trkpt>
      <trkpt lat="45.51532" lon="7.25087">
        <ele>3361.3</ele>
        <time>2021-11-07T10:03:27Z</time>
      </trkpt>
      <trkpt lat="45.51533" lon="7.25089">
        <ele>3361.9</ele>
        <time>2021-11-07T10:03:35Z</time>
      </trkpt>
      <trkpt lat="45.51533" lon="7.25091">
        <ele>3362.2</ele>
        <time>2021-11-07T10:03:41Z</time>
      </trkpt>
      <trkpt lat="45.51533" lon="7.25089">
        <ele>3362.5</ele>
        <time>2021-11-07T10:03:47Z</time>
      </trkpt>
      <trkpt lat="45.51534" lon="7.25088">
        <ele>3362.9</ele>
        <time>2021-11-07T10:03:53Z</time>
      </trkpt>
      <trkpt lat="45.51536" lon="7.2509">
        <ele>3363.6</ele>
        <time>2021-11-07T10:04:03Z</time>
      </trkpt>
      <trkpt lat="45.51536" lon="7.2509">
        <ele>3363.7</ele>
        <time>2021-11-07T10:04:05Z</time>
      </trkpt>
      <trkpt lat="45.51536" lon="7.25091">
        <ele>3364</ele>
        <time>2021-11-07T10:04:09Z</time>
      </trkpt>
      <trkpt lat="45.51537" lon="7.25095">
        <ele>3364.6</ele>
        <time>2021-11-07T10:04:18Z</time>
      </trkpt>
      <trkpt lat="45.51537" lon="7.25095">
        <ele>3364.7</ele>
        <time>2021-11-07T10:04:21Z</time>
      </trkpt>
      <trkpt lat="45.51537" lon="7.25095">
        <ele>3364.8</ele>
        <time>2021-11-07T10:04:33Z</time>
      </trkpt>
      <trkpt lat="45.51536" lon="7.25094">
        <ele>3365.1</ele>
        <time>2021-11-07T10:04:42Z</time>
      </trkpt>
      <trkpt lat="45.51537" lon="7.25093">
        <ele>3365.2</ele>
        <time>2021-11-07T10:04:49Z</time>
      </trkpt>
      <trkpt lat="45.51537" lon="7.25094">
        <ele>3365.2</ele>
        <time>2021-11-07T10:04:52Z</time>
      </trkpt>
      <trkpt lat="45.51536" lon="7.25093">
        <ele>3365.3</ele>
        <time>2021-11-07T10:04:56Z</time>
      </trkpt>
      <trkpt lat="45.51538" lon="7.25094">
        <ele>3365.9</ele>
        <time>2021-11-07T10:05:03Z</time>
      </trkpt>
      <trkpt lat="45.51539" lon="7.25094">
        <ele>3366.1</ele>
        <time>2021-11-07T10:05:04Z</time>
      </trkpt>
      <trkpt lat="45.51543" lon="7.25096">
        <ele>3367.4</ele>
        <time>2021-11-07T10:05:14Z</time>
      </trkpt>
      <trkpt lat="45.51544" lon="7.25097">
        <ele>3367.5</ele>
        <time>2021-11-07T10:05:16Z</time>
      </trkpt>
      <trkpt lat="45.51544" lon="7.25096">
        <ele>3367.8</ele>
        <time>2021-11-07T10:05:19Z</time>
      </trkpt>
      <trkpt lat="45.51544" lon="7.25096">
        <ele>3367.9</ele>
        <time>2021-11-07T10:05:25Z</time>
      </trkpt>
      <trkpt lat="45.51543" lon="7.25097">
        <ele>3368.3</ele>
        <time>2021-11-07T10:05:29Z</time>
      </trkpt>
      <trkpt lat="45.51541" lon="7.25096">
        <ele>3368.7</ele>
        <time>2021-11-07T10:05:35Z</time>
      </trkpt>
      <trkpt lat="45.5154" lon="7.25097">
        <ele>3369</ele>
        <time>2021-11-07T10:05:37Z</time>
      </trkpt>
      <trkpt lat="45.51539" lon="7.25097">
        <ele>3369.1</ele>
        <time>2021-11-07T10:05:38Z</time>
      </trkpt>
      <trkpt lat="45.51539" lon="7.25097">
        <ele>3369.3</ele>
        <time>2021-11-07T10:05:40Z</time>
      </trkpt>
      <trkpt lat="45.51538" lon="7.25096">
        <ele>3369.7</ele>
        <time>2021-11-07T10:05:47Z</time>
      </trkpt>
      <trkpt lat="45.51537" lon="7.25097">
        <ele>3369.7</ele>
        <time>2021-11-07T10:05:49Z</time>
      </trkpt>
      <trkpt lat="45.51537" lon="7.25096">
        <ele>3369.8</ele>
        <time>2021-11-07T10:05:51Z</time>
      </trkpt>
      <trkpt lat="45.51537" lon="7.25096">
        <ele>3369.9</ele>
        <time>2021-11-07T10:05:57Z</time>
      </trkpt>
      <trkpt lat="45.51537" lon="7.25096">
        <ele>3370</ele>
        <time>2021-11-07T10:06:02Z</time>
      </trkpt>
      <trkpt lat="45.51537" lon="7.25096">
        <ele>3370</ele>
        <time>2021-11-07T10:06:04Z</time>
      </trkpt>
      <trkpt lat="45.51537" lon="7.25096">
        <ele>3370.1</ele>
        <time>2021-11-07T10:06:09Z</time>
      </trkpt>
      <trkpt lat="45.51536" lon="7.25096">
        <ele>3370.1</ele>
        <time>2021-11-07T10:06:13Z</time>
      </trkpt>
      <trkpt lat="45.51536" lon="7.25096">
        <ele>3370.2</ele>
        <time>2021-11-07T10:06:20Z</time>
      </trkpt>
      <trkpt lat="45.51536" lon="7.25096">
        <ele>3370.2</ele>
        <time>2021-11-07T10:06:25Z</time>
      </trkpt>
      <trkpt lat="45.51536" lon="7.25096">
        <ele>3370.3</ele>
        <time>2021-11-07T10:06:27Z</time>
      </trkpt>
      <trkpt lat="45.51536" lon="7.25096">
        <ele>3370.3</ele>
        <time>2021-11-07T10:06:28Z</time>
      </trkpt>
      <trkpt lat="45.51534" lon="7.25097">
        <ele>3370.9</ele>
        <time>2021-11-07T10:06:36Z</time>
      </trkpt>
      <trkpt lat="45.51532" lon="7.25098">
        <ele>3371.3</ele>
        <time>2021-11-07T10:06:43Z</time>
      </trkpt>
      <trkpt lat="45.51532" lon="7.25098">
        <ele>3371.4</ele>
        <time>2021-11-07T10:06:46Z</time>
      </trkpt>
      <trkpt lat="45.51532" lon="7.25098">
        <ele>3371.5</ele>
        <time>2021-11-07T10:06:47Z</time>
      </trkpt>
      <trkpt lat="45.51533" lon="7.25097">
        <ele>3371.6</ele>
        <time>2021-11-07T10:06:48Z</time>
      </trkpt>
      <trkpt lat="45.51533" lon="7.25097">
        <ele>3371.7</ele>
        <time>2021-11-07T10:06:49Z</time>
      </trkpt>
      <trkpt lat="45.51533" lon="7.25097">
        <ele>3371.7</ele>
        <time>2021-11-07T10:06:50Z</time>
      </trkpt>
      <trkpt lat="45.51533" lon="7.25097">
        <ele>3371.8</ele>
        <time>2021-11-07T10:06:52Z</time>
      </trkpt>
      <trkpt lat="45.51533" lon="7.25096">
        <ele>3371.8</ele>
        <time>2021-11-07T10:06:55Z</time>
      </trkpt>
      <trkpt lat="45.51533" lon="7.25097">
        <ele>3371.9</ele>
        <time>2021-11-07T10:06:57Z</time>
      </trkpt>
      <trkpt lat="45.51533" lon="7.25098">
        <ele>3372.1</ele>
        <time>2021-11-07T10:07:02Z</time>
      </trkpt>
      <trkpt lat="45.51531" lon="7.25097">
        <ele>3372.6</ele>
        <time>2021-11-07T10:07:13Z</time>
      </trkpt>
      <trkpt lat="45.51532" lon="7.25097">
        <ele>3372.6</ele>
        <time>2021-11-07T10:07:20Z</time>
      </trkpt>
      <trkpt lat="45.51531" lon="7.25098">
        <ele>3373</ele>
        <time>2021-11-07T10:07:25Z</time>
      </trkpt>
      <trkpt lat="45.51532" lon="7.25099">
        <ele>3373.1</ele>
        <time>2021-11-07T10:07:26Z</time>
      </trkpt>
      <trkpt lat="45.5153" lon="7.25098">
        <ele>3373.6</ele>
        <time>2021-11-07T10:07:37Z</time>
      </trkpt>
      <trkpt lat="45.51528" lon="7.25098">
        <ele>3374.1</ele>
        <time>2021-11-07T10:07:49Z</time>
      </trkpt>
      <trkpt lat="45.51528" lon="7.25098">
        <ele>3374.2</ele>
        <time>2021-11-07T10:07:52Z</time>
      </trkpt>
      <trkpt lat="45.51528" lon="7.25098">
        <ele>3374.2</ele>
        <time>2021-11-07T10:07:54Z</time>
      </trkpt>
      <trkpt lat="45.51528" lon="7.25098">
        <ele>3374.3</ele>
        <time>2021-11-07T10:07:55Z</time>
      </trkpt>
      <trkpt lat="45.51527" lon="7.25098">
        <ele>3374.5</ele>
        <time>2021-11-07T10:08:02Z</time>
      </trkpt>
      <trkpt lat="45.51526" lon="7.251">
        <ele>3375</ele>
        <time>2021-11-07T10:08:12Z</time>
      </trkpt>
      <trkpt lat="45.51526" lon="7.251">
        <ele>3375.1</ele>
        <time>2021-11-07T10:08:14Z</time>
      </trkpt>
      <trkpt lat="45.51525" lon="7.25101">
        <ele>3375.3</ele>
        <time>2021-11-07T10:08:16Z</time>
      </trkpt>
      <trkpt lat="45.51524" lon="7.25102">
        <ele>3375.7</ele>
        <time>2021-11-07T10:08:21Z</time>
      </trkpt>
      <trkpt lat="45.51524" lon="7.25103">
        <ele>3375.7</ele>
        <time>2021-11-07T10:08:23Z</time>
      </trkpt>
      <trkpt lat="45.51524" lon="7.25103">
        <ele>3375.8</ele>
        <time>2021-11-07T10:08:25Z</time>
      </trkpt>
      <trkpt lat="45.51524" lon="7.25103">
        <ele>3375.9</ele>
        <time>2021-11-07T10:08:28Z</time>
      </trkpt>
      <trkpt lat="45.51524" lon="7.25103">
        <ele>3375.9</ele>
        <time>2021-11-07T10:08:31Z</time>
      </trkpt>
      <trkpt lat="45.51524" lon="7.25104">
        <ele>3375.9</ele>
        <time>2021-11-07T10:08:34Z</time>
      </trkpt>
      <trkpt lat="45.51523" lon="7.25105">
        <ele>3376.2</ele>
        <time>2021-11-07T10:08:39Z</time>
      </trkpt>
      <trkpt lat="45.51522" lon="7.25104">
        <ele>3376.5</ele>
        <time>2021-11-07T10:08:49Z</time>
      </trkpt>
      <trkpt lat="45.51522" lon="7.25104">
        <ele>3376.5</ele>
        <time>2021-11-07T10:08:50Z</time>
      </trkpt>
      <trkpt lat="45.51522" lon="7.25105">
        <ele>3376.5</ele>
        <time>2021-11-07T10:08:51Z</time>
      </trkpt>
      <trkpt lat="45.51522" lon="7.25105">
        <ele>3376.5</ele>
        <time>2021-11-07T10:08:52Z</time>
      </trkpt>
      <trkpt lat="45.5152" lon="7.25105">
        <ele>3377</ele>
        <time>2021-11-07T10:09:01Z</time>
      </trkpt>
      <trkpt lat="45.51519" lon="7.25106">
        <ele>3377.2</ele>
        <time>2021-11-07T10:09:03Z</time>
      </trkpt>
      <trkpt lat="45.51518" lon="7.25105">
        <ele>3377.4</ele>
        <time>2021-11-07T10:09:16Z</time>
      </trkpt>
      <trkpt lat="45.51518" lon="7.25105">
        <ele>3377.5</ele>
        <time>2021-11-07T10:09:21Z</time>
      </trkpt>
      <trkpt lat="45.51518" lon="7.25105">
        <ele>3377.5</ele>
        <time>2021-11-07T10:09:32Z</time>
      </trkpt>
      <trkpt lat="45.51518" lon="7.25106">
        <ele>3377.6</ele>
        <time>2021-11-07T10:09:35Z</time>
      </trkpt>
      <trkpt lat="45.51516" lon="7.25106">
        <ele>3377.9</ele>
        <time>2021-11-07T10:09:39Z</time>
      </trkpt>
      <trkpt lat="45.51515" lon="7.25107">
        <ele>3378.2</ele>
        <time>2021-11-07T10:09:42Z</time>
      </trkpt>
      <trkpt lat="45.51514" lon="7.25107">
        <ele>3378.3</ele>
        <time>2021-11-07T10:09:44Z</time>
      </trkpt>
      <trkpt lat="45.51512" lon="7.25107">
        <ele>3378.8</ele>
        <time>2021-11-07T10:09:53Z</time>
      </trkpt>
      <trkpt lat="45.5151" lon="7.25107">
        <ele>3379.1</ele>
        <time>2021-11-07T10:09:55Z</time>
      </trkpt>
      <trkpt lat="45.51509" lon="7.25104">
        <ele>3379.6</ele>
        <time>2021-11-07T10:10:01Z</time>
      </trkpt>
      <trkpt lat="45.51509" lon="7.25105">
        <ele>3379.6</ele>
        <time>2021-11-07T10:10:04Z</time>
      </trkpt>
      <trkpt lat="45.51508" lon="7.25105">
        <ele>3379.7</ele>
        <time>2021-11-07T10:10:05Z</time>
      </trkpt>
      <trkpt lat="45.5151" lon="7.25107">
        <ele>3380.1</ele>
        <time>2021-11-07T10:10:14Z</time>
      </trkpt>
      <trkpt lat="45.5151" lon="7.25107">
        <ele>3380.2</ele>
        <time>2021-11-07T10:10:15Z</time>
      </trkpt>
      <trkpt lat="45.51511" lon="7.25107">
        <ele>3380.4</ele>
        <time>2021-11-07T10:10:17Z</time>
      </trkpt>
      <trkpt lat="45.51512" lon="7.25107">
        <ele>3380.5</ele>
        <time>2021-11-07T10:10:18Z</time>
      </trkpt>
      <trkpt lat="45.51514" lon="7.2511">
        <ele>3381.1</ele>
        <time>2021-11-07T10:10:23Z</time>
      </trkpt>
      <trkpt lat="45.51515" lon="7.25111">
        <ele>3381.3</ele>
        <time>2021-11-07T10:10:25Z</time>
      </trkpt>
      <trkpt lat="45.51516" lon="7.25113">
        <ele>3381.7</ele>
        <time>2021-11-07T10:10:29Z</time>
      </trkpt>
      <trkpt lat="45.51517" lon="7.25113">
        <ele>3381.8</ele>
        <time>2021-11-07T10:10:30Z</time>
      </trkpt>
      <trkpt lat="45.51517" lon="7.25114">
        <ele>3382</ele>
        <time>2021-11-07T10:10:32Z</time>
      </trkpt>
      <trkpt lat="45.51518" lon="7.25115">
        <ele>3382.2</ele>
        <time>2021-11-07T10:10:34Z</time>
      </trkpt>
      <trkpt lat="45.51518" lon="7.25116">
        <ele>3382.3</ele>
        <time>2021-11-07T10:10:35Z</time>
      </trkpt>
      <trkpt lat="45.51519" lon="7.25117">
        <ele>3382.6</ele>
        <time>2021-11-07T10:10:39Z</time>
      </trkpt>
      <trkpt lat="45.51519" lon="7.25118">
        <ele>3382.7</ele>
        <time>2021-11-07T10:10:42Z</time>
      </trkpt>
      <trkpt lat="45.51519" lon="7.2512">
        <ele>3382.9</ele>
        <time>2021-11-07T10:10:44Z</time>
      </trkpt>
      <trkpt lat="45.51518" lon="7.2512">
        <ele>3383.1</ele>
        <time>2021-11-07T10:10:45Z</time>
      </trkpt>
      <trkpt lat="45.51518" lon="7.25121">
        <ele>3383.2</ele>
        <time>2021-11-07T10:10:47Z</time>
      </trkpt>
      <trkpt lat="45.51517" lon="7.25122">
        <ele>3383.4</ele>
        <time>2021-11-07T10:10:48Z</time>
      </trkpt>
      <trkpt lat="45.51516" lon="7.25124">
        <ele>3383.8</ele>
        <time>2021-11-07T10:10:52Z</time>
      </trkpt>
      <trkpt lat="45.51515" lon="7.25124">
        <ele>3383.9</ele>
        <time>2021-11-07T10:10:54Z</time>
      </trkpt>
      <trkpt lat="45.51514" lon="7.25125">
        <ele>3384.1</ele>
        <time>2021-11-07T10:10:57Z</time>
      </trkpt>
      <trkpt lat="45.51512" lon="7.25126">
        <ele>3384.5</ele>
        <time>2021-11-07T10:11:06Z</time>
      </trkpt>
      <trkpt lat="45.51512" lon="7.25126">
        <ele>3384.6</ele>
        <time>2021-11-07T10:11:09Z</time>
      </trkpt>
      <trkpt lat="45.5151" lon="7.25127">
        <ele>3385.1</ele>
        <time>2021-11-07T10:11:16Z</time>
      </trkpt>
      <trkpt lat="45.5151" lon="7.25127">
        <ele>3385.1</ele>
        <time>2021-11-07T10:11:18Z</time>
      </trkpt>
      <trkpt lat="45.5151" lon="7.25127">
        <ele>3385.1</ele>
        <time>2021-11-07T10:11:20Z</time>
      </trkpt>
      <trkpt lat="45.51511" lon="7.25126">
        <ele>3385.3</ele>
        <time>2021-11-07T10:11:24Z</time>
      </trkpt>
      <trkpt lat="45.51509" lon="7.25126">
        <ele>3385.6</ele>
        <time>2021-11-07T10:11:34Z</time>
      </trkpt>
      <trkpt lat="45.51507" lon="7.2513">
        <ele>3386.2</ele>
        <time>2021-11-07T10:11:42Z</time>
      </trkpt>
      <trkpt lat="45.51506" lon="7.25131">
        <ele>3386.5</ele>
        <time>2021-11-07T10:11:45Z</time>
      </trkpt>
      <trkpt lat="45.51505" lon="7.25134">
        <ele>3387</ele>
        <time>2021-11-07T10:11:51Z</time>
      </trkpt>
      <trkpt lat="45.51504" lon="7.25136">
        <ele>3387.3</ele>
        <time>2021-11-07T10:11:56Z</time>
      </trkpt>
      <trkpt lat="45.51504" lon="7.25137">
        <ele>3387.4</ele>
        <time>2021-11-07T10:11:57Z</time>
      </trkpt>
      <trkpt lat="45.51504" lon="7.25137">
        <ele>3387.5</ele>
        <time>2021-11-07T10:11:58Z</time>
      </trkpt>
      <trkpt lat="45.51504" lon="7.25139">
        <ele>3387.7</ele>
        <time>2021-11-07T10:12:00Z</time>
      </trkpt>
      <trkpt lat="45.51504" lon="7.25141">
        <ele>3388</ele>
        <time>2021-11-07T10:12:05Z</time>
      </trkpt>
      <trkpt lat="45.51504" lon="7.25143">
        <ele>3388.3</ele>
        <time>2021-11-07T10:12:07Z</time>
      </trkpt>
      <trkpt lat="45.51504" lon="7.25146">
        <ele>3388.7</ele>
        <time>2021-11-07T10:12:10Z</time>
      </trkpt>
      <trkpt lat="45.51505" lon="7.25153">
        <ele>3389.6</ele>
        <time>2021-11-07T10:12:18Z</time>
      </trkpt>
      <trkpt lat="45.51505" lon="7.25153">
        <ele>3389.7</ele>
        <time>2021-11-07T10:12:19Z</time>
      </trkpt>
      <trkpt lat="45.51506" lon="7.25155">
        <ele>3390.1</ele>
        <time>2021-11-07T10:12:24Z</time>
      </trkpt>
      <trkpt lat="45.51506" lon="7.25158">
        <ele>3390.6</ele>
        <time>2021-11-07T10:12:30Z</time>
      </trkpt>
      <trkpt lat="45.51506" lon="7.25159">
        <ele>3390.6</ele>
        <time>2021-11-07T10:12:31Z</time>
      </trkpt>
      <trkpt lat="45.51505" lon="7.25159">
        <ele>3390.8</ele>
        <time>2021-11-07T10:12:33Z</time>
      </trkpt>
      <trkpt lat="45.51504" lon="7.2516">
        <ele>3391</ele>
        <time>2021-11-07T10:12:34Z</time>
      </trkpt>
      <trkpt lat="45.51502" lon="7.25162">
        <ele>3391.6</ele>
        <time>2021-11-07T10:12:39Z</time>
      </trkpt>
      <trkpt lat="45.51499" lon="7.25162">
        <ele>3392.2</ele>
        <time>2021-11-07T10:12:44Z</time>
      </trkpt>
      <trkpt lat="45.51497" lon="7.25162">
        <ele>3392.4</ele>
        <time>2021-11-07T10:12:46Z</time>
      </trkpt>
      <trkpt lat="45.51497" lon="7.25162">
        <ele>3392.5</ele>
        <time>2021-11-07T10:12:47Z</time>
      </trkpt>
      <trkpt lat="45.51495" lon="7.25162">
        <ele>3392.9</ele>
        <time>2021-11-07T10:12:50Z</time>
      </trkpt>
      <trkpt lat="45.51494" lon="7.25161">
        <ele>3393.1</ele>
        <time>2021-11-07T10:12:52Z</time>
      </trkpt>
      <trkpt lat="45.51493" lon="7.25162">
        <ele>3393.4</ele>
        <time>2021-11-07T10:12:54Z</time>
      </trkpt>
      <trkpt lat="45.51492" lon="7.25161">
        <ele>3393.6</ele>
        <time>2021-11-07T10:12:57Z</time>
      </trkpt>
      <trkpt lat="45.51491" lon="7.25161">
        <ele>3393.7</ele>
        <time>2021-11-07T10:12:58Z</time>
      </trkpt>
      <trkpt lat="45.51489" lon="7.25162">
        <ele>3394</ele>
        <time>2021-11-07T10:13:02Z</time>
      </trkpt>
      <trkpt lat="45.51489" lon="7.25162">
        <ele>3394.1</ele>
        <time>2021-11-07T10:13:04Z</time>
      </trkpt>
      <trkpt lat="45.51488" lon="7.25162">
        <ele>3394.4</ele>
        <time>2021-11-07T10:13:07Z</time>
      </trkpt>
      <trkpt lat="45.51483" lon="7.25162">
        <ele>3395.4</ele>
        <time>2021-11-07T10:13:17Z</time>
      </trkpt>
      <trkpt lat="45.51477" lon="7.25164">
        <ele>3396.5</ele>
        <time>2021-11-07T10:13:28Z</time>
      </trkpt>
      <trkpt lat="45.51476" lon="7.25165">
        <ele>3396.9</ele>
        <time>2021-11-07T10:13:31Z</time>
      </trkpt>
      <trkpt lat="45.51475" lon="7.25166">
        <ele>3397.1</ele>
        <time>2021-11-07T10:13:32Z</time>
      </trkpt>
      <trkpt lat="45.51474" lon="7.25167">
        <ele>3397.3</ele>
        <time>2021-11-07T10:13:36Z</time>
      </trkpt>
      <trkpt lat="45.51474" lon="7.25167">
        <ele>3397.4</ele>
        <time>2021-11-07T10:13:37Z</time>
      </trkpt>
      <trkpt lat="45.51472" lon="7.25168">
        <ele>3397.8</ele>
        <time>2021-11-07T10:13:43Z</time>
      </trkpt>
      <trkpt lat="45.51469" lon="7.2517">
        <ele>3398.3</ele>
        <time>2021-11-07T10:13:51Z</time>
      </trkpt>
      <trkpt lat="45.51469" lon="7.2517">
        <ele>3398.4</ele>
        <time>2021-11-07T10:13:52Z</time>
      </trkpt>
      <trkpt lat="45.51469" lon="7.2517">
        <ele>3398.5</ele>
        <time>2021-11-07T10:13:54Z</time>
      </trkpt>
      <trkpt lat="45.51467" lon="7.25173">
        <ele>3399.1</ele>
        <time>2021-11-07T10:13:59Z</time>
      </trkpt>
      <trkpt lat="45.51466" lon="7.25173">
        <ele>3399.2</ele>
        <time>2021-11-07T10:14:00Z</time>
      </trkpt>
      <trkpt lat="45.51465" lon="7.25176">
        <ele>3399.6</ele>
        <time>2021-11-07T10:14:06Z</time>
      </trkpt>
      <trkpt lat="45.51464" lon="7.25176">
        <ele>3399.8</ele>
        <time>2021-11-07T10:14:08Z</time>
      </trkpt>
      <trkpt lat="45.51461" lon="7.2518">
        <ele>3400.5</ele>
        <time>2021-11-07T10:14:17Z</time>
      </trkpt>
      <trkpt lat="45.5146" lon="7.25181">
        <ele>3400.8</ele>
        <time>2021-11-07T10:14:20Z</time>
      </trkpt>
      <trkpt lat="45.51457" lon="7.25188">
        <ele>3401.9</ele>
        <time>2021-11-07T10:14:32Z</time>
      </trkpt>
      <trkpt lat="45.51457" lon="7.25188">
        <ele>3402</ele>
        <time>2021-11-07T10:14:33Z</time>
      </trkpt>
      <trkpt lat="45.51457" lon="7.25189">
        <ele>3402.1</ele>
        <time>2021-11-07T10:14:34Z</time>
      </trkpt>
      <trkpt lat="45.51457" lon="7.25189">
        <ele>3402.2</ele>
        <time>2021-11-07T10:14:36Z</time>
      </trkpt>
      <trkpt lat="45.51456" lon="7.25193">
        <ele>3402.8</ele>
        <time>2021-11-07T10:14:45Z</time>
      </trkpt>
      <trkpt lat="45.51456" lon="7.25194">
        <ele>3402.9</ele>
        <time>2021-11-07T10:14:46Z</time>
      </trkpt>
      <trkpt lat="45.51456" lon="7.25195">
        <ele>3403.1</ele>
        <time>2021-11-07T10:14:49Z</time>
      </trkpt>
      <trkpt lat="45.51455" lon="7.25196">
        <ele>3403.3</ele>
        <time>2021-11-07T10:14:51Z</time>
      </trkpt>
      <trkpt lat="45.51455" lon="7.25196">
        <ele>3403.3</ele>
        <time>2021-11-07T10:14:53Z</time>
      </trkpt>
      <trkpt lat="45.51455" lon="7.25196">
        <ele>3403.4</ele>
        <time>2021-11-07T10:14:59Z</time>
      </trkpt>
      <trkpt lat="45.51455" lon="7.25196">
        <ele>3403.4</ele>
        <time>2021-11-07T10:15:03Z</time>
      </trkpt>
      <trkpt lat="45.51455" lon="7.25199">
        <ele>3403.7</ele>
        <time>2021-11-07T10:15:08Z</time>
      </trkpt>
      <trkpt lat="45.51454" lon="7.252">
        <ele>3403.9</ele>
        <time>2021-11-07T10:15:11Z</time>
      </trkpt>
      <trkpt lat="45.51454" lon="7.25201">
        <ele>3404</ele>
        <time>2021-11-07T10:15:13Z</time>
      </trkpt>
      <trkpt lat="45.51454" lon="7.25203">
        <ele>3404.3</ele>
        <time>2021-11-07T10:15:15Z</time>
      </trkpt>
      <trkpt lat="45.51453" lon="7.25204">
        <ele>3404.6</ele>
        <time>2021-11-07T10:15:18Z</time>
      </trkpt>
      <trkpt lat="45.51451" lon="7.25208">
        <ele>3405.2</ele>
        <time>2021-11-07T10:15:24Z</time>
      </trkpt>
      <trkpt lat="45.51449" lon="7.2521">
        <ele>3405.7</ele>
        <time>2021-11-07T10:15:31Z</time>
      </trkpt>
      <trkpt lat="45.51449" lon="7.2521">
        <ele>3405.7</ele>
        <time>2021-11-07T10:15:33Z</time>
      </trkpt>
      <trkpt lat="45.51449" lon="7.2521">
        <ele>3405.8</ele>
        <time>2021-11-07T10:15:35Z</time>
      </trkpt>
      <trkpt lat="45.51449" lon="7.2521">
        <ele>3405.8</ele>
        <time>2021-11-07T10:15:38Z</time>
      </trkpt>
      <trkpt lat="45.51449" lon="7.2521">
        <ele>3405.9</ele>
        <time>2021-11-07T10:15:41Z</time>
      </trkpt>
      <trkpt lat="45.51449" lon="7.25211">
        <ele>3405.9</ele>
        <time>2021-11-07T10:15:45Z</time>
      </trkpt>
      <trkpt lat="45.51449" lon="7.25211">
        <ele>3406</ele>
        <time>2021-11-07T10:15:46Z</time>
      </trkpt>
      <trkpt lat="45.51449" lon="7.25212">
        <ele>3406.1</ele>
        <time>2021-11-07T10:15:49Z</time>
      </trkpt>
      <trkpt lat="45.5145" lon="7.25212">
        <ele>3406.1</ele>
        <time>2021-11-07T10:15:50Z</time>
      </trkpt>
      <trkpt lat="45.51449" lon="7.25212">
        <ele>3406.2</ele>
        <time>2021-11-07T10:15:52Z</time>
      </trkpt>
      <trkpt lat="45.51449" lon="7.25213">
        <ele>3406.3</ele>
        <time>2021-11-07T10:15:54Z</time>
      </trkpt>
      <trkpt lat="45.51449" lon="7.25213">
        <ele>3406.3</ele>
        <time>2021-11-07T10:15:55Z</time>
      </trkpt>
      <trkpt lat="45.51449" lon="7.25213">
        <ele>3406.4</ele>
        <time>2021-11-07T10:15:58Z</time>
      </trkpt>
      <trkpt lat="45.51449" lon="7.25213">
        <ele>3406.4</ele>
        <time>2021-11-07T10:16:03Z</time>
      </trkpt>
      <trkpt lat="45.51449" lon="7.25212">
        <ele>3406.5</ele>
        <time>2021-11-07T10:16:08Z</time>
      </trkpt>
      <trkpt lat="45.51449" lon="7.25212">
        <ele>3406.6</ele>
        <time>2021-11-07T10:16:09Z</time>
      </trkpt>
      <trkpt lat="45.51449" lon="7.25212">
        <ele>3406.6</ele>
        <time>2021-11-07T10:16:11Z</time>
      </trkpt>
      <trkpt lat="45.51449" lon="7.25212">
        <ele>3406.6</ele>
        <time>2021-11-07T10:16:12Z</time>
      </trkpt>
      <trkpt lat="45.5145" lon="7.25211">
        <ele>3406.8</ele>
        <time>2021-11-07T10:16:16Z</time>
      </trkpt>
      <trkpt lat="45.51449" lon="7.2521">
        <ele>3406.9</ele>
        <time>2021-11-07T10:16:18Z</time>
      </trkpt>
      <trkpt lat="45.51449" lon="7.2521">
        <ele>3407</ele>
        <time>2021-11-07T10:16:21Z</time>
      </trkpt>
      <trkpt lat="45.51449" lon="7.25209">
        <ele>3407</ele>
        <time>2021-11-07T10:16:23Z</time>
      </trkpt>
      <trkpt lat="45.51448" lon="7.25209">
        <ele>3407.3</ele>
        <time>2021-11-07T10:16:28Z</time>
      </trkpt>
      <trkpt lat="45.51448" lon="7.2521">
        <ele>3407.5</ele>
        <time>2021-11-07T10:16:33Z</time>
      </trkpt>
      <trkpt lat="45.51448" lon="7.2521">
        <ele>3407.6</ele>
        <time>2021-11-07T10:16:36Z</time>
      </trkpt>
      <trkpt lat="45.51449" lon="7.2521">
        <ele>3407.8</ele>
        <time>2021-11-07T10:16:40Z</time>
      </trkpt>
      <trkpt lat="45.51449" lon="7.25211">
        <ele>3407.8</ele>
        <time>2021-11-07T10:16:42Z</time>
      </trkpt>
      <trkpt lat="45.51449" lon="7.25211">
        <ele>3407.8</ele>
        <time>2021-11-07T10:16:46Z</time>
      </trkpt>
      <trkpt lat="45.51449" lon="7.25211">
        <ele>3407.9</ele>
        <time>2021-11-07T10:16:50Z</time>
      </trkpt>
      <trkpt lat="45.51449" lon="7.25211">
        <ele>3407.9</ele>
        <time>2021-11-07T10:16:51Z</time>
      </trkpt>
      <trkpt lat="45.51449" lon="7.25212">
        <ele>3408</ele>
        <time>2021-11-07T10:16:55Z</time>
      </trkpt>
      <trkpt lat="45.51449" lon="7.25212">
        <ele>3408.1</ele>
        <time>2021-11-07T10:16:57Z</time>
      </trkpt>
      <trkpt lat="45.51449" lon="7.25212">
        <ele>3408.1</ele>
        <time>2021-11-07T10:16:58Z</time>
      </trkpt>
      <trkpt lat="45.51449" lon="7.25211">
        <ele>3408.1</ele>
        <time>2021-11-07T10:17:01Z</time>
      </trkpt>
      <trkpt lat="45.51449" lon="7.25211">
        <ele>3408.2</ele>
        <time>2021-11-07T10:17:03Z</time>
      </trkpt>
      <trkpt lat="45.51449" lon="7.25211">
        <ele>3408.2</ele>
        <time>2021-11-07T10:17:05Z</time>
      </trkpt>
      <trkpt lat="45.51449" lon="7.25211">
        <ele>3408.3</ele>
        <time>2021-11-07T10:17:07Z</time>
      </trkpt>
      <trkpt lat="45.51449" lon="7.25211">
        <ele>3408.4</ele>
        <time>2021-11-07T10:17:08Z</time>
      </trkpt>
      <trkpt lat="45.5145" lon="7.2521">
        <ele>3408.4</ele>
        <time>2021-11-07T10:17:09Z</time>
      </trkpt>
      <trkpt lat="45.5145" lon="7.2521">
        <ele>3408.4</ele>
        <time>2021-11-07T10:17:11Z</time>
      </trkpt>
      <trkpt lat="45.5145" lon="7.2521">
        <ele>3408.5</ele>
        <time>2021-11-07T10:17:13Z</time>
      </trkpt>
      <trkpt lat="45.5145" lon="7.2521">
        <ele>3408.6</ele>
        <time>2021-11-07T10:17:14Z</time>
      </trkpt>
      <trkpt lat="45.5145" lon="7.25209">
        <ele>3408.6</ele>
        <time>2021-11-07T10:17:15Z</time>
      </trkpt>
      <trkpt lat="45.51449" lon="7.25209">
        <ele>3408.7</ele>
        <time>2021-11-07T10:17:18Z</time>
      </trkpt>
      <trkpt lat="45.51449" lon="7.25209">
        <ele>3408.7</ele>
        <time>2021-11-07T10:17:19Z</time>
      </trkpt>
      <trkpt lat="45.51449" lon="7.25209">
        <ele>3408.7</ele>
        <time>2021-11-07T10:17:22Z</time>
      </trkpt>
      <trkpt lat="45.51449" lon="7.25211">
        <ele>3408.9</ele>
        <time>2021-11-07T10:17:31Z</time>
      </trkpt>
      <trkpt lat="45.51449" lon="7.25211">
        <ele>3408.9</ele>
        <time>2021-11-07T10:17:36Z</time>
      </trkpt>
      <trkpt lat="45.51449" lon="7.25212">
        <ele>3409.1</ele>
        <time>2021-11-07T10:17:42Z</time>
      </trkpt>
      <trkpt lat="45.51449" lon="7.25212">
        <ele>3409.1</ele>
        <time>2021-11-07T10:17:53Z</time>
      </trkpt>
      <trkpt lat="45.51449" lon="7.25212">
        <ele>3409.1</ele>
        <time>2021-11-07T10:17:58Z</time>
      </trkpt>
      <trkpt lat="45.5145" lon="7.25211">
        <ele>3409.2</ele>
        <time>2021-11-07T10:18:04Z</time>
      </trkpt>
      <trkpt lat="45.5145" lon="7.25211">
        <ele>3409.2</ele>
        <time>2021-11-07T10:18:07Z</time>
      </trkpt>
      <trkpt lat="45.51449" lon="7.25211">
        <ele>3409.3</ele>
        <time>2021-11-07T10:18:08Z</time>
      </trkpt>
      <trkpt lat="45.51449" lon="7.25211">
        <ele>3409.4</ele>
        <time>2021-11-07T10:18:10Z</time>
      </trkpt>
      <trkpt lat="45.51449" lon="7.25212">
        <ele>3409.4</ele>
        <time>2021-11-07T10:18:13Z</time>
      </trkpt>
      <trkpt lat="45.51449" lon="7.25212">
        <ele>3409.4</ele>
        <time>2021-11-07T10:18:14Z</time>
      </trkpt>
      <trkpt lat="45.51449" lon="7.25212">
        <ele>3409.4</ele>
        <time>2021-11-07T10:18:15Z</time>
      </trkpt>
      <trkpt lat="45.51449" lon="7.25212">
        <ele>3409.5</ele>
        <time>2021-11-07T10:18:17Z</time>
      </trkpt>
      <trkpt lat="45.51449" lon="7.25212">
        <ele>3409.5</ele>
        <time>2021-11-07T10:18:18Z</time>
      </trkpt>
      <trkpt lat="45.51449" lon="7.25212">
        <ele>3409.5</ele>
        <time>2021-11-07T10:18:19Z</time>
      </trkpt>
      <trkpt lat="45.51449" lon="7.25211">
        <ele>3409.5</ele>
        <time>2021-11-07T10:18:21Z</time>
      </trkpt>
      <trkpt lat="45.51449" lon="7.25211">
        <ele>3409.5</ele>
        <time>2021-11-07T10:18:24Z</time>
      </trkpt>
      <trkpt lat="45.51449" lon="7.25212">
        <ele>3409.6</ele>
        <time>2021-11-07T10:18:27Z</time>
      </trkpt>
      <trkpt lat="45.51449" lon="7.25212">
        <ele>3409.7</ele>
        <time>2021-11-07T10:18:32Z</time>
      </trkpt>
      <trkpt lat="45.51449" lon="7.25212">
        <ele>3409.7</ele>
        <time>2021-11-07T10:18:34Z</time>
      </trkpt>
      <trkpt lat="45.51449" lon="7.25212">
        <ele>3409.8</ele>
        <time>2021-11-07T10:18:37Z</time>
      </trkpt>
      <trkpt lat="45.51449" lon="7.25212">
        <ele>3409.8</ele>
        <time>2021-11-07T10:18:39Z</time>
      </trkpt>
      <trkpt lat="45.51449" lon="7.25212">
        <ele>3409.8</ele>
        <time>2021-11-07T10:18:40Z</time>
      </trkpt>
      <trkpt lat="45.5145" lon="7.25211">
        <ele>3409.9</ele>
        <time>2021-11-07T10:18:44Z</time>
      </trkpt>
      <trkpt lat="45.5145" lon="7.25211">
        <ele>3409.9</ele>
        <time>2021-11-07T10:18:46Z</time>
      </trkpt>
      <trkpt lat="45.5145" lon="7.25211">
        <ele>3410</ele>
        <time>2021-11-07T10:18:48Z</time>
      </trkpt>
      <trkpt lat="45.5145" lon="7.25212">
        <ele>3410</ele>
        <time>2021-11-07T10:18:51Z</time>
      </trkpt>
      <trkpt lat="45.5145" lon="7.25212">
        <ele>3410.1</ele>
        <time>2021-11-07T10:18:54Z</time>
      </trkpt>
      <trkpt lat="45.51449" lon="7.25212">
        <ele>3410.2</ele>
        <time>2021-11-07T10:18:59Z</time>
      </trkpt>
      <trkpt lat="45.51449" lon="7.25211">
        <ele>3410.4</ele>
        <time>2021-11-07T10:19:07Z</time>
      </trkpt>
      <trkpt lat="45.51449" lon="7.25211">
        <ele>3410.4</ele>
        <time>2021-11-07T10:19:08Z</time>
      </trkpt>
      <trkpt lat="45.51449" lon="7.2521">
        <ele>3410.5</ele>
        <time>2021-11-07T10:19:11Z</time>
      </trkpt>
      <trkpt lat="45.51448" lon="7.25209">
        <ele>3410.7</ele>
        <time>2021-11-07T10:26:22Z</time>
      </trkpt>
      <trkpt lat="45.51448" lon="7.25211">
        <ele>3410.9</ele>
        <time>2021-11-07T10:26:26Z</time>
      </trkpt>
      <trkpt lat="45.51448" lon="7.25211">
        <ele>3410.9</ele>
        <time>2021-11-07T10:26:27Z</time>
      </trkpt>
      <trkpt lat="45.51447" lon="7.25212">
        <ele>3411.1</ele>
        <time>2021-11-07T10:26:30Z</time>
      </trkpt>
      <trkpt lat="45.51447" lon="7.25213">
        <ele>3411.3</ele>
        <time>2021-11-07T10:26:32Z</time>
      </trkpt>
      <trkpt lat="45.51445" lon="7.25214">
        <ele>3411.8</ele>
        <time>2021-11-07T10:26:38Z</time>
      </trkpt>
      <trkpt lat="45.51445" lon="7.25215">
        <ele>3411.9</ele>
        <time>2021-11-07T10:26:39Z</time>
      </trkpt>
      <trkpt lat="45.51444" lon="7.25217">
        <ele>3412.2</ele>
        <time>2021-11-07T10:26:42Z</time>
      </trkpt>
      <trkpt lat="45.51443" lon="7.25217">
        <ele>3412.3</ele>
        <time>2021-11-07T10:26:43Z</time>
      </trkpt>
      <trkpt lat="45.51443" lon="7.25218">
        <ele>3412.5</ele>
        <time>2021-11-07T10:26:45Z</time>
      </trkpt>
      <trkpt lat="45.51442" lon="7.25218">
        <ele>3412.6</ele>
        <time>2021-11-07T10:26:48Z</time>
      </trkpt>
      <trkpt lat="45.51441" lon="7.25219">
        <ele>3412.7</ele>
        <time>2021-11-07T10:26:49Z</time>
      </trkpt>
      <trkpt lat="45.51441" lon="7.25219">
        <ele>3412.9</ele>
        <time>2021-11-07T10:26:53Z</time>
      </trkpt>
      <trkpt lat="45.51439" lon="7.2522">
        <ele>3413.1</ele>
        <time>2021-11-07T10:26:57Z</time>
      </trkpt>
      <trkpt lat="45.51438" lon="7.25223">
        <ele>3413.8</ele>
        <time>2021-11-07T10:27:04Z</time>
      </trkpt>
      <trkpt lat="45.51438" lon="7.25225">
        <ele>3414</ele>
        <time>2021-11-07T10:27:07Z</time>
      </trkpt>
      <trkpt lat="45.51439" lon="7.25226">
        <ele>3414.2</ele>
        <time>2021-11-07T10:27:15Z</time>
      </trkpt>
      <trkpt lat="45.51441" lon="7.25225">
        <ele>3414.6</ele>
        <time>2021-11-07T10:27:29Z</time>
      </trkpt>
      <trkpt lat="45.51441" lon="7.25225">
        <ele>3414.6</ele>
        <time>2021-11-07T10:27:31Z</time>
      </trkpt>
      <trkpt lat="45.51441" lon="7.25225">
        <ele>3414.6</ele>
        <time>2021-11-07T10:27:36Z</time>
      </trkpt>
      <trkpt lat="45.51441" lon="7.25225">
        <ele>3414.7</ele>
        <time>2021-11-07T10:27:40Z</time>
      </trkpt>
      <trkpt lat="45.51441" lon="7.25225">
        <ele>3414.7</ele>
        <time>2021-11-07T10:27:43Z</time>
      </trkpt>
      <trkpt lat="45.51441" lon="7.25225">
        <ele>3414.7</ele>
        <time>2021-11-07T10:27:44Z</time>
      </trkpt>
      <trkpt lat="45.51441" lon="7.25225">
        <ele>3414.7</ele>
        <time>2021-11-07T10:27:46Z</time>
      </trkpt>
      <trkpt lat="45.51441" lon="7.25226">
        <ele>3414.8</ele>
        <time>2021-11-07T10:27:52Z</time>
      </trkpt>
      <trkpt lat="45.51443" lon="7.25227">
        <ele>3415.2</ele>
        <time>2021-11-07T10:27:58Z</time>
      </trkpt>
      <trkpt lat="45.51447" lon="7.2523">
        <ele>3416.1</ele>
        <time>2021-11-07T10:28:08Z</time>
      </trkpt>
      <trkpt lat="45.51447" lon="7.2523">
        <ele>3416.1</ele>
        <time>2021-11-07T10:28:09Z</time>
      </trkpt>
      <trkpt lat="45.51448" lon="7.25231">
        <ele>3416.3</ele>
        <time>2021-11-07T10:28:13Z</time>
      </trkpt>
      <trkpt lat="45.51448" lon="7.2523">
        <ele>3416.4</ele>
        <time>2021-11-07T10:28:16Z</time>
      </trkpt>
      <trkpt lat="45.51447" lon="7.25231">
        <ele>3416.6</ele>
        <time>2021-11-07T10:28:19Z</time>
      </trkpt>
      <trkpt lat="45.51447" lon="7.25232">
        <ele>3416.6</ele>
        <time>2021-11-07T10:28:21Z</time>
      </trkpt>
      <trkpt lat="45.51446" lon="7.25232">
        <ele>3416.8</ele>
        <time>2021-11-07T10:28:28Z</time>
      </trkpt>
      <trkpt lat="45.51445" lon="7.25232">
        <ele>3416.9</ele>
        <time>2021-11-07T10:28:29Z</time>
      </trkpt>
      <trkpt lat="45.51445" lon="7.25232">
        <ele>3417</ele>
        <time>2021-11-07T10:28:31Z</time>
      </trkpt>
      <trkpt lat="45.51444" lon="7.25233">
        <ele>3417.2</ele>
        <time>2021-11-07T10:28:38Z</time>
      </trkpt>
      <trkpt lat="45.51444" lon="7.25233">
        <ele>3417.3</ele>
        <time>2021-11-07T10:28:43Z</time>
      </trkpt>
      <trkpt lat="45.51444" lon="7.25233">
        <ele>3417.3</ele>
        <time>2021-11-07T10:28:59Z</time>
      </trkpt>
      <trkpt lat="45.51443" lon="7.25234">
        <ele>3417.6</ele>
        <time>2021-11-07T10:29:03Z</time>
      </trkpt>
      <trkpt lat="45.51443" lon="7.25234">
        <ele>3417.7</ele>
        <time>2021-11-07T10:29:07Z</time>
      </trkpt>
      <trkpt lat="45.51443" lon="7.25234">
        <ele>3417.7</ele>
        <time>2021-11-07T10:29:08Z</time>
      </trkpt>
      <trkpt lat="45.51442" lon="7.25235">
        <ele>3417.7</ele>
        <time>2021-11-07T10:29:09Z</time>
      </trkpt>
      <trkpt lat="45.51442" lon="7.25235">
        <ele>3417.9</ele>
        <time>2021-11-07T10:29:11Z</time>
      </trkpt>
      <trkpt lat="45.51442" lon="7.25235">
        <ele>3418</ele>
        <time>2021-11-07T10:29:12Z</time>
      </trkpt>
      <trkpt lat="45.51441" lon="7.25235">
        <ele>3418</ele>
        <time>2021-11-07T10:29:13Z</time>
      </trkpt>
      <trkpt lat="45.51441" lon="7.25235">
        <ele>3418</ele>
        <time>2021-11-07T10:29:14Z</time>
      </trkpt>
      <trkpt lat="45.51441" lon="7.25235">
        <ele>3418</ele>
        <time>2021-11-07T10:29:15Z</time>
      </trkpt>
      <trkpt lat="45.51441" lon="7.25235">
        <ele>3418.1</ele>
        <time>2021-11-07T10:29:20Z</time>
      </trkpt>
      <trkpt lat="45.51441" lon="7.25235">
        <ele>3418.1</ele>
        <time>2021-11-07T10:29:26Z</time>
      </trkpt>
      <trkpt lat="45.51441" lon="7.25235">
        <ele>3418.1</ele>
        <time>2021-11-07T10:29:29Z</time>
      </trkpt>
      <trkpt lat="45.51442" lon="7.25235">
        <ele>3418.2</ele>
        <time>2021-11-07T10:29:36Z</time>
      </trkpt>
      <trkpt lat="45.51442" lon="7.25234">
        <ele>3418.2</ele>
        <time>2021-11-07T10:29:38Z</time>
      </trkpt>
      <trkpt lat="45.51442" lon="7.25234">
        <ele>3418.3</ele>
        <time>2021-11-07T10:29:40Z</time>
      </trkpt>
      <trkpt lat="45.51441" lon="7.25234">
        <ele>3418.3</ele>
        <time>2021-11-07T10:29:45Z</time>
      </trkpt>
      <trkpt lat="45.51441" lon="7.25235">
        <ele>3418.4</ele>
        <time>2021-11-07T10:29:51Z</time>
      </trkpt>
      <trkpt lat="45.51441" lon="7.25235">
        <ele>3418.4</ele>
        <time>2021-11-07T10:29:53Z</time>
      </trkpt>
      <trkpt lat="45.5144" lon="7.25235">
        <ele>3418.5</ele>
        <time>2021-11-07T10:29:55Z</time>
      </trkpt>
      <trkpt lat="45.51439" lon="7.25236">
        <ele>3418.9</ele>
        <time>2021-11-07T10:30:01Z</time>
      </trkpt>
      <trkpt lat="45.51438" lon="7.25236">
        <ele>3419</ele>
        <time>2021-11-07T10:30:02Z</time>
      </trkpt>
      <trkpt lat="45.51437" lon="7.25237">
        <ele>3419.3</ele>
        <time>2021-11-07T10:30:05Z</time>
      </trkpt>
      <trkpt lat="45.51436" lon="7.25237">
        <ele>3419.4</ele>
        <time>2021-11-07T10:30:06Z</time>
      </trkpt>
      <trkpt lat="45.51436" lon="7.25237">
        <ele>3419.6</ele>
        <time>2021-11-07T10:30:08Z</time>
      </trkpt>
      <trkpt lat="45.51437" lon="7.25236">
        <ele>3419.9</ele>
        <time>2021-11-07T10:30:16Z</time>
      </trkpt>
      <trkpt lat="45.51438" lon="7.25237">
        <ele>3420</ele>
        <time>2021-11-07T10:30:19Z</time>
      </trkpt>
      <trkpt lat="45.51438" lon="7.25236">
        <ele>3420.1</ele>
        <time>2021-11-07T10:30:21Z</time>
      </trkpt>
      <trkpt lat="45.51438" lon="7.25236">
        <ele>3420.2</ele>
        <time>2021-11-07T10:30:23Z</time>
      </trkpt>
      <trkpt lat="45.51438" lon="7.25236">
        <ele>3420.2</ele>
        <time>2021-11-07T10:30:25Z</time>
      </trkpt>
      <trkpt lat="45.51438" lon="7.25236">
        <ele>3420.3</ele>
        <time>2021-11-07T10:30:31Z</time>
      </trkpt>
      <trkpt lat="45.51438" lon="7.25236">
        <ele>3420.3</ele>
        <time>2021-11-07T10:30:33Z</time>
      </trkpt>
      <trkpt lat="45.51438" lon="7.25236">
        <ele>3420.3</ele>
        <time>2021-11-07T10:30:35Z</time>
      </trkpt>
      <trkpt lat="45.51438" lon="7.25236">
        <ele>3420.3</ele>
        <time>2021-11-07T10:30:42Z</time>
      </trkpt>
      <trkpt lat="45.51438" lon="7.25236">
        <ele>3420.3</ele>
        <time>2021-11-07T10:30:43Z</time>
      </trkpt>
      <trkpt lat="45.51439" lon="7.25235">
        <ele>3420.3</ele>
        <time>2021-11-07T10:30:47Z</time>
      </trkpt>
      <trkpt lat="45.51439" lon="7.25235">
        <ele>3420.3</ele>
        <time>2021-11-07T10:30:48Z</time>
      </trkpt>
      <trkpt lat="45.51439" lon="7.25235">
        <ele>3420.4</ele>
        <time>2021-11-07T10:30:56Z</time>
      </trkpt>
      <trkpt lat="45.5144" lon="7.25236">
        <ele>3420.7</ele>
        <time>2021-11-07T10:31:01Z</time>
      </trkpt>
      <trkpt lat="45.51441" lon="7.25236">
        <ele>3420.7</ele>
        <time>2021-11-07T10:31:04Z</time>
      </trkpt>
      <trkpt lat="45.51441" lon="7.25235">
        <ele>3420.8</ele>
        <time>2021-11-07T10:31:12Z</time>
      </trkpt>
      <trkpt lat="45.51441" lon="7.25235">
        <ele>3420.9</ele>
        <time>2021-11-07T10:31:14Z</time>
      </trkpt>
      <trkpt lat="45.51441" lon="7.25234">
        <ele>3421</ele>
        <time>2021-11-07T10:31:23Z</time>
      </trkpt>
      <trkpt lat="45.51441" lon="7.25234">
        <ele>3421.1</ele>
        <time>2021-11-07T10:31:26Z</time>
      </trkpt>
      <trkpt lat="45.51441" lon="7.25234">
        <ele>3421.1</ele>
        <time>2021-11-07T10:31:29Z</time>
      </trkpt>
      <trkpt lat="45.51441" lon="7.25235">
        <ele>3421.3</ele>
        <time>2021-11-07T10:31:43Z</time>
      </trkpt>
      <trkpt lat="45.51442" lon="7.25236">
        <ele>3421.5</ele>
        <time>2021-11-07T10:31:46Z</time>
      </trkpt>
      <trkpt lat="45.51444" lon="7.25238">
        <ele>3422</ele>
        <time>2021-11-07T10:31:55Z</time>
      </trkpt>
      <trkpt lat="45.51444" lon="7.25238">
        <ele>3422.1</ele>
        <time>2021-11-07T10:31:58Z</time>
      </trkpt>
      <trkpt lat="45.51444" lon="7.25239">
        <ele>3422.2</ele>
        <time>2021-11-07T10:32:01Z</time>
      </trkpt>
      <trkpt lat="45.51445" lon="7.25239">
        <ele>3422.2</ele>
        <time>2021-11-07T10:32:03Z</time>
      </trkpt>
      <trkpt lat="45.51445" lon="7.25239">
        <ele>3422.3</ele>
        <time>2021-11-07T10:32:08Z</time>
      </trkpt>
      <trkpt lat="45.51445" lon="7.25239">
        <ele>3422.3</ele>
        <time>2021-11-07T10:32:09Z</time>
      </trkpt>
      <trkpt lat="45.51445" lon="7.25239">
        <ele>3422.4</ele>
        <time>2021-11-07T10:32:14Z</time>
      </trkpt>
      <trkpt lat="45.51445" lon="7.25239">
        <ele>3422.4</ele>
        <time>2021-11-07T10:32:20Z</time>
      </trkpt>
      <trkpt lat="45.51446" lon="7.25239">
        <ele>3422.5</ele>
        <time>2021-11-07T10:32:23Z</time>
      </trkpt>
      <trkpt lat="45.51447" lon="7.25239">
        <ele>3422.7</ele>
        <time>2021-11-07T10:32:30Z</time>
      </trkpt>
      <trkpt lat="45.51447" lon="7.25239">
        <ele>3422.7</ele>
        <time>2021-11-07T10:32:32Z</time>
      </trkpt>
      <trkpt lat="45.51447" lon="7.25239">
        <ele>3422.7</ele>
        <time>2021-11-07T10:32:36Z</time>
      </trkpt>
      <trkpt lat="45.51447" lon="7.25238">
        <ele>3422.8</ele>
        <time>2021-11-07T10:32:40Z</time>
      </trkpt>
      <trkpt lat="45.51447" lon="7.25238">
        <ele>3422.8</ele>
        <time>2021-11-07T10:32:44Z</time>
      </trkpt>
      <trkpt lat="45.51447" lon="7.25238">
        <ele>3422.8</ele>
        <time>2021-11-07T10:32:47Z</time>
      </trkpt>
      <trkpt lat="45.51447" lon="7.25238">
        <ele>3422.9</ele>
        <time>2021-11-07T10:32:48Z</time>
      </trkpt>
      <trkpt lat="45.51447" lon="7.25238">
        <ele>3422.9</ele>
        <time>2021-11-07T10:32:52Z</time>
      </trkpt>
      <trkpt lat="45.51447" lon="7.25238">
        <ele>3422.9</ele>
        <time>2021-11-07T10:32:53Z</time>
      </trkpt>
      <trkpt lat="45.51446" lon="7.25238">
        <ele>3423</ele>
        <time>2021-11-07T10:32:58Z</time>
      </trkpt>
      <trkpt lat="45.51446" lon="7.25238">
        <ele>3423</ele>
        <time>2021-11-07T10:32:59Z</time>
      </trkpt>
      <trkpt lat="45.51446" lon="7.25238">
        <ele>3423</ele>
        <time>2021-11-07T10:33:03Z</time>
      </trkpt>
      <trkpt lat="45.51447" lon="7.25239">
        <ele>3423.2</ele>
        <time>2021-11-07T10:33:12Z</time>
      </trkpt>
      <trkpt lat="45.51448" lon="7.25239">
        <ele>3423.4</ele>
        <time>2021-11-07T10:33:15Z</time>
      </trkpt>
      <trkpt lat="45.51448" lon="7.25239">
        <ele>3423.4</ele>
        <time>2021-11-07T10:33:17Z</time>
      </trkpt>
      <trkpt lat="45.51448" lon="7.25239">
        <ele>3423.4</ele>
        <time>2021-11-07T10:33:21Z</time>
      </trkpt>
      <trkpt lat="45.51448" lon="7.25239">
        <ele>3423.5</ele>
        <time>2021-11-07T10:33:22Z</time>
      </trkpt>
      <trkpt lat="45.51448" lon="7.25239">
        <ele>3423.5</ele>
        <time>2021-11-07T10:33:26Z</time>
      </trkpt>
      <trkpt lat="45.51448" lon="7.25238">
        <ele>3423.5</ele>
        <time>2021-11-07T10:33:27Z</time>
      </trkpt>
      <trkpt lat="45.51449" lon="7.25239">
        <ele>3423.7</ele>
        <time>2021-11-07T10:33:32Z</time>
      </trkpt>
      <trkpt lat="45.51449" lon="7.25238">
        <ele>3423.9</ele>
        <time>2021-11-07T10:33:38Z</time>
      </trkpt>
      <trkpt lat="45.51452" lon="7.25242">
        <ele>3424.6</ele>
        <time>2021-11-07T10:33:48Z</time>
      </trkpt>
      <trkpt lat="45.51453" lon="7.25242">
        <ele>3424.7</ele>
        <time>2021-11-07T10:33:51Z</time>
      </trkpt>
      <trkpt lat="45.51453" lon="7.25241">
        <ele>3424.9</ele>
        <time>2021-11-07T10:33:57Z</time>
      </trkpt>
      <trkpt lat="45.51454" lon="7.25242">
        <ele>3425.1</ele>
        <time>2021-11-07T10:33:59Z</time>
      </trkpt>
      <trkpt lat="45.51457" lon="7.25243">
        <ele>3425.6</ele>
        <time>2021-11-07T10:34:08Z</time>
      </trkpt>
      <trkpt lat="45.51457" lon="7.25244">
        <ele>3425.8</ele>
        <time>2021-11-07T10:34:10Z</time>
      </trkpt>
      <trkpt lat="45.51457" lon="7.25244">
        <ele>3425.8</ele>
        <time>2021-11-07T10:34:13Z</time>
      </trkpt>
      <trkpt lat="45.51457" lon="7.25245">
        <ele>3426</ele>
        <time>2021-11-07T10:34:25Z</time>
      </trkpt>
      <trkpt lat="45.51458" lon="7.25245">
        <ele>3426.2</ele>
        <time>2021-11-07T10:34:33Z</time>
      </trkpt>
      <trkpt lat="45.51459" lon="7.25246">
        <ele>3426.4</ele>
        <time>2021-11-07T10:34:39Z</time>
      </trkpt>
      <trkpt lat="45.5146" lon="7.2525">
        <ele>3427.1</ele>
        <time>2021-11-07T10:34:45Z</time>
      </trkpt>
      <trkpt lat="45.51461" lon="7.2525">
        <ele>3427.1</ele>
        <time>2021-11-07T10:34:46Z</time>
      </trkpt>
      <trkpt lat="45.51461" lon="7.25251">
        <ele>3427.2</ele>
        <time>2021-11-07T10:34:47Z</time>
      </trkpt>
      <trkpt lat="45.5146" lon="7.25251">
        <ele>3427.2</ele>
        <time>2021-11-07T10:34:48Z</time>
      </trkpt>
      <trkpt lat="45.5146" lon="7.25251">
        <ele>3427.3</ele>
        <time>2021-11-07T10:34:49Z</time>
      </trkpt>
      <trkpt lat="45.51459" lon="7.25252">
        <ele>3427.5</ele>
        <time>2021-11-07T10:34:51Z</time>
      </trkpt>
      <trkpt lat="45.51458" lon="7.25255">
        <ele>3427.9</ele>
        <time>2021-11-07T10:34:54Z</time>
      </trkpt>
      <trkpt lat="45.51458" lon="7.25255">
        <ele>3428</ele>
        <time>2021-11-07T10:34:55Z</time>
      </trkpt>
      <trkpt lat="45.51458" lon="7.25257">
        <ele>3428.2</ele>
        <time>2021-11-07T10:34:57Z</time>
      </trkpt>
      <trkpt lat="45.51457" lon="7.25258">
        <ele>3428.5</ele>
        <time>2021-11-07T10:35:00Z</time>
      </trkpt>
      <trkpt lat="45.51458" lon="7.25259">
        <ele>3428.6</ele>
        <time>2021-11-07T10:35:03Z</time>
      </trkpt>
      <trkpt lat="45.5146" lon="7.25258">
        <ele>3429</ele>
        <time>2021-11-07T10:35:10Z</time>
      </trkpt>
      <trkpt lat="45.5146" lon="7.25258">
        <ele>3429</ele>
        <time>2021-11-07T10:35:11Z</time>
      </trkpt>
      <trkpt lat="45.51461" lon="7.2526">
        <ele>3429.3</ele>
        <time>2021-11-07T10:35:16Z</time>
      </trkpt>
      <trkpt lat="45.51462" lon="7.25261">
        <ele>3429.6</ele>
        <time>2021-11-07T10:35:20Z</time>
      </trkpt>
      <trkpt lat="45.51463" lon="7.25262">
        <ele>3429.9</ele>
        <time>2021-11-07T10:35:22Z</time>
      </trkpt>
      <trkpt lat="45.51466" lon="7.25265">
        <ele>3430.5</ele>
        <time>2021-11-07T10:35:28Z</time>
      </trkpt>
      <trkpt lat="45.51466" lon="7.25265">
        <ele>3430.6</ele>
        <time>2021-11-07T10:35:31Z</time>
      </trkpt>
      <trkpt lat="45.51467" lon="7.25266">
        <ele>3430.8</ele>
        <time>2021-11-07T10:35:35Z</time>
      </trkpt>
      <trkpt lat="45.51468" lon="7.25267">
        <ele>3431</ele>
        <time>2021-11-07T10:35:37Z</time>
      </trkpt>
      <trkpt lat="45.51468" lon="7.25268">
        <ele>3431.2</ele>
        <time>2021-11-07T10:35:40Z</time>
      </trkpt>
      <trkpt lat="45.51469" lon="7.25269">
        <ele>3431.3</ele>
        <time>2021-11-07T10:35:41Z</time>
      </trkpt>
      <trkpt lat="45.51469" lon="7.25269">
        <ele>3431.3</ele>
        <time>2021-11-07T10:35:42Z</time>
      </trkpt>
      <trkpt lat="45.51469" lon="7.25269">
        <ele>3431.4</ele>
        <time>2021-11-07T10:35:43Z</time>
      </trkpt>
      <trkpt lat="45.51471" lon="7.25271">
        <ele>3431.8</ele>
        <time>2021-11-07T10:35:47Z</time>
      </trkpt>
      <trkpt lat="45.51473" lon="7.25273">
        <ele>3432.3</ele>
        <time>2021-11-07T10:35:51Z</time>
      </trkpt>
      <trkpt lat="45.51474" lon="7.25274">
        <ele>3432.6</ele>
        <time>2021-11-07T10:35:53Z</time>
      </trkpt>
      <trkpt lat="45.51476" lon="7.25274">
        <ele>3432.9</ele>
        <time>2021-11-07T10:35:56Z</time>
      </trkpt>
      <trkpt lat="45.51476" lon="7.25274">
        <ele>3433</ele>
        <time>2021-11-07T10:35:57Z</time>
      </trkpt>
      <trkpt lat="45.51477" lon="7.25275">
        <ele>3433.2</ele>
        <time>2021-11-07T10:36:01Z</time>
      </trkpt>
      <trkpt lat="45.51477" lon="7.25276">
        <ele>3433.4</ele>
        <time>2021-11-07T10:36:03Z</time>
      </trkpt>
      <trkpt lat="45.51477" lon="7.25276">
        <ele>3433.5</ele>
        <time>2021-11-07T10:36:07Z</time>
      </trkpt>
      <trkpt lat="45.51478" lon="7.25276">
        <ele>3433.5</ele>
        <time>2021-11-07T10:36:08Z</time>
      </trkpt>
      <trkpt lat="45.5148" lon="7.25278">
        <ele>3434</ele>
        <time>2021-11-07T10:36:16Z</time>
      </trkpt>
      <trkpt lat="45.51481" lon="7.25278">
        <ele>3434.2</ele>
        <time>2021-11-07T10:36:18Z</time>
      </trkpt>
      <trkpt lat="45.51482" lon="7.25279">
        <ele>3434.5</ele>
        <time>2021-11-07T10:36:27Z</time>
      </trkpt>
      <trkpt lat="45.51483" lon="7.2528">
        <ele>3434.7</ele>
        <time>2021-11-07T10:36:32Z</time>
      </trkpt>
      <trkpt lat="45.51483" lon="7.25281">
        <ele>3434.8</ele>
        <time>2021-11-07T10:36:33Z</time>
      </trkpt>
      <trkpt lat="45.51483" lon="7.25281">
        <ele>3434.8</ele>
        <time>2021-11-07T10:36:34Z</time>
      </trkpt>
      <trkpt lat="45.51483" lon="7.25281">
        <ele>3434.9</ele>
        <time>2021-11-07T10:36:35Z</time>
      </trkpt>
      <trkpt lat="45.51483" lon="7.25281">
        <ele>3434.9</ele>
        <time>2021-11-07T10:36:36Z</time>
      </trkpt>
      <trkpt lat="45.51483" lon="7.25281">
        <ele>3434.9</ele>
        <time>2021-11-07T10:36:38Z</time>
      </trkpt>
      <trkpt lat="45.51485" lon="7.25282">
        <ele>3435.2</ele>
        <time>2021-11-07T10:36:51Z</time>
      </trkpt>
      <trkpt lat="45.51486" lon="7.25283">
        <ele>3435.4</ele>
        <time>2021-11-07T10:36:54Z</time>
      </trkpt>
      <trkpt lat="45.51486" lon="7.25284">
        <ele>3435.6</ele>
        <time>2021-11-07T10:36:57Z</time>
      </trkpt>
      <trkpt lat="45.51485" lon="7.25284">
        <ele>3435.7</ele>
        <time>2021-11-07T10:37:02Z</time>
      </trkpt>
      <trkpt lat="45.51486" lon="7.25285">
        <ele>3435.8</ele>
        <time>2021-11-07T10:37:04Z</time>
      </trkpt>
      <trkpt lat="45.51486" lon="7.25286">
        <ele>3436</ele>
        <time>2021-11-07T10:37:08Z</time>
      </trkpt>
      <trkpt lat="45.51486" lon="7.25289">
        <ele>3436.5</ele>
        <time>2021-11-07T10:37:15Z</time>
      </trkpt>
      <trkpt lat="45.51486" lon="7.25289">
        <ele>3436.5</ele>
        <time>2021-11-07T10:37:19Z</time>
      </trkpt>
      <trkpt lat="45.51486" lon="7.25289">
        <ele>3436.5</ele>
        <time>2021-11-07T10:37:20Z</time>
      </trkpt>
      <trkpt lat="45.51486" lon="7.25289">
        <ele>3436.5</ele>
        <time>2021-11-07T10:37:21Z</time>
      </trkpt>
      <trkpt lat="45.51486" lon="7.25289">
        <ele>3436.5</ele>
        <time>2021-11-07T10:37:22Z</time>
      </trkpt>
      <trkpt lat="45.51487" lon="7.2529">
        <ele>3436.7</ele>
        <time>2021-11-07T10:37:28Z</time>
      </trkpt>
      <trkpt lat="45.51488" lon="7.25291">
        <ele>3436.9</ele>
        <time>2021-11-07T10:37:30Z</time>
      </trkpt>
      <trkpt lat="45.51488" lon="7.25293">
        <ele>3437.2</ele>
        <time>2021-11-07T10:37:35Z</time>
      </trkpt>
      <trkpt lat="45.51487" lon="7.25293">
        <ele>3437.3</ele>
        <time>2021-11-07T10:37:36Z</time>
      </trkpt>
      <trkpt lat="45.51487" lon="7.25293">
        <ele>3437.3</ele>
        <time>2021-11-07T10:37:38Z</time>
      </trkpt>
      <trkpt lat="45.51487" lon="7.25293">
        <ele>3437.4</ele>
        <time>2021-11-07T10:37:45Z</time>
      </trkpt>
      <trkpt lat="45.51487" lon="7.25293">
        <ele>3437.4</ele>
        <time>2021-11-07T10:37:47Z</time>
      </trkpt>
      <trkpt lat="45.51486" lon="7.25294">
        <ele>3437.8</ele>
        <time>2021-11-07T10:37:52Z</time>
      </trkpt>
      <trkpt lat="45.51485" lon="7.25294">
        <ele>3438</ele>
        <time>2021-11-07T10:37:57Z</time>
      </trkpt>
      <trkpt lat="45.51485" lon="7.25294">
        <ele>3438</ele>
        <time>2021-11-07T10:37:58Z</time>
      </trkpt>
      <trkpt lat="45.51484" lon="7.25294">
        <ele>3438.1</ele>
        <time>2021-11-07T10:37:59Z</time>
      </trkpt>
      <trkpt lat="45.51483" lon="7.25294">
        <ele>3438.3</ele>
        <time>2021-11-07T10:38:01Z</time>
      </trkpt>
      <trkpt lat="45.51479" lon="7.25296">
        <ele>3439.1</ele>
        <time>2021-11-07T10:38:09Z</time>
      </trkpt>
      <trkpt lat="45.51479" lon="7.25298">
        <ele>3439.4</ele>
        <time>2021-11-07T10:38:12Z</time>
      </trkpt>
      <trkpt lat="45.51478" lon="7.25299">
        <ele>3439.6</ele>
        <time>2021-11-07T10:38:14Z</time>
      </trkpt>
      <trkpt lat="45.51478" lon="7.253">
        <ele>3439.8</ele>
        <time>2021-11-07T10:38:18Z</time>
      </trkpt>
      <trkpt lat="45.51479" lon="7.25302">
        <ele>3440.1</ele>
        <time>2021-11-07T10:38:21Z</time>
      </trkpt>
      <trkpt lat="45.5148" lon="7.25305">
        <ele>3440.6</ele>
        <time>2021-11-07T10:38:27Z</time>
      </trkpt>
      <trkpt lat="45.5148" lon="7.25305">
        <ele>3440.7</ele>
        <time>2021-11-07T10:38:28Z</time>
      </trkpt>
      <trkpt lat="45.5148" lon="7.25305">
        <ele>3440.7</ele>
        <time>2021-11-07T10:38:32Z</time>
      </trkpt>
      <trkpt lat="45.5148" lon="7.25305">
        <ele>3440.7</ele>
        <time>2021-11-07T10:38:34Z</time>
      </trkpt>
      <trkpt lat="45.51481" lon="7.25305">
        <ele>3440.8</ele>
        <time>2021-11-07T10:38:36Z</time>
      </trkpt>
      <trkpt lat="45.51481" lon="7.25305">
        <ele>3440.9</ele>
        <time>2021-11-07T10:38:37Z</time>
      </trkpt>
      <trkpt lat="45.51483" lon="7.25308">
        <ele>3441.4</ele>
        <time>2021-11-07T10:38:43Z</time>
      </trkpt>
      <trkpt lat="45.51482" lon="7.25312">
        <ele>3442</ele>
        <time>2021-11-07T10:38:49Z</time>
      </trkpt>
      <trkpt lat="45.51483" lon="7.25314">
        <ele>3442.3</ele>
        <time>2021-11-07T10:38:53Z</time>
      </trkpt>
      <trkpt lat="45.51483" lon="7.25315">
        <ele>3442.5</ele>
        <time>2021-11-07T10:38:54Z</time>
      </trkpt>
      <trkpt lat="45.51482" lon="7.25318">
        <ele>3443</ele>
        <time>2021-11-07T10:38:59Z</time>
      </trkpt>
      <trkpt lat="45.51481" lon="7.25321">
        <ele>3443.3</ele>
        <time>2021-11-07T10:39:02Z</time>
      </trkpt>
      <trkpt lat="45.5148" lon="7.25323">
        <ele>3443.7</ele>
        <time>2021-11-07T10:39:05Z</time>
      </trkpt>
      <trkpt lat="45.51479" lon="7.25323">
        <ele>3443.8</ele>
        <time>2021-11-07T10:39:06Z</time>
      </trkpt>
      <trkpt lat="45.51479" lon="7.25324">
        <ele>3443.9</ele>
        <time>2021-11-07T10:39:09Z</time>
      </trkpt>
      <trkpt lat="45.51479" lon="7.25328">
        <ele>3444.5</ele>
        <time>2021-11-07T10:39:16Z</time>
      </trkpt>
      <trkpt lat="45.51479" lon="7.25329">
        <ele>3444.5</ele>
        <time>2021-11-07T10:39:17Z</time>
      </trkpt>
      <trkpt lat="45.51478" lon="7.2533">
        <ele>3444.8</ele>
        <time>2021-11-07T10:39:20Z</time>
      </trkpt>
      <trkpt lat="45.51478" lon="7.25331">
        <ele>3444.9</ele>
        <time>2021-11-07T10:39:21Z</time>
      </trkpt>
      <trkpt lat="45.51476" lon="7.25333">
        <ele>3445.4</ele>
        <time>2021-11-07T10:39:27Z</time>
      </trkpt>
      <trkpt lat="45.51476" lon="7.25334">
        <ele>3445.5</ele>
        <time>2021-11-07T10:39:29Z</time>
      </trkpt>
      <trkpt lat="45.51476" lon="7.25336">
        <ele>3445.8</ele>
        <time>2021-11-07T10:39:32Z</time>
      </trkpt>
      <trkpt lat="45.51475" lon="7.25339">
        <ele>3446.2</ele>
        <time>2021-11-07T10:39:36Z</time>
      </trkpt>
      <trkpt lat="45.51475" lon="7.25341">
        <ele>3446.4</ele>
        <time>2021-11-07T10:39:39Z</time>
      </trkpt>
      <trkpt lat="45.51475" lon="7.25341">
        <ele>3446.5</ele>
        <time>2021-11-07T10:39:40Z</time>
      </trkpt>
      <trkpt lat="45.51474" lon="7.25343">
        <ele>3446.8</ele>
        <time>2021-11-07T10:39:43Z</time>
      </trkpt>
      <trkpt lat="45.51474" lon="7.25344">
        <ele>3446.9</ele>
        <time>2021-11-07T10:39:44Z</time>
      </trkpt>
      <trkpt lat="45.51473" lon="7.25346">
        <ele>3447.3</ele>
        <time>2021-11-07T10:39:50Z</time>
      </trkpt>
      <trkpt lat="45.51473" lon="7.25347">
        <ele>3447.4</ele>
        <time>2021-11-07T10:39:51Z</time>
      </trkpt>
      <trkpt lat="45.51474" lon="7.25348">
        <ele>3447.6</ele>
        <time>2021-11-07T10:39:53Z</time>
      </trkpt>
      <trkpt lat="45.51474" lon="7.25349">
        <ele>3447.7</ele>
        <time>2021-11-07T10:39:54Z</time>
      </trkpt>
      <trkpt lat="45.51474" lon="7.2535">
        <ele>3447.8</ele>
        <time>2021-11-07T10:39:56Z</time>
      </trkpt>
      <trkpt lat="45.51473" lon="7.25351">
        <ele>3448</ele>
        <time>2021-11-07T10:40:00Z</time>
      </trkpt>
      <trkpt lat="45.51473" lon="7.25352">
        <ele>3448.1</ele>
        <time>2021-11-07T10:40:02Z</time>
      </trkpt>
      <trkpt lat="45.51474" lon="7.25352">
        <ele>3448.1</ele>
        <time>2021-11-07T10:40:03Z</time>
      </trkpt>
      <trkpt lat="45.51474" lon="7.25354">
        <ele>3448.4</ele>
        <time>2021-11-07T10:40:08Z</time>
      </trkpt>
      <trkpt lat="45.51473" lon="7.25356">
        <ele>3448.7</ele>
        <time>2021-11-07T10:40:13Z</time>
      </trkpt>
      <trkpt lat="45.51473" lon="7.25357">
        <ele>3448.9</ele>
        <time>2021-11-07T10:40:16Z</time>
      </trkpt>
      <trkpt lat="45.51473" lon="7.25357">
        <ele>3449</ele>
        <time>2021-11-07T10:40:17Z</time>
      </trkpt>
      <trkpt lat="45.51473" lon="7.25359">
        <ele>3449.2</ele>
        <time>2021-11-07T10:40:20Z</time>
      </trkpt>
      <trkpt lat="45.51473" lon="7.2536">
        <ele>3449.3</ele>
        <time>2021-11-07T10:40:21Z</time>
      </trkpt>
      <trkpt lat="45.51473" lon="7.25362">
        <ele>3449.7</ele>
        <time>2021-11-07T10:40:24Z</time>
      </trkpt>
      <trkpt lat="45.51473" lon="7.25363">
        <ele>3449.7</ele>
        <time>2021-11-07T10:40:25Z</time>
      </trkpt>
      <trkpt lat="45.51473" lon="7.25363">
        <ele>3449.7</ele>
        <time>2021-11-07T10:40:26Z</time>
      </trkpt>
      <trkpt lat="45.51472" lon="7.25364">
        <ele>3449.9</ele>
        <time>2021-11-07T10:40:27Z</time>
      </trkpt>
      <trkpt lat="45.51472" lon="7.25366">
        <ele>3450.2</ele>
        <time>2021-11-07T10:40:30Z</time>
      </trkpt>
      <trkpt lat="45.51472" lon="7.25367">
        <ele>3450.3</ele>
        <time>2021-11-07T10:40:32Z</time>
      </trkpt>
      <trkpt lat="45.51472" lon="7.25367">
        <ele>3450.4</ele>
        <time>2021-11-07T10:40:33Z</time>
      </trkpt>
      <trkpt lat="45.51472" lon="7.25369">
        <ele>3450.6</ele>
        <time>2021-11-07T10:40:40Z</time>
      </trkpt>
      <trkpt lat="45.51471" lon="7.25371">
        <ele>3451</ele>
        <time>2021-11-07T10:40:44Z</time>
      </trkpt>
      <trkpt lat="45.51471" lon="7.25371">
        <ele>3451</ele>
        <time>2021-11-07T10:40:45Z</time>
      </trkpt>
      <trkpt lat="45.51471" lon="7.25372">
        <ele>3451.1</ele>
        <time>2021-11-07T10:40:47Z</time>
      </trkpt>
      <trkpt lat="45.51471" lon="7.25373">
        <ele>3451.3</ele>
        <time>2021-11-07T10:40:48Z</time>
      </trkpt>
      <trkpt lat="45.5147" lon="7.25375">
        <ele>3451.6</ele>
        <time>2021-11-07T10:40:52Z</time>
      </trkpt>
      <trkpt lat="45.5147" lon="7.25375">
        <ele>3451.6</ele>
        <time>2021-11-07T10:40:53Z</time>
      </trkpt>
      <trkpt lat="45.51471" lon="7.25375">
        <ele>3451.8</ele>
        <time>2021-11-07T10:40:54Z</time>
      </trkpt>
      <trkpt lat="45.51472" lon="7.25377">
        <ele>3452</ele>
        <time>2021-11-07T10:40:57Z</time>
      </trkpt>
      <trkpt lat="45.51473" lon="7.25378">
        <ele>3452.4</ele>
        <time>2021-11-07T10:41:06Z</time>
      </trkpt>
      <trkpt lat="45.51474" lon="7.2538">
        <ele>3452.7</ele>
        <time>2021-11-07T10:41:10Z</time>
      </trkpt>
      <trkpt lat="45.51474" lon="7.2538">
        <ele>3452.7</ele>
        <time>2021-11-07T10:41:11Z</time>
      </trkpt>
      <trkpt lat="45.51475" lon="7.25382">
        <ele>3453</ele>
        <time>2021-11-07T10:41:14Z</time>
      </trkpt>
      <trkpt lat="45.51475" lon="7.25382">
        <ele>3453.1</ele>
        <time>2021-11-07T10:41:15Z</time>
      </trkpt>
      <trkpt lat="45.51475" lon="7.25383">
        <ele>3453.2</ele>
        <time>2021-11-07T10:41:17Z</time>
      </trkpt>
      <trkpt lat="45.51476" lon="7.25386">
        <ele>3453.7</ele>
        <time>2021-11-07T10:41:22Z</time>
      </trkpt>
      <trkpt lat="45.51475" lon="7.25387">
        <ele>3454</ele>
        <time>2021-11-07T10:41:25Z</time>
      </trkpt>
      <trkpt lat="45.51474" lon="7.25387">
        <ele>3454.1</ele>
        <time>2021-11-07T10:41:26Z</time>
      </trkpt>
      <trkpt lat="45.51472" lon="7.25389">
        <ele>3454.6</ele>
        <time>2021-11-07T10:41:32Z</time>
      </trkpt>
      <trkpt lat="45.51471" lon="7.2539">
        <ele>3454.8</ele>
        <time>2021-11-07T10:41:34Z</time>
      </trkpt>
      <trkpt lat="45.51471" lon="7.25391">
        <ele>3454.9</ele>
        <time>2021-11-07T10:41:35Z</time>
      </trkpt>
      <trkpt lat="45.5147" lon="7.25392">
        <ele>3455.2</ele>
        <time>2021-11-07T10:41:39Z</time>
      </trkpt>
      <trkpt lat="45.51469" lon="7.25392">
        <ele>3455.3</ele>
        <time>2021-11-07T10:41:45Z</time>
      </trkpt>
      <trkpt lat="45.51469" lon="7.25392">
        <ele>3455.3</ele>
        <time>2021-11-07T10:41:48Z</time>
      </trkpt>
      <trkpt lat="45.51469" lon="7.25392">
        <ele>3455.3</ele>
        <time>2021-11-07T10:41:50Z</time>
      </trkpt>
      <trkpt lat="45.51469" lon="7.25392">
        <ele>3455.3</ele>
        <time>2021-11-07T10:41:53Z</time>
      </trkpt>
      <trkpt lat="45.51467" lon="7.25394">
        <ele>3455.8</ele>
        <time>2021-11-07T10:42:01Z</time>
      </trkpt>
      <trkpt lat="45.51467" lon="7.25394">
        <ele>3455.8</ele>
        <time>2021-11-07T10:42:02Z</time>
      </trkpt>
      <trkpt lat="45.51467" lon="7.25394">
        <ele>3455.9</ele>
        <time>2021-11-07T10:42:03Z</time>
      </trkpt>
      <trkpt lat="45.51467" lon="7.25394">
        <ele>3455.9</ele>
        <time>2021-11-07T10:42:04Z</time>
      </trkpt>
      <trkpt lat="45.51466" lon="7.25394">
        <ele>3456</ele>
        <time>2021-11-07T10:42:05Z</time>
      </trkpt>
      <trkpt lat="45.51465" lon="7.25394">
        <ele>3456.2</ele>
        <time>2021-11-07T10:42:11Z</time>
      </trkpt>
      <trkpt lat="45.51463" lon="7.25395">
        <ele>3456.8</ele>
        <time>2021-11-07T10:42:16Z</time>
      </trkpt>
      <trkpt lat="45.51462" lon="7.25395">
        <ele>3456.9</ele>
        <time>2021-11-07T10:42:17Z</time>
      </trkpt>
      <trkpt lat="45.51461" lon="7.25396">
        <ele>3457</ele>
        <time>2021-11-07T10:42:19Z</time>
      </trkpt>
      <trkpt lat="45.51463" lon="7.25395">
        <ele>3457.3</ele>
        <time>2021-11-07T10:42:27Z</time>
      </trkpt>
      <trkpt lat="45.51464" lon="7.25395">
        <ele>3457.5</ele>
        <time>2021-11-07T10:42:37Z</time>
      </trkpt>
      <trkpt lat="45.51464" lon="7.25395">
        <ele>3457.6</ele>
        <time>2021-11-07T10:42:38Z</time>
      </trkpt>
      <trkpt lat="45.51465" lon="7.25396">
        <ele>3457.7</ele>
        <time>2021-11-07T10:42:43Z</time>
      </trkpt>
      <trkpt lat="45.51465" lon="7.25396">
        <ele>3457.9</ele>
        <time>2021-11-07T10:42:46Z</time>
      </trkpt>
      <trkpt lat="45.51466" lon="7.25398">
        <ele>3458.1</ele>
        <time>2021-11-07T10:42:49Z</time>
      </trkpt>
      <trkpt lat="45.51466" lon="7.25398">
        <ele>3458.2</ele>
        <time>2021-11-07T10:42:50Z</time>
      </trkpt>
      <trkpt lat="45.51469" lon="7.25401">
        <ele>3458.8</ele>
        <time>2021-11-07T10:43:02Z</time>
      </trkpt>
      <trkpt lat="45.51469" lon="7.25401">
        <ele>3458.8</ele>
        <time>2021-11-07T10:43:03Z</time>
      </trkpt>
      <trkpt lat="45.51469" lon="7.254">
        <ele>3458.9</ele>
        <time>2021-11-07T10:43:10Z</time>
      </trkpt>
      <trkpt lat="45.51469" lon="7.254">
        <ele>3459</ele>
        <time>2021-11-07T10:43:14Z</time>
      </trkpt>
      <trkpt lat="45.5147" lon="7.254">
        <ele>3459.2</ele>
        <time>2021-11-07T10:43:17Z</time>
      </trkpt>
      <trkpt lat="45.51473" lon="7.25404">
        <ele>3459.9</ele>
        <time>2021-11-07T10:43:24Z</time>
      </trkpt>
      <trkpt lat="45.51473" lon="7.25404">
        <ele>3460</ele>
        <time>2021-11-07T10:43:26Z</time>
      </trkpt>
      <trkpt lat="45.51473" lon="7.25406">
        <ele>3460.3</ele>
        <time>2021-11-07T10:43:30Z</time>
      </trkpt>
      <trkpt lat="45.51471" lon="7.25407">
        <ele>3460.6</ele>
        <time>2021-11-07T10:43:34Z</time>
      </trkpt>
      <trkpt lat="45.51471" lon="7.25406">
        <ele>3460.7</ele>
        <time>2021-11-07T10:43:36Z</time>
      </trkpt>
      <trkpt lat="45.51469" lon="7.25407">
        <ele>3461.1</ele>
        <time>2021-11-07T10:43:39Z</time>
      </trkpt>
      <trkpt lat="45.51467" lon="7.25407">
        <ele>3461.5</ele>
        <time>2021-11-07T10:43:42Z</time>
      </trkpt>
      <trkpt lat="45.51466" lon="7.25408">
        <ele>3461.7</ele>
        <time>2021-11-07T10:43:45Z</time>
      </trkpt>
      <trkpt lat="45.51465" lon="7.25408">
        <ele>3461.9</ele>
        <time>2021-11-07T10:43:46Z</time>
      </trkpt>
      <trkpt lat="45.51464" lon="7.25409">
        <ele>3462.2</ele>
        <time>2021-11-07T10:43:51Z</time>
      </trkpt>
      <trkpt lat="45.51464" lon="7.25408">
        <ele>3462.3</ele>
        <time>2021-11-07T10:43:58Z</time>
      </trkpt>
      <trkpt lat="45.51463" lon="7.25408">
        <ele>3462.3</ele>
        <time>2021-11-07T10:44:06Z</time>
      </trkpt>
      <trkpt lat="45.51463" lon="7.25408">
        <ele>3462.4</ele>
        <time>2021-11-07T10:44:15Z</time>
      </trkpt>
      <trkpt lat="45.51463" lon="7.25409">
        <ele>3462.4</ele>
        <time>2021-11-07T10:44:18Z</time>
      </trkpt>
      <trkpt lat="45.51464" lon="7.25408">
        <ele>3462.5</ele>
        <time>2021-11-07T10:44:22Z</time>
      </trkpt>
      <trkpt lat="45.51464" lon="7.25408">
        <ele>3462.5</ele>
        <time>2021-11-07T10:44:25Z</time>
      </trkpt>
      <trkpt lat="45.51464" lon="7.25408">
        <ele>3462.6</ele>
        <time>2021-11-07T10:44:28Z</time>
      </trkpt>
      <trkpt lat="45.51463" lon="7.25407">
        <ele>3462.9</ele>
        <time>2021-11-07T10:44:35Z</time>
      </trkpt>
      <trkpt lat="45.51462" lon="7.25407">
        <ele>3463.1</ele>
        <time>2021-11-07T10:44:37Z</time>
      </trkpt>
      <trkpt lat="45.51459" lon="7.25406">
        <ele>3463.7</ele>
        <time>2021-11-07T10:44:46Z</time>
      </trkpt>
      <trkpt lat="45.51454" lon="7.25405">
        <ele>3464.7</ele>
        <time>2021-11-07T10:44:58Z</time>
      </trkpt>
      <trkpt lat="45.51451" lon="7.25405">
        <ele>3465.3</ele>
        <time>2021-11-07T10:45:08Z</time>
      </trkpt>
      <trkpt lat="45.5145" lon="7.25405">
        <ele>3465.5</ele>
        <time>2021-11-07T10:45:13Z</time>
      </trkpt>
      <trkpt lat="45.5145" lon="7.25405">
        <ele>3465.5</ele>
        <time>2021-11-07T10:45:14Z</time>
      </trkpt>
      <trkpt lat="45.5145" lon="7.25405">
        <ele>3465.5</ele>
        <time>2021-11-07T10:45:20Z</time>
      </trkpt>
      <trkpt lat="45.5145" lon="7.25405">
        <ele>3465.5</ele>
        <time>2021-11-07T10:45:21Z</time>
      </trkpt>
      <trkpt lat="45.5145" lon="7.25404">
        <ele>3465.7</ele>
        <time>2021-11-07T10:45:26Z</time>
      </trkpt>
      <trkpt lat="45.51449" lon="7.25403">
        <ele>3465.9</ele>
        <time>2021-11-07T10:45:30Z</time>
      </trkpt>
      <trkpt lat="45.51448" lon="7.25403">
        <ele>3466</ele>
        <time>2021-11-07T10:45:32Z</time>
      </trkpt>
      <trkpt lat="45.51448" lon="7.25403">
        <ele>3466</ele>
        <time>2021-11-07T10:45:33Z</time>
      </trkpt>
      <trkpt lat="45.51446" lon="7.25403">
        <ele>3466.4</ele>
        <time>2021-11-07T10:45:37Z</time>
      </trkpt>
      <trkpt lat="45.51446" lon="7.25403">
        <ele>3466.5</ele>
        <time>2021-11-07T10:45:38Z</time>
      </trkpt>
      <trkpt lat="45.51446" lon="7.25404">
        <ele>3466.5</ele>
        <time>2021-11-07T10:45:39Z</time>
      </trkpt>
      <trkpt lat="45.51444" lon="7.25404">
        <ele>3466.8</ele>
        <time>2021-11-07T10:45:43Z</time>
      </trkpt>
      <trkpt lat="45.51444" lon="7.25404">
        <ele>3466.8</ele>
        <time>2021-11-07T10:45:44Z</time>
      </trkpt>
      <trkpt lat="45.51444" lon="7.25405">
        <ele>3466.9</ele>
        <time>2021-11-07T10:45:49Z</time>
      </trkpt>
      <trkpt lat="45.51443" lon="7.25405">
        <ele>3467</ele>
        <time>2021-11-07T10:45:54Z</time>
      </trkpt>
      <trkpt lat="45.51443" lon="7.25405">
        <ele>3467.1</ele>
        <time>2021-11-07T10:45:56Z</time>
      </trkpt>
      <trkpt lat="45.51442" lon="7.25405">
        <ele>3467.2</ele>
        <time>2021-11-07T10:45:58Z</time>
      </trkpt>
      <trkpt lat="45.51442" lon="7.25404">
        <ele>3467.3</ele>
        <time>2021-11-07T10:46:02Z</time>
      </trkpt>
      <trkpt lat="45.51439" lon="7.25405">
        <ele>3467.9</ele>
        <time>2021-11-07T10:46:10Z</time>
      </trkpt>
      <trkpt lat="45.51438" lon="7.25405">
        <ele>3468.1</ele>
        <time>2021-11-07T10:46:16Z</time>
      </trkpt>
      <trkpt lat="45.51437" lon="7.25404">
        <ele>3468.3</ele>
        <time>2021-11-07T10:46:20Z</time>
      </trkpt>
      <trkpt lat="45.51436" lon="7.25404">
        <ele>3468.5</ele>
        <time>2021-11-07T10:46:22Z</time>
      </trkpt>
      <trkpt lat="45.51435" lon="7.25402">
        <ele>3468.9</ele>
        <time>2021-11-07T10:46:27Z</time>
      </trkpt>
      <trkpt lat="45.51434" lon="7.25402">
        <ele>3469</ele>
        <time>2021-11-07T10:46:29Z</time>
      </trkpt>
      <trkpt lat="45.51434" lon="7.25401">
        <ele>3469</ele>
        <time>2021-11-07T10:46:30Z</time>
      </trkpt>
      <trkpt lat="45.51434" lon="7.25401">
        <ele>3469.1</ele>
        <time>2021-11-07T10:46:31Z</time>
      </trkpt>
      <trkpt lat="45.51434" lon="7.254">
        <ele>3469.1</ele>
        <time>2021-11-07T10:46:33Z</time>
      </trkpt>
      <trkpt lat="45.51434" lon="7.25399">
        <ele>3469.3</ele>
        <time>2021-11-07T10:46:40Z</time>
      </trkpt>
      <trkpt lat="45.51434" lon="7.25399">
        <ele>3469.3</ele>
        <time>2021-11-07T10:46:42Z</time>
      </trkpt>
      <trkpt lat="45.51434" lon="7.25399">
        <ele>3469.4</ele>
        <time>2021-11-07T10:46:43Z</time>
      </trkpt>
      <trkpt lat="45.51432" lon="7.25399">
        <ele>3469.8</ele>
        <time>2021-11-07T10:46:51Z</time>
      </trkpt>
      <trkpt lat="45.51432" lon="7.25399">
        <ele>3469.8</ele>
        <time>2021-11-07T10:46:52Z</time>
      </trkpt>
      <trkpt lat="45.5143" lon="7.25399">
        <ele>3470.1</ele>
        <time>2021-11-07T10:46:55Z</time>
      </trkpt>
      <trkpt lat="45.5143" lon="7.254">
        <ele>3470.2</ele>
        <time>2021-11-07T10:46:59Z</time>
      </trkpt>
      <trkpt lat="45.5143" lon="7.254">
        <ele>3470.2</ele>
        <time>2021-11-07T10:47:00Z</time>
      </trkpt>
      <trkpt lat="45.51429" lon="7.25401">
        <ele>3470.5</ele>
        <time>2021-11-07T10:47:05Z</time>
      </trkpt>
      <trkpt lat="45.51427" lon="7.25403">
        <ele>3470.9</ele>
        <time>2021-11-07T10:47:10Z</time>
      </trkpt>
      <trkpt lat="45.51425" lon="7.25403">
        <ele>3471.3</ele>
        <time>2021-11-07T10:47:15Z</time>
      </trkpt>
      <trkpt lat="45.51424" lon="7.25403">
        <ele>3471.5</ele>
        <time>2021-11-07T10:47:18Z</time>
      </trkpt>
      <trkpt lat="45.51423" lon="7.25403">
        <ele>3471.7</ele>
        <time>2021-11-07T10:47:21Z</time>
      </trkpt>
      <trkpt lat="45.51423" lon="7.25404">
        <ele>3471.8</ele>
        <time>2021-11-07T10:47:23Z</time>
      </trkpt>
      <trkpt lat="45.51423" lon="7.25404">
        <ele>3471.8</ele>
        <time>2021-11-07T10:47:25Z</time>
      </trkpt>
      <trkpt lat="45.51422" lon="7.25403">
        <ele>3472.1</ele>
        <time>2021-11-07T10:47:29Z</time>
      </trkpt>
      <trkpt lat="45.51418" lon="7.25403">
        <ele>3472.8</ele>
        <time>2021-11-07T10:47:37Z</time>
      </trkpt>
      <trkpt lat="45.51418" lon="7.25402">
        <ele>3472.8</ele>
        <time>2021-11-07T10:47:38Z</time>
      </trkpt>
      <trkpt lat="45.51418" lon="7.25402">
        <ele>3472.9</ele>
        <time>2021-11-07T10:47:39Z</time>
      </trkpt>
      <trkpt lat="45.51418" lon="7.25402">
        <ele>3472.9</ele>
        <time>2021-11-07T10:47:41Z</time>
      </trkpt>
      <trkpt lat="45.51418" lon="7.25402">
        <ele>3472.9</ele>
        <time>2021-11-07T10:47:42Z</time>
      </trkpt>
      <trkpt lat="45.51418" lon="7.25402">
        <ele>3473</ele>
        <time>2021-11-07T10:47:53Z</time>
      </trkpt>
      <trkpt lat="45.51416" lon="7.25402">
        <ele>3473.3</ele>
        <time>2021-11-07T10:48:00Z</time>
      </trkpt>
      <trkpt lat="45.51415" lon="7.25403">
        <ele>3473.5</ele>
        <time>2021-11-07T10:48:03Z</time>
      </trkpt>
      <trkpt lat="45.51414" lon="7.25402">
        <ele>3473.6</ele>
        <time>2021-11-07T10:48:05Z</time>
      </trkpt>
      <trkpt lat="45.51414" lon="7.25403">
        <ele>3473.7</ele>
        <time>2021-11-07T10:48:07Z</time>
      </trkpt>
      <trkpt lat="45.51413" lon="7.25403">
        <ele>3474</ele>
        <time>2021-11-07T10:48:11Z</time>
      </trkpt>
      <trkpt lat="45.51411" lon="7.25403">
        <ele>3474.2</ele>
        <time>2021-11-07T10:48:15Z</time>
      </trkpt>
      <trkpt lat="45.51411" lon="7.25403">
        <ele>3474.2</ele>
        <time>2021-11-07T10:48:16Z</time>
      </trkpt>
      <trkpt lat="45.51411" lon="7.25403">
        <ele>3474.3</ele>
        <time>2021-11-07T10:48:17Z</time>
      </trkpt>
      <trkpt lat="45.51411" lon="7.25403">
        <ele>3474.3</ele>
        <time>2021-11-07T10:48:19Z</time>
      </trkpt>
      <trkpt lat="45.51411" lon="7.25403">
        <ele>3474.3</ele>
        <time>2021-11-07T10:48:28Z</time>
      </trkpt>
      <trkpt lat="45.51411" lon="7.25404">
        <ele>3474.4</ele>
        <time>2021-11-07T10:48:32Z</time>
      </trkpt>
      <trkpt lat="45.5141" lon="7.25404">
        <ele>3474.6</ele>
        <time>2021-11-07T10:48:35Z</time>
      </trkpt>
      <trkpt lat="45.5141" lon="7.25403">
        <ele>3474.7</ele>
        <time>2021-11-07T10:48:36Z</time>
      </trkpt>
      <trkpt lat="45.51409" lon="7.25403">
        <ele>3474.7</ele>
        <time>2021-11-07T10:48:37Z</time>
      </trkpt>
      <trkpt lat="45.51409" lon="7.25403">
        <ele>3474.8</ele>
        <time>2021-11-07T10:48:43Z</time>
      </trkpt>
      <trkpt lat="45.51408" lon="7.25402">
        <ele>3474.9</ele>
        <time>2021-11-07T10:48:47Z</time>
      </trkpt>
      <trkpt lat="45.51408" lon="7.25402">
        <ele>3475</ele>
        <time>2021-11-07T10:48:48Z</time>
      </trkpt>
      <trkpt lat="45.51408" lon="7.25402">
        <ele>3475</ele>
        <time>2021-11-07T10:48:49Z</time>
      </trkpt>
      <trkpt lat="45.51408" lon="7.25402">
        <ele>3475</ele>
        <time>2021-11-07T10:48:51Z</time>
      </trkpt>
      <trkpt lat="45.51408" lon="7.25402">
        <ele>3475</ele>
        <time>2021-11-07T10:48:53Z</time>
      </trkpt>
      <trkpt lat="45.51408" lon="7.25402">
        <ele>3475</ele>
        <time>2021-11-07T10:48:55Z</time>
      </trkpt>
      <trkpt lat="45.51408" lon="7.25402">
        <ele>3475</ele>
        <time>2021-11-07T10:48:58Z</time>
      </trkpt>
      <trkpt lat="45.51408" lon="7.25402">
        <ele>3475</ele>
        <time>2021-11-07T10:49:00Z</time>
      </trkpt>
      <trkpt lat="45.51408" lon="7.25402">
        <ele>3475.1</ele>
        <time>2021-11-07T10:49:03Z</time>
      </trkpt>
      <trkpt lat="45.51408" lon="7.25402">
        <ele>3475.1</ele>
        <time>2021-11-07T10:49:06Z</time>
      </trkpt>
      <trkpt lat="45.51408" lon="7.25402">
        <ele>3475.1</ele>
        <time>2021-11-07T10:49:11Z</time>
      </trkpt>
      <trkpt lat="45.51408" lon="7.25402">
        <ele>3475.2</ele>
        <time>2021-11-07T10:49:17Z</time>
      </trkpt>
      <trkpt lat="45.51407" lon="7.25403">
        <ele>3475.5</ele>
        <time>2021-11-07T10:49:20Z</time>
      </trkpt>
      <trkpt lat="45.51403" lon="7.25402">
        <ele>3476.1</ele>
        <time>2021-11-07T10:49:27Z</time>
      </trkpt>
      <trkpt lat="45.51403" lon="7.25402">
        <ele>3476.2</ele>
        <time>2021-11-07T10:49:32Z</time>
      </trkpt>
      <trkpt lat="45.51403" lon="7.25402">
        <ele>3476.2</ele>
        <time>2021-11-07T10:49:35Z</time>
      </trkpt>
      <trkpt lat="45.51402" lon="7.25402">
        <ele>3476.4</ele>
        <time>2021-11-07T10:49:38Z</time>
      </trkpt>
      <trkpt lat="45.51403" lon="7.25402">
        <ele>3476.4</ele>
        <time>2021-11-07T10:49:40Z</time>
      </trkpt>
      <trkpt lat="45.51403" lon="7.25402">
        <ele>3476.4</ele>
        <time>2021-11-07T10:49:43Z</time>
      </trkpt>
      <trkpt lat="45.51403" lon="7.25403">
        <ele>3476.5</ele>
        <time>2021-11-07T10:49:44Z</time>
      </trkpt>
      <trkpt lat="45.51403" lon="7.25403">
        <ele>3476.6</ele>
        <time>2021-11-07T10:49:48Z</time>
      </trkpt>
      <trkpt lat="45.51403" lon="7.25403">
        <ele>3476.6</ele>
        <time>2021-11-07T10:49:49Z</time>
      </trkpt>
      <trkpt lat="45.51403" lon="7.25403">
        <ele>3476.7</ele>
        <time>2021-11-07T10:49:54Z</time>
      </trkpt>
      <trkpt lat="45.51403" lon="7.25404">
        <ele>3476.8</ele>
        <time>2021-11-07T10:49:56Z</time>
      </trkpt>
      <trkpt lat="45.51404" lon="7.25404">
        <ele>3477</ele>
        <time>2021-11-07T10:50:02Z</time>
      </trkpt>
      <trkpt lat="45.51405" lon="7.25405">
        <ele>3477.1</ele>
        <time>2021-11-07T10:50:05Z</time>
      </trkpt>
      <trkpt lat="45.51405" lon="7.25405">
        <ele>3477.1</ele>
        <time>2021-11-07T10:50:06Z</time>
      </trkpt>
      <trkpt lat="45.51405" lon="7.25405">
        <ele>3477.1</ele>
        <time>2021-11-07T10:50:07Z</time>
      </trkpt>
      <trkpt lat="45.51405" lon="7.25405">
        <ele>3477.1</ele>
        <time>2021-11-07T10:50:08Z</time>
      </trkpt>
      <trkpt lat="45.51405" lon="7.25405">
        <ele>3477.1</ele>
        <time>2021-11-07T10:50:09Z</time>
      </trkpt>
      <trkpt lat="45.51405" lon="7.25405">
        <ele>3477.1</ele>
        <time>2021-11-07T10:50:10Z</time>
      </trkpt>
      <trkpt lat="45.51405" lon="7.25404">
        <ele>3477.2</ele>
        <time>2021-11-07T10:50:11Z</time>
      </trkpt>
      <trkpt lat="45.51405" lon="7.25404">
        <ele>3477.2</ele>
        <time>2021-11-07T10:50:12Z</time>
      </trkpt>
      <trkpt lat="45.51405" lon="7.25404">
        <ele>3477.2</ele>
        <time>2021-11-07T10:50:14Z</time>
      </trkpt>
      <trkpt lat="45.51406" lon="7.25405">
        <ele>3477.4</ele>
        <time>2021-11-07T10:50:17Z</time>
      </trkpt>
      <trkpt lat="45.51408" lon="7.25407">
        <ele>3477.9</ele>
        <time>2021-11-07T10:50:23Z</time>
      </trkpt>
      <trkpt lat="45.51411" lon="7.25409">
        <ele>3478.5</ele>
        <time>2021-11-07T10:50:33Z</time>
      </trkpt>
      <trkpt lat="45.51411" lon="7.25409">
        <ele>3478.5</ele>
        <time>2021-11-07T10:50:35Z</time>
      </trkpt>
      <trkpt lat="45.51411" lon="7.25409">
        <ele>3478.6</ele>
        <time>2021-11-07T10:50:37Z</time>
      </trkpt>
      <trkpt lat="45.51411" lon="7.25409">
        <ele>3478.6</ele>
        <time>2021-11-07T10:50:39Z</time>
      </trkpt>
      <trkpt lat="45.51411" lon="7.25409">
        <ele>3478.7</ele>
        <time>2021-11-07T10:50:43Z</time>
      </trkpt>
      <trkpt lat="45.51411" lon="7.25409">
        <ele>3478.7</ele>
        <time>2021-11-07T10:50:48Z</time>
      </trkpt>
      <trkpt lat="45.51411" lon="7.2541">
        <ele>3478.8</ele>
        <time>2021-11-07T10:50:52Z</time>
      </trkpt>
      <trkpt lat="45.51411" lon="7.25409">
        <ele>3478.8</ele>
        <time>2021-11-07T10:50:57Z</time>
      </trkpt>
      <trkpt lat="45.51411" lon="7.25409">
        <ele>3478.9</ele>
        <time>2021-11-07T10:50:59Z</time>
      </trkpt>
      <trkpt lat="45.5141" lon="7.25409">
        <ele>3479.1</ele>
        <time>2021-11-07T10:51:03Z</time>
      </trkpt>
      <trkpt lat="45.5141" lon="7.25409">
        <ele>3479.1</ele>
        <time>2021-11-07T10:51:05Z</time>
      </trkpt>
      <trkpt lat="45.51411" lon="7.25409">
        <ele>3479.3</ele>
        <time>2021-11-07T10:51:07Z</time>
      </trkpt>
      <trkpt lat="45.51413" lon="7.2541">
        <ele>3479.5</ele>
        <time>2021-11-07T10:51:09Z</time>
      </trkpt>
      <trkpt lat="45.51415" lon="7.25411">
        <ele>3480</ele>
        <time>2021-11-07T10:51:12Z</time>
      </trkpt>
      <trkpt lat="45.51415" lon="7.25412">
        <ele>3480.2</ele>
        <time>2021-11-07T10:51:13Z</time>
      </trkpt>
      <trkpt lat="45.51415" lon="7.25414">
        <ele>3480.5</ele>
        <time>2021-11-07T10:51:18Z</time>
      </trkpt>
      <trkpt lat="45.51413" lon="7.25416">
        <ele>3481</ele>
        <time>2021-11-07T10:51:30Z</time>
      </trkpt>
      <trkpt lat="45.51413" lon="7.25416">
        <ele>3481.1</ele>
        <time>2021-11-07T10:51:45Z</time>
      </trkpt>
      <trkpt lat="45.51413" lon="7.25416">
        <ele>3481.1</ele>
        <time>2021-11-07T10:51:55Z</time>
      </trkpt>
      <trkpt lat="45.51413" lon="7.25416">
        <ele>3481.1</ele>
        <time>2021-11-07T10:52:01Z</time>
      </trkpt>
      <trkpt lat="45.51413" lon="7.25416">
        <ele>3481.1</ele>
        <time>2021-11-07T10:52:02Z</time>
      </trkpt>
      <trkpt lat="45.51413" lon="7.25416">
        <ele>3481.1</ele>
        <time>2021-11-07T10:52:11Z</time>
      </trkpt>
      <trkpt lat="45.51413" lon="7.25416">
        <ele>3481.1</ele>
        <time>2021-11-07T10:52:14Z</time>
      </trkpt>
      <trkpt lat="45.51413" lon="7.25416">
        <ele>3481.1</ele>
        <time>2021-11-07T10:52:17Z</time>
      </trkpt>
      <trkpt lat="45.51413" lon="7.25416">
        <ele>3481.5</ele>
        <time>2021-11-07T10:52:19Z</time>
      </trkpt>
      <trkpt lat="45.51413" lon="7.25416">
        <ele>3481.8</ele>
        <time>2021-11-07T10:52:22Z</time>
      </trkpt>
      <trkpt lat="45.51412" lon="7.25416">
        <ele>3482.2</ele>
        <time>2021-11-07T10:52:29Z</time>
      </trkpt>
      <trkpt lat="45.51411" lon="7.25416">
        <ele>3482.9</ele>
        <time>2021-11-07T10:52:38Z</time>
      </trkpt>
      <trkpt lat="45.5141" lon="7.25416">
        <ele>3483.5</ele>
        <time>2021-11-07T10:52:42Z</time>
      </trkpt>
      <trkpt lat="45.5141" lon="7.25417">
        <ele>3483.8</ele>
        <time>2021-11-07T10:52:44Z</time>
      </trkpt>
      <trkpt lat="45.51409" lon="7.25417">
        <ele>3484.3</ele>
        <time>2021-11-07T10:52:46Z</time>
      </trkpt>
      <trkpt lat="45.5141" lon="7.25417">
        <ele>3484.7</ele>
        <time>2021-11-07T10:52:52Z</time>
      </trkpt>
      <trkpt lat="45.51409" lon="7.25417">
        <ele>3485.1</ele>
        <time>2021-11-07T10:53:00Z</time>
      </trkpt>
      <trkpt lat="45.5141" lon="7.25417">
        <ele>3485.6</ele>
        <time>2021-11-07T10:53:05Z</time>
      </trkpt>
      <trkpt lat="45.5141" lon="7.25417">
        <ele>3486</ele>
        <time>2021-11-07T10:53:10Z</time>
      </trkpt>
      <trkpt lat="45.51411" lon="7.25418">
        <ele>3486.6</ele>
        <time>2021-11-07T10:53:14Z</time>
      </trkpt>
      <trkpt lat="45.51412" lon="7.2542">
        <ele>3487.3</ele>
        <time>2021-11-07T10:53:23Z</time>
      </trkpt>
      <trkpt lat="45.51413" lon="7.2542">
        <ele>3487.9</ele>
        <time>2021-11-07T10:53:28Z</time>
      </trkpt>
      <trkpt lat="45.51414" lon="7.2542">
        <ele>3488.3</ele>
        <time>2021-11-07T10:53:31Z</time>
      </trkpt>
      <trkpt lat="45.51414" lon="7.2542">
        <ele>3488.7</ele>
        <time>2021-11-07T10:53:35Z</time>
      </trkpt>
      <trkpt lat="45.51414" lon="7.25421">
        <ele>3489.1</ele>
        <time>2021-11-07T10:53:38Z</time>
      </trkpt>
      <trkpt lat="45.51414" lon="7.25421">
        <ele>3489.5</ele>
        <time>2021-11-07T10:53:45Z</time>
      </trkpt>
      <trkpt lat="45.51414" lon="7.25421">
        <ele>3489.9</ele>
        <time>2021-11-07T10:53:47Z</time>
      </trkpt>
      <trkpt lat="45.51414" lon="7.25421">
        <ele>3490.3</ele>
        <time>2021-11-07T10:53:50Z</time>
      </trkpt>
      <trkpt lat="45.51415" lon="7.25421">
        <ele>3490.7</ele>
        <time>2021-11-07T10:53:53Z</time>
      </trkpt>
      <trkpt lat="45.51415" lon="7.25421">
        <ele>3491</ele>
        <time>2021-11-07T10:53:58Z</time>
      </trkpt>
      <trkpt lat="45.51415" lon="7.25421">
        <ele>3491.4</ele>
        <time>2021-11-07T10:54:00Z</time>
      </trkpt>
      <trkpt lat="45.51415" lon="7.25421">
        <ele>3491.7</ele>
        <time>2021-11-07T10:54:06Z</time>
      </trkpt>
      <trkpt lat="45.51415" lon="7.25421">
        <ele>3492.1</ele>
        <time>2021-11-07T10:54:11Z</time>
      </trkpt>
      <trkpt lat="45.51415" lon="7.25421">
        <ele>3492.5</ele>
        <time>2021-11-07T10:54:14Z</time>
      </trkpt>
      <trkpt lat="45.51414" lon="7.2542">
        <ele>3492.9</ele>
        <time>2021-11-07T10:54:22Z</time>
      </trkpt>
      <trkpt lat="45.51414" lon="7.2542">
        <ele>3493.3</ele>
        <time>2021-11-07T10:54:26Z</time>
      </trkpt>
      <trkpt lat="45.51414" lon="7.2542">
        <ele>3493.6</ele>
        <time>2021-11-07T10:54:30Z</time>
      </trkpt>
      <trkpt lat="45.51414" lon="7.2542">
        <ele>3494</ele>
        <time>2021-11-07T10:54:33Z</time>
      </trkpt>
      <trkpt lat="45.51414" lon="7.2542">
        <ele>3494.3</ele>
        <time>2021-11-07T10:54:35Z</time>
      </trkpt>
      <trkpt lat="45.51414" lon="7.2542">
        <ele>3494.7</ele>
        <time>2021-11-07T10:54:39Z</time>
      </trkpt>
      <trkpt lat="45.51414" lon="7.2542">
        <ele>3495</ele>
        <time>2021-11-07T10:54:43Z</time>
      </trkpt>
      <trkpt lat="45.51414" lon="7.25421">
        <ele>3495.4</ele>
        <time>2021-11-07T10:54:46Z</time>
      </trkpt>
      <trkpt lat="45.51415" lon="7.25421">
        <ele>3495.9</ele>
        <time>2021-11-07T10:54:49Z</time>
      </trkpt>
      <trkpt lat="45.51415" lon="7.25421">
        <ele>3496.4</ele>
        <time>2021-11-07T10:54:52Z</time>
      </trkpt>
      <trkpt lat="45.51416" lon="7.25422">
        <ele>3496.8</ele>
        <time>2021-11-07T10:54:54Z</time>
      </trkpt>
      <trkpt lat="45.51417" lon="7.25422">
        <ele>3497.5</ele>
        <time>2021-11-07T10:54:57Z</time>
      </trkpt>
      <trkpt lat="45.51417" lon="7.25423">
        <ele>3498</ele>
        <time>2021-11-07T10:55:00Z</time>
      </trkpt>
      <trkpt lat="45.51417" lon="7.25423">
        <ele>3498.4</ele>
        <time>2021-11-07T10:55:03Z</time>
      </trkpt>
      <trkpt lat="45.51418" lon="7.25425">
        <ele>3499</ele>
        <time>2021-11-07T10:55:10Z</time>
      </trkpt>
      <trkpt lat="45.51418" lon="7.25425">
        <ele>3499.3</ele>
        <time>2021-11-07T10:55:11Z</time>
      </trkpt>
      <trkpt lat="45.51418" lon="7.25425">
        <ele>3499.8</ele>
        <time>2021-11-07T10:55:16Z</time>
      </trkpt>
      <trkpt lat="45.51419" lon="7.25426">
        <ele>3500.3</ele>
        <time>2021-11-07T10:55:21Z</time>
      </trkpt>
      <trkpt lat="45.51419" lon="7.25426">
        <ele>3500.7</ele>
        <time>2021-11-07T10:55:23Z</time>
      </trkpt>
      <trkpt lat="45.51419" lon="7.25426">
        <ele>3501.1</ele>
        <time>2021-11-07T10:55:25Z</time>
      </trkpt>
      <trkpt lat="45.51419" lon="7.25426">
        <ele>3501.5</ele>
        <time>2021-11-07T10:55:33Z</time>
      </trkpt>
      <trkpt lat="45.51418" lon="7.25426">
        <ele>3501.9</ele>
        <time>2021-11-07T10:55:35Z</time>
      </trkpt>
      <trkpt lat="45.51418" lon="7.25426">
        <ele>3502.3</ele>
        <time>2021-11-07T10:55:42Z</time>
      </trkpt>
      <trkpt lat="45.51418" lon="7.25426">
        <ele>3502.7</ele>
        <time>2021-11-07T10:55:45Z</time>
      </trkpt>
      <trkpt lat="45.51418" lon="7.25426">
        <ele>3503.1</ele>
        <time>2021-11-07T10:55:49Z</time>
      </trkpt>
      <trkpt lat="45.51418" lon="7.25426">
        <ele>3503.5</ele>
        <time>2021-11-07T10:55:50Z</time>
      </trkpt>
      <trkpt lat="45.51418" lon="7.25426">
        <ele>3503.9</ele>
        <time>2021-11-07T10:55:52Z</time>
      </trkpt>
      <trkpt lat="45.51418" lon="7.25426">
        <ele>3504.3</ele>
        <time>2021-11-07T10:55:55Z</time>
      </trkpt>
      <trkpt lat="45.51418" lon="7.25426">
        <ele>3504.6</ele>
        <time>2021-11-07T10:55:59Z</time>
      </trkpt>
      <trkpt lat="45.51418" lon="7.25426">
        <ele>3505</ele>
        <time>2021-11-07T10:56:04Z</time>
      </trkpt>
      <trkpt lat="45.51418" lon="7.25426">
        <ele>3505.4</ele>
        <time>2021-11-07T10:56:12Z</time>
      </trkpt>
      <trkpt lat="45.51418" lon="7.25426">
        <ele>3505.8</ele>
        <time>2021-11-07T10:56:15Z</time>
      </trkpt>
      <trkpt lat="45.51418" lon="7.25426">
        <ele>3506.1</ele>
        <time>2021-11-07T10:56:16Z</time>
      </trkpt>
      <trkpt lat="45.51418" lon="7.25427">
        <ele>3506.5</ele>
        <time>2021-11-07T10:56:17Z</time>
      </trkpt>
      <trkpt lat="45.51418" lon="7.25427">
        <ele>3506.9</ele>
        <time>2021-11-07T10:56:19Z</time>
      </trkpt>
      <trkpt lat="45.51417" lon="7.25427">
        <ele>3507.4</ele>
        <time>2021-11-07T10:56:21Z</time>
      </trkpt>
      <trkpt lat="45.51416" lon="7.25427">
        <ele>3507.9</ele>
        <time>2021-11-07T10:56:23Z</time>
      </trkpt>
      <trkpt lat="45.51416" lon="7.25427">
        <ele>3508.4</ele>
        <time>2021-11-07T10:56:26Z</time>
      </trkpt>
      <trkpt lat="45.51416" lon="7.25427">
        <ele>3508.8</ele>
        <time>2021-11-07T10:56:28Z</time>
      </trkpt>
      <trkpt lat="45.51416" lon="7.25427">
        <ele>3509.2</ele>
        <time>2021-11-07T10:56:35Z</time>
      </trkpt>
      <trkpt lat="45.51416" lon="7.25427">
        <ele>3509.7</ele>
        <time>2021-11-07T10:56:37Z</time>
      </trkpt>
      <trkpt lat="45.51417" lon="7.25427">
        <ele>3510.2</ele>
        <time>2021-11-07T10:56:39Z</time>
      </trkpt>
      <trkpt lat="45.51419" lon="7.25428">
        <ele>3511</ele>
        <time>2021-11-07T10:56:46Z</time>
      </trkpt>
      <trkpt lat="45.51419" lon="7.25428">
        <ele>3511.5</ele>
        <time>2021-11-07T10:56:48Z</time>
      </trkpt>
      <trkpt lat="45.5142" lon="7.25429">
        <ele>3512</ele>
        <time>2021-11-07T10:56:50Z</time>
      </trkpt>
      <trkpt lat="45.5142" lon="7.25429">
        <ele>3512.4</ele>
        <time>2021-11-07T10:56:52Z</time>
      </trkpt>
      <trkpt lat="45.51419" lon="7.25429">
        <ele>3512.9</ele>
        <time>2021-11-07T10:56:53Z</time>
      </trkpt>
      <trkpt lat="45.51418" lon="7.2543">
        <ele>3513.6</ele>
        <time>2021-11-07T10:57:00Z</time>
      </trkpt>
      <trkpt lat="45.51418" lon="7.2543">
        <ele>3514</ele>
        <time>2021-11-07T10:57:01Z</time>
      </trkpt>
      <trkpt lat="45.51417" lon="7.2543">
        <ele>3514.6</ele>
        <time>2021-11-07T10:57:05Z</time>
      </trkpt>
      <trkpt lat="45.51417" lon="7.2543">
        <ele>3515.1</ele>
        <time>2021-11-07T10:57:08Z</time>
      </trkpt>
      <trkpt lat="45.51416" lon="7.25431">
        <ele>3515.6</ele>
        <time>2021-11-07T10:57:12Z</time>
      </trkpt>
      <trkpt lat="45.51416" lon="7.25431">
        <ele>3516</ele>
        <time>2021-11-07T10:57:13Z</time>
      </trkpt>
      <trkpt lat="45.51416" lon="7.25431">
        <ele>3516.4</ele>
        <time>2021-11-07T10:57:16Z</time>
      </trkpt>
      <trkpt lat="45.51415" lon="7.25431">
        <ele>3516.9</ele>
        <time>2021-11-07T10:57:19Z</time>
      </trkpt>
      <trkpt lat="45.51415" lon="7.25431">
        <ele>3517.4</ele>
        <time>2021-11-07T10:57:20Z</time>
      </trkpt>
      <trkpt lat="45.51414" lon="7.25431">
        <ele>3517.9</ele>
        <time>2021-11-07T10:57:22Z</time>
      </trkpt>
      <trkpt lat="45.51414" lon="7.25431">
        <ele>3518.3</ele>
        <time>2021-11-07T10:57:24Z</time>
      </trkpt>
      <trkpt lat="45.51412" lon="7.25431">
        <ele>3519.3</ele>
        <time>2021-11-07T10:57:28Z</time>
      </trkpt>
      <trkpt lat="45.5141" lon="7.25431">
        <ele>3519.9</ele>
        <time>2021-11-07T10:57:32Z</time>
      </trkpt>
      <trkpt lat="45.51411" lon="7.25431">
        <ele>3520.4</ele>
        <time>2021-11-07T10:57:34Z</time>
      </trkpt>
      <trkpt lat="45.51412" lon="7.25431">
        <ele>3521.1</ele>
        <time>2021-11-07T10:57:45Z</time>
      </trkpt>
      <trkpt lat="45.51412" lon="7.25431">
        <ele>3521.4</ele>
        <time>2021-11-07T10:57:46Z</time>
      </trkpt>
      <trkpt lat="45.51414" lon="7.25434">
        <ele>3522.6</ele>
        <time>2021-11-07T10:57:55Z</time>
      </trkpt>
      <trkpt lat="45.51415" lon="7.25436">
        <ele>3523.4</ele>
        <time>2021-11-07T10:58:00Z</time>
      </trkpt>
      <trkpt lat="45.51417" lon="7.25439">
        <ele>3524.6</ele>
        <time>2021-11-07T10:58:09Z</time>
      </trkpt>
      <trkpt lat="45.51418" lon="7.25441">
        <ele>3525.4</ele>
        <time>2021-11-07T10:58:14Z</time>
      </trkpt>
      <trkpt lat="45.5142" lon="7.25443">
        <ele>3526.2</ele>
        <time>2021-11-07T10:58:18Z</time>
      </trkpt>
      <trkpt lat="45.5142" lon="7.25443">
        <ele>3526.7</ele>
        <time>2021-11-07T10:58:19Z</time>
      </trkpt>
      <trkpt lat="45.51423" lon="7.25447">
        <ele>3528.2</ele>
        <time>2021-11-07T10:58:30Z</time>
      </trkpt>
      <trkpt lat="45.51425" lon="7.25448">
        <ele>3529</ele>
        <time>2021-11-07T10:58:34Z</time>
      </trkpt>
      <trkpt lat="45.51426" lon="7.25449">
        <ele>3529.7</ele>
        <time>2021-11-07T10:58:39Z</time>
      </trkpt>
      <trkpt lat="45.51426" lon="7.2545">
        <ele>3530.2</ele>
        <time>2021-11-07T10:58:40Z</time>
      </trkpt>
      <trkpt lat="45.51427" lon="7.25452">
        <ele>3531.1</ele>
        <time>2021-11-07T10:58:47Z</time>
      </trkpt>
      <trkpt lat="45.51427" lon="7.25453">
        <ele>3531.2</ele>
        <time>2021-11-07T10:58:49Z</time>
      </trkpt>
      <trkpt lat="45.51427" lon="7.25453">
        <ele>3531.2</ele>
        <time>2021-11-07T10:58:50Z</time>
      </trkpt>
      <trkpt lat="45.51427" lon="7.25453">
        <ele>3531.3</ele>
        <time>2021-11-07T10:58:51Z</time>
      </trkpt>
      <trkpt lat="45.51427" lon="7.25453">
        <ele>3531.4</ele>
        <time>2021-11-07T10:58:52Z</time>
      </trkpt>
      <trkpt lat="45.51427" lon="7.25454">
        <ele>3531.5</ele>
        <time>2021-11-07T10:58:53Z</time>
      </trkpt>
      <trkpt lat="45.51428" lon="7.25456">
        <ele>3531.9</ele>
        <time>2021-11-07T10:58:56Z</time>
      </trkpt>
      <trkpt lat="45.51428" lon="7.25457">
        <ele>3532.1</ele>
        <time>2021-11-07T10:58:59Z</time>
      </trkpt>
      <trkpt lat="45.51429" lon="7.25458">
        <ele>3532.4</ele>
        <time>2021-11-07T10:59:02Z</time>
      </trkpt>
      <trkpt lat="45.51429" lon="7.25459">
        <ele>3532.5</ele>
        <time>2021-11-07T10:59:04Z</time>
      </trkpt>
      <trkpt lat="45.5143" lon="7.25459">
        <ele>3532.6</ele>
        <time>2021-11-07T10:59:06Z</time>
      </trkpt>
      <trkpt lat="45.5143" lon="7.25459">
        <ele>3532.6</ele>
        <time>2021-11-07T10:59:08Z</time>
      </trkpt>
      <trkpt lat="45.51429" lon="7.25458">
        <ele>3532.7</ele>
        <time>2021-11-07T10:59:12Z</time>
      </trkpt>
      <trkpt lat="45.51429" lon="7.25458">
        <ele>3532.7</ele>
        <time>2021-11-07T10:59:15Z</time>
      </trkpt>
      <trkpt lat="45.5143" lon="7.25458">
        <ele>3532.7</ele>
        <time>2021-11-07T10:59:16Z</time>
      </trkpt>
      <trkpt lat="45.51429" lon="7.25458">
        <ele>3532.8</ele>
        <time>2021-11-07T10:59:20Z</time>
      </trkpt>
      <trkpt lat="45.51429" lon="7.25458">
        <ele>3532.8</ele>
        <time>2021-11-07T10:59:22Z</time>
      </trkpt>
      <trkpt lat="45.51429" lon="7.25458">
        <ele>3532.8</ele>
        <time>2021-11-07T10:59:23Z</time>
      </trkpt>
      <trkpt lat="45.51429" lon="7.25457">
        <ele>3532.9</ele>
        <time>2021-11-07T10:59:27Z</time>
      </trkpt>
      <trkpt lat="45.51429" lon="7.25457">
        <ele>3532.9</ele>
        <time>2021-11-07T10:59:28Z</time>
      </trkpt>
      <trkpt lat="45.5143" lon="7.25457">
        <ele>3533</ele>
        <time>2021-11-07T10:59:31Z</time>
      </trkpt>
      <trkpt lat="45.5143" lon="7.25457">
        <ele>3533</ele>
        <time>2021-11-07T10:59:33Z</time>
      </trkpt>
      <trkpt lat="45.5143" lon="7.25457">
        <ele>3533.1</ele>
        <time>2021-11-07T10:59:35Z</time>
      </trkpt>
      <trkpt lat="45.5143" lon="7.25457">
        <ele>3533.1</ele>
        <time>2021-11-07T10:59:36Z</time>
      </trkpt>
      <trkpt lat="45.5143" lon="7.25457">
        <ele>3533.1</ele>
        <time>2021-11-07T10:59:38Z</time>
      </trkpt>
      <trkpt lat="45.5143" lon="7.25457">
        <ele>3533.1</ele>
        <time>2021-11-07T10:59:39Z</time>
      </trkpt>
      <trkpt lat="45.5143" lon="7.25458">
        <ele>3533.1</ele>
        <time>2021-11-07T10:59:42Z</time>
      </trkpt>
      <trkpt lat="45.5143" lon="7.25458">
        <ele>3533.2</ele>
        <time>2021-11-07T10:59:45Z</time>
      </trkpt>
      <trkpt lat="45.51431" lon="7.2546">
        <ele>3533.6</ele>
        <time>2021-11-07T10:59:51Z</time>
      </trkpt>
      <trkpt lat="45.51432" lon="7.2546">
        <ele>3533.8</ele>
        <time>2021-11-07T10:59:52Z</time>
      </trkpt>
      <trkpt lat="45.51433" lon="7.25462">
        <ele>3534.3</ele>
        <time>2021-11-07T10:59:56Z</time>
      </trkpt>
      <trkpt lat="45.51434" lon="7.25463">
        <ele>3534.6</ele>
        <time>2021-11-07T11:00:02Z</time>
      </trkpt>
      <trkpt lat="45.51434" lon="7.25462">
        <ele>3534.7</ele>
        <time>2021-11-07T11:00:05Z</time>
      </trkpt>
      <trkpt lat="45.51436" lon="7.25465">
        <ele>3535.5</ele>
        <time>2021-11-07T11:00:16Z</time>
      </trkpt>
      <trkpt lat="45.51437" lon="7.25467">
        <ele>3535.8</ele>
        <time>2021-11-07T11:00:21Z</time>
      </trkpt>
      <trkpt lat="45.51437" lon="7.25468">
        <ele>3535.9</ele>
        <time>2021-11-07T11:00:22Z</time>
      </trkpt>
      <trkpt lat="45.51437" lon="7.25468">
        <ele>3535.9</ele>
        <time>2021-11-07T11:00:23Z</time>
      </trkpt>
      <trkpt lat="45.51437" lon="7.25467">
        <ele>3535.9</ele>
        <time>2021-11-07T11:00:24Z</time>
      </trkpt>
      <trkpt lat="45.51437" lon="7.25468">
        <ele>3536</ele>
        <time>2021-11-07T11:00:25Z</time>
      </trkpt>
      <trkpt lat="45.51436" lon="7.25468">
        <ele>3536.1</ele>
        <time>2021-11-07T11:00:27Z</time>
      </trkpt>
      <trkpt lat="45.51436" lon="7.25468">
        <ele>3536.2</ele>
        <time>2021-11-07T11:00:30Z</time>
      </trkpt>
      <trkpt lat="45.51436" lon="7.25469">
        <ele>3536.4</ele>
        <time>2021-11-07T11:00:36Z</time>
      </trkpt>
      <trkpt lat="45.51437" lon="7.25469">
        <ele>3536.5</ele>
        <time>2021-11-07T11:00:38Z</time>
      </trkpt>
      <trkpt lat="45.51438" lon="7.2547">
        <ele>3536.8</ele>
        <time>2021-11-07T11:00:41Z</time>
      </trkpt>
      <trkpt lat="45.51439" lon="7.25471">
        <ele>3537.2</ele>
        <time>2021-11-07T11:00:48Z</time>
      </trkpt>
      <trkpt lat="45.51439" lon="7.25473">
        <ele>3537.5</ele>
        <time>2021-11-07T11:00:54Z</time>
      </trkpt>
      <trkpt lat="45.51438" lon="7.25474">
        <ele>3537.7</ele>
        <time>2021-11-07T11:00:57Z</time>
      </trkpt>
      <trkpt lat="45.51438" lon="7.25473">
        <ele>3537.9</ele>
        <time>2021-11-07T11:01:06Z</time>
      </trkpt>
      <trkpt lat="45.51438" lon="7.25473">
        <ele>3537.9</ele>
        <time>2021-11-07T11:01:08Z</time>
      </trkpt>
      <trkpt lat="45.51438" lon="7.25473">
        <ele>3538</ele>
        <time>2021-11-07T11:01:09Z</time>
      </trkpt>
      <trkpt lat="45.51437" lon="7.25473">
        <ele>3538.2</ele>
        <time>2021-11-07T11:01:15Z</time>
      </trkpt>
      <trkpt lat="45.51437" lon="7.25473">
        <ele>3538.2</ele>
        <time>2021-11-07T11:01:16Z</time>
      </trkpt>
      <trkpt lat="45.51437" lon="7.25473">
        <ele>3538.2</ele>
        <time>2021-11-07T11:01:17Z</time>
      </trkpt>
      <trkpt lat="45.51437" lon="7.25473">
        <ele>3538.3</ele>
        <time>2021-11-07T11:01:18Z</time>
      </trkpt>
      <trkpt lat="45.51437" lon="7.25473">
        <ele>3538.3</ele>
        <time>2021-11-07T11:01:19Z</time>
      </trkpt>
      <trkpt lat="45.51435" lon="7.25474">
        <ele>3538.7</ele>
        <time>2021-11-07T11:01:29Z</time>
      </trkpt>
      <trkpt lat="45.51434" lon="7.25474">
        <ele>3539</ele>
        <time>2021-11-07T11:01:33Z</time>
      </trkpt>
      <trkpt lat="45.51434" lon="7.25474">
        <ele>3539.1</ele>
        <time>2021-11-07T11:01:35Z</time>
      </trkpt>
      <trkpt lat="45.51433" lon="7.25473">
        <ele>3539.3</ele>
        <time>2021-11-07T11:01:42Z</time>
      </trkpt>
      <trkpt lat="45.51433" lon="7.25473">
        <ele>3539.3</ele>
        <time>2021-11-07T11:01:43Z</time>
      </trkpt>
      <trkpt lat="45.51432" lon="7.25474">
        <ele>3539.7</ele>
        <time>2021-11-07T11:01:52Z</time>
      </trkpt>
      <trkpt lat="45.51432" lon="7.25474">
        <ele>3539.7</ele>
        <time>2021-11-07T11:01:55Z</time>
      </trkpt>
      <trkpt lat="45.51432" lon="7.25474">
        <ele>3539.7</ele>
        <time>2021-11-07T11:01:58Z</time>
      </trkpt>
      <trkpt lat="45.51431" lon="7.25473">
        <ele>3539.9</ele>
        <time>2021-11-07T11:02:04Z</time>
      </trkpt>
      <trkpt lat="45.51431" lon="7.25473">
        <ele>3539.9</ele>
        <time>2021-11-07T11:02:06Z</time>
      </trkpt>
      <trkpt lat="45.51431" lon="7.25473">
        <ele>3539.9</ele>
        <time>2021-11-07T11:02:07Z</time>
      </trkpt>
      <trkpt lat="45.51431" lon="7.25473">
        <ele>3539.9</ele>
        <time>2021-11-07T11:02:09Z</time>
      </trkpt>
      <trkpt lat="45.51431" lon="7.25473">
        <ele>3539.9</ele>
        <time>2021-11-07T11:02:10Z</time>
      </trkpt>
      <trkpt lat="45.51431" lon="7.25473">
        <ele>3539.9</ele>
        <time>2021-11-07T11:02:12Z</time>
      </trkpt>
      <trkpt lat="45.51431" lon="7.25473">
        <ele>3539.9</ele>
        <time>2021-11-07T11:02:15Z</time>
      </trkpt>
      <trkpt lat="45.51431" lon="7.25473">
        <ele>3540</ele>
        <time>2021-11-07T11:02:18Z</time>
      </trkpt>
      <trkpt lat="45.51432" lon="7.25473">
        <ele>3540</ele>
        <time>2021-11-07T11:02:20Z</time>
      </trkpt>
      <trkpt lat="45.51432" lon="7.25473">
        <ele>3540</ele>
        <time>2021-11-07T11:02:21Z</time>
      </trkpt>
      <trkpt lat="45.51431" lon="7.25473">
        <ele>3540.2</ele>
        <time>2021-11-07T11:02:24Z</time>
      </trkpt>
      <trkpt lat="45.5143" lon="7.25473">
        <ele>3540.3</ele>
        <time>2021-11-07T11:02:25Z</time>
      </trkpt>
      <trkpt lat="45.51429" lon="7.25474">
        <ele>3540.5</ele>
        <time>2021-11-07T11:02:28Z</time>
      </trkpt>
      <trkpt lat="45.51429" lon="7.25474">
        <ele>3540.8</ele>
        <time>2021-11-07T11:02:32Z</time>
      </trkpt>
      <trkpt lat="45.51428" lon="7.25474">
        <ele>3540.9</ele>
        <time>2021-11-07T11:02:37Z</time>
      </trkpt>
      <trkpt lat="45.51428" lon="7.25475">
        <ele>3541.1</ele>
        <time>2021-11-07T11:02:50Z</time>
      </trkpt>
      <trkpt lat="45.51428" lon="7.25475">
        <ele>3541.1</ele>
        <time>2021-11-07T11:02:51Z</time>
      </trkpt>
      <trkpt lat="45.51426" lon="7.25475">
        <ele>3541.4</ele>
        <time>2021-11-07T11:02:56Z</time>
      </trkpt>
      <trkpt lat="45.51426" lon="7.25475">
        <ele>3541.5</ele>
        <time>2021-11-07T11:03:01Z</time>
      </trkpt>
      <trkpt lat="45.51425" lon="7.25476">
        <ele>3541.8</ele>
        <time>2021-11-07T11:03:04Z</time>
      </trkpt>
      <trkpt lat="45.51424" lon="7.25476">
        <ele>3542</ele>
        <time>2021-11-07T11:03:09Z</time>
      </trkpt>
      <trkpt lat="45.51424" lon="7.25476">
        <ele>3542.1</ele>
        <time>2021-11-07T11:03:13Z</time>
      </trkpt>
      <trkpt lat="45.51424" lon="7.25476">
        <ele>3542.2</ele>
        <time>2021-11-07T11:03:19Z</time>
      </trkpt>
      <trkpt lat="45.51423" lon="7.25476">
        <ele>3542.4</ele>
        <time>2021-11-07T11:03:21Z</time>
      </trkpt>
      <trkpt lat="45.51422" lon="7.25476">
        <ele>3542.7</ele>
        <time>2021-11-07T11:03:26Z</time>
      </trkpt>
      <trkpt lat="45.51422" lon="7.25476">
        <ele>3542.7</ele>
        <time>2021-11-07T11:03:28Z</time>
      </trkpt>
      <trkpt lat="45.51422" lon="7.25476">
        <ele>3542.7</ele>
        <time>2021-11-07T11:03:29Z</time>
      </trkpt>
      <trkpt lat="45.51422" lon="7.25475">
        <ele>3542.8</ele>
        <time>2021-11-07T11:03:30Z</time>
      </trkpt>
      <trkpt lat="45.51421" lon="7.25475">
        <ele>3542.9</ele>
        <time>2021-11-07T11:03:33Z</time>
      </trkpt>
      <trkpt lat="45.51421" lon="7.25475">
        <ele>3543</ele>
        <time>2021-11-07T11:03:35Z</time>
      </trkpt>
      <trkpt lat="45.51421" lon="7.25476">
        <ele>3543.2</ele>
        <time>2021-11-07T11:03:37Z</time>
      </trkpt>
      <trkpt lat="45.5142" lon="7.25476">
        <ele>3543.2</ele>
        <time>2021-11-07T11:03:38Z</time>
      </trkpt>
      <trkpt lat="45.5142" lon="7.25476">
        <ele>3543.2</ele>
        <time>2021-11-07T11:03:39Z</time>
      </trkpt>
      <trkpt lat="45.5142" lon="7.25476">
        <ele>3543.3</ele>
        <time>2021-11-07T11:03:40Z</time>
      </trkpt>
      <trkpt lat="45.5142" lon="7.25476">
        <ele>3543.3</ele>
        <time>2021-11-07T11:03:41Z</time>
      </trkpt>
      <trkpt lat="45.51421" lon="7.25476">
        <ele>3543.4</ele>
        <time>2021-11-07T11:03:44Z</time>
      </trkpt>
      <trkpt lat="45.5142" lon="7.25476">
        <ele>3543.5</ele>
        <time>2021-11-07T11:03:47Z</time>
      </trkpt>
      <trkpt lat="45.5142" lon="7.25476">
        <ele>3543.6</ele>
        <time>2021-11-07T11:03:50Z</time>
      </trkpt>
      <trkpt lat="45.51421" lon="7.25475">
        <ele>3543.7</ele>
        <time>2021-11-07T11:03:51Z</time>
      </trkpt>
      <trkpt lat="45.51421" lon="7.25475">
        <ele>3543.7</ele>
        <time>2021-11-07T11:03:52Z</time>
      </trkpt>
      <trkpt lat="45.51421" lon="7.25475">
        <ele>3543.8</ele>
        <time>2021-11-07T11:04:00Z</time>
      </trkpt>
      <trkpt lat="45.51421" lon="7.25475">
        <ele>3543.9</ele>
        <time>2021-11-07T11:04:06Z</time>
      </trkpt>
      <trkpt lat="45.51421" lon="7.25475">
        <ele>3544</ele>
        <time>2021-11-07T11:04:09Z</time>
      </trkpt>
      <trkpt lat="45.51421" lon="7.25475">
        <ele>3544.2</ele>
        <time>2021-11-07T11:04:13Z</time>
      </trkpt>
      <trkpt lat="45.51421" lon="7.25475">
        <ele>3544.2</ele>
        <time>2021-11-07T11:04:14Z</time>
      </trkpt>
      <trkpt lat="45.5142" lon="7.25474">
        <ele>3544.3</ele>
        <time>2021-11-07T11:04:18Z</time>
      </trkpt>
      <trkpt lat="45.5142" lon="7.25474">
        <ele>3544.3</ele>
        <time>2021-11-07T11:04:20Z</time>
      </trkpt>
      <trkpt lat="45.5142" lon="7.25474">
        <ele>3544.4</ele>
        <time>2021-11-07T11:04:22Z</time>
      </trkpt>
      <trkpt lat="45.51419" lon="7.25475">
        <ele>3544.7</ele>
        <time>2021-11-07T11:04:26Z</time>
      </trkpt>
      <trkpt lat="45.51418" lon="7.25475">
        <ele>3545</ele>
        <time>2021-11-07T11:04:29Z</time>
      </trkpt>
      <trkpt lat="45.51417" lon="7.25475">
        <ele>3545.1</ele>
        <time>2021-11-07T11:04:30Z</time>
      </trkpt>
      <trkpt lat="45.51417" lon="7.25474">
        <ele>3545.2</ele>
        <time>2021-11-07T11:04:31Z</time>
      </trkpt>
      <trkpt lat="45.51417" lon="7.25474">
        <ele>3545.2</ele>
        <time>2021-11-07T11:04:32Z</time>
      </trkpt>
      <trkpt lat="45.51417" lon="7.25474">
        <ele>3545.4</ele>
        <time>2021-11-07T11:04:34Z</time>
      </trkpt>
      <trkpt lat="45.51417" lon="7.25474">
        <ele>3545.5</ele>
        <time>2021-11-07T11:04:37Z</time>
      </trkpt>
      <trkpt lat="45.51417" lon="7.25474">
        <ele>3545.5</ele>
        <time>2021-11-07T11:04:39Z</time>
      </trkpt>
      <trkpt lat="45.51418" lon="7.25474">
        <ele>3545.7</ele>
        <time>2021-11-07T11:04:44Z</time>
      </trkpt>
      <trkpt lat="45.51418" lon="7.25475">
        <ele>3545.8</ele>
        <time>2021-11-07T11:04:46Z</time>
      </trkpt>
      <trkpt lat="45.5142" lon="7.25475">
        <ele>3546.3</ele>
        <time>2021-11-07T11:04:55Z</time>
      </trkpt>
      <trkpt lat="45.5142" lon="7.25475">
        <ele>3546.4</ele>
        <time>2021-11-07T11:04:57Z</time>
      </trkpt>
      <trkpt lat="45.5142" lon="7.25475">
        <ele>3546.4</ele>
        <time>2021-11-07T11:04:58Z</time>
      </trkpt>
      <trkpt lat="45.51421" lon="7.25476">
        <ele>3546.7</ele>
        <time>2021-11-07T11:05:05Z</time>
      </trkpt>
      <trkpt lat="45.51421" lon="7.25476">
        <ele>3546.7</ele>
        <time>2021-11-07T11:05:07Z</time>
      </trkpt>
      <trkpt lat="45.51421" lon="7.25476">
        <ele>3546.8</ele>
        <time>2021-11-07T11:05:09Z</time>
      </trkpt>
      <trkpt lat="45.51422" lon="7.25477">
        <ele>3547.2</ele>
        <time>2021-11-07T11:05:14Z</time>
      </trkpt>
      <trkpt lat="45.51422" lon="7.25478">
        <ele>3547.3</ele>
        <time>2021-11-07T11:05:15Z</time>
      </trkpt>
      <trkpt lat="45.51422" lon="7.25477">
        <ele>3547.3</ele>
        <time>2021-11-07T11:05:16Z</time>
      </trkpt>
      <trkpt lat="45.51422" lon="7.25477">
        <ele>3547.3</ele>
        <time>2021-11-07T11:05:17Z</time>
      </trkpt>
      <trkpt lat="45.51422" lon="7.25477">
        <ele>3547.5</ele>
        <time>2021-11-07T11:05:20Z</time>
      </trkpt>
      <trkpt lat="45.51421" lon="7.25477">
        <ele>3547.6</ele>
        <time>2021-11-07T11:05:23Z</time>
      </trkpt>
      <trkpt lat="45.51423" lon="7.2548">
        <ele>3548.3</ele>
        <time>2021-11-07T11:05:29Z</time>
      </trkpt>
      <trkpt lat="45.51424" lon="7.25481">
        <ele>3548.7</ele>
        <time>2021-11-07T11:05:35Z</time>
      </trkpt>
      <trkpt lat="45.51427" lon="7.25481">
        <ele>3549.4</ele>
        <time>2021-11-07T11:05:41Z</time>
      </trkpt>
      <trkpt lat="45.51427" lon="7.25481">
        <ele>3549.5</ele>
        <time>2021-11-07T11:05:45Z</time>
      </trkpt>
      <trkpt lat="45.51428" lon="7.25481">
        <ele>3549.7</ele>
        <time>2021-11-07T11:05:52Z</time>
      </trkpt>
      <trkpt lat="45.51428" lon="7.25482">
        <ele>3549.8</ele>
        <time>2021-11-07T11:05:54Z</time>
      </trkpt>
      <trkpt lat="45.51429" lon="7.25482">
        <ele>3550</ele>
        <time>2021-11-07T11:06:07Z</time>
      </trkpt>
      <trkpt lat="45.5143" lon="7.25483">
        <ele>3550.5</ele>
        <time>2021-11-07T11:06:11Z</time>
      </trkpt>
      <trkpt lat="45.51432" lon="7.25485">
        <ele>3551.1</ele>
        <time>2021-11-07T11:06:25Z</time>
      </trkpt>
      <trkpt lat="45.51433" lon="7.25486">
        <ele>3551.4</ele>
        <time>2021-11-07T11:06:29Z</time>
      </trkpt>
      <trkpt lat="45.51433" lon="7.25486">
        <ele>3551.5</ele>
        <time>2021-11-07T11:06:37Z</time>
      </trkpt>
      <trkpt lat="45.51433" lon="7.25487">
        <ele>3551.6</ele>
        <time>2021-11-07T11:06:40Z</time>
      </trkpt>
      <trkpt lat="45.51433" lon="7.25487">
        <ele>3551.6</ele>
        <time>2021-11-07T11:06:41Z</time>
      </trkpt>
      <trkpt lat="45.51433" lon="7.25487">
        <ele>3551.6</ele>
        <time>2021-11-07T11:06:47Z</time>
      </trkpt>
      <trkpt lat="45.51433" lon="7.25486">
        <ele>3551.6</ele>
        <time>2021-11-07T11:06:54Z</time>
      </trkpt>
      <trkpt lat="45.51433" lon="7.25487">
        <ele>3551.7</ele>
        <time>2021-11-07T11:06:59Z</time>
      </trkpt>
      <trkpt lat="45.51434" lon="7.25487">
        <ele>3551.8</ele>
        <time>2021-11-07T11:07:00Z</time>
      </trkpt>
      <trkpt lat="45.51434" lon="7.25488">
        <ele>3552</ele>
        <time>2021-11-07T11:07:05Z</time>
      </trkpt>
      <trkpt lat="45.51434" lon="7.25487">
        <ele>3552.1</ele>
        <time>2021-11-07T11:07:14Z</time>
      </trkpt>
      <trkpt lat="45.51434" lon="7.25487">
        <ele>3552.1</ele>
        <time>2021-11-07T11:07:19Z</time>
      </trkpt>
      <trkpt lat="45.51434" lon="7.25487">
        <ele>3552.2</ele>
        <time>2021-11-07T11:07:30Z</time>
      </trkpt>
      <trkpt lat="45.51434" lon="7.25487">
        <ele>3552.3</ele>
        <time>2021-11-07T11:07:34Z</time>
      </trkpt>
      <trkpt lat="45.51433" lon="7.25487">
        <ele>3552.5</ele>
        <time>2021-11-07T11:07:43Z</time>
      </trkpt>
      <trkpt lat="45.51432" lon="7.25487">
        <ele>3552.7</ele>
        <time>2021-11-07T11:07:54Z</time>
      </trkpt>
      <trkpt lat="45.51432" lon="7.25487">
        <ele>3552.7</ele>
        <time>2021-11-07T11:07:58Z</time>
      </trkpt>
      <trkpt lat="45.51432" lon="7.25486">
        <ele>3552.9</ele>
        <time>2021-11-07T11:08:05Z</time>
      </trkpt>
      <trkpt lat="45.51432" lon="7.25487">
        <ele>3552.9</ele>
        <time>2021-11-07T11:08:12Z</time>
      </trkpt>
      <trkpt lat="45.51432" lon="7.25487">
        <ele>3553</ele>
        <time>2021-11-07T11:08:16Z</time>
      </trkpt>
      <trkpt lat="45.51432" lon="7.25487">
        <ele>3553</ele>
        <time>2021-11-07T11:08:17Z</time>
      </trkpt>
      <trkpt lat="45.51432" lon="7.25487">
        <ele>3553</ele>
        <time>2021-11-07T11:08:18Z</time>
      </trkpt>
      <trkpt lat="45.51431" lon="7.25487">
        <ele>3553</ele>
        <time>2021-11-07T11:08:20Z</time>
      </trkpt>
      <trkpt lat="45.51431" lon="7.25487">
        <ele>3553.1</ele>
        <time>2021-11-07T11:08:24Z</time>
      </trkpt>
      <trkpt lat="45.51431" lon="7.25487">
        <ele>3553.1</ele>
        <time>2021-11-07T11:08:28Z</time>
      </trkpt>
      <trkpt lat="45.51431" lon="7.25487">
        <ele>3553.1</ele>
        <time>2021-11-07T11:08:29Z</time>
      </trkpt>
      <trkpt lat="45.51431" lon="7.25487">
        <ele>3553.1</ele>
        <time>2021-11-07T11:08:30Z</time>
      </trkpt>
      <trkpt lat="45.51431" lon="7.25487">
        <ele>3553.2</ele>
        <time>2021-11-07T11:08:35Z</time>
      </trkpt>
      <trkpt lat="45.51432" lon="7.25487">
        <ele>3553.3</ele>
        <time>2021-11-07T11:08:40Z</time>
      </trkpt>
      <trkpt lat="45.51432" lon="7.25486">
        <ele>3553.4</ele>
        <time>2021-11-07T11:08:45Z</time>
      </trkpt>
      <trkpt lat="45.51432" lon="7.25486">
        <ele>3553.4</ele>
        <time>2021-11-07T11:08:47Z</time>
      </trkpt>
      <trkpt lat="45.51432" lon="7.25486">
        <ele>3553.4</ele>
        <time>2021-11-07T11:08:50Z</time>
      </trkpt>
      <trkpt lat="45.51432" lon="7.25486">
        <ele>3553.5</ele>
        <time>2021-11-07T11:08:59Z</time>
      </trkpt>
      <trkpt lat="45.51432" lon="7.25485">
        <ele>3553.6</ele>
        <time>2021-11-07T11:09:06Z</time>
      </trkpt>
      <trkpt lat="45.51432" lon="7.25485">
        <ele>3553.7</ele>
        <time>2021-11-07T11:09:10Z</time>
      </trkpt>
      <trkpt lat="45.51432" lon="7.25485">
        <ele>3553.7</ele>
        <time>2021-11-07T11:09:12Z</time>
      </trkpt>
      <trkpt lat="45.51432" lon="7.25485">
        <ele>3553.7</ele>
        <time>2021-11-07T11:09:13Z</time>
      </trkpt>
      <trkpt lat="45.51432" lon="7.25485">
        <ele>3553.7</ele>
        <time>2021-11-07T11:09:16Z</time>
      </trkpt>
      <trkpt lat="45.51431" lon="7.25485">
        <ele>3553.8</ele>
        <time>2021-11-07T11:09:18Z</time>
      </trkpt>
      <trkpt lat="45.51432" lon="7.25485">
        <ele>3553.8</ele>
        <time>2021-11-07T11:09:19Z</time>
      </trkpt>
      <trkpt lat="45.51433" lon="7.25485">
        <ele>3554.1</ele>
        <time>2021-11-07T11:09:24Z</time>
      </trkpt>
      <trkpt lat="45.51435" lon="7.25486">
        <ele>3554.7</ele>
        <time>2021-11-07T11:09:29Z</time>
      </trkpt>
      <trkpt lat="45.51436" lon="7.25487">
        <ele>3555</ele>
        <time>2021-11-07T11:09:34Z</time>
      </trkpt>
      <trkpt lat="45.51436" lon="7.25487">
        <ele>3555.1</ele>
        <time>2021-11-07T11:09:38Z</time>
      </trkpt>
      <trkpt lat="45.51437" lon="7.25487">
        <ele>3555.1</ele>
        <time>2021-11-07T11:09:39Z</time>
      </trkpt>
      <trkpt lat="45.51436" lon="7.25487">
        <ele>3555.2</ele>
        <time>2021-11-07T11:09:41Z</time>
      </trkpt>
      <trkpt lat="45.51436" lon="7.25487">
        <ele>3555.2</ele>
        <time>2021-11-07T11:09:42Z</time>
      </trkpt>
      <trkpt lat="45.51438" lon="7.25489">
        <ele>3555.8</ele>
        <time>2021-11-07T11:09:48Z</time>
      </trkpt>
      <trkpt lat="45.51438" lon="7.25489">
        <ele>3555.9</ele>
        <time>2021-11-07T11:09:49Z</time>
      </trkpt>
      <trkpt lat="45.51439" lon="7.2549">
        <ele>3556.1</ele>
        <time>2021-11-07T11:09:52Z</time>
      </trkpt>
      <trkpt lat="45.5144" lon="7.2549">
        <ele>3556.3</ele>
        <time>2021-11-07T11:09:56Z</time>
      </trkpt>
      <trkpt lat="45.5144" lon="7.2549">
        <ele>3556.4</ele>
        <time>2021-11-07T11:09:58Z</time>
      </trkpt>
      <trkpt lat="45.5144" lon="7.2549">
        <ele>3556.5</ele>
        <time>2021-11-07T11:10:02Z</time>
      </trkpt>
      <trkpt lat="45.5144" lon="7.25489">
        <ele>3556.5</ele>
        <time>2021-11-07T11:10:04Z</time>
      </trkpt>
      <trkpt lat="45.51439" lon="7.2549">
        <ele>3556.9</ele>
        <time>2021-11-07T11:10:16Z</time>
      </trkpt>
      <trkpt lat="45.51438" lon="7.2549">
        <ele>3557</ele>
        <time>2021-11-07T11:10:18Z</time>
      </trkpt>
      <trkpt lat="45.51438" lon="7.2549">
        <ele>3557</ele>
        <time>2021-11-07T11:10:20Z</time>
      </trkpt>
      <trkpt lat="45.51438" lon="7.2549">
        <ele>3557.1</ele>
        <time>2021-11-07T11:10:26Z</time>
      </trkpt>
      <trkpt lat="45.51438" lon="7.2549">
        <ele>3557.2</ele>
        <time>2021-11-07T11:10:29Z</time>
      </trkpt>
      <trkpt lat="45.51437" lon="7.25491">
        <ele>3557.4</ele>
        <time>2021-11-07T11:10:34Z</time>
      </trkpt>
      <trkpt lat="45.51437" lon="7.25491">
        <ele>3557.5</ele>
        <time>2021-11-07T11:10:35Z</time>
      </trkpt>
      <trkpt lat="45.51437" lon="7.25491">
        <ele>3557.5</ele>
        <time>2021-11-07T11:10:38Z</time>
      </trkpt>
      <trkpt lat="45.51436" lon="7.2549">
        <ele>3557.7</ele>
        <time>2021-11-07T11:10:51Z</time>
      </trkpt>
      <trkpt lat="45.51436" lon="7.2549">
        <ele>3557.7</ele>
        <time>2021-11-07T11:10:55Z</time>
      </trkpt>
      <trkpt lat="45.51436" lon="7.2549">
        <ele>3557.8</ele>
        <time>2021-11-07T11:10:57Z</time>
      </trkpt>
      <trkpt lat="45.51436" lon="7.2549">
        <ele>3557.8</ele>
        <time>2021-11-07T11:11:02Z</time>
      </trkpt>
      <trkpt lat="45.51436" lon="7.2549">
        <ele>3557.8</ele>
        <time>2021-11-07T11:11:04Z</time>
      </trkpt>
      <trkpt lat="45.51436" lon="7.25491">
        <ele>3557.9</ele>
        <time>2021-11-07T11:11:08Z</time>
      </trkpt>
      <trkpt lat="45.51436" lon="7.2549">
        <ele>3558</ele>
        <time>2021-11-07T11:11:10Z</time>
      </trkpt>
      <trkpt lat="45.51438" lon="7.25491">
        <ele>3558.3</ele>
        <time>2021-11-07T11:11:14Z</time>
      </trkpt>
      <trkpt lat="45.51439" lon="7.25492">
        <ele>3558.7</ele>
        <time>2021-11-07T11:11:18Z</time>
      </trkpt>
      <trkpt lat="45.51439" lon="7.25493">
        <ele>3558.7</ele>
        <time>2021-11-07T11:11:19Z</time>
      </trkpt>
      <trkpt lat="45.51439" lon="7.25493">
        <ele>3558.8</ele>
        <time>2021-11-07T11:11:21Z</time>
      </trkpt>
      <trkpt lat="45.51439" lon="7.25493">
        <ele>3558.8</ele>
        <time>2021-11-07T11:11:22Z</time>
      </trkpt>
      <trkpt lat="45.51439" lon="7.25493">
        <ele>3558.9</ele>
        <time>2021-11-07T11:11:23Z</time>
      </trkpt>
      <trkpt lat="45.51439" lon="7.25493">
        <ele>3559</ele>
        <time>2021-11-07T11:11:24Z</time>
      </trkpt>
      <trkpt lat="45.5144" lon="7.25493">
        <ele>3559.2</ele>
        <time>2021-11-07T11:11:30Z</time>
      </trkpt>
      <trkpt lat="45.5144" lon="7.25493">
        <ele>3559.2</ele>
        <time>2021-11-07T11:11:34Z</time>
      </trkpt>
      <trkpt lat="45.5144" lon="7.25493">
        <ele>3559.3</ele>
        <time>2021-11-07T11:11:42Z</time>
      </trkpt>
      <trkpt lat="45.5144" lon="7.25492">
        <ele>3559.4</ele>
        <time>2021-11-07T11:11:46Z</time>
      </trkpt>
      <trkpt lat="45.5144" lon="7.25492">
        <ele>3559.4</ele>
        <time>2021-11-07T11:11:48Z</time>
      </trkpt>
      <trkpt lat="45.5144" lon="7.25492">
        <ele>3559.5</ele>
        <time>2021-11-07T11:11:52Z</time>
      </trkpt>
      <trkpt lat="45.5144" lon="7.25493">
        <ele>3559.6</ele>
        <time>2021-11-07T11:11:54Z</time>
      </trkpt>
      <trkpt lat="45.5144" lon="7.25493">
        <ele>3559.6</ele>
        <time>2021-11-07T11:11:55Z</time>
      </trkpt>
      <trkpt lat="45.5144" lon="7.25493">
        <ele>3559.6</ele>
        <time>2021-11-07T11:11:59Z</time>
      </trkpt>
      <trkpt lat="45.51439" lon="7.25493">
        <ele>3559.7</ele>
        <time>2021-11-07T11:12:06Z</time>
      </trkpt>
      <trkpt lat="45.5144" lon="7.25492">
        <ele>3560</ele>
        <time>2021-11-07T11:12:16Z</time>
      </trkpt>
      <trkpt lat="45.5144" lon="7.25492">
        <ele>3560.1</ele>
        <time>2021-11-07T11:12:20Z</time>
      </trkpt>
      <trkpt lat="45.51441" lon="7.25491">
        <ele>3560.2</ele>
        <time>2021-11-07T11:12:32Z</time>
      </trkpt>
      <trkpt lat="45.51441" lon="7.25491">
        <ele>3560.2</ele>
        <time>2021-11-07T11:12:41Z</time>
      </trkpt>
      <trkpt lat="45.51441" lon="7.25491">
        <ele>3560.2</ele>
        <time>2021-11-07T11:12:47Z</time>
      </trkpt>
      <trkpt lat="45.51441" lon="7.25491">
        <ele>3560.3</ele>
        <time>2021-11-07T11:12:52Z</time>
      </trkpt>
      <trkpt lat="45.5144" lon="7.25491">
        <ele>3560.3</ele>
        <time>2021-11-07T11:12:54Z</time>
      </trkpt>
      <trkpt lat="45.5144" lon="7.25492">
        <ele>3560.4</ele>
        <time>2021-11-07T11:12:56Z</time>
      </trkpt>
      <trkpt lat="45.5144" lon="7.25492">
        <ele>3560.5</ele>
        <time>2021-11-07T11:12:59Z</time>
      </trkpt>
      <trkpt lat="45.5144" lon="7.25493">
        <ele>3560.6</ele>
        <time>2021-11-07T11:13:03Z</time>
      </trkpt>
      <trkpt lat="45.5144" lon="7.25493">
        <ele>3560.6</ele>
        <time>2021-11-07T11:13:08Z</time>
      </trkpt>
      <trkpt lat="45.5144" lon="7.25493">
        <ele>3560.6</ele>
        <time>2021-11-07T11:13:14Z</time>
      </trkpt>
      <trkpt lat="45.5144" lon="7.25493">
        <ele>3560.6</ele>
        <time>2021-11-07T11:13:20Z</time>
      </trkpt>
      <trkpt lat="45.5144" lon="7.25493">
        <ele>3560.6</ele>
        <time>2021-11-07T11:13:21Z</time>
      </trkpt>
      <trkpt lat="45.5144" lon="7.25493">
        <ele>3560.6</ele>
        <time>2021-11-07T11:13:28Z</time>
      </trkpt>
      <trkpt lat="45.5144" lon="7.25493">
        <ele>3560.6</ele>
        <time>2021-11-07T11:13:31Z</time>
      </trkpt>
      <trkpt lat="45.5144" lon="7.25493">
        <ele>3560.7</ele>
        <time>2021-11-07T11:13:34Z</time>
      </trkpt>
      <trkpt lat="45.5144" lon="7.25493">
        <ele>3560.7</ele>
        <time>2021-11-07T11:13:38Z</time>
      </trkpt>
      <trkpt lat="45.5144" lon="7.25493">
        <ele>3560.8</ele>
        <time>2021-11-07T11:13:40Z</time>
      </trkpt>
      <trkpt lat="45.5144" lon="7.25494">
        <ele>3560.8</ele>
        <time>2021-11-07T11:13:51Z</time>
      </trkpt>
      <trkpt lat="45.5144" lon="7.25494">
        <ele>3560.8</ele>
        <time>2021-11-07T11:13:53Z</time>
      </trkpt>
      <trkpt lat="45.5144" lon="7.25494">
        <ele>3560.9</ele>
        <time>2021-11-07T11:13:56Z</time>
      </trkpt>
      <trkpt lat="45.5144" lon="7.25494">
        <ele>3560.9</ele>
        <time>2021-11-07T11:14:02Z</time>
      </trkpt>
      <trkpt lat="45.5144" lon="7.25494">
        <ele>3560.9</ele>
        <time>2021-11-07T11:14:03Z</time>
      </trkpt>
      <trkpt lat="45.5144" lon="7.25494">
        <ele>3560.9</ele>
        <time>2021-11-07T11:14:13Z</time>
      </trkpt>
      <trkpt lat="45.5144" lon="7.25494">
        <ele>3561</ele>
        <time>2021-11-07T11:14:21Z</time>
      </trkpt>
      <trkpt lat="45.5144" lon="7.25494">
        <ele>3561.1</ele>
        <time>2021-11-07T11:14:33Z</time>
      </trkpt>
      <trkpt lat="45.5144" lon="7.25494">
        <ele>3561.1</ele>
        <time>2021-11-07T11:14:34Z</time>
      </trkpt>
      <trkpt lat="45.5144" lon="7.25494">
        <ele>3561.2</ele>
        <time>2021-11-07T11:14:35Z</time>
      </trkpt>
      <trkpt lat="45.5144" lon="7.25494">
        <ele>3561.2</ele>
        <time>2021-11-07T11:14:37Z</time>
      </trkpt>
      <trkpt lat="45.51441" lon="7.25493">
        <ele>3561.3</ele>
        <time>2021-11-07T11:14:39Z</time>
      </trkpt>
      <trkpt lat="45.51441" lon="7.25493">
        <ele>3561.3</ele>
        <time>2021-11-07T11:14:43Z</time>
      </trkpt>
      <trkpt lat="45.51441" lon="7.25493">
        <ele>3561.3</ele>
        <time>2021-11-07T11:14:51Z</time>
      </trkpt>
      <trkpt lat="45.51441" lon="7.25493">
        <ele>3561.4</ele>
        <time>2021-11-07T11:14:58Z</time>
      </trkpt>
      <trkpt lat="45.51441" lon="7.25493">
        <ele>3561.4</ele>
        <time>2021-11-07T11:14:59Z</time>
      </trkpt>
      <trkpt lat="45.51441" lon="7.25492">
        <ele>3561.6</ele>
        <time>2021-11-07T11:15:05Z</time>
      </trkpt>
      <trkpt lat="45.51441" lon="7.25492">
        <ele>3561.6</ele>
        <time>2021-11-07T11:15:07Z</time>
      </trkpt>
      <trkpt lat="45.51441" lon="7.25494">
        <ele>3562</ele>
        <time>2021-11-07T11:15:27Z</time>
      </trkpt>
      <trkpt lat="45.5144" lon="7.25495">
        <ele>3562.1</ele>
        <time>2021-11-07T11:15:33Z</time>
      </trkpt>
      <trkpt lat="45.5144" lon="7.25496">
        <ele>3562.4</ele>
        <time>2021-11-07T11:15:38Z</time>
      </trkpt>
      <trkpt lat="45.5144" lon="7.25497">
        <ele>3562.6</ele>
        <time>2021-11-07T11:15:42Z</time>
      </trkpt>
      <trkpt lat="45.5144" lon="7.25498">
        <ele>3562.7</ele>
        <time>2021-11-07T11:15:44Z</time>
      </trkpt>
      <trkpt lat="45.51439" lon="7.25501">
        <ele>3563.3</ele>
        <time>2021-11-07T11:15:54Z</time>
      </trkpt>
      <trkpt lat="45.51439" lon="7.25501">
        <ele>3563.4</ele>
        <time>2021-11-07T11:15:58Z</time>
      </trkpt>
      <trkpt lat="45.51439" lon="7.25502">
        <ele>3563.5</ele>
        <time>2021-11-07T11:16:00Z</time>
      </trkpt>
      <trkpt lat="45.51438" lon="7.25503">
        <ele>3563.7</ele>
        <time>2021-11-07T11:16:04Z</time>
      </trkpt>
      <trkpt lat="45.51438" lon="7.25504">
        <ele>3564</ele>
        <time>2021-11-07T11:16:12Z</time>
      </trkpt>
      <trkpt lat="45.51438" lon="7.25508">
        <ele>3564.7</ele>
        <time>2021-11-07T11:16:32Z</time>
      </trkpt>
      <trkpt lat="45.51437" lon="7.25511">
        <ele>3565.2</ele>
        <time>2021-11-07T11:16:41Z</time>
      </trkpt>
      <trkpt lat="45.51437" lon="7.25511">
        <ele>3565.2</ele>
        <time>2021-11-07T11:16:45Z</time>
      </trkpt>
      <trkpt lat="45.51437" lon="7.25511">
        <ele>3565.3</ele>
        <time>2021-11-07T11:16:48Z</time>
      </trkpt>
      <trkpt lat="45.51437" lon="7.25512">
        <ele>3565.5</ele>
        <time>2021-11-07T11:17:00Z</time>
      </trkpt>
      <trkpt lat="45.51437" lon="7.25513">
        <ele>3565.6</ele>
        <time>2021-11-07T11:17:02Z</time>
      </trkpt>
      <trkpt lat="45.51437" lon="7.25513">
        <ele>3565.6</ele>
        <time>2021-11-07T11:17:05Z</time>
      </trkpt>
      <trkpt lat="45.51437" lon="7.25513">
        <ele>3565.7</ele>
        <time>2021-11-07T11:17:06Z</time>
      </trkpt>
      <trkpt lat="45.51437" lon="7.25514">
        <ele>3565.8</ele>
        <time>2021-11-07T11:17:13Z</time>
      </trkpt>
      <trkpt lat="45.51437" lon="7.25514">
        <ele>3565.8</ele>
        <time>2021-11-07T11:17:20Z</time>
      </trkpt>
      <trkpt lat="45.51437" lon="7.25514">
        <ele>3565.9</ele>
        <time>2021-11-07T11:17:22Z</time>
      </trkpt>
      <trkpt lat="45.51437" lon="7.25514">
        <ele>3565.9</ele>
        <time>2021-11-07T11:17:24Z</time>
      </trkpt>
      <trkpt lat="45.51437" lon="7.25515">
        <ele>3566.1</ele>
        <time>2021-11-07T11:17:28Z</time>
      </trkpt>
      <trkpt lat="45.51437" lon="7.25515">
        <ele>3566.1</ele>
        <time>2021-11-07T11:17:31Z</time>
      </trkpt>
      <trkpt lat="45.51436" lon="7.25516">
        <ele>3566.3</ele>
        <time>2021-11-07T11:17:36Z</time>
      </trkpt>
      <trkpt lat="45.51436" lon="7.25516">
        <ele>3566.4</ele>
        <time>2021-11-07T11:17:40Z</time>
      </trkpt>
      <trkpt lat="45.51436" lon="7.25517">
        <ele>3566.5</ele>
        <time>2021-11-07T11:17:45Z</time>
      </trkpt>
      <trkpt lat="45.51436" lon="7.25517">
        <ele>3566.6</ele>
        <time>2021-11-07T11:17:49Z</time>
      </trkpt>
      <trkpt lat="45.51436" lon="7.25518">
        <ele>3566.7</ele>
        <time>2021-11-07T11:17:51Z</time>
      </trkpt>
      <trkpt lat="45.51435" lon="7.25519">
        <ele>3567</ele>
        <time>2021-11-07T11:17:59Z</time>
      </trkpt>
      <trkpt lat="45.51435" lon="7.2552">
        <ele>3567</ele>
        <time>2021-11-07T11:18:00Z</time>
      </trkpt>
      <trkpt lat="45.51435" lon="7.2552">
        <ele>3567</ele>
        <time>2021-11-07T11:18:03Z</time>
      </trkpt>
      <trkpt lat="45.51435" lon="7.2552">
        <ele>3567.1</ele>
        <time>2021-11-07T11:18:09Z</time>
      </trkpt>
      <trkpt lat="45.51435" lon="7.25521">
        <ele>3567.3</ele>
        <time>2021-11-07T11:18:12Z</time>
      </trkpt>
      <trkpt lat="45.51435" lon="7.25522">
        <ele>3567.6</ele>
        <time>2021-11-07T11:18:25Z</time>
      </trkpt>
      <trkpt lat="45.51435" lon="7.25522">
        <ele>3567.6</ele>
        <time>2021-11-07T11:18:27Z</time>
      </trkpt>
      <trkpt lat="45.51435" lon="7.25523">
        <ele>3567.6</ele>
        <time>2021-11-07T11:18:28Z</time>
      </trkpt>
      <trkpt lat="45.51435" lon="7.25523">
        <ele>3567.8</ele>
        <time>2021-11-07T11:18:36Z</time>
      </trkpt>
      <trkpt lat="45.51435" lon="7.25523">
        <ele>3567.8</ele>
        <time>2021-11-07T11:18:39Z</time>
      </trkpt>
      <trkpt lat="45.51434" lon="7.25526">
        <ele>3568.3</ele>
        <time>2021-11-07T11:18:51Z</time>
      </trkpt>
      <trkpt lat="45.51435" lon="7.25527">
        <ele>3568.7</ele>
        <time>2021-11-07T11:19:03Z</time>
      </trkpt>
      <trkpt lat="45.51435" lon="7.25527">
        <ele>3568.8</ele>
        <time>2021-11-07T11:19:07Z</time>
      </trkpt>
      <trkpt lat="45.51435" lon="7.25528">
        <ele>3568.9</ele>
        <time>2021-11-07T11:19:12Z</time>
      </trkpt>
      <trkpt lat="45.51434" lon="7.25529">
        <ele>3569.2</ele>
        <time>2021-11-07T11:19:17Z</time>
      </trkpt>
      <trkpt lat="45.51434" lon="7.25529">
        <ele>3569.2</ele>
        <time>2021-11-07T11:19:20Z</time>
      </trkpt>
      <trkpt lat="45.51434" lon="7.2553">
        <ele>3569.4</ele>
        <time>2021-11-07T11:19:24Z</time>
      </trkpt>
      <trkpt lat="45.51433" lon="7.2553">
        <ele>3569.5</ele>
        <time>2021-11-07T11:19:30Z</time>
      </trkpt>
      <trkpt lat="45.51433" lon="7.2553">
        <ele>3569.5</ele>
        <time>2021-11-07T11:19:32Z</time>
      </trkpt>
      <trkpt lat="45.51433" lon="7.2553">
        <ele>3569.6</ele>
        <time>2021-11-07T11:19:33Z</time>
      </trkpt>
      <trkpt lat="45.51432" lon="7.25531">
        <ele>3569.8</ele>
        <time>2021-11-07T11:19:39Z</time>
      </trkpt>
      <trkpt lat="45.51432" lon="7.25531">
        <ele>3569.9</ele>
        <time>2021-11-07T11:19:40Z</time>
      </trkpt>
      <trkpt lat="45.51432" lon="7.25532">
        <ele>3570</ele>
        <time>2021-11-07T11:19:43Z</time>
      </trkpt>
      <trkpt lat="45.51432" lon="7.25532">
        <ele>3570</ele>
        <time>2021-11-07T11:19:44Z</time>
      </trkpt>
      <trkpt lat="45.51433" lon="7.25532">
        <ele>3570.1</ele>
        <time>2021-11-07T11:19:49Z</time>
      </trkpt>
      <trkpt lat="45.51432" lon="7.25533">
        <ele>3570.3</ele>
        <time>2021-11-07T11:19:55Z</time>
      </trkpt>
      <trkpt lat="45.51432" lon="7.25533">
        <ele>3570.3</ele>
        <time>2021-11-07T11:19:57Z</time>
      </trkpt>
      <trkpt lat="45.51432" lon="7.25534">
        <ele>3570.4</ele>
        <time>2021-11-07T11:20:03Z</time>
      </trkpt>
      <trkpt lat="45.51432" lon="7.25534">
        <ele>3570.4</ele>
        <time>2021-11-07T11:20:07Z</time>
      </trkpt>
      <trkpt lat="45.51432" lon="7.25534">
        <ele>3570.4</ele>
        <time>2021-11-07T11:20:12Z</time>
      </trkpt>
      <trkpt lat="45.51432" lon="7.25534">
        <ele>3570.5</ele>
        <time>2021-11-07T11:20:16Z</time>
      </trkpt>
      <trkpt lat="45.51431" lon="7.25535">
        <ele>3570.9</ele>
        <time>2021-11-07T11:20:26Z</time>
      </trkpt>
      <trkpt lat="45.51431" lon="7.25535">
        <ele>3570.9</ele>
        <time>2021-11-07T11:20:29Z</time>
      </trkpt>
      <trkpt lat="45.51431" lon="7.25535">
        <ele>3571</ele>
        <time>2021-11-07T11:20:35Z</time>
      </trkpt>
      <trkpt lat="45.51431" lon="7.25535">
        <ele>3571.1</ele>
        <time>2021-11-07T11:20:37Z</time>
      </trkpt>
      <trkpt lat="45.51431" lon="7.25535">
        <ele>3571.1</ele>
        <time>2021-11-07T11:20:40Z</time>
      </trkpt>
      <trkpt lat="45.51431" lon="7.25536">
        <ele>3571.3</ele>
        <time>2021-11-07T11:20:45Z</time>
      </trkpt>
      <trkpt lat="45.51431" lon="7.25537">
        <ele>3571.3</ele>
        <time>2021-11-07T11:20:47Z</time>
      </trkpt>
      <trkpt lat="45.51431" lon="7.25538">
        <ele>3571.6</ele>
        <time>2021-11-07T11:20:53Z</time>
      </trkpt>
      <trkpt lat="45.51431" lon="7.25538">
        <ele>3571.6</ele>
        <time>2021-11-07T11:20:54Z</time>
      </trkpt>
      <trkpt lat="45.51431" lon="7.25538">
        <ele>3571.6</ele>
        <time>2021-11-07T11:20:55Z</time>
      </trkpt>
      <trkpt lat="45.5143" lon="7.25539">
        <ele>3571.7</ele>
        <time>2021-11-07T11:20:57Z</time>
      </trkpt>
      <trkpt lat="45.5143" lon="7.2554">
        <ele>3571.9</ele>
        <time>2021-11-07T11:21:04Z</time>
      </trkpt>
      <trkpt lat="45.5143" lon="7.2554">
        <ele>3572</ele>
        <time>2021-11-07T11:21:07Z</time>
      </trkpt>
      <trkpt lat="45.5143" lon="7.2554">
        <ele>3572.1</ele>
        <time>2021-11-07T11:21:11Z</time>
      </trkpt>
      <trkpt lat="45.5143" lon="7.2554">
        <ele>3572.1</ele>
        <time>2021-11-07T11:21:13Z</time>
      </trkpt>
      <trkpt lat="45.5143" lon="7.2554">
        <ele>3572.2</ele>
        <time>2021-11-07T11:21:16Z</time>
      </trkpt>
      <trkpt lat="45.5143" lon="7.25541">
        <ele>3572.3</ele>
        <time>2021-11-07T11:21:17Z</time>
      </trkpt>
      <trkpt lat="45.5143" lon="7.25542">
        <ele>3572.4</ele>
        <time>2021-11-07T11:21:20Z</time>
      </trkpt>
      <trkpt lat="45.5143" lon="7.25543">
        <ele>3572.7</ele>
        <time>2021-11-07T11:21:26Z</time>
      </trkpt>
      <trkpt lat="45.5143" lon="7.25543">
        <ele>3572.8</ele>
        <time>2021-11-07T11:21:28Z</time>
      </trkpt>
      <trkpt lat="45.51431" lon="7.25542">
        <ele>3572.9</ele>
        <time>2021-11-07T11:21:35Z</time>
      </trkpt>
      <trkpt lat="45.5143" lon="7.25543">
        <ele>3573.1</ele>
        <time>2021-11-07T11:21:40Z</time>
      </trkpt>
      <trkpt lat="45.5143" lon="7.25543">
        <ele>3573.1</ele>
        <time>2021-11-07T11:21:41Z</time>
      </trkpt>
      <trkpt lat="45.5143" lon="7.25543">
        <ele>3573.1</ele>
        <time>2021-11-07T11:21:42Z</time>
      </trkpt>
      <trkpt lat="45.5143" lon="7.25544">
        <ele>3573.2</ele>
        <time>2021-11-07T11:21:43Z</time>
      </trkpt>
      <trkpt lat="45.5143" lon="7.25545">
        <ele>3573.4</ele>
        <time>2021-11-07T11:21:52Z</time>
      </trkpt>
      <trkpt lat="45.5143" lon="7.25545">
        <ele>3573.5</ele>
        <time>2021-11-07T11:21:56Z</time>
      </trkpt>
      <trkpt lat="45.51429" lon="7.25546">
        <ele>3573.7</ele>
        <time>2021-11-07T11:21:59Z</time>
      </trkpt>
      <trkpt lat="45.51429" lon="7.25546">
        <ele>3573.8</ele>
        <time>2021-11-07T11:22:03Z</time>
      </trkpt>
      <trkpt lat="45.51429" lon="7.25546">
        <ele>3573.8</ele>
        <time>2021-11-07T11:22:04Z</time>
      </trkpt>
      <trkpt lat="45.51429" lon="7.25548">
        <ele>3574</ele>
        <time>2021-11-07T11:22:11Z</time>
      </trkpt>
      <trkpt lat="45.51429" lon="7.25548">
        <ele>3574</ele>
        <time>2021-11-07T11:22:12Z</time>
      </trkpt>
      <trkpt lat="45.5143" lon="7.25549">
        <ele>3574.3</ele>
        <time>2021-11-07T11:22:16Z</time>
      </trkpt>
      <trkpt lat="45.51431" lon="7.25549">
        <ele>3574.5</ele>
        <time>2021-11-07T11:22:17Z</time>
      </trkpt>
      <trkpt lat="45.51431" lon="7.2555">
        <ele>3574.7</ele>
        <time>2021-11-07T11:22:22Z</time>
      </trkpt>
      <trkpt lat="45.51431" lon="7.2555">
        <ele>3574.8</ele>
        <time>2021-11-07T11:22:25Z</time>
      </trkpt>
      <trkpt lat="45.51431" lon="7.25551">
        <ele>3574.8</ele>
        <time>2021-11-07T11:22:27Z</time>
      </trkpt>
      <trkpt lat="45.51431" lon="7.25551">
        <ele>3575</ele>
        <time>2021-11-07T11:22:29Z</time>
      </trkpt>
      <trkpt lat="45.51431" lon="7.25552">
        <ele>3575.1</ele>
        <time>2021-11-07T11:22:30Z</time>
      </trkpt>
      <trkpt lat="45.51431" lon="7.25552">
        <ele>3575.2</ele>
        <time>2021-11-07T11:22:32Z</time>
      </trkpt>
      <trkpt lat="45.5143" lon="7.25553">
        <ele>3575.3</ele>
        <time>2021-11-07T11:22:34Z</time>
      </trkpt>
      <trkpt lat="45.5143" lon="7.25553">
        <ele>3575.4</ele>
        <time>2021-11-07T11:22:36Z</time>
      </trkpt>
      <trkpt lat="45.5143" lon="7.25553">
        <ele>3575.4</ele>
        <time>2021-11-07T11:22:37Z</time>
      </trkpt>
      <trkpt lat="45.5143" lon="7.25554">
        <ele>3575.5</ele>
        <time>2021-11-07T11:22:38Z</time>
      </trkpt>
      <trkpt lat="45.5143" lon="7.25554">
        <ele>3575.6</ele>
        <time>2021-11-07T11:22:40Z</time>
      </trkpt>
      <trkpt lat="45.51428" lon="7.25555">
        <ele>3576</ele>
        <time>2021-11-07T11:22:46Z</time>
      </trkpt>
      <trkpt lat="45.51428" lon="7.25555">
        <ele>3576.1</ele>
        <time>2021-11-07T11:22:47Z</time>
      </trkpt>
      <trkpt lat="45.51428" lon="7.25555">
        <ele>3576.1</ele>
        <time>2021-11-07T11:22:49Z</time>
      </trkpt>
      <trkpt lat="45.51428" lon="7.25555">
        <ele>3576.2</ele>
        <time>2021-11-07T11:22:51Z</time>
      </trkpt>
      <trkpt lat="45.51428" lon="7.25555">
        <ele>3576.3</ele>
        <time>2021-11-07T11:22:54Z</time>
      </trkpt>
      <trkpt lat="45.51429" lon="7.25556">
        <ele>3576.5</ele>
        <time>2021-11-07T11:22:58Z</time>
      </trkpt>
      <trkpt lat="45.51429" lon="7.25556">
        <ele>3576.6</ele>
        <time>2021-11-07T11:23:01Z</time>
      </trkpt>
      <trkpt lat="45.51429" lon="7.25556">
        <ele>3576.7</ele>
        <time>2021-11-07T11:23:04Z</time>
      </trkpt>
      <trkpt lat="45.51429" lon="7.25557">
        <ele>3576.8</ele>
        <time>2021-11-07T11:23:06Z</time>
      </trkpt>
      <trkpt lat="45.51429" lon="7.25558">
        <ele>3577</ele>
        <time>2021-11-07T11:23:08Z</time>
      </trkpt>
      <trkpt lat="45.51429" lon="7.25559">
        <ele>3577.3</ele>
        <time>2021-11-07T11:23:13Z</time>
      </trkpt>
      <trkpt lat="45.51428" lon="7.25559">
        <ele>3577.4</ele>
        <time>2021-11-07T11:23:15Z</time>
      </trkpt>
      <trkpt lat="45.51427" lon="7.25561">
        <ele>3577.8</ele>
        <time>2021-11-07T11:23:19Z</time>
      </trkpt>
      <trkpt lat="45.51427" lon="7.25561">
        <ele>3577.8</ele>
        <time>2021-11-07T11:23:20Z</time>
      </trkpt>
      <trkpt lat="45.51427" lon="7.25561">
        <ele>3577.9</ele>
        <time>2021-11-07T11:23:23Z</time>
      </trkpt>
      <trkpt lat="45.51427" lon="7.25562">
        <ele>3577.9</ele>
        <time>2021-11-07T11:23:24Z</time>
      </trkpt>
      <trkpt lat="45.51427" lon="7.25562">
        <ele>3578</ele>
        <time>2021-11-07T11:23:25Z</time>
      </trkpt>
      <trkpt lat="45.51426" lon="7.25564">
        <ele>3578.4</ele>
        <time>2021-11-07T11:23:36Z</time>
      </trkpt>
      <trkpt lat="45.51426" lon="7.25564">
        <ele>3578.4</ele>
        <time>2021-11-07T11:23:37Z</time>
      </trkpt>
      <trkpt lat="45.51426" lon="7.25565">
        <ele>3578.6</ele>
        <time>2021-11-07T11:23:42Z</time>
      </trkpt>
      <trkpt lat="45.51425" lon="7.25567">
        <ele>3579</ele>
        <time>2021-11-07T11:23:49Z</time>
      </trkpt>
      <trkpt lat="45.51424" lon="7.2557">
        <ele>3579.5</ele>
        <time>2021-11-07T11:23:56Z</time>
      </trkpt>
      <trkpt lat="45.51424" lon="7.25569">
        <ele>3579.6</ele>
        <time>2021-11-07T11:23:59Z</time>
      </trkpt>
      <trkpt lat="45.51424" lon="7.2557">
        <ele>3579.6</ele>
        <time>2021-11-07T11:24:00Z</time>
      </trkpt>
      <trkpt lat="45.51424" lon="7.25571">
        <ele>3579.9</ele>
        <time>2021-11-07T11:24:06Z</time>
      </trkpt>
      <trkpt lat="45.51424" lon="7.25572">
        <ele>3580.2</ele>
        <time>2021-11-07T11:24:13Z</time>
      </trkpt>
      <trkpt lat="45.51425" lon="7.25574">
        <ele>3580.4</ele>
        <time>2021-11-07T11:24:22Z</time>
      </trkpt>
      <trkpt lat="45.51424" lon="7.25574">
        <ele>3580.6</ele>
        <time>2021-11-07T11:24:24Z</time>
      </trkpt>
      <trkpt lat="45.51423" lon="7.25575">
        <ele>3580.9</ele>
        <time>2021-11-07T11:24:28Z</time>
      </trkpt>
      <trkpt lat="45.51421" lon="7.25576">
        <ele>3581.4</ele>
        <time>2021-11-07T11:24:32Z</time>
      </trkpt>
      <trkpt lat="45.5142" lon="7.25577">
        <ele>3581.7</ele>
        <time>2021-11-07T11:24:35Z</time>
      </trkpt>
      <trkpt lat="45.5142" lon="7.25578">
        <ele>3581.9</ele>
        <time>2021-11-07T11:24:37Z</time>
      </trkpt>
      <trkpt lat="45.51419" lon="7.25578">
        <ele>3582.1</ele>
        <time>2021-11-07T11:24:39Z</time>
      </trkpt>
      <trkpt lat="45.51418" lon="7.25578">
        <ele>3582.4</ele>
        <time>2021-11-07T11:24:42Z</time>
      </trkpt>
      <trkpt lat="45.51417" lon="7.25577">
        <ele>3582.7</ele>
        <time>2021-11-07T11:24:52Z</time>
      </trkpt>
      <trkpt lat="45.51417" lon="7.25577">
        <ele>3582.7</ele>
        <time>2021-11-07T11:24:53Z</time>
      </trkpt>
      <trkpt lat="45.51417" lon="7.25577">
        <ele>3582.7</ele>
        <time>2021-11-07T11:24:54Z</time>
      </trkpt>
      <trkpt lat="45.51417" lon="7.25577">
        <ele>3582.8</ele>
        <time>2021-11-07T11:24:56Z</time>
      </trkpt>
      <trkpt lat="45.51417" lon="7.25576">
        <ele>3582.8</ele>
        <time>2021-11-07T11:25:00Z</time>
      </trkpt>
      <trkpt lat="45.51417" lon="7.25576">
        <ele>3582.8</ele>
        <time>2021-11-07T11:25:03Z</time>
      </trkpt>
      <trkpt lat="45.51416" lon="7.25576">
        <ele>3582.8</ele>
        <time>2021-11-07T11:25:05Z</time>
      </trkpt>
      <trkpt lat="45.51416" lon="7.25576">
        <ele>3582.8</ele>
        <time>2021-11-07T11:25:08Z</time>
      </trkpt>
      <trkpt lat="45.51416" lon="7.25577">
        <ele>3582.9</ele>
        <time>2021-11-07T11:25:10Z</time>
      </trkpt>
      <trkpt lat="45.51417" lon="7.25576">
        <ele>3583</ele>
        <time>2021-11-07T11:25:15Z</time>
      </trkpt>
      <trkpt lat="45.51417" lon="7.25576">
        <ele>3583</ele>
        <time>2021-11-07T11:25:16Z</time>
      </trkpt>
      <trkpt lat="45.51416" lon="7.25575">
        <ele>3583.2</ele>
        <time>2021-11-07T11:25:21Z</time>
      </trkpt>
      <trkpt lat="45.51416" lon="7.25575">
        <ele>3583.2</ele>
        <time>2021-11-07T11:25:23Z</time>
      </trkpt>
      <trkpt lat="45.51416" lon="7.25575">
        <ele>3583.2</ele>
        <time>2021-11-07T11:25:25Z</time>
      </trkpt>
      <trkpt lat="45.51416" lon="7.25575">
        <ele>3583.3</ele>
        <time>2021-11-07T11:25:30Z</time>
      </trkpt>
      <trkpt lat="45.51417" lon="7.25575">
        <ele>3583.3</ele>
        <time>2021-11-07T11:25:34Z</time>
      </trkpt>
      <trkpt lat="45.51417" lon="7.25575">
        <ele>3583.3</ele>
        <time>2021-11-07T11:25:35Z</time>
      </trkpt>
      <trkpt lat="45.51405" lon="7.25603">
        <ele>3589.1</ele>
        <time>2021-11-07T11:27:39Z</time>
      </trkpt>
      <trkpt lat="45.51405" lon="7.25603">
        <ele>3589.2</ele>
        <time>2021-11-07T11:27:40Z</time>
      </trkpt>
      <trkpt lat="45.51405" lon="7.25604">
        <ele>3589.4</ele>
        <time>2021-11-07T11:27:44Z</time>
      </trkpt>
      <trkpt lat="45.51404" lon="7.25606">
        <ele>3589.7</ele>
        <time>2021-11-07T11:27:47Z</time>
      </trkpt>
      <trkpt lat="45.51403" lon="7.25608">
        <ele>3590.1</ele>
        <time>2021-11-07T11:27:52Z</time>
      </trkpt>
      <trkpt lat="45.51402" lon="7.25608">
        <ele>3590.4</ele>
        <time>2021-11-07T11:27:56Z</time>
      </trkpt>
      <trkpt lat="45.51402" lon="7.25609">
        <ele>3590.6</ele>
        <time>2021-11-07T11:27:59Z</time>
      </trkpt>
      <trkpt lat="45.51402" lon="7.2561">
        <ele>3590.6</ele>
        <time>2021-11-07T11:28:03Z</time>
      </trkpt>
      <trkpt lat="45.51401" lon="7.25612">
        <ele>3591.2</ele>
        <time>2021-11-07T11:28:13Z</time>
      </trkpt>
      <trkpt lat="45.514" lon="7.25614">
        <ele>3591.6</ele>
        <time>2021-11-07T11:28:27Z</time>
      </trkpt>
      <trkpt lat="45.514" lon="7.25615">
        <ele>3591.8</ele>
        <time>2021-11-07T11:28:31Z</time>
      </trkpt>
      <trkpt lat="45.514" lon="7.25619">
        <ele>3592.5</ele>
        <time>2021-11-07T11:28:44Z</time>
      </trkpt>
      <trkpt lat="45.51401" lon="7.25618">
        <ele>3592.7</ele>
        <time>2021-11-07T11:28:46Z</time>
      </trkpt>
      <trkpt lat="45.51399" lon="7.2562">
        <ele>3593</ele>
        <time>2021-11-07T11:28:52Z</time>
      </trkpt>
      <trkpt lat="45.51399" lon="7.25621">
        <ele>3593.3</ele>
        <time>2021-11-07T11:28:54Z</time>
      </trkpt>
      <trkpt lat="45.51398" lon="7.25621">
        <ele>3593.5</ele>
        <time>2021-11-07T11:28:57Z</time>
      </trkpt>
      <trkpt lat="45.51398" lon="7.25622">
        <ele>3593.6</ele>
        <time>2021-11-07T11:28:58Z</time>
      </trkpt>
      <trkpt lat="45.51398" lon="7.25622">
        <ele>3593.7</ele>
        <time>2021-11-07T11:28:59Z</time>
      </trkpt>
      <trkpt lat="45.51397" lon="7.25623">
        <ele>3594</ele>
        <time>2021-11-07T11:29:01Z</time>
      </trkpt>
      <trkpt lat="45.51397" lon="7.25624">
        <ele>3594.1</ele>
        <time>2021-11-07T11:29:02Z</time>
      </trkpt>
      <trkpt lat="45.51397" lon="7.25624">
        <ele>3594.2</ele>
        <time>2021-11-07T11:29:03Z</time>
      </trkpt>
      <trkpt lat="45.51397" lon="7.25626">
        <ele>3594.5</ele>
        <time>2021-11-07T11:29:08Z</time>
      </trkpt>
      <trkpt lat="45.51396" lon="7.25625">
        <ele>3594.6</ele>
        <time>2021-11-07T11:29:10Z</time>
      </trkpt>
      <trkpt lat="45.51397" lon="7.25624">
        <ele>3594.8</ele>
        <time>2021-11-07T11:29:18Z</time>
      </trkpt>
      <trkpt lat="45.51397" lon="7.25624">
        <ele>3594.8</ele>
        <time>2021-11-07T11:29:19Z</time>
      </trkpt>
      <trkpt lat="45.51397" lon="7.25624">
        <ele>3594.8</ele>
        <time>2021-11-07T11:29:21Z</time>
      </trkpt>
      <trkpt lat="45.51397" lon="7.25621">
        <ele>3595.4</ele>
        <time>2021-11-07T11:29:35Z</time>
      </trkpt>
      <trkpt lat="45.51397" lon="7.2562">
        <ele>3595.6</ele>
        <time>2021-11-07T11:29:36Z</time>
      </trkpt>
      <trkpt lat="45.51397" lon="7.25615">
        <ele>3596.4</ele>
        <time>2021-11-07T11:29:49Z</time>
      </trkpt>
      <trkpt lat="45.51397" lon="7.25615">
        <ele>3596.5</ele>
        <time>2021-11-07T11:29:50Z</time>
      </trkpt>
      <trkpt lat="45.51397" lon="7.25615">
        <ele>3596.5</ele>
        <time>2021-11-07T11:29:52Z</time>
      </trkpt>
      <trkpt lat="45.51398" lon="7.25615">
        <ele>3596.5</ele>
        <time>2021-11-07T11:29:54Z</time>
      </trkpt>
      <trkpt lat="45.51398" lon="7.25615">
        <ele>3596.5</ele>
        <time>2021-11-07T11:29:59Z</time>
      </trkpt>
      <trkpt lat="45.51397" lon="7.25615">
        <ele>3596.6</ele>
        <time>2021-11-07T11:30:04Z</time>
      </trkpt>
      <trkpt lat="45.51398" lon="7.25616">
        <ele>3596.7</ele>
        <time>2021-11-07T11:30:05Z</time>
      </trkpt>
      <trkpt lat="45.51397" lon="7.25617">
        <ele>3596.8</ele>
        <time>2021-11-07T11:30:15Z</time>
      </trkpt>
      <trkpt lat="45.51397" lon="7.25617">
        <ele>3596.9</ele>
        <time>2021-11-07T11:30:16Z</time>
      </trkpt>
      <trkpt lat="45.51397" lon="7.25618">
        <ele>3597.1</ele>
        <time>2021-11-07T11:30:18Z</time>
      </trkpt>
      <trkpt lat="45.51398" lon="7.25618">
        <ele>3597.2</ele>
        <time>2021-11-07T11:30:20Z</time>
      </trkpt>
      <trkpt lat="45.51398" lon="7.25617">
        <ele>3597.3</ele>
        <time>2021-11-07T11:30:24Z</time>
      </trkpt>
      <trkpt lat="45.51398" lon="7.25617">
        <ele>3597.4</ele>
        <time>2021-11-07T11:30:31Z</time>
      </trkpt>
      <trkpt lat="45.51398" lon="7.25617">
        <ele>3597.4</ele>
        <time>2021-11-07T11:30:32Z</time>
      </trkpt>
      <trkpt lat="45.51398" lon="7.25617">
        <ele>3597.4</ele>
        <time>2021-11-07T11:30:33Z</time>
      </trkpt>
      <trkpt lat="45.51398" lon="7.25618">
        <ele>3597.4</ele>
        <time>2021-11-07T11:30:35Z</time>
      </trkpt>
      <trkpt lat="45.51399" lon="7.25617">
        <ele>3597.4</ele>
        <time>2021-11-07T11:30:36Z</time>
      </trkpt>
      <trkpt lat="45.51399" lon="7.25617">
        <ele>3597.5</ele>
        <time>2021-11-07T11:30:37Z</time>
      </trkpt>
      <trkpt lat="45.51398" lon="7.25617">
        <ele>3597.5</ele>
        <time>2021-11-07T11:30:39Z</time>
      </trkpt>
      <trkpt lat="45.51398" lon="7.25617">
        <ele>3597.5</ele>
        <time>2021-11-07T11:30:41Z</time>
      </trkpt>
      <trkpt lat="45.51399" lon="7.25617">
        <ele>3597.6</ele>
        <time>2021-11-07T11:30:43Z</time>
      </trkpt>
      <trkpt lat="45.51398" lon="7.25617">
        <ele>3597.7</ele>
        <time>2021-11-07T11:30:46Z</time>
      </trkpt>
      <trkpt lat="45.51397" lon="7.25617">
        <ele>3598</ele>
        <time>2021-11-07T11:30:59Z</time>
      </trkpt>
      <trkpt lat="45.51397" lon="7.25617">
        <ele>3598</ele>
        <time>2021-11-07T11:31:00Z</time>
      </trkpt>
      <trkpt lat="45.51397" lon="7.25618">
        <ele>3598.1</ele>
        <time>2021-11-07T11:31:03Z</time>
      </trkpt>
      <trkpt lat="45.51397" lon="7.25617">
        <ele>3598.2</ele>
        <time>2021-11-07T11:31:04Z</time>
      </trkpt>
      <trkpt lat="45.51397" lon="7.25617">
        <ele>3598.2</ele>
        <time>2021-11-07T11:31:08Z</time>
      </trkpt>
      <trkpt lat="45.51398" lon="7.25617">
        <ele>3598.5</ele>
        <time>2021-11-07T11:31:13Z</time>
      </trkpt>
      <trkpt lat="45.51398" lon="7.25617">
        <ele>3598.5</ele>
        <time>2021-11-07T11:31:14Z</time>
      </trkpt>
      <trkpt lat="45.51398" lon="7.25617">
        <ele>3598.6</ele>
        <time>2021-11-07T11:31:17Z</time>
      </trkpt>
      <trkpt lat="45.51398" lon="7.25617">
        <ele>3598.7</ele>
        <time>2021-11-07T11:31:25Z</time>
      </trkpt>
      <trkpt lat="45.51398" lon="7.25617">
        <ele>3598.7</ele>
        <time>2021-11-07T11:31:26Z</time>
      </trkpt>
      <trkpt lat="45.51398" lon="7.25617">
        <ele>3598.7</ele>
        <time>2021-11-07T11:31:29Z</time>
      </trkpt>
      <trkpt lat="45.51397" lon="7.25617">
        <ele>3598.7</ele>
        <time>2021-11-07T11:31:30Z</time>
      </trkpt>
      <trkpt lat="45.51397" lon="7.25617">
        <ele>3598.7</ele>
        <time>2021-11-07T11:31:31Z</time>
      </trkpt>
      <trkpt lat="45.51397" lon="7.25617">
        <ele>3598.7</ele>
        <time>2021-11-07T11:31:32Z</time>
      </trkpt>
      <trkpt lat="45.51397" lon="7.25617">
        <ele>3598.8</ele>
        <time>2021-11-07T11:31:33Z</time>
      </trkpt>
      <trkpt lat="45.51396" lon="7.25617">
        <ele>3599</ele>
        <time>2021-11-07T11:31:40Z</time>
      </trkpt>
      <trkpt lat="45.51396" lon="7.25617">
        <ele>3599</ele>
        <time>2021-11-07T11:31:42Z</time>
      </trkpt>
      <trkpt lat="45.51397" lon="7.25617">
        <ele>3599.1</ele>
        <time>2021-11-07T11:31:46Z</time>
      </trkpt>
      <trkpt lat="45.51397" lon="7.25616">
        <ele>3599.1</ele>
        <time>2021-11-07T11:31:49Z</time>
      </trkpt>
      <trkpt lat="45.51397" lon="7.25616">
        <ele>3599.2</ele>
        <time>2021-11-07T11:31:50Z</time>
      </trkpt>
      <trkpt lat="45.51397" lon="7.25616">
        <ele>3599.2</ele>
        <time>2021-11-07T11:31:53Z</time>
      </trkpt>
      <trkpt lat="45.51397" lon="7.25616">
        <ele>3599.2</ele>
        <time>2021-11-07T11:31:56Z</time>
      </trkpt>
      <trkpt lat="45.51397" lon="7.25616">
        <ele>3599.2</ele>
        <time>2021-11-07T11:31:57Z</time>
      </trkpt>
      <trkpt lat="45.51396" lon="7.25617">
        <ele>3599.3</ele>
        <time>2021-11-07T11:32:04Z</time>
      </trkpt>
      <trkpt lat="45.51396" lon="7.25617">
        <ele>3599.4</ele>
        <time>2021-11-07T11:32:08Z</time>
      </trkpt>
      <trkpt lat="45.51396" lon="7.25617">
        <ele>3599.4</ele>
        <time>2021-11-07T11:32:14Z</time>
      </trkpt>
      <trkpt lat="45.51396" lon="7.25617">
        <ele>3599.5</ele>
        <time>2021-11-07T11:32:16Z</time>
      </trkpt>
      <trkpt lat="45.51396" lon="7.25617">
        <ele>3599.5</ele>
        <time>2021-11-07T11:32:18Z</time>
      </trkpt>
      <trkpt lat="45.51396" lon="7.25617">
        <ele>3599.6</ele>
        <time>2021-11-07T11:32:24Z</time>
      </trkpt>
      <trkpt lat="45.51396" lon="7.25618">
        <ele>3599.6</ele>
        <time>2021-11-07T11:32:27Z</time>
      </trkpt>
      <trkpt lat="45.51396" lon="7.25618">
        <ele>3599.6</ele>
        <time>2021-11-07T11:32:28Z</time>
      </trkpt>
      <trkpt lat="45.51396" lon="7.25617">
        <ele>3599.6</ele>
        <time>2021-11-07T11:32:34Z</time>
      </trkpt>
      <trkpt lat="45.51396" lon="7.25617">
        <ele>3599.7</ele>
        <time>2021-11-07T11:32:38Z</time>
      </trkpt>
      <trkpt lat="45.51396" lon="7.25617">
        <ele>3599.7</ele>
        <time>2021-11-07T11:32:44Z</time>
      </trkpt>
      <trkpt lat="45.51396" lon="7.25617">
        <ele>3599.8</ele>
        <time>2021-11-07T11:32:46Z</time>
      </trkpt>
      <trkpt lat="45.51396" lon="7.25617">
        <ele>3599.8</ele>
        <time>2021-11-07T11:32:52Z</time>
      </trkpt>
      <trkpt lat="45.51396" lon="7.25617">
        <ele>3599.9</ele>
        <time>2021-11-07T11:32:54Z</time>
      </trkpt>
      <trkpt lat="45.51396" lon="7.25617">
        <ele>3599.9</ele>
        <time>2021-11-07T11:32:56Z</time>
      </trkpt>
      <trkpt lat="45.51396" lon="7.25617">
        <ele>3599.9</ele>
        <time>2021-11-07T11:32:57Z</time>
      </trkpt>
      <trkpt lat="45.51396" lon="7.25617">
        <ele>3599.9</ele>
        <time>2021-11-07T11:33:00Z</time>
      </trkpt>
      <trkpt lat="45.51396" lon="7.25617">
        <ele>3599.9</ele>
        <time>2021-11-07T11:33:01Z</time>
      </trkpt>
      <trkpt lat="45.51396" lon="7.25617">
        <ele>3599.9</ele>
        <time>2021-11-07T11:33:02Z</time>
      </trkpt>
      <trkpt lat="45.51396" lon="7.25617">
        <ele>3600</ele>
        <time>2021-11-07T11:33:03Z</time>
      </trkpt>
      <trkpt lat="45.51396" lon="7.25617">
        <ele>3600.1</ele>
        <time>2021-11-07T11:33:06Z</time>
      </trkpt>
      <trkpt lat="45.51396" lon="7.25617">
        <ele>3600.1</ele>
        <time>2021-11-07T11:33:08Z</time>
      </trkpt>
      <trkpt lat="45.51396" lon="7.25617">
        <ele>3600.1</ele>
        <time>2021-11-07T11:33:10Z</time>
      </trkpt>
      <trkpt lat="45.51396" lon="7.25617">
        <ele>3600.2</ele>
        <time>2021-11-07T11:33:20Z</time>
      </trkpt>
      <trkpt lat="45.51396" lon="7.25617">
        <ele>3600.3</ele>
        <time>2021-11-07T11:33:22Z</time>
      </trkpt>
      <trkpt lat="45.51396" lon="7.25617">
        <ele>3600.3</ele>
        <time>2021-11-07T11:33:24Z</time>
      </trkpt>
      <trkpt lat="45.51396" lon="7.25617">
        <ele>3600.3</ele>
        <time>2021-11-07T11:33:26Z</time>
      </trkpt>
      <trkpt lat="45.51396" lon="7.25617">
        <ele>3600.3</ele>
        <time>2021-11-07T11:33:27Z</time>
      </trkpt>
      <trkpt lat="45.51396" lon="7.25617">
        <ele>3600.3</ele>
        <time>2021-11-07T11:33:29Z</time>
      </trkpt>
      <trkpt lat="45.51396" lon="7.25616">
        <ele>3600.4</ele>
        <time>2021-11-07T11:33:34Z</time>
      </trkpt>
      <trkpt lat="45.51395" lon="7.25616">
        <ele>3600.5</ele>
        <time>2021-11-07T11:33:40Z</time>
      </trkpt>
      <trkpt lat="45.51395" lon="7.25616">
        <ele>3600.6</ele>
        <time>2021-11-07T11:33:44Z</time>
      </trkpt>
      <trkpt lat="45.51395" lon="7.25616">
        <ele>3600.7</ele>
        <time>2021-11-07T11:33:47Z</time>
      </trkpt>
      <trkpt lat="45.51395" lon="7.25616">
        <ele>3600.8</ele>
        <time>2021-11-07T11:33:51Z</time>
      </trkpt>
      <trkpt lat="45.51395" lon="7.25616">
        <ele>3600.9</ele>
        <time>2021-11-07T11:33:55Z</time>
      </trkpt>
      <trkpt lat="45.51395" lon="7.25615">
        <ele>3601</ele>
        <time>2021-11-07T11:34:00Z</time>
      </trkpt>
      <trkpt lat="45.51396" lon="7.25615">
        <ele>3601</ele>
        <time>2021-11-07T11:34:02Z</time>
      </trkpt>
      <trkpt lat="45.51396" lon="7.25615">
        <ele>3601.1</ele>
        <time>2021-11-07T11:34:10Z</time>
      </trkpt>
      <trkpt lat="45.51396" lon="7.25615">
        <ele>3601.2</ele>
        <time>2021-11-07T11:34:12Z</time>
      </trkpt>
      <trkpt lat="45.51395" lon="7.25615">
        <ele>3601.3</ele>
        <time>2021-11-07T11:34:15Z</time>
      </trkpt>
      <trkpt lat="45.51395" lon="7.25615">
        <ele>3601.3</ele>
        <time>2021-11-07T11:34:17Z</time>
      </trkpt>
      <trkpt lat="45.51395" lon="7.25616">
        <ele>3601.4</ele>
        <time>2021-11-07T11:34:24Z</time>
      </trkpt>
      <trkpt lat="45.51395" lon="7.25616">
        <ele>3601.5</ele>
        <time>2021-11-07T11:34:28Z</time>
      </trkpt>
      <trkpt lat="45.51395" lon="7.25616">
        <ele>3601.6</ele>
        <time>2021-11-07T11:34:34Z</time>
      </trkpt>
      <trkpt lat="45.51395" lon="7.25616">
        <ele>3601.6</ele>
        <time>2021-11-07T11:34:36Z</time>
      </trkpt>
      <trkpt lat="45.51395" lon="7.25616">
        <ele>3601.7</ele>
        <time>2021-11-07T11:34:41Z</time>
      </trkpt>
      <trkpt lat="45.51395" lon="7.25616">
        <ele>3601.8</ele>
        <time>2021-11-07T11:34:46Z</time>
      </trkpt>
      <trkpt lat="45.51395" lon="7.25617">
        <ele>3601.9</ele>
        <time>2021-11-07T11:34:53Z</time>
      </trkpt>
      <trkpt lat="45.51395" lon="7.25617">
        <ele>3601.9</ele>
        <time>2021-11-07T11:34:58Z</time>
      </trkpt>
      <trkpt lat="45.51395" lon="7.25617">
        <ele>3602</ele>
        <time>2021-11-07T11:35:10Z</time>
      </trkpt>
      <trkpt lat="45.51395" lon="7.25617">
        <ele>3602.1</ele>
        <time>2021-11-07T11:35:14Z</time>
      </trkpt>
      <trkpt lat="45.51396" lon="7.25616">
        <ele>3602.3</ele>
        <time>2021-11-07T11:35:22Z</time>
      </trkpt>
      <trkpt lat="45.51396" lon="7.25616">
        <ele>3602.3</ele>
        <time>2021-11-07T11:35:25Z</time>
      </trkpt>
      <trkpt lat="45.51396" lon="7.25616">
        <ele>3602.3</ele>
        <time>2021-11-07T11:35:26Z</time>
      </trkpt>
      <trkpt lat="45.51396" lon="7.25619">
        <ele>3602.8</ele>
        <time>2021-11-07T11:35:37Z</time>
      </trkpt>
      <trkpt lat="45.51396" lon="7.25619">
        <ele>3602.9</ele>
        <time>2021-11-07T11:35:38Z</time>
      </trkpt>
      <trkpt lat="45.51396" lon="7.2562">
        <ele>3603</ele>
        <time>2021-11-07T11:35:39Z</time>
      </trkpt>
      <trkpt lat="45.51397" lon="7.2562">
        <ele>3603</ele>
        <time>2021-11-07T11:35:40Z</time>
      </trkpt>
      <trkpt lat="45.51397" lon="7.25621">
        <ele>3603.2</ele>
        <time>2021-11-07T11:35:41Z</time>
      </trkpt>
      <trkpt lat="45.51397" lon="7.25621">
        <ele>3603.3</ele>
        <time>2021-11-07T11:35:42Z</time>
      </trkpt>
      <trkpt lat="45.51396" lon="7.25622">
        <ele>3603.4</ele>
        <time>2021-11-07T11:35:43Z</time>
      </trkpt>
      <trkpt lat="45.51396" lon="7.25622">
        <ele>3603.4</ele>
        <time>2021-11-07T11:35:44Z</time>
      </trkpt>
      <trkpt lat="45.51396" lon="7.25623">
        <ele>3603.6</ele>
        <time>2021-11-07T11:35:45Z</time>
      </trkpt>
      <trkpt lat="45.51396" lon="7.25623">
        <ele>3603.7</ele>
        <time>2021-11-07T11:35:46Z</time>
      </trkpt>
      <trkpt lat="45.51396" lon="7.25624">
        <ele>3603.7</ele>
        <time>2021-11-07T11:35:47Z</time>
      </trkpt>
      <trkpt lat="45.51396" lon="7.25625">
        <ele>3604</ele>
        <time>2021-11-07T11:35:48Z</time>
      </trkpt>
      <trkpt lat="45.51396" lon="7.25625">
        <ele>3604.1</ele>
        <time>2021-11-07T11:35:49Z</time>
      </trkpt>
      <trkpt lat="45.51396" lon="7.25626">
        <ele>3604.3</ele>
        <time>2021-11-07T11:35:50Z</time>
      </trkpt>
      <trkpt lat="45.51396" lon="7.25626">
        <ele>3604.3</ele>
        <time>2021-11-07T11:35:51Z</time>
      </trkpt>
      <trkpt lat="45.51396" lon="7.25627">
        <ele>3604.5</ele>
        <time>2021-11-07T11:35:52Z</time>
      </trkpt>
      <trkpt lat="45.51396" lon="7.25628">
        <ele>3604.6</ele>
        <time>2021-11-07T11:35:53Z</time>
      </trkpt>
      <trkpt lat="45.51396" lon="7.25628">
        <ele>3604.7</ele>
        <time>2021-11-07T11:35:54Z</time>
      </trkpt>
      <trkpt lat="45.51396" lon="7.25629">
        <ele>3604.8</ele>
        <time>2021-11-07T11:35:55Z</time>
      </trkpt>
      <trkpt lat="45.51395" lon="7.25629">
        <ele>3604.9</ele>
        <time>2021-11-07T11:35:56Z</time>
      </trkpt>
      <trkpt lat="45.51395" lon="7.2563">
        <ele>3605</ele>
        <time>2021-11-07T11:35:57Z</time>
      </trkpt>
      <trkpt lat="45.51395" lon="7.2563">
        <ele>3605.1</ele>
        <time>2021-11-07T11:35:58Z</time>
      </trkpt>
      <trkpt lat="45.51395" lon="7.25631">
        <ele>3605.3</ele>
        <time>2021-11-07T11:35:59Z</time>
      </trkpt>
      <trkpt lat="45.51395" lon="7.25631">
        <ele>3605.3</ele>
        <time>2021-11-07T11:36:00Z</time>
      </trkpt>
      <trkpt lat="45.51395" lon="7.25632">
        <ele>3605.4</ele>
        <time>2021-11-07T11:36:01Z</time>
      </trkpt>
      <trkpt lat="45.51394" lon="7.25632">
        <ele>3605.5</ele>
        <time>2021-11-07T11:36:02Z</time>
      </trkpt>
      <trkpt lat="45.51394" lon="7.25633">
        <ele>3605.6</ele>
        <time>2021-11-07T11:36:03Z</time>
      </trkpt>
      <trkpt lat="45.51394" lon="7.25634">
        <ele>3605.8</ele>
        <time>2021-11-07T11:36:04Z</time>
      </trkpt>
      <trkpt lat="45.51395" lon="7.25634">
        <ele>3605.9</ele>
        <time>2021-11-07T11:36:05Z</time>
      </trkpt>
      <trkpt lat="45.51394" lon="7.25635">
        <ele>3606.1</ele>
        <time>2021-11-07T11:36:07Z</time>
      </trkpt>
      <trkpt lat="45.51394" lon="7.25637">
        <ele>3606.5</ele>
        <time>2021-11-07T11:36:10Z</time>
      </trkpt>
      <trkpt lat="45.51393" lon="7.25638">
        <ele>3606.8</ele>
        <time>2021-11-07T11:36:12Z</time>
      </trkpt>
      <trkpt lat="45.51392" lon="7.25639">
        <ele>3607</ele>
        <time>2021-11-07T11:36:13Z</time>
      </trkpt>
      <trkpt lat="45.51392" lon="7.2564">
        <ele>3607.1</ele>
        <time>2021-11-07T11:36:14Z</time>
      </trkpt>
      <trkpt lat="45.51392" lon="7.2564">
        <ele>3607.3</ele>
        <time>2021-11-07T11:36:15Z</time>
      </trkpt>
      <trkpt lat="45.51391" lon="7.25642">
        <ele>3607.6</ele>
        <time>2021-11-07T11:36:17Z</time>
      </trkpt>
      <trkpt lat="45.5139" lon="7.25642">
        <ele>3607.8</ele>
        <time>2021-11-07T11:36:19Z</time>
      </trkpt>
      <trkpt lat="45.51389" lon="7.25644">
        <ele>3608.1</ele>
        <time>2021-11-07T11:36:21Z</time>
      </trkpt>
      <trkpt lat="45.51389" lon="7.25644">
        <ele>3608.2</ele>
        <time>2021-11-07T11:36:22Z</time>
      </trkpt>
      <trkpt lat="45.51389" lon="7.25645">
        <ele>3608.4</ele>
        <time>2021-11-07T11:36:25Z</time>
      </trkpt>
      <trkpt lat="45.51389" lon="7.25647">
        <ele>3608.8</ele>
        <time>2021-11-07T11:36:30Z</time>
      </trkpt>
      <trkpt lat="45.51388" lon="7.25649">
        <ele>3609.2</ele>
        <time>2021-11-07T11:36:33Z</time>
      </trkpt>
      <trkpt lat="45.51388" lon="7.2565">
        <ele>3609.4</ele>
        <time>2021-11-07T11:36:35Z</time>
      </trkpt>
      <trkpt lat="45.51387" lon="7.25651">
        <ele>3609.6</ele>
        <time>2021-11-07T11:36:36Z</time>
      </trkpt>
      <trkpt lat="45.51387" lon="7.25651">
        <ele>3609.6</ele>
        <time>2021-11-07T11:36:37Z</time>
      </trkpt>
      <trkpt lat="45.51387" lon="7.25651">
        <ele>3609.8</ele>
        <time>2021-11-07T11:36:38Z</time>
      </trkpt>
      <trkpt lat="45.51387" lon="7.25652">
        <ele>3609.9</ele>
        <time>2021-11-07T11:36:39Z</time>
      </trkpt>
      <trkpt lat="45.51387" lon="7.25652">
        <ele>3609.9</ele>
        <time>2021-11-07T11:36:40Z</time>
      </trkpt>
      <trkpt lat="45.51386" lon="7.25653">
        <ele>3610.1</ele>
        <time>2021-11-07T11:36:41Z</time>
      </trkpt>
      <trkpt lat="45.51386" lon="7.25654">
        <ele>3610.2</ele>
        <time>2021-11-07T11:36:42Z</time>
      </trkpt>
      <trkpt lat="45.51386" lon="7.25655">
        <ele>3610.4</ele>
        <time>2021-11-07T11:36:43Z</time>
      </trkpt>
      <trkpt lat="45.51386" lon="7.25655">
        <ele>3610.5</ele>
        <time>2021-11-07T11:36:44Z</time>
      </trkpt>
      <trkpt lat="45.51386" lon="7.25656">
        <ele>3610.6</ele>
        <time>2021-11-07T11:36:45Z</time>
      </trkpt>
      <trkpt lat="45.51386" lon="7.25657">
        <ele>3610.8</ele>
        <time>2021-11-07T11:36:46Z</time>
      </trkpt>
      <trkpt lat="45.51386" lon="7.2566">
        <ele>3611.4</ele>
        <time>2021-11-07T11:36:55Z</time>
      </trkpt>
      <trkpt lat="45.51386" lon="7.25662">
        <ele>3611.8</ele>
        <time>2021-11-07T11:37:00Z</time>
      </trkpt>
      <trkpt lat="45.51385" lon="7.25663">
        <ele>3612</ele>
        <time>2021-11-07T11:37:02Z</time>
      </trkpt>
      <trkpt lat="45.51384" lon="7.25664">
        <ele>3612.3</ele>
        <time>2021-11-07T11:37:04Z</time>
      </trkpt>
      <trkpt lat="45.51384" lon="7.25664">
        <ele>3612.4</ele>
        <time>2021-11-07T11:37:05Z</time>
      </trkpt>
      <trkpt lat="45.51383" lon="7.25665">
        <ele>3612.6</ele>
        <time>2021-11-07T11:37:07Z</time>
      </trkpt>
      <trkpt lat="45.51383" lon="7.25667">
        <ele>3613</ele>
        <time>2021-11-07T11:37:09Z</time>
      </trkpt>
      <trkpt lat="45.51382" lon="7.25667">
        <ele>3613.2</ele>
        <time>2021-11-07T11:37:11Z</time>
      </trkpt>
      <trkpt lat="45.51382" lon="7.25668">
        <ele>3613.3</ele>
        <time>2021-11-07T11:37:13Z</time>
      </trkpt>
      <trkpt lat="45.51381" lon="7.25669">
        <ele>3613.6</ele>
        <time>2021-11-07T11:37:15Z</time>
      </trkpt>
      <trkpt lat="45.5138" lon="7.25673">
        <ele>3614.2</ele>
        <time>2021-11-07T11:37:23Z</time>
      </trkpt>
      <trkpt lat="45.5138" lon="7.25673">
        <ele>3614.4</ele>
        <time>2021-11-07T11:37:24Z</time>
      </trkpt>
      <trkpt lat="45.5138" lon="7.25674">
        <ele>3614.5</ele>
        <time>2021-11-07T11:37:25Z</time>
      </trkpt>
      <trkpt lat="45.5138" lon="7.25675">
        <ele>3614.7</ele>
        <time>2021-11-07T11:37:27Z</time>
      </trkpt>
      <trkpt lat="45.5138" lon="7.25675">
        <ele>3614.8</ele>
        <time>2021-11-07T11:37:28Z</time>
      </trkpt>
      <trkpt lat="45.5138" lon="7.25677">
        <ele>3615.1</ele>
        <time>2021-11-07T11:37:31Z</time>
      </trkpt>
      <trkpt lat="45.51379" lon="7.25678">
        <ele>3615.3</ele>
        <time>2021-11-07T11:37:33Z</time>
      </trkpt>
      <trkpt lat="45.5138" lon="7.25679">
        <ele>3615.4</ele>
        <time>2021-11-07T11:37:34Z</time>
      </trkpt>
      <trkpt lat="45.51379" lon="7.2568">
        <ele>3615.7</ele>
        <time>2021-11-07T11:37:37Z</time>
      </trkpt>
      <trkpt lat="45.51379" lon="7.25682">
        <ele>3616</ele>
        <time>2021-11-07T11:37:40Z</time>
      </trkpt>
      <trkpt lat="45.51378" lon="7.25683">
        <ele>3616.3</ele>
        <time>2021-11-07T11:37:42Z</time>
      </trkpt>
      <trkpt lat="45.51378" lon="7.25684">
        <ele>3616.5</ele>
        <time>2021-11-07T11:37:43Z</time>
      </trkpt>
      <trkpt lat="45.51377" lon="7.25685">
        <ele>3616.8</ele>
        <time>2021-11-07T11:37:46Z</time>
      </trkpt>
      <trkpt lat="45.51377" lon="7.25688">
        <ele>3617.3</ele>
        <time>2021-11-07T11:37:52Z</time>
      </trkpt>
      <trkpt lat="45.51376" lon="7.25692">
        <ele>3618</ele>
        <time>2021-11-07T11:38:00Z</time>
      </trkpt>
      <trkpt lat="45.51376" lon="7.25693">
        <ele>3618.2</ele>
        <time>2021-11-07T11:38:02Z</time>
      </trkpt>
      <trkpt lat="45.51374" lon="7.25697">
        <ele>3619</ele>
        <time>2021-11-07T11:38:08Z</time>
      </trkpt>
      <trkpt lat="45.51373" lon="7.25699">
        <ele>3619.5</ele>
        <time>2021-11-07T11:38:11Z</time>
      </trkpt>
      <trkpt lat="45.51372" lon="7.25699">
        <ele>3619.6</ele>
        <time>2021-11-07T11:38:12Z</time>
      </trkpt>
      <trkpt lat="45.51372" lon="7.257">
        <ele>3619.8</ele>
        <time>2021-11-07T11:38:13Z</time>
      </trkpt>
      <trkpt lat="45.51369" lon="7.25703">
        <ele>3620.8</ele>
        <time>2021-11-07T11:38:23Z</time>
      </trkpt>
      <trkpt lat="45.51369" lon="7.25704">
        <ele>3620.9</ele>
        <time>2021-11-07T11:38:24Z</time>
      </trkpt>
      <trkpt lat="45.51369" lon="7.25706">
        <ele>3621.4</ele>
        <time>2021-11-07T11:38:28Z</time>
      </trkpt>
      <trkpt lat="45.51368" lon="7.25708">
        <ele>3621.7</ele>
        <time>2021-11-07T11:38:30Z</time>
      </trkpt>
      <trkpt lat="45.51367" lon="7.25709">
        <ele>3622</ele>
        <time>2021-11-07T11:38:32Z</time>
      </trkpt>
      <trkpt lat="45.51366" lon="7.2571">
        <ele>3622.4</ele>
        <time>2021-11-07T11:38:35Z</time>
      </trkpt>
      <trkpt lat="45.51365" lon="7.25711">
        <ele>3622.6</ele>
        <time>2021-11-07T11:38:36Z</time>
      </trkpt>
      <trkpt lat="45.51361" lon="7.25716">
        <ele>3624</ele>
        <time>2021-11-07T11:38:46Z</time>
      </trkpt>
      <trkpt lat="45.51361" lon="7.25716">
        <ele>3624.1</ele>
        <time>2021-11-07T11:38:47Z</time>
      </trkpt>
      <trkpt lat="45.5136" lon="7.25717">
        <ele>3624.3</ele>
        <time>2021-11-07T11:38:48Z</time>
      </trkpt>
      <trkpt lat="45.51359" lon="7.25718">
        <ele>3624.7</ele>
        <time>2021-11-07T11:38:51Z</time>
      </trkpt>
      <trkpt lat="45.51358" lon="7.25719">
        <ele>3625</ele>
        <time>2021-11-07T11:38:53Z</time>
      </trkpt>
      <trkpt lat="45.51357" lon="7.2572">
        <ele>3625.2</ele>
        <time>2021-11-07T11:38:55Z</time>
      </trkpt>
      <trkpt lat="45.51356" lon="7.25721">
        <ele>3625.5</ele>
        <time>2021-11-07T11:38:57Z</time>
      </trkpt>
      <trkpt lat="45.51356" lon="7.25721">
        <ele>3625.7</ele>
        <time>2021-11-07T11:39:00Z</time>
      </trkpt>
      <trkpt lat="45.51356" lon="7.25721">
        <ele>3625.7</ele>
        <time>2021-11-07T11:39:01Z</time>
      </trkpt>
      <trkpt lat="45.51356" lon="7.25721">
        <ele>3625.8</ele>
        <time>2021-11-07T11:39:02Z</time>
      </trkpt>
      <trkpt lat="45.51356" lon="7.25722">
        <ele>3625.9</ele>
        <time>2021-11-07T11:39:05Z</time>
      </trkpt>
      <trkpt lat="45.51355" lon="7.25723">
        <ele>3626.2</ele>
        <time>2021-11-07T11:39:07Z</time>
      </trkpt>
      <trkpt lat="45.51354" lon="7.25724">
        <ele>3626.6</ele>
        <time>2021-11-07T11:39:09Z</time>
      </trkpt>
      <trkpt lat="45.51353" lon="7.25725">
        <ele>3626.8</ele>
        <time>2021-11-07T11:39:10Z</time>
      </trkpt>
      <trkpt lat="45.51353" lon="7.25726">
        <ele>3627</ele>
        <time>2021-11-07T11:39:12Z</time>
      </trkpt>
      <trkpt lat="45.51353" lon="7.25727">
        <ele>3627.3</ele>
        <time>2021-11-07T11:39:15Z</time>
      </trkpt>
      <trkpt lat="45.51353" lon="7.25729">
        <ele>3627.6</ele>
        <time>2021-11-07T11:39:18Z</time>
      </trkpt>
      <trkpt lat="45.51354" lon="7.2573">
        <ele>3627.9</ele>
        <time>2021-11-07T11:39:20Z</time>
      </trkpt>
      <trkpt lat="45.51354" lon="7.25733">
        <ele>3628.3</ele>
        <time>2021-11-07T11:39:25Z</time>
      </trkpt>
      <trkpt lat="45.51354" lon="7.25733">
        <ele>3628.5</ele>
        <time>2021-11-07T11:39:32Z</time>
      </trkpt>
      <trkpt lat="45.51355" lon="7.25733">
        <ele>3628.6</ele>
        <time>2021-11-07T11:39:34Z</time>
      </trkpt>
      <trkpt lat="45.51355" lon="7.25733">
        <ele>3628.6</ele>
        <time>2021-11-07T11:39:40Z</time>
      </trkpt>
      <trkpt lat="45.51355" lon="7.25733">
        <ele>3628.7</ele>
        <time>2021-11-07T11:39:44Z</time>
      </trkpt>
      <trkpt lat="45.51355" lon="7.25733">
        <ele>3628.8</ele>
        <time>2021-11-07T11:39:52Z</time>
      </trkpt>
      <trkpt lat="45.51355" lon="7.25733">
        <ele>3628.8</ele>
        <time>2021-11-07T11:39:54Z</time>
      </trkpt>
      <trkpt lat="45.51355" lon="7.25733">
        <ele>3628.8</ele>
        <time>2021-11-07T11:39:56Z</time>
      </trkpt>
      <trkpt lat="45.51354" lon="7.25733">
        <ele>3628.9</ele>
        <time>2021-11-07T11:39:57Z</time>
      </trkpt>
      <trkpt lat="45.51354" lon="7.25733">
        <ele>3628.9</ele>
        <time>2021-11-07T11:39:58Z</time>
      </trkpt>
      <trkpt lat="45.51354" lon="7.25736">
        <ele>3629.4</ele>
        <time>2021-11-07T11:40:02Z</time>
      </trkpt>
      <trkpt lat="45.51354" lon="7.25736">
        <ele>3629.5</ele>
        <time>2021-11-07T11:40:03Z</time>
      </trkpt>
      <trkpt lat="45.51354" lon="7.25738">
        <ele>3629.8</ele>
        <time>2021-11-07T11:40:05Z</time>
      </trkpt>
      <trkpt lat="45.51354" lon="7.25738">
        <ele>3629.9</ele>
        <time>2021-11-07T11:40:06Z</time>
      </trkpt>
      <trkpt lat="45.51354" lon="7.25739">
        <ele>3630</ele>
        <time>2021-11-07T11:40:07Z</time>
      </trkpt>
      <trkpt lat="45.51354" lon="7.2574">
        <ele>3630.3</ele>
        <time>2021-11-07T11:40:10Z</time>
      </trkpt>
      <trkpt lat="45.51354" lon="7.25744">
        <ele>3631</ele>
        <time>2021-11-07T11:40:15Z</time>
      </trkpt>
      <trkpt lat="45.51353" lon="7.25745">
        <ele>3631.2</ele>
        <time>2021-11-07T11:40:17Z</time>
      </trkpt>
      <trkpt lat="45.51354" lon="7.25749">
        <ele>3631.9</ele>
        <time>2021-11-07T11:40:22Z</time>
      </trkpt>
      <trkpt lat="45.51354" lon="7.25752">
        <ele>3632.3</ele>
        <time>2021-11-07T11:40:26Z</time>
      </trkpt>
      <trkpt lat="45.51355" lon="7.25754">
        <ele>3632.9</ele>
        <time>2021-11-07T11:40:31Z</time>
      </trkpt>
      <trkpt lat="45.51356" lon="7.25756">
        <ele>3633.2</ele>
        <time>2021-11-07T11:40:35Z</time>
      </trkpt>
      <trkpt lat="45.51356" lon="7.25756">
        <ele>3633.3</ele>
        <time>2021-11-07T11:40:36Z</time>
      </trkpt>
      <trkpt lat="45.51357" lon="7.25757">
        <ele>3633.6</ele>
        <time>2021-11-07T11:40:39Z</time>
      </trkpt>
      <trkpt lat="45.51357" lon="7.25758">
        <ele>3633.7</ele>
        <time>2021-11-07T11:40:41Z</time>
      </trkpt>
      <trkpt lat="45.51357" lon="7.25761">
        <ele>3634.3</ele>
        <time>2021-11-07T11:40:45Z</time>
      </trkpt>
      <trkpt lat="45.51359" lon="7.25764">
        <ele>3635</ele>
        <time>2021-11-07T11:40:51Z</time>
      </trkpt>
      <trkpt lat="45.51358" lon="7.25766">
        <ele>3635.3</ele>
        <time>2021-11-07T11:40:54Z</time>
      </trkpt>
      <trkpt lat="45.51358" lon="7.25766">
        <ele>3635.4</ele>
        <time>2021-11-07T11:40:55Z</time>
      </trkpt>
      <trkpt lat="45.51358" lon="7.25768">
        <ele>3635.7</ele>
        <time>2021-11-07T11:40:58Z</time>
      </trkpt>
      <trkpt lat="45.51359" lon="7.25769">
        <ele>3636</ele>
        <time>2021-11-07T11:41:00Z</time>
      </trkpt>
      <trkpt lat="45.51359" lon="7.25771">
        <ele>3636.2</ele>
        <time>2021-11-07T11:41:03Z</time>
      </trkpt>
      <trkpt lat="45.51359" lon="7.25771">
        <ele>3636.3</ele>
        <time>2021-11-07T11:41:04Z</time>
      </trkpt>
      <trkpt lat="45.51359" lon="7.25772">
        <ele>3636.5</ele>
        <time>2021-11-07T11:41:06Z</time>
      </trkpt>
      <trkpt lat="45.51359" lon="7.25775">
        <ele>3637</ele>
        <time>2021-11-07T11:41:12Z</time>
      </trkpt>
      <trkpt lat="45.51359" lon="7.25779">
        <ele>3637.7</ele>
        <time>2021-11-07T11:41:18Z</time>
      </trkpt>
      <trkpt lat="45.51359" lon="7.2578">
        <ele>3638</ele>
        <time>2021-11-07T11:41:22Z</time>
      </trkpt>
      <trkpt lat="45.5136" lon="7.25782">
        <ele>3638.3</ele>
        <time>2021-11-07T11:41:27Z</time>
      </trkpt>
      <trkpt lat="45.5136" lon="7.25782">
        <ele>3638.3</ele>
        <time>2021-11-07T11:41:28Z</time>
      </trkpt>
      <trkpt lat="45.5136" lon="7.25785">
        <ele>3638.9</ele>
        <time>2021-11-07T11:41:35Z</time>
      </trkpt>
      <trkpt lat="45.5136" lon="7.25786">
        <ele>3639.1</ele>
        <time>2021-11-07T11:41:36Z</time>
      </trkpt>
      <trkpt lat="45.5136" lon="7.25787">
        <ele>3639.3</ele>
        <time>2021-11-07T11:41:38Z</time>
      </trkpt>
      <trkpt lat="45.51359" lon="7.25787">
        <ele>3639.4</ele>
        <time>2021-11-07T11:41:40Z</time>
      </trkpt>
      <trkpt lat="45.5136" lon="7.25788">
        <ele>3639.5</ele>
        <time>2021-11-07T11:41:47Z</time>
      </trkpt>
      <trkpt lat="45.5136" lon="7.25788">
        <ele>3639.5</ele>
        <time>2021-11-07T11:41:48Z</time>
      </trkpt>
      <trkpt lat="45.5136" lon="7.25788">
        <ele>3639.5</ele>
        <time>2021-11-07T11:41:49Z</time>
      </trkpt>
      <trkpt lat="45.5136" lon="7.25788">
        <ele>3639.6</ele>
        <time>2021-11-07T11:41:50Z</time>
      </trkpt>
      <trkpt lat="45.5136" lon="7.25788">
        <ele>3639.6</ele>
        <time>2021-11-07T11:41:51Z</time>
      </trkpt>
      <trkpt lat="45.51359" lon="7.25788">
        <ele>3639.6</ele>
        <time>2021-11-07T11:41:53Z</time>
      </trkpt>
      <trkpt lat="45.51359" lon="7.25788">
        <ele>3639.7</ele>
        <time>2021-11-07T11:41:56Z</time>
      </trkpt>
      <trkpt lat="45.51359" lon="7.25788">
        <ele>3639.7</ele>
        <time>2021-11-07T11:41:58Z</time>
      </trkpt>
      <trkpt lat="45.51359" lon="7.25788">
        <ele>3639.8</ele>
        <time>2021-11-07T11:42:05Z</time>
      </trkpt>
      <trkpt lat="45.51359" lon="7.25788">
        <ele>3639.8</ele>
        <time>2021-11-07T11:42:07Z</time>
      </trkpt>
      <trkpt lat="45.51359" lon="7.25788">
        <ele>3639.8</ele>
        <time>2021-11-07T11:42:08Z</time>
      </trkpt>
      <trkpt lat="45.51359" lon="7.25788">
        <ele>3639.8</ele>
        <time>2021-11-07T11:42:10Z</time>
      </trkpt>
      <trkpt lat="45.51359" lon="7.25788">
        <ele>3639.8</ele>
        <time>2021-11-07T11:42:13Z</time>
      </trkpt>
      <trkpt lat="45.51359" lon="7.25788">
        <ele>3639.8</ele>
        <time>2021-11-07T11:42:15Z</time>
      </trkpt>
      <trkpt lat="45.51359" lon="7.25788">
        <ele>3639.9</ele>
        <time>2021-11-07T11:42:17Z</time>
      </trkpt>
      <trkpt lat="45.51359" lon="7.25787">
        <ele>3640</ele>
        <time>2021-11-07T11:42:20Z</time>
      </trkpt>
      <trkpt lat="45.51359" lon="7.25787">
        <ele>3640</ele>
        <time>2021-11-07T11:42:22Z</time>
      </trkpt>
      <trkpt lat="45.51359" lon="7.25787">
        <ele>3640</ele>
        <time>2021-11-07T11:42:23Z</time>
      </trkpt>
      <trkpt lat="45.51359" lon="7.25789">
        <ele>3640.3</ele>
        <time>2021-11-07T11:42:27Z</time>
      </trkpt>
      <trkpt lat="45.51359" lon="7.2579">
        <ele>3640.6</ele>
        <time>2021-11-07T11:42:29Z</time>
      </trkpt>
      <trkpt lat="45.51359" lon="7.25791">
        <ele>3640.7</ele>
        <time>2021-11-07T11:42:30Z</time>
      </trkpt>
      <trkpt lat="45.51358" lon="7.25792">
        <ele>3640.8</ele>
        <time>2021-11-07T11:42:31Z</time>
      </trkpt>
      <trkpt lat="45.51358" lon="7.25792">
        <ele>3640.9</ele>
        <time>2021-11-07T11:42:32Z</time>
      </trkpt>
      <trkpt lat="45.51358" lon="7.25794">
        <ele>3641.2</ele>
        <time>2021-11-07T11:42:34Z</time>
      </trkpt>
      <trkpt lat="45.51358" lon="7.25794">
        <ele>3641.3</ele>
        <time>2021-11-07T11:42:35Z</time>
      </trkpt>
      <trkpt lat="45.51358" lon="7.25795">
        <ele>3641.5</ele>
        <time>2021-11-07T11:42:37Z</time>
      </trkpt>
      <trkpt lat="45.51357" lon="7.25798">
        <ele>3642</ele>
        <time>2021-11-07T11:42:40Z</time>
      </trkpt>
      <trkpt lat="45.51357" lon="7.25799">
        <ele>3642.2</ele>
        <time>2021-11-07T11:42:42Z</time>
      </trkpt>
      <trkpt lat="45.51357" lon="7.25799">
        <ele>3642.3</ele>
        <time>2021-11-07T11:42:43Z</time>
      </trkpt>
      <trkpt lat="45.51357" lon="7.258">
        <ele>3642.5</ele>
        <time>2021-11-07T11:42:44Z</time>
      </trkpt>
      <trkpt lat="45.51356" lon="7.25802">
        <ele>3642.8</ele>
        <time>2021-11-07T11:42:46Z</time>
      </trkpt>
      <trkpt lat="45.51357" lon="7.25806">
        <ele>3643.5</ele>
        <time>2021-11-07T11:42:51Z</time>
      </trkpt>
      <trkpt lat="45.51356" lon="7.25806">
        <ele>3643.6</ele>
        <time>2021-11-07T11:42:52Z</time>
      </trkpt>
      <trkpt lat="45.51357" lon="7.25811">
        <ele>3644.6</ele>
        <time>2021-11-07T11:42:58Z</time>
      </trkpt>
      <trkpt lat="45.51356" lon="7.25813">
        <ele>3645</ele>
        <time>2021-11-07T11:43:03Z</time>
      </trkpt>
      <trkpt lat="45.51356" lon="7.25813">
        <ele>3645</ele>
        <time>2021-11-07T11:43:05Z</time>
      </trkpt>
      <trkpt lat="45.51356" lon="7.25813">
        <ele>3645</ele>
        <time>2021-11-07T11:43:06Z</time>
      </trkpt>
      <trkpt lat="45.51356" lon="7.25813">
        <ele>3645</ele>
        <time>2021-11-07T11:43:07Z</time>
      </trkpt>
      <trkpt lat="45.51356" lon="7.25813">
        <ele>3645</ele>
        <time>2021-11-07T11:43:09Z</time>
      </trkpt>
      <trkpt lat="45.51356" lon="7.25814">
        <ele>3645.1</ele>
        <time>2021-11-07T11:43:13Z</time>
      </trkpt>
      <trkpt lat="45.51356" lon="7.25814">
        <ele>3645.1</ele>
        <time>2021-11-07T11:43:15Z</time>
      </trkpt>
      <trkpt lat="45.51356" lon="7.25814">
        <ele>3645.1</ele>
        <time>2021-11-07T11:43:16Z</time>
      </trkpt>
      <trkpt lat="45.51356" lon="7.25814">
        <ele>3645.1</ele>
        <time>2021-11-07T11:43:17Z</time>
      </trkpt>
      <trkpt lat="45.51356" lon="7.25814">
        <ele>3645.1</ele>
        <time>2021-11-07T11:43:19Z</time>
      </trkpt>
      <trkpt lat="45.51356" lon="7.25814">
        <ele>3645.1</ele>
        <time>2021-11-07T11:43:22Z</time>
      </trkpt>
      <trkpt lat="45.51356" lon="7.25814">
        <ele>3645.1</ele>
        <time>2021-11-07T11:43:25Z</time>
      </trkpt>
      <trkpt lat="45.51356" lon="7.25814">
        <ele>3645.1</ele>
        <time>2021-11-07T11:43:28Z</time>
      </trkpt>
      <trkpt lat="45.51356" lon="7.25814">
        <ele>3645.1</ele>
        <time>2021-11-07T11:43:31Z</time>
      </trkpt>
      <trkpt lat="45.51356" lon="7.25813">
        <ele>3645.1</ele>
        <time>2021-11-07T11:43:35Z</time>
      </trkpt>
      <trkpt lat="45.51356" lon="7.25813">
        <ele>3645.1</ele>
        <time>2021-11-07T11:43:38Z</time>
      </trkpt>
      <trkpt lat="45.51356" lon="7.25813">
        <ele>3645.1</ele>
        <time>2021-11-07T11:43:41Z</time>
      </trkpt>
      <trkpt lat="45.51356" lon="7.25813">
        <ele>3645.1</ele>
        <time>2021-11-07T11:43:44Z</time>
      </trkpt>
      <trkpt lat="45.51356" lon="7.25813">
        <ele>3645.1</ele>
        <time>2021-11-07T11:43:47Z</time>
      </trkpt>
      <trkpt lat="45.51356" lon="7.25813">
        <ele>3645.1</ele>
        <time>2021-11-07T11:43:50Z</time>
      </trkpt>
      <trkpt lat="45.51356" lon="7.25813">
        <ele>3645.1</ele>
        <time>2021-11-07T11:43:54Z</time>
      </trkpt>
      <trkpt lat="45.51356" lon="7.25813">
        <ele>3645.1</ele>
        <time>2021-11-07T11:43:57Z</time>
      </trkpt>
      <trkpt lat="45.51356" lon="7.25813">
        <ele>3645.1</ele>
        <time>2021-11-07T11:43:58Z</time>
      </trkpt>
      <trkpt lat="45.51356" lon="7.25813">
        <ele>3645.1</ele>
        <time>2021-11-07T11:44:02Z</time>
      </trkpt>
      <trkpt lat="45.51356" lon="7.25813">
        <ele>3645.2</ele>
        <time>2021-11-07T11:44:05Z</time>
      </trkpt>
      <trkpt lat="45.51356" lon="7.25813">
        <ele>3645.2</ele>
        <time>2021-11-07T11:44:06Z</time>
      </trkpt>
      <trkpt lat="45.51356" lon="7.25813">
        <ele>3645.2</ele>
        <time>2021-11-07T11:44:09Z</time>
      </trkpt>
      <trkpt lat="45.51356" lon="7.25813">
        <ele>3645.2</ele>
        <time>2021-11-07T11:44:13Z</time>
      </trkpt>
      <trkpt lat="45.51356" lon="7.25813">
        <ele>3645.2</ele>
        <time>2021-11-07T11:44:16Z</time>
      </trkpt>
      <trkpt lat="45.51356" lon="7.25813">
        <ele>3645.2</ele>
        <time>2021-11-07T11:44:17Z</time>
      </trkpt>
      <trkpt lat="45.51356" lon="7.25814">
        <ele>3645.3</ele>
        <time>2021-11-07T11:44:22Z</time>
      </trkpt>
      <trkpt lat="45.51356" lon="7.25814">
        <ele>3645.4</ele>
        <time>2021-11-07T11:44:23Z</time>
      </trkpt>
      <trkpt lat="45.51356" lon="7.25815">
        <ele>3645.5</ele>
        <time>2021-11-07T11:44:24Z</time>
      </trkpt>
      <trkpt lat="45.51355" lon="7.25816">
        <ele>3645.7</ele>
        <time>2021-11-07T11:44:27Z</time>
      </trkpt>
      <trkpt lat="45.51355" lon="7.25816">
        <ele>3645.7</ele>
        <time>2021-11-07T11:44:29Z</time>
      </trkpt>
      <trkpt lat="45.51355" lon="7.25817">
        <ele>3645.9</ele>
        <time>2021-11-07T11:44:31Z</time>
      </trkpt>
      <trkpt lat="45.51355" lon="7.25819">
        <ele>3646.2</ele>
        <time>2021-11-07T11:44:33Z</time>
      </trkpt>
      <trkpt lat="45.51355" lon="7.2582">
        <ele>3646.5</ele>
        <time>2021-11-07T11:44:35Z</time>
      </trkpt>
      <trkpt lat="45.51354" lon="7.25822">
        <ele>3647</ele>
        <time>2021-11-07T11:44:39Z</time>
      </trkpt>
      <trkpt lat="45.51354" lon="7.25823">
        <ele>3647.1</ele>
        <time>2021-11-07T11:44:40Z</time>
      </trkpt>
      <trkpt lat="45.51353" lon="7.25825">
        <ele>3647.4</ele>
        <time>2021-11-07T11:44:42Z</time>
      </trkpt>
      <trkpt lat="45.51353" lon="7.25825">
        <ele>3647.6</ele>
        <time>2021-11-07T11:44:43Z</time>
      </trkpt>
      <trkpt lat="45.51353" lon="7.25828">
        <ele>3648.1</ele>
        <time>2021-11-07T11:44:47Z</time>
      </trkpt>
      <trkpt lat="45.51354" lon="7.25832">
        <ele>3648.9</ele>
        <time>2021-11-07T11:44:52Z</time>
      </trkpt>
      <trkpt lat="45.51354" lon="7.25838">
        <ele>3649.9</ele>
        <time>2021-11-07T11:45:00Z</time>
      </trkpt>
      <trkpt lat="45.51354" lon="7.2584">
        <ele>3650.3</ele>
        <time>2021-11-07T11:45:03Z</time>
      </trkpt>
      <trkpt lat="45.51355" lon="7.25841">
        <ele>3650.5</ele>
        <time>2021-11-07T11:45:05Z</time>
      </trkpt>
      <trkpt lat="45.51356" lon="7.25848">
        <ele>3651.8</ele>
        <time>2021-11-07T11:45:16Z</time>
      </trkpt>
      <trkpt lat="45.51356" lon="7.25849">
        <ele>3652</ele>
        <time>2021-11-07T11:45:18Z</time>
      </trkpt>
      <trkpt lat="45.51356" lon="7.25854">
        <ele>3652.9</ele>
        <time>2021-11-07T11:45:25Z</time>
      </trkpt>
      <trkpt lat="45.51356" lon="7.25855">
        <ele>3653.1</ele>
        <time>2021-11-07T11:45:28Z</time>
      </trkpt>
      <trkpt lat="45.51356" lon="7.25856">
        <ele>3653.3</ele>
        <time>2021-11-07T11:45:30Z</time>
      </trkpt>
      <trkpt lat="45.51356" lon="7.25856">
        <ele>3653.3</ele>
        <time>2021-11-07T11:45:31Z</time>
      </trkpt>
      <trkpt lat="45.51357" lon="7.25857">
        <ele>3653.4</ele>
        <time>2021-11-07T11:45:32Z</time>
      </trkpt>
      <trkpt lat="45.51357" lon="7.25857">
        <ele>3653.5</ele>
        <time>2021-11-07T11:45:33Z</time>
      </trkpt>
      <trkpt lat="45.5136" lon="7.25862">
        <ele>3654.7</ele>
        <time>2021-11-07T11:45:44Z</time>
      </trkpt>
      <trkpt lat="45.5136" lon="7.25863">
        <ele>3655</ele>
        <time>2021-11-07T11:45:47Z</time>
      </trkpt>
      <trkpt lat="45.5136" lon="7.25864">
        <ele>3655.1</ele>
        <time>2021-11-07T11:45:50Z</time>
      </trkpt>
      <trkpt lat="45.51361" lon="7.25865">
        <ele>3655.3</ele>
        <time>2021-11-07T11:45:51Z</time>
      </trkpt>
      <trkpt lat="45.51361" lon="7.25866">
        <ele>3655.4</ele>
        <time>2021-11-07T11:45:53Z</time>
      </trkpt>
      <trkpt lat="45.51361" lon="7.25866">
        <ele>3655.5</ele>
        <time>2021-11-07T11:45:54Z</time>
      </trkpt>
      <trkpt lat="45.51361" lon="7.25866">
        <ele>3655.5</ele>
        <time>2021-11-07T11:45:55Z</time>
      </trkpt>
      <trkpt lat="45.51361" lon="7.25868">
        <ele>3655.9</ele>
        <time>2021-11-07T11:46:00Z</time>
      </trkpt>
      <trkpt lat="45.51362" lon="7.25869">
        <ele>3656</ele>
        <time>2021-11-07T11:46:02Z</time>
      </trkpt>
      <trkpt lat="45.51362" lon="7.25869">
        <ele>3656</ele>
        <time>2021-11-07T11:46:03Z</time>
      </trkpt>
      <trkpt lat="45.51362" lon="7.2587">
        <ele>3656.3</ele>
        <time>2021-11-07T11:46:05Z</time>
      </trkpt>
      <trkpt lat="45.51363" lon="7.2587">
        <ele>3656.3</ele>
        <time>2021-11-07T11:46:06Z</time>
      </trkpt>
      <trkpt lat="45.51363" lon="7.2587">
        <ele>3656.4</ele>
        <time>2021-11-07T11:46:07Z</time>
      </trkpt>
      <trkpt lat="45.51364" lon="7.25874">
        <ele>3657.2</ele>
        <time>2021-11-07T11:46:15Z</time>
      </trkpt>
      <trkpt lat="45.51364" lon="7.25876">
        <ele>3657.6</ele>
        <time>2021-11-07T11:46:19Z</time>
      </trkpt>
      <trkpt lat="45.51365" lon="7.25877">
        <ele>3657.8</ele>
        <time>2021-11-07T11:46:21Z</time>
      </trkpt>
      <trkpt lat="45.51366" lon="7.25879">
        <ele>3658.3</ele>
        <time>2021-11-07T11:46:26Z</time>
      </trkpt>
      <trkpt lat="45.51366" lon="7.2588">
        <ele>3658.4</ele>
        <time>2021-11-07T11:46:27Z</time>
      </trkpt>
      <trkpt lat="45.51366" lon="7.25881">
        <ele>3658.6</ele>
        <time>2021-11-07T11:46:29Z</time>
      </trkpt>
      <trkpt lat="45.51366" lon="7.25882">
        <ele>3658.7</ele>
        <time>2021-11-07T11:46:31Z</time>
      </trkpt>
      <trkpt lat="45.51367" lon="7.25883">
        <ele>3659</ele>
        <time>2021-11-07T11:46:34Z</time>
      </trkpt>
      <trkpt lat="45.51367" lon="7.25883">
        <ele>3659</ele>
        <time>2021-11-07T11:46:35Z</time>
      </trkpt>
      <trkpt lat="45.51368" lon="7.25884">
        <ele>3659.4</ele>
        <time>2021-11-07T11:46:39Z</time>
      </trkpt>
      <trkpt lat="45.51368" lon="7.25885">
        <ele>3659.5</ele>
        <time>2021-11-07T11:46:41Z</time>
      </trkpt>
      <trkpt lat="45.51369" lon="7.25888">
        <ele>3660.1</ele>
        <time>2021-11-07T11:46:45Z</time>
      </trkpt>
      <trkpt lat="45.51371" lon="7.25889">
        <ele>3660.5</ele>
        <time>2021-11-07T11:46:49Z</time>
      </trkpt>
      <trkpt lat="45.51372" lon="7.2589">
        <ele>3660.8</ele>
        <time>2021-11-07T11:46:52Z</time>
      </trkpt>
      <trkpt lat="45.51372" lon="7.25891">
        <ele>3661</ele>
        <time>2021-11-07T11:46:55Z</time>
      </trkpt>
      <trkpt lat="45.51372" lon="7.25892">
        <ele>3661.1</ele>
        <time>2021-11-07T11:46:56Z</time>
      </trkpt>
      <trkpt lat="45.51372" lon="7.25892">
        <ele>3661.2</ele>
        <time>2021-11-07T11:46:58Z</time>
      </trkpt>
      <trkpt lat="45.51372" lon="7.25891">
        <ele>3661.3</ele>
        <time>2021-11-07T11:47:02Z</time>
      </trkpt>
      <trkpt lat="45.51372" lon="7.25891">
        <ele>3661.3</ele>
        <time>2021-11-07T11:47:04Z</time>
      </trkpt>
      <trkpt lat="45.51372" lon="7.25892">
        <ele>3661.5</ele>
        <time>2021-11-07T11:47:07Z</time>
      </trkpt>
      <trkpt lat="45.51374" lon="7.25893">
        <ele>3661.9</ele>
        <time>2021-11-07T11:47:13Z</time>
      </trkpt>
      <trkpt lat="45.51374" lon="7.25893">
        <ele>3662</ele>
        <time>2021-11-07T11:47:14Z</time>
      </trkpt>
      <trkpt lat="45.51374" lon="7.25894">
        <ele>3662.1</ele>
        <time>2021-11-07T11:47:16Z</time>
      </trkpt>
      <trkpt lat="45.51375" lon="7.25895">
        <ele>3662.3</ele>
        <time>2021-11-07T11:47:21Z</time>
      </trkpt>
      <trkpt lat="45.51375" lon="7.25895">
        <ele>3662.5</ele>
        <time>2021-11-07T11:47:24Z</time>
      </trkpt>
      <trkpt lat="45.51376" lon="7.25895">
        <ele>3662.6</ele>
        <time>2021-11-07T11:47:26Z</time>
      </trkpt>
      <trkpt lat="45.51377" lon="7.25897">
        <ele>3663</ele>
        <time>2021-11-07T11:47:36Z</time>
      </trkpt>
      <trkpt lat="45.51377" lon="7.25897">
        <ele>3663</ele>
        <time>2021-11-07T11:47:38Z</time>
      </trkpt>
      <trkpt lat="45.51377" lon="7.25898">
        <ele>3663.2</ele>
        <time>2021-11-07T11:47:41Z</time>
      </trkpt>
      <trkpt lat="45.51377" lon="7.25899">
        <ele>3663.4</ele>
        <time>2021-11-07T11:47:43Z</time>
      </trkpt>
      <trkpt lat="45.51377" lon="7.25899">
        <ele>3663.5</ele>
        <time>2021-11-07T11:47:45Z</time>
      </trkpt>
      <trkpt lat="45.51378" lon="7.259">
        <ele>3663.6</ele>
        <time>2021-11-07T11:47:47Z</time>
      </trkpt>
      <trkpt lat="45.51378" lon="7.25901">
        <ele>3663.8</ele>
        <time>2021-11-07T11:47:48Z</time>
      </trkpt>
      <trkpt lat="45.51378" lon="7.25901">
        <ele>3663.9</ele>
        <time>2021-11-07T11:47:49Z</time>
      </trkpt>
      <trkpt lat="45.51378" lon="7.25902">
        <ele>3664.1</ele>
        <time>2021-11-07T11:47:50Z</time>
      </trkpt>
      <trkpt lat="45.51379" lon="7.25904">
        <ele>3664.4</ele>
        <time>2021-11-07T11:47:52Z</time>
      </trkpt>
      <trkpt lat="45.51379" lon="7.25904">
        <ele>3664.5</ele>
        <time>2021-11-07T11:47:53Z</time>
      </trkpt>
      <trkpt lat="45.51379" lon="7.25905">
        <ele>3664.6</ele>
        <time>2021-11-07T11:47:54Z</time>
      </trkpt>
      <trkpt lat="45.5138" lon="7.25907">
        <ele>3664.9</ele>
        <time>2021-11-07T11:47:56Z</time>
      </trkpt>
      <trkpt lat="45.5138" lon="7.25908">
        <ele>3665.2</ele>
        <time>2021-11-07T11:47:58Z</time>
      </trkpt>
      <trkpt lat="45.5138" lon="7.2591">
        <ele>3665.5</ele>
        <time>2021-11-07T11:48:01Z</time>
      </trkpt>
      <trkpt lat="45.5138" lon="7.25912">
        <ele>3665.9</ele>
        <time>2021-11-07T11:48:05Z</time>
      </trkpt>
      <trkpt lat="45.5138" lon="7.25914">
        <ele>3666.3</ele>
        <time>2021-11-07T11:48:08Z</time>
      </trkpt>
      <trkpt lat="45.5138" lon="7.25915">
        <ele>3666.5</ele>
        <time>2021-11-07T11:48:11Z</time>
      </trkpt>
      <trkpt lat="45.5138" lon="7.25916">
        <ele>3666.6</ele>
        <time>2021-11-07T11:48:12Z</time>
      </trkpt>
      <trkpt lat="45.51379" lon="7.25918">
        <ele>3667</ele>
        <time>2021-11-07T11:48:16Z</time>
      </trkpt>
      <trkpt lat="45.51379" lon="7.25918">
        <ele>3667.2</ele>
        <time>2021-11-07T11:48:18Z</time>
      </trkpt>
      <trkpt lat="45.51379" lon="7.25918">
        <ele>3667.2</ele>
        <time>2021-11-07T11:48:22Z</time>
      </trkpt>
      <trkpt lat="45.51379" lon="7.25919">
        <ele>3667.2</ele>
        <time>2021-11-07T11:48:23Z</time>
      </trkpt>
      <trkpt lat="45.51379" lon="7.25919">
        <ele>3667.3</ele>
        <time>2021-11-07T11:48:25Z</time>
      </trkpt>
      <trkpt lat="45.51379" lon="7.25919">
        <ele>3667.3</ele>
        <time>2021-11-07T11:48:28Z</time>
      </trkpt>
      <trkpt lat="45.51378" lon="7.25919">
        <ele>3667.5</ele>
        <time>2021-11-07T11:48:30Z</time>
      </trkpt>
      <trkpt lat="45.51378" lon="7.25919">
        <ele>3667.5</ele>
        <time>2021-11-07T11:48:33Z</time>
      </trkpt>
      <trkpt lat="45.51378" lon="7.25919">
        <ele>3667.6</ele>
        <time>2021-11-07T11:48:36Z</time>
      </trkpt>
      <trkpt lat="45.51378" lon="7.25919">
        <ele>3667.6</ele>
        <time>2021-11-07T11:48:40Z</time>
      </trkpt>
      <trkpt lat="45.51378" lon="7.25919">
        <ele>3667.7</ele>
        <time>2021-11-07T11:48:44Z</time>
      </trkpt>
      <trkpt lat="45.51378" lon="7.25918">
        <ele>3667.8</ele>
        <time>2021-11-07T11:48:49Z</time>
      </trkpt>
      <trkpt lat="45.51378" lon="7.25918">
        <ele>3667.8</ele>
        <time>2021-11-07T11:48:53Z</time>
      </trkpt>
      <trkpt lat="45.51378" lon="7.25918">
        <ele>3667.9</ele>
        <time>2021-11-07T11:48:58Z</time>
      </trkpt>
      <trkpt lat="45.51378" lon="7.25918">
        <ele>3668</ele>
        <time>2021-11-07T11:49:07Z</time>
      </trkpt>
      <trkpt lat="45.51378" lon="7.2592">
        <ele>3668.4</ele>
        <time>2021-11-07T11:49:11Z</time>
      </trkpt>
      <trkpt lat="45.51379" lon="7.25923">
        <ele>3668.8</ele>
        <time>2021-11-07T11:49:14Z</time>
      </trkpt>
      <trkpt lat="45.51379" lon="7.25925">
        <ele>3669.3</ele>
        <time>2021-11-07T11:49:17Z</time>
      </trkpt>
      <trkpt lat="45.5138" lon="7.25928">
        <ele>3669.8</ele>
        <time>2021-11-07T11:49:21Z</time>
      </trkpt>
      <trkpt lat="45.51381" lon="7.25931">
        <ele>3670.4</ele>
        <time>2021-11-07T11:49:24Z</time>
      </trkpt>
      <trkpt lat="45.51382" lon="7.25937">
        <ele>3671.5</ele>
        <time>2021-11-07T11:49:31Z</time>
      </trkpt>
      <trkpt lat="45.51383" lon="7.25945">
        <ele>3673</ele>
        <time>2021-11-07T11:49:40Z</time>
      </trkpt>
      <trkpt lat="45.51382" lon="7.25947">
        <ele>3673.5</ele>
        <time>2021-11-07T11:49:43Z</time>
      </trkpt>
      <trkpt lat="45.51383" lon="7.25952">
        <ele>3674.3</ele>
        <time>2021-11-07T11:49:49Z</time>
      </trkpt>
      <trkpt lat="45.51383" lon="7.25955">
        <ele>3674.9</ele>
        <time>2021-11-07T11:49:52Z</time>
      </trkpt>
      <trkpt lat="45.51383" lon="7.25956">
        <ele>3675.1</ele>
        <time>2021-11-07T11:49:54Z</time>
      </trkpt>
      <trkpt lat="45.51384" lon="7.25961">
        <ele>3676</ele>
        <time>2021-11-07T11:50:05Z</time>
      </trkpt>
      <trkpt lat="45.51384" lon="7.25962">
        <ele>3676.2</ele>
        <time>2021-11-07T11:50:06Z</time>
      </trkpt>
      <trkpt lat="45.51384" lon="7.25969">
        <ele>3677.3</ele>
        <time>2021-11-07T11:50:14Z</time>
      </trkpt>
      <trkpt lat="45.51384" lon="7.25972">
        <ele>3677.9</ele>
        <time>2021-11-07T11:50:19Z</time>
      </trkpt>
      <trkpt lat="45.51383" lon="7.25976">
        <ele>3678.7</ele>
        <time>2021-11-07T11:50:24Z</time>
      </trkpt>
      <trkpt lat="45.51384" lon="7.25979">
        <ele>3679.2</ele>
        <time>2021-11-07T11:50:29Z</time>
      </trkpt>
      <trkpt lat="45.51383" lon="7.2598">
        <ele>3679.3</ele>
        <time>2021-11-07T11:50:30Z</time>
      </trkpt>
      <trkpt lat="45.51383" lon="7.25981">
        <ele>3679.6</ele>
        <time>2021-11-07T11:50:32Z</time>
      </trkpt>
      <trkpt lat="45.51384" lon="7.25983">
        <ele>3680</ele>
        <time>2021-11-07T11:50:35Z</time>
      </trkpt>
      <trkpt lat="45.51384" lon="7.25985">
        <ele>3680.4</ele>
        <time>2021-11-07T11:50:38Z</time>
      </trkpt>
      <trkpt lat="45.51384" lon="7.25991">
        <ele>3681.3</ele>
        <time>2021-11-07T11:50:44Z</time>
      </trkpt>
      <trkpt lat="45.51384" lon="7.25991">
        <ele>3681.5</ele>
        <time>2021-11-07T11:50:45Z</time>
      </trkpt>
      <trkpt lat="45.51384" lon="7.25992">
        <ele>3681.7</ele>
        <time>2021-11-07T11:50:47Z</time>
      </trkpt>
      <trkpt lat="45.51383" lon="7.26">
        <ele>3683.1</ele>
        <time>2021-11-07T11:50:59Z</time>
      </trkpt>
      <trkpt lat="45.51382" lon="7.26001">
        <ele>3683.3</ele>
        <time>2021-11-07T11:51:02Z</time>
      </trkpt>
      <trkpt lat="45.51382" lon="7.26002">
        <ele>3683.5</ele>
        <time>2021-11-07T11:51:04Z</time>
      </trkpt>
      <trkpt lat="45.51382" lon="7.26004">
        <ele>3683.8</ele>
        <time>2021-11-07T11:51:06Z</time>
      </trkpt>
      <trkpt lat="45.51381" lon="7.26006">
        <ele>3684.3</ele>
        <time>2021-11-07T11:51:09Z</time>
      </trkpt>
      <trkpt lat="45.51381" lon="7.26007">
        <ele>3684.4</ele>
        <time>2021-11-07T11:51:10Z</time>
      </trkpt>
      <trkpt lat="45.51382" lon="7.26014">
        <ele>3685.7</ele>
        <time>2021-11-07T11:51:22Z</time>
      </trkpt>
      <trkpt lat="45.51382" lon="7.26014">
        <ele>3685.7</ele>
        <time>2021-11-07T11:51:23Z</time>
      </trkpt>
      <trkpt lat="45.51381" lon="7.26016">
        <ele>3686</ele>
        <time>2021-11-07T11:51:26Z</time>
      </trkpt>
      <trkpt lat="45.51381" lon="7.26017">
        <ele>3686.4</ele>
        <time>2021-11-07T11:51:31Z</time>
      </trkpt>
      <trkpt lat="45.51381" lon="7.26018">
        <ele>3686.4</ele>
        <time>2021-11-07T11:51:32Z</time>
      </trkpt>
      <trkpt lat="45.51382" lon="7.2602">
        <ele>3686.7</ele>
        <time>2021-11-07T11:51:35Z</time>
      </trkpt>
      <trkpt lat="45.51382" lon="7.2602">
        <ele>3686.9</ele>
        <time>2021-11-07T11:51:36Z</time>
      </trkpt>
      <trkpt lat="45.51382" lon="7.26021">
        <ele>3687</ele>
        <time>2021-11-07T11:51:37Z</time>
      </trkpt>
      <trkpt lat="45.51382" lon="7.26021">
        <ele>3687.1</ele>
        <time>2021-11-07T11:51:38Z</time>
      </trkpt>
      <trkpt lat="45.51382" lon="7.26022">
        <ele>3687.2</ele>
        <time>2021-11-07T11:51:39Z</time>
      </trkpt>
      <trkpt lat="45.51382" lon="7.26023">
        <ele>3687.3</ele>
        <time>2021-11-07T11:51:40Z</time>
      </trkpt>
      <trkpt lat="45.51382" lon="7.26023">
        <ele>3687.5</ele>
        <time>2021-11-07T11:51:41Z</time>
      </trkpt>
      <trkpt lat="45.51382" lon="7.26024">
        <ele>3687.6</ele>
        <time>2021-11-07T11:51:42Z</time>
      </trkpt>
      <trkpt lat="45.51382" lon="7.26025">
        <ele>3687.8</ele>
        <time>2021-11-07T11:51:43Z</time>
      </trkpt>
      <trkpt lat="45.51382" lon="7.26025">
        <ele>3687.8</ele>
        <time>2021-11-07T11:51:44Z</time>
      </trkpt>
      <trkpt lat="45.51382" lon="7.26026">
        <ele>3688</ele>
        <time>2021-11-07T11:51:46Z</time>
      </trkpt>
      <trkpt lat="45.51383" lon="7.26028">
        <ele>3688.5</ele>
        <time>2021-11-07T11:51:54Z</time>
      </trkpt>
      <trkpt lat="45.51383" lon="7.26029">
        <ele>3688.6</ele>
        <time>2021-11-07T11:51:55Z</time>
      </trkpt>
      <trkpt lat="45.51385" lon="7.26033">
        <ele>3689.4</ele>
        <time>2021-11-07T11:52:04Z</time>
      </trkpt>
      <trkpt lat="45.51386" lon="7.26034">
        <ele>3690</ele>
        <time>2021-11-07T11:52:14Z</time>
      </trkpt>
      <trkpt lat="45.51387" lon="7.26033">
        <ele>3690.8</ele>
        <time>2021-11-07T11:52:15Z</time>
      </trkpt>
      <trkpt lat="45.51388" lon="7.26033">
        <ele>3690.2</ele>
        <time>2021-11-07T11:52:17Z</time>
      </trkpt>
      <trkpt lat="45.5139" lon="7.26032">
        <ele>3691</ele>
        <time>2021-11-07T11:52:23Z</time>
      </trkpt>
      <trkpt lat="45.51391" lon="7.26033">
        <ele>3691</ele>
        <time>2021-11-07T11:52:26Z</time>
      </trkpt>
      <trkpt lat="45.51394" lon="7.26032">
        <ele>3691.8</ele>
        <time>2021-11-07T11:52:31Z</time>
      </trkpt>
      <trkpt lat="45.51395" lon="7.26032">
        <ele>3691.7</ele>
        <time>2021-11-07T11:52:33Z</time>
      </trkpt>
      <trkpt lat="45.51396" lon="7.26032">
        <ele>3692.5</ele>
        <time>2021-11-07T11:52:35Z</time>
      </trkpt>
      <trkpt lat="45.51399" lon="7.26031">
        <ele>3693.1</ele>
        <time>2021-11-07T11:52:42Z</time>
      </trkpt>
      <trkpt lat="45.514" lon="7.2603">
        <ele>3693.1</ele>
        <time>2021-11-07T11:52:44Z</time>
      </trkpt>
      <trkpt lat="45.51402" lon="7.26032">
        <ele>3693.6</ele>
        <time>2021-11-07T11:52:52Z</time>
      </trkpt>
      <trkpt lat="45.51401" lon="7.26033">
        <ele>3693</ele>
        <time>2021-11-07T11:53:05Z</time>
      </trkpt>
      <trkpt lat="45.51402" lon="7.26033">
        <ele>3693.5</ele>
        <time>2021-11-07T11:53:07Z</time>
      </trkpt>
      <trkpt lat="45.51402" lon="7.26033">
        <ele>3693.5</ele>
        <time>2021-11-07T11:53:09Z</time>
      </trkpt>
      <trkpt lat="45.51408" lon="7.26032">
        <ele>3694.4</ele>
        <time>2021-11-07T11:53:19Z</time>
      </trkpt>
      <trkpt lat="45.51413" lon="7.2603">
        <ele>3694.7</ele>
        <time>2021-11-07T11:53:27Z</time>
      </trkpt>
      <trkpt lat="45.51418" lon="7.2603">
        <ele>3695.3</ele>
        <time>2021-11-07T11:53:36Z</time>
      </trkpt>
      <trkpt lat="45.51424" lon="7.26027">
        <ele>3695.3</ele>
        <time>2021-11-07T11:53:45Z</time>
      </trkpt>
      <trkpt lat="45.51425" lon="7.26026">
        <ele>3695.2</ele>
        <time>2021-11-07T11:53:47Z</time>
      </trkpt>
      <trkpt lat="45.51428" lon="7.26024">
        <ele>3694.9</ele>
        <time>2021-11-07T11:53:51Z</time>
      </trkpt>
      <trkpt lat="45.51434" lon="7.26021">
        <ele>3695</ele>
        <time>2021-11-07T11:54:02Z</time>
      </trkpt>
      <trkpt lat="45.51435" lon="7.2602">
        <ele>3694.5</ele>
        <time>2021-11-07T11:54:06Z</time>
      </trkpt>
      <trkpt lat="45.51438" lon="7.26017">
        <ele>3694.5</ele>
        <time>2021-11-07T11:54:12Z</time>
      </trkpt>
      <trkpt lat="45.51439" lon="7.26016">
        <ele>3694</ele>
        <time>2021-11-07T11:54:15Z</time>
      </trkpt>
      <trkpt lat="45.51442" lon="7.26014">
        <ele>3693.9</ele>
        <time>2021-11-07T11:54:25Z</time>
      </trkpt>
      <trkpt lat="45.51444" lon="7.26013">
        <ele>3693.8</ele>
        <time>2021-11-07T11:54:29Z</time>
      </trkpt>
      <trkpt lat="45.51446" lon="7.26013">
        <ele>3693.8</ele>
        <time>2021-11-07T11:54:41Z</time>
      </trkpt>
      <trkpt lat="45.51446" lon="7.26013">
        <ele>3693.8</ele>
        <time>2021-11-07T11:54:46Z</time>
      </trkpt>
      <trkpt lat="45.51446" lon="7.26013">
        <ele>3693.7</ele>
        <time>2021-11-07T11:54:57Z</time>
      </trkpt>
      <trkpt lat="45.51447" lon="7.26012">
        <ele>3693.6</ele>
        <time>2021-11-07T11:55:06Z</time>
      </trkpt>
      <trkpt lat="45.51448" lon="7.26011">
        <ele>3693.2</ele>
        <time>2021-11-07T11:55:08Z</time>
      </trkpt>
      <trkpt lat="45.51448" lon="7.26011">
        <ele>3693.2</ele>
        <time>2021-11-07T11:55:09Z</time>
      </trkpt>
      <trkpt lat="45.51449" lon="7.2601">
        <ele>3693.1</ele>
        <time>2021-11-07T11:55:10Z</time>
      </trkpt>
      <trkpt lat="45.51449" lon="7.26008">
        <ele>3693.1</ele>
        <time>2021-11-07T11:55:18Z</time>
      </trkpt>
      <trkpt lat="45.51453" lon="7.26007">
        <ele>3692.3</ele>
        <time>2021-11-07T11:55:26Z</time>
      </trkpt>
      <trkpt lat="45.51456" lon="7.26013">
        <ele>3692.9</ele>
        <time>2021-11-07T11:55:35Z</time>
      </trkpt>
      <trkpt lat="45.51456" lon="7.26014">
        <ele>3693.2</ele>
        <time>2021-11-07T11:55:45Z</time>
      </trkpt>
      <trkpt lat="45.51456" lon="7.26015">
        <ele>3693.2</ele>
        <time>2021-11-07T11:55:49Z</time>
      </trkpt>
      <trkpt lat="45.51456" lon="7.26015">
        <ele>3693.3</ele>
        <time>2021-11-07T11:55:50Z</time>
      </trkpt>
      <trkpt lat="45.51456" lon="7.26017">
        <ele>3693.6</ele>
        <time>2021-11-07T11:55:54Z</time>
      </trkpt>
      <trkpt lat="45.51456" lon="7.26017">
        <ele>3693.6</ele>
        <time>2021-11-07T11:55:55Z</time>
      </trkpt>
      <trkpt lat="45.51456" lon="7.26017">
        <ele>3693.6</ele>
        <time>2021-11-07T11:55:56Z</time>
      </trkpt>
      <trkpt lat="45.51455" lon="7.26016">
        <ele>3693.7</ele>
        <time>2021-11-07T11:55:58Z</time>
      </trkpt>
      <trkpt lat="45.51455" lon="7.26016">
        <ele>3693.7</ele>
        <time>2021-11-07T11:56:02Z</time>
      </trkpt>
      <trkpt lat="45.51455" lon="7.26016">
        <ele>3693.7</ele>
        <time>2021-11-07T11:56:04Z</time>
      </trkpt>
      <trkpt lat="45.51455" lon="7.26017">
        <ele>3693.7</ele>
        <time>2021-11-07T11:56:05Z</time>
      </trkpt>
      <trkpt lat="45.51455" lon="7.26017">
        <ele>3693.7</ele>
        <time>2021-11-07T11:56:06Z</time>
      </trkpt>
      <trkpt lat="45.51455" lon="7.26017">
        <ele>3693.8</ele>
        <time>2021-11-07T11:56:07Z</time>
      </trkpt>
      <trkpt lat="45.51455" lon="7.26017">
        <ele>3693.9</ele>
        <time>2021-11-07T11:56:09Z</time>
      </trkpt>
      <trkpt lat="45.51454" lon="7.26017">
        <ele>3694</ele>
        <time>2021-11-07T11:56:15Z</time>
      </trkpt>
      <trkpt lat="45.51454" lon="7.26017">
        <ele>3694.1</ele>
        <time>2021-11-07T11:56:17Z</time>
      </trkpt>
      <trkpt lat="45.51454" lon="7.26017">
        <ele>3694.1</ele>
        <time>2021-11-07T11:56:18Z</time>
      </trkpt>
      <trkpt lat="45.51454" lon="7.26018">
        <ele>3694.2</ele>
        <time>2021-11-07T11:56:20Z</time>
      </trkpt>
      <trkpt lat="45.51454" lon="7.26019">
        <ele>3694.3</ele>
        <time>2021-11-07T11:56:23Z</time>
      </trkpt>
      <trkpt lat="45.51454" lon="7.26019">
        <ele>3694.3</ele>
        <time>2021-11-07T11:56:24Z</time>
      </trkpt>
      <trkpt lat="45.51454" lon="7.26019">
        <ele>3694.3</ele>
        <time>2021-11-07T11:56:25Z</time>
      </trkpt>
      <trkpt lat="45.51454" lon="7.26019">
        <ele>3694.4</ele>
        <time>2021-11-07T11:56:27Z</time>
      </trkpt>
      <trkpt lat="45.51453" lon="7.26019">
        <ele>3694.4</ele>
        <time>2021-11-07T11:56:30Z</time>
      </trkpt>
      <trkpt lat="45.51453" lon="7.26019">
        <ele>3694.5</ele>
        <time>2021-11-07T11:56:32Z</time>
      </trkpt>
      <trkpt lat="45.51453" lon="7.26019">
        <ele>3694.5</ele>
        <time>2021-11-07T11:56:33Z</time>
      </trkpt>
      <trkpt lat="45.51453" lon="7.26019">
        <ele>3694.5</ele>
        <time>2021-11-07T11:56:34Z</time>
      </trkpt>
      <trkpt lat="45.51453" lon="7.26019">
        <ele>3694.5</ele>
        <time>2021-11-07T11:56:35Z</time>
      </trkpt>
      <trkpt lat="45.51453" lon="7.26019">
        <ele>3694.6</ele>
        <time>2021-11-07T11:56:36Z</time>
      </trkpt>
      <trkpt lat="45.51453" lon="7.26019">
        <ele>3694.6</ele>
        <time>2021-11-07T11:56:42Z</time>
      </trkpt>
      <trkpt lat="45.51453" lon="7.26019">
        <ele>3694.7</ele>
        <time>2021-11-07T11:56:45Z</time>
      </trkpt>
      <trkpt lat="45.51453" lon="7.26019">
        <ele>3694.7</ele>
        <time>2021-11-07T11:56:47Z</time>
      </trkpt>
      <trkpt lat="45.51452" lon="7.26019">
        <ele>3694.8</ele>
        <time>2021-11-07T11:56:48Z</time>
      </trkpt>
      <trkpt lat="45.51452" lon="7.26019">
        <ele>3694.8</ele>
        <time>2021-11-07T11:56:49Z</time>
      </trkpt>
      <trkpt lat="45.51452" lon="7.26019">
        <ele>3694.9</ele>
        <time>2021-11-07T11:56:51Z</time>
      </trkpt>
      <trkpt lat="45.51452" lon="7.26019">
        <ele>3694.9</ele>
        <time>2021-11-07T11:56:52Z</time>
      </trkpt>
      <trkpt lat="45.51452" lon="7.26019">
        <ele>3695</ele>
        <time>2021-11-07T11:56:55Z</time>
      </trkpt>
      <trkpt lat="45.51452" lon="7.26019">
        <ele>3695</ele>
        <time>2021-11-07T11:56:58Z</time>
      </trkpt>
      <trkpt lat="45.51452" lon="7.2602">
        <ele>3695</ele>
        <time>2021-11-07T11:57:01Z</time>
      </trkpt>
      <trkpt lat="45.51451" lon="7.2602">
        <ele>3695</ele>
        <time>2021-11-07T11:57:02Z</time>
      </trkpt>
      <trkpt lat="45.51451" lon="7.2602">
        <ele>3695.1</ele>
        <time>2021-11-07T11:57:03Z</time>
      </trkpt>
      <trkpt lat="45.51451" lon="7.2602">
        <ele>3695.1</ele>
        <time>2021-11-07T11:57:04Z</time>
      </trkpt>
      <trkpt lat="45.51451" lon="7.2602">
        <ele>3695.1</ele>
        <time>2021-11-07T11:57:06Z</time>
      </trkpt>
      <trkpt lat="45.51451" lon="7.2602">
        <ele>3695.1</ele>
        <time>2021-11-07T11:57:08Z</time>
      </trkpt>
      <trkpt lat="45.51452" lon="7.2602">
        <ele>3695.2</ele>
        <time>2021-11-07T11:57:10Z</time>
      </trkpt>
      <trkpt lat="45.51451" lon="7.2602">
        <ele>3695.2</ele>
        <time>2021-11-07T11:57:13Z</time>
      </trkpt>
      <trkpt lat="45.51452" lon="7.2602">
        <ele>3695.2</ele>
        <time>2021-11-07T11:57:14Z</time>
      </trkpt>
      <trkpt lat="45.51452" lon="7.2602">
        <ele>3695.2</ele>
        <time>2021-11-07T11:57:15Z</time>
      </trkpt>
      <trkpt lat="45.51452" lon="7.2602">
        <ele>3695.3</ele>
        <time>2021-11-07T11:57:17Z</time>
      </trkpt>
      <trkpt lat="45.51452" lon="7.2602">
        <ele>3695.4</ele>
        <time>2021-11-07T11:57:21Z</time>
      </trkpt>
      <trkpt lat="45.51452" lon="7.2602">
        <ele>3695.4</ele>
        <time>2021-11-07T11:57:22Z</time>
      </trkpt>
      <trkpt lat="45.51452" lon="7.2602">
        <ele>3695.4</ele>
        <time>2021-11-07T11:57:23Z</time>
      </trkpt>
      <trkpt lat="45.51452" lon="7.2602">
        <ele>3695.5</ele>
        <time>2021-11-07T11:57:24Z</time>
      </trkpt>
      <trkpt lat="45.51452" lon="7.26019">
        <ele>3695.5</ele>
        <time>2021-11-07T11:57:25Z</time>
      </trkpt>
      <trkpt lat="45.51451" lon="7.26019">
        <ele>3695.7</ele>
        <time>2021-11-07T11:57:27Z</time>
      </trkpt>
      <trkpt lat="45.51451" lon="7.26019">
        <ele>3695.7</ele>
        <time>2021-11-07T11:57:29Z</time>
      </trkpt>
      <trkpt lat="45.51451" lon="7.26019">
        <ele>3695.7</ele>
        <time>2021-11-07T11:57:31Z</time>
      </trkpt>
      <trkpt lat="45.51451" lon="7.26019">
        <ele>3695.7</ele>
        <time>2021-11-07T11:57:33Z</time>
      </trkpt>
      <trkpt lat="45.51451" lon="7.26019">
        <ele>3695.8</ele>
        <time>2021-11-07T11:57:36Z</time>
      </trkpt>
      <trkpt lat="45.51452" lon="7.26019">
        <ele>3696</ele>
        <time>2021-11-07T11:57:40Z</time>
      </trkpt>
      <trkpt lat="45.51452" lon="7.26019">
        <ele>3696</ele>
        <time>2021-11-07T11:57:42Z</time>
      </trkpt>
      <trkpt lat="45.51452" lon="7.26019">
        <ele>3696</ele>
        <time>2021-11-07T11:57:45Z</time>
      </trkpt>
      <trkpt lat="45.51452" lon="7.26019">
        <ele>3696</ele>
        <time>2021-11-07T11:57:46Z</time>
      </trkpt>
      <trkpt lat="45.51452" lon="7.26019">
        <ele>3696.1</ele>
        <time>2021-11-07T11:57:51Z</time>
      </trkpt>
      <trkpt lat="45.51451" lon="7.26019">
        <ele>3696.1</ele>
        <time>2021-11-07T11:57:56Z</time>
      </trkpt>
      <trkpt lat="45.51451" lon="7.26019">
        <ele>3696.1</ele>
        <time>2021-11-07T11:57:57Z</time>
      </trkpt>
      <trkpt lat="45.51451" lon="7.2602">
        <ele>3696.3</ele>
        <time>2021-11-07T11:58:01Z</time>
      </trkpt>
      <trkpt lat="45.51451" lon="7.26019">
        <ele>3696.5</ele>
        <time>2021-11-07T11:58:11Z</time>
      </trkpt>
      <trkpt lat="45.51451" lon="7.26019">
        <ele>3696.5</ele>
        <time>2021-11-07T11:58:13Z</time>
      </trkpt>
      <trkpt lat="45.51453" lon="7.2602">
        <ele>3697</ele>
        <time>2021-11-07T11:58:26Z</time>
      </trkpt>
      <trkpt lat="45.51452" lon="7.2602">
        <ele>3697.1</ele>
        <time>2021-11-07T11:58:30Z</time>
      </trkpt>
      <trkpt lat="45.51452" lon="7.26019">
        <ele>3697.4</ele>
        <time>2021-11-07T11:58:35Z</time>
      </trkpt>
      <trkpt lat="45.51452" lon="7.26018">
        <ele>3697.6</ele>
        <time>2021-11-07T11:58:41Z</time>
      </trkpt>
      <trkpt lat="45.51453" lon="7.26019">
        <ele>3697.7</ele>
        <time>2021-11-07T11:58:42Z</time>
      </trkpt>
      <trkpt lat="45.51455" lon="7.26017">
        <ele>3698.4</ele>
        <time>2021-11-07T11:58:51Z</time>
      </trkpt>
      <trkpt lat="45.51456" lon="7.26016">
        <ele>3698.6</ele>
        <time>2021-11-07T11:58:56Z</time>
      </trkpt>
      <trkpt lat="45.51455" lon="7.26015">
        <ele>3698.7</ele>
        <time>2021-11-07T11:58:57Z</time>
      </trkpt>
      <trkpt lat="45.51455" lon="7.26015">
        <ele>3698.7</ele>
        <time>2021-11-07T11:58:58Z</time>
      </trkpt>
      <trkpt lat="45.51456" lon="7.26014">
        <ele>3698.9</ele>
        <time>2021-11-07T11:59:00Z</time>
      </trkpt>
      <trkpt lat="45.51456" lon="7.26014">
        <ele>3698.9</ele>
        <time>2021-11-07T11:59:05Z</time>
      </trkpt>
      <trkpt lat="45.51456" lon="7.26014">
        <ele>3699</ele>
        <time>2021-11-07T11:59:08Z</time>
      </trkpt>
      <trkpt lat="45.51456" lon="7.26014">
        <ele>3699</ele>
        <time>2021-11-07T11:59:13Z</time>
      </trkpt>
      <trkpt lat="45.51456" lon="7.26014">
        <ele>3699</ele>
        <time>2021-11-07T11:59:14Z</time>
      </trkpt>
      <trkpt lat="45.51456" lon="7.26014">
        <ele>3699.1</ele>
        <time>2021-11-07T11:59:17Z</time>
      </trkpt>
      <trkpt lat="45.51456" lon="7.26014">
        <ele>3699.1</ele>
        <time>2021-11-07T11:59:18Z</time>
      </trkpt>
      <trkpt lat="45.51454" lon="7.26019">
        <ele>3699.9</ele>
        <time>2021-11-07T11:59:26Z</time>
      </trkpt>
      <trkpt lat="45.51453" lon="7.26019">
        <ele>3700.1</ele>
        <time>2021-11-07T11:59:27Z</time>
      </trkpt>
      <trkpt lat="45.51452" lon="7.26022">
        <ele>3700.4</ele>
        <time>2021-11-07T11:59:30Z</time>
      </trkpt>
      <trkpt lat="45.51451" lon="7.26022">
        <ele>3700.5</ele>
        <time>2021-11-07T11:59:31Z</time>
      </trkpt>
      <trkpt lat="45.51451" lon="7.26023">
        <ele>3700.7</ele>
        <time>2021-11-07T11:59:32Z</time>
      </trkpt>
      <trkpt lat="45.5145" lon="7.26024">
        <ele>3700.8</ele>
        <time>2021-11-07T11:59:34Z</time>
      </trkpt>
      <trkpt lat="45.51449" lon="7.26025">
        <ele>3701</ele>
        <time>2021-11-07T11:59:36Z</time>
      </trkpt>
      <trkpt lat="45.51449" lon="7.26026">
        <ele>3701.1</ele>
        <time>2021-11-07T11:59:37Z</time>
      </trkpt>
      <trkpt lat="45.51448" lon="7.26026">
        <ele>3701.2</ele>
        <time>2021-11-07T11:59:38Z</time>
      </trkpt>
      <trkpt lat="45.51447" lon="7.26027">
        <ele>3701.3</ele>
        <time>2021-11-07T11:59:40Z</time>
      </trkpt>
      <trkpt lat="45.51447" lon="7.26027">
        <ele>3701.3</ele>
        <time>2021-11-07T11:59:41Z</time>
      </trkpt>
      <trkpt lat="45.51447" lon="7.26027">
        <ele>3701.3</ele>
        <time>2021-11-07T11:59:42Z</time>
      </trkpt>
      <trkpt lat="45.51447" lon="7.26027">
        <ele>3701.3</ele>
        <time>2021-11-07T11:59:43Z</time>
      </trkpt>
      <trkpt lat="45.51446" lon="7.26028">
        <ele>3701.4</ele>
        <time>2021-11-07T11:59:45Z</time>
      </trkpt>
      <trkpt lat="45.51445" lon="7.26031">
        <ele>3701.6</ele>
        <time>2021-11-07T11:59:49Z</time>
      </trkpt>
      <trkpt lat="45.51442" lon="7.26036">
        <ele>3701.9</ele>
        <time>2021-11-07T11:59:55Z</time>
      </trkpt>
      <trkpt lat="45.51442" lon="7.26038">
        <ele>3701.9</ele>
        <time>2021-11-07T11:59:57Z</time>
      </trkpt>
      <trkpt lat="45.51441" lon="7.26039">
        <ele>3702</ele>
        <time>2021-11-07T12:00:00Z</time>
      </trkpt>
      <trkpt lat="45.5144" lon="7.26041">
        <ele>3702</ele>
        <time>2021-11-07T12:00:02Z</time>
      </trkpt>
      <trkpt lat="45.51439" lon="7.26043">
        <ele>3702.1</ele>
        <time>2021-11-07T12:00:04Z</time>
      </trkpt>
      <trkpt lat="45.51439" lon="7.26046">
        <ele>3702.2</ele>
        <time>2021-11-07T12:00:06Z</time>
      </trkpt>
      <trkpt lat="45.51437" lon="7.26049">
        <ele>3702.4</ele>
        <time>2021-11-07T12:00:10Z</time>
      </trkpt>
      <trkpt lat="45.51436" lon="7.26052">
        <ele>3702.5</ele>
        <time>2021-11-07T12:00:12Z</time>
      </trkpt>
      <trkpt lat="45.51436" lon="7.26054">
        <ele>3702.6</ele>
        <time>2021-11-07T12:00:14Z</time>
      </trkpt>
      <trkpt lat="45.51433" lon="7.26057">
        <ele>3702.9</ele>
        <time>2021-11-07T12:00:18Z</time>
      </trkpt>
      <trkpt lat="45.51432" lon="7.26058">
        <ele>3703</ele>
        <time>2021-11-07T12:00:20Z</time>
      </trkpt>
      <trkpt lat="45.51432" lon="7.26059">
        <ele>3703.1</ele>
        <time>2021-11-07T12:00:22Z</time>
      </trkpt>
      <trkpt lat="45.51431" lon="7.2606">
        <ele>3703.2</ele>
        <time>2021-11-07T12:00:24Z</time>
      </trkpt>
      <trkpt lat="45.5143" lon="7.2606">
        <ele>3703.3</ele>
        <time>2021-11-07T12:00:26Z</time>
      </trkpt>
      <trkpt lat="45.51429" lon="7.26061">
        <ele>3703.3</ele>
        <time>2021-11-07T12:00:27Z</time>
      </trkpt>
      <trkpt lat="45.51428" lon="7.26062">
        <ele>3703.4</ele>
        <time>2021-11-07T12:00:29Z</time>
      </trkpt>
      <trkpt lat="45.51425" lon="7.26066">
        <ele>3703.7</ele>
        <time>2021-11-07T12:00:33Z</time>
      </trkpt>
      <trkpt lat="45.51423" lon="7.26069">
        <ele>3703.8</ele>
        <time>2021-11-07T12:00:36Z</time>
      </trkpt>
      <trkpt lat="45.51421" lon="7.26072">
        <ele>3704</ele>
        <time>2021-11-07T12:00:39Z</time>
      </trkpt>
      <trkpt lat="45.5142" lon="7.26073">
        <ele>3704</ele>
        <time>2021-11-07T12:00:41Z</time>
      </trkpt>
      <trkpt lat="45.51417" lon="7.26075">
        <ele>3704.1</ele>
        <time>2021-11-07T12:00:44Z</time>
      </trkpt>
      <trkpt lat="45.51414" lon="7.26079">
        <ele>3704.4</ele>
        <time>2021-11-07T12:00:49Z</time>
      </trkpt>
      <trkpt lat="45.51413" lon="7.2608">
        <ele>3704.4</ele>
        <time>2021-11-07T12:00:50Z</time>
      </trkpt>
      <trkpt lat="45.51412" lon="7.26081">
        <ele>3704.5</ele>
        <time>2021-11-07T12:00:52Z</time>
      </trkpt>
      <trkpt lat="45.51412" lon="7.26081">
        <ele>3704.6</ele>
        <time>2021-11-07T12:00:53Z</time>
      </trkpt>
      <trkpt lat="45.51411" lon="7.26082">
        <ele>3704.6</ele>
        <time>2021-11-07T12:00:55Z</time>
      </trkpt>
      <trkpt lat="45.51409" lon="7.26083">
        <ele>3704.8</ele>
        <time>2021-11-07T12:00:57Z</time>
      </trkpt>
      <trkpt lat="45.51408" lon="7.26085">
        <ele>3705</ele>
        <time>2021-11-07T12:01:00Z</time>
      </trkpt>
      <trkpt lat="45.51407" lon="7.26086">
        <ele>3705.2</ele>
        <time>2021-11-07T12:01:02Z</time>
      </trkpt>
      <trkpt lat="45.51406" lon="7.26087">
        <ele>3705.3</ele>
        <time>2021-11-07T12:01:03Z</time>
      </trkpt>
      <trkpt lat="45.51405" lon="7.26088">
        <ele>3705.5</ele>
        <time>2021-11-07T12:01:05Z</time>
      </trkpt>
      <trkpt lat="45.51404" lon="7.26089">
        <ele>3705.6</ele>
        <time>2021-11-07T12:01:06Z</time>
      </trkpt>
      <trkpt lat="45.51402" lon="7.26091">
        <ele>3706.1</ele>
        <time>2021-11-07T12:01:10Z</time>
      </trkpt>
      <trkpt lat="45.514" lon="7.26095">
        <ele>3706.7</ele>
        <time>2021-11-07T12:01:14Z</time>
      </trkpt>
      <trkpt lat="45.51399" lon="7.26096">
        <ele>3706.9</ele>
        <time>2021-11-07T12:01:16Z</time>
      </trkpt>
      <trkpt lat="45.51398" lon="7.26097">
        <ele>3707.2</ele>
        <time>2021-11-07T12:01:18Z</time>
      </trkpt>
      <trkpt lat="45.51397" lon="7.26098">
        <ele>3707.4</ele>
        <time>2021-11-07T12:01:20Z</time>
      </trkpt>
      <trkpt lat="45.51394" lon="7.26101">
        <ele>3708.2</ele>
        <time>2021-11-07T12:01:24Z</time>
      </trkpt>
      <trkpt lat="45.51392" lon="7.26103">
        <ele>3708.8</ele>
        <time>2021-11-07T12:01:28Z</time>
      </trkpt>
      <trkpt lat="45.5139" lon="7.26104">
        <ele>3709.2</ele>
        <time>2021-11-07T12:01:31Z</time>
      </trkpt>
      <trkpt lat="45.5139" lon="7.26105">
        <ele>3709.4</ele>
        <time>2021-11-07T12:01:32Z</time>
      </trkpt>
      <trkpt lat="45.51389" lon="7.26106">
        <ele>3709.7</ele>
        <time>2021-11-07T12:01:34Z</time>
      </trkpt>
      <trkpt lat="45.51387" lon="7.26108">
        <ele>3710.2</ele>
        <time>2021-11-07T12:01:37Z</time>
      </trkpt>
      <trkpt lat="45.51387" lon="7.26108">
        <ele>3710.3</ele>
        <time>2021-11-07T12:01:38Z</time>
      </trkpt>
      <trkpt lat="45.51384" lon="7.26111">
        <ele>3710.7</ele>
        <time>2021-11-07T12:01:42Z</time>
      </trkpt>
      <trkpt lat="45.51382" lon="7.26114">
        <ele>3711.3</ele>
        <time>2021-11-07T12:01:46Z</time>
      </trkpt>
      <trkpt lat="45.5138" lon="7.26116">
        <ele>3711.5</ele>
        <time>2021-11-07T12:01:48Z</time>
      </trkpt>
      <trkpt lat="45.51377" lon="7.26126">
        <ele>3714.6</ele>
        <time>2021-11-07T12:01:59Z</time>
      </trkpt>
      <trkpt lat="45.51376" lon="7.26128">
        <ele>3715</ele>
        <time>2021-11-07T12:02:01Z</time>
      </trkpt>
      <trkpt lat="45.51375" lon="7.26131">
        <ele>3715.6</ele>
        <time>2021-11-07T12:02:04Z</time>
      </trkpt>
      <trkpt lat="45.51374" lon="7.26136">
        <ele>3716.6</ele>
        <time>2021-11-07T12:02:09Z</time>
      </trkpt>
      <trkpt lat="45.51373" lon="7.26142">
        <ele>3717.6</ele>
        <time>2021-11-07T12:02:14Z</time>
      </trkpt>
      <trkpt lat="45.51372" lon="7.26146">
        <ele>3718.2</ele>
        <time>2021-11-07T12:02:17Z</time>
      </trkpt>
      <trkpt lat="45.51372" lon="7.2615">
        <ele>3719</ele>
        <time>2021-11-07T12:02:22Z</time>
      </trkpt>
      <trkpt lat="45.51372" lon="7.26153">
        <ele>3719.6</ele>
        <time>2021-11-07T12:02:25Z</time>
      </trkpt>
      <trkpt lat="45.51372" lon="7.26154">
        <ele>3719.7</ele>
        <time>2021-11-07T12:02:26Z</time>
      </trkpt>
      <trkpt lat="45.51372" lon="7.26165">
        <ele>3721.5</ele>
        <time>2021-11-07T12:02:38Z</time>
      </trkpt>
      <trkpt lat="45.51372" lon="7.26168">
        <ele>3722.1</ele>
        <time>2021-11-07T12:02:43Z</time>
      </trkpt>
      <trkpt lat="45.51371" lon="7.2617">
        <ele>3722.4</ele>
        <time>2021-11-07T12:02:47Z</time>
      </trkpt>
      <trkpt lat="45.51371" lon="7.2617">
        <ele>3722.5</ele>
        <time>2021-11-07T12:02:49Z</time>
      </trkpt>
      <trkpt lat="45.51371" lon="7.2617">
        <ele>3722.5</ele>
        <time>2021-11-07T12:02:51Z</time>
      </trkpt>
      <trkpt lat="45.51371" lon="7.26169">
        <ele>3722.5</ele>
        <time>2021-11-07T12:02:55Z</time>
      </trkpt>
      <trkpt lat="45.51371" lon="7.26169">
        <ele>3722.6</ele>
        <time>2021-11-07T12:02:56Z</time>
      </trkpt>
      <trkpt lat="45.51371" lon="7.26169">
        <ele>3722.6</ele>
        <time>2021-11-07T12:02:58Z</time>
      </trkpt>
      <trkpt lat="45.51371" lon="7.26169">
        <ele>3722.6</ele>
        <time>2021-11-07T12:02:59Z</time>
      </trkpt>
      <trkpt lat="45.51371" lon="7.26169">
        <ele>3722.7</ele>
        <time>2021-11-07T12:03:01Z</time>
      </trkpt>
      <trkpt lat="45.5137" lon="7.26169">
        <ele>3722.7</ele>
        <time>2021-11-07T12:03:02Z</time>
      </trkpt>
      <trkpt lat="45.5137" lon="7.26169">
        <ele>3722.8</ele>
        <time>2021-11-07T12:03:03Z</time>
      </trkpt>
      <trkpt lat="45.5137" lon="7.26169">
        <ele>3723</ele>
        <time>2021-11-07T12:03:06Z</time>
      </trkpt>
      <trkpt lat="45.51368" lon="7.26168">
        <ele>3723.3</ele>
        <time>2021-11-07T12:03:10Z</time>
      </trkpt>
      <trkpt lat="45.51366" lon="7.26168">
        <ele>3723.8</ele>
        <time>2021-11-07T12:03:16Z</time>
      </trkpt>
      <trkpt lat="45.51366" lon="7.26168">
        <ele>3723.9</ele>
        <time>2021-11-07T12:03:17Z</time>
      </trkpt>
      <trkpt lat="45.51365" lon="7.26168">
        <ele>3724</ele>
        <time>2021-11-07T12:03:19Z</time>
      </trkpt>
      <trkpt lat="45.51365" lon="7.26168">
        <ele>3724</ele>
        <time>2021-11-07T12:03:22Z</time>
      </trkpt>
      <trkpt lat="45.51365" lon="7.26168">
        <ele>3724</ele>
        <time>2021-11-07T12:03:26Z</time>
      </trkpt>
      <trkpt lat="45.51365" lon="7.26168">
        <ele>3724.1</ele>
        <time>2021-11-07T12:03:30Z</time>
      </trkpt>
      <trkpt lat="45.51365" lon="7.26168">
        <ele>3724.1</ele>
        <time>2021-11-07T12:03:33Z</time>
      </trkpt>
      <trkpt lat="45.51364" lon="7.26168">
        <ele>3724.2</ele>
        <time>2021-11-07T12:03:38Z</time>
      </trkpt>
      <trkpt lat="45.51364" lon="7.26168">
        <ele>3724.3</ele>
        <time>2021-11-07T12:03:39Z</time>
      </trkpt>
      <trkpt lat="45.51365" lon="7.26169">
        <ele>3724.4</ele>
        <time>2021-11-07T12:03:42Z</time>
      </trkpt>
      <trkpt lat="45.51365" lon="7.26169">
        <ele>3724.4</ele>
        <time>2021-11-07T12:03:44Z</time>
      </trkpt>
      <trkpt lat="45.51366" lon="7.26169">
        <ele>3724.5</ele>
        <time>2021-11-07T12:03:50Z</time>
      </trkpt>
      <trkpt lat="45.51366" lon="7.26169">
        <ele>3724.6</ele>
        <time>2021-11-07T12:03:51Z</time>
      </trkpt>
      <trkpt lat="45.51366" lon="7.26169">
        <ele>3724.6</ele>
        <time>2021-11-07T12:03:52Z</time>
      </trkpt>
      <trkpt lat="45.51366" lon="7.26169">
        <ele>3724.6</ele>
        <time>2021-11-07T12:03:53Z</time>
      </trkpt>
      <trkpt lat="45.51366" lon="7.26169">
        <ele>3724.6</ele>
        <time>2021-11-07T12:03:54Z</time>
      </trkpt>
      <trkpt lat="45.51366" lon="7.26169">
        <ele>3724.7</ele>
        <time>2021-11-07T12:03:56Z</time>
      </trkpt>
      <trkpt lat="45.51366" lon="7.26169">
        <ele>3724.7</ele>
        <time>2021-11-07T12:03:57Z</time>
      </trkpt>
      <trkpt lat="45.51366" lon="7.26169">
        <ele>3724.7</ele>
        <time>2021-11-07T12:04:01Z</time>
      </trkpt>
      <trkpt lat="45.51366" lon="7.26169">
        <ele>3724.7</ele>
        <time>2021-11-07T12:04:05Z</time>
      </trkpt>
      <trkpt lat="45.51366" lon="7.26169">
        <ele>3724.7</ele>
        <time>2021-11-07T12:04:11Z</time>
      </trkpt>
      <trkpt lat="45.51366" lon="7.26169">
        <ele>3724.7</ele>
        <time>2021-11-07T12:04:14Z</time>
      </trkpt>
      <trkpt lat="45.51366" lon="7.26169">
        <ele>3724.7</ele>
        <time>2021-11-07T12:04:18Z</time>
      </trkpt>
      <trkpt lat="45.51367" lon="7.26169">
        <ele>3724.8</ele>
        <time>2021-11-07T12:04:20Z</time>
      </trkpt>
      <trkpt lat="45.51366" lon="7.26169">
        <ele>3724.8</ele>
        <time>2021-11-07T12:04:25Z</time>
      </trkpt>
      <trkpt lat="45.51366" lon="7.26173">
        <ele>3725.4</ele>
        <time>2021-11-07T12:04:30Z</time>
      </trkpt>
      <trkpt lat="45.51366" lon="7.26179">
        <ele>3726.4</ele>
        <time>2021-11-07T12:04:35Z</time>
      </trkpt>
      <trkpt lat="45.51366" lon="7.2618">
        <ele>3726.6</ele>
        <time>2021-11-07T12:04:36Z</time>
      </trkpt>
      <trkpt lat="45.51366" lon="7.26181">
        <ele>3726.7</ele>
        <time>2021-11-07T12:04:37Z</time>
      </trkpt>
      <trkpt lat="45.51367" lon="7.26183">
        <ele>3727.1</ele>
        <time>2021-11-07T12:04:39Z</time>
      </trkpt>
      <trkpt lat="45.51367" lon="7.26184">
        <ele>3727.2</ele>
        <time>2021-11-07T12:04:40Z</time>
      </trkpt>
      <trkpt lat="45.51367" lon="7.26185">
        <ele>3727.4</ele>
        <time>2021-11-07T12:04:41Z</time>
      </trkpt>
      <trkpt lat="45.51367" lon="7.26186">
        <ele>3727.6</ele>
        <time>2021-11-07T12:04:44Z</time>
      </trkpt>
      <trkpt lat="45.51368" lon="7.26187">
        <ele>3727.8</ele>
        <time>2021-11-07T12:04:48Z</time>
      </trkpt>
      <trkpt lat="45.51368" lon="7.26187">
        <ele>3727.8</ele>
        <time>2021-11-07T12:04:49Z</time>
      </trkpt>
      <trkpt lat="45.51368" lon="7.26188">
        <ele>3727.8</ele>
        <time>2021-11-07T12:04:50Z</time>
      </trkpt>
      <trkpt lat="45.51368" lon="7.26188">
        <ele>3727.9</ele>
        <time>2021-11-07T12:04:51Z</time>
      </trkpt>
      <trkpt lat="45.51368" lon="7.26188">
        <ele>3727.9</ele>
        <time>2021-11-07T12:04:53Z</time>
      </trkpt>
      <trkpt lat="45.51368" lon="7.26188">
        <ele>3727.9</ele>
        <time>2021-11-07T12:04:54Z</time>
      </trkpt>
      <trkpt lat="45.51368" lon="7.26188">
        <ele>3728</ele>
        <time>2021-11-07T12:04:55Z</time>
      </trkpt>
      <trkpt lat="45.51367" lon="7.26189">
        <ele>3728.1</ele>
        <time>2021-11-07T12:04:58Z</time>
      </trkpt>
      <trkpt lat="45.51367" lon="7.26189">
        <ele>3728.2</ele>
        <time>2021-11-07T12:05:00Z</time>
      </trkpt>
      <trkpt lat="45.51367" lon="7.26189">
        <ele>3728.2</ele>
        <time>2021-11-07T12:05:01Z</time>
      </trkpt>
      <trkpt lat="45.51367" lon="7.26189">
        <ele>3728.2</ele>
        <time>2021-11-07T12:05:02Z</time>
      </trkpt>
      <trkpt lat="45.51368" lon="7.26189">
        <ele>3728.3</ele>
        <time>2021-11-07T12:05:05Z</time>
      </trkpt>
      <trkpt lat="45.51368" lon="7.26189">
        <ele>3728.4</ele>
        <time>2021-11-07T12:05:13Z</time>
      </trkpt>
      <trkpt lat="45.51368" lon="7.26187">
        <ele>3728.7</ele>
        <time>2021-11-07T12:05:17Z</time>
      </trkpt>
      <trkpt lat="45.51367" lon="7.26186">
        <ele>3728.8</ele>
        <time>2021-11-07T12:05:21Z</time>
      </trkpt>
      <trkpt lat="45.51367" lon="7.26186">
        <ele>3728.8</ele>
        <time>2021-11-07T12:05:23Z</time>
      </trkpt>
      <trkpt lat="45.51368" lon="7.26185">
        <ele>3728.9</ele>
        <time>2021-11-07T12:05:28Z</time>
      </trkpt>
      <trkpt lat="45.51368" lon="7.26186">
        <ele>3728.9</ele>
        <time>2021-11-07T12:05:32Z</time>
      </trkpt>
      <trkpt lat="45.51368" lon="7.26186">
        <ele>3728.9</ele>
        <time>2021-11-07T12:05:33Z</time>
      </trkpt>
      <trkpt lat="45.51368" lon="7.26185">
        <ele>3729</ele>
        <time>2021-11-07T12:05:38Z</time>
      </trkpt>
      <trkpt lat="45.51368" lon="7.26185">
        <ele>3729</ele>
        <time>2021-11-07T12:05:40Z</time>
      </trkpt>
      <trkpt lat="45.51368" lon="7.26185">
        <ele>3729</ele>
        <time>2021-11-07T12:05:46Z</time>
      </trkpt>
      <trkpt lat="45.51369" lon="7.26185">
        <ele>3729.1</ele>
        <time>2021-11-07T12:05:48Z</time>
      </trkpt>
      <trkpt lat="45.51368" lon="7.26185">
        <ele>3729.1</ele>
        <time>2021-11-07T12:05:50Z</time>
      </trkpt>
      <trkpt lat="45.5137" lon="7.26187">
        <ele>3729.5</ele>
        <time>2021-11-07T12:05:58Z</time>
      </trkpt>
      <trkpt lat="45.5137" lon="7.26187">
        <ele>3729.6</ele>
        <time>2021-11-07T12:06:01Z</time>
      </trkpt>
      <trkpt lat="45.5137" lon="7.26187">
        <ele>3729.6</ele>
        <time>2021-11-07T12:06:02Z</time>
      </trkpt>
      <trkpt lat="45.5137" lon="7.26187">
        <ele>3729.6</ele>
        <time>2021-11-07T12:06:04Z</time>
      </trkpt>
      <trkpt lat="45.5137" lon="7.26187">
        <ele>3729.7</ele>
        <time>2021-11-07T12:06:06Z</time>
      </trkpt>
      <trkpt lat="45.5137" lon="7.26187">
        <ele>3729.7</ele>
        <time>2021-11-07T12:06:13Z</time>
      </trkpt>
      <trkpt lat="45.5137" lon="7.26187">
        <ele>3729.6</ele>
        <time>2021-11-07T12:06:14Z</time>
      </trkpt>
      <trkpt lat="45.5137" lon="7.26187">
        <ele>3729.8</ele>
        <time>2021-11-07T12:06:24Z</time>
      </trkpt>
      <trkpt lat="45.5137" lon="7.26187">
        <ele>3729.8</ele>
        <time>2021-11-07T12:06:28Z</time>
      </trkpt>
      <trkpt lat="45.5137" lon="7.26187">
        <ele>3729.9</ele>
        <time>2021-11-07T12:06:34Z</time>
      </trkpt>
      <trkpt lat="45.5137" lon="7.26186">
        <ele>3730</ele>
        <time>2021-11-07T12:06:37Z</time>
      </trkpt>
      <trkpt lat="45.5137" lon="7.26186">
        <ele>3730</ele>
        <time>2021-11-07T12:06:41Z</time>
      </trkpt>
      <trkpt lat="45.5137" lon="7.26186">
        <ele>3730</ele>
        <time>2021-11-07T12:06:48Z</time>
      </trkpt>
      <trkpt lat="45.51349" lon="7.2626">
        <ele>3742.5</ele>
        <time>2021-11-07T12:20:50Z</time>
      </trkpt>
      <trkpt lat="45.51349" lon="7.2626">
        <ele>3742.6</ele>
        <time>2021-11-07T12:20:51Z</time>
      </trkpt>
      <trkpt lat="45.51349" lon="7.26262">
        <ele>3742.9</ele>
        <time>2021-11-07T12:20:54Z</time>
      </trkpt>
      <trkpt lat="45.51349" lon="7.26264">
        <ele>3743</ele>
        <time>2021-11-07T12:20:57Z</time>
      </trkpt>
      <trkpt lat="45.51349" lon="7.26265">
        <ele>3743.2</ele>
        <time>2021-11-07T12:21:00Z</time>
      </trkpt>
      <trkpt lat="45.51349" lon="7.26266">
        <ele>3743.4</ele>
        <time>2021-11-07T12:21:03Z</time>
      </trkpt>
      <trkpt lat="45.51349" lon="7.26267">
        <ele>3743.5</ele>
        <time>2021-11-07T12:21:05Z</time>
      </trkpt>
      <trkpt lat="45.51349" lon="7.26268">
        <ele>3743.5</ele>
        <time>2021-11-07T12:21:07Z</time>
      </trkpt>
      <trkpt lat="45.51349" lon="7.26268">
        <ele>3743.6</ele>
        <time>2021-11-07T12:21:09Z</time>
      </trkpt>
      <trkpt lat="45.51349" lon="7.26269">
        <ele>3743.6</ele>
        <time>2021-11-07T12:21:12Z</time>
      </trkpt>
      <trkpt lat="45.51349" lon="7.26269">
        <ele>3743.7</ele>
        <time>2021-11-07T12:21:13Z</time>
      </trkpt>
      <trkpt lat="45.51348" lon="7.2627">
        <ele>3743.8</ele>
        <time>2021-11-07T12:21:15Z</time>
      </trkpt>
      <trkpt lat="45.51348" lon="7.26271">
        <ele>3744</ele>
        <time>2021-11-07T12:21:17Z</time>
      </trkpt>
      <trkpt lat="45.51348" lon="7.26272">
        <ele>3744</ele>
        <time>2021-11-07T12:21:19Z</time>
      </trkpt>
      <trkpt lat="45.51349" lon="7.26273">
        <ele>3744.2</ele>
        <time>2021-11-07T12:21:21Z</time>
      </trkpt>
      <trkpt lat="45.51349" lon="7.26274">
        <ele>3744.4</ele>
        <time>2021-11-07T12:21:24Z</time>
      </trkpt>
      <trkpt lat="45.51349" lon="7.26275">
        <ele>3744.4</ele>
        <time>2021-11-07T12:21:25Z</time>
      </trkpt>
      <trkpt lat="45.51349" lon="7.26276">
        <ele>3744.6</ele>
        <time>2021-11-07T12:21:27Z</time>
      </trkpt>
      <trkpt lat="45.51349" lon="7.26279">
        <ele>3745</ele>
        <time>2021-11-07T12:21:33Z</time>
      </trkpt>
      <trkpt lat="45.51349" lon="7.26282">
        <ele>3745.4</ele>
        <time>2021-11-07T12:21:38Z</time>
      </trkpt>
      <trkpt lat="45.51349" lon="7.26282">
        <ele>3745.4</ele>
        <time>2021-11-07T12:21:39Z</time>
      </trkpt>
      <trkpt lat="45.51349" lon="7.26285">
        <ele>3745.8</ele>
        <time>2021-11-07T12:21:44Z</time>
      </trkpt>
      <trkpt lat="45.51349" lon="7.26286">
        <ele>3746</ele>
        <time>2021-11-07T12:21:50Z</time>
      </trkpt>
      <trkpt lat="45.51349" lon="7.26287">
        <ele>3746.1</ele>
        <time>2021-11-07T12:21:52Z</time>
      </trkpt>
      <trkpt lat="45.51349" lon="7.26288">
        <ele>3746.1</ele>
        <time>2021-11-07T12:21:54Z</time>
      </trkpt>
      <trkpt lat="45.51348" lon="7.26287">
        <ele>3746.3</ele>
        <time>2021-11-07T12:22:05Z</time>
      </trkpt>
      <trkpt lat="45.51348" lon="7.26291">
        <ele>3746.8</ele>
        <time>2021-11-07T12:22:12Z</time>
      </trkpt>
      <trkpt lat="45.51348" lon="7.26292">
        <ele>3747</ele>
        <time>2021-11-07T12:22:14Z</time>
      </trkpt>
      <trkpt lat="45.51348" lon="7.26294">
        <ele>3747.3</ele>
        <time>2021-11-07T12:22:17Z</time>
      </trkpt>
      <trkpt lat="45.51348" lon="7.26296">
        <ele>3747.5</ele>
        <time>2021-11-07T12:22:21Z</time>
      </trkpt>
      <trkpt lat="45.51347" lon="7.26296">
        <ele>3747.7</ele>
        <time>2021-11-07T12:22:24Z</time>
      </trkpt>
      <trkpt lat="45.51347" lon="7.26297">
        <ele>3747.8</ele>
        <time>2021-11-07T12:22:26Z</time>
      </trkpt>
      <trkpt lat="45.51347" lon="7.26298">
        <ele>3747.9</ele>
        <time>2021-11-07T12:22:28Z</time>
      </trkpt>
      <trkpt lat="45.51346" lon="7.26299">
        <ele>3748.2</ele>
        <time>2021-11-07T12:22:30Z</time>
      </trkpt>
      <trkpt lat="45.51345" lon="7.263">
        <ele>3748.5</ele>
        <time>2021-11-07T12:22:33Z</time>
      </trkpt>
      <trkpt lat="45.51344" lon="7.26301">
        <ele>3748.6</ele>
        <time>2021-11-07T12:22:35Z</time>
      </trkpt>
      <trkpt lat="45.51344" lon="7.26301">
        <ele>3748.7</ele>
        <time>2021-11-07T12:22:36Z</time>
      </trkpt>
      <trkpt lat="45.51343" lon="7.26303">
        <ele>3749</ele>
        <time>2021-11-07T12:22:38Z</time>
      </trkpt>
      <trkpt lat="45.51342" lon="7.26304">
        <ele>3749.3</ele>
        <time>2021-11-07T12:22:40Z</time>
      </trkpt>
      <trkpt lat="45.51341" lon="7.26305">
        <ele>3749.5</ele>
        <time>2021-11-07T12:22:44Z</time>
      </trkpt>
      <trkpt lat="45.51339" lon="7.26307">
        <ele>3750.1</ele>
        <time>2021-11-07T12:22:51Z</time>
      </trkpt>
      <trkpt lat="45.51339" lon="7.26308">
        <ele>3750.2</ele>
        <time>2021-11-07T12:22:52Z</time>
      </trkpt>
      <trkpt lat="45.51337" lon="7.26309">
        <ele>3750.7</ele>
        <time>2021-11-07T12:22:56Z</time>
      </trkpt>
      <trkpt lat="45.51336" lon="7.26313">
        <ele>3751.3</ele>
        <time>2021-11-07T12:23:01Z</time>
      </trkpt>
      <trkpt lat="45.51336" lon="7.26314">
        <ele>3751.4</ele>
        <time>2021-11-07T12:23:02Z</time>
      </trkpt>
      <trkpt lat="45.51336" lon="7.26315">
        <ele>3751.5</ele>
        <time>2021-11-07T12:23:03Z</time>
      </trkpt>
      <trkpt lat="45.51336" lon="7.26316">
        <ele>3751.7</ele>
        <time>2021-11-07T12:23:04Z</time>
      </trkpt>
      <trkpt lat="45.51336" lon="7.26317">
        <ele>3751.8</ele>
        <time>2021-11-07T12:23:05Z</time>
      </trkpt>
      <trkpt lat="45.51336" lon="7.26317">
        <ele>3751.9</ele>
        <time>2021-11-07T12:23:06Z</time>
      </trkpt>
      <trkpt lat="45.51336" lon="7.26319">
        <ele>3752.2</ele>
        <time>2021-11-07T12:23:09Z</time>
      </trkpt>
      <trkpt lat="45.51335" lon="7.2632">
        <ele>3752.4</ele>
        <time>2021-11-07T12:23:12Z</time>
      </trkpt>
      <trkpt lat="45.51335" lon="7.2632">
        <ele>3752.4</ele>
        <time>2021-11-07T12:23:13Z</time>
      </trkpt>
      <trkpt lat="45.51335" lon="7.26317">
        <ele>3752.8</ele>
        <time>2021-11-07T12:23:23Z</time>
      </trkpt>
      <trkpt lat="45.51336" lon="7.26317">
        <ele>3753</ele>
        <time>2021-11-07T12:23:27Z</time>
      </trkpt>
      <trkpt lat="45.51336" lon="7.26317">
        <ele>3753</ele>
        <time>2021-11-07T12:23:28Z</time>
      </trkpt>
      <trkpt lat="45.51336" lon="7.26318">
        <ele>3753.1</ele>
        <time>2021-11-07T12:23:32Z</time>
      </trkpt>
      <trkpt lat="45.51337" lon="7.26318">
        <ele>3753.2</ele>
        <time>2021-11-07T12:23:38Z</time>
      </trkpt>
      <trkpt lat="45.51337" lon="7.26319">
        <ele>3753.2</ele>
        <time>2021-11-07T12:23:44Z</time>
      </trkpt>
      <trkpt lat="45.51337" lon="7.26319">
        <ele>3753.3</ele>
        <time>2021-11-07T12:23:45Z</time>
      </trkpt>
      <trkpt lat="45.51337" lon="7.26319">
        <ele>3753.4</ele>
        <time>2021-11-07T12:23:46Z</time>
      </trkpt>
      <trkpt lat="45.51338" lon="7.26323">
        <ele>3753.9</ele>
        <time>2021-11-07T12:23:50Z</time>
      </trkpt>
      <trkpt lat="45.51337" lon="7.26324">
        <ele>3754.1</ele>
        <time>2021-11-07T12:23:52Z</time>
      </trkpt>
      <trkpt lat="45.51337" lon="7.26325">
        <ele>3754.2</ele>
        <time>2021-11-07T12:23:53Z</time>
      </trkpt>
      <trkpt lat="45.51337" lon="7.26325">
        <ele>3754.3</ele>
        <time>2021-11-07T12:23:54Z</time>
      </trkpt>
      <trkpt lat="45.51337" lon="7.26326">
        <ele>3754.4</ele>
        <time>2021-11-07T12:23:55Z</time>
      </trkpt>
      <trkpt lat="45.51337" lon="7.26326">
        <ele>3754.5</ele>
        <time>2021-11-07T12:23:56Z</time>
      </trkpt>
      <trkpt lat="45.51337" lon="7.26326">
        <ele>3754.5</ele>
        <time>2021-11-07T12:23:57Z</time>
      </trkpt>
      <trkpt lat="45.51337" lon="7.26327">
        <ele>3754.6</ele>
        <time>2021-11-07T12:23:58Z</time>
      </trkpt>
      <trkpt lat="45.51337" lon="7.26327">
        <ele>3754.6</ele>
        <time>2021-11-07T12:23:59Z</time>
      </trkpt>
      <trkpt lat="45.51337" lon="7.26328">
        <ele>3754.7</ele>
        <time>2021-11-07T12:24:00Z</time>
      </trkpt>
      <trkpt lat="45.51337" lon="7.26329">
        <ele>3755</ele>
        <time>2021-11-07T12:24:03Z</time>
      </trkpt>
      <trkpt lat="45.51337" lon="7.26331">
        <ele>3755.2</ele>
        <time>2021-11-07T12:24:05Z</time>
      </trkpt>
      <trkpt lat="45.51337" lon="7.26332">
        <ele>3755.3</ele>
        <time>2021-11-07T12:24:06Z</time>
      </trkpt>
      <trkpt lat="45.51337" lon="7.26334">
        <ele>3755.6</ele>
        <time>2021-11-07T12:24:09Z</time>
      </trkpt>
      <trkpt lat="45.51338" lon="7.26337">
        <ele>3756.2</ele>
        <time>2021-11-07T12:24:15Z</time>
      </trkpt>
      <trkpt lat="45.51337" lon="7.26337">
        <ele>3756.2</ele>
        <time>2021-11-07T12:24:16Z</time>
      </trkpt>
      <trkpt lat="45.51337" lon="7.26339">
        <ele>3756.5</ele>
        <time>2021-11-07T12:24:19Z</time>
      </trkpt>
      <trkpt lat="45.51337" lon="7.26341">
        <ele>3756.8</ele>
        <time>2021-11-07T12:24:22Z</time>
      </trkpt>
      <trkpt lat="45.51336" lon="7.26343">
        <ele>3757.1</ele>
        <time>2021-11-07T12:24:25Z</time>
      </trkpt>
      <trkpt lat="45.51336" lon="7.26345">
        <ele>3757.5</ele>
        <time>2021-11-07T12:24:29Z</time>
      </trkpt>
      <trkpt lat="45.51334" lon="7.26347">
        <ele>3757.9</ele>
        <time>2021-11-07T12:24:34Z</time>
      </trkpt>
      <trkpt lat="45.51334" lon="7.26348">
        <ele>3758</ele>
        <time>2021-11-07T12:24:36Z</time>
      </trkpt>
      <trkpt lat="45.51334" lon="7.2635">
        <ele>3758.4</ele>
        <time>2021-11-07T12:24:41Z</time>
      </trkpt>
      <trkpt lat="45.51333" lon="7.26351">
        <ele>3758.5</ele>
        <time>2021-11-07T12:24:43Z</time>
      </trkpt>
      <trkpt lat="45.51333" lon="7.2635">
        <ele>3758.6</ele>
        <time>2021-11-07T12:24:44Z</time>
      </trkpt>
      <trkpt lat="45.51332" lon="7.26353">
        <ele>3759</ele>
        <time>2021-11-07T12:24:49Z</time>
      </trkpt>
      <trkpt lat="45.51332" lon="7.26354">
        <ele>3759.2</ele>
        <time>2021-11-07T12:24:51Z</time>
      </trkpt>
      <trkpt lat="45.51333" lon="7.26357">
        <ele>3759.7</ele>
        <time>2021-11-07T12:24:57Z</time>
      </trkpt>
      <trkpt lat="45.51333" lon="7.26359">
        <ele>3760</ele>
        <time>2021-11-07T12:25:00Z</time>
      </trkpt>
      <trkpt lat="45.51333" lon="7.26359">
        <ele>3760</ele>
        <time>2021-11-07T12:25:01Z</time>
      </trkpt>
      <trkpt lat="45.51333" lon="7.2636">
        <ele>3760.2</ele>
        <time>2021-11-07T12:25:05Z</time>
      </trkpt>
      <trkpt lat="45.51333" lon="7.26362">
        <ele>3760.5</ele>
        <time>2021-11-07T12:25:07Z</time>
      </trkpt>
      <trkpt lat="45.51333" lon="7.26365">
        <ele>3760.9</ele>
        <time>2021-11-07T12:25:12Z</time>
      </trkpt>
      <trkpt lat="45.51332" lon="7.26368">
        <ele>3761.4</ele>
        <time>2021-11-07T12:25:21Z</time>
      </trkpt>
      <trkpt lat="45.51332" lon="7.26368">
        <ele>3761.5</ele>
        <time>2021-11-07T12:25:23Z</time>
      </trkpt>
      <trkpt lat="45.51333" lon="7.26366">
        <ele>3761.8</ele>
        <time>2021-11-07T12:25:29Z</time>
      </trkpt>
      <trkpt lat="45.51333" lon="7.26365">
        <ele>3761.9</ele>
        <time>2021-11-07T12:25:32Z</time>
      </trkpt>
      <trkpt lat="45.51333" lon="7.26365">
        <ele>3761.9</ele>
        <time>2021-11-07T12:25:34Z</time>
      </trkpt>
      <trkpt lat="45.51333" lon="7.26366">
        <ele>3762</ele>
        <time>2021-11-07T12:25:36Z</time>
      </trkpt>
      <trkpt lat="45.51332" lon="7.26366">
        <ele>3762.1</ele>
        <time>2021-11-07T12:25:38Z</time>
      </trkpt>
      <trkpt lat="45.51332" lon="7.26367">
        <ele>3762.2</ele>
        <time>2021-11-07T12:25:40Z</time>
      </trkpt>
      <trkpt lat="45.51332" lon="7.26368">
        <ele>3762.4</ele>
        <time>2021-11-07T12:25:42Z</time>
      </trkpt>
      <trkpt lat="45.51332" lon="7.26369">
        <ele>3762.5</ele>
        <time>2021-11-07T12:25:44Z</time>
      </trkpt>
      <trkpt lat="45.51332" lon="7.2637">
        <ele>3762.7</ele>
        <time>2021-11-07T12:25:47Z</time>
      </trkpt>
      <trkpt lat="45.51332" lon="7.26371">
        <ele>3762.9</ele>
        <time>2021-11-07T12:25:48Z</time>
      </trkpt>
      <trkpt lat="45.51332" lon="7.26371">
        <ele>3763</ele>
        <time>2021-11-07T12:25:49Z</time>
      </trkpt>
      <trkpt lat="45.51332" lon="7.26373">
        <ele>3763.2</ele>
        <time>2021-11-07T12:25:51Z</time>
      </trkpt>
      <trkpt lat="45.51332" lon="7.26373">
        <ele>3763.2</ele>
        <time>2021-11-07T12:25:52Z</time>
      </trkpt>
      <trkpt lat="45.51332" lon="7.26374">
        <ele>3763.3</ele>
        <time>2021-11-07T12:25:53Z</time>
      </trkpt>
      <trkpt lat="45.51332" lon="7.26374">
        <ele>3763.4</ele>
        <time>2021-11-07T12:25:54Z</time>
      </trkpt>
      <trkpt lat="45.51331" lon="7.26376">
        <ele>3763.7</ele>
        <time>2021-11-07T12:25:57Z</time>
      </trkpt>
      <trkpt lat="45.51331" lon="7.26378">
        <ele>3764</ele>
        <time>2021-11-07T12:26:00Z</time>
      </trkpt>
      <trkpt lat="45.51331" lon="7.2638">
        <ele>3764.3</ele>
        <time>2021-11-07T12:26:06Z</time>
      </trkpt>
      <trkpt lat="45.51332" lon="7.26382">
        <ele>3764.7</ele>
        <time>2021-11-07T12:26:10Z</time>
      </trkpt>
      <trkpt lat="45.51332" lon="7.26383">
        <ele>3764.8</ele>
        <time>2021-11-07T12:26:11Z</time>
      </trkpt>
      <trkpt lat="45.51332" lon="7.26387">
        <ele>3765.4</ele>
        <time>2021-11-07T12:26:15Z</time>
      </trkpt>
      <trkpt lat="45.51332" lon="7.26388">
        <ele>3765.6</ele>
        <time>2021-11-07T12:26:18Z</time>
      </trkpt>
      <trkpt lat="45.51332" lon="7.26389">
        <ele>3765.8</ele>
        <time>2021-11-07T12:26:21Z</time>
      </trkpt>
      <trkpt lat="45.51332" lon="7.26391">
        <ele>3766.1</ele>
        <time>2021-11-07T12:26:28Z</time>
      </trkpt>
      <trkpt lat="45.51332" lon="7.26391">
        <ele>3766.1</ele>
        <time>2021-11-07T12:26:29Z</time>
      </trkpt>
      <trkpt lat="45.51332" lon="7.26392">
        <ele>3766.2</ele>
        <time>2021-11-07T12:26:33Z</time>
      </trkpt>
      <trkpt lat="45.51332" lon="7.26392">
        <ele>3766.2</ele>
        <time>2021-11-07T12:26:34Z</time>
      </trkpt>
      <trkpt lat="45.51332" lon="7.26393">
        <ele>3766.5</ele>
        <time>2021-11-07T12:26:38Z</time>
      </trkpt>
      <trkpt lat="45.51331" lon="7.26396">
        <ele>3766.8</ele>
        <time>2021-11-07T12:26:44Z</time>
      </trkpt>
      <trkpt lat="45.51331" lon="7.26397">
        <ele>3767</ele>
        <time>2021-11-07T12:26:47Z</time>
      </trkpt>
      <trkpt lat="45.5133" lon="7.26401">
        <ele>3767.6</ele>
        <time>2021-11-07T12:26:54Z</time>
      </trkpt>
      <trkpt lat="45.51329" lon="7.26403">
        <ele>3768</ele>
        <time>2021-11-07T12:26:57Z</time>
      </trkpt>
      <trkpt lat="45.51329" lon="7.26403">
        <ele>3768</ele>
        <time>2021-11-07T12:26:58Z</time>
      </trkpt>
      <trkpt lat="45.51329" lon="7.26404">
        <ele>3768.2</ele>
        <time>2021-11-07T12:27:00Z</time>
      </trkpt>
      <trkpt lat="45.51327" lon="7.26407">
        <ele>3768.7</ele>
        <time>2021-11-07T12:27:08Z</time>
      </trkpt>
      <trkpt lat="45.51327" lon="7.26408">
        <ele>3768.9</ele>
        <time>2021-11-07T12:27:10Z</time>
      </trkpt>
      <trkpt lat="45.51327" lon="7.26408">
        <ele>3769</ele>
        <time>2021-11-07T12:27:11Z</time>
      </trkpt>
      <trkpt lat="45.51326" lon="7.2641">
        <ele>3769.3</ele>
        <time>2021-11-07T12:27:17Z</time>
      </trkpt>
      <trkpt lat="45.51326" lon="7.2641">
        <ele>3769.4</ele>
        <time>2021-11-07T12:27:20Z</time>
      </trkpt>
      <trkpt lat="45.51326" lon="7.2641">
        <ele>3769.4</ele>
        <time>2021-11-07T12:27:21Z</time>
      </trkpt>
      <trkpt lat="45.51325" lon="7.26411">
        <ele>3769.7</ele>
        <time>2021-11-07T12:27:29Z</time>
      </trkpt>
      <trkpt lat="45.51325" lon="7.26413">
        <ele>3770</ele>
        <time>2021-11-07T12:27:33Z</time>
      </trkpt>
      <trkpt lat="45.51325" lon="7.26414">
        <ele>3770.1</ele>
        <time>2021-11-07T12:27:35Z</time>
      </trkpt>
      <trkpt lat="45.51323" lon="7.26418">
        <ele>3770.8</ele>
        <time>2021-11-07T12:27:49Z</time>
      </trkpt>
      <trkpt lat="45.51323" lon="7.26418">
        <ele>3770.9</ele>
        <time>2021-11-07T12:27:50Z</time>
      </trkpt>
      <trkpt lat="45.51322" lon="7.26421">
        <ele>3771.3</ele>
        <time>2021-11-07T12:27:55Z</time>
      </trkpt>
      <trkpt lat="45.51322" lon="7.26421">
        <ele>3771.4</ele>
        <time>2021-11-07T12:27:56Z</time>
      </trkpt>
      <trkpt lat="45.51322" lon="7.26422">
        <ele>3771.6</ele>
        <time>2021-11-07T12:27:59Z</time>
      </trkpt>
      <trkpt lat="45.51321" lon="7.26423">
        <ele>3771.7</ele>
        <time>2021-11-07T12:28:00Z</time>
      </trkpt>
      <trkpt lat="45.51321" lon="7.26424">
        <ele>3771.9</ele>
        <time>2021-11-07T12:28:02Z</time>
      </trkpt>
      <trkpt lat="45.51321" lon="7.26426">
        <ele>3772.2</ele>
        <time>2021-11-07T12:28:05Z</time>
      </trkpt>
      <trkpt lat="45.5132" lon="7.26428">
        <ele>3772.6</ele>
        <time>2021-11-07T12:28:09Z</time>
      </trkpt>
      <trkpt lat="45.51319" lon="7.2643">
        <ele>3772.9</ele>
        <time>2021-11-07T12:28:12Z</time>
      </trkpt>
      <trkpt lat="45.51318" lon="7.26431">
        <ele>3773.2</ele>
        <time>2021-11-07T12:28:16Z</time>
      </trkpt>
      <trkpt lat="45.51317" lon="7.26433">
        <ele>3773.5</ele>
        <time>2021-11-07T12:28:20Z</time>
      </trkpt>
      <trkpt lat="45.51317" lon="7.26434">
        <ele>3773.7</ele>
        <time>2021-11-07T12:28:23Z</time>
      </trkpt>
      <trkpt lat="45.51317" lon="7.26434">
        <ele>3773.7</ele>
        <time>2021-11-07T12:28:24Z</time>
      </trkpt>
      <trkpt lat="45.51315" lon="7.26435">
        <ele>3774</ele>
        <time>2021-11-07T12:28:32Z</time>
      </trkpt>
      <trkpt lat="45.51315" lon="7.26435">
        <ele>3774.1</ele>
        <time>2021-11-07T12:28:34Z</time>
      </trkpt>
      <trkpt lat="45.51314" lon="7.26436">
        <ele>3774.4</ele>
        <time>2021-11-07T12:28:39Z</time>
      </trkpt>
      <trkpt lat="45.51311" lon="7.26438">
        <ele>3775.1</ele>
        <time>2021-11-07T12:28:43Z</time>
      </trkpt>
      <trkpt lat="45.5131" lon="7.26439">
        <ele>3775.3</ele>
        <time>2021-11-07T12:28:45Z</time>
      </trkpt>
      <trkpt lat="45.51308" lon="7.26442">
        <ele>3776</ele>
        <time>2021-11-07T12:28:52Z</time>
      </trkpt>
      <trkpt lat="45.51307" lon="7.26443">
        <ele>3776.2</ele>
        <time>2021-11-07T12:28:54Z</time>
      </trkpt>
      <trkpt lat="45.51307" lon="7.26444">
        <ele>3776.4</ele>
        <time>2021-11-07T12:28:57Z</time>
      </trkpt>
      <trkpt lat="45.51304" lon="7.26447">
        <ele>3777.2</ele>
        <time>2021-11-07T12:29:08Z</time>
      </trkpt>
      <trkpt lat="45.51303" lon="7.26448">
        <ele>3777.3</ele>
        <time>2021-11-07T12:29:09Z</time>
      </trkpt>
      <trkpt lat="45.51303" lon="7.26449">
        <ele>3777.6</ele>
        <time>2021-11-07T12:29:12Z</time>
      </trkpt>
      <trkpt lat="45.51302" lon="7.26449">
        <ele>3777.6</ele>
        <time>2021-11-07T12:29:13Z</time>
      </trkpt>
      <trkpt lat="45.513" lon="7.26451">
        <ele>3778.2</ele>
        <time>2021-11-07T12:29:19Z</time>
      </trkpt>
      <trkpt lat="45.513" lon="7.26452">
        <ele>3778.4</ele>
        <time>2021-11-07T12:29:22Z</time>
      </trkpt>
      <trkpt lat="45.513" lon="7.26452">
        <ele>3778.4</ele>
        <time>2021-11-07T12:29:23Z</time>
      </trkpt>
      <trkpt lat="45.51298" lon="7.26453">
        <ele>3778.9</ele>
        <time>2021-11-07T12:29:28Z</time>
      </trkpt>
      <trkpt lat="45.51297" lon="7.26455">
        <ele>3779.2</ele>
        <time>2021-11-07T12:29:32Z</time>
      </trkpt>
      <trkpt lat="45.51296" lon="7.26455">
        <ele>3779.3</ele>
        <time>2021-11-07T12:29:33Z</time>
      </trkpt>
      <trkpt lat="45.51295" lon="7.26457">
        <ele>3779.5</ele>
        <time>2021-11-07T12:29:36Z</time>
      </trkpt>
      <trkpt lat="45.51295" lon="7.26457">
        <ele>3779.7</ele>
        <time>2021-11-07T12:29:39Z</time>
      </trkpt>
      <trkpt lat="45.51294" lon="7.26459">
        <ele>3780.1</ele>
        <time>2021-11-07T12:29:45Z</time>
      </trkpt>
      <trkpt lat="45.51293" lon="7.26461">
        <ele>3780.4</ele>
        <time>2021-11-07T12:29:50Z</time>
      </trkpt>
      <trkpt lat="45.51292" lon="7.26463">
        <ele>3780.8</ele>
        <time>2021-11-07T12:29:56Z</time>
      </trkpt>
      <trkpt lat="45.51291" lon="7.26463">
        <ele>3781</ele>
        <time>2021-11-07T12:29:58Z</time>
      </trkpt>
      <trkpt lat="45.51288" lon="7.26467">
        <ele>3781.8</ele>
        <time>2021-11-07T12:30:08Z</time>
      </trkpt>
      <trkpt lat="45.51286" lon="7.26469">
        <ele>3782.4</ele>
        <time>2021-11-07T12:30:17Z</time>
      </trkpt>
      <trkpt lat="45.51286" lon="7.2647">
        <ele>3782.5</ele>
        <time>2021-11-07T12:30:18Z</time>
      </trkpt>
      <trkpt lat="45.51284" lon="7.2647">
        <ele>3782.8</ele>
        <time>2021-11-07T12:30:22Z</time>
      </trkpt>
      <trkpt lat="45.51283" lon="7.26471">
        <ele>3783.1</ele>
        <time>2021-11-07T12:30:26Z</time>
      </trkpt>
      <trkpt lat="45.51283" lon="7.26472">
        <ele>3783.3</ele>
        <time>2021-11-07T12:30:30Z</time>
      </trkpt>
      <trkpt lat="45.51282" lon="7.26474">
        <ele>3783.5</ele>
        <time>2021-11-07T12:30:34Z</time>
      </trkpt>
      <trkpt lat="45.51282" lon="7.26475">
        <ele>3783.8</ele>
        <time>2021-11-07T12:30:39Z</time>
      </trkpt>
      <trkpt lat="45.51281" lon="7.26476">
        <ele>3784</ele>
        <time>2021-11-07T12:30:42Z</time>
      </trkpt>
      <trkpt lat="45.5128" lon="7.26477">
        <ele>3784.3</ele>
        <time>2021-11-07T12:30:44Z</time>
      </trkpt>
      <trkpt lat="45.51278" lon="7.26479">
        <ele>3784.8</ele>
        <time>2021-11-07T12:30:49Z</time>
      </trkpt>
      <trkpt lat="45.51277" lon="7.2648">
        <ele>3785</ele>
        <time>2021-11-07T12:30:52Z</time>
      </trkpt>
      <trkpt lat="45.51277" lon="7.26481">
        <ele>3785.1</ele>
        <time>2021-11-07T12:30:53Z</time>
      </trkpt>
      <trkpt lat="45.51277" lon="7.26481">
        <ele>3785.2</ele>
        <time>2021-11-07T12:30:55Z</time>
      </trkpt>
      <trkpt lat="45.51276" lon="7.26482">
        <ele>3785.3</ele>
        <time>2021-11-07T12:30:56Z</time>
      </trkpt>
      <trkpt lat="45.51274" lon="7.26485">
        <ele>3786.1</ele>
        <time>2021-11-07T12:31:06Z</time>
      </trkpt>
      <trkpt lat="45.51273" lon="7.26486">
        <ele>3786.2</ele>
        <time>2021-11-07T12:31:07Z</time>
      </trkpt>
      <trkpt lat="45.51273" lon="7.26487">
        <ele>3786.4</ele>
        <time>2021-11-07T12:31:09Z</time>
      </trkpt>
      <trkpt lat="45.51272" lon="7.26492">
        <ele>3787.2</ele>
        <time>2021-11-07T12:31:20Z</time>
      </trkpt>
      <trkpt lat="45.51272" lon="7.26492">
        <ele>3787.2</ele>
        <time>2021-11-07T12:31:21Z</time>
      </trkpt>
      <trkpt lat="45.51272" lon="7.26493">
        <ele>3787.3</ele>
        <time>2021-11-07T12:31:22Z</time>
      </trkpt>
      <trkpt lat="45.51272" lon="7.26493">
        <ele>3787.4</ele>
        <time>2021-11-07T12:31:24Z</time>
      </trkpt>
      <trkpt lat="45.51271" lon="7.26495">
        <ele>3787.7</ele>
        <time>2021-11-07T12:31:28Z</time>
      </trkpt>
      <trkpt lat="45.51271" lon="7.26496">
        <ele>3787.9</ele>
        <time>2021-11-07T12:31:32Z</time>
      </trkpt>
      <trkpt lat="45.51271" lon="7.26496">
        <ele>3787.9</ele>
        <time>2021-11-07T12:31:33Z</time>
      </trkpt>
      <trkpt lat="45.51272" lon="7.26495">
        <ele>3788.1</ele>
        <time>2021-11-07T12:31:42Z</time>
      </trkpt>
      <trkpt lat="45.51272" lon="7.26495">
        <ele>3788.2</ele>
        <time>2021-11-07T12:31:45Z</time>
      </trkpt>
      <trkpt lat="45.51272" lon="7.26495">
        <ele>3788.2</ele>
        <time>2021-11-07T12:31:48Z</time>
      </trkpt>
      <trkpt lat="45.51272" lon="7.26495">
        <ele>3788.2</ele>
        <time>2021-11-07T12:31:50Z</time>
      </trkpt>
      <trkpt lat="45.51272" lon="7.26495">
        <ele>3788.2</ele>
        <time>2021-11-07T12:31:51Z</time>
      </trkpt>
      <trkpt lat="45.51272" lon="7.26495">
        <ele>3788.2</ele>
        <time>2021-11-07T12:31:52Z</time>
      </trkpt>
      <trkpt lat="45.51272" lon="7.26495">
        <ele>3788.3</ele>
        <time>2021-11-07T12:31:54Z</time>
      </trkpt>
      <trkpt lat="45.51272" lon="7.26495">
        <ele>3788.3</ele>
        <time>2021-11-07T12:31:56Z</time>
      </trkpt>
      <trkpt lat="45.51273" lon="7.26495">
        <ele>3788.5</ele>
        <time>2021-11-07T12:31:59Z</time>
      </trkpt>
      <trkpt lat="45.51272" lon="7.26495">
        <ele>3788.6</ele>
        <time>2021-11-07T12:32:02Z</time>
      </trkpt>
      <trkpt lat="45.51272" lon="7.26495">
        <ele>3788.6</ele>
        <time>2021-11-07T12:32:05Z</time>
      </trkpt>
      <trkpt lat="45.51271" lon="7.26496">
        <ele>3788.8</ele>
        <time>2021-11-07T12:32:08Z</time>
      </trkpt>
      <trkpt lat="45.51271" lon="7.26496">
        <ele>3788.9</ele>
        <time>2021-11-07T12:32:09Z</time>
      </trkpt>
      <trkpt lat="45.51271" lon="7.26496">
        <ele>3789</ele>
        <time>2021-11-07T12:32:10Z</time>
      </trkpt>
      <trkpt lat="45.5127" lon="7.26498">
        <ele>3789.3</ele>
        <time>2021-11-07T12:32:13Z</time>
      </trkpt>
      <trkpt lat="45.51269" lon="7.26499">
        <ele>3789.6</ele>
        <time>2021-11-07T12:32:15Z</time>
      </trkpt>
      <trkpt lat="45.51268" lon="7.26501">
        <ele>3789.8</ele>
        <time>2021-11-07T12:32:17Z</time>
      </trkpt>
      <trkpt lat="45.51269" lon="7.26501">
        <ele>3789.9</ele>
        <time>2021-11-07T12:32:18Z</time>
      </trkpt>
      <trkpt lat="45.51268" lon="7.26503">
        <ele>3790.2</ele>
        <time>2021-11-07T12:32:23Z</time>
      </trkpt>
      <trkpt lat="45.51267" lon="7.26506">
        <ele>3790.8</ele>
        <time>2021-11-07T12:32:28Z</time>
      </trkpt>
      <trkpt lat="45.51267" lon="7.26508">
        <ele>3791</ele>
        <time>2021-11-07T12:32:30Z</time>
      </trkpt>
      <trkpt lat="45.51266" lon="7.26509">
        <ele>3791.2</ele>
        <time>2021-11-07T12:32:32Z</time>
      </trkpt>
      <trkpt lat="45.51266" lon="7.26511">
        <ele>3791.6</ele>
        <time>2021-11-07T12:32:36Z</time>
      </trkpt>
      <trkpt lat="45.51266" lon="7.26513">
        <ele>3791.9</ele>
        <time>2021-11-07T12:32:40Z</time>
      </trkpt>
      <trkpt lat="45.51266" lon="7.26514">
        <ele>3791.9</ele>
        <time>2021-11-07T12:32:41Z</time>
      </trkpt>
      <trkpt lat="45.51266" lon="7.26515">
        <ele>3792.1</ele>
        <time>2021-11-07T12:32:43Z</time>
      </trkpt>
      <trkpt lat="45.51264" lon="7.26519">
        <ele>3792.8</ele>
        <time>2021-11-07T12:32:53Z</time>
      </trkpt>
      <trkpt lat="45.51261" lon="7.26524">
        <ele>3793.8</ele>
        <time>2021-11-07T12:33:05Z</time>
      </trkpt>
      <trkpt lat="45.51261" lon="7.26525">
        <ele>3794</ele>
        <time>2021-11-07T12:33:08Z</time>
      </trkpt>
      <trkpt lat="45.5126" lon="7.26527">
        <ele>3794.3</ele>
        <time>2021-11-07T12:33:11Z</time>
      </trkpt>
      <trkpt lat="45.5126" lon="7.26528">
        <ele>3794.5</ele>
        <time>2021-11-07T12:33:13Z</time>
      </trkpt>
      <trkpt lat="45.51259" lon="7.2653">
        <ele>3794.8</ele>
        <time>2021-11-07T12:33:16Z</time>
      </trkpt>
      <trkpt lat="45.51258" lon="7.26536">
        <ele>3795.8</ele>
        <time>2021-11-07T12:33:26Z</time>
      </trkpt>
      <trkpt lat="45.51258" lon="7.26537">
        <ele>3796</ele>
        <time>2021-11-07T12:33:29Z</time>
      </trkpt>
      <trkpt lat="45.51256" lon="7.26541">
        <ele>3796.7</ele>
        <time>2021-11-07T12:33:37Z</time>
      </trkpt>
      <trkpt lat="45.51256" lon="7.26542">
        <ele>3796.8</ele>
        <time>2021-11-07T12:33:40Z</time>
      </trkpt>
      <trkpt lat="45.51255" lon="7.26542">
        <ele>3796.9</ele>
        <time>2021-11-07T12:33:42Z</time>
      </trkpt>
      <trkpt lat="45.51255" lon="7.26544">
        <ele>3797.1</ele>
        <time>2021-11-07T12:33:45Z</time>
      </trkpt>
      <trkpt lat="45.51255" lon="7.26544">
        <ele>3797.2</ele>
        <time>2021-11-07T12:33:46Z</time>
      </trkpt>
      <trkpt lat="45.51255" lon="7.26546">
        <ele>3797.6</ele>
        <time>2021-11-07T12:33:51Z</time>
      </trkpt>
      <trkpt lat="45.51255" lon="7.26547">
        <ele>3797.6</ele>
        <time>2021-11-07T12:33:53Z</time>
      </trkpt>
      <trkpt lat="45.51255" lon="7.26547">
        <ele>3797.7</ele>
        <time>2021-11-07T12:33:55Z</time>
      </trkpt>
      <trkpt lat="45.51255" lon="7.26547">
        <ele>3797.7</ele>
        <time>2021-11-07T12:33:56Z</time>
      </trkpt>
      <trkpt lat="45.51255" lon="7.26549">
        <ele>3798</ele>
        <time>2021-11-07T12:33:58Z</time>
      </trkpt>
      <trkpt lat="45.51255" lon="7.2655">
        <ele>3798.1</ele>
        <time>2021-11-07T12:33:59Z</time>
      </trkpt>
      <trkpt lat="45.51255" lon="7.26551">
        <ele>3798.3</ele>
        <time>2021-11-07T12:34:01Z</time>
      </trkpt>
      <trkpt lat="45.51255" lon="7.26552">
        <ele>3798.4</ele>
        <time>2021-11-07T12:34:02Z</time>
      </trkpt>
      <trkpt lat="45.51253" lon="7.26557">
        <ele>3799.3</ele>
        <time>2021-11-07T12:34:09Z</time>
      </trkpt>
      <trkpt lat="45.51253" lon="7.26559">
        <ele>3799.6</ele>
        <time>2021-11-07T12:34:12Z</time>
      </trkpt>
      <trkpt lat="45.51253" lon="7.2656">
        <ele>3799.7</ele>
        <time>2021-11-07T12:34:14Z</time>
      </trkpt>
      <trkpt lat="45.51253" lon="7.26562">
        <ele>3800</ele>
        <time>2021-11-07T12:34:17Z</time>
      </trkpt>
      <trkpt lat="45.51252" lon="7.26564">
        <ele>3800.4</ele>
        <time>2021-11-07T12:34:21Z</time>
      </trkpt>
      <trkpt lat="45.51252" lon="7.26566">
        <ele>3800.6</ele>
        <time>2021-11-07T12:34:23Z</time>
      </trkpt>
      <trkpt lat="45.51252" lon="7.26566">
        <ele>3800.7</ele>
        <time>2021-11-07T12:34:24Z</time>
      </trkpt>
      <trkpt lat="45.51252" lon="7.26566">
        <ele>3800.8</ele>
        <time>2021-11-07T12:34:25Z</time>
      </trkpt>
      <trkpt lat="45.51252" lon="7.26567">
        <ele>3800.9</ele>
        <time>2021-11-07T12:34:26Z</time>
      </trkpt>
      <trkpt lat="45.51251" lon="7.26568">
        <ele>3801.1</ele>
        <time>2021-11-07T12:34:28Z</time>
      </trkpt>
      <trkpt lat="45.51251" lon="7.26569">
        <ele>3801.2</ele>
        <time>2021-11-07T12:34:29Z</time>
      </trkpt>
      <trkpt lat="45.51251" lon="7.26573">
        <ele>3801.9</ele>
        <time>2021-11-07T12:34:35Z</time>
      </trkpt>
      <trkpt lat="45.51251" lon="7.26575">
        <ele>3802.2</ele>
        <time>2021-11-07T12:34:43Z</time>
      </trkpt>
      <trkpt lat="45.51251" lon="7.26575">
        <ele>3802.3</ele>
        <time>2021-11-07T12:34:44Z</time>
      </trkpt>
      <trkpt lat="45.51251" lon="7.26575">
        <ele>3802.3</ele>
        <time>2021-11-07T12:34:45Z</time>
      </trkpt>
      <trkpt lat="45.51251" lon="7.26575">
        <ele>3802.4</ele>
        <time>2021-11-07T12:34:47Z</time>
      </trkpt>
      <trkpt lat="45.5125" lon="7.26575">
        <ele>3802.5</ele>
        <time>2021-11-07T12:34:51Z</time>
      </trkpt>
      <trkpt lat="45.51251" lon="7.26575">
        <ele>3802.6</ele>
        <time>2021-11-07T12:34:55Z</time>
      </trkpt>
      <trkpt lat="45.5125" lon="7.26575">
        <ele>3802.6</ele>
        <time>2021-11-07T12:35:00Z</time>
      </trkpt>
      <trkpt lat="45.5125" lon="7.26575">
        <ele>3802.7</ele>
        <time>2021-11-07T12:35:05Z</time>
      </trkpt>
      <trkpt lat="45.5125" lon="7.26575">
        <ele>3802.7</ele>
        <time>2021-11-07T12:35:07Z</time>
      </trkpt>
      <trkpt lat="45.5125" lon="7.26575">
        <ele>3802.7</ele>
        <time>2021-11-07T12:35:09Z</time>
      </trkpt>
      <trkpt lat="45.5125" lon="7.26575">
        <ele>3802.7</ele>
        <time>2021-11-07T12:35:11Z</time>
      </trkpt>
      <trkpt lat="45.5125" lon="7.26575">
        <ele>3802.7</ele>
        <time>2021-11-07T12:35:13Z</time>
      </trkpt>
      <trkpt lat="45.5125" lon="7.26575">
        <ele>3802.8</ele>
        <time>2021-11-07T12:35:17Z</time>
      </trkpt>
      <trkpt lat="45.5125" lon="7.26575">
        <ele>3802.8</ele>
        <time>2021-11-07T12:35:22Z</time>
      </trkpt>
      <trkpt lat="45.5125" lon="7.26575">
        <ele>3802.8</ele>
        <time>2021-11-07T12:35:24Z</time>
      </trkpt>
      <trkpt lat="45.5125" lon="7.26575">
        <ele>3802.9</ele>
        <time>2021-11-07T12:35:27Z</time>
      </trkpt>
      <trkpt lat="45.5125" lon="7.26575">
        <ele>3802.9</ele>
        <time>2021-11-07T12:35:30Z</time>
      </trkpt>
      <trkpt lat="45.51252" lon="7.26574">
        <ele>3803.4</ele>
        <time>2021-11-07T12:35:33Z</time>
      </trkpt>
      <trkpt lat="45.51251" lon="7.26574">
        <ele>3803.4</ele>
        <time>2021-11-07T12:35:34Z</time>
      </trkpt>
      <trkpt lat="45.51251" lon="7.26574">
        <ele>3803.5</ele>
        <time>2021-11-07T12:35:43Z</time>
      </trkpt>
      <trkpt lat="45.51251" lon="7.26574">
        <ele>3803.5</ele>
        <time>2021-11-07T12:35:54Z</time>
      </trkpt>
      <trkpt lat="45.51251" lon="7.26573">
        <ele>3803.5</ele>
        <time>2021-11-07T12:35:59Z</time>
      </trkpt>
      <trkpt lat="45.51251" lon="7.26574">
        <ele>3803.7</ele>
        <time>2021-11-07T12:36:03Z</time>
      </trkpt>
      <trkpt lat="45.51251" lon="7.26574">
        <ele>3803.7</ele>
        <time>2021-11-07T12:36:05Z</time>
      </trkpt>
      <trkpt lat="45.5125" lon="7.26574">
        <ele>3803.8</ele>
        <time>2021-11-07T12:36:07Z</time>
      </trkpt>
      <trkpt lat="45.51251" lon="7.26575">
        <ele>3803.9</ele>
        <time>2021-11-07T12:36:18Z</time>
      </trkpt>
      <trkpt lat="45.51251" lon="7.26575">
        <ele>3803.9</ele>
        <time>2021-11-07T12:36:20Z</time>
      </trkpt>
      <trkpt lat="45.5125" lon="7.26578">
        <ele>3804.3</ele>
        <time>2021-11-07T12:36:24Z</time>
      </trkpt>
      <trkpt lat="45.51251" lon="7.26579">
        <ele>3804.6</ele>
        <time>2021-11-07T12:36:28Z</time>
      </trkpt>
      <trkpt lat="45.51251" lon="7.26581">
        <ele>3804.9</ele>
        <time>2021-11-07T12:36:31Z</time>
      </trkpt>
      <trkpt lat="45.5125" lon="7.26582">
        <ele>3805.1</ele>
        <time>2021-11-07T12:36:33Z</time>
      </trkpt>
      <trkpt lat="45.51249" lon="7.26583">
        <ele>3805.3</ele>
        <time>2021-11-07T12:36:35Z</time>
      </trkpt>
      <trkpt lat="45.51249" lon="7.26584">
        <ele>3805.3</ele>
        <time>2021-11-07T12:36:39Z</time>
      </trkpt>
      <trkpt lat="45.51249" lon="7.26584">
        <ele>3805.4</ele>
        <time>2021-11-07T12:36:41Z</time>
      </trkpt>
      <trkpt lat="45.5125" lon="7.26583">
        <ele>3805.5</ele>
        <time>2021-11-07T12:36:44Z</time>
      </trkpt>
      <trkpt lat="45.5125" lon="7.26585">
        <ele>3805.7</ele>
        <time>2021-11-07T12:36:53Z</time>
      </trkpt>
      <trkpt lat="45.51249" lon="7.26584">
        <ele>3805.9</ele>
        <time>2021-11-07T12:37:03Z</time>
      </trkpt>
      <trkpt lat="45.51249" lon="7.26585">
        <ele>3805.9</ele>
        <time>2021-11-07T12:37:05Z</time>
      </trkpt>
      <trkpt lat="45.51249" lon="7.26585">
        <ele>3805.9</ele>
        <time>2021-11-07T12:37:06Z</time>
      </trkpt>
      <trkpt lat="45.51249" lon="7.26585">
        <ele>3806</ele>
        <time>2021-11-07T12:37:15Z</time>
      </trkpt>
      <trkpt lat="45.51249" lon="7.26585">
        <ele>3806</ele>
        <time>2021-11-07T12:37:16Z</time>
      </trkpt>
      <trkpt lat="45.51249" lon="7.26586">
        <ele>3806.1</ele>
        <time>2021-11-07T12:37:19Z</time>
      </trkpt>
      <trkpt lat="45.51249" lon="7.26585">
        <ele>3806.1</ele>
        <time>2021-11-07T12:37:21Z</time>
      </trkpt>
      <trkpt lat="45.51249" lon="7.26585">
        <ele>3806.1</ele>
        <time>2021-11-07T12:37:22Z</time>
      </trkpt>
      <trkpt lat="45.51249" lon="7.26585">
        <ele>3806.1</ele>
        <time>2021-11-07T12:37:26Z</time>
      </trkpt>
      <trkpt lat="45.51249" lon="7.26585">
        <ele>3806.1</ele>
        <time>2021-11-07T12:37:27Z</time>
      </trkpt>
      <trkpt lat="45.51249" lon="7.26585">
        <ele>3806.2</ele>
        <time>2021-11-07T12:37:31Z</time>
      </trkpt>
      <trkpt lat="45.51249" lon="7.26585">
        <ele>3806.2</ele>
        <time>2021-11-07T12:37:33Z</time>
      </trkpt>
      <trkpt lat="45.51249" lon="7.26586">
        <ele>3806.3</ele>
        <time>2021-11-07T12:37:40Z</time>
      </trkpt>
      <trkpt lat="45.51247" lon="7.26594">
        <ele>3807.5</ele>
        <time>2021-11-07T12:37:47Z</time>
      </trkpt>
      <trkpt lat="45.51246" lon="7.26595">
        <ele>3807.9</ele>
        <time>2021-11-07T12:37:49Z</time>
      </trkpt>
      <trkpt lat="45.51246" lon="7.26596">
        <ele>3808</ele>
        <time>2021-11-07T12:37:50Z</time>
      </trkpt>
      <trkpt lat="45.51246" lon="7.26598">
        <ele>3808.3</ele>
        <time>2021-11-07T12:37:52Z</time>
      </trkpt>
      <trkpt lat="45.51246" lon="7.26605">
        <ele>3809.3</ele>
        <time>2021-11-07T12:37:58Z</time>
      </trkpt>
      <trkpt lat="45.51247" lon="7.26608">
        <ele>3809.7</ele>
        <time>2021-11-07T12:38:01Z</time>
      </trkpt>
      <trkpt lat="45.51247" lon="7.26613">
        <ele>3810.5</ele>
        <time>2021-11-07T12:38:12Z</time>
      </trkpt>
      <trkpt lat="45.51248" lon="7.26617">
        <ele>3811.1</ele>
        <time>2021-11-07T12:38:16Z</time>
      </trkpt>
      <trkpt lat="45.51248" lon="7.26621">
        <ele>3811.7</ele>
        <time>2021-11-07T12:38:20Z</time>
      </trkpt>
      <trkpt lat="45.51248" lon="7.26621">
        <ele>3811.8</ele>
        <time>2021-11-07T12:38:21Z</time>
      </trkpt>
      <trkpt lat="45.51248" lon="7.26622">
        <ele>3812</ele>
        <time>2021-11-07T12:38:22Z</time>
      </trkpt>
      <trkpt lat="45.51248" lon="7.26623">
        <ele>3812.1</ele>
        <time>2021-11-07T12:38:23Z</time>
      </trkpt>
      <trkpt lat="45.51249" lon="7.26625">
        <ele>3812.5</ele>
        <time>2021-11-07T12:38:25Z</time>
      </trkpt>
      <trkpt lat="45.5125" lon="7.26628">
        <ele>3812.9</ele>
        <time>2021-11-07T12:38:28Z</time>
      </trkpt>
      <trkpt lat="45.5125" lon="7.26629">
        <ele>3813.2</ele>
        <time>2021-11-07T12:38:30Z</time>
      </trkpt>
      <trkpt lat="45.5125" lon="7.26631">
        <ele>3813.5</ele>
        <time>2021-11-07T12:38:32Z</time>
      </trkpt>
      <trkpt lat="45.51251" lon="7.26638">
        <ele>3814.5</ele>
        <time>2021-11-07T12:38:38Z</time>
      </trkpt>
      <trkpt lat="45.51252" lon="7.26639">
        <ele>3814.7</ele>
        <time>2021-11-07T12:38:39Z</time>
      </trkpt>
      <trkpt lat="45.51253" lon="7.26642">
        <ele>3815.2</ele>
        <time>2021-11-07T12:38:42Z</time>
      </trkpt>
      <trkpt lat="45.51253" lon="7.26643">
        <ele>3815.3</ele>
        <time>2021-11-07T12:38:43Z</time>
      </trkpt>
      <trkpt lat="45.51255" lon="7.2665">
        <ele>3816.5</ele>
        <time>2021-11-07T12:38:52Z</time>
      </trkpt>
      <trkpt lat="45.51257" lon="7.26655">
        <ele>3817.4</ele>
        <time>2021-11-07T12:38:59Z</time>
      </trkpt>
      <trkpt lat="45.51257" lon="7.26658">
        <ele>3817.8</ele>
        <time>2021-11-07T12:39:02Z</time>
      </trkpt>
      <trkpt lat="45.51258" lon="7.2666">
        <ele>3818.2</ele>
        <time>2021-11-07T12:39:05Z</time>
      </trkpt>
      <trkpt lat="45.51259" lon="7.26666">
        <ele>3819.1</ele>
        <time>2021-11-07T12:39:14Z</time>
      </trkpt>
      <trkpt lat="45.51259" lon="7.26666">
        <ele>3819.2</ele>
        <time>2021-11-07T12:39:15Z</time>
      </trkpt>
      <trkpt lat="45.51259" lon="7.26667">
        <ele>3819.4</ele>
        <time>2021-11-07T12:39:17Z</time>
      </trkpt>
      <trkpt lat="45.5126" lon="7.26671">
        <ele>3819.9</ele>
        <time>2021-11-07T12:39:22Z</time>
      </trkpt>
      <trkpt lat="45.51262" lon="7.26674">
        <ele>3820.5</ele>
        <time>2021-11-07T12:39:27Z</time>
      </trkpt>
      <trkpt lat="45.51262" lon="7.26674">
        <ele>3820.7</ele>
        <time>2021-11-07T12:39:28Z</time>
      </trkpt>
      <trkpt lat="45.51263" lon="7.26675">
        <ele>3820.8</ele>
        <time>2021-11-07T12:39:29Z</time>
      </trkpt>
      <trkpt lat="45.51263" lon="7.26675">
        <ele>3820.9</ele>
        <time>2021-11-07T12:39:31Z</time>
      </trkpt>
      <trkpt lat="45.51263" lon="7.26676">
        <ele>3820.9</ele>
        <time>2021-11-07T12:39:32Z</time>
      </trkpt>
      <trkpt lat="45.51263" lon="7.26676">
        <ele>3821</ele>
        <time>2021-11-07T12:39:33Z</time>
      </trkpt>
      <trkpt lat="45.51264" lon="7.26678">
        <ele>3821.4</ele>
        <time>2021-11-07T12:39:38Z</time>
      </trkpt>
      <trkpt lat="45.51266" lon="7.26679">
        <ele>3821.9</ele>
        <time>2021-11-07T12:39:41Z</time>
      </trkpt>
      <trkpt lat="45.51266" lon="7.2668">
        <ele>3822</ele>
        <time>2021-11-07T12:39:42Z</time>
      </trkpt>
      <trkpt lat="45.51269" lon="7.26682">
        <ele>3822.7</ele>
        <time>2021-11-07T12:39:48Z</time>
      </trkpt>
      <trkpt lat="45.5127" lon="7.26682">
        <ele>3822.8</ele>
        <time>2021-11-07T12:39:49Z</time>
      </trkpt>
      <trkpt lat="45.51271" lon="7.26681">
        <ele>3823.1</ele>
        <time>2021-11-07T12:39:52Z</time>
      </trkpt>
      <trkpt lat="45.51273" lon="7.26681">
        <ele>3823.6</ele>
        <time>2021-11-07T12:39:59Z</time>
      </trkpt>
      <trkpt lat="45.51277" lon="7.2668">
        <ele>3824.3</ele>
        <time>2021-11-07T12:40:06Z</time>
      </trkpt>
      <trkpt lat="45.5128" lon="7.26681">
        <ele>3825</ele>
        <time>2021-11-07T12:40:14Z</time>
      </trkpt>
      <trkpt lat="45.51283" lon="7.26681">
        <ele>3825.8</ele>
        <time>2021-11-07T12:40:23Z</time>
      </trkpt>
      <trkpt lat="45.51285" lon="7.2668">
        <ele>3826.2</ele>
        <time>2021-11-07T12:40:27Z</time>
      </trkpt>
      <trkpt lat="45.51287" lon="7.2668">
        <ele>3826.6</ele>
        <time>2021-11-07T12:40:30Z</time>
      </trkpt>
      <trkpt lat="45.51287" lon="7.2668">
        <ele>3826.7</ele>
        <time>2021-11-07T12:40:31Z</time>
      </trkpt>
      <trkpt lat="45.51291" lon="7.26679">
        <ele>3827.4</ele>
        <time>2021-11-07T12:40:37Z</time>
      </trkpt>
      <trkpt lat="45.51292" lon="7.2668">
        <ele>3827.7</ele>
        <time>2021-11-07T12:40:41Z</time>
      </trkpt>
      <trkpt lat="45.51292" lon="7.2668">
        <ele>3827.8</ele>
        <time>2021-11-07T12:40:42Z</time>
      </trkpt>
      <trkpt lat="45.51294" lon="7.26678">
        <ele>3828.2</ele>
        <time>2021-11-07T12:40:49Z</time>
      </trkpt>
      <trkpt lat="45.51294" lon="7.26678">
        <ele>3828.3</ele>
        <time>2021-11-07T12:40:50Z</time>
      </trkpt>
      <trkpt lat="45.51295" lon="7.26677">
        <ele>3828.5</ele>
        <time>2021-11-07T12:40:53Z</time>
      </trkpt>
      <trkpt lat="45.51295" lon="7.26677">
        <ele>3828.5</ele>
        <time>2021-11-07T12:40:54Z</time>
      </trkpt>
      <trkpt lat="45.51295" lon="7.26677">
        <ele>3828.6</ele>
        <time>2021-11-07T12:40:56Z</time>
      </trkpt>
      <trkpt lat="45.51297" lon="7.26676">
        <ele>3828.8</ele>
        <time>2021-11-07T12:41:02Z</time>
      </trkpt>
      <trkpt lat="45.51297" lon="7.26676">
        <ele>3828.9</ele>
        <time>2021-11-07T12:41:04Z</time>
      </trkpt>
      <trkpt lat="45.51297" lon="7.26676">
        <ele>3829</ele>
        <time>2021-11-07T12:41:06Z</time>
      </trkpt>
      <trkpt lat="45.51298" lon="7.26676">
        <ele>3829.1</ele>
        <time>2021-11-07T12:41:08Z</time>
      </trkpt>
      <trkpt lat="45.51299" lon="7.26676">
        <ele>3829.3</ele>
        <time>2021-11-07T12:41:11Z</time>
      </trkpt>
      <trkpt lat="45.51299" lon="7.26675">
        <ele>3829.5</ele>
        <time>2021-11-07T12:41:13Z</time>
      </trkpt>
      <trkpt lat="45.51301" lon="7.26672">
        <ele>3830.1</ele>
        <time>2021-11-07T12:41:20Z</time>
      </trkpt>
      <trkpt lat="45.51302" lon="7.26671">
        <ele>3830.4</ele>
        <time>2021-11-07T12:41:23Z</time>
      </trkpt>
      <trkpt lat="45.51303" lon="7.2667">
        <ele>3830.6</ele>
        <time>2021-11-07T12:41:27Z</time>
      </trkpt>
      <trkpt lat="45.51304" lon="7.2667">
        <ele>3830.8</ele>
        <time>2021-11-07T12:41:33Z</time>
      </trkpt>
      <trkpt lat="45.51304" lon="7.2667">
        <ele>3830.9</ele>
        <time>2021-11-07T12:41:39Z</time>
      </trkpt>
      <trkpt lat="45.51304" lon="7.2667">
        <ele>3830.9</ele>
        <time>2021-11-07T12:41:43Z</time>
      </trkpt>
      <trkpt lat="45.51304" lon="7.2667">
        <ele>3831</ele>
        <time>2021-11-07T12:41:48Z</time>
      </trkpt>
      <trkpt lat="45.51306" lon="7.26669">
        <ele>3831.3</ele>
        <time>2021-11-07T12:41:52Z</time>
      </trkpt>
      <trkpt lat="45.51309" lon="7.26669">
        <ele>3831.9</ele>
        <time>2021-11-07T12:41:57Z</time>
      </trkpt>
      <trkpt lat="45.51309" lon="7.26669">
        <ele>3832.1</ele>
        <time>2021-11-07T12:41:59Z</time>
      </trkpt>
      <trkpt lat="45.51311" lon="7.2667">
        <ele>3832.4</ele>
        <time>2021-11-07T12:42:02Z</time>
      </trkpt>
      <trkpt lat="45.51312" lon="7.26672">
        <ele>3832.9</ele>
        <time>2021-11-07T12:42:06Z</time>
      </trkpt>
      <trkpt lat="45.51311" lon="7.26677">
        <ele>3833.6</ele>
        <time>2021-11-07T12:42:15Z</time>
      </trkpt>
      <trkpt lat="45.5131" lon="7.26677">
        <ele>3833.7</ele>
        <time>2021-11-07T12:42:17Z</time>
      </trkpt>
      <trkpt lat="45.5131" lon="7.26677">
        <ele>3833.7</ele>
        <time>2021-11-07T12:42:20Z</time>
      </trkpt>
      <trkpt lat="45.5131" lon="7.26677">
        <ele>3833.7</ele>
        <time>2021-11-07T12:42:28Z</time>
      </trkpt>
      <trkpt lat="45.5131" lon="7.26677">
        <ele>3833.7</ele>
        <time>2021-11-07T12:42:30Z</time>
      </trkpt>
      <trkpt lat="45.5131" lon="7.26677">
        <ele>3833.7</ele>
        <time>2021-11-07T12:42:31Z</time>
      </trkpt>
      <trkpt lat="45.5131" lon="7.26677">
        <ele>3833.8</ele>
        <time>2021-11-07T12:42:34Z</time>
      </trkpt>
      <trkpt lat="45.5131" lon="7.26679">
        <ele>3834.1</ele>
        <time>2021-11-07T12:42:39Z</time>
      </trkpt>
      <trkpt lat="45.5131" lon="7.26681">
        <ele>3834.3</ele>
        <time>2021-11-07T12:42:42Z</time>
      </trkpt>
      <trkpt lat="45.5131" lon="7.26683">
        <ele>3834.6</ele>
        <time>2021-11-07T12:42:46Z</time>
      </trkpt>
      <trkpt lat="45.5131" lon="7.26683">
        <ele>3834.6</ele>
        <time>2021-11-07T12:42:47Z</time>
      </trkpt>
      <trkpt lat="45.5131" lon="7.26683">
        <ele>3834.5</ele>
        <time>2021-11-07T12:42:48Z</time>
      </trkpt>
      <trkpt lat="45.5131" lon="7.26684">
        <ele>3834.5</ele>
        <time>2021-11-07T12:42:49Z</time>
      </trkpt>
      <trkpt lat="45.5131" lon="7.26686">
        <ele>3835.5</ele>
        <time>2021-11-07T12:42:55Z</time>
      </trkpt>
      <trkpt lat="45.5131" lon="7.26688">
        <ele>3835.5</ele>
        <time>2021-11-07T12:43:01Z</time>
      </trkpt>
      <trkpt lat="45.5131" lon="7.26689">
        <ele>3835.5</ele>
        <time>2021-11-07T12:43:04Z</time>
      </trkpt>
      <trkpt lat="45.5131" lon="7.2669">
        <ele>3836.5</ele>
        <time>2021-11-07T12:43:09Z</time>
      </trkpt>
      <trkpt lat="45.5131" lon="7.26693">
        <ele>3836.5</ele>
        <time>2021-11-07T12:43:16Z</time>
      </trkpt>
      <trkpt lat="45.5131" lon="7.26695">
        <ele>3837.5</ele>
        <time>2021-11-07T12:43:23Z</time>
      </trkpt>
      <trkpt lat="45.5131" lon="7.26698">
        <ele>3837.5</ele>
        <time>2021-11-07T12:43:32Z</time>
      </trkpt>
      <trkpt lat="45.51309" lon="7.26699">
        <ele>3838.5</ele>
        <time>2021-11-07T12:43:33Z</time>
      </trkpt>
      <trkpt lat="45.51309" lon="7.26699">
        <ele>3838.5</ele>
        <time>2021-11-07T12:43:35Z</time>
      </trkpt>
      <trkpt lat="45.51309" lon="7.267">
        <ele>3838.5</ele>
        <time>2021-11-07T12:43:37Z</time>
      </trkpt>
      <trkpt lat="45.51309" lon="7.26701">
        <ele>3838.4</ele>
        <time>2021-11-07T12:43:39Z</time>
      </trkpt>
      <trkpt lat="45.51309" lon="7.26702">
        <ele>3838.4</ele>
        <time>2021-11-07T12:43:41Z</time>
      </trkpt>
      <trkpt lat="45.51309" lon="7.26703">
        <ele>3839.3</ele>
        <time>2021-11-07T12:43:44Z</time>
      </trkpt>
      <trkpt lat="45.51309" lon="7.26704">
        <ele>3839.3</ele>
        <time>2021-11-07T12:43:46Z</time>
      </trkpt>
      <trkpt lat="45.51308" lon="7.26705">
        <ele>3837.4</ele>
        <time>2021-11-07T12:43:48Z</time>
      </trkpt>
      <trkpt lat="45.51308" lon="7.26705">
        <ele>3837.4</ele>
        <time>2021-11-07T12:43:50Z</time>
      </trkpt>
      <trkpt lat="45.51308" lon="7.26708">
        <ele>3838.2</ele>
        <time>2021-11-07T12:43:55Z</time>
      </trkpt>
      <trkpt lat="45.51308" lon="7.26709">
        <ele>3838.1</ele>
        <time>2021-11-07T12:43:59Z</time>
      </trkpt>
      <trkpt lat="45.51308" lon="7.2671">
        <ele>3838.1</ele>
        <time>2021-11-07T12:44:01Z</time>
      </trkpt>
      <trkpt lat="45.51308" lon="7.26711">
        <ele>3838.1</ele>
        <time>2021-11-07T12:44:02Z</time>
      </trkpt>
      <trkpt lat="45.51307" lon="7.26712">
        <ele>3838.9</ele>
        <time>2021-11-07T12:44:06Z</time>
      </trkpt>
      <trkpt lat="45.51307" lon="7.26713">
        <ele>3838.8</ele>
        <time>2021-11-07T12:44:09Z</time>
      </trkpt>
      <trkpt lat="45.51307" lon="7.26713">
        <ele>3838.8</ele>
        <time>2021-11-07T12:44:12Z</time>
      </trkpt>
      <trkpt lat="45.51307" lon="7.26713">
        <ele>3838.8</ele>
        <time>2021-11-07T12:44:14Z</time>
      </trkpt>
      <trkpt lat="45.51307" lon="7.26714">
        <ele>3838.7</ele>
        <time>2021-11-07T12:44:18Z</time>
      </trkpt>
      <trkpt lat="45.51307" lon="7.26715">
        <ele>3838.7</ele>
        <time>2021-11-07T12:44:21Z</time>
      </trkpt>
      <trkpt lat="45.51307" lon="7.26715">
        <ele>3838.7</ele>
        <time>2021-11-07T12:44:25Z</time>
      </trkpt>
      <trkpt lat="45.51307" lon="7.26716">
        <ele>3839.4</ele>
        <time>2021-11-07T12:44:26Z</time>
      </trkpt>
      <trkpt lat="45.51307" lon="7.26716">
        <ele>3839.4</ele>
        <time>2021-11-07T12:44:28Z</time>
      </trkpt>
      <trkpt lat="45.51307" lon="7.26717">
        <ele>3839.4</ele>
        <time>2021-11-07T12:44:33Z</time>
      </trkpt>
      <trkpt lat="45.51306" lon="7.26718">
        <ele>3839.3</ele>
        <time>2021-11-07T12:44:36Z</time>
      </trkpt>
      <trkpt lat="45.51306" lon="7.26718">
        <ele>3839.3</ele>
        <time>2021-11-07T12:44:41Z</time>
      </trkpt>
      <trkpt lat="45.51306" lon="7.26719">
        <ele>3839.3</ele>
        <time>2021-11-07T12:44:44Z</time>
      </trkpt>
      <trkpt lat="45.51306" lon="7.26719">
        <ele>3839.2</ele>
        <time>2021-11-07T12:44:47Z</time>
      </trkpt>
      <trkpt lat="45.51306" lon="7.26719">
        <ele>3839.2</ele>
        <time>2021-11-07T12:44:48Z</time>
      </trkpt>
      <trkpt lat="45.51306" lon="7.26721">
        <ele>3840</ele>
        <time>2021-11-07T12:44:53Z</time>
      </trkpt>
      <trkpt lat="45.51306" lon="7.26723">
        <ele>3840</ele>
        <time>2021-11-07T12:44:58Z</time>
      </trkpt>
      <trkpt lat="45.51306" lon="7.26723">
        <ele>3839.9</ele>
        <time>2021-11-07T12:44:59Z</time>
      </trkpt>
      <trkpt lat="45.51306" lon="7.26723">
        <ele>3839.9</ele>
        <time>2021-11-07T12:45:00Z</time>
      </trkpt>
      <trkpt lat="45.51305" lon="7.26724">
        <ele>3839.9</ele>
        <time>2021-11-07T12:45:02Z</time>
      </trkpt>
      <trkpt lat="45.51306" lon="7.26724">
        <ele>3840.7</ele>
        <time>2021-11-07T12:45:04Z</time>
      </trkpt>
      <trkpt lat="45.51306" lon="7.26724">
        <ele>3840.7</ele>
        <time>2021-11-07T12:45:05Z</time>
      </trkpt>
      <trkpt lat="45.51305" lon="7.26724">
        <ele>3840.6</ele>
        <time>2021-11-07T12:45:08Z</time>
      </trkpt>
      <trkpt lat="45.51305" lon="7.26724">
        <ele>3840.6</ele>
        <time>2021-11-07T12:45:09Z</time>
      </trkpt>
      <trkpt lat="45.51305" lon="7.26725">
        <ele>3840.6</ele>
        <time>2021-11-07T12:45:14Z</time>
      </trkpt>
      <trkpt lat="45.51306" lon="7.26726">
        <ele>3840.5</ele>
        <time>2021-11-07T12:45:18Z</time>
      </trkpt>
      <trkpt lat="45.51306" lon="7.26726">
        <ele>3840.5</ele>
        <time>2021-11-07T12:45:19Z</time>
      </trkpt>
      <trkpt lat="45.51306" lon="7.26727">
        <ele>3840.4</ele>
        <time>2021-11-07T12:45:20Z</time>
      </trkpt>
      <trkpt lat="45.51306" lon="7.2673">
        <ele>3841.3</ele>
        <time>2021-11-07T12:45:31Z</time>
      </trkpt>
      <trkpt lat="45.51306" lon="7.2673">
        <ele>3841.3</ele>
        <time>2021-11-07T12:45:35Z</time>
      </trkpt>
      <trkpt lat="45.51306" lon="7.26733">
        <ele>3841.2</ele>
        <time>2021-11-07T12:45:40Z</time>
      </trkpt>
      <trkpt lat="45.51306" lon="7.26734">
        <ele>3842.2</ele>
        <time>2021-11-07T12:45:45Z</time>
      </trkpt>
      <trkpt lat="45.51307" lon="7.26734">
        <ele>3842.1</ele>
        <time>2021-11-07T12:45:47Z</time>
      </trkpt>
      <trkpt lat="45.51307" lon="7.26735">
        <ele>3842.1</ele>
        <time>2021-11-07T12:45:54Z</time>
      </trkpt>
      <trkpt lat="45.51307" lon="7.26735">
        <ele>3842</ele>
        <time>2021-11-07T12:45:55Z</time>
      </trkpt>
      <trkpt lat="45.51307" lon="7.26735">
        <ele>3842</ele>
        <time>2021-11-07T12:45:56Z</time>
      </trkpt>
      <trkpt lat="45.51307" lon="7.26735">
        <ele>3842</ele>
        <time>2021-11-07T12:46:09Z</time>
      </trkpt>
      <trkpt lat="45.51307" lon="7.26735">
        <ele>3841.9</ele>
        <time>2021-11-07T12:46:12Z</time>
      </trkpt>
      <trkpt lat="45.51307" lon="7.26734">
        <ele>3841.9</ele>
        <time>2021-11-07T12:46:13Z</time>
      </trkpt>
      <trkpt lat="45.51307" lon="7.26734">
        <ele>3841.9</ele>
        <time>2021-11-07T12:46:14Z</time>
      </trkpt>
      <trkpt lat="45.51307" lon="7.26734">
        <ele>3841.8</ele>
        <time>2021-11-07T12:46:16Z</time>
      </trkpt>
      <trkpt lat="45.51308" lon="7.26735">
        <ele>3841.8</ele>
        <time>2021-11-07T12:46:25Z</time>
      </trkpt>
      <trkpt lat="45.51309" lon="7.26735">
        <ele>3844</ele>
        <time>2021-11-07T12:46:29Z</time>
      </trkpt>
      <trkpt lat="45.51308" lon="7.26735">
        <ele>3844</ele>
        <time>2021-11-07T12:46:36Z</time>
      </trkpt>
      <trkpt lat="45.51309" lon="7.26735">
        <ele>3844</ele>
        <time>2021-11-07T12:46:38Z</time>
      </trkpt>
      <trkpt lat="45.51309" lon="7.26734">
        <ele>3843.9</ele>
        <time>2021-11-07T12:46:43Z</time>
      </trkpt>
      <trkpt lat="45.51309" lon="7.26734">
        <ele>3843.9</ele>
        <time>2021-11-07T12:46:46Z</time>
      </trkpt>
      <trkpt lat="45.51309" lon="7.26734">
        <ele>3843.9</ele>
        <time>2021-11-07T12:46:48Z</time>
      </trkpt>
      <trkpt lat="45.51309" lon="7.26734">
        <ele>3843.8</ele>
        <time>2021-11-07T12:46:54Z</time>
      </trkpt>
      <trkpt lat="45.51309" lon="7.26734">
        <ele>3843.8</ele>
        <time>2021-11-07T12:46:59Z</time>
      </trkpt>
      <trkpt lat="45.51309" lon="7.26734">
        <ele>3843.8</ele>
        <time>2021-11-07T12:47:03Z</time>
      </trkpt>
      <trkpt lat="45.51309" lon="7.26734">
        <ele>3843.7</ele>
        <time>2021-11-07T12:47:07Z</time>
      </trkpt>
      <trkpt lat="45.51309" lon="7.26734">
        <ele>3843.7</ele>
        <time>2021-11-07T12:47:10Z</time>
      </trkpt>
      <trkpt lat="45.51309" lon="7.26734">
        <ele>3843.6</ele>
        <time>2021-11-07T12:47:13Z</time>
      </trkpt>
      <trkpt lat="45.51309" lon="7.26734">
        <ele>3843.6</ele>
        <time>2021-11-07T12:47:16Z</time>
      </trkpt>
      <trkpt lat="45.51309" lon="7.26734">
        <ele>3843.6</ele>
        <time>2021-11-07T12:47:17Z</time>
      </trkpt>
      <trkpt lat="45.51309" lon="7.26734">
        <ele>3843.5</ele>
        <time>2021-11-07T12:47:20Z</time>
      </trkpt>
      <trkpt lat="45.5131" lon="7.26734">
        <ele>3843.5</ele>
        <time>2021-11-07T12:47:24Z</time>
      </trkpt>
      <trkpt lat="45.5131" lon="7.26734">
        <ele>3843.5</ele>
        <time>2021-11-07T12:47:27Z</time>
      </trkpt>
      <trkpt lat="45.5131" lon="7.26734">
        <ele>3843.4</ele>
        <time>2021-11-07T12:47:28Z</time>
      </trkpt>
      <trkpt lat="45.5131" lon="7.26734">
        <ele>3843.4</ele>
        <time>2021-11-07T12:47:33Z</time>
      </trkpt>
      <trkpt lat="45.5131" lon="7.26734">
        <ele>3843.4</ele>
        <time>2021-11-07T12:47:35Z</time>
      </trkpt>
      <trkpt lat="45.5131" lon="7.26734">
        <ele>3843.3</ele>
        <time>2021-11-07T12:47:38Z</time>
      </trkpt>
      <trkpt lat="45.5131" lon="7.26734">
        <ele>3843.3</ele>
        <time>2021-11-07T12:47:42Z</time>
      </trkpt>
      <trkpt lat="45.51311" lon="7.26734">
        <ele>3843.3</ele>
        <time>2021-11-07T12:47:59Z</time>
      </trkpt>
      <trkpt lat="45.51311" lon="7.26734">
        <ele>3843.2</ele>
        <time>2021-11-07T12:48:03Z</time>
      </trkpt>
      <trkpt lat="45.51311" lon="7.26734">
        <ele>3843.2</ele>
        <time>2021-11-07T12:48:07Z</time>
      </trkpt>
      <trkpt lat="45.51311" lon="7.26734">
        <ele>3843.1</ele>
        <time>2021-11-07T12:48:08Z</time>
      </trkpt>
      <trkpt lat="45.51311" lon="7.26734">
        <ele>3843.1</ele>
        <time>2021-11-07T12:48:09Z</time>
      </trkpt>
      <trkpt lat="45.51311" lon="7.26733">
        <ele>3843.1</ele>
        <time>2021-11-07T12:48:14Z</time>
      </trkpt>
      <trkpt lat="45.51313" lon="7.26733">
        <ele>3845.2</ele>
        <time>2021-11-07T12:48:19Z</time>
      </trkpt>
      <trkpt lat="45.51313" lon="7.26733">
        <ele>3845.2</ele>
        <time>2021-11-07T12:48:20Z</time>
      </trkpt>
      <trkpt lat="45.51313" lon="7.26733">
        <ele>3845.2</ele>
        <time>2021-11-07T12:48:21Z</time>
      </trkpt>
      <trkpt lat="45.51314" lon="7.26733">
        <ele>3845.1</ele>
        <time>2021-11-07T12:48:22Z</time>
      </trkpt>
      <trkpt lat="45.51314" lon="7.26733">
        <ele>3845.1</ele>
        <time>2021-11-07T12:48:24Z</time>
      </trkpt>
      <trkpt lat="45.51315" lon="7.26733">
        <ele>3847.1</ele>
        <time>2021-11-07T12:48:26Z</time>
      </trkpt>
      <trkpt lat="45.51316" lon="7.26733">
        <ele>3847</ele>
        <time>2021-11-07T12:48:28Z</time>
      </trkpt>
      <trkpt lat="45.51316" lon="7.26733">
        <ele>3847</ele>
        <time>2021-11-07T12:48:31Z</time>
      </trkpt>
      <trkpt lat="45.51317" lon="7.26733">
        <ele>3847</ele>
        <time>2021-11-07T12:48:34Z</time>
      </trkpt>
      <trkpt lat="45.51317" lon="7.26733">
        <ele>3846.9</ele>
        <time>2021-11-07T12:48:36Z</time>
      </trkpt>
      <trkpt lat="45.51318" lon="7.26733">
        <ele>3848.7</ele>
        <time>2021-11-07T12:48:42Z</time>
      </trkpt>
      <trkpt lat="45.51318" lon="7.26733">
        <ele>3848.7</ele>
        <time>2021-11-07T12:48:48Z</time>
      </trkpt>
      <trkpt lat="45.51319" lon="7.26733">
        <ele>3848.6</ele>
        <time>2021-11-07T12:48:53Z</time>
      </trkpt>
      <trkpt lat="45.51319" lon="7.26733">
        <ele>3848.6</ele>
        <time>2021-11-07T12:48:55Z</time>
      </trkpt>
      <trkpt lat="45.5132" lon="7.26733">
        <ele>3848.6</ele>
        <time>2021-11-07T12:48:58Z</time>
      </trkpt>
      <trkpt lat="45.5132" lon="7.26733">
        <ele>3848.5</ele>
        <time>2021-11-07T12:49:01Z</time>
      </trkpt>
      <trkpt lat="45.51321" lon="7.26734">
        <ele>3850.2</ele>
        <time>2021-11-07T12:49:04Z</time>
      </trkpt>
      <trkpt lat="45.51322" lon="7.26734">
        <ele>3850.1</ele>
        <time>2021-11-07T12:49:07Z</time>
      </trkpt>
      <trkpt lat="45.51322" lon="7.26734">
        <ele>3850.1</ele>
        <time>2021-11-07T12:49:09Z</time>
      </trkpt>
      <trkpt lat="45.51323" lon="7.26734">
        <ele>3850.1</ele>
        <time>2021-11-07T12:49:13Z</time>
      </trkpt>
      <trkpt lat="45.51323" lon="7.26733">
        <ele>3850</ele>
        <time>2021-11-07T12:49:14Z</time>
      </trkpt>
      <trkpt lat="45.51323" lon="7.26734">
        <ele>3850</ele>
        <time>2021-11-07T12:49:17Z</time>
      </trkpt>
      <trkpt lat="45.51324" lon="7.26734">
        <ele>3851.6</ele>
        <time>2021-11-07T12:49:21Z</time>
      </trkpt>
      <trkpt lat="45.51325" lon="7.26735">
        <ele>3851.6</ele>
        <time>2021-11-07T12:49:26Z</time>
      </trkpt>
      <trkpt lat="45.51327" lon="7.26735">
        <ele>3853.2</ele>
        <time>2021-11-07T12:49:36Z</time>
      </trkpt>
      <trkpt lat="45.51328" lon="7.26736">
        <ele>3853.2</ele>
        <time>2021-11-07T12:49:44Z</time>
      </trkpt>
      <trkpt lat="45.51329" lon="7.26736">
        <ele>3853.2</ele>
        <time>2021-11-07T12:49:45Z</time>
      </trkpt>
      <trkpt lat="45.5133" lon="7.26737">
        <ele>3856.2</ele>
        <time>2021-11-07T12:49:49Z</time>
      </trkpt>
      <trkpt lat="45.51331" lon="7.26738">
        <ele>3856.2</ele>
        <time>2021-11-07T12:49:52Z</time>
      </trkpt>
      <trkpt lat="45.51331" lon="7.26738">
        <ele>3856.2</ele>
        <time>2021-11-07T12:49:53Z</time>
      </trkpt>
      <trkpt lat="45.51331" lon="7.26739">
        <ele>3856.1</ele>
        <time>2021-11-07T12:49:54Z</time>
      </trkpt>
      <trkpt lat="45.51331" lon="7.26739">
        <ele>3856.1</ele>
        <time>2021-11-07T12:49:59Z</time>
      </trkpt>
      <trkpt lat="45.51331" lon="7.26739">
        <ele>3856</ele>
        <time>2021-11-07T12:50:00Z</time>
      </trkpt>
      <trkpt lat="45.51331" lon="7.2674">
        <ele>3856</ele>
        <time>2021-11-07T12:50:05Z</time>
      </trkpt>
      <trkpt lat="45.5133" lon="7.26741">
        <ele>3856</ele>
        <time>2021-11-07T12:50:07Z</time>
      </trkpt>
      <trkpt lat="45.5133" lon="7.26742">
        <ele>3857.2</ele>
        <time>2021-11-07T12:50:08Z</time>
      </trkpt>
      <trkpt lat="45.5133" lon="7.26742">
        <ele>3857.2</ele>
        <time>2021-11-07T12:50:09Z</time>
      </trkpt>
      <trkpt lat="45.5133" lon="7.26744">
        <ele>3857.2</ele>
        <time>2021-11-07T12:50:13Z</time>
      </trkpt>
      <trkpt lat="45.5133" lon="7.26745">
        <ele>3857.1</ele>
        <time>2021-11-07T12:50:16Z</time>
      </trkpt>
      <trkpt lat="45.5133" lon="7.26745">
        <ele>3857.1</ele>
        <time>2021-11-07T12:50:18Z</time>
      </trkpt>
      <trkpt lat="45.5133" lon="7.26746">
        <ele>3857.1</ele>
        <time>2021-11-07T12:50:19Z</time>
      </trkpt>
      <trkpt lat="45.5133" lon="7.26746">
        <ele>3857</ele>
        <time>2021-11-07T12:50:20Z</time>
      </trkpt>
      <trkpt lat="45.5133" lon="7.26747">
        <ele>3858.3</ele>
        <time>2021-11-07T12:50:25Z</time>
      </trkpt>
      <trkpt lat="45.5133" lon="7.26748">
        <ele>3858.3</ele>
        <time>2021-11-07T12:50:28Z</time>
      </trkpt>
      <trkpt lat="45.5133" lon="7.26748">
        <ele>3858.2</ele>
        <time>2021-11-07T12:50:29Z</time>
      </trkpt>
      <trkpt lat="45.5133" lon="7.26749">
        <ele>3858.2</ele>
        <time>2021-11-07T12:50:31Z</time>
      </trkpt>
      <trkpt lat="45.5133" lon="7.26749">
        <ele>3858.2</ele>
        <time>2021-11-07T12:50:33Z</time>
      </trkpt>
      <trkpt lat="45.51331" lon="7.2675">
        <ele>3858.1</ele>
        <time>2021-11-07T12:50:36Z</time>
      </trkpt>
      <trkpt lat="45.51331" lon="7.2675">
        <ele>3858.1</ele>
        <time>2021-11-07T12:50:39Z</time>
      </trkpt>
      <trkpt lat="45.51331" lon="7.26751">
        <ele>3859.3</ele>
        <time>2021-11-07T12:50:44Z</time>
      </trkpt>
      <trkpt lat="45.51331" lon="7.26752">
        <ele>3859.3</ele>
        <time>2021-11-07T12:50:45Z</time>
      </trkpt>
      <trkpt lat="45.51331" lon="7.26752">
        <ele>3859.2</ele>
        <time>2021-11-07T12:50:48Z</time>
      </trkpt>
      <trkpt lat="45.51331" lon="7.26753">
        <ele>3859.2</ele>
        <time>2021-11-07T12:50:51Z</time>
      </trkpt>
      <trkpt lat="45.51332" lon="7.26755">
        <ele>3860.4</ele>
        <time>2021-11-07T12:50:56Z</time>
      </trkpt>
      <trkpt lat="45.51332" lon="7.26757">
        <ele>3860.4</ele>
        <time>2021-11-07T12:51:01Z</time>
      </trkpt>
      <trkpt lat="45.51333" lon="7.26758">
        <ele>3862.3</ele>
        <time>2021-11-07T12:51:08Z</time>
      </trkpt>
      <trkpt lat="45.51333" lon="7.26759">
        <ele>3863.5</ele>
        <time>2021-11-07T12:51:13Z</time>
      </trkpt>
      <trkpt lat="45.51333" lon="7.2676">
        <ele>3863.5</ele>
        <time>2021-11-07T12:51:15Z</time>
      </trkpt>
      <trkpt lat="45.51333" lon="7.2676">
        <ele>3863.4</ele>
        <time>2021-11-07T12:51:17Z</time>
      </trkpt>
      <trkpt lat="45.51334" lon="7.26761">
        <ele>3863.4</ele>
        <time>2021-11-07T12:51:20Z</time>
      </trkpt>
      <trkpt lat="45.51334" lon="7.26761">
        <ele>3863.4</ele>
        <time>2021-11-07T12:51:22Z</time>
      </trkpt>
      <trkpt lat="45.51334" lon="7.26762">
        <ele>3863.3</ele>
        <time>2021-11-07T12:51:23Z</time>
      </trkpt>
      <trkpt lat="45.51335" lon="7.26762">
        <ele>3863.3</ele>
        <time>2021-11-07T12:51:26Z</time>
      </trkpt>
      <trkpt lat="45.51335" lon="7.26762">
        <ele>3863.3</ele>
        <time>2021-11-07T12:51:30Z</time>
      </trkpt>
      <trkpt lat="45.51335" lon="7.26763">
        <ele>3863.2</ele>
        <time>2021-11-07T12:51:34Z</time>
      </trkpt>
      <trkpt lat="45.51336" lon="7.26763">
        <ele>3866.4</ele>
        <time>2021-11-07T12:51:39Z</time>
      </trkpt>
      <trkpt lat="45.51336" lon="7.26764">
        <ele>3866.3</ele>
        <time>2021-11-07T12:51:42Z</time>
      </trkpt>
      <trkpt lat="45.51336" lon="7.26764">
        <ele>3866.3</ele>
        <time>2021-11-07T12:51:45Z</time>
      </trkpt>
      <trkpt lat="45.51336" lon="7.26765">
        <ele>3866.3</ele>
        <time>2021-11-07T12:51:46Z</time>
      </trkpt>
      <trkpt lat="45.51337" lon="7.26765">
        <ele>3866.2</ele>
        <time>2021-11-07T12:51:50Z</time>
      </trkpt>
      <trkpt lat="45.51337" lon="7.26766">
        <ele>3866.2</ele>
        <time>2021-11-07T12:51:52Z</time>
      </trkpt>
      <trkpt lat="45.51337" lon="7.26766">
        <ele>3866.2</ele>
        <time>2021-11-07T12:51:56Z</time>
      </trkpt>
      <trkpt lat="45.51337" lon="7.26766">
        <ele>3866.1</ele>
        <time>2021-11-07T12:52:01Z</time>
      </trkpt>
      <trkpt lat="45.51337" lon="7.26767">
        <ele>3866.1</ele>
        <time>2021-11-07T12:52:03Z</time>
      </trkpt>
      <trkpt lat="45.51338" lon="7.26768">
        <ele>3867.3</ele>
        <time>2021-11-07T12:52:06Z</time>
      </trkpt>
      <trkpt lat="45.51338" lon="7.26769">
        <ele>3867.3</ele>
        <time>2021-11-07T12:52:09Z</time>
      </trkpt>
      <trkpt lat="45.51339" lon="7.26771">
        <ele>3869</ele>
        <time>2021-11-07T12:52:14Z</time>
      </trkpt>
      <trkpt lat="45.51339" lon="7.26771">
        <ele>3869</ele>
        <time>2021-11-07T12:52:15Z</time>
      </trkpt>
      <trkpt lat="45.5134" lon="7.26772">
        <ele>3870.3</ele>
        <time>2021-11-07T12:52:22Z</time>
      </trkpt>
      <trkpt lat="45.5134" lon="7.26773">
        <ele>3870.3</ele>
        <time>2021-11-07T12:52:26Z</time>
      </trkpt>
      <trkpt lat="45.5134" lon="7.26774">
        <ele>3870.3</ele>
        <time>2021-11-07T12:52:33Z</time>
      </trkpt>
      <trkpt lat="45.5134" lon="7.26775">
        <ele>3870.2</ele>
        <time>2021-11-07T12:52:36Z</time>
      </trkpt>
      <trkpt lat="45.5134" lon="7.26775">
        <ele>3870.2</ele>
        <time>2021-11-07T12:52:39Z</time>
      </trkpt>
      <trkpt lat="45.51341" lon="7.26775">
        <ele>3870.2</ele>
        <time>2021-11-07T12:52:41Z</time>
      </trkpt>
      <trkpt lat="45.51343" lon="7.26776">
        <ele>3873.1</ele>
        <time>2021-11-07T12:52:47Z</time>
      </trkpt>
      <trkpt lat="45.51344" lon="7.26776">
        <ele>3873.1</ele>
        <time>2021-11-07T12:52:51Z</time>
      </trkpt>
      <trkpt lat="45.51343" lon="7.26776">
        <ele>3873.1</ele>
        <time>2021-11-07T12:52:55Z</time>
      </trkpt>
      <trkpt lat="45.51345" lon="7.26778">
        <ele>3874.4</ele>
        <time>2021-11-07T12:52:58Z</time>
      </trkpt>
      <trkpt lat="45.51345" lon="7.26779">
        <ele>3874.4</ele>
        <time>2021-11-07T12:53:01Z</time>
      </trkpt>
      <trkpt lat="45.51345" lon="7.2678">
        <ele>3874.3</ele>
        <time>2021-11-07T12:53:03Z</time>
      </trkpt>
      <trkpt lat="45.51345" lon="7.26781">
        <ele>3875.8</ele>
        <time>2021-11-07T12:53:04Z</time>
      </trkpt>
      <trkpt lat="45.51345" lon="7.26781">
        <ele>3875.7</ele>
        <time>2021-11-07T12:53:05Z</time>
      </trkpt>
      <trkpt lat="45.51346" lon="7.26782">
        <ele>3875.7</ele>
        <time>2021-11-07T12:53:09Z</time>
      </trkpt>
      <trkpt lat="45.51346" lon="7.26783">
        <ele>3875.7</ele>
        <time>2021-11-07T12:53:10Z</time>
      </trkpt>
      <trkpt lat="45.51346" lon="7.26784">
        <ele>3875.6</ele>
        <time>2021-11-07T12:53:11Z</time>
      </trkpt>
      <trkpt lat="45.51347" lon="7.26784">
        <ele>3875.6</ele>
        <time>2021-11-07T12:53:12Z</time>
      </trkpt>
      <trkpt lat="45.51347" lon="7.26785">
        <ele>3877</ele>
        <time>2021-11-07T12:53:13Z</time>
      </trkpt>
      <trkpt lat="45.51347" lon="7.26786">
        <ele>3877</ele>
        <time>2021-11-07T12:53:15Z</time>
      </trkpt>
      <trkpt lat="45.51348" lon="7.26787">
        <ele>3878.2</ele>
        <time>2021-11-07T12:53:17Z</time>
      </trkpt>
      <trkpt lat="45.51348" lon="7.26787">
        <ele>3878.2</ele>
        <time>2021-11-07T12:53:18Z</time>
      </trkpt>
      <trkpt lat="45.51348" lon="7.26787">
        <ele>3878.1</ele>
        <time>2021-11-07T12:53:20Z</time>
      </trkpt>
      <trkpt lat="45.51348" lon="7.26788">
        <ele>3878.1</ele>
        <time>2021-11-07T12:53:23Z</time>
      </trkpt>
      <trkpt lat="45.51348" lon="7.26788">
        <ele>3878.1</ele>
        <time>2021-11-07T12:53:24Z</time>
      </trkpt>
      <trkpt lat="45.51347" lon="7.2679">
        <ele>3878.1</ele>
        <time>2021-11-07T12:53:27Z</time>
      </trkpt>
      <trkpt lat="45.51348" lon="7.26792">
        <ele>3879.4</ele>
        <time>2021-11-07T12:53:31Z</time>
      </trkpt>
      <trkpt lat="45.51348" lon="7.26793">
        <ele>3879.3</ele>
        <time>2021-11-07T12:53:33Z</time>
      </trkpt>
      <trkpt lat="45.51348" lon="7.26793">
        <ele>3880.6</ele>
        <time>2021-11-07T12:53:38Z</time>
      </trkpt>
      <trkpt lat="45.51348" lon="7.26795">
        <ele>3880.6</ele>
        <time>2021-11-07T12:53:44Z</time>
      </trkpt>
      <trkpt lat="45.51348" lon="7.26796">
        <ele>3880.5</ele>
        <time>2021-11-07T12:53:47Z</time>
      </trkpt>
      <trkpt lat="45.51348" lon="7.26796">
        <ele>3880.5</ele>
        <time>2021-11-07T12:53:48Z</time>
      </trkpt>
      <trkpt lat="45.51349" lon="7.26797">
        <ele>3880.4</ele>
        <time>2021-11-07T12:53:52Z</time>
      </trkpt>
      <trkpt lat="45.5135" lon="7.26797">
        <ele>3881.6</ele>
        <time>2021-11-07T12:53:58Z</time>
      </trkpt>
      <trkpt lat="45.5135" lon="7.26797">
        <ele>3880.4</ele>
        <time>2021-11-07T12:53:59Z</time>
      </trkpt>
      <trkpt lat="45.5135" lon="7.26797">
        <ele>3880.3</ele>
        <time>2021-11-07T12:54:03Z</time>
      </trkpt>
      <trkpt lat="45.5135" lon="7.26797">
        <ele>3880.3</ele>
        <time>2021-11-07T12:54:07Z</time>
      </trkpt>
      <trkpt lat="45.5135" lon="7.26797">
        <ele>3880.3</ele>
        <time>2021-11-07T12:54:10Z</time>
      </trkpt>
      <trkpt lat="45.5135" lon="7.26797">
        <ele>3880.2</ele>
        <time>2021-11-07T12:54:11Z</time>
      </trkpt>
      <trkpt lat="45.5135" lon="7.26797">
        <ele>3881.4</ele>
        <time>2021-11-07T12:54:14Z</time>
      </trkpt>
      <trkpt lat="45.5135" lon="7.26797">
        <ele>3880.2</ele>
        <time>2021-11-07T12:54:17Z</time>
      </trkpt>
      <trkpt lat="45.5135" lon="7.26797">
        <ele>3880.1</ele>
        <time>2021-11-07T12:54:18Z</time>
      </trkpt>
      <trkpt lat="45.51351" lon="7.26797">
        <ele>3882.6</ele>
        <time>2021-11-07T12:54:23Z</time>
      </trkpt>
      <trkpt lat="45.51351" lon="7.26797">
        <ele>3882.5</ele>
        <time>2021-11-07T12:54:24Z</time>
      </trkpt>
      <trkpt lat="45.51351" lon="7.26798">
        <ele>3882.5</ele>
        <time>2021-11-07T12:54:25Z</time>
      </trkpt>
      <trkpt lat="45.51353" lon="7.26798">
        <ele>3882.5</ele>
        <time>2021-11-07T12:54:31Z</time>
      </trkpt>
      <trkpt lat="45.51354" lon="7.26798">
        <ele>3883.7</ele>
        <time>2021-11-07T12:54:34Z</time>
      </trkpt>
      <trkpt lat="45.51357" lon="7.26798">
        <ele>3885</ele>
        <time>2021-11-07T12:54:42Z</time>
      </trkpt>
      <trkpt lat="45.5136" lon="7.26798">
        <ele>3886.2</ele>
        <time>2021-11-07T12:54:50Z</time>
      </trkpt>
      <trkpt lat="45.51362" lon="7.268">
        <ele>3886.2</ele>
        <time>2021-11-07T12:54:59Z</time>
      </trkpt>
      <trkpt lat="45.51362" lon="7.268">
        <ele>3886.1</ele>
        <time>2021-11-07T12:55:00Z</time>
      </trkpt>
      <trkpt lat="45.51362" lon="7.268">
        <ele>3886.1</ele>
        <time>2021-11-07T12:55:03Z</time>
      </trkpt>
      <trkpt lat="45.51364" lon="7.26802">
        <ele>3888.2</ele>
        <time>2021-11-07T12:55:10Z</time>
      </trkpt>
      <trkpt lat="45.51364" lon="7.26802">
        <ele>3888.2</ele>
        <time>2021-11-07T12:55:11Z</time>
      </trkpt>
      <trkpt lat="45.51367" lon="7.26802">
        <ele>3889.1</ele>
        <time>2021-11-07T12:55:22Z</time>
      </trkpt>
      <trkpt lat="45.51367" lon="7.26802">
        <ele>3889.1</ele>
        <time>2021-11-07T12:55:23Z</time>
      </trkpt>
      <trkpt lat="45.5137" lon="7.26802">
        <ele>3889.9</ele>
        <time>2021-11-07T12:55:34Z</time>
      </trkpt>
      <trkpt lat="45.51371" lon="7.26802">
        <ele>3890.2</ele>
        <time>2021-11-07T12:55:39Z</time>
      </trkpt>
      <trkpt lat="45.51373" lon="7.26803">
        <ele>3890.5</ele>
        <time>2021-11-07T12:55:44Z</time>
      </trkpt>
      <trkpt lat="45.51374" lon="7.26803">
        <ele>3890.7</ele>
        <time>2021-11-07T12:55:51Z</time>
      </trkpt>
      <trkpt lat="45.51375" lon="7.26804">
        <ele>3891</ele>
        <time>2021-11-07T12:55:55Z</time>
      </trkpt>
      <trkpt lat="45.51379" lon="7.26806">
        <ele>3891.6</ele>
        <time>2021-11-07T12:56:06Z</time>
      </trkpt>
      <trkpt lat="45.51381" lon="7.26809">
        <ele>3892.2</ele>
        <time>2021-11-07T12:56:19Z</time>
      </trkpt>
      <trkpt lat="45.51382" lon="7.26811">
        <ele>3892.5</ele>
        <time>2021-11-07T12:56:28Z</time>
      </trkpt>
      <trkpt lat="45.51382" lon="7.26811">
        <ele>3892.5</ele>
        <time>2021-11-07T12:56:31Z</time>
      </trkpt>
      <trkpt lat="45.51382" lon="7.26811">
        <ele>3892.6</ele>
        <time>2021-11-07T12:56:32Z</time>
      </trkpt>
      <trkpt lat="45.51383" lon="7.2681">
        <ele>3892.7</ele>
        <time>2021-11-07T12:56:35Z</time>
      </trkpt>
      <trkpt lat="45.51384" lon="7.26811">
        <ele>3893</ele>
        <time>2021-11-07T12:56:38Z</time>
      </trkpt>
      <trkpt lat="45.51385" lon="7.26811">
        <ele>3893.1</ele>
        <time>2021-11-07T12:56:40Z</time>
      </trkpt>
      <trkpt lat="45.51386" lon="7.26812">
        <ele>3893.4</ele>
        <time>2021-11-07T12:56:45Z</time>
      </trkpt>
      <trkpt lat="45.51387" lon="7.26812">
        <ele>3893.5</ele>
        <time>2021-11-07T12:56:48Z</time>
      </trkpt>
      <trkpt lat="45.51387" lon="7.26812">
        <ele>3893.6</ele>
        <time>2021-11-07T12:56:50Z</time>
      </trkpt>
      <trkpt lat="45.51388" lon="7.26813">
        <ele>3893.7</ele>
        <time>2021-11-07T12:56:54Z</time>
      </trkpt>
      <trkpt lat="45.51388" lon="7.26814">
        <ele>3893.8</ele>
        <time>2021-11-07T12:56:59Z</time>
      </trkpt>
      <trkpt lat="45.51388" lon="7.26813">
        <ele>3893.9</ele>
        <time>2021-11-07T12:57:02Z</time>
      </trkpt>
      <trkpt lat="45.51389" lon="7.26812">
        <ele>3894</ele>
        <time>2021-11-07T12:57:08Z</time>
      </trkpt>
      <trkpt lat="45.51388" lon="7.26811">
        <ele>3894.2</ele>
        <time>2021-11-07T12:57:10Z</time>
      </trkpt>
      <trkpt lat="45.51389" lon="7.26811">
        <ele>3894.2</ele>
        <time>2021-11-07T12:57:14Z</time>
      </trkpt>
      <trkpt lat="45.51389" lon="7.26811">
        <ele>3894.3</ele>
        <time>2021-11-07T12:57:15Z</time>
      </trkpt>
      <trkpt lat="45.51391" lon="7.26812">
        <ele>3894.7</ele>
        <time>2021-11-07T12:57:22Z</time>
      </trkpt>
      <trkpt lat="45.51392" lon="7.26812">
        <ele>3894.8</ele>
        <time>2021-11-07T12:57:24Z</time>
      </trkpt>
      <trkpt lat="45.51392" lon="7.26812">
        <ele>3894.9</ele>
        <time>2021-11-07T12:57:25Z</time>
      </trkpt>
      <trkpt lat="45.51393" lon="7.26813">
        <ele>3895.1</ele>
        <time>2021-11-07T12:57:27Z</time>
      </trkpt>
      <trkpt lat="45.51395" lon="7.26813">
        <ele>3895.4</ele>
        <time>2021-11-07T12:57:32Z</time>
      </trkpt>
      <trkpt lat="45.51397" lon="7.26815">
        <ele>3895.8</ele>
        <time>2021-11-07T12:57:38Z</time>
      </trkpt>
      <trkpt lat="45.51397" lon="7.26815">
        <ele>3895.9</ele>
        <time>2021-11-07T12:57:39Z</time>
      </trkpt>
      <trkpt lat="45.514" lon="7.26816">
        <ele>3896.3</ele>
        <time>2021-11-07T12:57:49Z</time>
      </trkpt>
      <trkpt lat="45.514" lon="7.26816">
        <ele>3896.5</ele>
        <time>2021-11-07T12:57:52Z</time>
      </trkpt>
      <trkpt lat="45.51402" lon="7.26817">
        <ele>3896.8</ele>
        <time>2021-11-07T12:58:00Z</time>
      </trkpt>
      <trkpt lat="45.51402" lon="7.26817">
        <ele>3896.8</ele>
        <time>2021-11-07T12:58:02Z</time>
      </trkpt>
      <trkpt lat="45.51406" lon="7.26818">
        <ele>3897.5</ele>
        <time>2021-11-07T12:58:12Z</time>
      </trkpt>
      <trkpt lat="45.51406" lon="7.26818">
        <ele>3897.5</ele>
        <time>2021-11-07T12:58:13Z</time>
      </trkpt>
      <trkpt lat="45.51408" lon="7.26818">
        <ele>3897.9</ele>
        <time>2021-11-07T12:58:19Z</time>
      </trkpt>
      <trkpt lat="45.51409" lon="7.26819">
        <ele>3898.1</ele>
        <time>2021-11-07T12:58:24Z</time>
      </trkpt>
      <trkpt lat="45.51409" lon="7.26819">
        <ele>3898.1</ele>
        <time>2021-11-07T12:58:25Z</time>
      </trkpt>
      <trkpt lat="45.51411" lon="7.2682">
        <ele>3898.4</ele>
        <time>2021-11-07T12:58:30Z</time>
      </trkpt>
      <trkpt lat="45.51411" lon="7.2682">
        <ele>3898.4</ele>
        <time>2021-11-07T12:58:31Z</time>
      </trkpt>
      <trkpt lat="45.51411" lon="7.2682">
        <ele>3898.5</ele>
        <time>2021-11-07T12:58:32Z</time>
      </trkpt>
      <trkpt lat="45.51413" lon="7.2682">
        <ele>3898.7</ele>
        <time>2021-11-07T12:58:35Z</time>
      </trkpt>
      <trkpt lat="45.51414" lon="7.2682">
        <ele>3899.1</ele>
        <time>2021-11-07T12:58:47Z</time>
      </trkpt>
      <trkpt lat="45.51414" lon="7.26821">
        <ele>3899.1</ele>
        <time>2021-11-07T12:58:48Z</time>
      </trkpt>
      <trkpt lat="45.51414" lon="7.26821">
        <ele>3899.1</ele>
        <time>2021-11-07T12:58:49Z</time>
      </trkpt>
      <trkpt lat="45.51416" lon="7.26821">
        <ele>3899.3</ele>
        <time>2021-11-07T12:58:53Z</time>
      </trkpt>
      <trkpt lat="45.51417" lon="7.26822">
        <ele>3899.6</ele>
        <time>2021-11-07T12:58:58Z</time>
      </trkpt>
      <trkpt lat="45.51418" lon="7.26822">
        <ele>3899.7</ele>
        <time>2021-11-07T12:59:00Z</time>
      </trkpt>
      <trkpt lat="45.51418" lon="7.26822">
        <ele>3899.8</ele>
        <time>2021-11-07T12:59:01Z</time>
      </trkpt>
      <trkpt lat="45.51419" lon="7.26823">
        <ele>3900</ele>
        <time>2021-11-07T12:59:05Z</time>
      </trkpt>
      <trkpt lat="45.5142" lon="7.26823">
        <ele>3900.1</ele>
        <time>2021-11-07T12:59:07Z</time>
      </trkpt>
      <trkpt lat="45.5142" lon="7.26824">
        <ele>3900.2</ele>
        <time>2021-11-07T12:59:11Z</time>
      </trkpt>
      <trkpt lat="45.5142" lon="7.26825">
        <ele>3900.3</ele>
        <time>2021-11-07T12:59:14Z</time>
      </trkpt>
      <trkpt lat="45.51421" lon="7.26825">
        <ele>3900.4</ele>
        <time>2021-11-07T12:59:16Z</time>
      </trkpt>
      <trkpt lat="45.51421" lon="7.26825">
        <ele>3900.4</ele>
        <time>2021-11-07T12:59:19Z</time>
      </trkpt>
      <trkpt lat="45.51421" lon="7.26825">
        <ele>3900.4</ele>
        <time>2021-11-07T12:59:22Z</time>
      </trkpt>
      <trkpt lat="45.51421" lon="7.26825">
        <ele>3900.5</ele>
        <time>2021-11-07T12:59:25Z</time>
      </trkpt>
      <trkpt lat="45.51421" lon="7.26825">
        <ele>3900.5</ele>
        <time>2021-11-07T12:59:26Z</time>
      </trkpt>
      <trkpt lat="45.51421" lon="7.26824">
        <ele>3900.5</ele>
        <time>2021-11-07T12:59:29Z</time>
      </trkpt>
      <trkpt lat="45.51421" lon="7.26824">
        <ele>3900.6</ele>
        <time>2021-11-07T12:59:32Z</time>
      </trkpt>
      <trkpt lat="45.5142" lon="7.26824">
        <ele>3900.6</ele>
        <time>2021-11-07T12:59:35Z</time>
      </trkpt>
      <trkpt lat="45.5142" lon="7.26824">
        <ele>3900.7</ele>
        <time>2021-11-07T12:59:38Z</time>
      </trkpt>
      <trkpt lat="45.5142" lon="7.26824">
        <ele>3900.8</ele>
        <time>2021-11-07T12:59:42Z</time>
      </trkpt>
      <trkpt lat="45.5142" lon="7.26823">
        <ele>3900.8</ele>
        <time>2021-11-07T12:59:45Z</time>
      </trkpt>
      <trkpt lat="45.5142" lon="7.26823">
        <ele>3900.8</ele>
        <time>2021-11-07T12:59:47Z</time>
      </trkpt>
      <trkpt lat="45.5142" lon="7.26822">
        <ele>3901</ele>
        <time>2021-11-07T12:59:50Z</time>
      </trkpt>
      <trkpt lat="45.5142" lon="7.26822">
        <ele>3901</ele>
        <time>2021-11-07T12:59:53Z</time>
      </trkpt>
      <trkpt lat="45.5142" lon="7.26822">
        <ele>3901.1</ele>
        <time>2021-11-07T12:59:57Z</time>
      </trkpt>
      <trkpt lat="45.5142" lon="7.26821">
        <ele>3901.1</ele>
        <time>2021-11-07T12:59:59Z</time>
      </trkpt>
      <trkpt lat="45.51421" lon="7.26821">
        <ele>3901.2</ele>
        <time>2021-11-07T13:00:02Z</time>
      </trkpt>
      <trkpt lat="45.51422" lon="7.2682">
        <ele>3901.4</ele>
        <time>2021-11-07T13:00:05Z</time>
      </trkpt>
      <trkpt lat="45.51422" lon="7.2682">
        <ele>3901.5</ele>
        <time>2021-11-07T13:00:06Z</time>
      </trkpt>
      <trkpt lat="45.51422" lon="7.26819">
        <ele>3901.6</ele>
        <time>2021-11-07T13:00:11Z</time>
      </trkpt>
      <trkpt lat="45.51422" lon="7.26819">
        <ele>3901.6</ele>
        <time>2021-11-07T13:00:16Z</time>
      </trkpt>
      <trkpt lat="45.51422" lon="7.2682">
        <ele>3901.8</ele>
        <time>2021-11-07T13:00:20Z</time>
      </trkpt>
      <trkpt lat="45.51423" lon="7.2682">
        <ele>3901.9</ele>
        <time>2021-11-07T13:00:24Z</time>
      </trkpt>
      <trkpt lat="45.51423" lon="7.2682">
        <ele>3901.9</ele>
        <time>2021-11-07T13:00:32Z</time>
      </trkpt>
      <trkpt lat="45.51423" lon="7.26821">
        <ele>3901.9</ele>
        <time>2021-11-07T13:00:35Z</time>
      </trkpt>
      <trkpt lat="45.51423" lon="7.26821">
        <ele>3901.9</ele>
        <time>2021-11-07T13:00:36Z</time>
      </trkpt>
      <trkpt lat="45.51424" lon="7.26821">
        <ele>3902</ele>
        <time>2021-11-07T13:00:38Z</time>
      </trkpt>
      <trkpt lat="45.51423" lon="7.2682">
        <ele>3902.1</ele>
        <time>2021-11-07T13:00:51Z</time>
      </trkpt>
      <trkpt lat="45.51423" lon="7.26821">
        <ele>3902.1</ele>
        <time>2021-11-07T13:00:54Z</time>
      </trkpt>
      <trkpt lat="45.51423" lon="7.26821">
        <ele>3902.2</ele>
        <time>2021-11-07T13:00:59Z</time>
      </trkpt>
      <trkpt lat="45.51423" lon="7.26821">
        <ele>3902.2</ele>
        <time>2021-11-07T13:01:04Z</time>
      </trkpt>
      <trkpt lat="45.51423" lon="7.26821">
        <ele>3902.2</ele>
        <time>2021-11-07T13:01:06Z</time>
      </trkpt>
      <trkpt lat="45.51423" lon="7.26821">
        <ele>3902.2</ele>
        <time>2021-11-07T13:01:09Z</time>
      </trkpt>
      <trkpt lat="45.51423" lon="7.26821">
        <ele>3902.2</ele>
        <time>2021-11-07T13:01:11Z</time>
      </trkpt>
      <trkpt lat="45.51423" lon="7.26821">
        <ele>3902.2</ele>
        <time>2021-11-07T13:01:12Z</time>
      </trkpt>
      <trkpt lat="45.51423" lon="7.26821">
        <ele>3902.2</ele>
        <time>2021-11-07T13:01:13Z</time>
      </trkpt>
      <trkpt lat="45.51423" lon="7.2682">
        <ele>3902.2</ele>
        <time>2021-11-07T13:01:14Z</time>
      </trkpt>
      <trkpt lat="45.51423" lon="7.2682">
        <ele>3902.3</ele>
        <time>2021-11-07T13:01:18Z</time>
      </trkpt>
      <trkpt lat="45.51423" lon="7.2682">
        <ele>3902.3</ele>
        <time>2021-11-07T13:01:22Z</time>
      </trkpt>
      <trkpt lat="45.51423" lon="7.2682">
        <ele>3902.4</ele>
        <time>2021-11-07T13:01:31Z</time>
      </trkpt>
      <trkpt lat="45.51422" lon="7.2682">
        <ele>3902.4</ele>
        <time>2021-11-07T13:01:34Z</time>
      </trkpt>
      <trkpt lat="45.51422" lon="7.2682">
        <ele>3902.4</ele>
        <time>2021-11-07T13:01:35Z</time>
      </trkpt>
      <trkpt lat="45.51423" lon="7.26821">
        <ele>3902.5</ele>
        <time>2021-11-07T13:01:40Z</time>
      </trkpt>
      <trkpt lat="45.51423" lon="7.26822">
        <ele>3902.6</ele>
        <time>2021-11-07T13:01:44Z</time>
      </trkpt>
      <trkpt lat="45.51423" lon="7.26822">
        <ele>3902.6</ele>
        <time>2021-11-07T13:01:45Z</time>
      </trkpt>
      <trkpt lat="45.51423" lon="7.26822">
        <ele>3902.7</ele>
        <time>2021-11-07T13:01:47Z</time>
      </trkpt>
      <trkpt lat="45.51423" lon="7.26822">
        <ele>3902.7</ele>
        <time>2021-11-07T13:01:48Z</time>
      </trkpt>
      <trkpt lat="45.51423" lon="7.26822">
        <ele>3902.7</ele>
        <time>2021-11-07T13:01:49Z</time>
      </trkpt>
      <trkpt lat="45.51423" lon="7.26823">
        <ele>3902.8</ele>
        <time>2021-11-07T13:01:50Z</time>
      </trkpt>
      <trkpt lat="45.51423" lon="7.26823">
        <ele>3902.8</ele>
        <time>2021-11-07T13:01:51Z</time>
      </trkpt>
      <trkpt lat="45.51424" lon="7.26824">
        <ele>3902.9</ele>
        <time>2021-11-07T13:01:55Z</time>
      </trkpt>
      <trkpt lat="45.51424" lon="7.26824">
        <ele>3903.1</ele>
        <time>2021-11-07T13:01:58Z</time>
      </trkpt>
      <trkpt lat="45.51426" lon="7.26826">
        <ele>3903.5</ele>
        <time>2021-11-07T13:02:05Z</time>
      </trkpt>
      <trkpt lat="45.51427" lon="7.26826">
        <ele>3903.6</ele>
        <time>2021-11-07T13:02:08Z</time>
      </trkpt>
      <trkpt lat="45.51427" lon="7.26827">
        <ele>3903.7</ele>
        <time>2021-11-07T13:02:12Z</time>
      </trkpt>
      <trkpt lat="45.51428" lon="7.26828">
        <ele>3903.8</ele>
        <time>2021-11-07T13:02:14Z</time>
      </trkpt>
      <trkpt lat="45.51428" lon="7.26828">
        <ele>3903.9</ele>
        <time>2021-11-07T13:02:20Z</time>
      </trkpt>
      <trkpt lat="45.51429" lon="7.26829">
        <ele>3904.1</ele>
        <time>2021-11-07T13:02:31Z</time>
      </trkpt>
      <trkpt lat="45.5143" lon="7.2683">
        <ele>3904.3</ele>
        <time>2021-11-07T13:02:33Z</time>
      </trkpt>
      <trkpt lat="45.51431" lon="7.26831">
        <ele>3904.6</ele>
        <time>2021-11-07T13:02:37Z</time>
      </trkpt>
      <trkpt lat="45.51432" lon="7.26831">
        <ele>3904.8</ele>
        <time>2021-11-07T13:02:43Z</time>
      </trkpt>
      <trkpt lat="45.51433" lon="7.26831">
        <ele>3904.9</ele>
        <time>2021-11-07T13:02:44Z</time>
      </trkpt>
      <trkpt lat="45.51434" lon="7.26832">
        <ele>3905.1</ele>
        <time>2021-11-07T13:02:49Z</time>
      </trkpt>
      <trkpt lat="45.51436" lon="7.26833">
        <ele>3905.5</ele>
        <time>2021-11-07T13:02:57Z</time>
      </trkpt>
      <trkpt lat="45.51436" lon="7.26834">
        <ele>3905.6</ele>
        <time>2021-11-07T13:03:10Z</time>
      </trkpt>
      <trkpt lat="45.51436" lon="7.26834">
        <ele>3905.7</ele>
        <time>2021-11-07T13:03:12Z</time>
      </trkpt>
      <trkpt lat="45.51436" lon="7.26834">
        <ele>3905.8</ele>
        <time>2021-11-07T13:03:15Z</time>
      </trkpt>
      <trkpt lat="45.51436" lon="7.26835">
        <ele>3905.9</ele>
        <time>2021-11-07T13:03:17Z</time>
      </trkpt>
      <trkpt lat="45.51437" lon="7.26836">
        <ele>3906.1</ele>
        <time>2021-11-07T13:03:21Z</time>
      </trkpt>
      <trkpt lat="45.51437" lon="7.26836">
        <ele>3906.1</ele>
        <time>2021-11-07T13:03:22Z</time>
      </trkpt>
      <trkpt lat="45.51437" lon="7.26838">
        <ele>3906.3</ele>
        <time>2021-11-07T13:03:28Z</time>
      </trkpt>
      <trkpt lat="45.51438" lon="7.26837">
        <ele>3906.4</ele>
        <time>2021-11-07T13:03:30Z</time>
      </trkpt>
      <trkpt lat="45.51438" lon="7.26838">
        <ele>3906.4</ele>
        <time>2021-11-07T13:03:34Z</time>
      </trkpt>
      <trkpt lat="45.51439" lon="7.26838">
        <ele>3906.6</ele>
        <time>2021-11-07T13:03:39Z</time>
      </trkpt>
      <trkpt lat="45.5144" lon="7.26839">
        <ele>3906.8</ele>
        <time>2021-11-07T13:03:45Z</time>
      </trkpt>
      <trkpt lat="45.5144" lon="7.26839">
        <ele>3906.9</ele>
        <time>2021-11-07T13:03:49Z</time>
      </trkpt>
      <trkpt lat="45.5144" lon="7.26839">
        <ele>3906.9</ele>
        <time>2021-11-07T13:03:52Z</time>
      </trkpt>
      <trkpt lat="45.51441" lon="7.2684">
        <ele>3907.1</ele>
        <time>2021-11-07T13:03:57Z</time>
      </trkpt>
      <trkpt lat="45.51442" lon="7.26841">
        <ele>3907.3</ele>
        <time>2021-11-07T13:04:01Z</time>
      </trkpt>
      <trkpt lat="45.51444" lon="7.26842">
        <ele>3907.7</ele>
        <time>2021-11-07T13:04:10Z</time>
      </trkpt>
      <trkpt lat="45.51444" lon="7.26842">
        <ele>3907.8</ele>
        <time>2021-11-07T13:04:14Z</time>
      </trkpt>
      <trkpt lat="45.51445" lon="7.26842">
        <ele>3907.9</ele>
        <time>2021-11-07T13:04:16Z</time>
      </trkpt>
      <trkpt lat="45.51445" lon="7.26842">
        <ele>3908</ele>
        <time>2021-11-07T13:04:21Z</time>
      </trkpt>
      <trkpt lat="45.51446" lon="7.26844">
        <ele>3908.2</ele>
        <time>2021-11-07T13:04:26Z</time>
      </trkpt>
      <trkpt lat="45.51446" lon="7.26844">
        <ele>3908.3</ele>
        <time>2021-11-07T13:04:28Z</time>
      </trkpt>
      <trkpt lat="45.51448" lon="7.26845">
        <ele>3908.6</ele>
        <time>2021-11-07T13:04:35Z</time>
      </trkpt>
      <trkpt lat="45.51448" lon="7.26846">
        <ele>3908.8</ele>
        <time>2021-11-07T13:04:40Z</time>
      </trkpt>
      <trkpt lat="45.51449" lon="7.26849">
        <ele>3909.1</ele>
        <time>2021-11-07T13:04:47Z</time>
      </trkpt>
      <trkpt lat="45.5145" lon="7.26849">
        <ele>3909.3</ele>
        <time>2021-11-07T13:04:55Z</time>
      </trkpt>
      <trkpt lat="45.51451" lon="7.2685">
        <ele>3909.4</ele>
        <time>2021-11-07T13:04:59Z</time>
      </trkpt>
      <trkpt lat="45.51451" lon="7.2685">
        <ele>3909.5</ele>
        <time>2021-11-07T13:05:00Z</time>
      </trkpt>
      <trkpt lat="45.51453" lon="7.26854">
        <ele>3910.1</ele>
        <time>2021-11-07T13:05:11Z</time>
      </trkpt>
      <trkpt lat="45.51453" lon="7.26854">
        <ele>3910.1</ele>
        <time>2021-11-07T13:05:12Z</time>
      </trkpt>
      <trkpt lat="45.51454" lon="7.26855">
        <ele>3910.2</ele>
        <time>2021-11-07T13:05:17Z</time>
      </trkpt>
      <trkpt lat="45.51454" lon="7.26855">
        <ele>3910.3</ele>
        <time>2021-11-07T13:05:19Z</time>
      </trkpt>
      <trkpt lat="45.51453" lon="7.26855">
        <ele>3910.4</ele>
        <time>2021-11-07T13:05:21Z</time>
      </trkpt>
      <trkpt lat="45.51453" lon="7.26855">
        <ele>3910.4</ele>
        <time>2021-11-07T13:05:22Z</time>
      </trkpt>
      <trkpt lat="45.51453" lon="7.26854">
        <ele>3910.4</ele>
        <time>2021-11-07T13:05:23Z</time>
      </trkpt>
      <trkpt lat="45.51453" lon="7.26854">
        <ele>3910.5</ele>
        <time>2021-11-07T13:05:25Z</time>
      </trkpt>
      <trkpt lat="45.51453" lon="7.26854">
        <ele>3910.5</ele>
        <time>2021-11-07T13:05:29Z</time>
      </trkpt>
      <trkpt lat="45.51453" lon="7.26854">
        <ele>3910.5</ele>
        <time>2021-11-07T13:05:33Z</time>
      </trkpt>
      <trkpt lat="45.51453" lon="7.26854">
        <ele>3910.7</ele>
        <time>2021-11-07T13:05:36Z</time>
      </trkpt>
      <trkpt lat="45.51454" lon="7.26855">
        <ele>3910.7</ele>
        <time>2021-11-07T13:05:38Z</time>
      </trkpt>
      <trkpt lat="45.51454" lon="7.26856">
        <ele>3910.9</ele>
        <time>2021-11-07T13:05:41Z</time>
      </trkpt>
      <trkpt lat="45.51455" lon="7.26856">
        <ele>3911</ele>
        <time>2021-11-07T13:05:43Z</time>
      </trkpt>
      <trkpt lat="45.51455" lon="7.26857">
        <ele>3911.2</ele>
        <time>2021-11-07T13:05:46Z</time>
      </trkpt>
      <trkpt lat="45.51456" lon="7.26859">
        <ele>3911.4</ele>
        <time>2021-11-07T13:05:52Z</time>
      </trkpt>
      <trkpt lat="45.51456" lon="7.2686">
        <ele>3911.6</ele>
        <time>2021-11-07T13:05:56Z</time>
      </trkpt>
      <trkpt lat="45.51456" lon="7.2686">
        <ele>3911.6</ele>
        <time>2021-11-07T13:05:58Z</time>
      </trkpt>
      <trkpt lat="45.51456" lon="7.2686">
        <ele>3911.6</ele>
        <time>2021-11-07T13:06:05Z</time>
      </trkpt>
      <trkpt lat="45.51457" lon="7.26861">
        <ele>3911.8</ele>
        <time>2021-11-07T13:06:09Z</time>
      </trkpt>
      <trkpt lat="45.51457" lon="7.26862">
        <ele>3911.9</ele>
        <time>2021-11-07T13:06:14Z</time>
      </trkpt>
      <trkpt lat="45.51458" lon="7.26862">
        <ele>3912</ele>
        <time>2021-11-07T13:06:21Z</time>
      </trkpt>
      <trkpt lat="45.51458" lon="7.26862">
        <ele>3912.1</ele>
        <time>2021-11-07T13:06:22Z</time>
      </trkpt>
      <trkpt lat="45.51459" lon="7.26862">
        <ele>3912.2</ele>
        <time>2021-11-07T13:06:24Z</time>
      </trkpt>
      <trkpt lat="45.5146" lon="7.26863">
        <ele>3912.4</ele>
        <time>2021-11-07T13:06:28Z</time>
      </trkpt>
      <trkpt lat="45.5146" lon="7.26865">
        <ele>3912.6</ele>
        <time>2021-11-07T13:06:35Z</time>
      </trkpt>
      <trkpt lat="45.51461" lon="7.26865">
        <ele>3912.7</ele>
        <time>2021-11-07T13:06:39Z</time>
      </trkpt>
      <trkpt lat="45.51461" lon="7.26866">
        <ele>3912.8</ele>
        <time>2021-11-07T13:06:42Z</time>
      </trkpt>
      <trkpt lat="45.51462" lon="7.26866">
        <ele>3912.9</ele>
        <time>2021-11-07T13:06:45Z</time>
      </trkpt>
      <trkpt lat="45.51462" lon="7.26867">
        <ele>3913.1</ele>
        <time>2021-11-07T13:06:47Z</time>
      </trkpt>
      <trkpt lat="45.51463" lon="7.26869">
        <ele>3913.3</ele>
        <time>2021-11-07T13:06:51Z</time>
      </trkpt>
      <trkpt lat="45.51463" lon="7.2687">
        <ele>3913.5</ele>
        <time>2021-11-07T13:06:53Z</time>
      </trkpt>
      <trkpt lat="45.51463" lon="7.2687">
        <ele>3913.6</ele>
        <time>2021-11-07T13:06:54Z</time>
      </trkpt>
      <trkpt lat="45.51463" lon="7.26871">
        <ele>3913.7</ele>
        <time>2021-11-07T13:06:56Z</time>
      </trkpt>
      <trkpt lat="45.51464" lon="7.26872">
        <ele>3913.8</ele>
        <time>2021-11-07T13:06:59Z</time>
      </trkpt>
      <trkpt lat="45.51464" lon="7.26872">
        <ele>3913.9</ele>
        <time>2021-11-07T13:07:05Z</time>
      </trkpt>
      <trkpt lat="45.51465" lon="7.26873">
        <ele>3914.1</ele>
        <time>2021-11-07T13:07:08Z</time>
      </trkpt>
      <trkpt lat="45.51466" lon="7.26873">
        <ele>3914.2</ele>
        <time>2021-11-07T13:07:10Z</time>
      </trkpt>
      <trkpt lat="45.51467" lon="7.26874">
        <ele>3914.4</ele>
        <time>2021-11-07T13:07:13Z</time>
      </trkpt>
      <trkpt lat="45.51468" lon="7.26875">
        <ele>3914.6</ele>
        <time>2021-11-07T13:07:17Z</time>
      </trkpt>
      <trkpt lat="45.51469" lon="7.26875">
        <ele>3914.8</ele>
        <time>2021-11-07T13:07:21Z</time>
      </trkpt>
      <trkpt lat="45.5147" lon="7.26876">
        <ele>3915</ele>
        <time>2021-11-07T13:07:25Z</time>
      </trkpt>
      <trkpt lat="45.5147" lon="7.26877">
        <ele>3915.1</ele>
        <time>2021-11-07T13:07:26Z</time>
      </trkpt>
      <trkpt lat="45.5147" lon="7.26877">
        <ele>3915.1</ele>
        <time>2021-11-07T13:07:29Z</time>
      </trkpt>
      <trkpt lat="45.51471" lon="7.26877">
        <ele>3915.2</ele>
        <time>2021-11-07T13:07:31Z</time>
      </trkpt>
      <trkpt lat="45.51471" lon="7.26877">
        <ele>3915.3</ele>
        <time>2021-11-07T13:07:32Z</time>
      </trkpt>
      <trkpt lat="45.51471" lon="7.26877">
        <ele>3915.4</ele>
        <time>2021-11-07T13:07:38Z</time>
      </trkpt>
      <trkpt lat="45.51471" lon="7.26877">
        <ele>3915.4</ele>
        <time>2021-11-07T13:07:43Z</time>
      </trkpt>
      <trkpt lat="45.51471" lon="7.26877">
        <ele>3915.4</ele>
        <time>2021-11-07T13:07:45Z</time>
      </trkpt>
      <trkpt lat="45.51472" lon="7.26877">
        <ele>3915.5</ele>
        <time>2021-11-07T13:07:48Z</time>
      </trkpt>
      <trkpt lat="45.51472" lon="7.26878">
        <ele>3915.6</ele>
        <time>2021-11-07T13:07:50Z</time>
      </trkpt>
      <trkpt lat="45.51472" lon="7.26878">
        <ele>3915.7</ele>
        <time>2021-11-07T13:07:52Z</time>
      </trkpt>
      <trkpt lat="45.51473" lon="7.26879">
        <ele>3915.8</ele>
        <time>2021-11-07T13:07:54Z</time>
      </trkpt>
      <trkpt lat="45.51473" lon="7.2688">
        <ele>3916</ele>
        <time>2021-11-07T13:07:58Z</time>
      </trkpt>
      <trkpt lat="45.51473" lon="7.26881">
        <ele>3916.1</ele>
        <time>2021-11-07T13:08:03Z</time>
      </trkpt>
      <trkpt lat="45.51474" lon="7.26881">
        <ele>3916.2</ele>
        <time>2021-11-07T13:08:06Z</time>
      </trkpt>
      <trkpt lat="45.51474" lon="7.26882">
        <ele>3916.3</ele>
        <time>2021-11-07T13:08:07Z</time>
      </trkpt>
      <trkpt lat="45.51474" lon="7.26882">
        <ele>3916.3</ele>
        <time>2021-11-07T13:08:08Z</time>
      </trkpt>
      <trkpt lat="45.51474" lon="7.26882">
        <ele>3916.4</ele>
        <time>2021-11-07T13:08:10Z</time>
      </trkpt>
      <trkpt lat="45.51477" lon="7.26884">
        <ele>3916.9</ele>
        <time>2021-11-07T13:08:19Z</time>
      </trkpt>
      <trkpt lat="45.51477" lon="7.26884">
        <ele>3917</ele>
        <time>2021-11-07T13:08:21Z</time>
      </trkpt>
      <trkpt lat="45.51478" lon="7.26885">
        <ele>3917.2</ele>
        <time>2021-11-07T13:08:26Z</time>
      </trkpt>
      <trkpt lat="45.51478" lon="7.26886">
        <ele>3917.3</ele>
        <time>2021-11-07T13:08:35Z</time>
      </trkpt>
      <trkpt lat="45.51478" lon="7.26886">
        <ele>3917.3</ele>
        <time>2021-11-07T13:08:40Z</time>
      </trkpt>
      <trkpt lat="45.51478" lon="7.26886">
        <ele>3917.5</ele>
        <time>2021-11-07T13:08:48Z</time>
      </trkpt>
      <trkpt lat="45.5148" lon="7.26885">
        <ele>3917.8</ele>
        <time>2021-11-07T13:08:56Z</time>
      </trkpt>
      <trkpt lat="45.51482" lon="7.26884">
        <ele>3918.1</ele>
        <time>2021-11-07T13:09:00Z</time>
      </trkpt>
      <trkpt lat="45.51482" lon="7.26883">
        <ele>3918.3</ele>
        <time>2021-11-07T13:09:03Z</time>
      </trkpt>
      <trkpt lat="45.51483" lon="7.26884">
        <ele>3918.4</ele>
        <time>2021-11-07T13:09:07Z</time>
      </trkpt>
      <trkpt lat="45.51483" lon="7.26884">
        <ele>3918.5</ele>
        <time>2021-11-07T13:09:08Z</time>
      </trkpt>
      <trkpt lat="45.51483" lon="7.26887">
        <ele>3918.9</ele>
        <time>2021-11-07T13:09:16Z</time>
      </trkpt>
      <trkpt lat="45.51484" lon="7.26887">
        <ele>3919</ele>
        <time>2021-11-07T13:09:19Z</time>
      </trkpt>
      <trkpt lat="45.51485" lon="7.26889">
        <ele>3919.3</ele>
        <time>2021-11-07T13:09:23Z</time>
      </trkpt>
      <trkpt lat="45.51485" lon="7.26891">
        <ele>3919.6</ele>
        <time>2021-11-07T13:09:28Z</time>
      </trkpt>
      <trkpt lat="45.51486" lon="7.26892">
        <ele>3919.8</ele>
        <time>2021-11-07T13:09:31Z</time>
      </trkpt>
      <trkpt lat="45.51486" lon="7.26893">
        <ele>3919.9</ele>
        <time>2021-11-07T13:09:36Z</time>
      </trkpt>
      <trkpt lat="45.51486" lon="7.26893">
        <ele>3919.9</ele>
        <time>2021-11-07T13:09:38Z</time>
      </trkpt>
      <trkpt lat="45.51487" lon="7.26894">
        <ele>3920.1</ele>
        <time>2021-11-07T13:09:40Z</time>
      </trkpt>
      <trkpt lat="45.51487" lon="7.26895">
        <ele>3920.1</ele>
        <time>2021-11-07T13:09:43Z</time>
      </trkpt>
      <trkpt lat="45.51487" lon="7.26899">
        <ele>3920.6</ele>
        <time>2021-11-07T13:09:53Z</time>
      </trkpt>
      <trkpt lat="45.51488" lon="7.269">
        <ele>3920.8</ele>
        <time>2021-11-07T13:09:55Z</time>
      </trkpt>
      <trkpt lat="45.51488" lon="7.269">
        <ele>3920.9</ele>
        <time>2021-11-07T13:09:56Z</time>
      </trkpt>
      <trkpt lat="45.51489" lon="7.26905">
        <ele>3921.5</ele>
        <time>2021-11-07T13:10:05Z</time>
      </trkpt>
      <trkpt lat="45.5149" lon="7.26905">
        <ele>3921.7</ele>
        <time>2021-11-07T13:10:12Z</time>
      </trkpt>
      <trkpt lat="45.51491" lon="7.26906">
        <ele>3922</ele>
        <time>2021-11-07T13:10:17Z</time>
      </trkpt>
      <trkpt lat="45.51492" lon="7.26906">
        <ele>3922</ele>
        <time>2021-11-07T13:10:18Z</time>
      </trkpt>
      <trkpt lat="45.51492" lon="7.26907">
        <ele>3922.1</ele>
        <time>2021-11-07T13:10:19Z</time>
      </trkpt>
      <trkpt lat="45.51492" lon="7.26907">
        <ele>3922.1</ele>
        <time>2021-11-07T13:10:20Z</time>
      </trkpt>
      <trkpt lat="45.51492" lon="7.26906">
        <ele>3922.2</ele>
        <time>2021-11-07T13:10:22Z</time>
      </trkpt>
      <trkpt lat="45.51494" lon="7.26908">
        <ele>3922.5</ele>
        <time>2021-11-07T13:10:27Z</time>
      </trkpt>
      <trkpt lat="45.51494" lon="7.26908">
        <ele>3922.6</ele>
        <time>2021-11-07T13:10:29Z</time>
      </trkpt>
      <trkpt lat="45.51494" lon="7.26909">
        <ele>3922.7</ele>
        <time>2021-11-07T13:10:30Z</time>
      </trkpt>
      <trkpt lat="45.51495" lon="7.26909">
        <ele>3922.8</ele>
        <time>2021-11-07T13:10:32Z</time>
      </trkpt>
      <trkpt lat="45.51496" lon="7.2691">
        <ele>3923</ele>
        <time>2021-11-07T13:10:37Z</time>
      </trkpt>
      <trkpt lat="45.51497" lon="7.2691">
        <ele>3923.1</ele>
        <time>2021-11-07T13:10:40Z</time>
      </trkpt>
      <trkpt lat="45.51498" lon="7.26914">
        <ele>3923.7</ele>
        <time>2021-11-07T13:10:52Z</time>
      </trkpt>
      <trkpt lat="45.51499" lon="7.26913">
        <ele>3923.8</ele>
        <time>2021-11-07T13:10:55Z</time>
      </trkpt>
      <trkpt lat="45.51499" lon="7.26913">
        <ele>3923.9</ele>
        <time>2021-11-07T13:10:57Z</time>
      </trkpt>
      <trkpt lat="45.515" lon="7.26912">
        <ele>3924</ele>
        <time>2021-11-07T13:11:00Z</time>
      </trkpt>
      <trkpt lat="45.51501" lon="7.26911">
        <ele>3924.2</ele>
        <time>2021-11-07T13:11:08Z</time>
      </trkpt>
      <trkpt lat="45.515" lon="7.26911">
        <ele>3924.3</ele>
        <time>2021-11-07T13:11:11Z</time>
      </trkpt>
      <trkpt lat="45.515" lon="7.26912">
        <ele>3924.4</ele>
        <time>2021-11-07T13:11:15Z</time>
      </trkpt>
      <trkpt lat="45.51501" lon="7.26913">
        <ele>3924.5</ele>
        <time>2021-11-07T13:11:18Z</time>
      </trkpt>
      <trkpt lat="45.51501" lon="7.26913">
        <ele>3924.6</ele>
        <time>2021-11-07T13:11:23Z</time>
      </trkpt>
      <trkpt lat="45.51501" lon="7.26914">
        <ele>3924.7</ele>
        <time>2021-11-07T13:11:24Z</time>
      </trkpt>
      <trkpt lat="45.51501" lon="7.26914">
        <ele>3924.7</ele>
        <time>2021-11-07T13:11:25Z</time>
      </trkpt>
      <trkpt lat="45.51502" lon="7.26914">
        <ele>3924.8</ele>
        <time>2021-11-07T13:11:27Z</time>
      </trkpt>
      <trkpt lat="45.51503" lon="7.26914">
        <ele>3924.9</ele>
        <time>2021-11-07T13:11:36Z</time>
      </trkpt>
      <trkpt lat="45.51503" lon="7.26914">
        <ele>3925</ele>
        <time>2021-11-07T13:11:39Z</time>
      </trkpt>
      <trkpt lat="45.51503" lon="7.26914">
        <ele>3925</ele>
        <time>2021-11-07T13:11:40Z</time>
      </trkpt>
      <trkpt lat="45.51503" lon="7.26914">
        <ele>3925</ele>
        <time>2021-11-07T13:11:42Z</time>
      </trkpt>
      <trkpt lat="45.51503" lon="7.26914">
        <ele>3925</ele>
        <time>2021-11-07T13:11:43Z</time>
      </trkpt>
      <trkpt lat="45.51503" lon="7.26914">
        <ele>3925</ele>
        <time>2021-11-07T13:11:46Z</time>
      </trkpt>
      <trkpt lat="45.51503" lon="7.26914">
        <ele>3925.1</ele>
        <time>2021-11-07T13:11:48Z</time>
      </trkpt>
      <trkpt lat="45.51503" lon="7.26914">
        <ele>3925.1</ele>
        <time>2021-11-07T13:11:51Z</time>
      </trkpt>
      <trkpt lat="45.51505" lon="7.26914">
        <ele>3925.4</ele>
        <time>2021-11-07T13:11:56Z</time>
      </trkpt>
      <trkpt lat="45.51506" lon="7.26915">
        <ele>3925.6</ele>
        <time>2021-11-07T13:12:00Z</time>
      </trkpt>
      <trkpt lat="45.51506" lon="7.26915">
        <ele>3925.6</ele>
        <time>2021-11-07T13:12:03Z</time>
      </trkpt>
      <trkpt lat="45.51507" lon="7.26916">
        <ele>3925.7</ele>
        <time>2021-11-07T13:12:05Z</time>
      </trkpt>
      <trkpt lat="45.51507" lon="7.26917">
        <ele>3925.8</ele>
        <time>2021-11-07T13:12:07Z</time>
      </trkpt>
      <trkpt lat="45.51508" lon="7.26917">
        <ele>3926</ele>
        <time>2021-11-07T13:12:10Z</time>
      </trkpt>
      <trkpt lat="45.51508" lon="7.26918">
        <ele>3926.1</ele>
        <time>2021-11-07T13:12:13Z</time>
      </trkpt>
      <trkpt lat="45.51508" lon="7.2692">
        <ele>3926.3</ele>
        <time>2021-11-07T13:12:16Z</time>
      </trkpt>
      <trkpt lat="45.51508" lon="7.2692">
        <ele>3926.4</ele>
        <time>2021-11-07T13:12:20Z</time>
      </trkpt>
      <trkpt lat="45.5151" lon="7.26922">
        <ele>3926.8</ele>
        <time>2021-11-07T13:12:30Z</time>
      </trkpt>
      <trkpt lat="45.51509" lon="7.26921">
        <ele>3926.9</ele>
        <time>2021-11-07T13:12:33Z</time>
      </trkpt>
      <trkpt lat="45.51509" lon="7.26921">
        <ele>3927</ele>
        <time>2021-11-07T13:12:35Z</time>
      </trkpt>
      <trkpt lat="45.51514" lon="7.26924">
        <ele>3927.9</ele>
        <time>2021-11-07T13:12:46Z</time>
      </trkpt>
      <trkpt lat="45.51515" lon="7.26926">
        <ele>3928.2</ele>
        <time>2021-11-07T13:12:49Z</time>
      </trkpt>
      <trkpt lat="45.51515" lon="7.26927">
        <ele>3928.4</ele>
        <time>2021-11-07T13:12:53Z</time>
      </trkpt>
      <trkpt lat="45.51515" lon="7.26927">
        <ele>3928.4</ele>
        <time>2021-11-07T13:12:54Z</time>
      </trkpt>
      <trkpt lat="45.51516" lon="7.26928">
        <ele>3928.6</ele>
        <time>2021-11-07T13:12:55Z</time>
      </trkpt>
      <trkpt lat="45.51516" lon="7.26928">
        <ele>3928.7</ele>
        <time>2021-11-07T13:12:56Z</time>
      </trkpt>
      <trkpt lat="45.51518" lon="7.26929">
        <ele>3928.9</ele>
        <time>2021-11-07T13:12:58Z</time>
      </trkpt>
      <trkpt lat="45.51518" lon="7.26929">
        <ele>3929</ele>
        <time>2021-11-07T13:13:00Z</time>
      </trkpt>
      <trkpt lat="45.51519" lon="7.26929">
        <ele>3929.2</ele>
        <time>2021-11-07T13:13:02Z</time>
      </trkpt>
      <trkpt lat="45.5152" lon="7.2693">
        <ele>3929.4</ele>
        <time>2021-11-07T13:13:04Z</time>
      </trkpt>
      <trkpt lat="45.51521" lon="7.26931">
        <ele>3929.6</ele>
        <time>2021-11-07T13:13:06Z</time>
      </trkpt>
      <trkpt lat="45.51522" lon="7.26931">
        <ele>3929.7</ele>
        <time>2021-11-07T13:13:08Z</time>
      </trkpt>
      <trkpt lat="45.51522" lon="7.26931">
        <ele>3929.7</ele>
        <time>2021-11-07T13:13:11Z</time>
      </trkpt>
      <trkpt lat="45.51522" lon="7.26931">
        <ele>3929.7</ele>
        <time>2021-11-07T13:13:14Z</time>
      </trkpt>
      <trkpt lat="45.51521" lon="7.26931">
        <ele>3929.9</ele>
        <time>2021-11-07T13:13:18Z</time>
      </trkpt>
      <trkpt lat="45.5152" lon="7.26931">
        <ele>3930</ele>
        <time>2021-11-07T13:13:21Z</time>
      </trkpt>
      <trkpt lat="45.5152" lon="7.26932">
        <ele>3930.1</ele>
        <time>2021-11-07T13:13:24Z</time>
      </trkpt>
      <trkpt lat="45.5152" lon="7.26932">
        <ele>3930.1</ele>
        <time>2021-11-07T13:13:28Z</time>
      </trkpt>
      <trkpt lat="45.5152" lon="7.26932">
        <ele>3930.1</ele>
        <time>2021-11-07T13:13:31Z</time>
      </trkpt>
      <trkpt lat="45.5152" lon="7.26932">
        <ele>3930.1</ele>
        <time>2021-11-07T13:13:32Z</time>
      </trkpt>
      <trkpt lat="45.5152" lon="7.26932">
        <ele>3930.1</ele>
        <time>2021-11-07T13:13:33Z</time>
      </trkpt>
      <trkpt lat="45.5152" lon="7.26931">
        <ele>3930.2</ele>
        <time>2021-11-07T13:13:35Z</time>
      </trkpt>
      <trkpt lat="45.5152" lon="7.26931">
        <ele>3930.2</ele>
        <time>2021-11-07T13:13:36Z</time>
      </trkpt>
      <trkpt lat="45.51521" lon="7.2693">
        <ele>3930.3</ele>
        <time>2021-11-07T13:13:46Z</time>
      </trkpt>
      <trkpt lat="45.51521" lon="7.2693">
        <ele>3930.4</ele>
        <time>2021-11-07T13:13:50Z</time>
      </trkpt>
      <trkpt lat="45.51521" lon="7.2693">
        <ele>3930.5</ele>
        <time>2021-11-07T13:13:56Z</time>
      </trkpt>
      <trkpt lat="45.51521" lon="7.2693">
        <ele>3930.5</ele>
        <time>2021-11-07T13:14:00Z</time>
      </trkpt>
      <trkpt lat="45.51521" lon="7.2693">
        <ele>3930.5</ele>
        <time>2021-11-07T13:14:01Z</time>
      </trkpt>
      <trkpt lat="45.51522" lon="7.2693">
        <ele>3930.6</ele>
        <time>2021-11-07T13:14:07Z</time>
      </trkpt>
      <trkpt lat="45.51522" lon="7.2693">
        <ele>3930.6</ele>
        <time>2021-11-07T13:14:11Z</time>
      </trkpt>
      <trkpt lat="45.51522" lon="7.2693">
        <ele>3930.7</ele>
        <time>2021-11-07T13:14:16Z</time>
      </trkpt>
      <trkpt lat="45.5152" lon="7.26929">
        <ele>3930.9</ele>
        <time>2021-11-07T13:14:26Z</time>
      </trkpt>
      <trkpt lat="45.51521" lon="7.2693">
        <ele>3931.1</ele>
        <time>2021-11-07T13:14:30Z</time>
      </trkpt>
      <trkpt lat="45.51521" lon="7.2693">
        <ele>3931.1</ele>
        <time>2021-11-07T13:14:34Z</time>
      </trkpt>
      <trkpt lat="45.5152" lon="7.26929">
        <ele>3931.3</ele>
        <time>2021-11-07T13:14:41Z</time>
      </trkpt>
      <trkpt lat="45.5152" lon="7.26929">
        <ele>3931.4</ele>
        <time>2021-11-07T13:14:42Z</time>
      </trkpt>
      <trkpt lat="45.51518" lon="7.26928">
        <ele>3931.6</ele>
        <time>2021-11-07T13:14:44Z</time>
      </trkpt>
      <trkpt lat="45.51518" lon="7.26928">
        <ele>3931.7</ele>
        <time>2021-11-07T13:14:48Z</time>
      </trkpt>
      <trkpt lat="45.51519" lon="7.26928">
        <ele>3931.8</ele>
        <time>2021-11-07T13:14:53Z</time>
      </trkpt>
      <trkpt lat="45.51519" lon="7.26928">
        <ele>3931.9</ele>
        <time>2021-11-07T13:14:55Z</time>
      </trkpt>
      <trkpt lat="45.51519" lon="7.26928">
        <ele>3931.9</ele>
        <time>2021-11-07T13:14:56Z</time>
      </trkpt>
      <trkpt lat="45.51519" lon="7.26928">
        <ele>3931.9</ele>
        <time>2021-11-07T13:14:57Z</time>
      </trkpt>
      <trkpt lat="45.51519" lon="7.26928">
        <ele>3932</ele>
        <time>2021-11-07T13:15:00Z</time>
      </trkpt>
      <trkpt lat="45.5152" lon="7.26928">
        <ele>3932.1</ele>
        <time>2021-11-07T13:15:05Z</time>
      </trkpt>
      <trkpt lat="45.5152" lon="7.26928">
        <ele>3932.2</ele>
        <time>2021-11-07T13:15:10Z</time>
      </trkpt>
      <trkpt lat="45.5152" lon="7.26928">
        <ele>3932.2</ele>
        <time>2021-11-07T13:15:15Z</time>
      </trkpt>
      <trkpt lat="45.5152" lon="7.26928">
        <ele>3932.3</ele>
        <time>2021-11-07T13:15:16Z</time>
      </trkpt>
      <trkpt lat="45.51521" lon="7.26928">
        <ele>3932.3</ele>
        <time>2021-11-07T13:15:17Z</time>
      </trkpt>
      <trkpt lat="45.51521" lon="7.26928">
        <ele>3932.3</ele>
        <time>2021-11-07T13:15:21Z</time>
      </trkpt>
      <trkpt lat="45.51521" lon="7.26928">
        <ele>3932.4</ele>
        <time>2021-11-07T13:15:25Z</time>
      </trkpt>
      <trkpt lat="45.51521" lon="7.26928">
        <ele>3932.4</ele>
        <time>2021-11-07T13:15:26Z</time>
      </trkpt>
      <trkpt lat="45.51521" lon="7.26928">
        <ele>3932.5</ele>
        <time>2021-11-07T13:15:31Z</time>
      </trkpt>
      <trkpt lat="45.51521" lon="7.26928">
        <ele>3932.5</ele>
        <time>2021-11-07T13:15:36Z</time>
      </trkpt>
      <trkpt lat="45.51523" lon="7.26928">
        <ele>3932.7</ele>
        <time>2021-11-07T13:15:49Z</time>
      </trkpt>
      <trkpt lat="45.51523" lon="7.26928">
        <ele>3932.7</ele>
        <time>2021-11-07T13:15:51Z</time>
      </trkpt>
      <trkpt lat="45.51523" lon="7.26929">
        <ele>3932.8</ele>
        <time>2021-11-07T13:15:53Z</time>
      </trkpt>
      <trkpt lat="45.51525" lon="7.26928">
        <ele>3933.2</ele>
        <time>2021-11-07T13:16:04Z</time>
      </trkpt>
      <trkpt lat="45.51525" lon="7.26928">
        <ele>3933.3</ele>
        <time>2021-11-07T13:16:06Z</time>
      </trkpt>
      <trkpt lat="45.51526" lon="7.26927">
        <ele>3933.4</ele>
        <time>2021-11-07T13:16:13Z</time>
      </trkpt>
      <trkpt lat="45.51525" lon="7.26927">
        <ele>3933.4</ele>
        <time>2021-11-07T13:16:16Z</time>
      </trkpt>
      <trkpt lat="45.51524" lon="7.26926">
        <ele>3933.6</ele>
        <time>2021-11-07T13:16:21Z</time>
      </trkpt>
      <trkpt lat="45.51524" lon="7.26926">
        <ele>3933.7</ele>
        <time>2021-11-07T13:16:29Z</time>
      </trkpt>
      <trkpt lat="45.51524" lon="7.26926">
        <ele>3933.7</ele>
        <time>2021-11-07T13:16:30Z</time>
      </trkpt>
      <trkpt lat="45.51525" lon="7.26926">
        <ele>3933.7</ele>
        <time>2021-11-07T13:16:33Z</time>
      </trkpt>
      <trkpt lat="45.51525" lon="7.26925">
        <ele>3933.8</ele>
        <time>2021-11-07T13:16:42Z</time>
      </trkpt>
      <trkpt lat="45.51525" lon="7.26925">
        <ele>3933.9</ele>
        <time>2021-11-07T13:16:45Z</time>
      </trkpt>
      <trkpt lat="45.51525" lon="7.26925">
        <ele>3933.9</ele>
        <time>2021-11-07T13:16:48Z</time>
      </trkpt>
      <trkpt lat="45.51525" lon="7.26924">
        <ele>3934</ele>
        <time>2021-11-07T13:16:53Z</time>
      </trkpt>
      <trkpt lat="45.51525" lon="7.26924">
        <ele>3934</ele>
        <time>2021-11-07T13:16:56Z</time>
      </trkpt>
      <trkpt lat="45.51525" lon="7.26925">
        <ele>3934.2</ele>
        <time>2021-11-07T13:17:12Z</time>
      </trkpt>
      <trkpt lat="45.51523" lon="7.26927">
        <ele>3934.6</ele>
        <time>2021-11-07T13:17:22Z</time>
      </trkpt>
      <trkpt lat="45.51521" lon="7.26929">
        <ele>3935</ele>
        <time>2021-11-07T13:17:28Z</time>
      </trkpt>
      <trkpt lat="45.5152" lon="7.26929">
        <ele>3935.1</ele>
        <time>2021-11-07T13:17:29Z</time>
      </trkpt>
      <trkpt lat="45.51519" lon="7.26931">
        <ele>3935.4</ele>
        <time>2021-11-07T13:17:39Z</time>
      </trkpt>
      <trkpt lat="45.5152" lon="7.26931">
        <ele>3935.4</ele>
        <time>2021-11-07T13:17:43Z</time>
      </trkpt>
      <trkpt lat="45.51519" lon="7.26931">
        <ele>3935.5</ele>
        <time>2021-11-07T13:17:45Z</time>
      </trkpt>
      <trkpt lat="45.51518" lon="7.26932">
        <ele>3935.8</ele>
        <time>2021-11-07T13:17:54Z</time>
      </trkpt>
      <trkpt lat="45.51517" lon="7.26931">
        <ele>3936</ele>
        <time>2021-11-07T13:18:07Z</time>
      </trkpt>
      <trkpt lat="45.51518" lon="7.2693">
        <ele>3936.2</ele>
        <time>2021-11-07T13:18:17Z</time>
      </trkpt>
      <trkpt lat="45.51517" lon="7.2693">
        <ele>3936.3</ele>
        <time>2021-11-07T13:18:19Z</time>
      </trkpt>
      <trkpt lat="45.51518" lon="7.26929">
        <ele>3936.3</ele>
        <time>2021-11-07T13:18:22Z</time>
      </trkpt>
      <trkpt lat="45.51518" lon="7.26929">
        <ele>3936.4</ele>
        <time>2021-11-07T13:18:26Z</time>
      </trkpt>
      <trkpt lat="45.51518" lon="7.26929">
        <ele>3936.4</ele>
        <time>2021-11-07T13:18:28Z</time>
      </trkpt>
      <trkpt lat="45.51518" lon="7.26929">
        <ele>3936.5</ele>
        <time>2021-11-07T13:18:29Z</time>
      </trkpt>
      <trkpt lat="45.51518" lon="7.26929">
        <ele>3936.5</ele>
        <time>2021-11-07T13:18:30Z</time>
      </trkpt>
      <trkpt lat="45.51517" lon="7.2693">
        <ele>3936.6</ele>
        <time>2021-11-07T13:18:36Z</time>
      </trkpt>
      <trkpt lat="45.51517" lon="7.26931">
        <ele>3936.7</ele>
        <time>2021-11-07T13:18:41Z</time>
      </trkpt>
      <trkpt lat="45.51516" lon="7.2693">
        <ele>3936.8</ele>
        <time>2021-11-07T13:18:48Z</time>
      </trkpt>
      <trkpt lat="45.51516" lon="7.2693">
        <ele>3936.8</ele>
        <time>2021-11-07T13:18:49Z</time>
      </trkpt>
      <trkpt lat="45.51516" lon="7.26931">
        <ele>3936.8</ele>
        <time>2021-11-07T13:18:53Z</time>
      </trkpt>
      <trkpt lat="45.51517" lon="7.26931">
        <ele>3937</ele>
        <time>2021-11-07T13:18:55Z</time>
      </trkpt>
      <trkpt lat="45.51519" lon="7.26932">
        <ele>3937.3</ele>
        <time>2021-11-07T13:19:04Z</time>
      </trkpt>
      <trkpt lat="45.5152" lon="7.26932">
        <ele>3937.5</ele>
        <time>2021-11-07T13:19:15Z</time>
      </trkpt>
      <trkpt lat="45.51518" lon="7.26933">
        <ele>3937.7</ele>
        <time>2021-11-07T13:19:20Z</time>
      </trkpt>
      <trkpt lat="45.51519" lon="7.26931">
        <ele>3938.1</ele>
        <time>2021-11-07T13:19:33Z</time>
      </trkpt>
      <trkpt lat="45.51519" lon="7.26932">
        <ele>3938.3</ele>
        <time>2021-11-07T13:19:45Z</time>
      </trkpt>
      <trkpt lat="45.51519" lon="7.26933">
        <ele>3938.3</ele>
        <time>2021-11-07T13:19:48Z</time>
      </trkpt>
      <trkpt lat="45.51519" lon="7.26933">
        <ele>3938.4</ele>
        <time>2021-11-07T13:19:52Z</time>
      </trkpt>
      <trkpt lat="45.5152" lon="7.26932">
        <ele>3938.5</ele>
        <time>2021-11-07T13:19:55Z</time>
      </trkpt>
      <trkpt lat="45.51519" lon="7.26931">
        <ele>3938.7</ele>
        <time>2021-11-07T13:20:09Z</time>
      </trkpt>
      <trkpt lat="45.51519" lon="7.2693">
        <ele>3938.9</ele>
        <time>2021-11-07T13:20:16Z</time>
      </trkpt>
      <trkpt lat="45.51519" lon="7.2693">
        <ele>3939</ele>
        <time>2021-11-07T13:20:19Z</time>
      </trkpt>
      <trkpt lat="45.51519" lon="7.2693">
        <ele>3939</ele>
        <time>2021-11-07T13:20:24Z</time>
      </trkpt>
      <trkpt lat="45.51519" lon="7.26931">
        <ele>3939.1</ele>
        <time>2021-11-07T13:20:33Z</time>
      </trkpt>
      <trkpt lat="45.51519" lon="7.26931">
        <ele>3939.1</ele>
        <time>2021-11-07T13:20:36Z</time>
      </trkpt>
      <trkpt lat="45.51519" lon="7.26933">
        <ele>3939.4</ele>
        <time>2021-11-07T13:20:42Z</time>
      </trkpt>
      <trkpt lat="45.51517" lon="7.26934">
        <ele>3939.6</ele>
        <time>2021-11-07T13:20:45Z</time>
      </trkpt>
      <trkpt lat="45.51517" lon="7.26934">
        <ele>3939.8</ele>
        <time>2021-11-07T13:20:47Z</time>
      </trkpt>
      <trkpt lat="45.51516" lon="7.26934">
        <ele>3939.9</ele>
        <time>2021-11-07T13:20:49Z</time>
      </trkpt>
      <trkpt lat="45.51513" lon="7.26933">
        <ele>3940.4</ele>
        <time>2021-11-07T13:20:53Z</time>
      </trkpt>
      <trkpt lat="45.51512" lon="7.26934">
        <ele>3940.6</ele>
        <time>2021-11-07T13:20:56Z</time>
      </trkpt>
      <trkpt lat="45.51512" lon="7.26933">
        <ele>3940.7</ele>
        <time>2021-11-07T13:20:58Z</time>
      </trkpt>
      <trkpt lat="45.51511" lon="7.26934">
        <ele>3940.8</ele>
        <time>2021-11-07T13:21:05Z</time>
      </trkpt>
      <trkpt lat="45.51511" lon="7.26934">
        <ele>3940.8</ele>
        <time>2021-11-07T13:21:08Z</time>
      </trkpt>
      <trkpt lat="45.51511" lon="7.26934">
        <ele>3940.8</ele>
        <time>2021-11-07T13:21:09Z</time>
      </trkpt>
      <trkpt lat="45.51511" lon="7.26933">
        <ele>3940.8</ele>
        <time>2021-11-07T13:21:12Z</time>
      </trkpt>
      <trkpt lat="45.51511" lon="7.26933">
        <ele>3940.8</ele>
        <time>2021-11-07T13:21:13Z</time>
      </trkpt>
      <trkpt lat="45.5151" lon="7.26934">
        <ele>3941</ele>
        <time>2021-11-07T13:21:16Z</time>
      </trkpt>
      <trkpt lat="45.5151" lon="7.26934">
        <ele>3941.1</ele>
        <time>2021-11-07T13:21:22Z</time>
      </trkpt>
      <trkpt lat="45.51511" lon="7.26934">
        <ele>3941.2</ele>
        <time>2021-11-07T13:21:25Z</time>
      </trkpt>
      <trkpt lat="45.51511" lon="7.26934">
        <ele>3941.2</ele>
        <time>2021-11-07T13:21:26Z</time>
      </trkpt>
      <trkpt lat="45.51511" lon="7.26934">
        <ele>3941.2</ele>
        <time>2021-11-07T13:21:27Z</time>
      </trkpt>
      <trkpt lat="45.5151" lon="7.26934">
        <ele>3941.4</ele>
        <time>2021-11-07T13:21:37Z</time>
      </trkpt>
      <trkpt lat="45.5151" lon="7.26934">
        <ele>3941.4</ele>
        <time>2021-11-07T13:21:38Z</time>
      </trkpt>
      <trkpt lat="45.5151" lon="7.26934">
        <ele>3941.4</ele>
        <time>2021-11-07T13:21:41Z</time>
      </trkpt>
      <trkpt lat="45.5151" lon="7.26933">
        <ele>3941.5</ele>
        <time>2021-11-07T13:21:43Z</time>
      </trkpt>
      <trkpt lat="45.5151" lon="7.26933">
        <ele>3941.5</ele>
        <time>2021-11-07T13:21:46Z</time>
      </trkpt>
      <trkpt lat="45.5151" lon="7.26933">
        <ele>3941.6</ele>
        <time>2021-11-07T13:21:53Z</time>
      </trkpt>
      <trkpt lat="45.5151" lon="7.26932">
        <ele>3941.7</ele>
        <time>2021-11-07T13:21:57Z</time>
      </trkpt>
      <trkpt lat="45.5151" lon="7.26932">
        <ele>3941.7</ele>
        <time>2021-11-07T13:21:58Z</time>
      </trkpt>
      <trkpt lat="45.5151" lon="7.26932">
        <ele>3941.7</ele>
        <time>2021-11-07T13:21:59Z</time>
      </trkpt>
      <trkpt lat="45.51511" lon="7.26932">
        <ele>3941.8</ele>
        <time>2021-11-07T13:22:01Z</time>
      </trkpt>
      <trkpt lat="45.51512" lon="7.26931">
        <ele>3942</ele>
        <time>2021-11-07T13:22:08Z</time>
      </trkpt>
      <trkpt lat="45.51513" lon="7.26931">
        <ele>3942.1</ele>
        <time>2021-11-07T13:22:12Z</time>
      </trkpt>
      <trkpt lat="45.51515" lon="7.26929">
        <ele>3942.6</ele>
        <time>2021-11-07T13:22:21Z</time>
      </trkpt>
      <trkpt lat="45.51515" lon="7.26928">
        <ele>3942.7</ele>
        <time>2021-11-07T13:22:23Z</time>
      </trkpt>
      <trkpt lat="45.51516" lon="7.26928">
        <ele>3942.8</ele>
        <time>2021-11-07T13:22:30Z</time>
      </trkpt>
      <trkpt lat="45.51517" lon="7.26927">
        <ele>3943.1</ele>
        <time>2021-11-07T13:22:41Z</time>
      </trkpt>
      <trkpt lat="45.51518" lon="7.26927">
        <ele>3943.3</ele>
        <time>2021-11-07T13:22:44Z</time>
      </trkpt>
      <trkpt lat="45.51518" lon="7.26927">
        <ele>3943.3</ele>
        <time>2021-11-07T13:22:47Z</time>
      </trkpt>
      <trkpt lat="45.51518" lon="7.26927">
        <ele>3943.4</ele>
        <time>2021-11-07T13:22:49Z</time>
      </trkpt>
      <trkpt lat="45.51518" lon="7.26927">
        <ele>3943.4</ele>
        <time>2021-11-07T13:22:53Z</time>
      </trkpt>
      <trkpt lat="45.51519" lon="7.26927">
        <ele>3943.5</ele>
        <time>2021-11-07T13:22:55Z</time>
      </trkpt>
      <trkpt lat="45.51518" lon="7.26927">
        <ele>3943.5</ele>
        <time>2021-11-07T13:22:59Z</time>
      </trkpt>
      <trkpt lat="45.51519" lon="7.26927">
        <ele>3943.5</ele>
        <time>2021-11-07T13:23:03Z</time>
      </trkpt>
      <trkpt lat="45.51519" lon="7.26927">
        <ele>3943.5</ele>
        <time>2021-11-07T13:23:04Z</time>
      </trkpt>
      <trkpt lat="45.51518" lon="7.26927">
        <ele>3943.6</ele>
        <time>2021-11-07T13:23:11Z</time>
      </trkpt>
      <trkpt lat="45.51518" lon="7.26927">
        <ele>3943.6</ele>
        <time>2021-11-07T13:23:16Z</time>
      </trkpt>
      <trkpt lat="45.51518" lon="7.26925">
        <ele>3943.8</ele>
        <time>2021-11-07T13:23:26Z</time>
      </trkpt>
      <trkpt lat="45.51519" lon="7.26925">
        <ele>3943.9</ele>
        <time>2021-11-07T13:23:30Z</time>
      </trkpt>
      <trkpt lat="45.51523" lon="7.26927">
        <ele>3944.7</ele>
        <time>2021-11-07T13:23:42Z</time>
      </trkpt>
      <trkpt lat="45.51523" lon="7.26926">
        <ele>3944.7</ele>
        <time>2021-11-07T13:23:43Z</time>
      </trkpt>
      <trkpt lat="45.51523" lon="7.26926">
        <ele>3944.8</ele>
        <time>2021-11-07T13:23:44Z</time>
      </trkpt>
      <trkpt lat="45.51524" lon="7.26926">
        <ele>3944.9</ele>
        <time>2021-11-07T13:23:45Z</time>
      </trkpt>
      <trkpt lat="45.51524" lon="7.26926">
        <ele>3944.9</ele>
        <time>2021-11-07T13:23:46Z</time>
      </trkpt>
      <trkpt lat="45.51524" lon="7.26926">
        <ele>3945</ele>
        <time>2021-11-07T13:23:47Z</time>
      </trkpt>
      <trkpt lat="45.51523" lon="7.26926">
        <ele>3945</ele>
        <time>2021-11-07T13:23:48Z</time>
      </trkpt>
      <trkpt lat="45.51523" lon="7.26926">
        <ele>3945.1</ele>
        <time>2021-11-07T13:23:50Z</time>
      </trkpt>
      <trkpt lat="45.51523" lon="7.26926">
        <ele>3945.2</ele>
        <time>2021-11-07T13:23:51Z</time>
      </trkpt>
      <trkpt lat="45.51525" lon="7.26923">
        <ele>3945.8</ele>
        <time>2021-11-07T13:24:03Z</time>
      </trkpt>
      <trkpt lat="45.51527" lon="7.26922">
        <ele>3946.1</ele>
        <time>2021-11-07T13:24:07Z</time>
      </trkpt>
      <trkpt lat="45.51528" lon="7.26922">
        <ele>3946.3</ele>
        <time>2021-11-07T13:24:11Z</time>
      </trkpt>
      <trkpt lat="45.5153" lon="7.26921">
        <ele>3946.5</ele>
        <time>2021-11-07T13:24:14Z</time>
      </trkpt>
      <trkpt lat="45.51531" lon="7.26919">
        <ele>3946.8</ele>
        <time>2021-11-07T13:24:17Z</time>
      </trkpt>
      <trkpt lat="45.51532" lon="7.26919">
        <ele>3947.1</ele>
        <time>2021-11-07T13:24:20Z</time>
      </trkpt>
      <trkpt lat="45.51532" lon="7.26919">
        <ele>3947.1</ele>
        <time>2021-11-07T13:24:23Z</time>
      </trkpt>
      <trkpt lat="45.51532" lon="7.2692">
        <ele>3947.2</ele>
        <time>2021-11-07T13:24:25Z</time>
      </trkpt>
      <trkpt lat="45.51532" lon="7.2692">
        <ele>3947.2</ele>
        <time>2021-11-07T13:24:26Z</time>
      </trkpt>
      <trkpt lat="45.51535" lon="7.26919">
        <ele>3947.7</ele>
        <time>2021-11-07T13:24:32Z</time>
      </trkpt>
      <trkpt lat="45.51536" lon="7.26919">
        <ele>3947.8</ele>
        <time>2021-11-07T13:24:33Z</time>
      </trkpt>
      <trkpt lat="45.51537" lon="7.26919">
        <ele>3948.1</ele>
        <time>2021-11-07T13:24:37Z</time>
      </trkpt>
      <trkpt lat="45.51538" lon="7.26918">
        <ele>3948.2</ele>
        <time>2021-11-07T13:24:38Z</time>
      </trkpt>
      <trkpt lat="45.51538" lon="7.26918">
        <ele>3948.3</ele>
        <time>2021-11-07T13:24:40Z</time>
      </trkpt>
      <trkpt lat="45.51538" lon="7.26918">
        <ele>3948.3</ele>
        <time>2021-11-07T13:24:41Z</time>
      </trkpt>
      <trkpt lat="45.51539" lon="7.26917">
        <ele>3948.6</ele>
        <time>2021-11-07T13:24:43Z</time>
      </trkpt>
      <trkpt lat="45.51541" lon="7.26918">
        <ele>3948.9</ele>
        <time>2021-11-07T13:24:48Z</time>
      </trkpt>
      <trkpt lat="45.51542" lon="7.26918">
        <ele>3949.1</ele>
        <time>2021-11-07T13:24:50Z</time>
      </trkpt>
      <trkpt lat="45.51544" lon="7.26918">
        <ele>3949.3</ele>
        <time>2021-11-07T13:24:53Z</time>
      </trkpt>
      <trkpt lat="45.51545" lon="7.26917">
        <ele>3949.5</ele>
        <time>2021-11-07T13:24:55Z</time>
      </trkpt>
      <trkpt lat="45.51545" lon="7.26917">
        <ele>3949.6</ele>
        <time>2021-11-07T13:24:56Z</time>
      </trkpt>
      <trkpt lat="45.51545" lon="7.26917">
        <ele>3949.7</ele>
        <time>2021-11-07T13:24:57Z</time>
      </trkpt>
      <trkpt lat="45.51547" lon="7.26916">
        <ele>3950.1</ele>
        <time>2021-11-07T13:25:02Z</time>
      </trkpt>
      <trkpt lat="45.5155" lon="7.26915">
        <ele>3950.6</ele>
        <time>2021-11-07T13:25:10Z</time>
      </trkpt>
      <trkpt lat="45.51552" lon="7.26913">
        <ele>3951</ele>
        <time>2021-11-07T13:25:14Z</time>
      </trkpt>
      <trkpt lat="45.51553" lon="7.26913">
        <ele>3951.2</ele>
        <time>2021-11-07T13:25:16Z</time>
      </trkpt>
      <trkpt lat="45.51555" lon="7.26913">
        <ele>3951.4</ele>
        <time>2021-11-07T13:25:24Z</time>
      </trkpt>
      <trkpt lat="45.51555" lon="7.26913">
        <ele>3951.5</ele>
        <time>2021-11-07T13:25:29Z</time>
      </trkpt>
      <trkpt lat="45.51555" lon="7.26913">
        <ele>3951.5</ele>
        <time>2021-11-07T13:25:32Z</time>
      </trkpt>
      <trkpt lat="45.51558" lon="7.26911">
        <ele>3952</ele>
        <time>2021-11-07T13:25:41Z</time>
      </trkpt>
      <trkpt lat="45.5156" lon="7.26911">
        <ele>3952.3</ele>
        <time>2021-11-07T13:25:45Z</time>
      </trkpt>
      <trkpt lat="45.51561" lon="7.2691">
        <ele>3952.7</ele>
        <time>2021-11-07T13:25:50Z</time>
      </trkpt>
      <trkpt lat="45.51564" lon="7.26907">
        <ele>3953.3</ele>
        <time>2021-11-07T13:26:01Z</time>
      </trkpt>
      <trkpt lat="45.51564" lon="7.26907">
        <ele>3953.3</ele>
        <time>2021-11-07T13:26:03Z</time>
      </trkpt>
      <trkpt lat="45.51569" lon="7.26905">
        <ele>3954.3</ele>
        <time>2021-11-07T13:26:14Z</time>
      </trkpt>
      <trkpt lat="45.51569" lon="7.26905">
        <ele>3954.4</ele>
        <time>2021-11-07T13:26:15Z</time>
      </trkpt>
      <trkpt lat="45.51571" lon="7.26904">
        <ele>3954.7</ele>
        <time>2021-11-07T13:26:20Z</time>
      </trkpt>
      <trkpt lat="45.51573" lon="7.26903">
        <ele>3955</ele>
        <time>2021-11-07T13:26:25Z</time>
      </trkpt>
      <trkpt lat="45.51574" lon="7.26903">
        <ele>3955.3</ele>
        <time>2021-11-07T13:26:28Z</time>
      </trkpt>
      <trkpt lat="45.51576" lon="7.26903">
        <ele>3955.6</ele>
        <time>2021-11-07T13:26:33Z</time>
      </trkpt>
      <trkpt lat="45.51576" lon="7.26903">
        <ele>3955.6</ele>
        <time>2021-11-07T13:26:35Z</time>
      </trkpt>
      <trkpt lat="45.51577" lon="7.26902">
        <ele>3955.7</ele>
        <time>2021-11-07T13:26:37Z</time>
      </trkpt>
      <trkpt lat="45.51578" lon="7.26901">
        <ele>3956</ele>
        <time>2021-11-07T13:26:47Z</time>
      </trkpt>
      <trkpt lat="45.51578" lon="7.26901">
        <ele>3956</ele>
        <time>2021-11-07T13:26:48Z</time>
      </trkpt>
      <trkpt lat="45.5158" lon="7.26901">
        <ele>3956.4</ele>
        <time>2021-11-07T13:26:52Z</time>
      </trkpt>
      <trkpt lat="45.51582" lon="7.269">
        <ele>3956.7</ele>
        <time>2021-11-07T13:26:55Z</time>
      </trkpt>
      <trkpt lat="45.51582" lon="7.269">
        <ele>3956.7</ele>
        <time>2021-11-07T13:26:56Z</time>
      </trkpt>
      <trkpt lat="45.51582" lon="7.269">
        <ele>3956.7</ele>
        <time>2021-11-07T13:26:57Z</time>
      </trkpt>
      <trkpt lat="45.51581" lon="7.269">
        <ele>3956.8</ele>
        <time>2021-11-07T13:27:05Z</time>
      </trkpt>
      <trkpt lat="45.5158" lon="7.26899">
        <ele>3957.1</ele>
        <time>2021-11-07T13:27:09Z</time>
      </trkpt>
      <trkpt lat="45.5158" lon="7.26898">
        <ele>3957.3</ele>
        <time>2021-11-07T13:27:13Z</time>
      </trkpt>
      <trkpt lat="45.51581" lon="7.26898">
        <ele>3957.5</ele>
        <time>2021-11-07T13:27:20Z</time>
      </trkpt>
      <trkpt lat="45.51582" lon="7.26899">
        <ele>3957.6</ele>
        <time>2021-11-07T13:27:23Z</time>
      </trkpt>
      <trkpt lat="45.51583" lon="7.26899">
        <ele>3957.8</ele>
        <time>2021-11-07T13:27:26Z</time>
      </trkpt>
      <trkpt lat="45.51583" lon="7.26898">
        <ele>3957.9</ele>
        <time>2021-11-07T13:27:32Z</time>
      </trkpt>
      <trkpt lat="45.51583" lon="7.26897">
        <ele>3958</ele>
        <time>2021-11-07T13:27:42Z</time>
      </trkpt>
      <trkpt lat="45.51583" lon="7.26897">
        <ele>3958</ele>
        <time>2021-11-07T13:27:44Z</time>
      </trkpt>
      <trkpt lat="45.51585" lon="7.26896">
        <ele>3958.4</ele>
        <time>2021-11-07T13:27:49Z</time>
      </trkpt>
      <trkpt lat="45.51586" lon="7.26896">
        <ele>3958.4</ele>
        <time>2021-11-07T13:27:50Z</time>
      </trkpt>
      <trkpt lat="45.51586" lon="7.26895">
        <ele>3958.6</ele>
        <time>2021-11-07T13:27:52Z</time>
      </trkpt>
      <trkpt lat="45.51586" lon="7.26896">
        <ele>3958.6</ele>
        <time>2021-11-07T13:27:53Z</time>
      </trkpt>
      <trkpt lat="45.51587" lon="7.26895">
        <ele>3958.6</ele>
        <time>2021-11-07T13:27:55Z</time>
      </trkpt>
      <trkpt lat="45.51587" lon="7.26894">
        <ele>3958.8</ele>
        <time>2021-11-07T13:27:58Z</time>
      </trkpt>
      <trkpt lat="45.51588" lon="7.26895">
        <ele>3958.9</ele>
        <time>2021-11-07T13:28:01Z</time>
      </trkpt>
      <trkpt lat="45.51589" lon="7.26895">
        <ele>3959.1</ele>
        <time>2021-11-07T13:28:04Z</time>
      </trkpt>
      <trkpt lat="45.51589" lon="7.26895">
        <ele>3959.2</ele>
        <time>2021-11-07T13:28:05Z</time>
      </trkpt>
      <trkpt lat="45.51592" lon="7.26894">
        <ele>3959.7</ele>
        <time>2021-11-07T13:28:11Z</time>
      </trkpt>
      <trkpt lat="45.51593" lon="7.26895">
        <ele>3959.9</ele>
        <time>2021-11-07T13:28:16Z</time>
      </trkpt>
      <trkpt lat="45.51593" lon="7.26895">
        <ele>3959.9</ele>
        <time>2021-11-07T13:28:17Z</time>
      </trkpt>
      <trkpt lat="45.51593" lon="7.26895">
        <ele>3959.9</ele>
        <time>2021-11-07T13:28:21Z</time>
      </trkpt>
      <trkpt lat="45.51595" lon="7.26895">
        <ele>3960.2</ele>
        <time>2021-11-07T13:28:30Z</time>
      </trkpt>
      <trkpt lat="45.51595" lon="7.26895">
        <ele>3960.2</ele>
        <time>2021-11-07T13:28:31Z</time>
      </trkpt>
      <trkpt lat="45.51596" lon="7.26896">
        <ele>3960.4</ele>
        <time>2021-11-07T13:28:33Z</time>
      </trkpt>
      <trkpt lat="45.51597" lon="7.26896">
        <ele>3960.7</ele>
        <time>2021-11-07T13:28:37Z</time>
      </trkpt>
      <trkpt lat="45.51599" lon="7.26897">
        <ele>3960.9</ele>
        <time>2021-11-07T13:28:46Z</time>
      </trkpt>
      <trkpt lat="45.51599" lon="7.26897">
        <ele>3960.9</ele>
        <time>2021-11-07T13:28:47Z</time>
      </trkpt>
      <trkpt lat="45.51599" lon="7.26897">
        <ele>3960.9</ele>
        <time>2021-11-07T13:28:50Z</time>
      </trkpt>
      <trkpt lat="45.516" lon="7.26896">
        <ele>3961.2</ele>
        <time>2021-11-07T13:29:00Z</time>
      </trkpt>
      <trkpt lat="45.516" lon="7.26896">
        <ele>3961.2</ele>
        <time>2021-11-07T13:29:01Z</time>
      </trkpt>
      <trkpt lat="45.516" lon="7.26895">
        <ele>3961.3</ele>
        <time>2021-11-07T13:29:06Z</time>
      </trkpt>
      <trkpt lat="45.516" lon="7.26895">
        <ele>3961.3</ele>
        <time>2021-11-07T13:29:07Z</time>
      </trkpt>
      <trkpt lat="45.516" lon="7.26895">
        <ele>3961.3</ele>
        <time>2021-11-07T13:29:09Z</time>
      </trkpt>
      <trkpt lat="45.516" lon="7.26895">
        <ele>3961.3</ele>
        <time>2021-11-07T13:29:12Z</time>
      </trkpt>
      <trkpt lat="45.51602" lon="7.26895">
        <ele>3961.6</ele>
        <time>2021-11-07T13:29:20Z</time>
      </trkpt>
      <trkpt lat="45.51602" lon="7.26896">
        <ele>3961.7</ele>
        <time>2021-11-07T13:29:24Z</time>
      </trkpt>
      <trkpt lat="45.51602" lon="7.26896">
        <ele>3961.7</ele>
        <time>2021-11-07T13:29:25Z</time>
      </trkpt>
      <trkpt lat="45.516" lon="7.26894">
        <ele>3962.2</ele>
        <time>2021-11-07T13:29:31Z</time>
      </trkpt>
      <trkpt lat="45.516" lon="7.26893">
        <ele>3962.3</ele>
        <time>2021-11-07T13:29:34Z</time>
      </trkpt>
      <trkpt lat="45.51599" lon="7.26893">
        <ele>3962.3</ele>
        <time>2021-11-07T13:29:35Z</time>
      </trkpt>
      <trkpt lat="45.51599" lon="7.26893">
        <ele>3962.5</ele>
        <time>2021-11-07T13:29:38Z</time>
      </trkpt>
      <trkpt lat="45.51599" lon="7.26893">
        <ele>3962.6</ele>
        <time>2021-11-07T13:29:47Z</time>
      </trkpt>
      <trkpt lat="45.51599" lon="7.26893">
        <ele>3962.7</ele>
        <time>2021-11-07T13:29:50Z</time>
      </trkpt>
      <trkpt lat="45.51599" lon="7.26893">
        <ele>3962.8</ele>
        <time>2021-11-07T13:29:51Z</time>
      </trkpt>
      <trkpt lat="45.51599" lon="7.26893">
        <ele>3962.9</ele>
        <time>2021-11-07T13:29:58Z</time>
      </trkpt>
      <trkpt lat="45.51599" lon="7.26893">
        <ele>3962.9</ele>
        <time>2021-11-07T13:30:00Z</time>
      </trkpt>
      <trkpt lat="45.51599" lon="7.26893">
        <ele>3963</ele>
        <time>2021-11-07T13:30:04Z</time>
      </trkpt>
      <trkpt lat="45.516" lon="7.26892">
        <ele>3963.3</ele>
        <time>2021-11-07T13:30:10Z</time>
      </trkpt>
      <trkpt lat="45.516" lon="7.26892">
        <ele>3963.4</ele>
        <time>2021-11-07T13:30:13Z</time>
      </trkpt>
      <trkpt lat="45.51601" lon="7.26891">
        <ele>3963.7</ele>
        <time>2021-11-07T13:30:20Z</time>
      </trkpt>
      <trkpt lat="45.51601" lon="7.26891">
        <ele>3963.9</ele>
        <time>2021-11-07T13:30:21Z</time>
      </trkpt>
      <trkpt lat="45.51602" lon="7.26891">
        <ele>3964.1</ele>
        <time>2021-11-07T13:30:26Z</time>
      </trkpt>
      <trkpt lat="45.51603" lon="7.2689">
        <ele>3964.3</ele>
        <time>2021-11-07T13:30:36Z</time>
      </trkpt>
      <trkpt lat="45.51605" lon="7.26891">
        <ele>3964.6</ele>
        <time>2021-11-07T13:30:54Z</time>
      </trkpt>
      <trkpt lat="45.51605" lon="7.26891">
        <ele>3964.9</ele>
        <time>2021-11-07T13:31:02Z</time>
      </trkpt>
      <trkpt lat="45.51605" lon="7.2689">
        <ele>3964.9</ele>
        <time>2021-11-07T13:31:13Z</time>
      </trkpt>
      <trkpt lat="45.51605" lon="7.2689">
        <ele>3965</ele>
        <time>2021-11-07T13:31:15Z</time>
      </trkpt>
      <trkpt lat="45.51605" lon="7.2689">
        <ele>3965.1</ele>
        <time>2021-11-07T13:31:16Z</time>
      </trkpt>
      <trkpt lat="45.51605" lon="7.2689">
        <ele>3965.2</ele>
        <time>2021-11-07T13:31:19Z</time>
      </trkpt>
      <trkpt lat="45.51605" lon="7.2689">
        <ele>3965.3</ele>
        <time>2021-11-07T13:31:23Z</time>
      </trkpt>
      <trkpt lat="45.51605" lon="7.26889">
        <ele>3965.3</ele>
        <time>2021-11-07T13:31:24Z</time>
      </trkpt>
      <trkpt lat="45.51605" lon="7.26889">
        <ele>3965.5</ele>
        <time>2021-11-07T13:31:27Z</time>
      </trkpt>
      <trkpt lat="45.51605" lon="7.26889">
        <ele>3965.5</ele>
        <time>2021-11-07T13:31:28Z</time>
      </trkpt>
      <trkpt lat="45.51605" lon="7.26889">
        <ele>3965.6</ele>
        <time>2021-11-07T13:31:29Z</time>
      </trkpt>
      <trkpt lat="45.51605" lon="7.26889">
        <ele>3965.7</ele>
        <time>2021-11-07T13:31:30Z</time>
      </trkpt>
      <trkpt lat="45.51606" lon="7.26888">
        <ele>3965.8</ele>
        <time>2021-11-07T13:31:34Z</time>
      </trkpt>
      <trkpt lat="45.51606" lon="7.26888">
        <ele>3965.9</ele>
        <time>2021-11-07T13:31:40Z</time>
      </trkpt>
      <trkpt lat="45.51606" lon="7.26888">
        <ele>3966</ele>
        <time>2021-11-07T13:31:45Z</time>
      </trkpt>
      <trkpt lat="45.51606" lon="7.26888">
        <ele>3966</ele>
        <time>2021-11-07T13:31:48Z</time>
      </trkpt>
      <trkpt lat="45.51606" lon="7.26888">
        <ele>3966.2</ele>
        <time>2021-11-07T13:32:03Z</time>
      </trkpt>
      <trkpt lat="45.51606" lon="7.26889">
        <ele>3966.3</ele>
        <time>2021-11-07T13:32:09Z</time>
      </trkpt>
      <trkpt lat="45.51606" lon="7.26889">
        <ele>3966.4</ele>
        <time>2021-11-07T13:32:12Z</time>
      </trkpt>
      <trkpt lat="45.51606" lon="7.26889">
        <ele>3966.5</ele>
        <time>2021-11-07T13:32:16Z</time>
      </trkpt>
      <trkpt lat="45.51606" lon="7.26889">
        <ele>3966.6</ele>
        <time>2021-11-07T13:32:18Z</time>
      </trkpt>
      <trkpt lat="45.51606" lon="7.26889">
        <ele>3966.6</ele>
        <time>2021-11-07T13:32:19Z</time>
      </trkpt>
      <trkpt lat="45.51606" lon="7.26889">
        <ele>3966.7</ele>
        <time>2021-11-07T13:32:20Z</time>
      </trkpt>
      <trkpt lat="45.51606" lon="7.26889">
        <ele>3966.8</ele>
        <time>2021-11-07T13:32:28Z</time>
      </trkpt>
      <trkpt lat="45.51605" lon="7.26889">
        <ele>3967</ele>
        <time>2021-11-07T13:32:37Z</time>
      </trkpt>
      <trkpt lat="45.51605" lon="7.26889">
        <ele>3967</ele>
        <time>2021-11-07T13:32:42Z</time>
      </trkpt>
      <trkpt lat="45.51606" lon="7.26889">
        <ele>3967.2</ele>
        <time>2021-11-07T13:32:47Z</time>
      </trkpt>
      <trkpt lat="45.51607" lon="7.26887">
        <ele>3967.6</ele>
        <time>2021-11-07T13:32:53Z</time>
      </trkpt>
      <trkpt lat="45.51609" lon="7.26885">
        <ele>3967.9</ele>
        <time>2021-11-07T13:32:58Z</time>
      </trkpt>
      <trkpt lat="45.5161" lon="7.26884">
        <ele>3968.1</ele>
        <time>2021-11-07T13:33:01Z</time>
      </trkpt>
      <trkpt lat="45.5161" lon="7.26884">
        <ele>3968.2</ele>
        <time>2021-11-07T13:33:06Z</time>
      </trkpt>
      <trkpt lat="45.51611" lon="7.26884">
        <ele>3968.4</ele>
        <time>2021-11-07T13:33:25Z</time>
      </trkpt>
      <trkpt lat="45.5161" lon="7.26885">
        <ele>3968.5</ele>
        <time>2021-11-07T13:33:32Z</time>
      </trkpt>
      <trkpt lat="45.51611" lon="7.26885">
        <ele>3968.7</ele>
        <time>2021-11-07T13:33:37Z</time>
      </trkpt>
      <trkpt lat="45.51612" lon="7.26885">
        <ele>3968.9</ele>
        <time>2021-11-07T13:33:40Z</time>
      </trkpt>
      <trkpt lat="45.51612" lon="7.26884">
        <ele>3969</ele>
        <time>2021-11-07T13:33:44Z</time>
      </trkpt>
      <trkpt lat="45.51613" lon="7.26884">
        <ele>3969.1</ele>
        <time>2021-11-07T13:33:45Z</time>
      </trkpt>
      <trkpt lat="45.51614" lon="7.26884">
        <ele>3969.2</ele>
        <time>2021-11-07T13:33:49Z</time>
      </trkpt>
      <trkpt lat="45.51614" lon="7.26884">
        <ele>3969.3</ele>
        <time>2021-11-07T13:33:54Z</time>
      </trkpt>
      <trkpt lat="45.51614" lon="7.26883">
        <ele>3969.5</ele>
        <time>2021-11-07T13:34:06Z</time>
      </trkpt>
      <trkpt lat="45.51614" lon="7.26883">
        <ele>3969.5</ele>
        <time>2021-11-07T13:34:08Z</time>
      </trkpt>
      <trkpt lat="45.51615" lon="7.26883">
        <ele>3969.6</ele>
        <time>2021-11-07T13:34:18Z</time>
      </trkpt>
      <trkpt lat="45.51615" lon="7.26883">
        <ele>3969.7</ele>
        <time>2021-11-07T13:34:19Z</time>
      </trkpt>
      <trkpt lat="45.51615" lon="7.26883">
        <ele>3969.7</ele>
        <time>2021-11-07T13:34:21Z</time>
      </trkpt>
      <trkpt lat="45.51615" lon="7.26883">
        <ele>3969.8</ele>
        <time>2021-11-07T13:34:25Z</time>
      </trkpt>
      <trkpt lat="45.51615" lon="7.26883">
        <ele>3969.8</ele>
        <time>2021-11-07T13:34:30Z</time>
      </trkpt>
      <trkpt lat="45.51616" lon="7.26883">
        <ele>3970</ele>
        <time>2021-11-07T13:34:31Z</time>
      </trkpt>
      <trkpt lat="45.51616" lon="7.26882">
        <ele>3970.1</ele>
        <time>2021-11-07T13:34:33Z</time>
      </trkpt>
      <trkpt lat="45.51616" lon="7.26881">
        <ele>3970.2</ele>
        <time>2021-11-07T13:34:36Z</time>
      </trkpt>
      <trkpt lat="45.51617" lon="7.26881">
        <ele>3970.3</ele>
        <time>2021-11-07T13:34:44Z</time>
      </trkpt>
      <trkpt lat="45.51617" lon="7.2688">
        <ele>3970.4</ele>
        <time>2021-11-07T13:34:45Z</time>
      </trkpt>
      <trkpt lat="45.51618" lon="7.26881">
        <ele>3970.5</ele>
        <time>2021-11-07T13:34:52Z</time>
      </trkpt>
      <trkpt lat="45.51618" lon="7.26881">
        <ele>3970.6</ele>
        <time>2021-11-07T13:34:55Z</time>
      </trkpt>
      <trkpt lat="45.51619" lon="7.26881">
        <ele>3970.6</ele>
        <time>2021-11-07T13:35:07Z</time>
      </trkpt>
      <trkpt lat="45.5162" lon="7.2688">
        <ele>3970.9</ele>
        <time>2021-11-07T13:35:19Z</time>
      </trkpt>
      <trkpt lat="45.51621" lon="7.26879">
        <ele>3971</ele>
        <time>2021-11-07T13:35:21Z</time>
      </trkpt>
      <trkpt lat="45.51621" lon="7.26879">
        <ele>3971.1</ele>
        <time>2021-11-07T13:35:23Z</time>
      </trkpt>
      <trkpt lat="45.51622" lon="7.26879">
        <ele>3971.2</ele>
        <time>2021-11-07T13:35:29Z</time>
      </trkpt>
      <trkpt lat="45.51622" lon="7.26879">
        <ele>3971.2</ele>
        <time>2021-11-07T13:35:30Z</time>
      </trkpt>
      <trkpt lat="45.51622" lon="7.26879">
        <ele>3971.3</ele>
        <time>2021-11-07T13:35:32Z</time>
      </trkpt>
      <trkpt lat="45.51623" lon="7.26878">
        <ele>3971.4</ele>
        <time>2021-11-07T13:35:36Z</time>
      </trkpt>
      <trkpt lat="45.51624" lon="7.26879">
        <ele>3971.5</ele>
        <time>2021-11-07T13:35:45Z</time>
      </trkpt>
      <trkpt lat="45.51624" lon="7.26879">
        <ele>3971.6</ele>
        <time>2021-11-07T13:35:54Z</time>
      </trkpt>
      <trkpt lat="45.51625" lon="7.26877">
        <ele>3971.8</ele>
        <time>2021-11-07T13:35:58Z</time>
      </trkpt>
      <trkpt lat="45.51628" lon="7.26877">
        <ele>3972.1</ele>
        <time>2021-11-07T13:36:11Z</time>
      </trkpt>
      <trkpt lat="45.51629" lon="7.26876">
        <ele>3972.3</ele>
        <time>2021-11-07T13:36:25Z</time>
      </trkpt>
      <trkpt lat="45.5163" lon="7.26876">
        <ele>3972.3</ele>
        <time>2021-11-07T13:36:28Z</time>
      </trkpt>
      <trkpt lat="45.51631" lon="7.26875">
        <ele>3972.5</ele>
        <time>2021-11-07T13:36:35Z</time>
      </trkpt>
      <trkpt lat="45.51632" lon="7.26875">
        <ele>3972.5</ele>
        <time>2021-11-07T13:36:39Z</time>
      </trkpt>
      <trkpt lat="45.51633" lon="7.26874">
        <ele>3972.8</ele>
        <time>2021-11-07T13:36:54Z</time>
      </trkpt>
      <trkpt lat="45.51637" lon="7.26871">
        <ele>3973</ele>
        <time>2021-11-07T13:37:00Z</time>
      </trkpt>
      <trkpt lat="45.51638" lon="7.26871">
        <ele>3973.2</ele>
        <time>2021-11-07T13:37:03Z</time>
      </trkpt>
      <trkpt lat="45.51639" lon="7.26871">
        <ele>3973.3</ele>
        <time>2021-11-07T13:37:06Z</time>
      </trkpt>
      <trkpt lat="45.51641" lon="7.2687">
        <ele>3973.5</ele>
        <time>2021-11-07T13:37:13Z</time>
      </trkpt>
      <trkpt lat="45.51642" lon="7.2687">
        <ele>3973.6</ele>
        <time>2021-11-07T13:37:14Z</time>
      </trkpt>
      <trkpt lat="45.51642" lon="7.2687">
        <ele>3973.6</ele>
        <time>2021-11-07T13:37:15Z</time>
      </trkpt>
      <trkpt lat="45.51644" lon="7.2687">
        <ele>3973.7</ele>
        <time>2021-11-07T13:37:19Z</time>
      </trkpt>
      <trkpt lat="45.51645" lon="7.2687">
        <ele>3973.7</ele>
        <time>2021-11-07T13:37:23Z</time>
      </trkpt>
      <trkpt lat="45.51646" lon="7.2687">
        <ele>3974</ele>
        <time>2021-11-07T13:37:27Z</time>
      </trkpt>
      <trkpt lat="45.51648" lon="7.26869">
        <ele>3974.1</ele>
        <time>2021-11-07T13:37:34Z</time>
      </trkpt>
      <trkpt lat="45.51648" lon="7.26869">
        <ele>3974.1</ele>
        <time>2021-11-07T13:37:35Z</time>
      </trkpt>
      <trkpt lat="45.5165" lon="7.26868">
        <ele>3974.2</ele>
        <time>2021-11-07T13:37:43Z</time>
      </trkpt>
      <trkpt lat="45.5165" lon="7.26868">
        <ele>3974.3</ele>
        <time>2021-11-07T13:37:44Z</time>
      </trkpt>
      <trkpt lat="45.51655" lon="7.26864">
        <ele>3974.3</ele>
        <time>2021-11-07T13:37:58Z</time>
      </trkpt>
      <trkpt lat="45.51656" lon="7.26862">
        <ele>3974.3</ele>
        <time>2021-11-07T13:38:04Z</time>
      </trkpt>
      <trkpt lat="45.51655" lon="7.26863">
        <ele>3974.3</ele>
        <time>2021-11-07T13:38:06Z</time>
      </trkpt>
      <trkpt lat="45.51655" lon="7.26862">
        <ele>3974.3</ele>
        <time>2021-11-07T13:38:07Z</time>
      </trkpt>
      <trkpt lat="45.51655" lon="7.26862">
        <ele>3974.3</ele>
        <time>2021-11-07T13:38:12Z</time>
      </trkpt>
      <trkpt lat="45.51655" lon="7.26861">
        <ele>3974.3</ele>
        <time>2021-11-07T13:38:25Z</time>
      </trkpt>
      <trkpt lat="45.51656" lon="7.26861">
        <ele>3974.3</ele>
        <time>2021-11-07T13:38:26Z</time>
      </trkpt>
      <trkpt lat="45.51656" lon="7.26861">
        <ele>3974.3</ele>
        <time>2021-11-07T13:38:27Z</time>
      </trkpt>
      <trkpt lat="45.51657" lon="7.26861">
        <ele>3974.3</ele>
        <time>2021-11-07T13:38:28Z</time>
      </trkpt>
      <trkpt lat="45.51658" lon="7.26859">
        <ele>3974.3</ele>
        <time>2021-11-07T13:38:31Z</time>
      </trkpt>
      <trkpt lat="45.51658" lon="7.26859">
        <ele>3974.3</ele>
        <time>2021-11-07T13:38:34Z</time>
      </trkpt>
      <trkpt lat="45.51658" lon="7.26858">
        <ele>3974.3</ele>
        <time>2021-11-07T13:38:38Z</time>
      </trkpt>
      <trkpt lat="45.51658" lon="7.26858">
        <ele>3974.3</ele>
        <time>2021-11-07T13:38:39Z</time>
      </trkpt>
      <trkpt lat="45.51658" lon="7.26858">
        <ele>3974.3</ele>
        <time>2021-11-07T13:38:41Z</time>
      </trkpt>
      <trkpt lat="45.51658" lon="7.26858">
        <ele>3974.3</ele>
        <time>2021-11-07T13:38:42Z</time>
      </trkpt>
      <trkpt lat="45.51658" lon="7.26858">
        <ele>3974.3</ele>
        <time>2021-11-07T13:38:43Z</time>
      </trkpt>
      <trkpt lat="45.51658" lon="7.26858">
        <ele>3974.3</ele>
        <time>2021-11-07T13:38:52Z</time>
      </trkpt>
      <trkpt lat="45.51658" lon="7.26859">
        <ele>3974.3</ele>
        <time>2021-11-07T13:39:00Z</time>
      </trkpt>
      <trkpt lat="45.51658" lon="7.26859">
        <ele>3974.3</ele>
        <time>2021-11-07T13:39:06Z</time>
      </trkpt>
      <trkpt lat="45.51657" lon="7.26859">
        <ele>3974.3</ele>
        <time>2021-11-07T13:39:09Z</time>
      </trkpt>
      <trkpt lat="45.51657" lon="7.26858">
        <ele>3974.3</ele>
        <time>2021-11-07T13:39:14Z</time>
      </trkpt>
      <trkpt lat="45.51658" lon="7.26858">
        <ele>3974.3</ele>
        <time>2021-11-07T13:39:17Z</time>
      </trkpt>
      <trkpt lat="45.51658" lon="7.26858">
        <ele>3974.3</ele>
        <time>2021-11-07T13:39:22Z</time>
      </trkpt>
      <trkpt lat="45.51658" lon="7.26859">
        <ele>3974.3</ele>
        <time>2021-11-07T13:39:25Z</time>
      </trkpt>
      <trkpt lat="45.51657" lon="7.26859">
        <ele>3974.3</ele>
        <time>2021-11-07T13:39:34Z</time>
      </trkpt>
      <trkpt lat="45.51657" lon="7.26859">
        <ele>3974.3</ele>
        <time>2021-11-07T13:39:42Z</time>
      </trkpt>
      <trkpt lat="45.51657" lon="7.26859">
        <ele>3974.3</ele>
        <time>2021-11-07T13:39:45Z</time>
      </trkpt>
      <trkpt lat="45.51657" lon="7.26859">
        <ele>3974.3</ele>
        <time>2021-11-07T13:39:46Z</time>
      </trkpt>
      <trkpt lat="45.51657" lon="7.26859">
        <ele>3974.3</ele>
        <time>2021-11-07T13:39:47Z</time>
      </trkpt>
      <trkpt lat="45.51657" lon="7.26859">
        <ele>3974.3</ele>
        <time>2021-11-07T13:39:49Z</time>
      </trkpt>
      <trkpt lat="45.51657" lon="7.26859">
        <ele>3974.3</ele>
        <time>2021-11-07T13:39:55Z</time>
      </trkpt>
      <trkpt lat="45.51657" lon="7.26859">
        <ele>3974.3</ele>
        <time>2021-11-07T13:39:57Z</time>
      </trkpt>
      <trkpt lat="45.51658" lon="7.26859">
        <ele>3974.3</ele>
        <time>2021-11-07T13:40:02Z</time>
      </trkpt>
      <trkpt lat="45.51658" lon="7.26859">
        <ele>3974.3</ele>
        <time>2021-11-07T13:40:07Z</time>
      </trkpt>
      <trkpt lat="45.51658" lon="7.26859">
        <ele>3974.3</ele>
        <time>2021-11-07T13:40:11Z</time>
      </trkpt>
      <trkpt lat="45.51658" lon="7.26859">
        <ele>3974.3</ele>
        <time>2021-11-07T13:40:21Z</time>
      </trkpt>
      <trkpt lat="45.51658" lon="7.26859">
        <ele>3974.3</ele>
        <time>2021-11-07T13:40:22Z</time>
      </trkpt>
      <trkpt lat="45.51658" lon="7.26859">
        <ele>3974.3</ele>
        <time>2021-11-07T13:40:24Z</time>
      </trkpt>
      <trkpt lat="45.51658" lon="7.26858">
        <ele>3974.3</ele>
        <time>2021-11-07T13:40:26Z</time>
      </trkpt>
      <trkpt lat="45.51659" lon="7.2686">
        <ele>3974.3</ele>
        <time>2021-11-07T13:40:41Z</time>
      </trkpt>
      <trkpt lat="45.51659" lon="7.26859">
        <ele>3974.3</ele>
        <time>2021-11-07T13:40:51Z</time>
      </trkpt>
      <trkpt lat="45.51659" lon="7.26859">
        <ele>3974.3</ele>
        <time>2021-11-07T13:40:57Z</time>
      </trkpt>
      <trkpt lat="45.51659" lon="7.26859">
        <ele>3974.3</ele>
        <time>2021-11-07T13:40:58Z</time>
      </trkpt>
      <trkpt lat="45.51659" lon="7.26859">
        <ele>3974.3</ele>
        <time>2021-11-07T13:41:02Z</time>
      </trkpt>
      <trkpt lat="45.51659" lon="7.2686">
        <ele>3974.3</ele>
        <time>2021-11-07T13:41:04Z</time>
      </trkpt>
      <trkpt lat="45.51659" lon="7.2686">
        <ele>3974.3</ele>
        <time>2021-11-07T13:41:13Z</time>
      </trkpt>
      <trkpt lat="45.51659" lon="7.2686">
        <ele>3974.3</ele>
        <time>2021-11-07T13:41:15Z</time>
      </trkpt>
      <trkpt lat="45.51658" lon="7.26859">
        <ele>3974.3</ele>
        <time>2021-11-07T13:41:29Z</time>
      </trkpt>
      <trkpt lat="45.51658" lon="7.26859">
        <ele>3974.3</ele>
        <time>2021-11-07T13:41:33Z</time>
      </trkpt>
      <trkpt lat="45.51658" lon="7.26859">
        <ele>3974.3</ele>
        <time>2021-11-07T13:41:34Z</time>
      </trkpt>
      <trkpt lat="45.51658" lon="7.26859">
        <ele>3974.3</ele>
        <time>2021-11-07T13:41:36Z</time>
      </trkpt>
      <trkpt lat="45.51658" lon="7.26859">
        <ele>3974.3</ele>
        <time>2021-11-07T13:41:47Z</time>
      </trkpt>
      <trkpt lat="45.51659" lon="7.26858">
        <ele>3974.3</ele>
        <time>2021-11-07T13:41:49Z</time>
      </trkpt>
      <trkpt lat="45.5166" lon="7.26857">
        <ele>3974.3</ele>
        <time>2021-11-07T13:41:52Z</time>
      </trkpt>
      <trkpt lat="45.51661" lon="7.26856">
        <ele>3974.3</ele>
        <time>2021-11-07T13:41:56Z</time>
      </trkpt>
      <trkpt lat="45.51662" lon="7.26855">
        <ele>3974.3</ele>
        <time>2021-11-07T13:41:59Z</time>
      </trkpt>
      <trkpt lat="45.51663" lon="7.26855">
        <ele>3974.5</ele>
        <time>2021-11-07T13:42:00Z</time>
      </trkpt>
      <trkpt lat="45.51664" lon="7.26855">
        <ele>3974.6</ele>
        <time>2021-11-07T13:42:06Z</time>
      </trkpt>
      <trkpt lat="45.51664" lon="7.26856">
        <ele>3974.6</ele>
        <time>2021-11-07T13:42:16Z</time>
      </trkpt>
      <trkpt lat="45.51664" lon="7.26854">
        <ele>3974.7</ele>
        <time>2021-11-07T13:42:26Z</time>
      </trkpt>
      <trkpt lat="45.51664" lon="7.26854">
        <ele>3974.7</ele>
        <time>2021-11-07T13:42:27Z</time>
      </trkpt>
      <trkpt lat="45.51665" lon="7.26855">
        <ele>3974.8</ele>
        <time>2021-11-07T13:42:32Z</time>
      </trkpt>
      <trkpt lat="45.51665" lon="7.26854">
        <ele>3974.8</ele>
        <time>2021-11-07T13:42:34Z</time>
      </trkpt>
      <trkpt lat="45.51665" lon="7.26854">
        <ele>3974.8</ele>
        <time>2021-11-07T13:42:36Z</time>
      </trkpt>
      <trkpt lat="45.51665" lon="7.26855">
        <ele>3974.8</ele>
        <time>2021-11-07T13:42:55Z</time>
      </trkpt>
      <trkpt lat="45.51664" lon="7.26855">
        <ele>3974.9</ele>
        <time>2021-11-07T13:43:01Z</time>
      </trkpt>
      <trkpt lat="45.51664" lon="7.26855">
        <ele>3974.9</ele>
        <time>2021-11-07T13:43:04Z</time>
      </trkpt>
      <trkpt lat="45.51664" lon="7.26856">
        <ele>3974.9</ele>
        <time>2021-11-07T13:43:05Z</time>
      </trkpt>
      <trkpt lat="45.51664" lon="7.26856">
        <ele>3974.9</ele>
        <time>2021-11-07T13:43:06Z</time>
      </trkpt>
      <trkpt lat="45.51664" lon="7.26855">
        <ele>3974.9</ele>
        <time>2021-11-07T13:43:14Z</time>
      </trkpt>
      <trkpt lat="45.51664" lon="7.26855">
        <ele>3975</ele>
        <time>2021-11-07T13:43:17Z</time>
      </trkpt>
      <trkpt lat="45.51664" lon="7.26854">
        <ele>3975</ele>
        <time>2021-11-07T13:43:25Z</time>
      </trkpt>
      <trkpt lat="45.51664" lon="7.26854">
        <ele>3975</ele>
        <time>2021-11-07T13:43:32Z</time>
      </trkpt>
      <trkpt lat="45.51664" lon="7.26854">
        <ele>3975</ele>
        <time>2021-11-07T13:43:33Z</time>
      </trkpt>
      <trkpt lat="45.51664" lon="7.26855">
        <ele>3975</ele>
        <time>2021-11-07T13:43:43Z</time>
      </trkpt>
      <trkpt lat="45.51664" lon="7.26855">
        <ele>3975</ele>
        <time>2021-11-07T13:43:45Z</time>
      </trkpt>
      <trkpt lat="45.51664" lon="7.26856">
        <ele>3975.1</ele>
        <time>2021-11-07T13:43:53Z</time>
      </trkpt>
      <trkpt lat="45.51662" lon="7.26852">
        <ele>3975.3</ele>
        <time>2021-11-07T13:44:07Z</time>
      </trkpt>
      <trkpt lat="45.51662" lon="7.26851">
        <ele>3975.3</ele>
        <time>2021-11-07T13:44:10Z</time>
      </trkpt>
      <trkpt lat="45.51662" lon="7.2685">
        <ele>3975.3</ele>
        <time>2021-11-07T13:44:17Z</time>
      </trkpt>
      <trkpt lat="45.51662" lon="7.2685">
        <ele>3975.3</ele>
        <time>2021-11-07T13:44:24Z</time>
      </trkpt>
      <trkpt lat="45.51662" lon="7.2685">
        <ele>3975.3</ele>
        <time>2021-11-07T13:44:25Z</time>
      </trkpt>
      <trkpt lat="45.51662" lon="7.2685">
        <ele>3975.3</ele>
        <time>2021-11-07T13:44:26Z</time>
      </trkpt>
      <trkpt lat="45.51662" lon="7.2685">
        <ele>3975.4</ele>
        <time>2021-11-07T13:44:27Z</time>
      </trkpt>
      <trkpt lat="45.51661" lon="7.2685">
        <ele>3975.4</ele>
        <time>2021-11-07T13:44:33Z</time>
      </trkpt>
      <trkpt lat="45.51661" lon="7.2685">
        <ele>3975.4</ele>
        <time>2021-11-07T13:44:39Z</time>
      </trkpt>
      <trkpt lat="45.51662" lon="7.26851">
        <ele>3975.5</ele>
        <time>2021-11-07T13:44:44Z</time>
      </trkpt>
      <trkpt lat="45.51661" lon="7.26851">
        <ele>3975.5</ele>
        <time>2021-11-07T13:44:45Z</time>
      </trkpt>
      <trkpt lat="45.51662" lon="7.26851">
        <ele>3975.5</ele>
        <time>2021-11-07T13:44:49Z</time>
      </trkpt>
      <trkpt lat="45.51661" lon="7.26851">
        <ele>3975.5</ele>
        <time>2021-11-07T13:44:57Z</time>
      </trkpt>
      <trkpt lat="45.51661" lon="7.26851">
        <ele>3975.5</ele>
        <time>2021-11-07T13:44:58Z</time>
      </trkpt>
      <trkpt lat="45.51661" lon="7.26851">
        <ele>3975.5</ele>
        <time>2021-11-07T13:45:03Z</time>
      </trkpt>
      <trkpt lat="45.5166" lon="7.26851">
        <ele>3975.6</ele>
        <time>2021-11-07T13:45:10Z</time>
      </trkpt>
      <trkpt lat="45.5166" lon="7.26851">
        <ele>3975.6</ele>
        <time>2021-11-07T13:45:12Z</time>
      </trkpt>
      <trkpt lat="45.5166" lon="7.26851">
        <ele>3975.6</ele>
        <time>2021-11-07T13:45:14Z</time>
      </trkpt>
      <trkpt lat="45.5166" lon="7.26851">
        <ele>3975.6</ele>
        <time>2021-11-07T13:45:15Z</time>
      </trkpt>
      <trkpt lat="45.5166" lon="7.26851">
        <ele>3975.6</ele>
        <time>2021-11-07T13:45:16Z</time>
      </trkpt>
      <trkpt lat="45.5166" lon="7.26851">
        <ele>3975.6</ele>
        <time>2021-11-07T13:45:18Z</time>
      </trkpt>
      <trkpt lat="45.51659" lon="7.2685">
        <ele>3975.6</ele>
        <time>2021-11-07T13:45:23Z</time>
      </trkpt>
      <trkpt lat="45.5166" lon="7.2685">
        <ele>3975.6</ele>
        <time>2021-11-07T13:45:29Z</time>
      </trkpt>
      <trkpt lat="45.51659" lon="7.26849">
        <ele>3975.7</ele>
        <time>2021-11-07T13:45:31Z</time>
      </trkpt>
      <trkpt lat="45.51662" lon="7.26849">
        <ele>3975.8</ele>
        <time>2021-11-07T13:45:38Z</time>
      </trkpt>
      <trkpt lat="45.51662" lon="7.26849">
        <ele>3975.8</ele>
        <time>2021-11-07T13:45:39Z</time>
      </trkpt>
      <trkpt lat="45.51663" lon="7.26849">
        <ele>3975.8</ele>
        <time>2021-11-07T13:45:42Z</time>
      </trkpt>
      <trkpt lat="45.51664" lon="7.26849">
        <ele>3975.9</ele>
        <time>2021-11-07T13:45:45Z</time>
      </trkpt>
      <trkpt lat="45.51663" lon="7.2685">
        <ele>3975.9</ele>
        <time>2021-11-07T13:45:49Z</time>
      </trkpt>
      <trkpt lat="45.51663" lon="7.2685">
        <ele>3975.9</ele>
        <time>2021-11-07T13:45:51Z</time>
      </trkpt>
      <trkpt lat="45.51663" lon="7.2685">
        <ele>3975.9</ele>
        <time>2021-11-07T13:46:02Z</time>
      </trkpt>
      <trkpt lat="45.51663" lon="7.2685">
        <ele>3976</ele>
        <time>2021-11-07T13:46:04Z</time>
      </trkpt>
      <trkpt lat="45.51663" lon="7.2685">
        <ele>3976</ele>
        <time>2021-11-07T13:46:06Z</time>
      </trkpt>
      <trkpt lat="45.51662" lon="7.2685">
        <ele>3976</ele>
        <time>2021-11-07T13:46:10Z</time>
      </trkpt>
      <trkpt lat="45.51663" lon="7.26849">
        <ele>3976</ele>
        <time>2021-11-07T13:46:16Z</time>
      </trkpt>
      <trkpt lat="45.51665" lon="7.26848">
        <ele>3976.1</ele>
        <time>2021-11-07T13:46:22Z</time>
      </trkpt>
      <trkpt lat="45.51667" lon="7.26847">
        <ele>3976.2</ele>
        <time>2021-11-07T13:46:29Z</time>
      </trkpt>
      <trkpt lat="45.51667" lon="7.26846">
        <ele>3976.3</ele>
        <time>2021-11-07T13:46:32Z</time>
      </trkpt>
      <trkpt lat="45.51669" lon="7.26847">
        <ele>3976.4</ele>
        <time>2021-11-07T13:46:36Z</time>
      </trkpt>
      <trkpt lat="45.51672" lon="7.26848">
        <ele>3976.5</ele>
        <time>2021-11-07T13:46:41Z</time>
      </trkpt>
      <trkpt lat="45.51674" lon="7.2685">
        <ele>3976.6</ele>
        <time>2021-11-07T13:46:50Z</time>
      </trkpt>
      <trkpt lat="45.51674" lon="7.2685">
        <ele>3976.6</ele>
        <time>2021-11-07T13:46:51Z</time>
      </trkpt>
      <trkpt lat="45.51674" lon="7.26851">
        <ele>3976.6</ele>
        <time>2021-11-07T13:46:52Z</time>
      </trkpt>
      <trkpt lat="45.51674" lon="7.26851">
        <ele>3976.6</ele>
        <time>2021-11-07T13:46:53Z</time>
      </trkpt>
      <trkpt lat="45.51675" lon="7.26851">
        <ele>3976.6</ele>
        <time>2021-11-07T13:46:55Z</time>
      </trkpt>
      <trkpt lat="45.51675" lon="7.26851">
        <ele>3976.7</ele>
        <time>2021-11-07T13:46:57Z</time>
      </trkpt>
      <trkpt lat="45.51675" lon="7.26851">
        <ele>3976.7</ele>
        <time>2021-11-07T13:47:01Z</time>
      </trkpt>
      <trkpt lat="45.51675" lon="7.2685">
        <ele>3976.7</ele>
        <time>2021-11-07T13:47:06Z</time>
      </trkpt>
      <trkpt lat="45.51677" lon="7.26849">
        <ele>3976.8</ele>
        <time>2021-11-07T13:47:12Z</time>
      </trkpt>
      <trkpt lat="45.51677" lon="7.26848">
        <ele>3976.8</ele>
        <time>2021-11-07T13:47:13Z</time>
      </trkpt>
      <trkpt lat="45.51677" lon="7.26848">
        <ele>3976.8</ele>
        <time>2021-11-07T13:47:19Z</time>
      </trkpt>
      <trkpt lat="45.51676" lon="7.26848">
        <ele>3976.8</ele>
        <time>2021-11-07T13:47:24Z</time>
      </trkpt>
      <trkpt lat="45.51677" lon="7.26848">
        <ele>3976.8</ele>
        <time>2021-11-07T13:47:29Z</time>
      </trkpt>
      <trkpt lat="45.51677" lon="7.26848">
        <ele>3976.8</ele>
        <time>2021-11-07T13:47:33Z</time>
      </trkpt>
      <trkpt lat="45.51676" lon="7.26848">
        <ele>3976.9</ele>
        <time>2021-11-07T13:47:37Z</time>
      </trkpt>
      <trkpt lat="45.51676" lon="7.26848">
        <ele>3976.9</ele>
        <time>2021-11-07T13:47:40Z</time>
      </trkpt>
      <trkpt lat="45.51677" lon="7.26848">
        <ele>3976.9</ele>
        <time>2021-11-07T13:47:43Z</time>
      </trkpt>
      <trkpt lat="45.51677" lon="7.26848">
        <ele>3976.9</ele>
        <time>2021-11-07T13:47:46Z</time>
      </trkpt>
      <trkpt lat="45.51677" lon="7.26848">
        <ele>3976.9</ele>
        <time>2021-11-07T13:47:49Z</time>
      </trkpt>
      <trkpt lat="45.51677" lon="7.26848">
        <ele>3976.9</ele>
        <time>2021-11-07T13:47:50Z</time>
      </trkpt>
      <trkpt lat="45.51677" lon="7.26848">
        <ele>3976.9</ele>
        <time>2021-11-07T13:47:52Z</time>
      </trkpt>
      <trkpt lat="45.51677" lon="7.26848">
        <ele>3976.9</ele>
        <time>2021-11-07T13:47:53Z</time>
      </trkpt>
      <trkpt lat="45.51677" lon="7.26847">
        <ele>3977</ele>
        <time>2021-11-07T13:47:54Z</time>
      </trkpt>
      <trkpt lat="45.51679" lon="7.26847">
        <ele>3977</ele>
        <time>2021-11-07T13:48:00Z</time>
      </trkpt>
      <trkpt lat="45.51679" lon="7.26847">
        <ele>3977</ele>
        <time>2021-11-07T13:48:11Z</time>
      </trkpt>
      <trkpt lat="45.51679" lon="7.26846">
        <ele>3977</ele>
        <time>2021-11-07T13:48:16Z</time>
      </trkpt>
      <trkpt lat="45.51679" lon="7.26846">
        <ele>3977</ele>
        <time>2021-11-07T13:48:22Z</time>
      </trkpt>
      <trkpt lat="45.51679" lon="7.26846">
        <ele>3977.1</ele>
        <time>2021-11-07T13:48:25Z</time>
      </trkpt>
      <trkpt lat="45.51679" lon="7.26847">
        <ele>3977.1</ele>
        <time>2021-11-07T13:48:30Z</time>
      </trkpt>
      <trkpt lat="45.51679" lon="7.26846">
        <ele>3977.1</ele>
        <time>2021-11-07T13:48:36Z</time>
      </trkpt>
      <trkpt lat="45.51681" lon="7.26845">
        <ele>3977.2</ele>
        <time>2021-11-07T13:48:39Z</time>
      </trkpt>
      <trkpt lat="45.51681" lon="7.26844">
        <ele>3977.2</ele>
        <time>2021-11-07T13:48:41Z</time>
      </trkpt>
      <trkpt lat="45.51681" lon="7.26843">
        <ele>3977.2</ele>
        <time>2021-11-07T13:48:51Z</time>
      </trkpt>
      <trkpt lat="45.51681" lon="7.26843">
        <ele>3977.2</ele>
        <time>2021-11-07T13:48:53Z</time>
      </trkpt>
      <trkpt lat="45.51682" lon="7.26842">
        <ele>3977.3</ele>
        <time>2021-11-07T13:49:03Z</time>
      </trkpt>
      <trkpt lat="45.51683" lon="7.26841">
        <ele>3977.4</ele>
        <time>2021-11-07T13:49:14Z</time>
      </trkpt>
      <trkpt lat="45.51683" lon="7.2684">
        <ele>3977.4</ele>
        <time>2021-11-07T13:49:20Z</time>
      </trkpt>
      <trkpt lat="45.51683" lon="7.26839">
        <ele>3977.4</ele>
        <time>2021-11-07T13:49:22Z</time>
      </trkpt>
      <trkpt lat="45.51683" lon="7.26838">
        <ele>3977.5</ele>
        <time>2021-11-07T13:49:25Z</time>
      </trkpt>
      <trkpt lat="45.51683" lon="7.26838">
        <ele>3977.5</ele>
        <time>2021-11-07T13:49:27Z</time>
      </trkpt>
      <trkpt lat="45.51683" lon="7.26839">
        <ele>3977.5</ele>
        <time>2021-11-07T13:49:32Z</time>
      </trkpt>
      <trkpt lat="45.51685" lon="7.26839">
        <ele>3977.6</ele>
        <time>2021-11-07T13:49:39Z</time>
      </trkpt>
      <trkpt lat="45.51685" lon="7.26839">
        <ele>3977.6</ele>
        <time>2021-11-07T13:49:50Z</time>
      </trkpt>
      <trkpt lat="45.51688" lon="7.26837">
        <ele>3977.7</ele>
        <time>2021-11-07T13:50:02Z</time>
      </trkpt>
      <trkpt lat="45.5169" lon="7.26839">
        <ele>3977.8</ele>
        <time>2021-11-07T13:50:14Z</time>
      </trkpt>
      <trkpt lat="45.5169" lon="7.26839">
        <ele>3977.9</ele>
        <time>2021-11-07T13:50:17Z</time>
      </trkpt>
      <trkpt lat="45.5169" lon="7.26839">
        <ele>3977.9</ele>
        <time>2021-11-07T13:50:19Z</time>
      </trkpt>
      <trkpt lat="45.51691" lon="7.2684">
        <ele>3977.9</ele>
        <time>2021-11-07T13:50:21Z</time>
      </trkpt>
      <trkpt lat="45.51691" lon="7.2684">
        <ele>3977.9</ele>
        <time>2021-11-07T13:50:26Z</time>
      </trkpt>
      <trkpt lat="45.51691" lon="7.2684">
        <ele>3977.9</ele>
        <time>2021-11-07T13:50:30Z</time>
      </trkpt>
      <trkpt lat="45.51691" lon="7.26839">
        <ele>3978</ele>
        <time>2021-11-07T13:50:37Z</time>
      </trkpt>
      <trkpt lat="45.51692" lon="7.26839">
        <ele>3978</ele>
        <time>2021-11-07T13:50:39Z</time>
      </trkpt>
      <trkpt lat="45.51692" lon="7.26839">
        <ele>3978</ele>
        <time>2021-11-07T13:50:41Z</time>
      </trkpt>
      <trkpt lat="45.51692" lon="7.26839">
        <ele>3978</ele>
        <time>2021-11-07T13:50:42Z</time>
      </trkpt>
      <trkpt lat="45.51692" lon="7.2684">
        <ele>3978</ele>
        <time>2021-11-07T13:50:45Z</time>
      </trkpt>
      <trkpt lat="45.51692" lon="7.26841">
        <ele>3978</ele>
        <time>2021-11-07T13:50:46Z</time>
      </trkpt>
      <trkpt lat="45.51694" lon="7.26841">
        <ele>3978.1</ele>
        <time>2021-11-07T13:50:52Z</time>
      </trkpt>
      <trkpt lat="45.51695" lon="7.2684">
        <ele>3978.2</ele>
        <time>2021-11-07T13:50:58Z</time>
      </trkpt>
      <trkpt lat="45.51696" lon="7.26839">
        <ele>3978.2</ele>
        <time>2021-11-07T13:51:04Z</time>
      </trkpt>
      <trkpt lat="45.51696" lon="7.26838">
        <ele>3978.2</ele>
        <time>2021-11-07T13:51:12Z</time>
      </trkpt>
      <trkpt lat="45.51696" lon="7.26837">
        <ele>3978.2</ele>
        <time>2021-11-07T13:51:14Z</time>
      </trkpt>
      <trkpt lat="45.51696" lon="7.26837">
        <ele>3978.3</ele>
        <time>2021-11-07T13:51:19Z</time>
      </trkpt>
      <trkpt lat="45.51697" lon="7.26837">
        <ele>3978.3</ele>
        <time>2021-11-07T13:51:24Z</time>
      </trkpt>
      <trkpt lat="45.51699" lon="7.26835">
        <ele>3978.4</ele>
        <time>2021-11-07T13:51:31Z</time>
      </trkpt>
      <trkpt lat="45.517" lon="7.26835">
        <ele>3978.4</ele>
        <time>2021-11-07T13:51:33Z</time>
      </trkpt>
      <trkpt lat="45.51701" lon="7.26831">
        <ele>3978.5</ele>
        <time>2021-11-07T13:51:41Z</time>
      </trkpt>
      <trkpt lat="45.51703" lon="7.26829">
        <ele>3978.6</ele>
        <time>2021-11-07T13:51:48Z</time>
      </trkpt>
      <trkpt lat="45.51704" lon="7.26829">
        <ele>3978.6</ele>
        <time>2021-11-07T13:51:51Z</time>
      </trkpt>
      <trkpt lat="45.51704" lon="7.2683">
        <ele>3978.6</ele>
        <time>2021-11-07T13:52:05Z</time>
      </trkpt>
      <trkpt lat="45.51704" lon="7.2683">
        <ele>3978.6</ele>
        <time>2021-11-07T13:52:07Z</time>
      </trkpt>
      <trkpt lat="45.51703" lon="7.2683">
        <ele>3978.6</ele>
        <time>2021-11-07T13:52:13Z</time>
      </trkpt>
      <trkpt lat="45.51704" lon="7.26829">
        <ele>3978.7</ele>
        <time>2021-11-07T13:52:20Z</time>
      </trkpt>
      <trkpt lat="45.51704" lon="7.26828">
        <ele>3978.7</ele>
        <time>2021-11-07T13:52:26Z</time>
      </trkpt>
      <trkpt lat="45.51704" lon="7.26828">
        <ele>3978.7</ele>
        <time>2021-11-07T13:52:30Z</time>
      </trkpt>
      <trkpt lat="45.51704" lon="7.26828">
        <ele>3978.7</ele>
        <time>2021-11-07T13:52:31Z</time>
      </trkpt>
      <trkpt lat="45.51703" lon="7.26828">
        <ele>3978.7</ele>
        <time>2021-11-07T13:52:33Z</time>
      </trkpt>
      <trkpt lat="45.51704" lon="7.26827">
        <ele>3978.7</ele>
        <time>2021-11-07T13:52:45Z</time>
      </trkpt>
      <trkpt lat="45.51703" lon="7.26827">
        <ele>3978.8</ele>
        <time>2021-11-07T13:52:50Z</time>
      </trkpt>
      <trkpt lat="45.51703" lon="7.26826">
        <ele>3978.8</ele>
        <time>2021-11-07T13:52:54Z</time>
      </trkpt>
      <trkpt lat="45.51703" lon="7.26826">
        <ele>3978.8</ele>
        <time>2021-11-07T13:52:56Z</time>
      </trkpt>
      <trkpt lat="45.51703" lon="7.26826">
        <ele>3978.8</ele>
        <time>2021-11-07T13:52:59Z</time>
      </trkpt>
      <trkpt lat="45.51702" lon="7.26825">
        <ele>3978.8</ele>
        <time>2021-11-07T13:53:02Z</time>
      </trkpt>
      <trkpt lat="45.51703" lon="7.26825">
        <ele>3978.8</ele>
        <time>2021-11-07T13:53:03Z</time>
      </trkpt>
      <trkpt lat="45.51703" lon="7.26825">
        <ele>3978.8</ele>
        <time>2021-11-07T13:53:05Z</time>
      </trkpt>
      <trkpt lat="45.51703" lon="7.26826">
        <ele>3978.8</ele>
        <time>2021-11-07T13:53:09Z</time>
      </trkpt>
      <trkpt lat="45.51704" lon="7.26827">
        <ele>3978.9</ele>
        <time>2021-11-07T13:53:16Z</time>
      </trkpt>
      <trkpt lat="45.51704" lon="7.26827">
        <ele>3978.9</ele>
        <time>2021-11-07T13:53:21Z</time>
      </trkpt>
      <trkpt lat="45.51704" lon="7.26827">
        <ele>3978.9</ele>
        <time>2021-11-07T13:53:24Z</time>
      </trkpt>
      <trkpt lat="45.51704" lon="7.26827">
        <ele>3978.9</ele>
        <time>2021-11-07T13:53:27Z</time>
      </trkpt>
      <trkpt lat="45.51704" lon="7.26827">
        <ele>3978.9</ele>
        <time>2021-11-07T13:53:30Z</time>
      </trkpt>
      <trkpt lat="45.51705" lon="7.26826">
        <ele>3978.9</ele>
        <time>2021-11-07T13:53:33Z</time>
      </trkpt>
      <trkpt lat="45.51705" lon="7.26826">
        <ele>3978.9</ele>
        <time>2021-11-07T13:53:34Z</time>
      </trkpt>
      <trkpt lat="45.51705" lon="7.26825">
        <ele>3978.9</ele>
        <time>2021-11-07T13:53:35Z</time>
      </trkpt>
      <trkpt lat="45.51705" lon="7.26825">
        <ele>3978.9</ele>
        <time>2021-11-07T13:53:40Z</time>
      </trkpt>
      <trkpt lat="45.51705" lon="7.26825">
        <ele>3978.9</ele>
        <time>2021-11-07T13:53:41Z</time>
      </trkpt>
      <trkpt lat="45.51705" lon="7.26825">
        <ele>3978.9</ele>
        <time>2021-11-07T13:53:43Z</time>
      </trkpt>
      <trkpt lat="45.51705" lon="7.26825">
        <ele>3978.9</ele>
        <time>2021-11-07T13:53:49Z</time>
      </trkpt>
      <trkpt lat="45.51705" lon="7.26825">
        <ele>3978.9</ele>
        <time>2021-11-07T13:53:52Z</time>
      </trkpt>
      <trkpt lat="45.51705" lon="7.26824">
        <ele>3979</ele>
        <time>2021-11-07T13:53:58Z</time>
      </trkpt>
      <trkpt lat="45.51705" lon="7.26823">
        <ele>3979</ele>
        <time>2021-11-07T13:54:06Z</time>
      </trkpt>
      <trkpt lat="45.51705" lon="7.26823">
        <ele>3979</ele>
        <time>2021-11-07T13:54:13Z</time>
      </trkpt>
      <trkpt lat="45.51705" lon="7.26823">
        <ele>3979</ele>
        <time>2021-11-07T13:54:19Z</time>
      </trkpt>
      <trkpt lat="45.51706" lon="7.26824">
        <ele>3979</ele>
        <time>2021-11-07T13:54:24Z</time>
      </trkpt>
      <trkpt lat="45.51706" lon="7.26824">
        <ele>3979</ele>
        <time>2021-11-07T13:54:25Z</time>
      </trkpt>
      <trkpt lat="45.51706" lon="7.26824">
        <ele>3979</ele>
        <time>2021-11-07T13:54:33Z</time>
      </trkpt>
      <trkpt lat="45.51706" lon="7.26824">
        <ele>3979</ele>
        <time>2021-11-07T13:54:35Z</time>
      </trkpt>
      <trkpt lat="45.51706" lon="7.26823">
        <ele>3979</ele>
        <time>2021-11-07T13:54:45Z</time>
      </trkpt>
      <trkpt lat="45.51706" lon="7.26824">
        <ele>3979</ele>
        <time>2021-11-07T13:54:47Z</time>
      </trkpt>
      <trkpt lat="45.51706" lon="7.26824">
        <ele>3979</ele>
        <time>2021-11-07T13:54:48Z</time>
      </trkpt>
      <trkpt lat="45.51706" lon="7.26823">
        <ele>3979</ele>
        <time>2021-11-07T13:54:56Z</time>
      </trkpt>
      <trkpt lat="45.51706" lon="7.26822">
        <ele>3979</ele>
        <time>2021-11-07T13:54:58Z</time>
      </trkpt>
      <trkpt lat="45.51706" lon="7.26822">
        <ele>3979</ele>
        <time>2021-11-07T13:54:59Z</time>
      </trkpt>
      <trkpt lat="45.51707" lon="7.26822">
        <ele>3979.1</ele>
        <time>2021-11-07T13:55:13Z</time>
      </trkpt>
      <trkpt lat="45.51707" lon="7.26822">
        <ele>3979.1</ele>
        <time>2021-11-07T13:55:15Z</time>
      </trkpt>
      <trkpt lat="45.51707" lon="7.26823">
        <ele>3979.1</ele>
        <time>2021-11-07T13:55:17Z</time>
      </trkpt>
      <trkpt lat="45.51707" lon="7.26823">
        <ele>3979.1</ele>
        <time>2021-11-07T13:55:22Z</time>
      </trkpt>
      <trkpt lat="45.51708" lon="7.26823">
        <ele>3979.1</ele>
        <time>2021-11-07T13:55:25Z</time>
      </trkpt>
      <trkpt lat="45.51708" lon="7.26823">
        <ele>3979.1</ele>
        <time>2021-11-07T13:55:28Z</time>
      </trkpt>
      <trkpt lat="45.51707" lon="7.26825">
        <ele>3979.1</ele>
        <time>2021-11-07T13:55:37Z</time>
      </trkpt>
      <trkpt lat="45.51708" lon="7.26824">
        <ele>3979.1</ele>
        <time>2021-11-07T13:55:48Z</time>
      </trkpt>
      <trkpt lat="45.51708" lon="7.26824">
        <ele>3979.2</ele>
        <time>2021-11-07T13:55:54Z</time>
      </trkpt>
      <trkpt lat="45.51709" lon="7.26823">
        <ele>3979.1</ele>
        <time>2021-11-07T13:56:00Z</time>
      </trkpt>
      <trkpt lat="45.51709" lon="7.26822">
        <ele>3979.1</ele>
        <time>2021-11-07T13:56:03Z</time>
      </trkpt>
      <trkpt lat="45.5171" lon="7.26822">
        <ele>3979.1</ele>
        <time>2021-11-07T13:56:07Z</time>
      </trkpt>
      <trkpt lat="45.5171" lon="7.26822">
        <ele>3979.1</ele>
        <time>2021-11-07T13:56:08Z</time>
      </trkpt>
      <trkpt lat="45.5171" lon="7.26822">
        <ele>3979.1</ele>
        <time>2021-11-07T13:56:13Z</time>
      </trkpt>
      <trkpt lat="45.5171" lon="7.26823">
        <ele>3979.1</ele>
        <time>2021-11-07T13:56:14Z</time>
      </trkpt>
      <trkpt lat="45.5171" lon="7.26823">
        <ele>3979.1</ele>
        <time>2021-11-07T13:56:17Z</time>
      </trkpt>
      <trkpt lat="45.5171" lon="7.26823">
        <ele>3979.1</ele>
        <time>2021-11-07T13:56:23Z</time>
      </trkpt>
      <trkpt lat="45.5171" lon="7.26823">
        <ele>3979.1</ele>
        <time>2021-11-07T13:56:24Z</time>
      </trkpt>
      <trkpt lat="45.5171" lon="7.26823">
        <ele>3979.1</ele>
        <time>2021-11-07T13:56:29Z</time>
      </trkpt>
      <trkpt lat="45.5171" lon="7.26823">
        <ele>3979.1</ele>
        <time>2021-11-07T13:56:30Z</time>
      </trkpt>
      <trkpt lat="45.5171" lon="7.26824">
        <ele>3979.1</ele>
        <time>2021-11-07T13:56:33Z</time>
      </trkpt>
      <trkpt lat="45.5171" lon="7.26824">
        <ele>3979.1</ele>
        <time>2021-11-07T13:56:34Z</time>
      </trkpt>
      <trkpt lat="45.5171" lon="7.26824">
        <ele>3979.1</ele>
        <time>2021-11-07T13:56:35Z</time>
      </trkpt>
      <trkpt lat="45.5171" lon="7.26824">
        <ele>3979.1</ele>
        <time>2021-11-07T13:56:38Z</time>
      </trkpt>
      <trkpt lat="45.51709" lon="7.26824">
        <ele>3979.1</ele>
        <time>2021-11-07T13:56:45Z</time>
      </trkpt>
      <trkpt lat="45.51709" lon="7.26824">
        <ele>3979.1</ele>
        <time>2021-11-07T13:56:47Z</time>
      </trkpt>
      <trkpt lat="45.51709" lon="7.26824">
        <ele>3979.1</ele>
        <time>2021-11-07T13:56:52Z</time>
      </trkpt>
      <trkpt lat="45.51709" lon="7.26824">
        <ele>3979.1</ele>
        <time>2021-11-07T13:56:56Z</time>
      </trkpt>
      <trkpt lat="45.51709" lon="7.26824">
        <ele>3979.1</ele>
        <time>2021-11-07T13:56:57Z</time>
      </trkpt>
      <trkpt lat="45.51709" lon="7.26824">
        <ele>3979.1</ele>
        <time>2021-11-07T13:57:00Z</time>
      </trkpt>
      <trkpt lat="45.51709" lon="7.26824">
        <ele>3979.1</ele>
        <time>2021-11-07T13:57:02Z</time>
      </trkpt>
      <trkpt lat="45.51709" lon="7.26823">
        <ele>3979.1</ele>
        <time>2021-11-07T13:57:04Z</time>
      </trkpt>
      <trkpt lat="45.51709" lon="7.26823">
        <ele>3979.1</ele>
        <time>2021-11-07T13:57:08Z</time>
      </trkpt>
      <trkpt lat="45.51709" lon="7.26822">
        <ele>3979.1</ele>
        <time>2021-11-07T13:57:09Z</time>
      </trkpt>
      <trkpt lat="45.51709" lon="7.26822">
        <ele>3979</ele>
        <time>2021-11-07T13:57:10Z</time>
      </trkpt>
      <trkpt lat="45.5171" lon="7.26821">
        <ele>3979</ele>
        <time>2021-11-07T13:57:13Z</time>
      </trkpt>
      <trkpt lat="45.51711" lon="7.26821">
        <ele>3979</ele>
        <time>2021-11-07T13:57:16Z</time>
      </trkpt>
      <trkpt lat="45.51711" lon="7.26821">
        <ele>3979</ele>
        <time>2021-11-07T13:57:18Z</time>
      </trkpt>
      <trkpt lat="45.51711" lon="7.2682">
        <ele>3979</ele>
        <time>2021-11-07T13:57:20Z</time>
      </trkpt>
      <trkpt lat="45.51711" lon="7.2682">
        <ele>3979</ele>
        <time>2021-11-07T13:57:22Z</time>
      </trkpt>
      <trkpt lat="45.51711" lon="7.2682">
        <ele>3979</ele>
        <time>2021-11-07T13:57:23Z</time>
      </trkpt>
      <trkpt lat="45.51711" lon="7.26819">
        <ele>3979</ele>
        <time>2021-11-07T13:57:37Z</time>
      </trkpt>
      <trkpt lat="45.51712" lon="7.26819">
        <ele>3979</ele>
        <time>2021-11-07T13:57:39Z</time>
      </trkpt>
      <trkpt lat="45.51711" lon="7.2682">
        <ele>3979</ele>
        <time>2021-11-07T13:57:46Z</time>
      </trkpt>
      <trkpt lat="45.51711" lon="7.26821">
        <ele>3979</ele>
        <time>2021-11-07T13:57:50Z</time>
      </trkpt>
      <trkpt lat="45.51711" lon="7.26821">
        <ele>3979</ele>
        <time>2021-11-07T13:57:54Z</time>
      </trkpt>
      <trkpt lat="45.51711" lon="7.26821">
        <ele>3979</ele>
        <time>2021-11-07T13:57:55Z</time>
      </trkpt>
      <trkpt lat="45.51711" lon="7.2682">
        <ele>3979</ele>
        <time>2021-11-07T13:57:57Z</time>
      </trkpt>
      <trkpt lat="45.51711" lon="7.2682">
        <ele>3979</ele>
        <time>2021-11-07T13:58:03Z</time>
      </trkpt>
      <trkpt lat="45.51711" lon="7.2682">
        <ele>3979</ele>
        <time>2021-11-07T13:58:08Z</time>
      </trkpt>
      <trkpt lat="45.51711" lon="7.2682">
        <ele>3979</ele>
        <time>2021-11-07T13:58:16Z</time>
      </trkpt>
      <trkpt lat="45.51711" lon="7.26819">
        <ele>3979</ele>
        <time>2021-11-07T13:58:21Z</time>
      </trkpt>
      <trkpt lat="45.51711" lon="7.2682">
        <ele>3979</ele>
        <time>2021-11-07T13:58:29Z</time>
      </trkpt>
      <trkpt lat="45.51711" lon="7.2682">
        <ele>3979</ele>
        <time>2021-11-07T13:58:30Z</time>
      </trkpt>
      <trkpt lat="45.51711" lon="7.26819">
        <ele>3979</ele>
        <time>2021-11-07T13:58:36Z</time>
      </trkpt>
      <trkpt lat="45.51712" lon="7.26819">
        <ele>3979</ele>
        <time>2021-11-07T13:58:39Z</time>
      </trkpt>
      <trkpt lat="45.51712" lon="7.2682">
        <ele>3979</ele>
        <time>2021-11-07T13:58:46Z</time>
      </trkpt>
      <trkpt lat="45.51712" lon="7.2682">
        <ele>3979</ele>
        <time>2021-11-07T13:58:54Z</time>
      </trkpt>
      <trkpt lat="45.51712" lon="7.26819">
        <ele>3979</ele>
        <time>2021-11-07T13:58:56Z</time>
      </trkpt>
      <trkpt lat="45.51712" lon="7.26819">
        <ele>3978.9</ele>
        <time>2021-11-07T13:59:07Z</time>
      </trkpt>
      <trkpt lat="45.51713" lon="7.26819">
        <ele>3978.9</ele>
        <time>2021-11-07T13:59:12Z</time>
      </trkpt>
      <trkpt lat="45.51712" lon="7.26819">
        <ele>3978.9</ele>
        <time>2021-11-07T13:59:14Z</time>
      </trkpt>
      <trkpt lat="45.51712" lon="7.26819">
        <ele>3978.9</ele>
        <time>2021-11-07T13:59:20Z</time>
      </trkpt>
      <trkpt lat="45.51712" lon="7.26819">
        <ele>3978.9</ele>
        <time>2021-11-07T13:59:30Z</time>
      </trkpt>
      <trkpt lat="45.51713" lon="7.26819">
        <ele>3978.9</ele>
        <time>2021-11-07T13:59:31Z</time>
      </trkpt>
      <trkpt lat="45.51712" lon="7.26819">
        <ele>3978.9</ele>
        <time>2021-11-07T13:59:34Z</time>
      </trkpt>
      <trkpt lat="45.51712" lon="7.26819">
        <ele>3978.9</ele>
        <time>2021-11-07T13:59:40Z</time>
      </trkpt>
      <trkpt lat="45.51712" lon="7.26819">
        <ele>3978.9</ele>
        <time>2021-11-07T13:59:51Z</time>
      </trkpt>
      <trkpt lat="45.51712" lon="7.26819">
        <ele>3978.9</ele>
        <time>2021-11-07T13:59:53Z</time>
      </trkpt>
      <trkpt lat="45.51712" lon="7.26818">
        <ele>3978.9</ele>
        <time>2021-11-07T14:00:03Z</time>
      </trkpt>
      <trkpt lat="45.51711" lon="7.26818">
        <ele>3978.9</ele>
        <time>2021-11-07T14:00:09Z</time>
      </trkpt>
      <trkpt lat="45.51711" lon="7.26818">
        <ele>3978.9</ele>
        <time>2021-11-07T14:00:12Z</time>
      </trkpt>
      <trkpt lat="45.51711" lon="7.26819">
        <ele>3978.9</ele>
        <time>2021-11-07T14:00:16Z</time>
      </trkpt>
      <trkpt lat="45.51711" lon="7.26819">
        <ele>3978.9</ele>
        <time>2021-11-07T14:00:19Z</time>
      </trkpt>
      <trkpt lat="45.51711" lon="7.26818">
        <ele>3978.9</ele>
        <time>2021-11-07T14:00:24Z</time>
      </trkpt>
      <trkpt lat="45.51711" lon="7.26819">
        <ele>3978.9</ele>
        <time>2021-11-07T14:00:30Z</time>
      </trkpt>
      <trkpt lat="45.51711" lon="7.26818">
        <ele>3978.9</ele>
        <time>2021-11-07T14:00:32Z</time>
      </trkpt>
      <trkpt lat="45.51711" lon="7.26818">
        <ele>3978.9</ele>
        <time>2021-11-07T14:00:33Z</time>
      </trkpt>
      <trkpt lat="45.51711" lon="7.26819">
        <ele>3978.9</ele>
        <time>2021-11-07T14:00:41Z</time>
      </trkpt>
      <trkpt lat="45.51711" lon="7.26819">
        <ele>3978.9</ele>
        <time>2021-11-07T14:00:44Z</time>
      </trkpt>
      <trkpt lat="45.51711" lon="7.26819">
        <ele>3978.9</ele>
        <time>2021-11-07T14:00:47Z</time>
      </trkpt>
      <trkpt lat="45.51711" lon="7.2682">
        <ele>3978.9</ele>
        <time>2021-11-07T14:00:49Z</time>
      </trkpt>
      <trkpt lat="45.51711" lon="7.26819">
        <ele>3978.9</ele>
        <time>2021-11-07T14:00:51Z</time>
      </trkpt>
      <trkpt lat="45.51711" lon="7.26819">
        <ele>3978.9</ele>
        <time>2021-11-07T14:00:56Z</time>
      </trkpt>
      <trkpt lat="45.51711" lon="7.26819">
        <ele>3978.9</ele>
        <time>2021-11-07T14:00:57Z</time>
      </trkpt>
      <trkpt lat="45.51711" lon="7.26819">
        <ele>3978.9</ele>
        <time>2021-11-07T14:00:58Z</time>
      </trkpt>
      <trkpt lat="45.51711" lon="7.26819">
        <ele>3978.9</ele>
        <time>2021-11-07T14:01:01Z</time>
      </trkpt>
      <trkpt lat="45.51711" lon="7.26819">
        <ele>3978.9</ele>
        <time>2021-11-07T14:01:02Z</time>
      </trkpt>
      <trkpt lat="45.51712" lon="7.26819">
        <ele>3978.9</ele>
        <time>2021-11-07T14:01:06Z</time>
      </trkpt>
      <trkpt lat="45.51712" lon="7.26819">
        <ele>3978.9</ele>
        <time>2021-11-07T14:01:08Z</time>
      </trkpt>
      <trkpt lat="45.51712" lon="7.26819">
        <ele>3978.9</ele>
        <time>2021-11-07T14:01:09Z</time>
      </trkpt>
      <trkpt lat="45.51712" lon="7.26819">
        <ele>3978.9</ele>
        <time>2021-11-07T14:01:10Z</time>
      </trkpt>
      <trkpt lat="45.51712" lon="7.26819">
        <ele>3978.9</ele>
        <time>2021-11-07T14:01:11Z</time>
      </trkpt>
      <trkpt lat="45.51712" lon="7.26819">
        <ele>3978.9</ele>
        <time>2021-11-07T14:01:12Z</time>
      </trkpt>
      <trkpt lat="45.51712" lon="7.26819">
        <ele>3978.9</ele>
        <time>2021-11-07T14:01:14Z</time>
      </trkpt>
      <trkpt lat="45.51712" lon="7.26819">
        <ele>3978.9</ele>
        <time>2021-11-07T14:01:15Z</time>
      </trkpt>
      <trkpt lat="45.51712" lon="7.26819">
        <ele>3978.9</ele>
        <time>2021-11-07T14:01:16Z</time>
      </trkpt>
      <trkpt lat="45.51712" lon="7.26819">
        <ele>3978.9</ele>
        <time>2021-11-07T14:01:17Z</time>
      </trkpt>
      <trkpt lat="45.51711" lon="7.26819">
        <ele>3978.9</ele>
        <time>2021-11-07T14:01:20Z</time>
      </trkpt>
      <trkpt lat="45.51711" lon="7.26819">
        <ele>3978.8</ele>
        <time>2021-11-07T14:01:22Z</time>
      </trkpt>
      <trkpt lat="45.51711" lon="7.26821">
        <ele>3978.8</ele>
        <time>2021-11-07T14:01:25Z</time>
      </trkpt>
      <trkpt lat="45.51711" lon="7.26821">
        <ele>3978.8</ele>
        <time>2021-11-07T14:01:29Z</time>
      </trkpt>
      <trkpt lat="45.51711" lon="7.26821">
        <ele>3978.8</ele>
        <time>2021-11-07T14:01:31Z</time>
      </trkpt>
      <trkpt lat="45.51711" lon="7.26821">
        <ele>3978.8</ele>
        <time>2021-11-07T14:01:33Z</time>
      </trkpt>
      <trkpt lat="45.51711" lon="7.2682">
        <ele>3978.8</ele>
        <time>2021-11-07T14:01:35Z</time>
      </trkpt>
      <trkpt lat="45.51711" lon="7.2682">
        <ele>3978.8</ele>
        <time>2021-11-07T14:01:37Z</time>
      </trkpt>
      <trkpt lat="45.51711" lon="7.2682">
        <ele>3978.8</ele>
        <time>2021-11-07T14:01:40Z</time>
      </trkpt>
      <trkpt lat="45.51711" lon="7.2682">
        <ele>3978.8</ele>
        <time>2021-11-07T14:01:42Z</time>
      </trkpt>
      <trkpt lat="45.51712" lon="7.2682">
        <ele>3978.8</ele>
        <time>2021-11-07T14:01:45Z</time>
      </trkpt>
      <trkpt lat="45.51712" lon="7.2682">
        <ele>3978.8</ele>
        <time>2021-11-07T14:01:46Z</time>
      </trkpt>
      <trkpt lat="45.51711" lon="7.26821">
        <ele>3978.8</ele>
        <time>2021-11-07T14:01:59Z</time>
      </trkpt>
      <trkpt lat="45.51711" lon="7.26821">
        <ele>3978.8</ele>
        <time>2021-11-07T14:02:03Z</time>
      </trkpt>
      <trkpt lat="45.51711" lon="7.2682">
        <ele>3978.8</ele>
        <time>2021-11-07T14:02:05Z</time>
      </trkpt>
      <trkpt lat="45.51711" lon="7.2682">
        <ele>3978.8</ele>
        <time>2021-11-07T14:02:06Z</time>
      </trkpt>
      <trkpt lat="45.51711" lon="7.26821">
        <ele>3978.8</ele>
        <time>2021-11-07T14:02:16Z</time>
      </trkpt>
      <trkpt lat="45.5171" lon="7.2682">
        <ele>3978.8</ele>
        <time>2021-11-07T14:02:24Z</time>
      </trkpt>
      <trkpt lat="45.5171" lon="7.2682">
        <ele>3978.8</ele>
        <time>2021-11-07T14:02:27Z</time>
      </trkpt>
      <trkpt lat="45.5171" lon="7.2682">
        <ele>3978.8</ele>
        <time>2021-11-07T14:02:40Z</time>
      </trkpt>
      <trkpt lat="45.5171" lon="7.2682">
        <ele>3978.8</ele>
        <time>2021-11-07T14:02:41Z</time>
      </trkpt>
      <trkpt lat="45.5171" lon="7.2682">
        <ele>3978.8</ele>
        <time>2021-11-07T14:02:42Z</time>
      </trkpt>
      <trkpt lat="45.5171" lon="7.2682">
        <ele>3978.8</ele>
        <time>2021-11-07T14:02:43Z</time>
      </trkpt>
      <trkpt lat="45.5171" lon="7.2682">
        <ele>3978.8</ele>
        <time>2021-11-07T14:02:45Z</time>
      </trkpt>
      <trkpt lat="45.5171" lon="7.2682">
        <ele>3978.8</ele>
        <time>2021-11-07T14:02:46Z</time>
      </trkpt>
      <trkpt lat="45.51711" lon="7.2682">
        <ele>3978.8</ele>
        <time>2021-11-07T14:02:53Z</time>
      </trkpt>
      <trkpt lat="45.51711" lon="7.2682">
        <ele>3978.8</ele>
        <time>2021-11-07T14:03:00Z</time>
      </trkpt>
      <trkpt lat="45.51711" lon="7.2682">
        <ele>3978.8</ele>
        <time>2021-11-07T14:03:03Z</time>
      </trkpt>
      <trkpt lat="45.51711" lon="7.2682">
        <ele>3978.8</ele>
        <time>2021-11-07T14:03:07Z</time>
      </trkpt>
      <trkpt lat="45.51711" lon="7.2682">
        <ele>3978.8</ele>
        <time>2021-11-07T14:03:10Z</time>
      </trkpt>
      <trkpt lat="45.51711" lon="7.2682">
        <ele>3978.8</ele>
        <time>2021-11-07T14:03:11Z</time>
      </trkpt>
      <trkpt lat="45.51711" lon="7.2682">
        <ele>3978.8</ele>
        <time>2021-11-07T14:03:14Z</time>
      </trkpt>
      <trkpt lat="45.51711" lon="7.26819">
        <ele>3978.8</ele>
        <time>2021-11-07T14:03:15Z</time>
      </trkpt>
      <trkpt lat="45.51711" lon="7.26819">
        <ele>3978.8</ele>
        <time>2021-11-07T14:03:18Z</time>
      </trkpt>
      <trkpt lat="45.51711" lon="7.26819">
        <ele>3978.8</ele>
        <time>2021-11-07T14:03:20Z</time>
      </trkpt>
      <trkpt lat="45.51711" lon="7.26819">
        <ele>3978.7</ele>
        <time>2021-11-07T14:03:22Z</time>
      </trkpt>
      <trkpt lat="45.51711" lon="7.26819">
        <ele>3978.7</ele>
        <time>2021-11-07T14:03:25Z</time>
      </trkpt>
      <trkpt lat="45.51711" lon="7.26819">
        <ele>3978.7</ele>
        <time>2021-11-07T14:03:27Z</time>
      </trkpt>
      <trkpt lat="45.51711" lon="7.26818">
        <ele>3978.7</ele>
        <time>2021-11-07T14:03:30Z</time>
      </trkpt>
      <trkpt lat="45.51711" lon="7.26818">
        <ele>3978.7</ele>
        <time>2021-11-07T14:03:33Z</time>
      </trkpt>
      <trkpt lat="45.51711" lon="7.26818">
        <ele>3978.7</ele>
        <time>2021-11-07T14:03:38Z</time>
      </trkpt>
      <trkpt lat="45.51711" lon="7.26818">
        <ele>3978.7</ele>
        <time>2021-11-07T14:03:39Z</time>
      </trkpt>
      <trkpt lat="45.51711" lon="7.26818">
        <ele>3978.7</ele>
        <time>2021-11-07T14:03:41Z</time>
      </trkpt>
      <trkpt lat="45.51711" lon="7.26818">
        <ele>3978.7</ele>
        <time>2021-11-07T14:03:44Z</time>
      </trkpt>
      <trkpt lat="45.51711" lon="7.26818">
        <ele>3978.7</ele>
        <time>2021-11-07T14:03:47Z</time>
      </trkpt>
      <trkpt lat="45.51711" lon="7.26818">
        <ele>3978.7</ele>
        <time>2021-11-07T14:03:50Z</time>
      </trkpt>
      <trkpt lat="45.51711" lon="7.26818">
        <ele>3978.7</ele>
        <time>2021-11-07T14:03:53Z</time>
      </trkpt>
      <trkpt lat="45.51711" lon="7.26818">
        <ele>3978.7</ele>
        <time>2021-11-07T14:03:55Z</time>
      </trkpt>
      <trkpt lat="45.51711" lon="7.26818">
        <ele>3978.7</ele>
        <time>2021-11-07T14:03:56Z</time>
      </trkpt>
      <trkpt lat="45.51711" lon="7.26818">
        <ele>3978.7</ele>
        <time>2021-11-07T14:03:57Z</time>
      </trkpt>
      <trkpt lat="45.51711" lon="7.26818">
        <ele>3978.7</ele>
        <time>2021-11-07T14:03:58Z</time>
      </trkpt>
      <trkpt lat="45.51711" lon="7.26818">
        <ele>3978.7</ele>
        <time>2021-11-07T14:03:59Z</time>
      </trkpt>
      <trkpt lat="45.51711" lon="7.26818">
        <ele>3978.7</ele>
        <time>2021-11-07T14:04:01Z</time>
      </trkpt>
      <trkpt lat="45.51711" lon="7.26817">
        <ele>3978.7</ele>
        <time>2021-11-07T14:04:03Z</time>
      </trkpt>
      <trkpt lat="45.51711" lon="7.26817">
        <ele>3978.7</ele>
        <time>2021-11-07T14:04:06Z</time>
      </trkpt>
      <trkpt lat="45.51711" lon="7.26817">
        <ele>3978.7</ele>
        <time>2021-11-07T14:04:16Z</time>
      </trkpt>
      <trkpt lat="45.51711" lon="7.26816">
        <ele>3978.7</ele>
        <time>2021-11-07T14:04:19Z</time>
      </trkpt>
      <trkpt lat="45.51711" lon="7.26816">
        <ele>3978.7</ele>
        <time>2021-11-07T14:04:22Z</time>
      </trkpt>
      <trkpt lat="45.51711" lon="7.26816">
        <ele>3978.7</ele>
        <time>2021-11-07T14:04:23Z</time>
      </trkpt>
      <trkpt lat="45.51711" lon="7.26816">
        <ele>3978.7</ele>
        <time>2021-11-07T14:04:25Z</time>
      </trkpt>
      <trkpt lat="45.51711" lon="7.26816">
        <ele>3978.7</ele>
        <time>2021-11-07T14:04:29Z</time>
      </trkpt>
      <trkpt lat="45.51711" lon="7.26816">
        <ele>3978.7</ele>
        <time>2021-11-07T14:04:30Z</time>
      </trkpt>
      <trkpt lat="45.51711" lon="7.26816">
        <ele>3978.7</ele>
        <time>2021-11-07T14:04:31Z</time>
      </trkpt>
      <trkpt lat="45.51711" lon="7.26815">
        <ele>3978.7</ele>
        <time>2021-11-07T14:04:33Z</time>
      </trkpt>
      <trkpt lat="45.51711" lon="7.26815">
        <ele>3978.7</ele>
        <time>2021-11-07T14:04:34Z</time>
      </trkpt>
      <trkpt lat="45.51711" lon="7.26815">
        <ele>3978.7</ele>
        <time>2021-11-07T14:04:36Z</time>
      </trkpt>
      <trkpt lat="45.51711" lon="7.26815">
        <ele>3978.7</ele>
        <time>2021-11-07T14:04:39Z</time>
      </trkpt>
      <trkpt lat="45.51712" lon="7.26815">
        <ele>3978.7</ele>
        <time>2021-11-07T14:04:41Z</time>
      </trkpt>
      <trkpt lat="45.51712" lon="7.26815">
        <ele>3978.7</ele>
        <time>2021-11-07T14:04:50Z</time>
      </trkpt>
      <trkpt lat="45.51711" lon="7.26815">
        <ele>3978.7</ele>
        <time>2021-11-07T14:05:04Z</time>
      </trkpt>
      <trkpt lat="45.51711" lon="7.26815">
        <ele>3978.7</ele>
        <time>2021-11-07T14:05:06Z</time>
      </trkpt>
      <trkpt lat="45.5171" lon="7.26816">
        <ele>3978.6</ele>
        <time>2021-11-07T14:05:14Z</time>
      </trkpt>
      <trkpt lat="45.5171" lon="7.26815">
        <ele>3978.6</ele>
        <time>2021-11-07T14:05:20Z</time>
      </trkpt>
      <trkpt lat="45.51709" lon="7.26815">
        <ele>3978.6</ele>
        <time>2021-11-07T14:05:21Z</time>
      </trkpt>
      <trkpt lat="45.51709" lon="7.26814">
        <ele>3978.6</ele>
        <time>2021-11-07T14:05:27Z</time>
      </trkpt>
      <trkpt lat="45.51708" lon="7.26814">
        <ele>3978.6</ele>
        <time>2021-11-07T14:05:32Z</time>
      </trkpt>
      <trkpt lat="45.51708" lon="7.26813">
        <ele>3978.6</ele>
        <time>2021-11-07T14:05:34Z</time>
      </trkpt>
      <trkpt lat="45.51708" lon="7.26813">
        <ele>3978.6</ele>
        <time>2021-11-07T14:05:35Z</time>
      </trkpt>
      <trkpt lat="45.51708" lon="7.26813">
        <ele>3978.6</ele>
        <time>2021-11-07T14:05:37Z</time>
      </trkpt>
      <trkpt lat="45.51708" lon="7.26813">
        <ele>3978.6</ele>
        <time>2021-11-07T14:05:40Z</time>
      </trkpt>
      <trkpt lat="45.51708" lon="7.26813">
        <ele>3978.6</ele>
        <time>2021-11-07T14:05:41Z</time>
      </trkpt>
      <trkpt lat="45.51707" lon="7.26813">
        <ele>3978.6</ele>
        <time>2021-11-07T14:05:51Z</time>
      </trkpt>
      <trkpt lat="45.51707" lon="7.26813">
        <ele>3978.6</ele>
        <time>2021-11-07T14:05:52Z</time>
      </trkpt>
      <trkpt lat="45.51707" lon="7.26814">
        <ele>3978.6</ele>
        <time>2021-11-07T14:05:56Z</time>
      </trkpt>
      <trkpt lat="45.51707" lon="7.26814">
        <ele>3978.6</ele>
        <time>2021-11-07T14:05:59Z</time>
      </trkpt>
      <trkpt lat="45.51708" lon="7.26814">
        <ele>3978.6</ele>
        <time>2021-11-07T14:06:01Z</time>
      </trkpt>
      <trkpt lat="45.51708" lon="7.26814">
        <ele>3978.6</ele>
        <time>2021-11-07T14:06:03Z</time>
      </trkpt>
      <trkpt lat="45.51708" lon="7.26814">
        <ele>3978.6</ele>
        <time>2021-11-07T14:06:05Z</time>
      </trkpt>
      <trkpt lat="45.51708" lon="7.26814">
        <ele>3978.6</ele>
        <time>2021-11-07T14:06:07Z</time>
      </trkpt>
      <trkpt lat="45.51708" lon="7.26814">
        <ele>3978.6</ele>
        <time>2021-11-07T14:06:11Z</time>
      </trkpt>
      <trkpt lat="45.51708" lon="7.26814">
        <ele>3978.6</ele>
        <time>2021-11-07T14:06:14Z</time>
      </trkpt>
      <trkpt lat="45.51708" lon="7.26815">
        <ele>3978.5</ele>
        <time>2021-11-07T14:06:19Z</time>
      </trkpt>
      <trkpt lat="45.51708" lon="7.26815">
        <ele>3978.5</ele>
        <time>2021-11-07T14:06:20Z</time>
      </trkpt>
      <trkpt lat="45.51708" lon="7.26817">
        <ele>3978.5</ele>
        <time>2021-11-07T14:06:24Z</time>
      </trkpt>
      <trkpt lat="45.51708" lon="7.26818">
        <ele>3978.5</ele>
        <time>2021-11-07T14:06:26Z</time>
      </trkpt>
      <trkpt lat="45.51708" lon="7.26818">
        <ele>3978.5</ele>
        <time>2021-11-07T14:06:27Z</time>
      </trkpt>
      <trkpt lat="45.51708" lon="7.26818">
        <ele>3978.5</ele>
        <time>2021-11-07T14:06:28Z</time>
      </trkpt>
      <trkpt lat="45.51708" lon="7.26818">
        <ele>3978.5</ele>
        <time>2021-11-07T14:06:33Z</time>
      </trkpt>
      <trkpt lat="45.51708" lon="7.26818">
        <ele>3978.5</ele>
        <time>2021-11-07T14:06:36Z</time>
      </trkpt>
      <trkpt lat="45.51708" lon="7.26818">
        <ele>3978.5</ele>
        <time>2021-11-07T14:06:38Z</time>
      </trkpt>
      <trkpt lat="45.51708" lon="7.26819">
        <ele>3978.5</ele>
        <time>2021-11-07T14:06:48Z</time>
      </trkpt>
      <trkpt lat="45.51708" lon="7.26819">
        <ele>3978.5</ele>
        <time>2021-11-07T14:06:56Z</time>
      </trkpt>
      <trkpt lat="45.51708" lon="7.26819">
        <ele>3978.5</ele>
        <time>2021-11-07T14:06:57Z</time>
      </trkpt>
      <trkpt lat="45.51708" lon="7.26819">
        <ele>3978.5</ele>
        <time>2021-11-07T14:06:59Z</time>
      </trkpt>
      <trkpt lat="45.51708" lon="7.26819">
        <ele>3978.5</ele>
        <time>2021-11-07T14:07:00Z</time>
      </trkpt>
      <trkpt lat="45.51708" lon="7.26819">
        <ele>3978.5</ele>
        <time>2021-11-07T14:07:02Z</time>
      </trkpt>
      <trkpt lat="45.51708" lon="7.26819">
        <ele>3978.5</ele>
        <time>2021-11-07T14:07:03Z</time>
      </trkpt>
      <trkpt lat="45.51708" lon="7.26819">
        <ele>3978.5</ele>
        <time>2021-11-07T14:07:05Z</time>
      </trkpt>
      <trkpt lat="45.51708" lon="7.26819">
        <ele>3978.5</ele>
        <time>2021-11-07T14:07:08Z</time>
      </trkpt>
      <trkpt lat="45.51707" lon="7.26819">
        <ele>3978.5</ele>
        <time>2021-11-07T14:07:12Z</time>
      </trkpt>
      <trkpt lat="45.51707" lon="7.26819">
        <ele>3978.5</ele>
        <time>2021-11-07T14:07:17Z</time>
      </trkpt>
      <trkpt lat="45.51707" lon="7.2682">
        <ele>3978.5</ele>
        <time>2021-11-07T14:07:29Z</time>
      </trkpt>
      <trkpt lat="45.51708" lon="7.26821">
        <ele>3978.5</ele>
        <time>2021-11-07T14:07:30Z</time>
      </trkpt>
      <trkpt lat="45.51708" lon="7.2682">
        <ele>3978.5</ele>
        <time>2021-11-07T14:07:31Z</time>
      </trkpt>
      <trkpt lat="45.5171" lon="7.26821">
        <ele>3978.4</ele>
        <time>2021-11-07T14:07:39Z</time>
      </trkpt>
      <trkpt lat="45.5171" lon="7.2682">
        <ele>3978.4</ele>
        <time>2021-11-07T14:07:43Z</time>
      </trkpt>
      <trkpt lat="45.5171" lon="7.2682">
        <ele>3978.4</ele>
        <time>2021-11-07T14:07:46Z</time>
      </trkpt>
      <trkpt lat="45.5171" lon="7.2682">
        <ele>3978.4</ele>
        <time>2021-11-07T14:07:49Z</time>
      </trkpt>
      <trkpt lat="45.51711" lon="7.26818">
        <ele>3978.4</ele>
        <time>2021-11-07T14:07:54Z</time>
      </trkpt>
      <trkpt lat="45.51712" lon="7.26817">
        <ele>3978.4</ele>
        <time>2021-11-07T14:07:57Z</time>
      </trkpt>
      <trkpt lat="45.51712" lon="7.26817">
        <ele>3978.4</ele>
        <time>2021-11-07T14:08:01Z</time>
      </trkpt>
      <trkpt lat="45.51712" lon="7.26817">
        <ele>3978.4</ele>
        <time>2021-11-07T14:08:07Z</time>
      </trkpt>
      <trkpt lat="45.51712" lon="7.26816">
        <ele>3978.3</ele>
        <time>2021-11-07T14:08:09Z</time>
      </trkpt>
      <trkpt lat="45.51712" lon="7.26816">
        <ele>3978.3</ele>
        <time>2021-11-07T14:08:16Z</time>
      </trkpt>
      <trkpt lat="45.51711" lon="7.26816">
        <ele>3978.3</ele>
        <time>2021-11-07T14:08:21Z</time>
      </trkpt>
      <trkpt lat="45.51711" lon="7.26816">
        <ele>3978.3</ele>
        <time>2021-11-07T14:08:22Z</time>
      </trkpt>
      <trkpt lat="45.51711" lon="7.26816">
        <ele>3978.3</ele>
        <time>2021-11-07T14:08:23Z</time>
      </trkpt>
      <trkpt lat="45.51711" lon="7.26815">
        <ele>3978.3</ele>
        <time>2021-11-07T14:08:26Z</time>
      </trkpt>
      <trkpt lat="45.51712" lon="7.26815">
        <ele>3978.3</ele>
        <time>2021-11-07T14:08:37Z</time>
      </trkpt>
      <trkpt lat="45.51712" lon="7.26815">
        <ele>3978.3</ele>
        <time>2021-11-07T14:08:41Z</time>
      </trkpt>
      <trkpt lat="45.51712" lon="7.26815">
        <ele>3978.3</ele>
        <time>2021-11-07T14:08:43Z</time>
      </trkpt>
      <trkpt lat="45.51712" lon="7.26815">
        <ele>3978.3</ele>
        <time>2021-11-07T14:08:47Z</time>
      </trkpt>
      <trkpt lat="45.51713" lon="7.26813">
        <ele>3978.3</ele>
        <time>2021-11-07T14:09:01Z</time>
      </trkpt>
      <trkpt lat="45.51713" lon="7.26812">
        <ele>3978.3</ele>
        <time>2021-11-07T14:09:02Z</time>
      </trkpt>
      <trkpt lat="45.51712" lon="7.26812">
        <ele>3978.3</ele>
        <time>2021-11-07T14:09:04Z</time>
      </trkpt>
      <trkpt lat="45.51712" lon="7.26812">
        <ele>3978.3</ele>
        <time>2021-11-07T14:09:11Z</time>
      </trkpt>
      <trkpt lat="45.51713" lon="7.26811">
        <ele>3978.3</ele>
        <time>2021-11-07T14:09:14Z</time>
      </trkpt>
      <trkpt lat="45.51712" lon="7.26811">
        <ele>3978.3</ele>
        <time>2021-11-07T14:09:18Z</time>
      </trkpt>
      <trkpt lat="45.51712" lon="7.26811">
        <ele>3978.3</ele>
        <time>2021-11-07T14:09:20Z</time>
      </trkpt>
      <trkpt lat="45.51713" lon="7.2681">
        <ele>3978.3</ele>
        <time>2021-11-07T14:09:27Z</time>
      </trkpt>
      <trkpt lat="45.51713" lon="7.26811">
        <ele>3978.3</ele>
        <time>2021-11-07T14:09:31Z</time>
      </trkpt>
      <trkpt lat="45.51711" lon="7.26814">
        <ele>3978.2</ele>
        <time>2021-11-07T14:09:37Z</time>
      </trkpt>
      <trkpt lat="45.51711" lon="7.26814">
        <ele>3978.2</ele>
        <time>2021-11-07T14:09:41Z</time>
      </trkpt>
      <trkpt lat="45.51711" lon="7.26814">
        <ele>3978.2</ele>
        <time>2021-11-07T14:09:43Z</time>
      </trkpt>
      <trkpt lat="45.51711" lon="7.26814">
        <ele>3978.2</ele>
        <time>2021-11-07T14:09:46Z</time>
      </trkpt>
      <trkpt lat="45.51711" lon="7.26814">
        <ele>3978.2</ele>
        <time>2021-11-07T14:09:50Z</time>
      </trkpt>
      <trkpt lat="45.51711" lon="7.26814">
        <ele>3978.2</ele>
        <time>2021-11-07T14:09:51Z</time>
      </trkpt>
      <trkpt lat="45.51711" lon="7.26814">
        <ele>3978.2</ele>
        <time>2021-11-07T14:09:53Z</time>
      </trkpt>
      <trkpt lat="45.51711" lon="7.26815">
        <ele>3978.2</ele>
        <time>2021-11-07T14:09:55Z</time>
      </trkpt>
      <trkpt lat="45.5171" lon="7.26815">
        <ele>3978.2</ele>
        <time>2021-11-07T14:09:59Z</time>
      </trkpt>
      <trkpt lat="45.5171" lon="7.26816">
        <ele>3978.2</ele>
        <time>2021-11-07T14:10:02Z</time>
      </trkpt>
      <trkpt lat="45.5171" lon="7.26816">
        <ele>3978.2</ele>
        <time>2021-11-07T14:10:03Z</time>
      </trkpt>
      <trkpt lat="45.5171" lon="7.26816">
        <ele>3978.2</ele>
        <time>2021-11-07T14:10:11Z</time>
      </trkpt>
      <trkpt lat="45.5171" lon="7.26816">
        <ele>3978.2</ele>
        <time>2021-11-07T14:10:17Z</time>
      </trkpt>
      <trkpt lat="45.5171" lon="7.26816">
        <ele>3978.2</ele>
        <time>2021-11-07T14:10:18Z</time>
      </trkpt>
      <trkpt lat="45.5171" lon="7.26816">
        <ele>3978.2</ele>
        <time>2021-11-07T14:10:23Z</time>
      </trkpt>
      <trkpt lat="45.5171" lon="7.26816">
        <ele>3978.2</ele>
        <time>2021-11-07T14:10:26Z</time>
      </trkpt>
      <trkpt lat="45.5171" lon="7.26816">
        <ele>3978.2</ele>
        <time>2021-11-07T14:10:27Z</time>
      </trkpt>
      <trkpt lat="45.5171" lon="7.26816">
        <ele>3978.2</ele>
        <time>2021-11-07T14:10:33Z</time>
      </trkpt>
      <trkpt lat="45.5171" lon="7.26816">
        <ele>3978.2</ele>
        <time>2021-11-07T14:10:35Z</time>
      </trkpt>
      <trkpt lat="45.51711" lon="7.26816">
        <ele>3978.2</ele>
        <time>2021-11-07T14:10:39Z</time>
      </trkpt>
      <trkpt lat="45.51711" lon="7.26816">
        <ele>3978.2</ele>
        <time>2021-11-07T14:10:42Z</time>
      </trkpt>
      <trkpt lat="45.51712" lon="7.26815">
        <ele>3978.2</ele>
        <time>2021-11-07T14:10:53Z</time>
      </trkpt>
      <trkpt lat="45.51712" lon="7.26815">
        <ele>3978.1</ele>
        <time>2021-11-07T14:10:58Z</time>
      </trkpt>
      <trkpt lat="45.51712" lon="7.26815">
        <ele>3978.1</ele>
        <time>2021-11-07T14:11:01Z</time>
      </trkpt>
      <trkpt lat="45.51713" lon="7.26815">
        <ele>3978.1</ele>
        <time>2021-11-07T14:11:07Z</time>
      </trkpt>
      <trkpt lat="45.51713" lon="7.26815">
        <ele>3978.1</ele>
        <time>2021-11-07T14:11:10Z</time>
      </trkpt>
      <trkpt lat="45.51712" lon="7.26815">
        <ele>3978.1</ele>
        <time>2021-11-07T14:11:15Z</time>
      </trkpt>
      <trkpt lat="45.51712" lon="7.26815">
        <ele>3978.1</ele>
        <time>2021-11-07T14:11:25Z</time>
      </trkpt>
      <trkpt lat="45.51712" lon="7.26815">
        <ele>3978.1</ele>
        <time>2021-11-07T14:11:27Z</time>
      </trkpt>
      <trkpt lat="45.51712" lon="7.26815">
        <ele>3978.1</ele>
        <time>2021-11-07T14:11:32Z</time>
      </trkpt>
      <trkpt lat="45.51712" lon="7.26814">
        <ele>3978.1</ele>
        <time>2021-11-07T14:11:36Z</time>
      </trkpt>
      <trkpt lat="45.51713" lon="7.26814">
        <ele>3978.1</ele>
        <time>2021-11-07T14:11:46Z</time>
      </trkpt>
      <trkpt lat="45.51713" lon="7.26814">
        <ele>3978.1</ele>
        <time>2021-11-07T14:11:49Z</time>
      </trkpt>
      <trkpt lat="45.51713" lon="7.26814">
        <ele>3978.1</ele>
        <time>2021-11-07T14:11:51Z</time>
      </trkpt>
      <trkpt lat="45.51713" lon="7.26814">
        <ele>3978.1</ele>
        <time>2021-11-07T14:11:52Z</time>
      </trkpt>
      <trkpt lat="45.51713" lon="7.26814">
        <ele>3978.1</ele>
        <time>2021-11-07T14:11:54Z</time>
      </trkpt>
      <trkpt lat="45.51713" lon="7.26814">
        <ele>3978.1</ele>
        <time>2021-11-07T14:12:02Z</time>
      </trkpt>
      <trkpt lat="45.51713" lon="7.26814">
        <ele>3978.1</ele>
        <time>2021-11-07T14:12:09Z</time>
      </trkpt>
      <trkpt lat="45.51714" lon="7.26814">
        <ele>3978.1</ele>
        <time>2021-11-07T14:12:16Z</time>
      </trkpt>
      <trkpt lat="45.51714" lon="7.26814">
        <ele>3978.1</ele>
        <time>2021-11-07T14:12:19Z</time>
      </trkpt>
      <trkpt lat="45.51714" lon="7.26814">
        <ele>3978.1</ele>
        <time>2021-11-07T14:12:21Z</time>
      </trkpt>
      <trkpt lat="45.51714" lon="7.26813">
        <ele>3978.1</ele>
        <time>2021-11-07T14:12:29Z</time>
      </trkpt>
      <trkpt lat="45.51714" lon="7.26813">
        <ele>3978.1</ele>
        <time>2021-11-07T14:12:32Z</time>
      </trkpt>
      <trkpt lat="45.51714" lon="7.26813">
        <ele>3978.1</ele>
        <time>2021-11-07T14:12:37Z</time>
      </trkpt>
      <trkpt lat="45.51714" lon="7.26813">
        <ele>3978.1</ele>
        <time>2021-11-07T14:12:38Z</time>
      </trkpt>
      <trkpt lat="45.51714" lon="7.26813">
        <ele>3978.1</ele>
        <time>2021-11-07T14:12:39Z</time>
      </trkpt>
      <trkpt lat="45.51715" lon="7.26813">
        <ele>3978.1</ele>
        <time>2021-11-07T14:26:17Z</time>
      </trkpt>
      <trkpt lat="45.51715" lon="7.26813">
        <ele>3978.1</ele>
        <time>2021-11-07T14:26:18Z</time>
      </trkpt>
      <trkpt lat="45.51715" lon="7.26813">
        <ele>3978.1</ele>
        <time>2021-11-07T14:26:23Z</time>
      </trkpt>
      <trkpt lat="45.51715" lon="7.26813">
        <ele>3978.1</ele>
        <time>2021-11-07T14:26:26Z</time>
      </trkpt>
      <trkpt lat="45.51715" lon="7.26812">
        <ele>3978.1</ele>
        <time>2021-11-07T14:26:30Z</time>
      </trkpt>
      <trkpt lat="45.51715" lon="7.26812">
        <ele>3978</ele>
        <time>2021-11-07T14:26:32Z</time>
      </trkpt>
      <trkpt lat="45.51715" lon="7.26813">
        <ele>3978</ele>
        <time>2021-11-07T14:26:34Z</time>
      </trkpt>
      <trkpt lat="45.51715" lon="7.26813">
        <ele>3978</ele>
        <time>2021-11-07T14:26:37Z</time>
      </trkpt>
      <trkpt lat="45.51715" lon="7.26813">
        <ele>3978</ele>
        <time>2021-11-07T14:26:39Z</time>
      </trkpt>
      <trkpt lat="45.51715" lon="7.26813">
        <ele>3978</ele>
        <time>2021-11-07T14:26:42Z</time>
      </trkpt>
      <trkpt lat="45.51715" lon="7.26813">
        <ele>3978</ele>
        <time>2021-11-07T14:26:49Z</time>
      </trkpt>
      <trkpt lat="45.51716" lon="7.26813">
        <ele>3978</ele>
        <time>2021-11-07T14:26:52Z</time>
      </trkpt>
      <trkpt lat="45.51716" lon="7.26813">
        <ele>3978</ele>
        <time>2021-11-07T14:26:55Z</time>
      </trkpt>
      <trkpt lat="45.51716" lon="7.26814">
        <ele>3978</ele>
        <time>2021-11-07T14:26:59Z</time>
      </trkpt>
      <trkpt lat="45.51717" lon="7.26813">
        <ele>3978</ele>
        <time>2021-11-07T14:27:03Z</time>
      </trkpt>
      <trkpt lat="45.51717" lon="7.26814">
        <ele>3978</ele>
        <time>2021-11-07T14:27:04Z</time>
      </trkpt>
      <trkpt lat="45.51717" lon="7.26814">
        <ele>3978</ele>
        <time>2021-11-07T14:27:08Z</time>
      </trkpt>
      <trkpt lat="45.51717" lon="7.26814">
        <ele>3978</ele>
        <time>2021-11-07T14:27:09Z</time>
      </trkpt>
      <trkpt lat="45.51717" lon="7.26813">
        <ele>3978</ele>
        <time>2021-11-07T14:27:14Z</time>
      </trkpt>
      <trkpt lat="45.51717" lon="7.26813">
        <ele>3978</ele>
        <time>2021-11-07T14:27:18Z</time>
      </trkpt>
      <trkpt lat="45.51717" lon="7.26813">
        <ele>3978</ele>
        <time>2021-11-07T14:27:23Z</time>
      </trkpt>
      <trkpt lat="45.51717" lon="7.26813">
        <ele>3978</ele>
        <time>2021-11-07T14:27:24Z</time>
      </trkpt>
      <trkpt lat="45.51716" lon="7.26813">
        <ele>3978</ele>
        <time>2021-11-07T14:27:33Z</time>
      </trkpt>
      <trkpt lat="45.51716" lon="7.26813">
        <ele>3978</ele>
        <time>2021-11-07T14:27:36Z</time>
      </trkpt>
      <trkpt lat="45.51716" lon="7.26813">
        <ele>3978</ele>
        <time>2021-11-07T14:27:42Z</time>
      </trkpt>
      <trkpt lat="45.51718" lon="7.26812">
        <ele>3978</ele>
        <time>2021-11-07T14:27:47Z</time>
      </trkpt>
      <trkpt lat="45.51718" lon="7.26812">
        <ele>3978</ele>
        <time>2021-11-07T14:27:48Z</time>
      </trkpt>
      <trkpt lat="45.51718" lon="7.26812">
        <ele>3977.9</ele>
        <time>2021-11-07T14:27:49Z</time>
      </trkpt>
      <trkpt lat="45.51719" lon="7.26811">
        <ele>3977.9</ele>
        <time>2021-11-07T14:27:51Z</time>
      </trkpt>
      <trkpt lat="45.51719" lon="7.26811">
        <ele>3977.9</ele>
        <time>2021-11-07T14:27:54Z</time>
      </trkpt>
      <trkpt lat="45.5172" lon="7.2681">
        <ele>3977.9</ele>
        <time>2021-11-07T14:27:57Z</time>
      </trkpt>
      <trkpt lat="45.51721" lon="7.2681">
        <ele>3977.8</ele>
        <time>2021-11-07T14:28:02Z</time>
      </trkpt>
      <trkpt lat="45.51721" lon="7.26809">
        <ele>3977.8</ele>
        <time>2021-11-07T14:28:09Z</time>
      </trkpt>
      <trkpt lat="45.51722" lon="7.26809">
        <ele>3977.8</ele>
        <time>2021-11-07T14:28:10Z</time>
      </trkpt>
      <trkpt lat="45.51722" lon="7.26809">
        <ele>3977.8</ele>
        <time>2021-11-07T14:28:12Z</time>
      </trkpt>
      <trkpt lat="45.51722" lon="7.2681">
        <ele>3977.8</ele>
        <time>2021-11-07T14:28:14Z</time>
      </trkpt>
      <trkpt lat="45.51723" lon="7.26809">
        <ele>3977.8</ele>
        <time>2021-11-07T14:28:22Z</time>
      </trkpt>
      <trkpt lat="45.51723" lon="7.26809">
        <ele>3977.8</ele>
        <time>2021-11-07T14:28:23Z</time>
      </trkpt>
      <trkpt lat="45.51723" lon="7.26809">
        <ele>3977.8</ele>
        <time>2021-11-07T14:28:25Z</time>
      </trkpt>
      <trkpt lat="45.51723" lon="7.26808">
        <ele>3977.8</ele>
        <time>2021-11-07T14:28:31Z</time>
      </trkpt>
      <trkpt lat="45.51723" lon="7.26809">
        <ele>3977.8</ele>
        <time>2021-11-07T14:28:34Z</time>
      </trkpt>
      <trkpt lat="45.51723" lon="7.26807">
        <ele>3977.9</ele>
        <time>2021-11-07T14:28:46Z</time>
      </trkpt>
      <trkpt lat="45.51723" lon="7.26807">
        <ele>3977.9</ele>
        <time>2021-11-07T14:28:52Z</time>
      </trkpt>
      <trkpt lat="45.51723" lon="7.26808">
        <ele>3977.9</ele>
        <time>2021-11-07T14:28:55Z</time>
      </trkpt>
      <trkpt lat="45.51723" lon="7.26808">
        <ele>3977.9</ele>
        <time>2021-11-07T14:28:56Z</time>
      </trkpt>
      <trkpt lat="45.51723" lon="7.26808">
        <ele>3977.9</ele>
        <time>2021-11-07T14:29:02Z</time>
      </trkpt>
      <trkpt lat="45.51723" lon="7.26808">
        <ele>3977.9</ele>
        <time>2021-11-07T14:29:08Z</time>
      </trkpt>
      <trkpt lat="45.51723" lon="7.26809">
        <ele>3977.9</ele>
        <time>2021-11-07T14:29:17Z</time>
      </trkpt>
      <trkpt lat="45.51722" lon="7.26811">
        <ele>3977.9</ele>
        <time>2021-11-07T14:29:27Z</time>
      </trkpt>
      <trkpt lat="45.51722" lon="7.26811">
        <ele>3977.9</ele>
        <time>2021-11-07T14:29:30Z</time>
      </trkpt>
      <trkpt lat="45.51722" lon="7.26811">
        <ele>3977.9</ele>
        <time>2021-11-07T14:29:34Z</time>
      </trkpt>
      <trkpt lat="45.51723" lon="7.26811">
        <ele>3977.9</ele>
        <time>2021-11-07T14:29:38Z</time>
      </trkpt>
      <trkpt lat="45.51723" lon="7.26811">
        <ele>3977.9</ele>
        <time>2021-11-07T14:29:39Z</time>
      </trkpt>
      <trkpt lat="45.51723" lon="7.26811">
        <ele>3977.9</ele>
        <time>2021-11-07T14:29:40Z</time>
      </trkpt>
      <trkpt lat="45.51723" lon="7.26811">
        <ele>3977.9</ele>
        <time>2021-11-07T14:29:43Z</time>
      </trkpt>
      <trkpt lat="45.51723" lon="7.2681">
        <ele>3977.9</ele>
        <time>2021-11-07T14:29:47Z</time>
      </trkpt>
      <trkpt lat="45.51723" lon="7.2681">
        <ele>3977.9</ele>
        <time>2021-11-07T14:29:49Z</time>
      </trkpt>
      <trkpt lat="45.51723" lon="7.2681">
        <ele>3977.9</ele>
        <time>2021-11-07T14:29:51Z</time>
      </trkpt>
      <trkpt lat="45.51723" lon="7.2681">
        <ele>3977.9</ele>
        <time>2021-11-07T14:29:53Z</time>
      </trkpt>
      <trkpt lat="45.51723" lon="7.2681">
        <ele>3977.9</ele>
        <time>2021-11-07T14:29:56Z</time>
      </trkpt>
      <trkpt lat="45.51723" lon="7.2681">
        <ele>3977.9</ele>
        <time>2021-11-07T14:30:05Z</time>
      </trkpt>
      <trkpt lat="45.51723" lon="7.2681">
        <ele>3977.9</ele>
        <time>2021-11-07T14:30:06Z</time>
      </trkpt>
      <trkpt lat="45.51723" lon="7.2681">
        <ele>3977.9</ele>
        <time>2021-11-07T14:30:11Z</time>
      </trkpt>
      <trkpt lat="45.51723" lon="7.2681">
        <ele>3977.9</ele>
        <time>2021-11-07T14:30:13Z</time>
      </trkpt>
      <trkpt lat="45.51723" lon="7.2681">
        <ele>3977.9</ele>
        <time>2021-11-07T14:30:15Z</time>
      </trkpt>
      <trkpt lat="45.51722" lon="7.26809">
        <ele>3978</ele>
        <time>2021-11-07T14:30:21Z</time>
      </trkpt>
      <trkpt lat="45.51722" lon="7.2681">
        <ele>3978</ele>
        <time>2021-11-07T14:30:22Z</time>
      </trkpt>
      <trkpt lat="45.51722" lon="7.2681">
        <ele>3978</ele>
        <time>2021-11-07T14:30:27Z</time>
      </trkpt>
      <trkpt lat="45.51722" lon="7.26809">
        <ele>3978</ele>
        <time>2021-11-07T14:30:39Z</time>
      </trkpt>
      <trkpt lat="45.51722" lon="7.26809">
        <ele>3978</ele>
        <time>2021-11-07T14:30:41Z</time>
      </trkpt>
      <trkpt lat="45.51722" lon="7.26809">
        <ele>3978</ele>
        <time>2021-11-07T14:30:43Z</time>
      </trkpt>
      <trkpt lat="45.51722" lon="7.26809">
        <ele>3978</ele>
        <time>2021-11-07T14:30:44Z</time>
      </trkpt>
      <trkpt lat="45.51722" lon="7.2681">
        <ele>3978</ele>
        <time>2021-11-07T14:30:57Z</time>
      </trkpt>
      <trkpt lat="45.51722" lon="7.2681">
        <ele>3978</ele>
        <time>2021-11-07T14:30:59Z</time>
      </trkpt>
      <trkpt lat="45.51722" lon="7.2681">
        <ele>3978</ele>
        <time>2021-11-07T14:31:04Z</time>
      </trkpt>
      <trkpt lat="45.51722" lon="7.2681">
        <ele>3978</ele>
        <time>2021-11-07T14:31:08Z</time>
      </trkpt>
      <trkpt lat="45.51722" lon="7.2681">
        <ele>3978</ele>
        <time>2021-11-07T14:31:13Z</time>
      </trkpt>
      <trkpt lat="45.51722" lon="7.2681">
        <ele>3978</ele>
        <time>2021-11-07T14:31:17Z</time>
      </trkpt>
      <trkpt lat="45.51722" lon="7.2681">
        <ele>3978</ele>
        <time>2021-11-07T14:31:18Z</time>
      </trkpt>
      <trkpt lat="45.51722" lon="7.2681">
        <ele>3978</ele>
        <time>2021-11-07T14:31:19Z</time>
      </trkpt>
      <trkpt lat="45.51722" lon="7.26809">
        <ele>3978</ele>
        <time>2021-11-07T14:31:26Z</time>
      </trkpt>
      <trkpt lat="45.51722" lon="7.26809">
        <ele>3978</ele>
        <time>2021-11-07T14:31:28Z</time>
      </trkpt>
      <trkpt lat="45.51722" lon="7.2681">
        <ele>3978</ele>
        <time>2021-11-07T14:31:31Z</time>
      </trkpt>
      <trkpt lat="45.51722" lon="7.2681">
        <ele>3978</ele>
        <time>2021-11-07T14:31:33Z</time>
      </trkpt>
      <trkpt lat="45.51722" lon="7.2681">
        <ele>3978</ele>
        <time>2021-11-07T14:31:34Z</time>
      </trkpt>
      <trkpt lat="45.51722" lon="7.2681">
        <ele>3978</ele>
        <time>2021-11-07T14:31:37Z</time>
      </trkpt>
      <trkpt lat="45.51722" lon="7.2681">
        <ele>3978</ele>
        <time>2021-11-07T14:31:39Z</time>
      </trkpt>
      <trkpt lat="45.51722" lon="7.26811">
        <ele>3978</ele>
        <time>2021-11-07T14:31:43Z</time>
      </trkpt>
      <trkpt lat="45.51721" lon="7.26811">
        <ele>3978</ele>
        <time>2021-11-07T14:31:48Z</time>
      </trkpt>
      <trkpt lat="45.51721" lon="7.26811">
        <ele>3978</ele>
        <time>2021-11-07T14:31:50Z</time>
      </trkpt>
      <trkpt lat="45.51721" lon="7.26811">
        <ele>3978</ele>
        <time>2021-11-07T14:31:51Z</time>
      </trkpt>
      <trkpt lat="45.51722" lon="7.26812">
        <ele>3978</ele>
        <time>2021-11-07T14:31:53Z</time>
      </trkpt>
      <trkpt lat="45.51722" lon="7.26811">
        <ele>3978</ele>
        <time>2021-11-07T14:31:57Z</time>
      </trkpt>
      <trkpt lat="45.51722" lon="7.26811">
        <ele>3978</ele>
        <time>2021-11-07T14:32:08Z</time>
      </trkpt>
      <trkpt lat="45.51722" lon="7.26811">
        <ele>3978</ele>
        <time>2021-11-07T14:32:10Z</time>
      </trkpt>
      <trkpt lat="45.51722" lon="7.2681">
        <ele>3978.1</ele>
        <time>2021-11-07T14:32:13Z</time>
      </trkpt>
      <trkpt lat="45.51722" lon="7.2681">
        <ele>3978.1</ele>
        <time>2021-11-07T14:32:16Z</time>
      </trkpt>
      <trkpt lat="45.51722" lon="7.2681">
        <ele>3978.1</ele>
        <time>2021-11-07T14:32:19Z</time>
      </trkpt>
      <trkpt lat="45.51723" lon="7.2681">
        <ele>3978.1</ele>
        <time>2021-11-07T14:32:21Z</time>
      </trkpt>
      <trkpt lat="45.51722" lon="7.2681">
        <ele>3978.1</ele>
        <time>2021-11-07T14:32:24Z</time>
      </trkpt>
      <trkpt lat="45.51722" lon="7.2681">
        <ele>3978.1</ele>
        <time>2021-11-07T14:32:25Z</time>
      </trkpt>
      <trkpt lat="45.51722" lon="7.2681">
        <ele>3978.1</ele>
        <time>2021-11-07T14:32:26Z</time>
      </trkpt>
      <trkpt lat="45.51722" lon="7.26809">
        <ele>3978.1</ele>
        <time>2021-11-07T14:32:29Z</time>
      </trkpt>
      <trkpt lat="45.51722" lon="7.26809">
        <ele>3978.1</ele>
        <time>2021-11-07T14:32:30Z</time>
      </trkpt>
      <trkpt lat="45.51722" lon="7.26809">
        <ele>3978.1</ele>
        <time>2021-11-07T14:32:33Z</time>
      </trkpt>
      <trkpt lat="45.51721" lon="7.26809">
        <ele>3978.1</ele>
        <time>2021-11-07T14:32:40Z</time>
      </trkpt>
      <trkpt lat="45.5172" lon="7.26809">
        <ele>3978.1</ele>
        <time>2021-11-07T14:32:43Z</time>
      </trkpt>
      <trkpt lat="45.51721" lon="7.26809">
        <ele>3978.1</ele>
        <time>2021-11-07T14:32:49Z</time>
      </trkpt>
      <trkpt lat="45.5172" lon="7.26809">
        <ele>3978.1</ele>
        <time>2021-11-07T14:32:55Z</time>
      </trkpt>
      <trkpt lat="45.5172" lon="7.26809">
        <ele>3978.1</ele>
        <time>2021-11-07T14:32:56Z</time>
      </trkpt>
      <trkpt lat="45.5172" lon="7.26809">
        <ele>3978.1</ele>
        <time>2021-11-07T14:32:58Z</time>
      </trkpt>
      <trkpt lat="45.5172" lon="7.26809">
        <ele>3978.1</ele>
        <time>2021-11-07T14:33:06Z</time>
      </trkpt>
      <trkpt lat="45.51719" lon="7.26809">
        <ele>3978.1</ele>
        <time>2021-11-07T14:33:16Z</time>
      </trkpt>
      <trkpt lat="45.51719" lon="7.26809">
        <ele>3978.1</ele>
        <time>2021-11-07T14:33:18Z</time>
      </trkpt>
      <trkpt lat="45.51719" lon="7.2681">
        <ele>3978.1</ele>
        <time>2021-11-07T14:33:23Z</time>
      </trkpt>
      <trkpt lat="45.51718" lon="7.26811">
        <ele>3978.1</ele>
        <time>2021-11-07T14:33:27Z</time>
      </trkpt>
      <trkpt lat="45.51718" lon="7.26812">
        <ele>3978.1</ele>
        <time>2021-11-07T14:33:32Z</time>
      </trkpt>
      <trkpt lat="45.51718" lon="7.26812">
        <ele>3978.1</ele>
        <time>2021-11-07T14:33:33Z</time>
      </trkpt>
      <trkpt lat="45.51718" lon="7.26812">
        <ele>3978.2</ele>
        <time>2021-11-07T14:33:40Z</time>
      </trkpt>
      <trkpt lat="45.51717" lon="7.26812">
        <ele>3978.2</ele>
        <time>2021-11-07T14:33:45Z</time>
      </trkpt>
      <trkpt lat="45.51717" lon="7.26813">
        <ele>3978.2</ele>
        <time>2021-11-07T14:33:47Z</time>
      </trkpt>
      <trkpt lat="45.51717" lon="7.26812">
        <ele>3978.2</ele>
        <time>2021-11-07T14:33:48Z</time>
      </trkpt>
      <trkpt lat="45.51717" lon="7.26813">
        <ele>3978.2</ele>
        <time>2021-11-07T14:33:49Z</time>
      </trkpt>
      <trkpt lat="45.51717" lon="7.26812">
        <ele>3978.2</ele>
        <time>2021-11-07T14:34:02Z</time>
      </trkpt>
      <trkpt lat="45.51717" lon="7.26811">
        <ele>3978.2</ele>
        <time>2021-11-07T14:34:13Z</time>
      </trkpt>
      <trkpt lat="45.51718" lon="7.26811">
        <ele>3978.2</ele>
        <time>2021-11-07T14:34:15Z</time>
      </trkpt>
      <trkpt lat="45.51717" lon="7.26811">
        <ele>3978.2</ele>
        <time>2021-11-07T14:34:18Z</time>
      </trkpt>
      <trkpt lat="45.51717" lon="7.2681">
        <ele>3978.2</ele>
        <time>2021-11-07T14:34:20Z</time>
      </trkpt>
      <trkpt lat="45.51717" lon="7.2681">
        <ele>3978.2</ele>
        <time>2021-11-07T14:34:27Z</time>
      </trkpt>
      <trkpt lat="45.51717" lon="7.2681">
        <ele>3978.2</ele>
        <time>2021-11-07T14:34:34Z</time>
      </trkpt>
      <trkpt lat="45.51717" lon="7.2681">
        <ele>3978.2</ele>
        <time>2021-11-07T14:34:38Z</time>
      </trkpt>
      <trkpt lat="45.51717" lon="7.2681">
        <ele>3978.2</ele>
        <time>2021-11-07T14:34:39Z</time>
      </trkpt>
      <trkpt lat="45.51717" lon="7.2681">
        <ele>3978.2</ele>
        <time>2021-11-07T14:34:48Z</time>
      </trkpt>
      <trkpt lat="45.51717" lon="7.2681">
        <ele>3978.2</ele>
        <time>2021-11-07T14:34:49Z</time>
      </trkpt>
      <trkpt lat="45.51717" lon="7.2681">
        <ele>3978.2</ele>
        <time>2021-11-07T14:34:51Z</time>
      </trkpt>
      <trkpt lat="45.51717" lon="7.2681">
        <ele>3978.2</ele>
        <time>2021-11-07T14:34:54Z</time>
      </trkpt>
      <trkpt lat="45.51717" lon="7.26812">
        <ele>3978.2</ele>
        <time>2021-11-07T14:35:02Z</time>
      </trkpt>
      <trkpt lat="45.51717" lon="7.26812">
        <ele>3978.2</ele>
        <time>2021-11-07T14:35:04Z</time>
      </trkpt>
      <trkpt lat="45.51717" lon="7.26812">
        <ele>3978.2</ele>
        <time>2021-11-07T14:35:10Z</time>
      </trkpt>
      <trkpt lat="45.51717" lon="7.26812">
        <ele>3978.2</ele>
        <time>2021-11-07T14:35:17Z</time>
      </trkpt>
      <trkpt lat="45.51716" lon="7.26813">
        <ele>3978.2</ele>
        <time>2021-11-07T14:35:19Z</time>
      </trkpt>
      <trkpt lat="45.51716" lon="7.26813">
        <ele>3978.2</ele>
        <time>2021-11-07T14:35:22Z</time>
      </trkpt>
      <trkpt lat="45.51716" lon="7.26813">
        <ele>3978.2</ele>
        <time>2021-11-07T14:35:26Z</time>
      </trkpt>
      <trkpt lat="45.51716" lon="7.26813">
        <ele>3978.2</ele>
        <time>2021-11-07T14:35:29Z</time>
      </trkpt>
      <trkpt lat="45.51715" lon="7.26813">
        <ele>3978.2</ele>
        <time>2021-11-07T14:35:30Z</time>
      </trkpt>
      <trkpt lat="45.51715" lon="7.26813">
        <ele>3978.2</ele>
        <time>2021-11-07T14:35:31Z</time>
      </trkpt>
      <trkpt lat="45.51715" lon="7.26813">
        <ele>3978.2</ele>
        <time>2021-11-07T14:35:32Z</time>
      </trkpt>
      <trkpt lat="45.51715" lon="7.26813">
        <ele>3978.2</ele>
        <time>2021-11-07T14:35:35Z</time>
      </trkpt>
      <trkpt lat="45.51715" lon="7.26813">
        <ele>3978.2</ele>
        <time>2021-11-07T14:35:38Z</time>
      </trkpt>
      <trkpt lat="45.51714" lon="7.26813">
        <ele>3978.2</ele>
        <time>2021-11-07T14:35:42Z</time>
      </trkpt>
      <trkpt lat="45.51715" lon="7.26812">
        <ele>3978.2</ele>
        <time>2021-11-07T14:35:48Z</time>
      </trkpt>
      <trkpt lat="45.51715" lon="7.26812">
        <ele>3978.2</ele>
        <time>2021-11-07T14:35:57Z</time>
      </trkpt>
      <trkpt lat="45.51714" lon="7.26813">
        <ele>3978.3</ele>
        <time>2021-11-07T14:35:59Z</time>
      </trkpt>
      <trkpt lat="45.51714" lon="7.26813">
        <ele>3978.3</ele>
        <time>2021-11-07T14:36:01Z</time>
      </trkpt>
      <trkpt lat="45.51714" lon="7.26813">
        <ele>3978.3</ele>
        <time>2021-11-07T14:36:04Z</time>
      </trkpt>
      <trkpt lat="45.51715" lon="7.26813">
        <ele>3978.3</ele>
        <time>2021-11-07T14:36:09Z</time>
      </trkpt>
      <trkpt lat="45.51715" lon="7.26813">
        <ele>3978.3</ele>
        <time>2021-11-07T14:36:14Z</time>
      </trkpt>
      <trkpt lat="45.51715" lon="7.26814">
        <ele>3978.3</ele>
        <time>2021-11-07T14:36:24Z</time>
      </trkpt>
      <trkpt lat="45.51715" lon="7.26814">
        <ele>3978.3</ele>
        <time>2021-11-07T14:36:25Z</time>
      </trkpt>
      <trkpt lat="45.51715" lon="7.26814">
        <ele>3978.3</ele>
        <time>2021-11-07T14:36:28Z</time>
      </trkpt>
      <trkpt lat="45.51715" lon="7.26814">
        <ele>3978.3</ele>
        <time>2021-11-07T14:36:31Z</time>
      </trkpt>
      <trkpt lat="45.51714" lon="7.26814">
        <ele>3978.3</ele>
        <time>2021-11-07T14:36:38Z</time>
      </trkpt>
      <trkpt lat="45.51714" lon="7.26815">
        <ele>3978.3</ele>
        <time>2021-11-07T14:36:45Z</time>
      </trkpt>
      <trkpt lat="45.51714" lon="7.26815">
        <ele>3978.3</ele>
        <time>2021-11-07T14:36:46Z</time>
      </trkpt>
      <trkpt lat="45.51714" lon="7.26815">
        <ele>3978.3</ele>
        <time>2021-11-07T14:36:47Z</time>
      </trkpt>
      <trkpt lat="45.51714" lon="7.26815">
        <ele>3978.3</ele>
        <time>2021-11-07T14:36:50Z</time>
      </trkpt>
      <trkpt lat="45.51714" lon="7.26815">
        <ele>3978.3</ele>
        <time>2021-11-07T14:36:57Z</time>
      </trkpt>
      <trkpt lat="45.51714" lon="7.26816">
        <ele>3978.3</ele>
        <time>2021-11-07T14:37:01Z</time>
      </trkpt>
      <trkpt lat="45.51714" lon="7.26816">
        <ele>3978.3</ele>
        <time>2021-11-07T14:37:08Z</time>
      </trkpt>
      <trkpt lat="45.51714" lon="7.26816">
        <ele>3978.3</ele>
        <time>2021-11-07T14:37:13Z</time>
      </trkpt>
      <trkpt lat="45.51714" lon="7.26816">
        <ele>3978.3</ele>
        <time>2021-11-07T14:37:16Z</time>
      </trkpt>
      <trkpt lat="45.51715" lon="7.26817">
        <ele>3978.3</ele>
        <time>2021-11-07T14:37:20Z</time>
      </trkpt>
      <trkpt lat="45.51715" lon="7.26817">
        <ele>3978.3</ele>
        <time>2021-11-07T14:37:22Z</time>
      </trkpt>
      <trkpt lat="45.51715" lon="7.26816">
        <ele>3978.3</ele>
        <time>2021-11-07T14:37:27Z</time>
      </trkpt>
      <trkpt lat="45.51716" lon="7.26815">
        <ele>3978.3</ele>
        <time>2021-11-07T14:37:32Z</time>
      </trkpt>
      <trkpt lat="45.51716" lon="7.26815">
        <ele>3978.3</ele>
        <time>2021-11-07T14:37:37Z</time>
      </trkpt>
      <trkpt lat="45.51715" lon="7.26815">
        <ele>3978.3</ele>
        <time>2021-11-07T14:37:42Z</time>
      </trkpt>
      <trkpt lat="45.51715" lon="7.26815">
        <ele>3978.3</ele>
        <time>2021-11-07T14:37:43Z</time>
      </trkpt>
      <trkpt lat="45.51715" lon="7.26815">
        <ele>3978.3</ele>
        <time>2021-11-07T14:37:45Z</time>
      </trkpt>
      <trkpt lat="45.51714" lon="7.26816">
        <ele>3978.3</ele>
        <time>2021-11-07T14:37:53Z</time>
      </trkpt>
      <trkpt lat="45.51715" lon="7.26815">
        <ele>3978.4</ele>
        <time>2021-11-07T14:37:55Z</time>
      </trkpt>
      <trkpt lat="45.51714" lon="7.26815">
        <ele>3978.4</ele>
        <time>2021-11-07T14:37:59Z</time>
      </trkpt>
      <trkpt lat="45.51715" lon="7.26816">
        <ele>3978.4</ele>
        <time>2021-11-07T14:38:01Z</time>
      </trkpt>
      <trkpt lat="45.51714" lon="7.26816">
        <ele>3978.4</ele>
        <time>2021-11-07T14:38:13Z</time>
      </trkpt>
      <trkpt lat="45.51714" lon="7.26816">
        <ele>3978.4</ele>
        <time>2021-11-07T14:38:15Z</time>
      </trkpt>
      <trkpt lat="45.51714" lon="7.26816">
        <ele>3978.4</ele>
        <time>2021-11-07T14:38:17Z</time>
      </trkpt>
      <trkpt lat="45.51714" lon="7.26816">
        <ele>3978.4</ele>
        <time>2021-11-07T14:38:18Z</time>
      </trkpt>
      <trkpt lat="45.51714" lon="7.26816">
        <ele>3978.4</ele>
        <time>2021-11-07T14:38:30Z</time>
      </trkpt>
      <trkpt lat="45.51713" lon="7.26816">
        <ele>3978.4</ele>
        <time>2021-11-07T14:38:34Z</time>
      </trkpt>
      <trkpt lat="45.51714" lon="7.26816">
        <ele>3978.4</ele>
        <time>2021-11-07T14:38:37Z</time>
      </trkpt>
      <trkpt lat="45.51713" lon="7.26817">
        <ele>3978.4</ele>
        <time>2021-11-07T14:38:41Z</time>
      </trkpt>
      <trkpt lat="45.51714" lon="7.26817">
        <ele>3978.4</ele>
        <time>2021-11-07T14:38:43Z</time>
      </trkpt>
      <trkpt lat="45.51714" lon="7.26817">
        <ele>3978.4</ele>
        <time>2021-11-07T14:38:46Z</time>
      </trkpt>
      <trkpt lat="45.51714" lon="7.26816">
        <ele>3978.4</ele>
        <time>2021-11-07T14:38:53Z</time>
      </trkpt>
      <trkpt lat="45.51714" lon="7.26815">
        <ele>3978.4</ele>
        <time>2021-11-07T14:39:00Z</time>
      </trkpt>
      <trkpt lat="45.51714" lon="7.26815">
        <ele>3978.4</ele>
        <time>2021-11-07T14:39:01Z</time>
      </trkpt>
      <trkpt lat="45.51714" lon="7.26815">
        <ele>3978.4</ele>
        <time>2021-11-07T14:39:04Z</time>
      </trkpt>
      <trkpt lat="45.51714" lon="7.26815">
        <ele>3978.4</ele>
        <time>2021-11-07T14:39:05Z</time>
      </trkpt>
      <trkpt lat="45.51713" lon="7.26815">
        <ele>3978.4</ele>
        <time>2021-11-07T14:39:15Z</time>
      </trkpt>
      <trkpt lat="45.51714" lon="7.26815">
        <ele>3978.4</ele>
        <time>2021-11-07T14:39:16Z</time>
      </trkpt>
      <trkpt lat="45.51714" lon="7.26813">
        <ele>3978.4</ele>
        <time>2021-11-07T14:39:30Z</time>
      </trkpt>
      <trkpt lat="45.51714" lon="7.26813">
        <ele>3978.4</ele>
        <time>2021-11-07T14:39:32Z</time>
      </trkpt>
      <trkpt lat="45.51713" lon="7.26813">
        <ele>3978.4</ele>
        <time>2021-11-07T14:39:39Z</time>
      </trkpt>
      <trkpt lat="45.51713" lon="7.26813">
        <ele>3978.4</ele>
        <time>2021-11-07T14:39:41Z</time>
      </trkpt>
      <trkpt lat="45.51713" lon="7.26813">
        <ele>3978.4</ele>
        <time>2021-11-07T14:39:44Z</time>
      </trkpt>
      <trkpt lat="45.51713" lon="7.26812">
        <ele>3978.4</ele>
        <time>2021-11-07T14:39:51Z</time>
      </trkpt>
      <trkpt lat="45.51714" lon="7.26812">
        <ele>3978.4</ele>
        <time>2021-11-07T14:39:59Z</time>
      </trkpt>
      <trkpt lat="45.51714" lon="7.26814">
        <ele>3978.5</ele>
        <time>2021-11-07T14:40:09Z</time>
      </trkpt>
      <trkpt lat="45.51714" lon="7.26815">
        <ele>3978.5</ele>
        <time>2021-11-07T14:40:18Z</time>
      </trkpt>
      <trkpt lat="45.51714" lon="7.26815">
        <ele>3978.5</ele>
        <time>2021-11-07T14:40:24Z</time>
      </trkpt>
      <trkpt lat="45.51714" lon="7.26815">
        <ele>3978.5</ele>
        <time>2021-11-07T14:40:28Z</time>
      </trkpt>
      <trkpt lat="45.51714" lon="7.26816">
        <ele>3978.5</ele>
        <time>2021-11-07T14:40:33Z</time>
      </trkpt>
      <trkpt lat="45.51714" lon="7.26815">
        <ele>3978.5</ele>
        <time>2021-11-07T14:40:34Z</time>
      </trkpt>
      <trkpt lat="45.51714" lon="7.26815">
        <ele>3978.5</ele>
        <time>2021-11-07T14:40:35Z</time>
      </trkpt>
      <trkpt lat="45.51714" lon="7.26815">
        <ele>3978.5</ele>
        <time>2021-11-07T14:40:38Z</time>
      </trkpt>
      <trkpt lat="45.51714" lon="7.26815">
        <ele>3978.5</ele>
        <time>2021-11-07T14:40:45Z</time>
      </trkpt>
      <trkpt lat="45.51714" lon="7.26815">
        <ele>3978.5</ele>
        <time>2021-11-07T14:40:50Z</time>
      </trkpt>
      <trkpt lat="45.51714" lon="7.26815">
        <ele>3978.5</ele>
        <time>2021-11-07T14:40:52Z</time>
      </trkpt>
      <trkpt lat="45.51714" lon="7.26816">
        <ele>3978.5</ele>
        <time>2021-11-07T14:40:59Z</time>
      </trkpt>
      <trkpt lat="45.51714" lon="7.26816">
        <ele>3978.5</ele>
        <time>2021-11-07T14:41:03Z</time>
      </trkpt>
      <trkpt lat="45.51714" lon="7.26815">
        <ele>3978.5</ele>
        <time>2021-11-07T14:41:05Z</time>
      </trkpt>
      <trkpt lat="45.51714" lon="7.26814">
        <ele>3978.5</ele>
        <time>2021-11-07T14:41:10Z</time>
      </trkpt>
      <trkpt lat="45.51715" lon="7.26814">
        <ele>3978.5</ele>
        <time>2021-11-07T14:41:16Z</time>
      </trkpt>
      <trkpt lat="45.51716" lon="7.26814">
        <ele>3978.5</ele>
        <time>2021-11-07T14:41:19Z</time>
      </trkpt>
      <trkpt lat="45.51715" lon="7.26815">
        <ele>3978.5</ele>
        <time>2021-11-07T14:41:24Z</time>
      </trkpt>
      <trkpt lat="45.51715" lon="7.26815">
        <ele>3978.5</ele>
        <time>2021-11-07T14:41:26Z</time>
      </trkpt>
      <trkpt lat="45.51715" lon="7.26815">
        <ele>3978.5</ele>
        <time>2021-11-07T14:41:30Z</time>
      </trkpt>
      <trkpt lat="45.51715" lon="7.26816">
        <ele>3978.5</ele>
        <time>2021-11-07T14:41:38Z</time>
      </trkpt>
      <trkpt lat="45.51715" lon="7.26816">
        <ele>3978.5</ele>
        <time>2021-11-07T14:41:40Z</time>
      </trkpt>
      <trkpt lat="45.51715" lon="7.26816">
        <ele>3978.5</ele>
        <time>2021-11-07T14:41:42Z</time>
      </trkpt>
      <trkpt lat="45.51715" lon="7.26816">
        <ele>3978.5</ele>
        <time>2021-11-07T14:41:44Z</time>
      </trkpt>
      <trkpt lat="45.51715" lon="7.26816">
        <ele>3978.5</ele>
        <time>2021-11-07T14:41:45Z</time>
      </trkpt>
      <trkpt lat="45.51715" lon="7.26816">
        <ele>3978.5</ele>
        <time>2021-11-07T14:41:46Z</time>
      </trkpt>
      <trkpt lat="45.51715" lon="7.26816">
        <ele>3978.5</ele>
        <time>2021-11-07T14:41:49Z</time>
      </trkpt>
      <trkpt lat="45.51715" lon="7.26816">
        <ele>3978.5</ele>
        <time>2021-11-07T14:41:51Z</time>
      </trkpt>
      <trkpt lat="45.51715" lon="7.26816">
        <ele>3978.5</ele>
        <time>2021-11-07T14:41:54Z</time>
      </trkpt>
      <trkpt lat="45.51714" lon="7.26816">
        <ele>3978.5</ele>
        <time>2021-11-07T14:41:56Z</time>
      </trkpt>
      <trkpt lat="45.51714" lon="7.26815">
        <ele>3978.6</ele>
        <time>2021-11-07T14:41:58Z</time>
      </trkpt>
      <trkpt lat="45.51714" lon="7.26815">
        <ele>3978.6</ele>
        <time>2021-11-07T14:42:01Z</time>
      </trkpt>
      <trkpt lat="45.51714" lon="7.26815">
        <ele>3978.6</ele>
        <time>2021-11-07T14:42:03Z</time>
      </trkpt>
      <trkpt lat="45.51714" lon="7.26815">
        <ele>3978.6</ele>
        <time>2021-11-07T14:42:06Z</time>
      </trkpt>
      <trkpt lat="45.51714" lon="7.26815">
        <ele>3978.6</ele>
        <time>2021-11-07T14:42:08Z</time>
      </trkpt>
      <trkpt lat="45.51714" lon="7.26814">
        <ele>3978.6</ele>
        <time>2021-11-07T14:42:11Z</time>
      </trkpt>
      <trkpt lat="45.51714" lon="7.26814">
        <ele>3978.6</ele>
        <time>2021-11-07T14:42:13Z</time>
      </trkpt>
      <trkpt lat="45.51715" lon="7.26814">
        <ele>3978.6</ele>
        <time>2021-11-07T14:42:17Z</time>
      </trkpt>
      <trkpt lat="45.51715" lon="7.26814">
        <ele>3978.6</ele>
        <time>2021-11-07T14:42:20Z</time>
      </trkpt>
      <trkpt lat="45.51715" lon="7.26814">
        <ele>3978.6</ele>
        <time>2021-11-07T14:42:24Z</time>
      </trkpt>
      <trkpt lat="45.51715" lon="7.26814">
        <ele>3978.6</ele>
        <time>2021-11-07T14:42:26Z</time>
      </trkpt>
      <trkpt lat="45.51715" lon="7.26814">
        <ele>3978.6</ele>
        <time>2021-11-07T14:42:29Z</time>
      </trkpt>
      <trkpt lat="45.51715" lon="7.26814">
        <ele>3978.6</ele>
        <time>2021-11-07T14:42:33Z</time>
      </trkpt>
      <trkpt lat="45.51715" lon="7.26814">
        <ele>3978.6</ele>
        <time>2021-11-07T14:42:35Z</time>
      </trkpt>
      <trkpt lat="45.51715" lon="7.26815">
        <ele>3978.6</ele>
        <time>2021-11-07T14:42:38Z</time>
      </trkpt>
      <trkpt lat="45.51715" lon="7.26814">
        <ele>3978.6</ele>
        <time>2021-11-07T14:42:41Z</time>
      </trkpt>
      <trkpt lat="45.51715" lon="7.26815">
        <ele>3978.6</ele>
        <time>2021-11-07T14:42:46Z</time>
      </trkpt>
      <trkpt lat="45.51715" lon="7.26815">
        <ele>3978.6</ele>
        <time>2021-11-07T14:42:49Z</time>
      </trkpt>
      <trkpt lat="45.51715" lon="7.26815">
        <ele>3978.6</ele>
        <time>2021-11-07T14:42:53Z</time>
      </trkpt>
      <trkpt lat="45.51715" lon="7.26815">
        <ele>3978.6</ele>
        <time>2021-11-07T14:42:54Z</time>
      </trkpt>
      <trkpt lat="45.51715" lon="7.26815">
        <ele>3978.6</ele>
        <time>2021-11-07T14:42:58Z</time>
      </trkpt>
      <trkpt lat="45.51716" lon="7.26815">
        <ele>3978.6</ele>
        <time>2021-11-07T14:43:03Z</time>
      </trkpt>
      <trkpt lat="45.51716" lon="7.26815">
        <ele>3978.6</ele>
        <time>2021-11-07T14:43:06Z</time>
      </trkpt>
      <trkpt lat="45.51716" lon="7.26815">
        <ele>3978.6</ele>
        <time>2021-11-07T14:43:08Z</time>
      </trkpt>
      <trkpt lat="45.51716" lon="7.26815">
        <ele>3978.6</ele>
        <time>2021-11-07T14:43:12Z</time>
      </trkpt>
      <trkpt lat="45.51717" lon="7.26815">
        <ele>3978.6</ele>
        <time>2021-11-07T14:43:14Z</time>
      </trkpt>
      <trkpt lat="45.51717" lon="7.26814">
        <ele>3978.6</ele>
        <time>2021-11-07T14:43:17Z</time>
      </trkpt>
      <trkpt lat="45.51717" lon="7.26814">
        <ele>3978.6</ele>
        <time>2021-11-07T14:43:20Z</time>
      </trkpt>
      <trkpt lat="45.51717" lon="7.26815">
        <ele>3978.6</ele>
        <time>2021-11-07T14:43:23Z</time>
      </trkpt>
      <trkpt lat="45.51716" lon="7.26814">
        <ele>3978.6</ele>
        <time>2021-11-07T14:43:31Z</time>
      </trkpt>
      <trkpt lat="45.51715" lon="7.26815">
        <ele>3978.7</ele>
        <time>2021-11-07T14:43:39Z</time>
      </trkpt>
      <trkpt lat="45.51715" lon="7.26816">
        <ele>3978.7</ele>
        <time>2021-11-07T14:43:43Z</time>
      </trkpt>
      <trkpt lat="45.51715" lon="7.26816">
        <ele>3978.7</ele>
        <time>2021-11-07T14:43:44Z</time>
      </trkpt>
      <trkpt lat="45.51715" lon="7.26816">
        <ele>3978.7</ele>
        <time>2021-11-07T14:43:49Z</time>
      </trkpt>
      <trkpt lat="45.51716" lon="7.26815">
        <ele>3978.7</ele>
        <time>2021-11-07T14:44:02Z</time>
      </trkpt>
      <trkpt lat="45.51715" lon="7.26815">
        <ele>3978.7</ele>
        <time>2021-11-07T14:44:05Z</time>
      </trkpt>
      <trkpt lat="45.51715" lon="7.26815">
        <ele>3978.7</ele>
        <time>2021-11-07T14:44:12Z</time>
      </trkpt>
      <trkpt lat="45.51715" lon="7.26815">
        <ele>3978.7</ele>
        <time>2021-11-07T14:44:14Z</time>
      </trkpt>
      <trkpt lat="45.51715" lon="7.26815">
        <ele>3978.7</ele>
        <time>2021-11-07T14:44:16Z</time>
      </trkpt>
      <trkpt lat="45.51715" lon="7.26815">
        <ele>3978.7</ele>
        <time>2021-11-07T14:44:23Z</time>
      </trkpt>
      <trkpt lat="45.51714" lon="7.26815">
        <ele>3978.7</ele>
        <time>2021-11-07T14:44:28Z</time>
      </trkpt>
      <trkpt lat="45.51714" lon="7.26815">
        <ele>3978.7</ele>
        <time>2021-11-07T14:44:30Z</time>
      </trkpt>
      <trkpt lat="45.51714" lon="7.26815">
        <ele>3978.7</ele>
        <time>2021-11-07T14:44:33Z</time>
      </trkpt>
      <trkpt lat="45.51714" lon="7.26815">
        <ele>3978.7</ele>
        <time>2021-11-07T14:44:34Z</time>
      </trkpt>
      <trkpt lat="45.51714" lon="7.26815">
        <ele>3978.7</ele>
        <time>2021-11-07T14:44:38Z</time>
      </trkpt>
      <trkpt lat="45.51714" lon="7.26814">
        <ele>3978.7</ele>
        <time>2021-11-07T14:44:41Z</time>
      </trkpt>
      <trkpt lat="45.51714" lon="7.26814">
        <ele>3978.7</ele>
        <time>2021-11-07T14:44:45Z</time>
      </trkpt>
      <trkpt lat="45.51714" lon="7.26814">
        <ele>3978.7</ele>
        <time>2021-11-07T14:44:48Z</time>
      </trkpt>
      <trkpt lat="45.51714" lon="7.26814">
        <ele>3978.7</ele>
        <time>2021-11-07T14:44:49Z</time>
      </trkpt>
      <trkpt lat="45.51714" lon="7.26813">
        <ele>3978.7</ele>
        <time>2021-11-07T14:44:51Z</time>
      </trkpt>
      <trkpt lat="45.51714" lon="7.26814">
        <ele>3978.7</ele>
        <time>2021-11-07T14:44:52Z</time>
      </trkpt>
      <trkpt lat="45.51714" lon="7.26814">
        <ele>3978.7</ele>
        <time>2021-11-07T14:44:56Z</time>
      </trkpt>
      <trkpt lat="45.51714" lon="7.26813">
        <ele>3978.7</ele>
        <time>2021-11-07T14:45:01Z</time>
      </trkpt>
      <trkpt lat="45.51714" lon="7.26813">
        <ele>3978.7</ele>
        <time>2021-11-07T14:45:05Z</time>
      </trkpt>
      <trkpt lat="45.51714" lon="7.26814">
        <ele>3978.7</ele>
        <time>2021-11-07T14:45:10Z</time>
      </trkpt>
      <trkpt lat="45.51714" lon="7.26815">
        <ele>3978.7</ele>
        <time>2021-11-07T14:45:15Z</time>
      </trkpt>
      <trkpt lat="45.51714" lon="7.26815">
        <ele>3978.7</ele>
        <time>2021-11-07T14:45:17Z</time>
      </trkpt>
      <trkpt lat="45.51713" lon="7.26815">
        <ele>3978.7</ele>
        <time>2021-11-07T14:45:20Z</time>
      </trkpt>
      <trkpt lat="45.51713" lon="7.26815">
        <ele>3978.7</ele>
        <time>2021-11-07T14:45:25Z</time>
      </trkpt>
      <trkpt lat="45.51712" lon="7.26816">
        <ele>3978.7</ele>
        <time>2021-11-07T14:45:30Z</time>
      </trkpt>
      <trkpt lat="45.51712" lon="7.26816">
        <ele>3978.8</ele>
        <time>2021-11-07T14:45:31Z</time>
      </trkpt>
      <trkpt lat="45.51712" lon="7.26816">
        <ele>3978.8</ele>
        <time>2021-11-07T14:45:35Z</time>
      </trkpt>
      <trkpt lat="45.51712" lon="7.26817">
        <ele>3978.8</ele>
        <time>2021-11-07T14:45:38Z</time>
      </trkpt>
      <trkpt lat="45.51712" lon="7.26817">
        <ele>3978.8</ele>
        <time>2021-11-07T14:45:41Z</time>
      </trkpt>
      <trkpt lat="45.51712" lon="7.26818">
        <ele>3978.8</ele>
        <time>2021-11-07T14:45:46Z</time>
      </trkpt>
      <trkpt lat="45.51712" lon="7.26818">
        <ele>3978.8</ele>
        <time>2021-11-07T14:45:49Z</time>
      </trkpt>
      <trkpt lat="45.51712" lon="7.26819">
        <ele>3978.8</ele>
        <time>2021-11-07T14:45:56Z</time>
      </trkpt>
      <trkpt lat="45.51713" lon="7.26819">
        <ele>3978.8</ele>
        <time>2021-11-07T14:45:59Z</time>
      </trkpt>
      <trkpt lat="45.51713" lon="7.26819">
        <ele>3978.8</ele>
        <time>2021-11-07T14:46:01Z</time>
      </trkpt>
      <trkpt lat="45.51713" lon="7.26819">
        <ele>3978.8</ele>
        <time>2021-11-07T14:46:03Z</time>
      </trkpt>
      <trkpt lat="45.51713" lon="7.26818">
        <ele>3978.8</ele>
        <time>2021-11-07T14:46:05Z</time>
      </trkpt>
      <trkpt lat="45.51713" lon="7.26818">
        <ele>3978.8</ele>
        <time>2021-11-07T14:46:07Z</time>
      </trkpt>
      <trkpt lat="45.51713" lon="7.26818">
        <ele>3978.8</ele>
        <time>2021-11-07T14:46:13Z</time>
      </trkpt>
      <trkpt lat="45.51713" lon="7.26818">
        <ele>3978.8</ele>
        <time>2021-11-07T14:46:21Z</time>
      </trkpt>
      <trkpt lat="45.51713" lon="7.26818">
        <ele>3978.8</ele>
        <time>2021-11-07T14:46:22Z</time>
      </trkpt>
      <trkpt lat="45.51713" lon="7.26819">
        <ele>3978.8</ele>
        <time>2021-11-07T14:46:29Z</time>
      </trkpt>
      <trkpt lat="45.51713" lon="7.26819">
        <ele>3978.8</ele>
        <time>2021-11-07T14:46:31Z</time>
      </trkpt>
      <trkpt lat="45.51713" lon="7.26819">
        <ele>3978.8</ele>
        <time>2021-11-07T14:46:36Z</time>
      </trkpt>
      <trkpt lat="45.51713" lon="7.26819">
        <ele>3978.8</ele>
        <time>2021-11-07T14:46:39Z</time>
      </trkpt>
      <trkpt lat="45.51713" lon="7.26819">
        <ele>3978.8</ele>
        <time>2021-11-07T14:46:47Z</time>
      </trkpt>
      <trkpt lat="45.51713" lon="7.26819">
        <ele>3978.8</ele>
        <time>2021-11-07T14:46:51Z</time>
      </trkpt>
      <trkpt lat="45.51713" lon="7.26819">
        <ele>3978.8</ele>
        <time>2021-11-07T14:46:53Z</time>
      </trkpt>
      <trkpt lat="45.51713" lon="7.26819">
        <ele>3978.8</ele>
        <time>2021-11-07T14:46:58Z</time>
      </trkpt>
      <trkpt lat="45.51713" lon="7.26818">
        <ele>3978.8</ele>
        <time>2021-11-07T14:47:05Z</time>
      </trkpt>
      <trkpt lat="45.51713" lon="7.26818">
        <ele>3978.8</ele>
        <time>2021-11-07T14:47:15Z</time>
      </trkpt>
      <trkpt lat="45.51714" lon="7.26818">
        <ele>3978.8</ele>
        <time>2021-11-07T14:47:16Z</time>
      </trkpt>
      <trkpt lat="45.51714" lon="7.26818">
        <ele>3978.8</ele>
        <time>2021-11-07T14:47:18Z</time>
      </trkpt>
      <trkpt lat="45.51715" lon="7.26819">
        <ele>3978.8</ele>
        <time>2021-11-07T14:47:20Z</time>
      </trkpt>
      <trkpt lat="45.51715" lon="7.26818">
        <ele>3978.8</ele>
        <time>2021-11-07T14:47:22Z</time>
      </trkpt>
      <trkpt lat="45.51716" lon="7.26819">
        <ele>3978.9</ele>
        <time>2021-11-07T14:47:29Z</time>
      </trkpt>
      <trkpt lat="45.51715" lon="7.26819">
        <ele>3978.9</ele>
        <time>2021-11-07T14:47:31Z</time>
      </trkpt>
      <trkpt lat="45.51716" lon="7.26819">
        <ele>3978.9</ele>
        <time>2021-11-07T14:47:32Z</time>
      </trkpt>
      <trkpt lat="45.51715" lon="7.26819">
        <ele>3978.9</ele>
        <time>2021-11-07T14:47:36Z</time>
      </trkpt>
      <trkpt lat="45.51715" lon="7.26819">
        <ele>3978.9</ele>
        <time>2021-11-07T14:47:37Z</time>
      </trkpt>
      <trkpt lat="45.51714" lon="7.26818">
        <ele>3978.9</ele>
        <time>2021-11-07T14:47:39Z</time>
      </trkpt>
      <trkpt lat="45.51714" lon="7.26818">
        <ele>3978.9</ele>
        <time>2021-11-07T14:47:41Z</time>
      </trkpt>
      <trkpt lat="45.51714" lon="7.26818">
        <ele>3978.9</ele>
        <time>2021-11-07T14:47:42Z</time>
      </trkpt>
      <trkpt lat="45.51714" lon="7.26819">
        <ele>3978.9</ele>
        <time>2021-11-07T14:47:53Z</time>
      </trkpt>
      <trkpt lat="45.51713" lon="7.26819">
        <ele>3978.9</ele>
        <time>2021-11-07T14:47:55Z</time>
      </trkpt>
      <trkpt lat="45.51713" lon="7.26819">
        <ele>3978.9</ele>
        <time>2021-11-07T14:48:00Z</time>
      </trkpt>
      <trkpt lat="45.51713" lon="7.2682">
        <ele>3978.9</ele>
        <time>2021-11-07T14:48:01Z</time>
      </trkpt>
      <trkpt lat="45.51714" lon="7.2682">
        <ele>3978.9</ele>
        <time>2021-11-07T14:48:09Z</time>
      </trkpt>
      <trkpt lat="45.51713" lon="7.26819">
        <ele>3978.9</ele>
        <time>2021-11-07T14:48:12Z</time>
      </trkpt>
      <trkpt lat="45.51712" lon="7.26819">
        <ele>3978.9</ele>
        <time>2021-11-07T14:48:17Z</time>
      </trkpt>
      <trkpt lat="45.51712" lon="7.26819">
        <ele>3978.9</ele>
        <time>2021-11-07T14:48:22Z</time>
      </trkpt>
      <trkpt lat="45.51712" lon="7.26819">
        <ele>3978.9</ele>
        <time>2021-11-07T14:48:25Z</time>
      </trkpt>
      <trkpt lat="45.51712" lon="7.26818">
        <ele>3978.9</ele>
        <time>2021-11-07T14:48:30Z</time>
      </trkpt>
      <trkpt lat="45.51713" lon="7.26817">
        <ele>3978.9</ele>
        <time>2021-11-07T14:48:41Z</time>
      </trkpt>
      <trkpt lat="45.51713" lon="7.26817">
        <ele>3978.9</ele>
        <time>2021-11-07T14:48:48Z</time>
      </trkpt>
      <trkpt lat="45.51713" lon="7.26817">
        <ele>3978.9</ele>
        <time>2021-11-07T14:48:53Z</time>
      </trkpt>
      <trkpt lat="45.51713" lon="7.26817">
        <ele>3978.9</ele>
        <time>2021-11-07T14:48:57Z</time>
      </trkpt>
      <trkpt lat="45.51713" lon="7.26817">
        <ele>3978.9</ele>
        <time>2021-11-07T14:48:58Z</time>
      </trkpt>
      <trkpt lat="45.51713" lon="7.26819">
        <ele>3979</ele>
        <time>2021-11-07T14:49:14Z</time>
      </trkpt>
      <trkpt lat="45.51713" lon="7.26818">
        <ele>3979</ele>
        <time>2021-11-07T14:49:20Z</time>
      </trkpt>
      <trkpt lat="45.51713" lon="7.26818">
        <ele>3979</ele>
        <time>2021-11-07T14:49:21Z</time>
      </trkpt>
      <trkpt lat="45.51713" lon="7.26818">
        <ele>3979</ele>
        <time>2021-11-07T14:49:23Z</time>
      </trkpt>
      <trkpt lat="45.51713" lon="7.26818">
        <ele>3979</ele>
        <time>2021-11-07T14:49:24Z</time>
      </trkpt>
      <trkpt lat="45.51714" lon="7.26819">
        <ele>3979</ele>
        <time>2021-11-07T14:49:34Z</time>
      </trkpt>
      <trkpt lat="45.51713" lon="7.26817">
        <ele>3979</ele>
        <time>2021-11-07T14:49:38Z</time>
      </trkpt>
      <trkpt lat="45.51713" lon="7.26816">
        <ele>3979</ele>
        <time>2021-11-07T14:49:42Z</time>
      </trkpt>
      <trkpt lat="45.51713" lon="7.26816">
        <ele>3979</ele>
        <time>2021-11-07T14:49:45Z</time>
      </trkpt>
      <trkpt lat="45.51714" lon="7.26817">
        <ele>3979</ele>
        <time>2021-11-07T14:49:50Z</time>
      </trkpt>
      <trkpt lat="45.51714" lon="7.26817">
        <ele>3979</ele>
        <time>2021-11-07T14:49:52Z</time>
      </trkpt>
      <trkpt lat="45.51714" lon="7.26817">
        <ele>3979</ele>
        <time>2021-11-07T14:49:54Z</time>
      </trkpt>
      <trkpt lat="45.51712" lon="7.26819">
        <ele>3979</ele>
        <time>2021-11-07T14:50:02Z</time>
      </trkpt>
      <trkpt lat="45.51712" lon="7.26819">
        <ele>3979</ele>
        <time>2021-11-07T14:50:04Z</time>
      </trkpt>
      <trkpt lat="45.51712" lon="7.2682">
        <ele>3979</ele>
        <time>2021-11-07T14:50:05Z</time>
      </trkpt>
      <trkpt lat="45.51711" lon="7.26821">
        <ele>3979</ele>
        <time>2021-11-07T14:50:07Z</time>
      </trkpt>
      <trkpt lat="45.51711" lon="7.26821">
        <ele>3979.1</ele>
        <time>2021-11-07T14:50:10Z</time>
      </trkpt>
      <trkpt lat="45.5171" lon="7.26822">
        <ele>3979.1</ele>
        <time>2021-11-07T14:50:14Z</time>
      </trkpt>
      <trkpt lat="45.5171" lon="7.26822">
        <ele>3979.1</ele>
        <time>2021-11-07T14:50:15Z</time>
      </trkpt>
      <trkpt lat="45.5171" lon="7.26822">
        <ele>3979.1</ele>
        <time>2021-11-07T14:50:18Z</time>
      </trkpt>
      <trkpt lat="45.51711" lon="7.26822">
        <ele>3979.1</ele>
        <time>2021-11-07T14:50:20Z</time>
      </trkpt>
      <trkpt lat="45.5171" lon="7.26822">
        <ele>3979.1</ele>
        <time>2021-11-07T14:50:24Z</time>
      </trkpt>
      <trkpt lat="45.5171" lon="7.26822">
        <ele>3979.1</ele>
        <time>2021-11-07T14:50:25Z</time>
      </trkpt>
      <trkpt lat="45.5171" lon="7.26822">
        <ele>3979.1</ele>
        <time>2021-11-07T14:50:30Z</time>
      </trkpt>
      <trkpt lat="45.5171" lon="7.26822">
        <ele>3979.1</ele>
        <time>2021-11-07T14:50:31Z</time>
      </trkpt>
      <trkpt lat="45.51711" lon="7.26822">
        <ele>3979.1</ele>
        <time>2021-11-07T14:50:34Z</time>
      </trkpt>
      <trkpt lat="45.5171" lon="7.26822">
        <ele>3979.1</ele>
        <time>2021-11-07T14:50:43Z</time>
      </trkpt>
      <trkpt lat="45.5171" lon="7.26822">
        <ele>3979.1</ele>
        <time>2021-11-07T14:50:45Z</time>
      </trkpt>
      <trkpt lat="45.5171" lon="7.26822">
        <ele>3979.1</ele>
        <time>2021-11-07T14:50:47Z</time>
      </trkpt>
      <trkpt lat="45.5171" lon="7.26822">
        <ele>3979.1</ele>
        <time>2021-11-07T14:50:48Z</time>
      </trkpt>
      <trkpt lat="45.5171" lon="7.26822">
        <ele>3979.1</ele>
        <time>2021-11-07T14:50:52Z</time>
      </trkpt>
      <trkpt lat="45.5171" lon="7.26822">
        <ele>3979.1</ele>
        <time>2021-11-07T14:50:53Z</time>
      </trkpt>
      <trkpt lat="45.5171" lon="7.26823">
        <ele>3979.1</ele>
        <time>2021-11-07T14:50:55Z</time>
      </trkpt>
      <trkpt lat="45.51709" lon="7.26824">
        <ele>3979.2</ele>
        <time>2021-11-07T14:50:58Z</time>
      </trkpt>
      <trkpt lat="45.51708" lon="7.26827">
        <ele>3979.1</ele>
        <time>2021-11-07T14:51:12Z</time>
      </trkpt>
      <trkpt lat="45.51708" lon="7.26827">
        <ele>3979.1</ele>
        <time>2021-11-07T14:51:14Z</time>
      </trkpt>
      <trkpt lat="45.51708" lon="7.26827">
        <ele>3979.1</ele>
        <time>2021-11-07T14:51:19Z</time>
      </trkpt>
      <trkpt lat="45.51708" lon="7.26826">
        <ele>3979.1</ele>
        <time>2021-11-07T14:51:25Z</time>
      </trkpt>
      <trkpt lat="45.51709" lon="7.26826">
        <ele>3979.1</ele>
        <time>2021-11-07T14:51:29Z</time>
      </trkpt>
      <trkpt lat="45.51709" lon="7.26826">
        <ele>3979.1</ele>
        <time>2021-11-07T14:51:33Z</time>
      </trkpt>
      <trkpt lat="45.51709" lon="7.26826">
        <ele>3979.1</ele>
        <time>2021-11-07T14:51:36Z</time>
      </trkpt>
      <trkpt lat="45.51709" lon="7.26826">
        <ele>3979.1</ele>
        <time>2021-11-07T14:51:46Z</time>
      </trkpt>
      <trkpt lat="45.51709" lon="7.26826">
        <ele>3979.1</ele>
        <time>2021-11-07T14:51:47Z</time>
      </trkpt>
      <trkpt lat="45.51709" lon="7.26826">
        <ele>3979.1</ele>
        <time>2021-11-07T14:51:55Z</time>
      </trkpt>
      <trkpt lat="45.5171" lon="7.26825">
        <ele>3979.1</ele>
        <time>2021-11-07T14:52:01Z</time>
      </trkpt>
      <trkpt lat="45.5171" lon="7.26824">
        <ele>3979.1</ele>
        <time>2021-11-07T14:52:12Z</time>
      </trkpt>
      <trkpt lat="45.5171" lon="7.26824">
        <ele>3979</ele>
        <time>2021-11-07T14:52:15Z</time>
      </trkpt>
      <trkpt lat="45.5171" lon="7.26824">
        <ele>3979</ele>
        <time>2021-11-07T14:52:22Z</time>
      </trkpt>
      <trkpt lat="45.51709" lon="7.26825">
        <ele>3979</ele>
        <time>2021-11-07T14:52:30Z</time>
      </trkpt>
      <trkpt lat="45.51709" lon="7.26826">
        <ele>3979</ele>
        <time>2021-11-07T14:52:33Z</time>
      </trkpt>
      <trkpt lat="45.51709" lon="7.26826">
        <ele>3979</ele>
        <time>2021-11-07T14:52:35Z</time>
      </trkpt>
      <trkpt lat="45.51709" lon="7.26826">
        <ele>3979</ele>
        <time>2021-11-07T14:52:39Z</time>
      </trkpt>
      <trkpt lat="45.51709" lon="7.26826">
        <ele>3979</ele>
        <time>2021-11-07T14:52:48Z</time>
      </trkpt>
      <trkpt lat="45.51709" lon="7.26826">
        <ele>3979</ele>
        <time>2021-11-07T14:52:50Z</time>
      </trkpt>
      <trkpt lat="45.51709" lon="7.26826">
        <ele>3979</ele>
        <time>2021-11-07T14:52:52Z</time>
      </trkpt>
      <trkpt lat="45.51709" lon="7.26826">
        <ele>3979</ele>
        <time>2021-11-07T14:52:53Z</time>
      </trkpt>
      <trkpt lat="45.51709" lon="7.26826">
        <ele>3979</ele>
        <time>2021-11-07T14:53:03Z</time>
      </trkpt>
      <trkpt lat="45.51709" lon="7.26825">
        <ele>3979</ele>
        <time>2021-11-07T14:53:12Z</time>
      </trkpt>
      <trkpt lat="45.51709" lon="7.26825">
        <ele>3979</ele>
        <time>2021-11-07T14:53:13Z</time>
      </trkpt>
      <trkpt lat="45.51709" lon="7.26825">
        <ele>3979</ele>
        <time>2021-11-07T14:53:17Z</time>
      </trkpt>
      <trkpt lat="45.51709" lon="7.26825">
        <ele>3979</ele>
        <time>2021-11-07T14:53:23Z</time>
      </trkpt>
      <trkpt lat="45.51708" lon="7.26826">
        <ele>3979</ele>
        <time>2021-11-07T14:53:33Z</time>
      </trkpt>
      <trkpt lat="45.51708" lon="7.26826">
        <ele>3979</ele>
        <time>2021-11-07T14:53:40Z</time>
      </trkpt>
      <trkpt lat="45.51708" lon="7.26825">
        <ele>3979</ele>
        <time>2021-11-07T14:53:49Z</time>
      </trkpt>
      <trkpt lat="45.51708" lon="7.26825">
        <ele>3979</ele>
        <time>2021-11-07T14:53:54Z</time>
      </trkpt>
      <trkpt lat="45.51709" lon="7.26826">
        <ele>3978.9</ele>
        <time>2021-11-07T14:54:03Z</time>
      </trkpt>
      <trkpt lat="45.51708" lon="7.26826">
        <ele>3978.9</ele>
        <time>2021-11-07T14:54:09Z</time>
      </trkpt>
      <trkpt lat="45.51708" lon="7.26826">
        <ele>3978.9</ele>
        <time>2021-11-07T14:54:12Z</time>
      </trkpt>
      <trkpt lat="45.51708" lon="7.26826">
        <ele>3978.9</ele>
        <time>2021-11-07T14:54:21Z</time>
      </trkpt>
      <trkpt lat="45.51708" lon="7.26825">
        <ele>3978.9</ele>
        <time>2021-11-07T14:54:29Z</time>
      </trkpt>
      <trkpt lat="45.51708" lon="7.26825">
        <ele>3978.9</ele>
        <time>2021-11-07T14:54:31Z</time>
      </trkpt>
      <trkpt lat="45.51708" lon="7.26825">
        <ele>3978.9</ele>
        <time>2021-11-07T14:54:33Z</time>
      </trkpt>
      <trkpt lat="45.51708" lon="7.26825">
        <ele>3978.9</ele>
        <time>2021-11-07T14:54:45Z</time>
      </trkpt>
      <trkpt lat="45.51708" lon="7.26825">
        <ele>3978.9</ele>
        <time>2021-11-07T14:54:53Z</time>
      </trkpt>
      <trkpt lat="45.51708" lon="7.26825">
        <ele>3978.9</ele>
        <time>2021-11-07T14:54:56Z</time>
      </trkpt>
      <trkpt lat="45.51707" lon="7.26825">
        <ele>3978.9</ele>
        <time>2021-11-07T14:55:01Z</time>
      </trkpt>
      <trkpt lat="45.51707" lon="7.26825">
        <ele>3978.9</ele>
        <time>2021-11-07T14:55:07Z</time>
      </trkpt>
      <trkpt lat="45.51707" lon="7.26825">
        <ele>3978.9</ele>
        <time>2021-11-07T14:55:10Z</time>
      </trkpt>
      <trkpt lat="45.51707" lon="7.26825">
        <ele>3978.9</ele>
        <time>2021-11-07T14:55:11Z</time>
      </trkpt>
      <trkpt lat="45.51707" lon="7.26825">
        <ele>3978.9</ele>
        <time>2021-11-07T14:55:13Z</time>
      </trkpt>
      <trkpt lat="45.51708" lon="7.26825">
        <ele>3978.9</ele>
        <time>2021-11-07T14:55:18Z</time>
      </trkpt>
      <trkpt lat="45.51708" lon="7.26825">
        <ele>3978.8</ele>
        <time>2021-11-07T14:55:27Z</time>
      </trkpt>
      <trkpt lat="45.51708" lon="7.26825">
        <ele>3978.8</ele>
        <time>2021-11-07T14:55:29Z</time>
      </trkpt>
      <trkpt lat="45.51708" lon="7.26825">
        <ele>3978.8</ele>
        <time>2021-11-07T14:55:31Z</time>
      </trkpt>
      <trkpt lat="45.51708" lon="7.26825">
        <ele>3978.8</ele>
        <time>2021-11-07T14:55:33Z</time>
      </trkpt>
      <trkpt lat="45.51708" lon="7.26825">
        <ele>3978.8</ele>
        <time>2021-11-07T14:55:34Z</time>
      </trkpt>
      <trkpt lat="45.51708" lon="7.26825">
        <ele>3978.8</ele>
        <time>2021-11-07T14:55:35Z</time>
      </trkpt>
      <trkpt lat="45.51708" lon="7.26825">
        <ele>3978.8</ele>
        <time>2021-11-07T14:55:36Z</time>
      </trkpt>
      <trkpt lat="45.51708" lon="7.26825">
        <ele>3978.8</ele>
        <time>2021-11-07T14:55:37Z</time>
      </trkpt>
      <trkpt lat="45.51707" lon="7.26826">
        <ele>3978.8</ele>
        <time>2021-11-07T14:55:39Z</time>
      </trkpt>
      <trkpt lat="45.51707" lon="7.26826">
        <ele>3978.8</ele>
        <time>2021-11-07T14:55:41Z</time>
      </trkpt>
      <trkpt lat="45.51708" lon="7.26826">
        <ele>3978.8</ele>
        <time>2021-11-07T14:55:43Z</time>
      </trkpt>
      <trkpt lat="45.51708" lon="7.26826">
        <ele>3978.8</ele>
        <time>2021-11-07T14:55:58Z</time>
      </trkpt>
      <trkpt lat="45.51708" lon="7.26825">
        <ele>3978.8</ele>
        <time>2021-11-07T14:55:59Z</time>
      </trkpt>
      <trkpt lat="45.51708" lon="7.26825">
        <ele>3978.8</ele>
        <time>2021-11-07T14:56:09Z</time>
      </trkpt>
      <trkpt lat="45.51708" lon="7.26825">
        <ele>3978.8</ele>
        <time>2021-11-07T14:56:13Z</time>
      </trkpt>
      <trkpt lat="45.51707" lon="7.26825">
        <ele>3978.8</ele>
        <time>2021-11-07T14:56:19Z</time>
      </trkpt>
      <trkpt lat="45.51707" lon="7.26825">
        <ele>3978.8</ele>
        <time>2021-11-07T14:56:20Z</time>
      </trkpt>
      <trkpt lat="45.51707" lon="7.26825">
        <ele>3978.8</ele>
        <time>2021-11-07T14:56:26Z</time>
      </trkpt>
      <trkpt lat="45.51706" lon="7.26825">
        <ele>3978.7</ele>
        <time>2021-11-07T14:56:28Z</time>
      </trkpt>
      <trkpt lat="45.51707" lon="7.26826">
        <ele>3978.7</ele>
        <time>2021-11-07T14:56:30Z</time>
      </trkpt>
      <trkpt lat="45.51706" lon="7.26827">
        <ele>3978.7</ele>
        <time>2021-11-07T14:56:37Z</time>
      </trkpt>
      <trkpt lat="45.51706" lon="7.26827">
        <ele>3978.7</ele>
        <time>2021-11-07T14:56:43Z</time>
      </trkpt>
      <trkpt lat="45.51706" lon="7.26827">
        <ele>3978.7</ele>
        <time>2021-11-07T14:56:47Z</time>
      </trkpt>
      <trkpt lat="45.51706" lon="7.26827">
        <ele>3978.7</ele>
        <time>2021-11-07T14:56:48Z</time>
      </trkpt>
      <trkpt lat="45.51706" lon="7.26827">
        <ele>3978.7</ele>
        <time>2021-11-07T14:56:53Z</time>
      </trkpt>
      <trkpt lat="45.51706" lon="7.26827">
        <ele>3978.7</ele>
        <time>2021-11-07T14:56:57Z</time>
      </trkpt>
      <trkpt lat="45.51706" lon="7.26826">
        <ele>3978.7</ele>
        <time>2021-11-07T14:57:04Z</time>
      </trkpt>
      <trkpt lat="45.51706" lon="7.26825">
        <ele>3978.7</ele>
        <time>2021-11-07T14:57:07Z</time>
      </trkpt>
      <trkpt lat="45.51706" lon="7.26825">
        <ele>3978.7</ele>
        <time>2021-11-07T14:57:09Z</time>
      </trkpt>
      <trkpt lat="45.51707" lon="7.26825">
        <ele>3978.7</ele>
        <time>2021-11-07T14:57:18Z</time>
      </trkpt>
      <trkpt lat="45.51707" lon="7.26826">
        <ele>3978.7</ele>
        <time>2021-11-07T14:57:23Z</time>
      </trkpt>
      <trkpt lat="45.51707" lon="7.26825">
        <ele>3978.7</ele>
        <time>2021-11-07T14:57:30Z</time>
      </trkpt>
      <trkpt lat="45.51707" lon="7.26826">
        <ele>3978.7</ele>
        <time>2021-11-07T14:57:34Z</time>
      </trkpt>
      <trkpt lat="45.51707" lon="7.26826">
        <ele>3978.7</ele>
        <time>2021-11-07T14:57:35Z</time>
      </trkpt>
      <trkpt lat="45.51707" lon="7.26826">
        <ele>3978.6</ele>
        <time>2021-11-07T14:57:43Z</time>
      </trkpt>
      <trkpt lat="45.51707" lon="7.26826">
        <ele>3978.6</ele>
        <time>2021-11-07T14:57:48Z</time>
      </trkpt>
      <trkpt lat="45.51707" lon="7.26826">
        <ele>3978.6</ele>
        <time>2021-11-07T14:57:50Z</time>
      </trkpt>
      <trkpt lat="45.51708" lon="7.26826">
        <ele>3978.6</ele>
        <time>2021-11-07T14:57:57Z</time>
      </trkpt>
      <trkpt lat="45.51708" lon="7.26826">
        <ele>3978.6</ele>
        <time>2021-11-07T14:57:58Z</time>
      </trkpt>
      <trkpt lat="45.51708" lon="7.26825">
        <ele>3978.6</ele>
        <time>2021-11-07T14:58:01Z</time>
      </trkpt>
      <trkpt lat="45.51708" lon="7.26825">
        <ele>3978.6</ele>
        <time>2021-11-07T14:58:02Z</time>
      </trkpt>
      <trkpt lat="45.51708" lon="7.26825">
        <ele>3978.6</ele>
        <time>2021-11-07T14:58:05Z</time>
      </trkpt>
      <trkpt lat="45.51708" lon="7.26826">
        <ele>3978.6</ele>
        <time>2021-11-07T14:58:15Z</time>
      </trkpt>
      <trkpt lat="45.51708" lon="7.26826">
        <ele>3978.6</ele>
        <time>2021-11-07T14:58:19Z</time>
      </trkpt>
      <trkpt lat="45.51707" lon="7.26826">
        <ele>3978.6</ele>
        <time>2021-11-07T14:58:26Z</time>
      </trkpt>
      <trkpt lat="45.51707" lon="7.26826">
        <ele>3978.6</ele>
        <time>2021-11-07T14:58:31Z</time>
      </trkpt>
      <trkpt lat="45.51706" lon="7.26826">
        <ele>3978.6</ele>
        <time>2021-11-07T14:58:38Z</time>
      </trkpt>
      <trkpt lat="45.51707" lon="7.26826">
        <ele>3978.6</ele>
        <time>2021-11-07T14:58:40Z</time>
      </trkpt>
      <trkpt lat="45.51707" lon="7.26826">
        <ele>3978.6</ele>
        <time>2021-11-07T14:58:47Z</time>
      </trkpt>
      <trkpt lat="45.51706" lon="7.26826">
        <ele>3978.6</ele>
        <time>2021-11-07T14:58:50Z</time>
      </trkpt>
      <trkpt lat="45.51707" lon="7.26826">
        <ele>3978.5</ele>
        <time>2021-11-07T14:58:57Z</time>
      </trkpt>
      <trkpt lat="45.51707" lon="7.26826">
        <ele>3978.5</ele>
        <time>2021-11-07T14:58:58Z</time>
      </trkpt>
      <trkpt lat="45.51707" lon="7.26826">
        <ele>3978.5</ele>
        <time>2021-11-07T14:59:07Z</time>
      </trkpt>
      <trkpt lat="45.51707" lon="7.26826">
        <ele>3978.5</ele>
        <time>2021-11-07T14:59:08Z</time>
      </trkpt>
      <trkpt lat="45.51707" lon="7.26826">
        <ele>3978.5</ele>
        <time>2021-11-07T14:59:14Z</time>
      </trkpt>
      <trkpt lat="45.51707" lon="7.26826">
        <ele>3978.5</ele>
        <time>2021-11-07T14:59:21Z</time>
      </trkpt>
      <trkpt lat="45.51707" lon="7.26826">
        <ele>3978.5</ele>
        <time>2021-11-07T14:59:29Z</time>
      </trkpt>
      <trkpt lat="45.51707" lon="7.26826">
        <ele>3978.5</ele>
        <time>2021-11-07T14:59:31Z</time>
      </trkpt>
      <trkpt lat="45.51707" lon="7.26826">
        <ele>3978.5</ele>
        <time>2021-11-07T14:59:43Z</time>
      </trkpt>
      <trkpt lat="45.51707" lon="7.26826">
        <ele>3978.5</ele>
        <time>2021-11-07T14:59:52Z</time>
      </trkpt>
      <trkpt lat="45.51707" lon="7.26826">
        <ele>3978.5</ele>
        <time>2021-11-07T15:00:03Z</time>
      </trkpt>
      <trkpt lat="45.51707" lon="7.26826">
        <ele>3978.5</ele>
        <time>2021-11-07T15:00:08Z</time>
      </trkpt>
      <trkpt lat="45.51707" lon="7.26826">
        <ele>3978.5</ele>
        <time>2021-11-07T15:00:09Z</time>
      </trkpt>
      <trkpt lat="45.51707" lon="7.26826">
        <ele>3978.5</ele>
        <time>2021-11-07T15:00:10Z</time>
      </trkpt>
      <trkpt lat="45.51707" lon="7.26826">
        <ele>3978.5</ele>
        <time>2021-11-07T15:00:12Z</time>
      </trkpt>
      <trkpt lat="45.51707" lon="7.26826">
        <ele>3978.5</ele>
        <time>2021-11-07T15:00:18Z</time>
      </trkpt>
      <trkpt lat="45.51707" lon="7.26826">
        <ele>3978.5</ele>
        <time>2021-11-07T15:00:19Z</time>
      </trkpt>
      <trkpt lat="45.51708" lon="7.26827">
        <ele>3978.4</ele>
        <time>2021-11-07T15:00:24Z</time>
      </trkpt>
      <trkpt lat="45.51708" lon="7.26826">
        <ele>3978.4</ele>
        <time>2021-11-07T15:00:32Z</time>
      </trkpt>
      <trkpt lat="45.51708" lon="7.26826">
        <ele>3978.4</ele>
        <time>2021-11-07T15:00:37Z</time>
      </trkpt>
      <trkpt lat="45.51709" lon="7.26826">
        <ele>3978.4</ele>
        <time>2021-11-07T15:00:48Z</time>
      </trkpt>
      <trkpt lat="45.51709" lon="7.26826">
        <ele>3978.4</ele>
        <time>2021-11-07T15:01:00Z</time>
      </trkpt>
      <trkpt lat="45.51708" lon="7.26827">
        <ele>3978.4</ele>
        <time>2021-11-07T15:01:08Z</time>
      </trkpt>
      <trkpt lat="45.51708" lon="7.26826">
        <ele>3978.4</ele>
        <time>2021-11-07T15:01:18Z</time>
      </trkpt>
      <trkpt lat="45.51708" lon="7.26826">
        <ele>3978.3</ele>
        <time>2021-11-07T15:01:21Z</time>
      </trkpt>
      <trkpt lat="45.51708" lon="7.26826">
        <ele>3978.3</ele>
        <time>2021-11-07T15:01:24Z</time>
      </trkpt>
      <trkpt lat="45.51708" lon="7.26826">
        <ele>3978.3</ele>
        <time>2021-11-07T15:01:28Z</time>
      </trkpt>
      <trkpt lat="45.51708" lon="7.26828">
        <ele>3978.3</ele>
        <time>2021-11-07T15:01:37Z</time>
      </trkpt>
      <trkpt lat="45.51707" lon="7.26829">
        <ele>3978.3</ele>
        <time>2021-11-07T15:01:40Z</time>
      </trkpt>
      <trkpt lat="45.51706" lon="7.26829">
        <ele>3978.2</ele>
        <time>2021-11-07T15:01:49Z</time>
      </trkpt>
      <trkpt lat="45.51706" lon="7.26829">
        <ele>3978.2</ele>
        <time>2021-11-07T15:01:57Z</time>
      </trkpt>
      <trkpt lat="45.51705" lon="7.26829">
        <ele>3978.2</ele>
        <time>2021-11-07T15:02:04Z</time>
      </trkpt>
      <trkpt lat="45.51705" lon="7.26829">
        <ele>3978.2</ele>
        <time>2021-11-07T15:02:11Z</time>
      </trkpt>
      <trkpt lat="45.51705" lon="7.26829">
        <ele>3978.2</ele>
        <time>2021-11-07T15:02:12Z</time>
      </trkpt>
      <trkpt lat="45.51705" lon="7.26829">
        <ele>3978.2</ele>
        <time>2021-11-07T15:02:15Z</time>
      </trkpt>
      <trkpt lat="45.51704" lon="7.26829">
        <ele>3978.1</ele>
        <time>2021-11-07T15:02:19Z</time>
      </trkpt>
      <trkpt lat="45.51705" lon="7.26829">
        <ele>3978.1</ele>
        <time>2021-11-07T15:02:26Z</time>
      </trkpt>
      <trkpt lat="45.51705" lon="7.26829">
        <ele>3978.1</ele>
        <time>2021-11-07T15:02:28Z</time>
      </trkpt>
      <trkpt lat="45.51705" lon="7.26829">
        <ele>3978.1</ele>
        <time>2021-11-07T15:02:29Z</time>
      </trkpt>
      <trkpt lat="45.51705" lon="7.26829">
        <ele>3978.1</ele>
        <time>2021-11-07T15:02:30Z</time>
      </trkpt>
      <trkpt lat="45.51705" lon="7.26829">
        <ele>3978.1</ele>
        <time>2021-11-07T15:02:32Z</time>
      </trkpt>
      <trkpt lat="45.51705" lon="7.26829">
        <ele>3978.1</ele>
        <time>2021-11-07T15:02:40Z</time>
      </trkpt>
      <trkpt lat="45.51705" lon="7.26829">
        <ele>3978.1</ele>
        <time>2021-11-07T15:02:51Z</time>
      </trkpt>
      <trkpt lat="45.51705" lon="7.26828">
        <ele>3978.1</ele>
        <time>2021-11-07T15:02:52Z</time>
      </trkpt>
      <trkpt lat="45.51705" lon="7.26827">
        <ele>3978</ele>
        <time>2021-11-07T15:02:59Z</time>
      </trkpt>
      <trkpt lat="45.51706" lon="7.26827">
        <ele>3978</ele>
        <time>2021-11-07T15:03:01Z</time>
      </trkpt>
      <trkpt lat="45.51706" lon="7.26827">
        <ele>3978</ele>
        <time>2021-11-07T15:03:03Z</time>
      </trkpt>
      <trkpt lat="45.51706" lon="7.26827">
        <ele>3978</ele>
        <time>2021-11-07T15:03:05Z</time>
      </trkpt>
      <trkpt lat="45.51706" lon="7.26827">
        <ele>3978</ele>
        <time>2021-11-07T15:03:09Z</time>
      </trkpt>
      <trkpt lat="45.51706" lon="7.26826">
        <ele>3978</ele>
        <time>2021-11-07T15:03:20Z</time>
      </trkpt>
      <trkpt lat="45.51706" lon="7.26826">
        <ele>3978</ele>
        <time>2021-11-07T15:03:26Z</time>
      </trkpt>
      <trkpt lat="45.51706" lon="7.26826">
        <ele>3978</ele>
        <time>2021-11-07T15:03:39Z</time>
      </trkpt>
      <trkpt lat="45.51706" lon="7.26826">
        <ele>3978</ele>
        <time>2021-11-07T15:03:50Z</time>
      </trkpt>
      <trkpt lat="45.51706" lon="7.26826">
        <ele>3977.9</ele>
        <time>2021-11-07T15:03:53Z</time>
      </trkpt>
      <trkpt lat="45.51706" lon="7.26825">
        <ele>3977.9</ele>
        <time>2021-11-07T15:03:56Z</time>
      </trkpt>
      <trkpt lat="45.51706" lon="7.26826">
        <ele>3977.9</ele>
        <time>2021-11-07T15:04:01Z</time>
      </trkpt>
      <trkpt lat="45.51706" lon="7.26826">
        <ele>3977.9</ele>
        <time>2021-11-07T15:04:04Z</time>
      </trkpt>
      <trkpt lat="45.51706" lon="7.26826">
        <ele>3977.9</ele>
        <time>2021-11-07T15:04:14Z</time>
      </trkpt>
      <trkpt lat="45.51706" lon="7.26826">
        <ele>3977.9</ele>
        <time>2021-11-07T15:04:18Z</time>
      </trkpt>
      <trkpt lat="45.51706" lon="7.26826">
        <ele>3977.9</ele>
        <time>2021-11-07T15:04:24Z</time>
      </trkpt>
      <trkpt lat="45.51706" lon="7.26826">
        <ele>3977.9</ele>
        <time>2021-11-07T15:04:25Z</time>
      </trkpt>
      <trkpt lat="45.51706" lon="7.26826">
        <ele>3977.9</ele>
        <time>2021-11-07T15:04:26Z</time>
      </trkpt>
      <trkpt lat="45.51706" lon="7.26826">
        <ele>3977.9</ele>
        <time>2021-11-07T15:04:27Z</time>
      </trkpt>
      <trkpt lat="45.51706" lon="7.26826">
        <ele>3977.9</ele>
        <time>2021-11-07T15:04:28Z</time>
      </trkpt>
      <trkpt lat="45.51707" lon="7.26826">
        <ele>3977.9</ele>
        <time>2021-11-07T15:04:30Z</time>
      </trkpt>
      <trkpt lat="45.51706" lon="7.26825">
        <ele>3977.9</ele>
        <time>2021-11-07T15:04:41Z</time>
      </trkpt>
      <trkpt lat="45.51706" lon="7.26825">
        <ele>3977.9</ele>
        <time>2021-11-07T15:04:42Z</time>
      </trkpt>
      <trkpt lat="45.51707" lon="7.26826">
        <ele>3977.8</ele>
        <time>2021-11-07T15:04:47Z</time>
      </trkpt>
      <trkpt lat="45.51707" lon="7.26826">
        <ele>3977.8</ele>
        <time>2021-11-07T15:04:53Z</time>
      </trkpt>
      <trkpt lat="45.51707" lon="7.26826">
        <ele>3977.8</ele>
        <time>2021-11-07T15:04:55Z</time>
      </trkpt>
      <trkpt lat="45.51707" lon="7.26826">
        <ele>3977.8</ele>
        <time>2021-11-07T15:04:59Z</time>
      </trkpt>
      <trkpt lat="45.51707" lon="7.26826">
        <ele>3977.8</ele>
        <time>2021-11-07T15:05:01Z</time>
      </trkpt>
      <trkpt lat="45.51707" lon="7.26825">
        <ele>3977.8</ele>
        <time>2021-11-07T15:05:12Z</time>
      </trkpt>
      <trkpt lat="45.51707" lon="7.26825">
        <ele>3977.8</ele>
        <time>2021-11-07T15:05:15Z</time>
      </trkpt>
      <trkpt lat="45.51707" lon="7.26824">
        <ele>3977.8</ele>
        <time>2021-11-07T15:05:30Z</time>
      </trkpt>
      <trkpt lat="45.51706" lon="7.26825">
        <ele>3977.7</ele>
        <time>2021-11-07T15:05:35Z</time>
      </trkpt>
      <trkpt lat="45.51705" lon="7.26826">
        <ele>3977.7</ele>
        <time>2021-11-07T15:05:38Z</time>
      </trkpt>
      <trkpt lat="45.51704" lon="7.26827">
        <ele>3977.6</ele>
        <time>2021-11-07T15:05:47Z</time>
      </trkpt>
      <trkpt lat="45.51704" lon="7.26827">
        <ele>3977.6</ele>
        <time>2021-11-07T15:05:55Z</time>
      </trkpt>
      <trkpt lat="45.51704" lon="7.26827">
        <ele>3977.6</ele>
        <time>2021-11-07T15:05:57Z</time>
      </trkpt>
      <trkpt lat="45.51704" lon="7.26827">
        <ele>3977.6</ele>
        <time>2021-11-07T15:05:59Z</time>
      </trkpt>
      <trkpt lat="45.51704" lon="7.26827">
        <ele>3977.6</ele>
        <time>2021-11-07T15:06:04Z</time>
      </trkpt>
      <trkpt lat="45.51704" lon="7.26827">
        <ele>3977.6</ele>
        <time>2021-11-07T15:06:12Z</time>
      </trkpt>
      <trkpt lat="45.51704" lon="7.26827">
        <ele>3977.6</ele>
        <time>2021-11-07T15:06:14Z</time>
      </trkpt>
      <trkpt lat="45.51704" lon="7.26827">
        <ele>3977.6</ele>
        <time>2021-11-07T15:06:18Z</time>
      </trkpt>
      <trkpt lat="45.51705" lon="7.26826">
        <ele>3977.6</ele>
        <time>2021-11-07T15:06:24Z</time>
      </trkpt>
      <trkpt lat="45.51705" lon="7.26827">
        <ele>3977.6</ele>
        <time>2021-11-07T15:06:25Z</time>
      </trkpt>
      <trkpt lat="45.51705" lon="7.26826">
        <ele>3977.6</ele>
        <time>2021-11-07T15:06:29Z</time>
      </trkpt>
      <trkpt lat="45.51705" lon="7.26826">
        <ele>3977.6</ele>
        <time>2021-11-07T15:06:31Z</time>
      </trkpt>
      <trkpt lat="45.51705" lon="7.26826">
        <ele>3977.5</ele>
        <time>2021-11-07T15:06:42Z</time>
      </trkpt>
      <trkpt lat="45.51705" lon="7.26826">
        <ele>3977.5</ele>
        <time>2021-11-07T15:06:43Z</time>
      </trkpt>
      <trkpt lat="45.51706" lon="7.26826">
        <ele>3977.5</ele>
        <time>2021-11-07T15:06:46Z</time>
      </trkpt>
      <trkpt lat="45.51706" lon="7.26827">
        <ele>3977.5</ele>
        <time>2021-11-07T15:06:51Z</time>
      </trkpt>
      <trkpt lat="45.51706" lon="7.26827">
        <ele>3977.5</ele>
        <time>2021-11-07T15:06:58Z</time>
      </trkpt>
      <trkpt lat="45.51706" lon="7.26827">
        <ele>3977.5</ele>
        <time>2021-11-07T15:06:59Z</time>
      </trkpt>
      <trkpt lat="45.51706" lon="7.26827">
        <ele>3977.5</ele>
        <time>2021-11-07T15:07:05Z</time>
      </trkpt>
      <trkpt lat="45.51706" lon="7.26826">
        <ele>3977.5</ele>
        <time>2021-11-07T15:07:09Z</time>
      </trkpt>
      <trkpt lat="45.51705" lon="7.26825">
        <ele>3977.5</ele>
        <time>2021-11-07T15:07:17Z</time>
      </trkpt>
      <trkpt lat="45.51705" lon="7.26825">
        <ele>3977.5</ele>
        <time>2021-11-07T15:07:25Z</time>
      </trkpt>
      <trkpt lat="45.51705" lon="7.26825">
        <ele>3977.5</ele>
        <time>2021-11-07T15:07:27Z</time>
      </trkpt>
      <trkpt lat="45.51706" lon="7.26826">
        <ele>3977.4</ele>
        <time>2021-11-07T15:07:32Z</time>
      </trkpt>
      <trkpt lat="45.51706" lon="7.26826">
        <ele>3977.4</ele>
        <time>2021-11-07T15:07:33Z</time>
      </trkpt>
      <trkpt lat="45.51706" lon="7.26826">
        <ele>3977.4</ele>
        <time>2021-11-07T15:07:34Z</time>
      </trkpt>
      <trkpt lat="45.51706" lon="7.26826">
        <ele>3977.4</ele>
        <time>2021-11-07T15:07:39Z</time>
      </trkpt>
      <trkpt lat="45.51706" lon="7.26826">
        <ele>3977.4</ele>
        <time>2021-11-07T15:07:43Z</time>
      </trkpt>
      <trkpt lat="45.51706" lon="7.26826">
        <ele>3977.4</ele>
        <time>2021-11-07T15:07:46Z</time>
      </trkpt>
      <trkpt lat="45.51705" lon="7.26826">
        <ele>3977.4</ele>
        <time>2021-11-07T15:07:54Z</time>
      </trkpt>
      <trkpt lat="45.51705" lon="7.26825">
        <ele>3977.4</ele>
        <time>2021-11-07T15:07:56Z</time>
      </trkpt>
      <trkpt lat="45.51705" lon="7.26825">
        <ele>3977.4</ele>
        <time>2021-11-07T15:07:59Z</time>
      </trkpt>
      <trkpt lat="45.51705" lon="7.26824">
        <ele>3977.4</ele>
        <time>2021-11-07T15:08:04Z</time>
      </trkpt>
      <trkpt lat="45.51705" lon="7.26824">
        <ele>3977.4</ele>
        <time>2021-11-07T15:08:06Z</time>
      </trkpt>
      <trkpt lat="45.51705" lon="7.26824">
        <ele>3977.4</ele>
        <time>2021-11-07T15:08:09Z</time>
      </trkpt>
      <trkpt lat="45.51705" lon="7.26826">
        <ele>3977.3</ele>
        <time>2021-11-07T15:08:26Z</time>
      </trkpt>
      <trkpt lat="45.51705" lon="7.26826">
        <ele>3977.3</ele>
        <time>2021-11-07T15:08:27Z</time>
      </trkpt>
      <trkpt lat="45.51705" lon="7.26827">
        <ele>3977.3</ele>
        <time>2021-11-07T15:08:29Z</time>
      </trkpt>
      <trkpt lat="45.51705" lon="7.26827">
        <ele>3977.3</ele>
        <time>2021-11-07T15:08:31Z</time>
      </trkpt>
      <trkpt lat="45.51704" lon="7.26827">
        <ele>3977.3</ele>
        <time>2021-11-07T15:08:32Z</time>
      </trkpt>
      <trkpt lat="45.51704" lon="7.26826">
        <ele>3977.3</ele>
        <time>2021-11-07T15:08:40Z</time>
      </trkpt>
      <trkpt lat="45.51704" lon="7.26826">
        <ele>3977.3</ele>
        <time>2021-11-07T15:08:47Z</time>
      </trkpt>
      <trkpt lat="45.51705" lon="7.26827">
        <ele>3977.3</ele>
        <time>2021-11-07T15:08:51Z</time>
      </trkpt>
      <trkpt lat="45.51705" lon="7.26827">
        <ele>3977.3</ele>
        <time>2021-11-07T15:08:52Z</time>
      </trkpt>
      <trkpt lat="45.51706" lon="7.26828">
        <ele>3977.2</ele>
        <time>2021-11-07T15:09:06Z</time>
      </trkpt>
      <trkpt lat="45.51706" lon="7.26828">
        <ele>3977.2</ele>
        <time>2021-11-07T15:09:09Z</time>
      </trkpt>
      <trkpt lat="45.51705" lon="7.26828">
        <ele>3977.2</ele>
        <time>2021-11-07T15:09:21Z</time>
      </trkpt>
      <trkpt lat="45.51705" lon="7.26828">
        <ele>3977.2</ele>
        <time>2021-11-07T15:09:36Z</time>
      </trkpt>
      <trkpt lat="45.51705" lon="7.26829">
        <ele>3977.2</ele>
        <time>2021-11-07T15:09:38Z</time>
      </trkpt>
      <trkpt lat="45.51704" lon="7.26832">
        <ele>3977.1</ele>
        <time>2021-11-07T15:09:45Z</time>
      </trkpt>
      <trkpt lat="45.51704" lon="7.26832">
        <ele>3977.1</ele>
        <time>2021-11-07T15:09:47Z</time>
      </trkpt>
      <trkpt lat="45.51704" lon="7.26832">
        <ele>3977.1</ele>
        <time>2021-11-07T15:09:48Z</time>
      </trkpt>
      <trkpt lat="45.51704" lon="7.26833">
        <ele>3977.1</ele>
        <time>2021-11-07T15:09:50Z</time>
      </trkpt>
      <trkpt lat="45.51704" lon="7.26833">
        <ele>3977</ele>
        <time>2021-11-07T15:09:56Z</time>
      </trkpt>
      <trkpt lat="45.51703" lon="7.26833">
        <ele>3977</ele>
        <time>2021-11-07T15:10:00Z</time>
      </trkpt>
      <trkpt lat="45.51703" lon="7.26833">
        <ele>3977</ele>
        <time>2021-11-07T15:10:02Z</time>
      </trkpt>
      <trkpt lat="45.51702" lon="7.26833">
        <ele>3977</ele>
        <time>2021-11-07T15:10:04Z</time>
      </trkpt>
      <trkpt lat="45.51701" lon="7.26833">
        <ele>3976.9</ele>
        <time>2021-11-07T15:10:17Z</time>
      </trkpt>
      <trkpt lat="45.51701" lon="7.26833">
        <ele>3976.9</ele>
        <time>2021-11-07T15:10:19Z</time>
      </trkpt>
      <trkpt lat="45.51701" lon="7.26833">
        <ele>3976.9</ele>
        <time>2021-11-07T15:10:22Z</time>
      </trkpt>
      <trkpt lat="45.51701" lon="7.26833">
        <ele>3976.9</ele>
        <time>2021-11-07T15:10:34Z</time>
      </trkpt>
      <trkpt lat="45.51701" lon="7.26832">
        <ele>3976.9</ele>
        <time>2021-11-07T15:10:38Z</time>
      </trkpt>
      <trkpt lat="45.51701" lon="7.26832">
        <ele>3976.9</ele>
        <time>2021-11-07T15:10:40Z</time>
      </trkpt>
      <trkpt lat="45.51701" lon="7.26832">
        <ele>3976.9</ele>
        <time>2021-11-07T15:10:50Z</time>
      </trkpt>
      <trkpt lat="45.517" lon="7.26834">
        <ele>3976.8</ele>
        <time>2021-11-07T15:10:56Z</time>
      </trkpt>
      <trkpt lat="45.51699" lon="7.26834">
        <ele>3976.8</ele>
        <time>2021-11-07T15:11:00Z</time>
      </trkpt>
      <trkpt lat="45.51697" lon="7.26837">
        <ele>3976.7</ele>
        <time>2021-11-07T15:11:10Z</time>
      </trkpt>
      <trkpt lat="45.51697" lon="7.26837">
        <ele>3976.7</ele>
        <time>2021-11-07T15:11:15Z</time>
      </trkpt>
      <trkpt lat="45.51696" lon="7.26837">
        <ele>3976.7</ele>
        <time>2021-11-07T15:11:16Z</time>
      </trkpt>
      <trkpt lat="45.51696" lon="7.26837">
        <ele>3976.6</ele>
        <time>2021-11-07T15:11:19Z</time>
      </trkpt>
      <trkpt lat="45.51694" lon="7.26839">
        <ele>3976.6</ele>
        <time>2021-11-07T15:11:24Z</time>
      </trkpt>
      <trkpt lat="45.51694" lon="7.26839">
        <ele>3976.6</ele>
        <time>2021-11-07T15:11:30Z</time>
      </trkpt>
      <trkpt lat="45.51694" lon="7.26839">
        <ele>3976.5</ele>
        <time>2021-11-07T15:11:35Z</time>
      </trkpt>
      <trkpt lat="45.51694" lon="7.26839">
        <ele>3976.5</ele>
        <time>2021-11-07T15:11:38Z</time>
      </trkpt>
      <trkpt lat="45.51693" lon="7.26841">
        <ele>3976.5</ele>
        <time>2021-11-07T15:11:51Z</time>
      </trkpt>
      <trkpt lat="45.51692" lon="7.26842">
        <ele>3976.4</ele>
        <time>2021-11-07T15:12:03Z</time>
      </trkpt>
      <trkpt lat="45.51692" lon="7.26842">
        <ele>3976.4</ele>
        <time>2021-11-07T15:12:05Z</time>
      </trkpt>
      <trkpt lat="45.51693" lon="7.26842">
        <ele>3976.4</ele>
        <time>2021-11-07T15:12:18Z</time>
      </trkpt>
      <trkpt lat="45.51693" lon="7.26842">
        <ele>3976.4</ele>
        <time>2021-11-07T15:12:22Z</time>
      </trkpt>
      <trkpt lat="45.51693" lon="7.26842">
        <ele>3976.4</ele>
        <time>2021-11-07T15:12:23Z</time>
      </trkpt>
      <trkpt lat="45.51692" lon="7.26842">
        <ele>3976.4</ele>
        <time>2021-11-07T15:12:25Z</time>
      </trkpt>
      <trkpt lat="45.51692" lon="7.26842">
        <ele>3976.3</ele>
        <time>2021-11-07T15:12:28Z</time>
      </trkpt>
      <trkpt lat="45.51692" lon="7.26842">
        <ele>3976.3</ele>
        <time>2021-11-07T15:12:31Z</time>
      </trkpt>
      <trkpt lat="45.51691" lon="7.26842">
        <ele>3976.3</ele>
        <time>2021-11-07T15:12:45Z</time>
      </trkpt>
      <trkpt lat="45.5169" lon="7.26842">
        <ele>3976.3</ele>
        <time>2021-11-07T15:12:54Z</time>
      </trkpt>
      <trkpt lat="45.5169" lon="7.26841">
        <ele>3976.3</ele>
        <time>2021-11-07T15:12:57Z</time>
      </trkpt>
      <trkpt lat="45.5169" lon="7.26841">
        <ele>3976.3</ele>
        <time>2021-11-07T15:13:03Z</time>
      </trkpt>
      <trkpt lat="45.5169" lon="7.26841">
        <ele>3976.3</ele>
        <time>2021-11-07T15:13:06Z</time>
      </trkpt>
      <trkpt lat="45.5169" lon="7.26841">
        <ele>3976.3</ele>
        <time>2021-11-07T15:13:10Z</time>
      </trkpt>
      <trkpt lat="45.5169" lon="7.26841">
        <ele>3976.2</ele>
        <time>2021-11-07T15:13:12Z</time>
      </trkpt>
      <trkpt lat="45.5169" lon="7.26841">
        <ele>3976.2</ele>
        <time>2021-11-07T15:13:15Z</time>
      </trkpt>
      <trkpt lat="45.5169" lon="7.26841">
        <ele>3976.2</ele>
        <time>2021-11-07T15:13:17Z</time>
      </trkpt>
      <trkpt lat="45.5169" lon="7.26842">
        <ele>3976.2</ele>
        <time>2021-11-07T15:13:18Z</time>
      </trkpt>
      <trkpt lat="45.51689" lon="7.26841">
        <ele>3976.3</ele>
        <time>2021-11-07T15:13:19Z</time>
      </trkpt>
      <trkpt lat="45.51689" lon="7.26841">
        <ele>3976.3</ele>
        <time>2021-11-07T15:13:21Z</time>
      </trkpt>
      <trkpt lat="45.51689" lon="7.26841">
        <ele>3976.3</ele>
        <time>2021-11-07T15:13:22Z</time>
      </trkpt>
      <trkpt lat="45.5169" lon="7.26841">
        <ele>3976.3</ele>
        <time>2021-11-07T15:13:23Z</time>
      </trkpt>
      <trkpt lat="45.51689" lon="7.26841">
        <ele>3976.3</ele>
        <time>2021-11-07T15:13:26Z</time>
      </trkpt>
      <trkpt lat="45.51689" lon="7.26842">
        <ele>3976.2</ele>
        <time>2021-11-07T15:13:29Z</time>
      </trkpt>
      <trkpt lat="45.51689" lon="7.26841">
        <ele>3976.2</ele>
        <time>2021-11-07T15:13:42Z</time>
      </trkpt>
      <trkpt lat="45.51689" lon="7.26842">
        <ele>3976.2</ele>
        <time>2021-11-07T15:13:45Z</time>
      </trkpt>
      <trkpt lat="45.51689" lon="7.26841">
        <ele>3976.2</ele>
        <time>2021-11-07T15:13:46Z</time>
      </trkpt>
      <trkpt lat="45.51689" lon="7.26841">
        <ele>3976.2</ele>
        <time>2021-11-07T15:13:47Z</time>
      </trkpt>
      <trkpt lat="45.51688" lon="7.26841">
        <ele>3976.2</ele>
        <time>2021-11-07T15:13:49Z</time>
      </trkpt>
      <trkpt lat="45.51688" lon="7.26841">
        <ele>3976.2</ele>
        <time>2021-11-07T15:13:56Z</time>
      </trkpt>
      <trkpt lat="45.51688" lon="7.2684">
        <ele>3976.2</ele>
        <time>2021-11-07T15:14:00Z</time>
      </trkpt>
      <trkpt lat="45.51687" lon="7.2684">
        <ele>3976.2</ele>
        <time>2021-11-07T15:14:03Z</time>
      </trkpt>
      <trkpt lat="45.51687" lon="7.26841">
        <ele>3976.1</ele>
        <time>2021-11-07T15:14:09Z</time>
      </trkpt>
      <trkpt lat="45.51686" lon="7.26841">
        <ele>3976.1</ele>
        <time>2021-11-07T15:14:12Z</time>
      </trkpt>
      <trkpt lat="45.51686" lon="7.26841">
        <ele>3976.1</ele>
        <time>2021-11-07T15:14:17Z</time>
      </trkpt>
      <trkpt lat="45.51686" lon="7.26841">
        <ele>3976.1</ele>
        <time>2021-11-07T15:14:22Z</time>
      </trkpt>
      <trkpt lat="45.51686" lon="7.26841">
        <ele>3976.1</ele>
        <time>2021-11-07T15:14:24Z</time>
      </trkpt>
      <trkpt lat="45.51686" lon="7.26842">
        <ele>3976.1</ele>
        <time>2021-11-07T15:14:32Z</time>
      </trkpt>
      <trkpt lat="45.51686" lon="7.26842">
        <ele>3976.1</ele>
        <time>2021-11-07T15:14:34Z</time>
      </trkpt>
      <trkpt lat="45.51686" lon="7.26842">
        <ele>3976.1</ele>
        <time>2021-11-07T15:14:38Z</time>
      </trkpt>
      <trkpt lat="45.51686" lon="7.26842">
        <ele>3976.1</ele>
        <time>2021-11-07T15:14:42Z</time>
      </trkpt>
      <trkpt lat="45.51686" lon="7.26842">
        <ele>3976.1</ele>
        <time>2021-11-07T15:14:44Z</time>
      </trkpt>
      <trkpt lat="45.51685" lon="7.26842">
        <ele>3976</ele>
        <time>2021-11-07T15:14:48Z</time>
      </trkpt>
      <trkpt lat="45.51685" lon="7.26842">
        <ele>3976</ele>
        <time>2021-11-07T15:14:50Z</time>
      </trkpt>
      <trkpt lat="45.51684" lon="7.26842">
        <ele>3976</ele>
        <time>2021-11-07T15:14:58Z</time>
      </trkpt>
      <trkpt lat="45.51684" lon="7.26842">
        <ele>3976</ele>
        <time>2021-11-07T15:15:02Z</time>
      </trkpt>
      <trkpt lat="45.51684" lon="7.26843">
        <ele>3975.9</ele>
        <time>2021-11-07T15:15:14Z</time>
      </trkpt>
      <trkpt lat="45.51683" lon="7.26844">
        <ele>3975.9</ele>
        <time>2021-11-07T15:15:19Z</time>
      </trkpt>
      <trkpt lat="45.51682" lon="7.26844">
        <ele>3975.9</ele>
        <time>2021-11-07T15:15:26Z</time>
      </trkpt>
      <trkpt lat="45.51682" lon="7.26844">
        <ele>3975.8</ele>
        <time>2021-11-07T15:15:27Z</time>
      </trkpt>
      <trkpt lat="45.51681" lon="7.26844">
        <ele>3975.8</ele>
        <time>2021-11-07T15:15:29Z</time>
      </trkpt>
      <trkpt lat="45.51681" lon="7.26846">
        <ele>3975.8</ele>
        <time>2021-11-07T15:15:40Z</time>
      </trkpt>
      <trkpt lat="45.51679" lon="7.26847">
        <ele>3975.7</ele>
        <time>2021-11-07T15:15:47Z</time>
      </trkpt>
      <trkpt lat="45.51679" lon="7.26847">
        <ele>3975.7</ele>
        <time>2021-11-07T15:15:53Z</time>
      </trkpt>
      <trkpt lat="45.51678" lon="7.26847">
        <ele>3975.7</ele>
        <time>2021-11-07T15:16:01Z</time>
      </trkpt>
      <trkpt lat="45.51678" lon="7.26848">
        <ele>3975.6</ele>
        <time>2021-11-07T15:16:04Z</time>
      </trkpt>
      <trkpt lat="45.51677" lon="7.26848">
        <ele>3975.6</ele>
        <time>2021-11-07T15:16:08Z</time>
      </trkpt>
      <trkpt lat="45.51677" lon="7.26848">
        <ele>3975.6</ele>
        <time>2021-11-07T15:16:09Z</time>
      </trkpt>
      <trkpt lat="45.51677" lon="7.26848">
        <ele>3975.6</ele>
        <time>2021-11-07T15:16:17Z</time>
      </trkpt>
      <trkpt lat="45.51677" lon="7.2685">
        <ele>3975.6</ele>
        <time>2021-11-07T15:16:21Z</time>
      </trkpt>
      <trkpt lat="45.51677" lon="7.2685">
        <ele>3975.6</ele>
        <time>2021-11-07T15:16:22Z</time>
      </trkpt>
      <trkpt lat="45.51677" lon="7.2685">
        <ele>3975.5</ele>
        <time>2021-11-07T15:16:28Z</time>
      </trkpt>
      <trkpt lat="45.51677" lon="7.2685">
        <ele>3975.5</ele>
        <time>2021-11-07T15:16:29Z</time>
      </trkpt>
      <trkpt lat="45.51677" lon="7.26851">
        <ele>3975.5</ele>
        <time>2021-11-07T15:16:36Z</time>
      </trkpt>
      <trkpt lat="45.51677" lon="7.26852">
        <ele>3975.5</ele>
        <time>2021-11-07T15:16:39Z</time>
      </trkpt>
      <trkpt lat="45.51677" lon="7.26852">
        <ele>3975.5</ele>
        <time>2021-11-07T15:16:40Z</time>
      </trkpt>
      <trkpt lat="45.51677" lon="7.26852">
        <ele>3975.5</ele>
        <time>2021-11-07T15:16:43Z</time>
      </trkpt>
      <trkpt lat="45.51677" lon="7.26852">
        <ele>3975.5</ele>
        <time>2021-11-07T15:16:44Z</time>
      </trkpt>
      <trkpt lat="45.51676" lon="7.26852">
        <ele>3975.4</ele>
        <time>2021-11-07T15:16:51Z</time>
      </trkpt>
      <trkpt lat="45.51675" lon="7.2685">
        <ele>3975.3</ele>
        <time>2021-11-07T15:17:00Z</time>
      </trkpt>
      <trkpt lat="45.51674" lon="7.26849">
        <ele>3975.3</ele>
        <time>2021-11-07T15:17:06Z</time>
      </trkpt>
      <trkpt lat="45.51672" lon="7.26848">
        <ele>3975.2</ele>
        <time>2021-11-07T15:17:10Z</time>
      </trkpt>
      <trkpt lat="45.51672" lon="7.26848">
        <ele>3975.2</ele>
        <time>2021-11-07T15:17:11Z</time>
      </trkpt>
      <trkpt lat="45.51672" lon="7.26848">
        <ele>3975.2</ele>
        <time>2021-11-07T15:17:18Z</time>
      </trkpt>
      <trkpt lat="45.51672" lon="7.26848">
        <ele>3975.2</ele>
        <time>2021-11-07T15:17:23Z</time>
      </trkpt>
      <trkpt lat="45.51671" lon="7.26849">
        <ele>3975.1</ele>
        <time>2021-11-07T15:17:32Z</time>
      </trkpt>
      <trkpt lat="45.51671" lon="7.2685">
        <ele>3975.1</ele>
        <time>2021-11-07T15:17:34Z</time>
      </trkpt>
      <trkpt lat="45.51671" lon="7.2685">
        <ele>3975.1</ele>
        <time>2021-11-07T15:17:35Z</time>
      </trkpt>
      <trkpt lat="45.51671" lon="7.26851">
        <ele>3975.1</ele>
        <time>2021-11-07T15:17:38Z</time>
      </trkpt>
      <trkpt lat="45.51671" lon="7.26851">
        <ele>3975.1</ele>
        <time>2021-11-07T15:17:41Z</time>
      </trkpt>
      <trkpt lat="45.5167" lon="7.26852">
        <ele>3975</ele>
        <time>2021-11-07T15:17:47Z</time>
      </trkpt>
      <trkpt lat="45.5167" lon="7.26852">
        <ele>3975</ele>
        <time>2021-11-07T15:17:48Z</time>
      </trkpt>
      <trkpt lat="45.5167" lon="7.26852">
        <ele>3975</ele>
        <time>2021-11-07T15:17:51Z</time>
      </trkpt>
      <trkpt lat="45.5167" lon="7.26853">
        <ele>3975</ele>
        <time>2021-11-07T15:17:53Z</time>
      </trkpt>
      <trkpt lat="45.5167" lon="7.26854">
        <ele>3975</ele>
        <time>2021-11-07T15:17:58Z</time>
      </trkpt>
      <trkpt lat="45.5167" lon="7.26854">
        <ele>3975</ele>
        <time>2021-11-07T15:17:59Z</time>
      </trkpt>
      <trkpt lat="45.5167" lon="7.26854">
        <ele>3974.9</ele>
        <time>2021-11-07T15:18:01Z</time>
      </trkpt>
      <trkpt lat="45.51669" lon="7.26854">
        <ele>3974.9</ele>
        <time>2021-11-07T15:18:02Z</time>
      </trkpt>
      <trkpt lat="45.51669" lon="7.26855">
        <ele>3974.9</ele>
        <time>2021-11-07T15:18:05Z</time>
      </trkpt>
      <trkpt lat="45.51669" lon="7.26856">
        <ele>3974.9</ele>
        <time>2021-11-07T15:18:09Z</time>
      </trkpt>
      <trkpt lat="45.51668" lon="7.26857">
        <ele>3974.8</ele>
        <time>2021-11-07T15:18:14Z</time>
      </trkpt>
      <trkpt lat="45.51668" lon="7.26857">
        <ele>3974.8</ele>
        <time>2021-11-07T15:18:15Z</time>
      </trkpt>
      <trkpt lat="45.51667" lon="7.26859">
        <ele>3974.7</ele>
        <time>2021-11-07T15:18:28Z</time>
      </trkpt>
      <trkpt lat="45.51667" lon="7.26861">
        <ele>3974.7</ele>
        <time>2021-11-07T15:18:35Z</time>
      </trkpt>
      <trkpt lat="45.51667" lon="7.26862">
        <ele>3974.6</ele>
        <time>2021-11-07T15:18:43Z</time>
      </trkpt>
      <trkpt lat="45.51668" lon="7.26862">
        <ele>3974.6</ele>
        <time>2021-11-07T15:18:50Z</time>
      </trkpt>
      <trkpt lat="45.51669" lon="7.26861">
        <ele>3974.5</ele>
        <time>2021-11-07T15:18:56Z</time>
      </trkpt>
      <trkpt lat="45.51669" lon="7.2686">
        <ele>3974.5</ele>
        <time>2021-11-07T15:18:59Z</time>
      </trkpt>
      <trkpt lat="45.51667" lon="7.26861">
        <ele>3974.4</ele>
        <time>2021-11-07T15:19:07Z</time>
      </trkpt>
      <trkpt lat="45.51666" lon="7.26861">
        <ele>3974.4</ele>
        <time>2021-11-07T15:19:12Z</time>
      </trkpt>
      <trkpt lat="45.51666" lon="7.26861">
        <ele>3974.3</ele>
        <time>2021-11-07T15:19:14Z</time>
      </trkpt>
      <trkpt lat="45.51666" lon="7.26863">
        <ele>3974.3</ele>
        <time>2021-11-07T15:19:23Z</time>
      </trkpt>
      <trkpt lat="45.51665" lon="7.26862">
        <ele>3974.3</ele>
        <time>2021-11-07T15:19:28Z</time>
      </trkpt>
      <trkpt lat="45.51662" lon="7.26861">
        <ele>3974.3</ele>
        <time>2021-11-07T15:19:38Z</time>
      </trkpt>
      <trkpt lat="45.51659" lon="7.26863">
        <ele>3974.3</ele>
        <time>2021-11-07T15:19:47Z</time>
      </trkpt>
      <trkpt lat="45.51659" lon="7.26864">
        <ele>3974.3</ele>
        <time>2021-11-07T15:19:49Z</time>
      </trkpt>
      <trkpt lat="45.51658" lon="7.26864">
        <ele>3974.3</ele>
        <time>2021-11-07T15:19:52Z</time>
      </trkpt>
      <trkpt lat="45.51657" lon="7.26864">
        <ele>3974.3</ele>
        <time>2021-11-07T15:19:56Z</time>
      </trkpt>
      <trkpt lat="45.51656" lon="7.26864">
        <ele>3974.3</ele>
        <time>2021-11-07T15:19:59Z</time>
      </trkpt>
      <trkpt lat="45.51656" lon="7.26865">
        <ele>3974.3</ele>
        <time>2021-11-07T15:20:01Z</time>
      </trkpt>
      <trkpt lat="45.51655" lon="7.26865">
        <ele>3974.3</ele>
        <time>2021-11-07T15:20:03Z</time>
      </trkpt>
      <trkpt lat="45.51654" lon="7.26866">
        <ele>3974.3</ele>
        <time>2021-11-07T15:20:06Z</time>
      </trkpt>
      <trkpt lat="45.51653" lon="7.26867">
        <ele>3974.3</ele>
        <time>2021-11-07T15:20:09Z</time>
      </trkpt>
      <trkpt lat="45.51652" lon="7.26868">
        <ele>3974.3</ele>
        <time>2021-11-07T15:20:12Z</time>
      </trkpt>
      <trkpt lat="45.51651" lon="7.26868">
        <ele>3974.3</ele>
        <time>2021-11-07T15:20:14Z</time>
      </trkpt>
      <trkpt lat="45.51651" lon="7.26868">
        <ele>3974.3</ele>
        <time>2021-11-07T15:20:15Z</time>
      </trkpt>
      <trkpt lat="45.5165" lon="7.26869">
        <ele>3974.3</ele>
        <time>2021-11-07T15:20:16Z</time>
      </trkpt>
      <trkpt lat="45.51648" lon="7.2687">
        <ele>3973.9</ele>
        <time>2021-11-07T15:20:24Z</time>
      </trkpt>
      <trkpt lat="45.51648" lon="7.2687">
        <ele>3973.9</ele>
        <time>2021-11-07T15:20:27Z</time>
      </trkpt>
      <trkpt lat="45.51648" lon="7.2687">
        <ele>3973.9</ele>
        <time>2021-11-07T15:20:29Z</time>
      </trkpt>
      <trkpt lat="45.51648" lon="7.2687">
        <ele>3973.8</ele>
        <time>2021-11-07T15:20:33Z</time>
      </trkpt>
      <trkpt lat="45.51648" lon="7.26869">
        <ele>3973.8</ele>
        <time>2021-11-07T15:20:34Z</time>
      </trkpt>
      <trkpt lat="45.51647" lon="7.2687">
        <ele>3973.6</ele>
        <time>2021-11-07T15:20:40Z</time>
      </trkpt>
      <trkpt lat="45.51646" lon="7.2687">
        <ele>3973.4</ele>
        <time>2021-11-07T15:20:46Z</time>
      </trkpt>
      <trkpt lat="45.51645" lon="7.2687">
        <ele>3973.3</ele>
        <time>2021-11-07T15:20:51Z</time>
      </trkpt>
      <trkpt lat="45.51645" lon="7.2687">
        <ele>3973.2</ele>
        <time>2021-11-07T15:20:52Z</time>
      </trkpt>
      <trkpt lat="45.51644" lon="7.26871">
        <ele>3973.1</ele>
        <time>2021-11-07T15:20:56Z</time>
      </trkpt>
      <trkpt lat="45.51644" lon="7.26871">
        <ele>3973</ele>
        <time>2021-11-07T15:20:58Z</time>
      </trkpt>
      <trkpt lat="45.51642" lon="7.26872">
        <ele>3972.8</ele>
        <time>2021-11-07T15:21:03Z</time>
      </trkpt>
      <trkpt lat="45.51641" lon="7.26871">
        <ele>3972.6</ele>
        <time>2021-11-07T15:21:09Z</time>
      </trkpt>
      <trkpt lat="45.51641" lon="7.26871">
        <ele>3972.6</ele>
        <time>2021-11-07T15:21:10Z</time>
      </trkpt>
      <trkpt lat="45.51641" lon="7.26872">
        <ele>3972.6</ele>
        <time>2021-11-07T15:21:12Z</time>
      </trkpt>
      <trkpt lat="45.51638" lon="7.26874">
        <ele>3972.1</ele>
        <time>2021-11-07T15:21:21Z</time>
      </trkpt>
      <trkpt lat="45.51638" lon="7.26874">
        <ele>3972.1</ele>
        <time>2021-11-07T15:21:23Z</time>
      </trkpt>
      <trkpt lat="45.51638" lon="7.26874">
        <ele>3972.1</ele>
        <time>2021-11-07T15:21:26Z</time>
      </trkpt>
      <trkpt lat="45.51638" lon="7.26874">
        <ele>3972</ele>
        <time>2021-11-07T15:21:33Z</time>
      </trkpt>
      <trkpt lat="45.51637" lon="7.26874">
        <ele>3971.9</ele>
        <time>2021-11-07T15:21:38Z</time>
      </trkpt>
      <trkpt lat="45.51637" lon="7.26874">
        <ele>3971.9</ele>
        <time>2021-11-07T15:21:39Z</time>
      </trkpt>
      <trkpt lat="45.51637" lon="7.26874">
        <ele>3971.9</ele>
        <time>2021-11-07T15:21:40Z</time>
      </trkpt>
      <trkpt lat="45.51636" lon="7.26874">
        <ele>3971.8</ele>
        <time>2021-11-07T15:21:43Z</time>
      </trkpt>
      <trkpt lat="45.51635" lon="7.26875">
        <ele>3971.6</ele>
        <time>2021-11-07T15:21:48Z</time>
      </trkpt>
      <trkpt lat="45.51635" lon="7.26875">
        <ele>3971.6</ele>
        <time>2021-11-07T15:21:49Z</time>
      </trkpt>
      <trkpt lat="45.51634" lon="7.26876">
        <ele>3971.4</ele>
        <time>2021-11-07T15:21:57Z</time>
      </trkpt>
      <trkpt lat="45.51632" lon="7.26877">
        <ele>3971.1</ele>
        <time>2021-11-07T15:22:04Z</time>
      </trkpt>
      <trkpt lat="45.51632" lon="7.26877">
        <ele>3971.1</ele>
        <time>2021-11-07T15:22:05Z</time>
      </trkpt>
      <trkpt lat="45.51631" lon="7.26879">
        <ele>3970.8</ele>
        <time>2021-11-07T15:22:11Z</time>
      </trkpt>
      <trkpt lat="45.51629" lon="7.2688">
        <ele>3970.4</ele>
        <time>2021-11-07T15:22:16Z</time>
      </trkpt>
      <trkpt lat="45.51629" lon="7.26881">
        <ele>3970.4</ele>
        <time>2021-11-07T15:22:19Z</time>
      </trkpt>
      <trkpt lat="45.51628" lon="7.26881">
        <ele>3970.3</ele>
        <time>2021-11-07T15:22:26Z</time>
      </trkpt>
      <trkpt lat="45.51628" lon="7.2688">
        <ele>3970.1</ele>
        <time>2021-11-07T15:22:28Z</time>
      </trkpt>
      <trkpt lat="45.51627" lon="7.26881">
        <ele>3970</ele>
        <time>2021-11-07T15:22:32Z</time>
      </trkpt>
      <trkpt lat="45.51626" lon="7.2688">
        <ele>3970</ele>
        <time>2021-11-07T15:22:37Z</time>
      </trkpt>
      <trkpt lat="45.51627" lon="7.2688">
        <ele>3969.9</ele>
        <time>2021-11-07T15:22:41Z</time>
      </trkpt>
      <trkpt lat="45.51626" lon="7.26881">
        <ele>3969.8</ele>
        <time>2021-11-07T15:22:44Z</time>
      </trkpt>
      <trkpt lat="45.51626" lon="7.26882">
        <ele>3969.7</ele>
        <time>2021-11-07T15:22:47Z</time>
      </trkpt>
      <trkpt lat="45.51625" lon="7.26883">
        <ele>3969.6</ele>
        <time>2021-11-07T15:22:52Z</time>
      </trkpt>
      <trkpt lat="45.51625" lon="7.26883">
        <ele>3969.5</ele>
        <time>2021-11-07T15:22:54Z</time>
      </trkpt>
      <trkpt lat="45.51624" lon="7.26882">
        <ele>3969.3</ele>
        <time>2021-11-07T15:23:02Z</time>
      </trkpt>
      <trkpt lat="45.51623" lon="7.26882">
        <ele>3969.2</ele>
        <time>2021-11-07T15:23:06Z</time>
      </trkpt>
      <trkpt lat="45.51623" lon="7.26882">
        <ele>3969.2</ele>
        <time>2021-11-07T15:23:07Z</time>
      </trkpt>
      <trkpt lat="45.51621" lon="7.26883">
        <ele>3968.9</ele>
        <time>2021-11-07T15:23:15Z</time>
      </trkpt>
      <trkpt lat="45.51621" lon="7.26883">
        <ele>3968.8</ele>
        <time>2021-11-07T15:23:17Z</time>
      </trkpt>
      <trkpt lat="45.51619" lon="7.26885">
        <ele>3968.5</ele>
        <time>2021-11-07T15:23:22Z</time>
      </trkpt>
      <trkpt lat="45.51618" lon="7.26886">
        <ele>3968.3</ele>
        <time>2021-11-07T15:23:26Z</time>
      </trkpt>
      <trkpt lat="45.51618" lon="7.26886">
        <ele>3968.2</ele>
        <time>2021-11-07T15:23:28Z</time>
      </trkpt>
      <trkpt lat="45.51615" lon="7.26887">
        <ele>3967.8</ele>
        <time>2021-11-07T15:23:37Z</time>
      </trkpt>
      <trkpt lat="45.51615" lon="7.26888">
        <ele>3967.7</ele>
        <time>2021-11-07T15:23:39Z</time>
      </trkpt>
      <trkpt lat="45.51615" lon="7.2689">
        <ele>3967.4</ele>
        <time>2021-11-07T15:23:43Z</time>
      </trkpt>
      <trkpt lat="45.51614" lon="7.26891">
        <ele>3967.4</ele>
        <time>2021-11-07T15:23:44Z</time>
      </trkpt>
      <trkpt lat="45.51614" lon="7.26891">
        <ele>3967.3</ele>
        <time>2021-11-07T15:23:45Z</time>
      </trkpt>
      <trkpt lat="45.51613" lon="7.26891">
        <ele>3967.1</ele>
        <time>2021-11-07T15:23:49Z</time>
      </trkpt>
      <trkpt lat="45.51611" lon="7.26891">
        <ele>3966.9</ele>
        <time>2021-11-07T15:23:58Z</time>
      </trkpt>
      <trkpt lat="45.51611" lon="7.2689">
        <ele>3966.8</ele>
        <time>2021-11-07T15:24:00Z</time>
      </trkpt>
      <trkpt lat="45.51611" lon="7.2689">
        <ele>3966.7</ele>
        <time>2021-11-07T15:24:05Z</time>
      </trkpt>
      <trkpt lat="45.5161" lon="7.2689">
        <ele>3966.6</ele>
        <time>2021-11-07T15:24:08Z</time>
      </trkpt>
      <trkpt lat="45.5161" lon="7.2689">
        <ele>3966.6</ele>
        <time>2021-11-07T15:24:10Z</time>
      </trkpt>
      <trkpt lat="45.5161" lon="7.26891">
        <ele>3966.5</ele>
        <time>2021-11-07T15:24:11Z</time>
      </trkpt>
      <trkpt lat="45.51609" lon="7.26891">
        <ele>3966.5</ele>
        <time>2021-11-07T15:24:12Z</time>
      </trkpt>
      <trkpt lat="45.51609" lon="7.26891">
        <ele>3966.5</ele>
        <time>2021-11-07T15:24:13Z</time>
      </trkpt>
      <trkpt lat="45.51609" lon="7.26892">
        <ele>3966.4</ele>
        <time>2021-11-07T15:24:18Z</time>
      </trkpt>
      <trkpt lat="45.51609" lon="7.26892">
        <ele>3966.3</ele>
        <time>2021-11-07T15:24:23Z</time>
      </trkpt>
      <trkpt lat="45.51608" lon="7.26892">
        <ele>3966.2</ele>
        <time>2021-11-07T15:24:24Z</time>
      </trkpt>
      <trkpt lat="45.51605" lon="7.26893">
        <ele>3965.8</ele>
        <time>2021-11-07T15:24:35Z</time>
      </trkpt>
      <trkpt lat="45.51605" lon="7.26893">
        <ele>3965.7</ele>
        <time>2021-11-07T15:24:36Z</time>
      </trkpt>
      <trkpt lat="45.51604" lon="7.26894">
        <ele>3965.5</ele>
        <time>2021-11-07T15:24:41Z</time>
      </trkpt>
      <trkpt lat="45.51602" lon="7.26894">
        <ele>3965.3</ele>
        <time>2021-11-07T15:24:45Z</time>
      </trkpt>
      <trkpt lat="45.51601" lon="7.26896">
        <ele>3964.9</ele>
        <time>2021-11-07T15:24:50Z</time>
      </trkpt>
      <trkpt lat="45.516" lon="7.26897">
        <ele>3964.7</ele>
        <time>2021-11-07T15:24:53Z</time>
      </trkpt>
      <trkpt lat="45.51599" lon="7.26898">
        <ele>3964.6</ele>
        <time>2021-11-07T15:24:56Z</time>
      </trkpt>
      <trkpt lat="45.51598" lon="7.26899">
        <ele>3964.5</ele>
        <time>2021-11-07T15:24:59Z</time>
      </trkpt>
      <trkpt lat="45.51597" lon="7.26899">
        <ele>3964.3</ele>
        <time>2021-11-07T15:25:02Z</time>
      </trkpt>
      <trkpt lat="45.51595" lon="7.26899">
        <ele>3964</ele>
        <time>2021-11-07T15:25:06Z</time>
      </trkpt>
      <trkpt lat="45.51594" lon="7.26899">
        <ele>3963.8</ele>
        <time>2021-11-07T15:25:09Z</time>
      </trkpt>
      <trkpt lat="45.51592" lon="7.26899">
        <ele>3963.5</ele>
        <time>2021-11-07T15:25:12Z</time>
      </trkpt>
      <trkpt lat="45.5159" lon="7.26901">
        <ele>3963.1</ele>
        <time>2021-11-07T15:25:18Z</time>
      </trkpt>
      <trkpt lat="45.51588" lon="7.26902">
        <ele>3962.9</ele>
        <time>2021-11-07T15:25:20Z</time>
      </trkpt>
      <trkpt lat="45.51586" lon="7.26905">
        <ele>3962.3</ele>
        <time>2021-11-07T15:25:26Z</time>
      </trkpt>
      <trkpt lat="45.51585" lon="7.26906">
        <ele>3962.2</ele>
        <time>2021-11-07T15:25:28Z</time>
      </trkpt>
      <trkpt lat="45.51584" lon="7.26907">
        <ele>3961.9</ele>
        <time>2021-11-07T15:25:31Z</time>
      </trkpt>
      <trkpt lat="45.51584" lon="7.26908">
        <ele>3961.9</ele>
        <time>2021-11-07T15:25:32Z</time>
      </trkpt>
      <trkpt lat="45.51583" lon="7.26908">
        <ele>3961.7</ele>
        <time>2021-11-07T15:25:34Z</time>
      </trkpt>
      <trkpt lat="45.51583" lon="7.26909">
        <ele>3961.7</ele>
        <time>2021-11-07T15:25:35Z</time>
      </trkpt>
      <trkpt lat="45.51582" lon="7.2691">
        <ele>3961.5</ele>
        <time>2021-11-07T15:25:37Z</time>
      </trkpt>
      <trkpt lat="45.51581" lon="7.26913">
        <ele>3961.2</ele>
        <time>2021-11-07T15:25:42Z</time>
      </trkpt>
      <trkpt lat="45.51581" lon="7.26913">
        <ele>3961.1</ele>
        <time>2021-11-07T15:25:44Z</time>
      </trkpt>
      <trkpt lat="45.51579" lon="7.26914">
        <ele>3960.8</ele>
        <time>2021-11-07T15:25:46Z</time>
      </trkpt>
      <trkpt lat="45.51579" lon="7.26915">
        <ele>3960.7</ele>
        <time>2021-11-07T15:25:47Z</time>
      </trkpt>
      <trkpt lat="45.51578" lon="7.26916">
        <ele>3960.6</ele>
        <time>2021-11-07T15:25:48Z</time>
      </trkpt>
      <trkpt lat="45.51577" lon="7.26916">
        <ele>3960.5</ele>
        <time>2021-11-07T15:25:49Z</time>
      </trkpt>
      <trkpt lat="45.51575" lon="7.26918">
        <ele>3960</ele>
        <time>2021-11-07T15:25:53Z</time>
      </trkpt>
      <trkpt lat="45.51572" lon="7.26919">
        <ele>3959.6</ele>
        <time>2021-11-07T15:25:57Z</time>
      </trkpt>
      <trkpt lat="45.5157" lon="7.26918">
        <ele>3959.3</ele>
        <time>2021-11-07T15:26:00Z</time>
      </trkpt>
      <trkpt lat="45.51568" lon="7.26919">
        <ele>3959</ele>
        <time>2021-11-07T15:26:03Z</time>
      </trkpt>
      <trkpt lat="45.51565" lon="7.26921">
        <ele>3958.5</ele>
        <time>2021-11-07T15:26:07Z</time>
      </trkpt>
      <trkpt lat="45.51565" lon="7.26922">
        <ele>3958.4</ele>
        <time>2021-11-07T15:26:08Z</time>
      </trkpt>
      <trkpt lat="45.51563" lon="7.26924">
        <ele>3958.1</ele>
        <time>2021-11-07T15:26:11Z</time>
      </trkpt>
      <trkpt lat="45.51563" lon="7.26925">
        <ele>3958</ele>
        <time>2021-11-07T15:26:12Z</time>
      </trkpt>
      <trkpt lat="45.51563" lon="7.26925">
        <ele>3957.9</ele>
        <time>2021-11-07T15:26:13Z</time>
      </trkpt>
      <trkpt lat="45.51561" lon="7.26926">
        <ele>3957.6</ele>
        <time>2021-11-07T15:26:15Z</time>
      </trkpt>
      <trkpt lat="45.5156" lon="7.26927">
        <ele>3957.5</ele>
        <time>2021-11-07T15:26:17Z</time>
      </trkpt>
      <trkpt lat="45.51559" lon="7.26928">
        <ele>3957.2</ele>
        <time>2021-11-07T15:26:20Z</time>
      </trkpt>
      <trkpt lat="45.51558" lon="7.26929">
        <ele>3957</ele>
        <time>2021-11-07T15:26:22Z</time>
      </trkpt>
      <trkpt lat="45.51557" lon="7.26929">
        <ele>3957</ele>
        <time>2021-11-07T15:26:23Z</time>
      </trkpt>
      <trkpt lat="45.51556" lon="7.26929">
        <ele>3956.9</ele>
        <time>2021-11-07T15:26:24Z</time>
      </trkpt>
      <trkpt lat="45.51555" lon="7.2693">
        <ele>3956.6</ele>
        <time>2021-11-07T15:26:26Z</time>
      </trkpt>
      <trkpt lat="45.51554" lon="7.2693">
        <ele>3956.5</ele>
        <time>2021-11-07T15:26:27Z</time>
      </trkpt>
      <trkpt lat="45.51553" lon="7.26931">
        <ele>3956.2</ele>
        <time>2021-11-07T15:26:30Z</time>
      </trkpt>
      <trkpt lat="45.5155" lon="7.26931">
        <ele>3955.9</ele>
        <time>2021-11-07T15:26:34Z</time>
      </trkpt>
      <trkpt lat="45.51549" lon="7.26932">
        <ele>3955.7</ele>
        <time>2021-11-07T15:26:35Z</time>
      </trkpt>
      <trkpt lat="45.51549" lon="7.26932">
        <ele>3955.6</ele>
        <time>2021-11-07T15:26:36Z</time>
      </trkpt>
      <trkpt lat="45.51546" lon="7.26934">
        <ele>3955.2</ele>
        <time>2021-11-07T15:26:40Z</time>
      </trkpt>
      <trkpt lat="45.51545" lon="7.26934">
        <ele>3955.1</ele>
        <time>2021-11-07T15:26:41Z</time>
      </trkpt>
      <trkpt lat="45.51545" lon="7.26934">
        <ele>3955</ele>
        <time>2021-11-07T15:26:42Z</time>
      </trkpt>
      <trkpt lat="45.51543" lon="7.26936">
        <ele>3954.6</ele>
        <time>2021-11-07T15:26:45Z</time>
      </trkpt>
      <trkpt lat="45.51543" lon="7.26937">
        <ele>3954.6</ele>
        <time>2021-11-07T15:26:46Z</time>
      </trkpt>
      <trkpt lat="45.51542" lon="7.26937">
        <ele>3954.4</ele>
        <time>2021-11-07T15:26:47Z</time>
      </trkpt>
      <trkpt lat="45.5154" lon="7.26939">
        <ele>3954</ele>
        <time>2021-11-07T15:26:52Z</time>
      </trkpt>
      <trkpt lat="45.51539" lon="7.26939">
        <ele>3954</ele>
        <time>2021-11-07T15:26:53Z</time>
      </trkpt>
      <trkpt lat="45.51537" lon="7.2694">
        <ele>3953.6</ele>
        <time>2021-11-07T15:26:57Z</time>
      </trkpt>
      <trkpt lat="45.51535" lon="7.2694">
        <ele>3953.4</ele>
        <time>2021-11-07T15:27:00Z</time>
      </trkpt>
      <trkpt lat="45.51535" lon="7.2694">
        <ele>3953.3</ele>
        <time>2021-11-07T15:27:01Z</time>
      </trkpt>
      <trkpt lat="45.51528" lon="7.26939">
        <ele>3952.3</ele>
        <time>2021-11-07T15:27:10Z</time>
      </trkpt>
      <trkpt lat="45.51527" lon="7.26939">
        <ele>3952.1</ele>
        <time>2021-11-07T15:27:11Z</time>
      </trkpt>
      <trkpt lat="45.51526" lon="7.26939">
        <ele>3951.8</ele>
        <time>2021-11-07T15:27:13Z</time>
      </trkpt>
      <trkpt lat="45.51525" lon="7.26939">
        <ele>3951.7</ele>
        <time>2021-11-07T15:27:14Z</time>
      </trkpt>
      <trkpt lat="45.51523" lon="7.26939">
        <ele>3951.5</ele>
        <time>2021-11-07T15:27:17Z</time>
      </trkpt>
      <trkpt lat="45.51522" lon="7.26939">
        <ele>3951.3</ele>
        <time>2021-11-07T15:27:19Z</time>
      </trkpt>
      <trkpt lat="45.51521" lon="7.26939">
        <ele>3951.2</ele>
        <time>2021-11-07T15:27:20Z</time>
      </trkpt>
      <trkpt lat="45.51521" lon="7.26939">
        <ele>3951.1</ele>
        <time>2021-11-07T15:27:21Z</time>
      </trkpt>
      <trkpt lat="45.51519" lon="7.2694">
        <ele>3950.9</ele>
        <time>2021-11-07T15:27:27Z</time>
      </trkpt>
      <trkpt lat="45.51518" lon="7.2694">
        <ele>3950.6</ele>
        <time>2021-11-07T15:27:30Z</time>
      </trkpt>
      <trkpt lat="45.51516" lon="7.2694">
        <ele>3950.4</ele>
        <time>2021-11-07T15:27:35Z</time>
      </trkpt>
      <trkpt lat="45.51516" lon="7.26939">
        <ele>3950.3</ele>
        <time>2021-11-07T15:27:43Z</time>
      </trkpt>
      <trkpt lat="45.51516" lon="7.2694">
        <ele>3950.3</ele>
        <time>2021-11-07T15:27:50Z</time>
      </trkpt>
      <trkpt lat="45.51516" lon="7.2694">
        <ele>3950.3</ele>
        <time>2021-11-07T15:27:51Z</time>
      </trkpt>
      <trkpt lat="45.51516" lon="7.26939">
        <ele>3950.2</ele>
        <time>2021-11-07T15:28:00Z</time>
      </trkpt>
      <trkpt lat="45.51516" lon="7.26939">
        <ele>3950.2</ele>
        <time>2021-11-07T15:28:02Z</time>
      </trkpt>
      <trkpt lat="45.51516" lon="7.26939">
        <ele>3950.2</ele>
        <time>2021-11-07T15:28:05Z</time>
      </trkpt>
      <trkpt lat="45.51516" lon="7.26939">
        <ele>3950.2</ele>
        <time>2021-11-07T15:28:07Z</time>
      </trkpt>
      <trkpt lat="45.51516" lon="7.26939">
        <ele>3950.2</ele>
        <time>2021-11-07T15:28:08Z</time>
      </trkpt>
      <trkpt lat="45.51515" lon="7.26939">
        <ele>3950.2</ele>
        <time>2021-11-07T15:28:09Z</time>
      </trkpt>
      <trkpt lat="45.51515" lon="7.26939">
        <ele>3950.1</ele>
        <time>2021-11-07T15:28:14Z</time>
      </trkpt>
      <trkpt lat="45.51514" lon="7.2694">
        <ele>3950</ele>
        <time>2021-11-07T15:28:19Z</time>
      </trkpt>
      <trkpt lat="45.51513" lon="7.26939">
        <ele>3949.8</ele>
        <time>2021-11-07T15:28:25Z</time>
      </trkpt>
      <trkpt lat="45.51511" lon="7.26938">
        <ele>3949.4</ele>
        <time>2021-11-07T15:28:28Z</time>
      </trkpt>
      <trkpt lat="45.51511" lon="7.26935">
        <ele>3949</ele>
        <time>2021-11-07T15:28:36Z</time>
      </trkpt>
      <trkpt lat="45.51515" lon="7.26934">
        <ele>3948.3</ele>
        <time>2021-11-07T15:28:44Z</time>
      </trkpt>
      <trkpt lat="45.51518" lon="7.26934">
        <ele>3947.9</ele>
        <time>2021-11-07T15:28:54Z</time>
      </trkpt>
      <trkpt lat="45.51519" lon="7.26933">
        <ele>3947.8</ele>
        <time>2021-11-07T15:28:56Z</time>
      </trkpt>
      <trkpt lat="45.5152" lon="7.26933">
        <ele>3947.7</ele>
        <time>2021-11-07T15:29:08Z</time>
      </trkpt>
      <trkpt lat="45.5152" lon="7.26934">
        <ele>3947.6</ele>
        <time>2021-11-07T15:29:12Z</time>
      </trkpt>
      <trkpt lat="45.5152" lon="7.26934">
        <ele>3947.6</ele>
        <time>2021-11-07T15:29:15Z</time>
      </trkpt>
      <trkpt lat="45.5152" lon="7.26934">
        <ele>3947.6</ele>
        <time>2021-11-07T15:29:17Z</time>
      </trkpt>
      <trkpt lat="45.5152" lon="7.26933">
        <ele>3947.5</ele>
        <time>2021-11-07T15:29:20Z</time>
      </trkpt>
      <trkpt lat="45.5152" lon="7.26933">
        <ele>3947.5</ele>
        <time>2021-11-07T15:29:21Z</time>
      </trkpt>
      <trkpt lat="45.5152" lon="7.26933">
        <ele>3947.5</ele>
        <time>2021-11-07T15:29:24Z</time>
      </trkpt>
      <trkpt lat="45.5152" lon="7.26933">
        <ele>3947.4</ele>
        <time>2021-11-07T15:29:26Z</time>
      </trkpt>
      <trkpt lat="45.5152" lon="7.26934">
        <ele>3947.4</ele>
        <time>2021-11-07T15:29:28Z</time>
      </trkpt>
      <trkpt lat="45.5152" lon="7.26933">
        <ele>3947.3</ele>
        <time>2021-11-07T15:29:35Z</time>
      </trkpt>
      <trkpt lat="45.5152" lon="7.26933">
        <ele>3947.2</ele>
        <time>2021-11-07T15:29:42Z</time>
      </trkpt>
      <trkpt lat="45.5152" lon="7.26934">
        <ele>3947.1</ele>
        <time>2021-11-07T15:29:52Z</time>
      </trkpt>
      <trkpt lat="45.51521" lon="7.26933">
        <ele>3947</ele>
        <time>2021-11-07T15:30:01Z</time>
      </trkpt>
      <trkpt lat="45.51521" lon="7.26933">
        <ele>3947</ele>
        <time>2021-11-07T15:30:02Z</time>
      </trkpt>
      <trkpt lat="45.51521" lon="7.26933">
        <ele>3947</ele>
        <time>2021-11-07T15:30:05Z</time>
      </trkpt>
      <trkpt lat="45.51521" lon="7.26933">
        <ele>3946.9</ele>
        <time>2021-11-07T15:30:07Z</time>
      </trkpt>
      <trkpt lat="45.51521" lon="7.26934">
        <ele>3946.9</ele>
        <time>2021-11-07T15:30:08Z</time>
      </trkpt>
      <trkpt lat="45.51522" lon="7.26934">
        <ele>3946.8</ele>
        <time>2021-11-07T15:30:11Z</time>
      </trkpt>
      <trkpt lat="45.51522" lon="7.26934">
        <ele>3946.8</ele>
        <time>2021-11-07T15:30:13Z</time>
      </trkpt>
      <trkpt lat="45.51521" lon="7.26935">
        <ele>3946.7</ele>
        <time>2021-11-07T15:30:18Z</time>
      </trkpt>
      <trkpt lat="45.51521" lon="7.26935">
        <ele>3946.7</ele>
        <time>2021-11-07T15:30:24Z</time>
      </trkpt>
      <trkpt lat="45.51521" lon="7.26934">
        <ele>3946.7</ele>
        <time>2021-11-07T15:30:26Z</time>
      </trkpt>
      <trkpt lat="45.51521" lon="7.26934">
        <ele>3946.6</ele>
        <time>2021-11-07T15:30:29Z</time>
      </trkpt>
      <trkpt lat="45.51521" lon="7.26934">
        <ele>3946.5</ele>
        <time>2021-11-07T15:30:34Z</time>
      </trkpt>
      <trkpt lat="45.51522" lon="7.26934">
        <ele>3946.4</ele>
        <time>2021-11-07T15:30:42Z</time>
      </trkpt>
      <trkpt lat="45.51522" lon="7.26934">
        <ele>3946.4</ele>
        <time>2021-11-07T15:30:47Z</time>
      </trkpt>
      <trkpt lat="45.51522" lon="7.26934">
        <ele>3946.3</ele>
        <time>2021-11-07T15:30:49Z</time>
      </trkpt>
      <trkpt lat="45.51523" lon="7.26934">
        <ele>3946.2</ele>
        <time>2021-11-07T15:30:55Z</time>
      </trkpt>
      <trkpt lat="45.51522" lon="7.26935">
        <ele>3946.1</ele>
        <time>2021-11-07T15:31:00Z</time>
      </trkpt>
      <trkpt lat="45.51522" lon="7.26935">
        <ele>3946.1</ele>
        <time>2021-11-07T15:31:05Z</time>
      </trkpt>
      <trkpt lat="45.51522" lon="7.26936">
        <ele>3945.9</ele>
        <time>2021-11-07T15:31:11Z</time>
      </trkpt>
      <trkpt lat="45.51523" lon="7.26936">
        <ele>3945.8</ele>
        <time>2021-11-07T15:31:21Z</time>
      </trkpt>
      <trkpt lat="45.51523" lon="7.26935">
        <ele>3945.7</ele>
        <time>2021-11-07T15:31:26Z</time>
      </trkpt>
      <trkpt lat="45.51523" lon="7.26935">
        <ele>3945.7</ele>
        <time>2021-11-07T15:31:33Z</time>
      </trkpt>
      <trkpt lat="45.51524" lon="7.26934">
        <ele>3945.6</ele>
        <time>2021-11-07T15:31:43Z</time>
      </trkpt>
      <trkpt lat="45.51524" lon="7.26934">
        <ele>3945.5</ele>
        <time>2021-11-07T15:31:45Z</time>
      </trkpt>
      <trkpt lat="45.51524" lon="7.26934">
        <ele>3945.5</ele>
        <time>2021-11-07T15:31:55Z</time>
      </trkpt>
      <trkpt lat="45.51524" lon="7.26934">
        <ele>3945.4</ele>
        <time>2021-11-07T15:31:56Z</time>
      </trkpt>
      <trkpt lat="45.51524" lon="7.26933">
        <ele>3945.4</ele>
        <time>2021-11-07T15:32:11Z</time>
      </trkpt>
      <trkpt lat="45.51524" lon="7.26933">
        <ele>3945.4</ele>
        <time>2021-11-07T15:32:17Z</time>
      </trkpt>
      <trkpt lat="45.51524" lon="7.26933">
        <ele>3945.3</ele>
        <time>2021-11-07T15:32:25Z</time>
      </trkpt>
      <trkpt lat="45.51524" lon="7.26932">
        <ele>3945.2</ele>
        <time>2021-11-07T15:32:32Z</time>
      </trkpt>
      <trkpt lat="45.51524" lon="7.26932">
        <ele>3945.2</ele>
        <time>2021-11-07T15:32:36Z</time>
      </trkpt>
      <trkpt lat="45.51524" lon="7.26932">
        <ele>3945.1</ele>
        <time>2021-11-07T15:32:39Z</time>
      </trkpt>
      <trkpt lat="45.51523" lon="7.26934">
        <ele>3944.8</ele>
        <time>2021-11-07T15:32:46Z</time>
      </trkpt>
      <trkpt lat="45.51522" lon="7.26934">
        <ele>3944.7</ele>
        <time>2021-11-07T15:32:54Z</time>
      </trkpt>
      <trkpt lat="45.51523" lon="7.26935">
        <ele>3944.6</ele>
        <time>2021-11-07T15:32:56Z</time>
      </trkpt>
      <trkpt lat="45.51523" lon="7.26934">
        <ele>3944.5</ele>
        <time>2021-11-07T15:33:00Z</time>
      </trkpt>
      <trkpt lat="45.51523" lon="7.26934">
        <ele>3944.4</ele>
        <time>2021-11-07T15:33:04Z</time>
      </trkpt>
      <trkpt lat="45.51522" lon="7.26934">
        <ele>3944.3</ele>
        <time>2021-11-07T15:33:11Z</time>
      </trkpt>
      <trkpt lat="45.51522" lon="7.26934">
        <ele>3944.2</ele>
        <time>2021-11-07T15:33:18Z</time>
      </trkpt>
      <trkpt lat="45.51522" lon="7.26934">
        <ele>3944.2</ele>
        <time>2021-11-07T15:33:21Z</time>
      </trkpt>
      <trkpt lat="45.51521" lon="7.26933">
        <ele>3944.1</ele>
        <time>2021-11-07T15:33:25Z</time>
      </trkpt>
      <trkpt lat="45.5152" lon="7.26933">
        <ele>3943.9</ele>
        <time>2021-11-07T15:33:30Z</time>
      </trkpt>
      <trkpt lat="45.5152" lon="7.26932">
        <ele>3943.8</ele>
        <time>2021-11-07T15:33:33Z</time>
      </trkpt>
      <trkpt lat="45.5152" lon="7.26933">
        <ele>3943.8</ele>
        <time>2021-11-07T15:33:35Z</time>
      </trkpt>
      <trkpt lat="45.51519" lon="7.26933">
        <ele>3943.8</ele>
        <time>2021-11-07T15:33:39Z</time>
      </trkpt>
      <trkpt lat="45.51519" lon="7.26933">
        <ele>3943.7</ele>
        <time>2021-11-07T15:33:40Z</time>
      </trkpt>
      <trkpt lat="45.51519" lon="7.26933">
        <ele>3943.7</ele>
        <time>2021-11-07T15:33:41Z</time>
      </trkpt>
      <trkpt lat="45.51519" lon="7.26933">
        <ele>3943.7</ele>
        <time>2021-11-07T15:33:42Z</time>
      </trkpt>
      <trkpt lat="45.51519" lon="7.26933">
        <ele>3943.7</ele>
        <time>2021-11-07T15:33:44Z</time>
      </trkpt>
      <trkpt lat="45.51519" lon="7.26932">
        <ele>3943.7</ele>
        <time>2021-11-07T15:33:46Z</time>
      </trkpt>
      <trkpt lat="45.5152" lon="7.26932">
        <ele>3943.6</ele>
        <time>2021-11-07T15:33:50Z</time>
      </trkpt>
      <trkpt lat="45.5152" lon="7.26932">
        <ele>3943.6</ele>
        <time>2021-11-07T15:33:52Z</time>
      </trkpt>
      <trkpt lat="45.5152" lon="7.26932">
        <ele>3943.6</ele>
        <time>2021-11-07T15:33:55Z</time>
      </trkpt>
      <trkpt lat="45.5152" lon="7.26932">
        <ele>3943.5</ele>
        <time>2021-11-07T15:33:56Z</time>
      </trkpt>
      <trkpt lat="45.5152" lon="7.26932">
        <ele>3943.5</ele>
        <time>2021-11-07T15:33:57Z</time>
      </trkpt>
      <trkpt lat="45.5152" lon="7.26932">
        <ele>3943.5</ele>
        <time>2021-11-07T15:34:00Z</time>
      </trkpt>
      <trkpt lat="45.51521" lon="7.26932">
        <ele>3943.4</ele>
        <time>2021-11-07T15:34:06Z</time>
      </trkpt>
      <trkpt lat="45.51521" lon="7.26932">
        <ele>3943.4</ele>
        <time>2021-11-07T15:34:08Z</time>
      </trkpt>
      <trkpt lat="45.51521" lon="7.26932">
        <ele>3943.4</ele>
        <time>2021-11-07T15:34:09Z</time>
      </trkpt>
      <trkpt lat="45.51521" lon="7.26932">
        <ele>3943.4</ele>
        <time>2021-11-07T15:34:11Z</time>
      </trkpt>
      <trkpt lat="45.51521" lon="7.26932">
        <ele>3943.4</ele>
        <time>2021-11-07T15:34:12Z</time>
      </trkpt>
      <trkpt lat="45.5152" lon="7.26932">
        <ele>3943.3</ele>
        <time>2021-11-07T15:34:23Z</time>
      </trkpt>
      <trkpt lat="45.51521" lon="7.26933">
        <ele>3943.3</ele>
        <time>2021-11-07T15:34:26Z</time>
      </trkpt>
      <trkpt lat="45.5152" lon="7.26933">
        <ele>3943.2</ele>
        <time>2021-11-07T15:34:29Z</time>
      </trkpt>
      <trkpt lat="45.5152" lon="7.26934">
        <ele>3943.1</ele>
        <time>2021-11-07T15:34:38Z</time>
      </trkpt>
      <trkpt lat="45.51519" lon="7.26935">
        <ele>3942.9</ele>
        <time>2021-11-07T15:34:44Z</time>
      </trkpt>
      <trkpt lat="45.51519" lon="7.26937">
        <ele>3942.7</ele>
        <time>2021-11-07T15:34:50Z</time>
      </trkpt>
      <trkpt lat="45.51519" lon="7.26936">
        <ele>3942.7</ele>
        <time>2021-11-07T15:34:51Z</time>
      </trkpt>
      <trkpt lat="45.51519" lon="7.26936">
        <ele>3942.7</ele>
        <time>2021-11-07T15:34:54Z</time>
      </trkpt>
      <trkpt lat="45.51519" lon="7.26936">
        <ele>3942.7</ele>
        <time>2021-11-07T15:34:55Z</time>
      </trkpt>
      <trkpt lat="45.51518" lon="7.26937">
        <ele>3942.6</ele>
        <time>2021-11-07T15:34:58Z</time>
      </trkpt>
      <trkpt lat="45.51518" lon="7.26937">
        <ele>3942.5</ele>
        <time>2021-11-07T15:35:00Z</time>
      </trkpt>
      <trkpt lat="45.51518" lon="7.26937">
        <ele>3942.5</ele>
        <time>2021-11-07T15:35:02Z</time>
      </trkpt>
      <trkpt lat="45.51519" lon="7.26936">
        <ele>3942.4</ele>
        <time>2021-11-07T15:35:06Z</time>
      </trkpt>
      <trkpt lat="45.5152" lon="7.26936">
        <ele>3942.3</ele>
        <time>2021-11-07T15:35:10Z</time>
      </trkpt>
      <trkpt lat="45.51522" lon="7.26936">
        <ele>3941.9</ele>
        <time>2021-11-07T15:35:14Z</time>
      </trkpt>
      <trkpt lat="45.51523" lon="7.26936">
        <ele>3941.8</ele>
        <time>2021-11-07T15:35:17Z</time>
      </trkpt>
      <trkpt lat="45.51523" lon="7.26936">
        <ele>3941.7</ele>
        <time>2021-11-07T15:35:28Z</time>
      </trkpt>
      <trkpt lat="45.51523" lon="7.26936">
        <ele>3941.7</ele>
        <time>2021-11-07T15:35:31Z</time>
      </trkpt>
      <trkpt lat="45.51523" lon="7.26936">
        <ele>3941.6</ele>
        <time>2021-11-07T15:35:35Z</time>
      </trkpt>
      <trkpt lat="45.51523" lon="7.26936">
        <ele>3941.6</ele>
        <time>2021-11-07T15:35:36Z</time>
      </trkpt>
      <trkpt lat="45.51523" lon="7.26935">
        <ele>3941.5</ele>
        <time>2021-11-07T15:35:40Z</time>
      </trkpt>
      <trkpt lat="45.51523" lon="7.26935">
        <ele>3941.5</ele>
        <time>2021-11-07T15:35:42Z</time>
      </trkpt>
      <trkpt lat="45.51523" lon="7.26935">
        <ele>3941.4</ele>
        <time>2021-11-07T15:35:50Z</time>
      </trkpt>
      <trkpt lat="45.51523" lon="7.26934">
        <ele>3941.3</ele>
        <time>2021-11-07T15:35:58Z</time>
      </trkpt>
      <trkpt lat="45.51523" lon="7.26933">
        <ele>3941.3</ele>
        <time>2021-11-07T15:36:04Z</time>
      </trkpt>
      <trkpt lat="45.51521" lon="7.26933">
        <ele>3941</ele>
        <time>2021-11-07T15:36:14Z</time>
      </trkpt>
      <trkpt lat="45.51521" lon="7.26933">
        <ele>3940.9</ele>
        <time>2021-11-07T15:36:17Z</time>
      </trkpt>
      <trkpt lat="45.51522" lon="7.26933">
        <ele>3940.8</ele>
        <time>2021-11-07T15:36:30Z</time>
      </trkpt>
      <trkpt lat="45.51521" lon="7.26932">
        <ele>3940.7</ele>
        <time>2021-11-07T15:36:42Z</time>
      </trkpt>
      <trkpt lat="45.51521" lon="7.26932">
        <ele>3940.7</ele>
        <time>2021-11-07T15:36:43Z</time>
      </trkpt>
      <trkpt lat="45.51522" lon="7.26932">
        <ele>3940.5</ele>
        <time>2021-11-07T15:36:54Z</time>
      </trkpt>
      <trkpt lat="45.51523" lon="7.26932">
        <ele>3940.4</ele>
        <time>2021-11-07T15:37:07Z</time>
      </trkpt>
      <trkpt lat="45.51522" lon="7.26932">
        <ele>3940.3</ele>
        <time>2021-11-07T15:37:10Z</time>
      </trkpt>
      <trkpt lat="45.51518" lon="7.26935">
        <ele>3939.6</ele>
        <time>2021-11-07T15:37:19Z</time>
      </trkpt>
      <trkpt lat="45.51519" lon="7.26935">
        <ele>3939.5</ele>
        <time>2021-11-07T15:37:31Z</time>
      </trkpt>
      <trkpt lat="45.51519" lon="7.26935">
        <ele>3939.4</ele>
        <time>2021-11-07T15:37:37Z</time>
      </trkpt>
      <trkpt lat="45.51519" lon="7.26935">
        <ele>3939.4</ele>
        <time>2021-11-07T15:37:40Z</time>
      </trkpt>
      <trkpt lat="45.51518" lon="7.26935">
        <ele>3939.4</ele>
        <time>2021-11-07T15:37:45Z</time>
      </trkpt>
      <trkpt lat="45.51518" lon="7.26935">
        <ele>3939.3</ele>
        <time>2021-11-07T15:37:55Z</time>
      </trkpt>
      <trkpt lat="45.51518" lon="7.26935">
        <ele>3939.3</ele>
        <time>2021-11-07T15:37:56Z</time>
      </trkpt>
      <trkpt lat="45.51518" lon="7.26935">
        <ele>3939.3</ele>
        <time>2021-11-07T15:37:57Z</time>
      </trkpt>
      <trkpt lat="45.51518" lon="7.26935">
        <ele>3939.3</ele>
        <time>2021-11-07T15:37:58Z</time>
      </trkpt>
      <trkpt lat="45.51518" lon="7.26935">
        <ele>3939.3</ele>
        <time>2021-11-07T15:38:00Z</time>
      </trkpt>
      <trkpt lat="45.51518" lon="7.26935">
        <ele>3939.3</ele>
        <time>2021-11-07T15:38:06Z</time>
      </trkpt>
      <trkpt lat="45.51518" lon="7.26935">
        <ele>3939.3</ele>
        <time>2021-11-07T15:38:07Z</time>
      </trkpt>
      <trkpt lat="45.51518" lon="7.26936">
        <ele>3939.3</ele>
        <time>2021-11-07T15:38:10Z</time>
      </trkpt>
      <trkpt lat="45.51518" lon="7.26936">
        <ele>3939.3</ele>
        <time>2021-11-07T15:38:12Z</time>
      </trkpt>
      <trkpt lat="45.51518" lon="7.26936">
        <ele>3939.2</ele>
        <time>2021-11-07T15:38:15Z</time>
      </trkpt>
      <trkpt lat="45.51518" lon="7.26936">
        <ele>3939.2</ele>
        <time>2021-11-07T15:38:16Z</time>
      </trkpt>
      <trkpt lat="45.51517" lon="7.26936">
        <ele>3939.1</ele>
        <time>2021-11-07T15:38:24Z</time>
      </trkpt>
      <trkpt lat="45.51517" lon="7.26936">
        <ele>3939</ele>
        <time>2021-11-07T15:38:26Z</time>
      </trkpt>
      <trkpt lat="45.51515" lon="7.26936">
        <ele>3938.7</ele>
        <time>2021-11-07T15:38:31Z</time>
      </trkpt>
      <trkpt lat="45.51513" lon="7.26936">
        <ele>3938.5</ele>
        <time>2021-11-07T15:38:44Z</time>
      </trkpt>
      <trkpt lat="45.51513" lon="7.26935">
        <ele>3938.5</ele>
        <time>2021-11-07T15:38:45Z</time>
      </trkpt>
      <trkpt lat="45.51512" lon="7.26936">
        <ele>3938.3</ele>
        <time>2021-11-07T15:38:56Z</time>
      </trkpt>
      <trkpt lat="45.51512" lon="7.26936">
        <ele>3938.3</ele>
        <time>2021-11-07T15:38:57Z</time>
      </trkpt>
      <trkpt lat="45.51512" lon="7.26936">
        <ele>3938.3</ele>
        <time>2021-11-07T15:39:00Z</time>
      </trkpt>
      <trkpt lat="45.51512" lon="7.26935">
        <ele>3938.2</ele>
        <time>2021-11-07T15:39:10Z</time>
      </trkpt>
      <trkpt lat="45.51512" lon="7.26935">
        <ele>3938.2</ele>
        <time>2021-11-07T15:39:11Z</time>
      </trkpt>
      <trkpt lat="45.51512" lon="7.26935">
        <ele>3938.2</ele>
        <time>2021-11-07T15:39:15Z</time>
      </trkpt>
      <trkpt lat="45.51512" lon="7.26935">
        <ele>3938.2</ele>
        <time>2021-11-07T15:39:19Z</time>
      </trkpt>
      <trkpt lat="45.51512" lon="7.26935">
        <ele>3938.2</ele>
        <time>2021-11-07T15:39:21Z</time>
      </trkpt>
      <trkpt lat="45.51511" lon="7.26934">
        <ele>3938</ele>
        <time>2021-11-07T15:39:25Z</time>
      </trkpt>
      <trkpt lat="45.51509" lon="7.26933">
        <ele>3937.7</ele>
        <time>2021-11-07T15:39:28Z</time>
      </trkpt>
      <trkpt lat="45.51508" lon="7.26932">
        <ele>3937.5</ele>
        <time>2021-11-07T15:39:31Z</time>
      </trkpt>
      <trkpt lat="45.51507" lon="7.26931">
        <ele>3937.4</ele>
        <time>2021-11-07T15:39:32Z</time>
      </trkpt>
      <trkpt lat="45.51507" lon="7.26931">
        <ele>3937.3</ele>
        <time>2021-11-07T15:39:33Z</time>
      </trkpt>
      <trkpt lat="45.51506" lon="7.2693">
        <ele>3937.2</ele>
        <time>2021-11-07T15:39:34Z</time>
      </trkpt>
      <trkpt lat="45.51505" lon="7.26929">
        <ele>3937</ele>
        <time>2021-11-07T15:39:35Z</time>
      </trkpt>
      <trkpt lat="45.51504" lon="7.26929">
        <ele>3936.8</ele>
        <time>2021-11-07T15:39:36Z</time>
      </trkpt>
      <trkpt lat="45.51502" lon="7.26926">
        <ele>3936.3</ele>
        <time>2021-11-07T15:39:38Z</time>
      </trkpt>
      <trkpt lat="45.51502" lon="7.26925">
        <ele>3936.3</ele>
        <time>2021-11-07T15:39:39Z</time>
      </trkpt>
      <trkpt lat="45.51503" lon="7.26925">
        <ele>3936.1</ele>
        <time>2021-11-07T15:39:43Z</time>
      </trkpt>
      <trkpt lat="45.51503" lon="7.26925">
        <ele>3936</ele>
        <time>2021-11-07T15:39:49Z</time>
      </trkpt>
      <trkpt lat="45.51504" lon="7.26925">
        <ele>3935.9</ele>
        <time>2021-11-07T15:39:52Z</time>
      </trkpt>
      <trkpt lat="45.51504" lon="7.26926">
        <ele>3935.8</ele>
        <time>2021-11-07T15:40:01Z</time>
      </trkpt>
      <trkpt lat="45.51504" lon="7.26926">
        <ele>3935.8</ele>
        <time>2021-11-07T15:40:04Z</time>
      </trkpt>
      <trkpt lat="45.51504" lon="7.26925">
        <ele>3935.8</ele>
        <time>2021-11-07T15:40:10Z</time>
      </trkpt>
      <trkpt lat="45.51504" lon="7.26925">
        <ele>3935.8</ele>
        <time>2021-11-07T15:40:12Z</time>
      </trkpt>
      <trkpt lat="45.51504" lon="7.26925">
        <ele>3935.7</ele>
        <time>2021-11-07T15:40:16Z</time>
      </trkpt>
      <trkpt lat="45.51503" lon="7.26926">
        <ele>3935.6</ele>
        <time>2021-11-07T15:40:21Z</time>
      </trkpt>
      <trkpt lat="45.51503" lon="7.26926">
        <ele>3935.5</ele>
        <time>2021-11-07T15:40:24Z</time>
      </trkpt>
      <trkpt lat="45.51501" lon="7.26928">
        <ele>3935.1</ele>
        <time>2021-11-07T15:40:30Z</time>
      </trkpt>
      <trkpt lat="45.51495" lon="7.26935">
        <ele>3934</ele>
        <time>2021-11-07T15:40:38Z</time>
      </trkpt>
      <trkpt lat="45.51492" lon="7.26939">
        <ele>3933.4</ele>
        <time>2021-11-07T15:40:41Z</time>
      </trkpt>
      <trkpt lat="45.51489" lon="7.26942">
        <ele>3932.9</ele>
        <time>2021-11-07T15:40:44Z</time>
      </trkpt>
      <trkpt lat="45.51489" lon="7.26941">
        <ele>3932.8</ele>
        <time>2021-11-07T15:40:48Z</time>
      </trkpt>
      <trkpt lat="45.5149" lon="7.2694">
        <ele>3932.7</ele>
        <time>2021-11-07T15:40:56Z</time>
      </trkpt>
      <trkpt lat="45.5149" lon="7.26939">
        <ele>3932.6</ele>
        <time>2021-11-07T15:40:57Z</time>
      </trkpt>
      <trkpt lat="45.51495" lon="7.26931">
        <ele>3931.4</ele>
        <time>2021-11-07T15:41:03Z</time>
      </trkpt>
      <trkpt lat="45.51495" lon="7.26929">
        <ele>3931.2</ele>
        <time>2021-11-07T15:41:09Z</time>
      </trkpt>
      <trkpt lat="45.51495" lon="7.26929">
        <ele>3931.2</ele>
        <time>2021-11-07T15:41:10Z</time>
      </trkpt>
      <trkpt lat="45.51495" lon="7.26929">
        <ele>3931.2</ele>
        <time>2021-11-07T15:41:11Z</time>
      </trkpt>
      <trkpt lat="45.51496" lon="7.26929">
        <ele>3931.1</ele>
        <time>2021-11-07T15:41:17Z</time>
      </trkpt>
      <trkpt lat="45.51496" lon="7.26929">
        <ele>3931.1</ele>
        <time>2021-11-07T15:41:22Z</time>
      </trkpt>
      <trkpt lat="45.51496" lon="7.26929">
        <ele>3931.1</ele>
        <time>2021-11-07T15:41:24Z</time>
      </trkpt>
      <trkpt lat="45.51496" lon="7.26929">
        <ele>3931</ele>
        <time>2021-11-07T15:41:30Z</time>
      </trkpt>
      <trkpt lat="45.51495" lon="7.26929">
        <ele>3931</ele>
        <time>2021-11-07T15:41:31Z</time>
      </trkpt>
      <trkpt lat="45.51496" lon="7.26929">
        <ele>3930.9</ele>
        <time>2021-11-07T15:41:39Z</time>
      </trkpt>
      <trkpt lat="45.51495" lon="7.26926">
        <ele>3930.5</ele>
        <time>2021-11-07T15:41:48Z</time>
      </trkpt>
      <trkpt lat="45.51495" lon="7.26927">
        <ele>3930.5</ele>
        <time>2021-11-07T15:41:53Z</time>
      </trkpt>
      <trkpt lat="45.51495" lon="7.26927">
        <ele>3930.5</ele>
        <time>2021-11-07T15:41:54Z</time>
      </trkpt>
      <trkpt lat="45.51495" lon="7.26928">
        <ele>3930.4</ele>
        <time>2021-11-07T15:41:55Z</time>
      </trkpt>
      <trkpt lat="45.51495" lon="7.26928">
        <ele>3930.3</ele>
        <time>2021-11-07T15:41:57Z</time>
      </trkpt>
      <trkpt lat="45.51495" lon="7.26928">
        <ele>3930.3</ele>
        <time>2021-11-07T15:41:58Z</time>
      </trkpt>
      <trkpt lat="45.51495" lon="7.26927">
        <ele>3930.3</ele>
        <time>2021-11-07T15:42:00Z</time>
      </trkpt>
      <trkpt lat="45.51496" lon="7.26925">
        <ele>3930</ele>
        <time>2021-11-07T15:42:03Z</time>
      </trkpt>
      <trkpt lat="45.51496" lon="7.26925">
        <ele>3929.9</ele>
        <time>2021-11-07T15:42:04Z</time>
      </trkpt>
      <trkpt lat="45.51496" lon="7.26925">
        <ele>3929.9</ele>
        <time>2021-11-07T15:42:06Z</time>
      </trkpt>
      <trkpt lat="45.51497" lon="7.26925">
        <ele>3929.8</ele>
        <time>2021-11-07T15:42:11Z</time>
      </trkpt>
      <trkpt lat="45.51497" lon="7.26925">
        <ele>3929.8</ele>
        <time>2021-11-07T15:42:12Z</time>
      </trkpt>
      <trkpt lat="45.51496" lon="7.26925">
        <ele>3929.8</ele>
        <time>2021-11-07T15:42:13Z</time>
      </trkpt>
      <trkpt lat="45.51497" lon="7.26926">
        <ele>3929.7</ele>
        <time>2021-11-07T15:42:22Z</time>
      </trkpt>
      <trkpt lat="45.51497" lon="7.26926">
        <ele>3929.7</ele>
        <time>2021-11-07T15:42:23Z</time>
      </trkpt>
      <trkpt lat="45.51497" lon="7.26926">
        <ele>3929.6</ele>
        <time>2021-11-07T15:42:26Z</time>
      </trkpt>
      <trkpt lat="45.51497" lon="7.26926">
        <ele>3929.6</ele>
        <time>2021-11-07T15:42:28Z</time>
      </trkpt>
      <trkpt lat="45.51497" lon="7.26925">
        <ele>3929.5</ele>
        <time>2021-11-07T15:42:33Z</time>
      </trkpt>
      <trkpt lat="45.51497" lon="7.26925">
        <ele>3929.4</ele>
        <time>2021-11-07T15:42:41Z</time>
      </trkpt>
      <trkpt lat="45.51497" lon="7.26925">
        <ele>3929.4</ele>
        <time>2021-11-07T15:42:43Z</time>
      </trkpt>
      <trkpt lat="45.51497" lon="7.26926">
        <ele>3929.4</ele>
        <time>2021-11-07T15:42:47Z</time>
      </trkpt>
      <trkpt lat="45.51497" lon="7.26926">
        <ele>3929.3</ele>
        <time>2021-11-07T15:42:50Z</time>
      </trkpt>
      <trkpt lat="45.51497" lon="7.26927">
        <ele>3929.2</ele>
        <time>2021-11-07T15:42:57Z</time>
      </trkpt>
      <trkpt lat="45.51497" lon="7.26928">
        <ele>3929.2</ele>
        <time>2021-11-07T15:43:00Z</time>
      </trkpt>
      <trkpt lat="45.51496" lon="7.26928">
        <ele>3929</ele>
        <time>2021-11-07T15:43:07Z</time>
      </trkpt>
      <trkpt lat="45.51495" lon="7.26928">
        <ele>3928.9</ele>
        <time>2021-11-07T15:43:15Z</time>
      </trkpt>
      <trkpt lat="45.51495" lon="7.26927">
        <ele>3928.9</ele>
        <time>2021-11-07T15:43:17Z</time>
      </trkpt>
      <trkpt lat="45.51495" lon="7.26927">
        <ele>3928.9</ele>
        <time>2021-11-07T15:43:20Z</time>
      </trkpt>
      <trkpt lat="45.51496" lon="7.26927">
        <ele>3928.8</ele>
        <time>2021-11-07T15:43:22Z</time>
      </trkpt>
      <trkpt lat="45.51495" lon="7.26927">
        <ele>3928.8</ele>
        <time>2021-11-07T15:43:25Z</time>
      </trkpt>
      <trkpt lat="45.51496" lon="7.26927">
        <ele>3928.8</ele>
        <time>2021-11-07T15:43:29Z</time>
      </trkpt>
      <trkpt lat="45.51496" lon="7.26927">
        <ele>3928.7</ele>
        <time>2021-11-07T15:43:31Z</time>
      </trkpt>
      <trkpt lat="45.51496" lon="7.26927">
        <ele>3928.6</ele>
        <time>2021-11-07T15:43:41Z</time>
      </trkpt>
      <trkpt lat="45.51496" lon="7.26927">
        <ele>3928.6</ele>
        <time>2021-11-07T15:43:43Z</time>
      </trkpt>
      <trkpt lat="45.51496" lon="7.26926">
        <ele>3928.5</ele>
        <time>2021-11-07T15:43:44Z</time>
      </trkpt>
      <trkpt lat="45.51496" lon="7.26926">
        <ele>3928.5</ele>
        <time>2021-11-07T15:43:45Z</time>
      </trkpt>
      <trkpt lat="45.51496" lon="7.26926">
        <ele>3928.5</ele>
        <time>2021-11-07T15:43:46Z</time>
      </trkpt>
      <trkpt lat="45.51496" lon="7.26926">
        <ele>3928.5</ele>
        <time>2021-11-07T15:43:47Z</time>
      </trkpt>
      <trkpt lat="45.51496" lon="7.26926">
        <ele>3928.5</ele>
        <time>2021-11-07T15:43:48Z</time>
      </trkpt>
      <trkpt lat="45.51496" lon="7.26926">
        <ele>3928.5</ele>
        <time>2021-11-07T15:43:49Z</time>
      </trkpt>
      <trkpt lat="45.51496" lon="7.26926">
        <ele>3928.5</ele>
        <time>2021-11-07T15:43:50Z</time>
      </trkpt>
      <trkpt lat="45.51497" lon="7.26926">
        <ele>3928.5</ele>
        <time>2021-11-07T15:43:51Z</time>
      </trkpt>
      <trkpt lat="45.51496" lon="7.26926">
        <ele>3928.4</ele>
        <time>2021-11-07T15:43:58Z</time>
      </trkpt>
      <trkpt lat="45.51496" lon="7.26926">
        <ele>3928.4</ele>
        <time>2021-11-07T15:44:00Z</time>
      </trkpt>
      <trkpt lat="45.51496" lon="7.26926">
        <ele>3928.3</ele>
        <time>2021-11-07T15:44:03Z</time>
      </trkpt>
      <trkpt lat="45.51496" lon="7.26926">
        <ele>3928.3</ele>
        <time>2021-11-07T15:44:07Z</time>
      </trkpt>
      <trkpt lat="45.51496" lon="7.26927">
        <ele>3928.2</ele>
        <time>2021-11-07T15:44:11Z</time>
      </trkpt>
      <trkpt lat="45.51495" lon="7.26927">
        <ele>3928.1</ele>
        <time>2021-11-07T15:44:16Z</time>
      </trkpt>
      <trkpt lat="45.51495" lon="7.26928">
        <ele>3928</ele>
        <time>2021-11-07T15:44:24Z</time>
      </trkpt>
      <trkpt lat="45.51495" lon="7.26929">
        <ele>3927.9</ele>
        <time>2021-11-07T15:44:32Z</time>
      </trkpt>
      <trkpt lat="45.51493" lon="7.26931">
        <ele>3927.7</ele>
        <time>2021-11-07T15:44:37Z</time>
      </trkpt>
      <trkpt lat="45.51493" lon="7.26932">
        <ele>3927.5</ele>
        <time>2021-11-07T15:44:40Z</time>
      </trkpt>
      <trkpt lat="45.51492" lon="7.26932">
        <ele>3927.4</ele>
        <time>2021-11-07T15:44:43Z</time>
      </trkpt>
      <trkpt lat="45.51492" lon="7.26932">
        <ele>3927.3</ele>
        <time>2021-11-07T15:44:44Z</time>
      </trkpt>
      <trkpt lat="45.51493" lon="7.26932">
        <ele>3927.2</ele>
        <time>2021-11-07T15:44:46Z</time>
      </trkpt>
      <trkpt lat="45.51493" lon="7.26931">
        <ele>3927.2</ele>
        <time>2021-11-07T15:44:47Z</time>
      </trkpt>
      <trkpt lat="45.51494" lon="7.26931">
        <ele>3927.1</ele>
        <time>2021-11-07T15:44:48Z</time>
      </trkpt>
      <trkpt lat="45.51498" lon="7.26926">
        <ele>3926.3</ele>
        <time>2021-11-07T15:45:02Z</time>
      </trkpt>
      <trkpt lat="45.51498" lon="7.26925">
        <ele>3926.2</ele>
        <time>2021-11-07T15:45:04Z</time>
      </trkpt>
      <trkpt lat="45.51498" lon="7.26927">
        <ele>3926</ele>
        <time>2021-11-07T15:45:17Z</time>
      </trkpt>
      <trkpt lat="45.51502" lon="7.26924">
        <ele>3925.4</ele>
        <time>2021-11-07T15:45:29Z</time>
      </trkpt>
      <trkpt lat="45.51503" lon="7.26923">
        <ele>3925.1</ele>
        <time>2021-11-07T15:45:34Z</time>
      </trkpt>
      <trkpt lat="45.51504" lon="7.26922">
        <ele>3925</ele>
        <time>2021-11-07T15:45:38Z</time>
      </trkpt>
      <trkpt lat="45.51504" lon="7.26921">
        <ele>3924.9</ele>
        <time>2021-11-07T15:45:47Z</time>
      </trkpt>
      <trkpt lat="45.51503" lon="7.26921">
        <ele>3924.7</ele>
        <time>2021-11-07T15:45:49Z</time>
      </trkpt>
      <trkpt lat="45.51502" lon="7.2692">
        <ele>3924.6</ele>
        <time>2021-11-07T15:45:53Z</time>
      </trkpt>
      <trkpt lat="45.51501" lon="7.2692">
        <ele>3924.3</ele>
        <time>2021-11-07T15:45:58Z</time>
      </trkpt>
      <trkpt lat="45.51501" lon="7.26919">
        <ele>3924.2</ele>
        <time>2021-11-07T15:46:01Z</time>
      </trkpt>
      <trkpt lat="45.51501" lon="7.26919">
        <ele>3924.2</ele>
        <time>2021-11-07T15:46:09Z</time>
      </trkpt>
      <trkpt lat="45.51501" lon="7.2692">
        <ele>3924</ele>
        <time>2021-11-07T15:46:14Z</time>
      </trkpt>
      <trkpt lat="45.51501" lon="7.2692">
        <ele>3924</ele>
        <time>2021-11-07T15:46:17Z</time>
      </trkpt>
      <trkpt lat="45.51501" lon="7.2692">
        <ele>3924</ele>
        <time>2021-11-07T15:46:18Z</time>
      </trkpt>
      <trkpt lat="45.51501" lon="7.2692">
        <ele>3924</ele>
        <time>2021-11-07T15:46:20Z</time>
      </trkpt>
      <trkpt lat="45.51501" lon="7.2692">
        <ele>3923.9</ele>
        <time>2021-11-07T15:46:22Z</time>
      </trkpt>
      <trkpt lat="45.51501" lon="7.2692">
        <ele>3923.9</ele>
        <time>2021-11-07T15:46:27Z</time>
      </trkpt>
      <trkpt lat="45.51501" lon="7.2692">
        <ele>3923.9</ele>
        <time>2021-11-07T15:46:37Z</time>
      </trkpt>
      <trkpt lat="45.51501" lon="7.2692">
        <ele>3923.9</ele>
        <time>2021-11-07T15:46:47Z</time>
      </trkpt>
      <trkpt lat="45.51502" lon="7.2692">
        <ele>3923.7</ele>
        <time>2021-11-07T15:46:54Z</time>
      </trkpt>
      <trkpt lat="45.51502" lon="7.26921">
        <ele>3923.6</ele>
        <time>2021-11-07T15:46:58Z</time>
      </trkpt>
      <trkpt lat="45.51502" lon="7.26923">
        <ele>3923.4</ele>
        <time>2021-11-07T15:47:03Z</time>
      </trkpt>
      <trkpt lat="45.51495" lon="7.26916">
        <ele>3922</ele>
        <time>2021-11-07T15:47:09Z</time>
      </trkpt>
      <trkpt lat="45.51485" lon="7.26906">
        <ele>3920.2</ele>
        <time>2021-11-07T15:47:14Z</time>
      </trkpt>
      <trkpt lat="45.51483" lon="7.26904">
        <ele>3919.9</ele>
        <time>2021-11-07T15:47:15Z</time>
      </trkpt>
      <trkpt lat="45.51482" lon="7.26903">
        <ele>3919.6</ele>
        <time>2021-11-07T15:47:16Z</time>
      </trkpt>
      <trkpt lat="45.5148" lon="7.26901">
        <ele>3919.3</ele>
        <time>2021-11-07T15:47:17Z</time>
      </trkpt>
      <trkpt lat="45.51479" lon="7.26898">
        <ele>3919</ele>
        <time>2021-11-07T15:47:18Z</time>
      </trkpt>
      <trkpt lat="45.51477" lon="7.26895">
        <ele>3918.6</ele>
        <time>2021-11-07T15:47:19Z</time>
      </trkpt>
      <trkpt lat="45.51475" lon="7.26893">
        <ele>3918.1</ele>
        <time>2021-11-07T15:47:20Z</time>
      </trkpt>
      <trkpt lat="45.51472" lon="7.2689">
        <ele>3917.6</ele>
        <time>2021-11-07T15:47:22Z</time>
      </trkpt>
      <trkpt lat="45.51471" lon="7.26889">
        <ele>3917.4</ele>
        <time>2021-11-07T15:47:24Z</time>
      </trkpt>
      <trkpt lat="45.51471" lon="7.26889">
        <ele>3917.4</ele>
        <time>2021-11-07T15:47:27Z</time>
      </trkpt>
      <trkpt lat="45.51472" lon="7.26889">
        <ele>3917.3</ele>
        <time>2021-11-07T15:47:32Z</time>
      </trkpt>
      <trkpt lat="45.51473" lon="7.26889">
        <ele>3917.2</ele>
        <time>2021-11-07T15:47:38Z</time>
      </trkpt>
      <trkpt lat="45.51473" lon="7.26889">
        <ele>3917.2</ele>
        <time>2021-11-07T15:47:42Z</time>
      </trkpt>
      <trkpt lat="45.51473" lon="7.26889">
        <ele>3917.2</ele>
        <time>2021-11-07T15:47:43Z</time>
      </trkpt>
      <trkpt lat="45.51474" lon="7.2689">
        <ele>3917</ele>
        <time>2021-11-07T15:47:55Z</time>
      </trkpt>
      <trkpt lat="45.51474" lon="7.2689">
        <ele>3916.9</ele>
        <time>2021-11-07T15:47:58Z</time>
      </trkpt>
      <trkpt lat="45.51474" lon="7.2689">
        <ele>3916.9</ele>
        <time>2021-11-07T15:48:02Z</time>
      </trkpt>
      <trkpt lat="45.51475" lon="7.26891">
        <ele>3916.8</ele>
        <time>2021-11-07T15:48:11Z</time>
      </trkpt>
      <trkpt lat="45.51475" lon="7.26891">
        <ele>3916.7</ele>
        <time>2021-11-07T15:48:12Z</time>
      </trkpt>
      <trkpt lat="45.51476" lon="7.26891">
        <ele>3916.6</ele>
        <time>2021-11-07T15:48:17Z</time>
      </trkpt>
      <trkpt lat="45.51476" lon="7.26892">
        <ele>3916.5</ele>
        <time>2021-11-07T15:48:28Z</time>
      </trkpt>
      <trkpt lat="45.51476" lon="7.26892">
        <ele>3916.4</ele>
        <time>2021-11-07T15:48:30Z</time>
      </trkpt>
      <trkpt lat="45.51476" lon="7.26894">
        <ele>3916.2</ele>
        <time>2021-11-07T15:48:39Z</time>
      </trkpt>
      <trkpt lat="45.51476" lon="7.26894">
        <ele>3916.2</ele>
        <time>2021-11-07T15:48:41Z</time>
      </trkpt>
      <trkpt lat="45.51477" lon="7.26893">
        <ele>3916.1</ele>
        <time>2021-11-07T15:48:54Z</time>
      </trkpt>
      <trkpt lat="45.51476" lon="7.26892">
        <ele>3916</ele>
        <time>2021-11-07T15:49:04Z</time>
      </trkpt>
      <trkpt lat="45.51476" lon="7.26892">
        <ele>3916</ele>
        <time>2021-11-07T15:49:05Z</time>
      </trkpt>
      <trkpt lat="45.51477" lon="7.26892">
        <ele>3916</ele>
        <time>2021-11-07T15:49:08Z</time>
      </trkpt>
      <trkpt lat="45.51476" lon="7.26894">
        <ele>3915.8</ele>
        <time>2021-11-07T15:49:15Z</time>
      </trkpt>
      <trkpt lat="45.51476" lon="7.26894">
        <ele>3915.7</ele>
        <time>2021-11-07T15:49:21Z</time>
      </trkpt>
      <trkpt lat="45.51475" lon="7.26894">
        <ele>3915.7</ele>
        <time>2021-11-07T15:49:22Z</time>
      </trkpt>
      <trkpt lat="45.51475" lon="7.26893">
        <ele>3915.7</ele>
        <time>2021-11-07T15:49:25Z</time>
      </trkpt>
      <trkpt lat="45.51475" lon="7.26892">
        <ele>3915.4</ele>
        <time>2021-11-07T15:49:34Z</time>
      </trkpt>
      <trkpt lat="45.51474" lon="7.26891">
        <ele>3915.4</ele>
        <time>2021-11-07T15:49:38Z</time>
      </trkpt>
      <trkpt lat="45.51474" lon="7.26891">
        <ele>3915.3</ele>
        <time>2021-11-07T15:49:40Z</time>
      </trkpt>
      <trkpt lat="45.51474" lon="7.26891">
        <ele>3915.3</ele>
        <time>2021-11-07T15:49:41Z</time>
      </trkpt>
      <trkpt lat="45.51474" lon="7.26891">
        <ele>3915.2</ele>
        <time>2021-11-07T15:49:47Z</time>
      </trkpt>
      <trkpt lat="45.51474" lon="7.26891">
        <ele>3915.2</ele>
        <time>2021-11-07T15:49:50Z</time>
      </trkpt>
      <trkpt lat="45.51474" lon="7.26891">
        <ele>3915.1</ele>
        <time>2021-11-07T15:49:51Z</time>
      </trkpt>
      <trkpt lat="45.51475" lon="7.26891">
        <ele>3915.1</ele>
        <time>2021-11-07T15:50:00Z</time>
      </trkpt>
      <trkpt lat="45.51475" lon="7.2689">
        <ele>3915</ele>
        <time>2021-11-07T15:50:04Z</time>
      </trkpt>
      <trkpt lat="45.51475" lon="7.2689">
        <ele>3914.9</ele>
        <time>2021-11-07T15:50:05Z</time>
      </trkpt>
      <trkpt lat="45.51475" lon="7.2689">
        <ele>3914.9</ele>
        <time>2021-11-07T15:50:15Z</time>
      </trkpt>
      <trkpt lat="45.51475" lon="7.2689">
        <ele>3914.9</ele>
        <time>2021-11-07T15:50:18Z</time>
      </trkpt>
      <trkpt lat="45.51475" lon="7.2689">
        <ele>3914.9</ele>
        <time>2021-11-07T15:50:20Z</time>
      </trkpt>
      <trkpt lat="45.51475" lon="7.26889">
        <ele>3914.7</ele>
        <time>2021-11-07T15:50:34Z</time>
      </trkpt>
      <trkpt lat="45.51476" lon="7.26889">
        <ele>3914.6</ele>
        <time>2021-11-07T15:50:37Z</time>
      </trkpt>
      <trkpt lat="45.51476" lon="7.26889">
        <ele>3914.6</ele>
        <time>2021-11-07T15:50:40Z</time>
      </trkpt>
      <trkpt lat="45.51476" lon="7.2689">
        <ele>3914.5</ele>
        <time>2021-11-07T15:50:43Z</time>
      </trkpt>
      <trkpt lat="45.51476" lon="7.2689">
        <ele>3914.5</ele>
        <time>2021-11-07T15:50:45Z</time>
      </trkpt>
      <trkpt lat="45.51476" lon="7.2689">
        <ele>3914.5</ele>
        <time>2021-11-07T15:50:47Z</time>
      </trkpt>
      <trkpt lat="45.51477" lon="7.26891">
        <ele>3914.3</ele>
        <time>2021-11-07T15:50:55Z</time>
      </trkpt>
      <trkpt lat="45.51476" lon="7.26891">
        <ele>3914.3</ele>
        <time>2021-11-07T15:50:56Z</time>
      </trkpt>
      <trkpt lat="45.51477" lon="7.26893">
        <ele>3914.1</ele>
        <time>2021-11-07T15:51:00Z</time>
      </trkpt>
      <trkpt lat="45.51477" lon="7.26893">
        <ele>3914.1</ele>
        <time>2021-11-07T15:51:02Z</time>
      </trkpt>
      <trkpt lat="45.51476" lon="7.26893">
        <ele>3913.8</ele>
        <time>2021-11-07T15:51:11Z</time>
      </trkpt>
      <trkpt lat="45.51475" lon="7.26894">
        <ele>3913.7</ele>
        <time>2021-11-07T15:51:19Z</time>
      </trkpt>
      <trkpt lat="45.51475" lon="7.26894">
        <ele>3913.7</ele>
        <time>2021-11-07T15:51:20Z</time>
      </trkpt>
      <trkpt lat="45.51475" lon="7.26892">
        <ele>3913.4</ele>
        <time>2021-11-07T15:51:26Z</time>
      </trkpt>
      <trkpt lat="45.51475" lon="7.26892">
        <ele>3913.4</ele>
        <time>2021-11-07T15:51:31Z</time>
      </trkpt>
      <trkpt lat="45.51476" lon="7.26893">
        <ele>3913.2</ele>
        <time>2021-11-07T15:51:41Z</time>
      </trkpt>
      <trkpt lat="45.51476" lon="7.26893">
        <ele>3913.1</ele>
        <time>2021-11-07T15:51:56Z</time>
      </trkpt>
      <trkpt lat="45.51474" lon="7.26895">
        <ele>3912.7</ele>
        <time>2021-11-07T15:52:13Z</time>
      </trkpt>
      <trkpt lat="45.51475" lon="7.26895">
        <ele>3912.6</ele>
        <time>2021-11-07T15:52:19Z</time>
      </trkpt>
      <trkpt lat="45.51475" lon="7.26895">
        <ele>3912.6</ele>
        <time>2021-11-07T15:52:22Z</time>
      </trkpt>
      <trkpt lat="45.51475" lon="7.26895">
        <ele>3912.6</ele>
        <time>2021-11-07T15:52:23Z</time>
      </trkpt>
      <trkpt lat="45.51475" lon="7.26895">
        <ele>3912.5</ele>
        <time>2021-11-07T15:52:29Z</time>
      </trkpt>
      <trkpt lat="45.51475" lon="7.26894">
        <ele>3912.5</ele>
        <time>2021-11-07T15:52:33Z</time>
      </trkpt>
      <trkpt lat="45.51475" lon="7.26894">
        <ele>3912.4</ele>
        <time>2021-11-07T15:52:34Z</time>
      </trkpt>
      <trkpt lat="45.51475" lon="7.26894">
        <ele>3912.4</ele>
        <time>2021-11-07T15:52:35Z</time>
      </trkpt>
      <trkpt lat="45.51475" lon="7.26894">
        <ele>3912.4</ele>
        <time>2021-11-07T15:52:36Z</time>
      </trkpt>
      <trkpt lat="45.51475" lon="7.26893">
        <ele>3912.3</ele>
        <time>2021-11-07T15:52:37Z</time>
      </trkpt>
      <trkpt lat="45.51474" lon="7.26891">
        <ele>3912.1</ele>
        <time>2021-11-07T15:52:39Z</time>
      </trkpt>
      <trkpt lat="45.51474" lon="7.26889">
        <ele>3911.8</ele>
        <time>2021-11-07T15:52:40Z</time>
      </trkpt>
      <trkpt lat="45.51472" lon="7.26883">
        <ele>3911.1</ele>
        <time>2021-11-07T15:52:42Z</time>
      </trkpt>
      <trkpt lat="45.5147" lon="7.2688">
        <ele>3910.7</ele>
        <time>2021-11-07T15:52:43Z</time>
      </trkpt>
      <trkpt lat="45.51464" lon="7.26876">
        <ele>3909.7</ele>
        <time>2021-11-07T15:52:45Z</time>
      </trkpt>
      <trkpt lat="45.51462" lon="7.26873">
        <ele>3909.2</ele>
        <time>2021-11-07T15:52:46Z</time>
      </trkpt>
      <trkpt lat="45.5146" lon="7.26869">
        <ele>3908.7</ele>
        <time>2021-11-07T15:52:47Z</time>
      </trkpt>
      <trkpt lat="45.51454" lon="7.26863">
        <ele>3907.7</ele>
        <time>2021-11-07T15:52:49Z</time>
      </trkpt>
      <trkpt lat="45.51452" lon="7.26859">
        <ele>3907.2</ele>
        <time>2021-11-07T15:52:50Z</time>
      </trkpt>
      <trkpt lat="45.51449" lon="7.26857">
        <ele>3906.5</ele>
        <time>2021-11-07T15:52:51Z</time>
      </trkpt>
      <trkpt lat="45.51445" lon="7.26855">
        <ele>3906</ele>
        <time>2021-11-07T15:52:52Z</time>
      </trkpt>
      <trkpt lat="45.51443" lon="7.26851">
        <ele>3905.5</ele>
        <time>2021-11-07T15:52:53Z</time>
      </trkpt>
      <trkpt lat="45.51442" lon="7.26848">
        <ele>3905</ele>
        <time>2021-11-07T15:52:54Z</time>
      </trkpt>
      <trkpt lat="45.51438" lon="7.26844">
        <ele>3904.4</ele>
        <time>2021-11-07T15:52:55Z</time>
      </trkpt>
      <trkpt lat="45.51435" lon="7.26841">
        <ele>3903.8</ele>
        <time>2021-11-07T15:52:56Z</time>
      </trkpt>
      <trkpt lat="45.51433" lon="7.26836">
        <ele>3903.1</ele>
        <time>2021-11-07T15:52:57Z</time>
      </trkpt>
      <trkpt lat="45.5143" lon="7.26832">
        <ele>3902.6</ele>
        <time>2021-11-07T15:52:58Z</time>
      </trkpt>
      <trkpt lat="45.51426" lon="7.2683">
        <ele>3901.9</ele>
        <time>2021-11-07T15:52:59Z</time>
      </trkpt>
      <trkpt lat="45.51422" lon="7.26828">
        <ele>3901.2</ele>
        <time>2021-11-07T15:53:00Z</time>
      </trkpt>
      <trkpt lat="45.51418" lon="7.26826">
        <ele>3900.5</ele>
        <time>2021-11-07T15:53:01Z</time>
      </trkpt>
      <trkpt lat="45.51414" lon="7.26825">
        <ele>3899.9</ele>
        <time>2021-11-07T15:53:02Z</time>
      </trkpt>
      <trkpt lat="45.51411" lon="7.26826">
        <ele>3899.4</ele>
        <time>2021-11-07T15:53:03Z</time>
      </trkpt>
      <trkpt lat="45.51409" lon="7.26828">
        <ele>3899.2</ele>
        <time>2021-11-07T15:53:04Z</time>
      </trkpt>
      <trkpt lat="45.51409" lon="7.26828">
        <ele>3899.2</ele>
        <time>2021-11-07T15:53:05Z</time>
      </trkpt>
      <trkpt lat="45.5141" lon="7.26828">
        <ele>3899.1</ele>
        <time>2021-11-07T15:53:09Z</time>
      </trkpt>
      <trkpt lat="45.5141" lon="7.26828">
        <ele>3899</ele>
        <time>2021-11-07T15:53:15Z</time>
      </trkpt>
      <trkpt lat="45.5141" lon="7.26828">
        <ele>3899</ele>
        <time>2021-11-07T15:53:16Z</time>
      </trkpt>
      <trkpt lat="45.5141" lon="7.26828">
        <ele>3899</ele>
        <time>2021-11-07T15:53:17Z</time>
      </trkpt>
      <trkpt lat="45.51411" lon="7.26828">
        <ele>3898.9</ele>
        <time>2021-11-07T15:53:26Z</time>
      </trkpt>
      <trkpt lat="45.51411" lon="7.26828">
        <ele>3898.9</ele>
        <time>2021-11-07T15:53:27Z</time>
      </trkpt>
      <trkpt lat="45.51412" lon="7.26828">
        <ele>3898.8</ele>
        <time>2021-11-07T15:53:30Z</time>
      </trkpt>
      <trkpt lat="45.51412" lon="7.26829">
        <ele>3898.7</ele>
        <time>2021-11-07T15:53:35Z</time>
      </trkpt>
      <trkpt lat="45.51413" lon="7.26829">
        <ele>3898.6</ele>
        <time>2021-11-07T15:53:38Z</time>
      </trkpt>
      <trkpt lat="45.51413" lon="7.26831">
        <ele>3898.4</ele>
        <time>2021-11-07T15:53:44Z</time>
      </trkpt>
      <trkpt lat="45.51407" lon="7.26826">
        <ele>3897.4</ele>
        <time>2021-11-07T15:53:48Z</time>
      </trkpt>
      <trkpt lat="45.51403" lon="7.26823">
        <ele>3896.7</ele>
        <time>2021-11-07T15:53:49Z</time>
      </trkpt>
      <trkpt lat="45.51394" lon="7.26818">
        <ele>3895.2</ele>
        <time>2021-11-07T15:53:51Z</time>
      </trkpt>
      <trkpt lat="45.51389" lon="7.26814">
        <ele>3894.4</ele>
        <time>2021-11-07T15:53:52Z</time>
      </trkpt>
      <trkpt lat="45.51385" lon="7.2681">
        <ele>3893.6</ele>
        <time>2021-11-07T15:53:53Z</time>
      </trkpt>
      <trkpt lat="45.51381" lon="7.26805">
        <ele>3892.7</ele>
        <time>2021-11-07T15:53:54Z</time>
      </trkpt>
      <trkpt lat="45.51378" lon="7.26798">
        <ele>3891.9</ele>
        <time>2021-11-07T15:53:55Z</time>
      </trkpt>
      <trkpt lat="45.51372" lon="7.26794">
        <ele>3890.9</ele>
        <time>2021-11-07T15:53:56Z</time>
      </trkpt>
      <trkpt lat="45.51366" lon="7.26794">
        <ele>3890</ele>
        <time>2021-11-07T15:53:57Z</time>
      </trkpt>
      <trkpt lat="45.51361" lon="7.26792">
        <ele>3886.8</ele>
        <time>2021-11-07T15:53:58Z</time>
      </trkpt>
      <trkpt lat="45.51357" lon="7.26789">
        <ele>3885.7</ele>
        <time>2021-11-07T15:53:59Z</time>
      </trkpt>
      <trkpt lat="45.51352" lon="7.26789">
        <ele>3883.1</ele>
        <time>2021-11-07T15:54:00Z</time>
      </trkpt>
      <trkpt lat="45.51347" lon="7.26791">
        <ele>3880.7</ele>
        <time>2021-11-07T15:54:01Z</time>
      </trkpt>
      <trkpt lat="45.51342" lon="7.26789">
        <ele>3879.4</ele>
        <time>2021-11-07T15:54:02Z</time>
      </trkpt>
      <trkpt lat="45.51341" lon="7.26785">
        <ele>3876.6</ele>
        <time>2021-11-07T15:54:03Z</time>
      </trkpt>
      <trkpt lat="45.51342" lon="7.26782">
        <ele>3876.9</ele>
        <time>2021-11-07T15:54:04Z</time>
      </trkpt>
      <trkpt lat="45.51343" lon="7.26779">
        <ele>3875.6</ele>
        <time>2021-11-07T15:54:05Z</time>
      </trkpt>
      <trkpt lat="45.51343" lon="7.26777">
        <ele>3875.7</ele>
        <time>2021-11-07T15:54:06Z</time>
      </trkpt>
      <trkpt lat="45.51344" lon="7.26777">
        <ele>3875.8</ele>
        <time>2021-11-07T15:54:08Z</time>
      </trkpt>
      <trkpt lat="45.51344" lon="7.26776">
        <ele>3874.5</ele>
        <time>2021-11-07T15:54:11Z</time>
      </trkpt>
      <trkpt lat="45.51344" lon="7.26776">
        <ele>3874.7</ele>
        <time>2021-11-07T15:54:17Z</time>
      </trkpt>
      <trkpt lat="45.51344" lon="7.26776">
        <ele>3874.8</ele>
        <time>2021-11-07T15:54:19Z</time>
      </trkpt>
      <trkpt lat="45.51344" lon="7.26775">
        <ele>3874.9</ele>
        <time>2021-11-07T15:54:27Z</time>
      </trkpt>
      <trkpt lat="45.51344" lon="7.26775">
        <ele>3875.1</ele>
        <time>2021-11-07T15:54:30Z</time>
      </trkpt>
      <trkpt lat="45.51344" lon="7.26776">
        <ele>3876.6</ele>
        <time>2021-11-07T15:54:36Z</time>
      </trkpt>
      <trkpt lat="45.51344" lon="7.26776">
        <ele>3876.8</ele>
        <time>2021-11-07T15:54:41Z</time>
      </trkpt>
      <trkpt lat="45.51344" lon="7.26776">
        <ele>3876.9</ele>
        <time>2021-11-07T15:54:42Z</time>
      </trkpt>
      <trkpt lat="45.51344" lon="7.26776">
        <ele>3877</ele>
        <time>2021-11-07T15:54:43Z</time>
      </trkpt>
      <trkpt lat="45.51344" lon="7.26776">
        <ele>3875.7</ele>
        <time>2021-11-07T15:54:49Z</time>
      </trkpt>
      <trkpt lat="45.51345" lon="7.26776">
        <ele>3878.7</ele>
        <time>2021-11-07T15:54:57Z</time>
      </trkpt>
      <trkpt lat="45.51345" lon="7.26776">
        <ele>3878.8</ele>
        <time>2021-11-07T15:54:58Z</time>
      </trkpt>
      <trkpt lat="45.51345" lon="7.26777">
        <ele>3879</ele>
        <time>2021-11-07T15:55:06Z</time>
      </trkpt>
      <trkpt lat="45.51345" lon="7.26777">
        <ele>3879.1</ele>
        <time>2021-11-07T15:55:13Z</time>
      </trkpt>
      <trkpt lat="45.51345" lon="7.26777">
        <ele>3879.2</ele>
        <time>2021-11-07T15:55:16Z</time>
      </trkpt>
      <trkpt lat="45.51346" lon="7.26777">
        <ele>3879.4</ele>
        <time>2021-11-07T15:55:20Z</time>
      </trkpt>
      <trkpt lat="45.51346" lon="7.26776">
        <ele>3879.5</ele>
        <time>2021-11-07T15:55:25Z</time>
      </trkpt>
      <trkpt lat="45.51346" lon="7.26777">
        <ele>3879.7</ele>
        <time>2021-11-07T15:55:27Z</time>
      </trkpt>
      <trkpt lat="45.51346" lon="7.26775">
        <ele>3878.3</ele>
        <time>2021-11-07T15:55:37Z</time>
      </trkpt>
      <trkpt lat="45.51342" lon="7.2677">
        <ele>3875.7</ele>
        <time>2021-11-07T15:55:39Z</time>
      </trkpt>
      <trkpt lat="45.51338" lon="7.26763">
        <ele>3871.2</ele>
        <time>2021-11-07T15:55:41Z</time>
      </trkpt>
      <trkpt lat="45.51336" lon="7.2676">
        <ele>3870.1</ele>
        <time>2021-11-07T15:55:42Z</time>
      </trkpt>
      <trkpt lat="45.51333" lon="7.2676">
        <ele>3868.3</ele>
        <time>2021-11-07T15:55:43Z</time>
      </trkpt>
      <trkpt lat="45.51331" lon="7.2676">
        <ele>3866.5</ele>
        <time>2021-11-07T15:55:44Z</time>
      </trkpt>
      <trkpt lat="45.5133" lon="7.2676">
        <ele>3866.6</ele>
        <time>2021-11-07T15:55:45Z</time>
      </trkpt>
      <trkpt lat="45.51329" lon="7.26759">
        <ele>3864.7</ele>
        <time>2021-11-07T15:55:46Z</time>
      </trkpt>
      <trkpt lat="45.51328" lon="7.26756">
        <ele>3863.7</ele>
        <time>2021-11-07T15:55:47Z</time>
      </trkpt>
      <trkpt lat="45.51329" lon="7.26751">
        <ele>3862.6</ele>
        <time>2021-11-07T15:55:48Z</time>
      </trkpt>
      <trkpt lat="45.51331" lon="7.26745">
        <ele>3862.1</ele>
        <time>2021-11-07T15:55:49Z</time>
      </trkpt>
      <trkpt lat="45.51332" lon="7.26739">
        <ele>3861</ele>
        <time>2021-11-07T15:55:50Z</time>
      </trkpt>
      <trkpt lat="45.51333" lon="7.26733">
        <ele>3861.6</ele>
        <time>2021-11-07T15:55:51Z</time>
      </trkpt>
      <trkpt lat="45.51335" lon="7.26729">
        <ele>3860.3</ele>
        <time>2021-11-07T15:55:52Z</time>
      </trkpt>
      <trkpt lat="45.51335" lon="7.26725">
        <ele>3859.1</ele>
        <time>2021-11-07T15:55:53Z</time>
      </trkpt>
      <trkpt lat="45.51331" lon="7.2672">
        <ele>3856.3</ele>
        <time>2021-11-07T15:55:55Z</time>
      </trkpt>
      <trkpt lat="45.51328" lon="7.26716">
        <ele>3852.4</ele>
        <time>2021-11-07T15:55:57Z</time>
      </trkpt>
      <trkpt lat="45.51326" lon="7.26715">
        <ele>3851.1</ele>
        <time>2021-11-07T15:55:58Z</time>
      </trkpt>
      <trkpt lat="45.51323" lon="7.26715">
        <ele>3851.2</ele>
        <time>2021-11-07T15:55:59Z</time>
      </trkpt>
      <trkpt lat="45.51322" lon="7.26715">
        <ele>3849.9</ele>
        <time>2021-11-07T15:56:00Z</time>
      </trkpt>
      <trkpt lat="45.51322" lon="7.26715">
        <ele>3850.1</ele>
        <time>2021-11-07T15:56:01Z</time>
      </trkpt>
      <trkpt lat="45.51321" lon="7.26715">
        <ele>3850.2</ele>
        <time>2021-11-07T15:56:03Z</time>
      </trkpt>
      <trkpt lat="45.51322" lon="7.26715">
        <ele>3850.3</ele>
        <time>2021-11-07T15:56:04Z</time>
      </trkpt>
      <trkpt lat="45.51322" lon="7.26716">
        <ele>3851.6</ele>
        <time>2021-11-07T15:56:07Z</time>
      </trkpt>
      <trkpt lat="45.51322" lon="7.26716">
        <ele>3851.7</ele>
        <time>2021-11-07T15:56:14Z</time>
      </trkpt>
      <trkpt lat="45.51322" lon="7.26716">
        <ele>3851.9</ele>
        <time>2021-11-07T15:56:26Z</time>
      </trkpt>
      <trkpt lat="45.51322" lon="7.26716">
        <ele>3852</ele>
        <time>2021-11-07T15:56:34Z</time>
      </trkpt>
      <trkpt lat="45.51322" lon="7.26716">
        <ele>3852.1</ele>
        <time>2021-11-07T15:56:35Z</time>
      </trkpt>
      <trkpt lat="45.51322" lon="7.26716">
        <ele>3852.3</ele>
        <time>2021-11-07T15:56:36Z</time>
      </trkpt>
      <trkpt lat="45.51322" lon="7.26716">
        <ele>3852.4</ele>
        <time>2021-11-07T15:56:38Z</time>
      </trkpt>
      <trkpt lat="45.51322" lon="7.26716">
        <ele>3852.5</ele>
        <time>2021-11-07T15:56:50Z</time>
      </trkpt>
      <trkpt lat="45.51319" lon="7.26713">
        <ele>3850.1</ele>
        <time>2021-11-07T15:56:55Z</time>
      </trkpt>
      <trkpt lat="45.51317" lon="7.26708">
        <ele>3847.6</ele>
        <time>2021-11-07T15:56:57Z</time>
      </trkpt>
      <trkpt lat="45.51315" lon="7.26707">
        <ele>3846.7</ele>
        <time>2021-11-07T15:56:58Z</time>
      </trkpt>
      <trkpt lat="45.51312" lon="7.26707">
        <ele>3845.2</ele>
        <time>2021-11-07T15:56:59Z</time>
      </trkpt>
      <trkpt lat="45.5131" lon="7.26706">
        <ele>3843.6</ele>
        <time>2021-11-07T15:57:00Z</time>
      </trkpt>
      <trkpt lat="45.51309" lon="7.26703">
        <ele>3843.7</ele>
        <time>2021-11-07T15:57:01Z</time>
      </trkpt>
      <trkpt lat="45.5131" lon="7.26699">
        <ele>3842.8</ele>
        <time>2021-11-07T15:57:02Z</time>
      </trkpt>
      <trkpt lat="45.51311" lon="7.26694">
        <ele>3841.9</ele>
        <time>2021-11-07T15:57:03Z</time>
      </trkpt>
      <trkpt lat="45.5131" lon="7.26691">
        <ele>3841</ele>
        <time>2021-11-07T15:57:04Z</time>
      </trkpt>
      <trkpt lat="45.51307" lon="7.2669">
        <ele>3839.5</ele>
        <time>2021-11-07T15:57:05Z</time>
      </trkpt>
      <trkpt lat="45.51304" lon="7.2669">
        <ele>3837.1</ele>
        <time>2021-11-07T15:57:06Z</time>
      </trkpt>
      <trkpt lat="45.51302" lon="7.26691">
        <ele>3836.6</ele>
        <time>2021-11-07T15:57:07Z</time>
      </trkpt>
      <trkpt lat="45.513" lon="7.26692">
        <ele>3836.2</ele>
        <time>2021-11-07T15:57:08Z</time>
      </trkpt>
      <trkpt lat="45.513" lon="7.26692">
        <ele>3836.2</ele>
        <time>2021-11-07T15:57:09Z</time>
      </trkpt>
      <trkpt lat="45.513" lon="7.26692">
        <ele>3836.1</ele>
        <time>2021-11-07T15:57:10Z</time>
      </trkpt>
      <trkpt lat="45.51301" lon="7.26691">
        <ele>3836</ele>
        <time>2021-11-07T15:57:11Z</time>
      </trkpt>
      <trkpt lat="45.51302" lon="7.26689">
        <ele>3835.6</ele>
        <time>2021-11-07T15:57:13Z</time>
      </trkpt>
      <trkpt lat="45.51302" lon="7.26688">
        <ele>3835.3</ele>
        <time>2021-11-07T15:57:15Z</time>
      </trkpt>
      <trkpt lat="45.51302" lon="7.26687">
        <ele>3835.2</ele>
        <time>2021-11-07T15:57:16Z</time>
      </trkpt>
      <trkpt lat="45.51301" lon="7.26684">
        <ele>3834.5</ele>
        <time>2021-11-07T15:57:23Z</time>
      </trkpt>
      <trkpt lat="45.513" lon="7.26682">
        <ele>3834.1</ele>
        <time>2021-11-07T15:57:24Z</time>
      </trkpt>
      <trkpt lat="45.51298" lon="7.26675">
        <ele>3832.8</ele>
        <time>2021-11-07T15:57:26Z</time>
      </trkpt>
      <trkpt lat="45.51296" lon="7.26673">
        <ele>3832.1</ele>
        <time>2021-11-07T15:57:27Z</time>
      </trkpt>
      <trkpt lat="45.51287" lon="7.26669">
        <ele>3829.7</ele>
        <time>2021-11-07T15:57:29Z</time>
      </trkpt>
      <trkpt lat="45.51281" lon="7.26665">
        <ele>3828</ele>
        <time>2021-11-07T15:57:30Z</time>
      </trkpt>
      <trkpt lat="45.51274" lon="7.2666">
        <ele>3826.1</ele>
        <time>2021-11-07T15:57:31Z</time>
      </trkpt>
      <trkpt lat="45.51268" lon="7.26654">
        <ele>3824.1</ele>
        <time>2021-11-07T15:57:32Z</time>
      </trkpt>
      <trkpt lat="45.51263" lon="7.26645">
        <ele>3822.1</ele>
        <time>2021-11-07T15:57:33Z</time>
      </trkpt>
      <trkpt lat="45.51258" lon="7.26627">
        <ele>3818.7</ele>
        <time>2021-11-07T15:57:35Z</time>
      </trkpt>
      <trkpt lat="45.51256" lon="7.26613">
        <ele>3816.1</ele>
        <time>2021-11-07T15:57:37Z</time>
      </trkpt>
      <trkpt lat="45.51256" lon="7.26607">
        <ele>3814.9</ele>
        <time>2021-11-07T15:57:38Z</time>
      </trkpt>
      <trkpt lat="45.51255" lon="7.266">
        <ele>3813.8</ele>
        <time>2021-11-07T15:57:39Z</time>
      </trkpt>
      <trkpt lat="45.51255" lon="7.26589">
        <ele>3811.8</ele>
        <time>2021-11-07T15:57:41Z</time>
      </trkpt>
      <trkpt lat="45.51254" lon="7.26584">
        <ele>3810.8</ele>
        <time>2021-11-07T15:57:42Z</time>
      </trkpt>
      <trkpt lat="45.51254" lon="7.26579">
        <ele>3810</ele>
        <time>2021-11-07T15:57:43Z</time>
      </trkpt>
      <trkpt lat="45.51254" lon="7.26569">
        <ele>3808.1</ele>
        <time>2021-11-07T15:57:45Z</time>
      </trkpt>
      <trkpt lat="45.51255" lon="7.26563">
        <ele>3807.1</ele>
        <time>2021-11-07T15:57:46Z</time>
      </trkpt>
      <trkpt lat="45.51258" lon="7.26551">
        <ele>3804.8</ele>
        <time>2021-11-07T15:57:48Z</time>
      </trkpt>
      <trkpt lat="45.51262" lon="7.26546">
        <ele>3803.6</ele>
        <time>2021-11-07T15:57:49Z</time>
      </trkpt>
      <trkpt lat="45.51265" lon="7.26542">
        <ele>3802.6</ele>
        <time>2021-11-07T15:57:50Z</time>
      </trkpt>
      <trkpt lat="45.51267" lon="7.26537">
        <ele>3801.5</ele>
        <time>2021-11-07T15:57:51Z</time>
      </trkpt>
      <trkpt lat="45.51269" lon="7.26531">
        <ele>3800.3</ele>
        <time>2021-11-07T15:57:52Z</time>
      </trkpt>
      <trkpt lat="45.51272" lon="7.26527">
        <ele>3799.2</ele>
        <time>2021-11-07T15:57:53Z</time>
      </trkpt>
      <trkpt lat="45.51278" lon="7.26517">
        <ele>3797</ele>
        <time>2021-11-07T15:57:55Z</time>
      </trkpt>
      <trkpt lat="45.51283" lon="7.26507">
        <ele>3794.7</ele>
        <time>2021-11-07T15:57:57Z</time>
      </trkpt>
      <trkpt lat="45.51286" lon="7.26503">
        <ele>3793.7</ele>
        <time>2021-11-07T15:57:58Z</time>
      </trkpt>
      <trkpt lat="45.51287" lon="7.26498">
        <ele>3792.8</ele>
        <time>2021-11-07T15:57:59Z</time>
      </trkpt>
      <trkpt lat="45.51288" lon="7.26492">
        <ele>3791.6</ele>
        <time>2021-11-07T15:58:00Z</time>
      </trkpt>
      <trkpt lat="45.5129" lon="7.26486">
        <ele>3790.5</ele>
        <time>2021-11-07T15:58:01Z</time>
      </trkpt>
      <trkpt lat="45.51291" lon="7.26481">
        <ele>3789.6</ele>
        <time>2021-11-07T15:58:02Z</time>
      </trkpt>
      <trkpt lat="45.51291" lon="7.26475">
        <ele>3788.5</ele>
        <time>2021-11-07T15:58:03Z</time>
      </trkpt>
      <trkpt lat="45.51293" lon="7.2647">
        <ele>3787.5</ele>
        <time>2021-11-07T15:58:04Z</time>
      </trkpt>
      <trkpt lat="45.51295" lon="7.26467">
        <ele>3786.7</ele>
        <time>2021-11-07T15:58:05Z</time>
      </trkpt>
      <trkpt lat="45.51297" lon="7.26463">
        <ele>3785.8</ele>
        <time>2021-11-07T15:58:06Z</time>
      </trkpt>
      <trkpt lat="45.51298" lon="7.26459">
        <ele>3785</ele>
        <time>2021-11-07T15:58:07Z</time>
      </trkpt>
      <trkpt lat="45.51298" lon="7.26456">
        <ele>3784.6</ele>
        <time>2021-11-07T15:58:08Z</time>
      </trkpt>
      <trkpt lat="45.51297" lon="7.26455">
        <ele>3784.2</ele>
        <time>2021-11-07T15:58:10Z</time>
      </trkpt>
      <trkpt lat="45.51295" lon="7.26456">
        <ele>3783.8</ele>
        <time>2021-11-07T15:58:13Z</time>
      </trkpt>
      <trkpt lat="45.51295" lon="7.26456">
        <ele>3783.8</ele>
        <time>2021-11-07T15:58:16Z</time>
      </trkpt>
      <trkpt lat="45.51295" lon="7.26456">
        <ele>3783.8</ele>
        <time>2021-11-07T15:58:24Z</time>
      </trkpt>
      <trkpt lat="45.51295" lon="7.26453">
        <ele>3783.3</ele>
        <time>2021-11-07T15:58:30Z</time>
      </trkpt>
      <trkpt lat="45.51295" lon="7.2645">
        <ele>3782.8</ele>
        <time>2021-11-07T15:58:31Z</time>
      </trkpt>
      <trkpt lat="45.51296" lon="7.26444">
        <ele>3781.8</ele>
        <time>2021-11-07T15:58:33Z</time>
      </trkpt>
      <trkpt lat="45.51298" lon="7.26441">
        <ele>3780.9</ele>
        <time>2021-11-07T15:58:34Z</time>
      </trkpt>
      <trkpt lat="45.51303" lon="7.26436">
        <ele>3779.5</ele>
        <time>2021-11-07T15:58:36Z</time>
      </trkpt>
      <trkpt lat="45.51303" lon="7.26432">
        <ele>3778.7</ele>
        <time>2021-11-07T15:58:37Z</time>
      </trkpt>
      <trkpt lat="45.51305" lon="7.26428">
        <ele>3777.9</ele>
        <time>2021-11-07T15:58:38Z</time>
      </trkpt>
      <trkpt lat="45.51308" lon="7.26421">
        <ele>3776.5</ele>
        <time>2021-11-07T15:58:40Z</time>
      </trkpt>
      <trkpt lat="45.51308" lon="7.26415">
        <ele>3775.5</ele>
        <time>2021-11-07T15:58:41Z</time>
      </trkpt>
      <trkpt lat="45.51308" lon="7.2641">
        <ele>3774.5</ele>
        <time>2021-11-07T15:58:42Z</time>
      </trkpt>
      <trkpt lat="45.51311" lon="7.26406">
        <ele>3773.5</ele>
        <time>2021-11-07T15:58:43Z</time>
      </trkpt>
      <trkpt lat="45.51314" lon="7.26402">
        <ele>3772.5</ele>
        <time>2021-11-07T15:58:44Z</time>
      </trkpt>
      <trkpt lat="45.51316" lon="7.26398">
        <ele>3771.6</ele>
        <time>2021-11-07T15:58:45Z</time>
      </trkpt>
      <trkpt lat="45.51316" lon="7.26392">
        <ele>3770.5</ele>
        <time>2021-11-07T15:58:46Z</time>
      </trkpt>
      <trkpt lat="45.51315" lon="7.26385">
        <ele>3769.3</ele>
        <time>2021-11-07T15:58:47Z</time>
      </trkpt>
      <trkpt lat="45.51317" lon="7.26379">
        <ele>3768.3</ele>
        <time>2021-11-07T15:58:48Z</time>
      </trkpt>
      <trkpt lat="45.5132" lon="7.26376">
        <ele>3767.2</ele>
        <time>2021-11-07T15:58:49Z</time>
      </trkpt>
      <trkpt lat="45.51323" lon="7.26371">
        <ele>3766.2</ele>
        <time>2021-11-07T15:58:50Z</time>
      </trkpt>
      <trkpt lat="45.51324" lon="7.26366">
        <ele>3765.3</ele>
        <time>2021-11-07T15:58:51Z</time>
      </trkpt>
      <trkpt lat="45.51324" lon="7.26361">
        <ele>3764.4</ele>
        <time>2021-11-07T15:58:52Z</time>
      </trkpt>
      <trkpt lat="45.51326" lon="7.26357">
        <ele>3763.5</ele>
        <time>2021-11-07T15:58:53Z</time>
      </trkpt>
      <trkpt lat="45.51328" lon="7.26354">
        <ele>3762.8</ele>
        <time>2021-11-07T15:58:54Z</time>
      </trkpt>
      <trkpt lat="45.51329" lon="7.26351">
        <ele>3762.1</ele>
        <time>2021-11-07T15:58:55Z</time>
      </trkpt>
      <trkpt lat="45.5133" lon="7.26347">
        <ele>3761.4</ele>
        <time>2021-11-07T15:58:56Z</time>
      </trkpt>
      <trkpt lat="45.51332" lon="7.26338">
        <ele>3759.7</ele>
        <time>2021-11-07T15:58:58Z</time>
      </trkpt>
      <trkpt lat="45.51333" lon="7.26332">
        <ele>3758.7</ele>
        <time>2021-11-07T15:58:59Z</time>
      </trkpt>
      <trkpt lat="45.51333" lon="7.26326">
        <ele>3757.6</ele>
        <time>2021-11-07T15:59:00Z</time>
      </trkpt>
      <trkpt lat="45.51335" lon="7.2632">
        <ele>3756.5</ele>
        <time>2021-11-07T15:59:01Z</time>
      </trkpt>
      <trkpt lat="45.51335" lon="7.26315">
        <ele>3755.5</ele>
        <time>2021-11-07T15:59:02Z</time>
      </trkpt>
      <trkpt lat="45.51336" lon="7.26311">
        <ele>3754.8</ele>
        <time>2021-11-07T15:59:03Z</time>
      </trkpt>
      <trkpt lat="45.51336" lon="7.26309">
        <ele>3754.3</ele>
        <time>2021-11-07T15:59:04Z</time>
      </trkpt>
      <trkpt lat="45.51336" lon="7.26308">
        <ele>3754.2</ele>
        <time>2021-11-07T15:59:05Z</time>
      </trkpt>
      <trkpt lat="45.51336" lon="7.26308">
        <ele>3754.1</ele>
        <time>2021-11-07T15:59:06Z</time>
      </trkpt>
      <trkpt lat="45.51335" lon="7.26308">
        <ele>3753.9</ele>
        <time>2021-11-07T15:59:09Z</time>
      </trkpt>
      <trkpt lat="45.51335" lon="7.26309">
        <ele>3753.9</ele>
        <time>2021-11-07T15:59:18Z</time>
      </trkpt>
      <trkpt lat="45.51335" lon="7.26309">
        <ele>3753.9</ele>
        <time>2021-11-07T15:59:22Z</time>
      </trkpt>
      <trkpt lat="45.51335" lon="7.26309">
        <ele>3753.9</ele>
        <time>2021-11-07T15:59:24Z</time>
      </trkpt>
      <trkpt lat="45.51337" lon="7.26303">
        <ele>3752.8</ele>
        <time>2021-11-07T15:59:37Z</time>
      </trkpt>
      <trkpt lat="45.51341" lon="7.26297">
        <ele>3751.3</ele>
        <time>2021-11-07T15:59:40Z</time>
      </trkpt>
      <trkpt lat="45.51342" lon="7.26295">
        <ele>3750.8</ele>
        <time>2021-11-07T15:59:41Z</time>
      </trkpt>
      <trkpt lat="45.51344" lon="7.26293">
        <ele>3750.3</ele>
        <time>2021-11-07T15:59:42Z</time>
      </trkpt>
      <trkpt lat="45.51345" lon="7.2629">
        <ele>3749.7</ele>
        <time>2021-11-07T15:59:43Z</time>
      </trkpt>
      <trkpt lat="45.51345" lon="7.2628">
        <ele>3748</ele>
        <time>2021-11-07T15:59:45Z</time>
      </trkpt>
      <trkpt lat="45.51345" lon="7.26269">
        <ele>3746</ele>
        <time>2021-11-07T15:59:47Z</time>
      </trkpt>
      <trkpt lat="45.51346" lon="7.26263">
        <ele>3744.9</ele>
        <time>2021-11-07T15:59:48Z</time>
      </trkpt>
      <trkpt lat="45.51347" lon="7.26259">
        <ele>3744.1</ele>
        <time>2021-11-07T15:59:49Z</time>
      </trkpt>
      <trkpt lat="45.51347" lon="7.26255">
        <ele>3743.4</ele>
        <time>2021-11-07T15:59:50Z</time>
      </trkpt>
      <trkpt lat="45.51348" lon="7.26252">
        <ele>3742.8</ele>
        <time>2021-11-07T15:59:51Z</time>
      </trkpt>
      <trkpt lat="45.51349" lon="7.26249">
        <ele>3742.2</ele>
        <time>2021-11-07T15:59:52Z</time>
      </trkpt>
      <trkpt lat="45.5135" lon="7.26247">
        <ele>3741.8</ele>
        <time>2021-11-07T15:59:53Z</time>
      </trkpt>
      <trkpt lat="45.51351" lon="7.26247">
        <ele>3741.7</ele>
        <time>2021-11-07T15:59:54Z</time>
      </trkpt>
      <trkpt lat="45.51354" lon="7.26246">
        <ele>3740.9</ele>
        <time>2021-11-07T15:59:58Z</time>
      </trkpt>
      <trkpt lat="45.51356" lon="7.26245">
        <ele>3740.2</ele>
        <time>2021-11-07T16:00:00Z</time>
      </trkpt>
      <trkpt lat="45.5136" lon="7.26242">
        <ele>3739.1</ele>
        <time>2021-11-07T16:00:03Z</time>
      </trkpt>
      <trkpt lat="45.51361" lon="7.26241">
        <ele>3738.7</ele>
        <time>2021-11-07T16:00:04Z</time>
      </trkpt>
      <trkpt lat="45.51366" lon="7.26236">
        <ele>3737.4</ele>
        <time>2021-11-07T16:00:07Z</time>
      </trkpt>
      <trkpt lat="45.51366" lon="7.26234">
        <ele>3737</ele>
        <time>2021-11-07T16:00:08Z</time>
      </trkpt>
      <trkpt lat="45.51366" lon="7.26232">
        <ele>3736.7</ele>
        <time>2021-11-07T16:00:09Z</time>
      </trkpt>
      <trkpt lat="45.51366" lon="7.26232">
        <ele>3736.6</ele>
        <time>2021-11-07T16:00:10Z</time>
      </trkpt>
      <trkpt lat="45.51366" lon="7.26232">
        <ele>3736.6</ele>
        <time>2021-11-07T16:00:12Z</time>
      </trkpt>
      <trkpt lat="45.51366" lon="7.26232">
        <ele>3736.5</ele>
        <time>2021-11-07T16:00:15Z</time>
      </trkpt>
      <trkpt lat="45.51366" lon="7.26232">
        <ele>3736.5</ele>
        <time>2021-11-07T16:00:16Z</time>
      </trkpt>
      <trkpt lat="45.51364" lon="7.26233">
        <ele>3735.8</ele>
        <time>2021-11-07T16:00:23Z</time>
      </trkpt>
      <trkpt lat="45.51364" lon="7.26233">
        <ele>3735.8</ele>
        <time>2021-11-07T16:00:24Z</time>
      </trkpt>
      <trkpt lat="45.51364" lon="7.26233">
        <ele>3735.8</ele>
        <time>2021-11-07T16:00:29Z</time>
      </trkpt>
      <trkpt lat="45.51364" lon="7.26233">
        <ele>3735.7</ele>
        <time>2021-11-07T16:00:35Z</time>
      </trkpt>
      <trkpt lat="45.51364" lon="7.26228">
        <ele>3734.8</ele>
        <time>2021-11-07T16:00:40Z</time>
      </trkpt>
      <trkpt lat="45.51365" lon="7.26226">
        <ele>3734.5</ele>
        <time>2021-11-07T16:00:51Z</time>
      </trkpt>
      <trkpt lat="45.51365" lon="7.26226">
        <ele>3734.5</ele>
        <time>2021-11-07T16:00:54Z</time>
      </trkpt>
      <trkpt lat="45.51365" lon="7.26226">
        <ele>3734.4</ele>
        <time>2021-11-07T16:00:59Z</time>
      </trkpt>
      <trkpt lat="45.51365" lon="7.26226">
        <ele>3734.4</ele>
        <time>2021-11-07T16:01:00Z</time>
      </trkpt>
      <trkpt lat="45.51365" lon="7.26227">
        <ele>3734.3</ele>
        <time>2021-11-07T16:01:07Z</time>
      </trkpt>
      <trkpt lat="45.51365" lon="7.26227">
        <ele>3734.3</ele>
        <time>2021-11-07T16:01:11Z</time>
      </trkpt>
      <trkpt lat="45.51365" lon="7.26227">
        <ele>3734.2</ele>
        <time>2021-11-07T16:01:22Z</time>
      </trkpt>
      <trkpt lat="45.51365" lon="7.26224">
        <ele>3733.7</ele>
        <time>2021-11-07T16:01:24Z</time>
      </trkpt>
      <trkpt lat="45.51366" lon="7.26223">
        <ele>3733.3</ele>
        <time>2021-11-07T16:01:25Z</time>
      </trkpt>
      <trkpt lat="45.51368" lon="7.26219">
        <ele>3732.4</ele>
        <time>2021-11-07T16:01:28Z</time>
      </trkpt>
      <trkpt lat="45.51368" lon="7.26215">
        <ele>3731.9</ele>
        <time>2021-11-07T16:01:29Z</time>
      </trkpt>
      <trkpt lat="45.51366" lon="7.26211">
        <ele>3731</ele>
        <time>2021-11-07T16:01:30Z</time>
      </trkpt>
      <trkpt lat="45.51366" lon="7.26204">
        <ele>3729.7</ele>
        <time>2021-11-07T16:01:31Z</time>
      </trkpt>
      <trkpt lat="45.51366" lon="7.26194">
        <ele>3727.9</ele>
        <time>2021-11-07T16:01:32Z</time>
      </trkpt>
      <trkpt lat="45.51366" lon="7.26182">
        <ele>3725.8</ele>
        <time>2021-11-07T16:01:33Z</time>
      </trkpt>
      <trkpt lat="45.51366" lon="7.2617">
        <ele>3723.7</ele>
        <time>2021-11-07T16:01:34Z</time>
      </trkpt>
      <trkpt lat="45.51366" lon="7.26159">
        <ele>3721.8</ele>
        <time>2021-11-07T16:01:35Z</time>
      </trkpt>
      <trkpt lat="45.51367" lon="7.2615">
        <ele>3720.1</ele>
        <time>2021-11-07T16:01:36Z</time>
      </trkpt>
      <trkpt lat="45.51367" lon="7.26142">
        <ele>3718.6</ele>
        <time>2021-11-07T16:01:37Z</time>
      </trkpt>
      <trkpt lat="45.51371" lon="7.26128">
        <ele>3716</ele>
        <time>2021-11-07T16:01:39Z</time>
      </trkpt>
      <trkpt lat="45.51374" lon="7.26122">
        <ele>3712.6</ele>
        <time>2021-11-07T16:01:40Z</time>
      </trkpt>
      <trkpt lat="45.51377" lon="7.26116">
        <ele>3711.7</ele>
        <time>2021-11-07T16:01:41Z</time>
      </trkpt>
      <trkpt lat="45.5138" lon="7.26111">
        <ele>3708.2</ele>
        <time>2021-11-07T16:01:42Z</time>
      </trkpt>
      <trkpt lat="45.51395" lon="7.26091">
        <ele>3703.3</ele>
        <time>2021-11-07T16:01:46Z</time>
      </trkpt>
      <trkpt lat="45.51399" lon="7.26085">
        <ele>3702</ele>
        <time>2021-11-07T16:01:47Z</time>
      </trkpt>
      <trkpt lat="45.51407" lon="7.26074">
        <ele>3699.4</ele>
        <time>2021-11-07T16:01:49Z</time>
      </trkpt>
      <trkpt lat="45.51411" lon="7.26069">
        <ele>3698.2</ele>
        <time>2021-11-07T16:01:50Z</time>
      </trkpt>
      <trkpt lat="45.51414" lon="7.26064">
        <ele>3697</ele>
        <time>2021-11-07T16:01:51Z</time>
      </trkpt>
      <trkpt lat="45.51418" lon="7.2606">
        <ele>3696</ele>
        <time>2021-11-07T16:01:52Z</time>
      </trkpt>
      <trkpt lat="45.51421" lon="7.26055">
        <ele>3694.9</ele>
        <time>2021-11-07T16:01:54Z</time>
      </trkpt>
      <trkpt lat="45.51421" lon="7.26055">
        <ele>3694.8</ele>
        <time>2021-11-07T16:01:55Z</time>
      </trkpt>
      <trkpt lat="45.51421" lon="7.26055">
        <ele>3694.7</ele>
        <time>2021-11-07T16:01:58Z</time>
      </trkpt>
      <trkpt lat="45.51421" lon="7.26055">
        <ele>3694.7</ele>
        <time>2021-11-07T16:01:59Z</time>
      </trkpt>
      <trkpt lat="45.51421" lon="7.26055">
        <ele>3694.6</ele>
        <time>2021-11-07T16:02:05Z</time>
      </trkpt>
      <trkpt lat="45.51421" lon="7.26056">
        <ele>3694.4</ele>
        <time>2021-11-07T16:02:10Z</time>
      </trkpt>
      <trkpt lat="45.5142" lon="7.26057">
        <ele>3694.2</ele>
        <time>2021-11-07T16:02:18Z</time>
      </trkpt>
      <trkpt lat="45.51421" lon="7.26057">
        <ele>3694.1</ele>
        <time>2021-11-07T16:02:25Z</time>
      </trkpt>
      <trkpt lat="45.51421" lon="7.26057">
        <ele>3694.1</ele>
        <time>2021-11-07T16:02:31Z</time>
      </trkpt>
      <trkpt lat="45.51421" lon="7.26057">
        <ele>3694.1</ele>
        <time>2021-11-07T16:02:34Z</time>
      </trkpt>
      <trkpt lat="45.5142" lon="7.26056">
        <ele>3693.7</ele>
        <time>2021-11-07T16:02:36Z</time>
      </trkpt>
      <trkpt lat="45.51415" lon="7.26055">
        <ele>3692.6</ele>
        <time>2021-11-07T16:02:38Z</time>
      </trkpt>
      <trkpt lat="45.51411" lon="7.26055">
        <ele>3691.6</ele>
        <time>2021-11-07T16:02:39Z</time>
      </trkpt>
      <trkpt lat="45.51402" lon="7.26051">
        <ele>3689.5</ele>
        <time>2021-11-07T16:02:41Z</time>
      </trkpt>
      <trkpt lat="45.51393" lon="7.26042">
        <ele>3686.8</ele>
        <time>2021-11-07T16:02:43Z</time>
      </trkpt>
      <trkpt lat="45.51391" lon="7.26035">
        <ele>3685.5</ele>
        <time>2021-11-07T16:02:44Z</time>
      </trkpt>
      <trkpt lat="45.51392" lon="7.26026">
        <ele>3684</ele>
        <time>2021-11-07T16:02:45Z</time>
      </trkpt>
      <trkpt lat="45.51393" lon="7.26019">
        <ele>3682.8</ele>
        <time>2021-11-07T16:02:46Z</time>
      </trkpt>
      <trkpt lat="45.51394" lon="7.26012">
        <ele>3681.7</ele>
        <time>2021-11-07T16:02:47Z</time>
      </trkpt>
      <trkpt lat="45.51393" lon="7.26006">
        <ele>3680.7</ele>
        <time>2021-11-07T16:02:48Z</time>
      </trkpt>
      <trkpt lat="45.5139" lon="7.25999">
        <ele>3679.4</ele>
        <time>2021-11-07T16:02:49Z</time>
      </trkpt>
      <trkpt lat="45.51389" lon="7.25991">
        <ele>3678</ele>
        <time>2021-11-07T16:02:50Z</time>
      </trkpt>
      <trkpt lat="45.51389" lon="7.25982">
        <ele>3676.5</ele>
        <time>2021-11-07T16:02:51Z</time>
      </trkpt>
      <trkpt lat="45.51388" lon="7.25974">
        <ele>3675.1</ele>
        <time>2021-11-07T16:02:52Z</time>
      </trkpt>
      <trkpt lat="45.51385" lon="7.25967">
        <ele>3673.8</ele>
        <time>2021-11-07T16:02:53Z</time>
      </trkpt>
      <trkpt lat="45.51384" lon="7.25959">
        <ele>3672.5</ele>
        <time>2021-11-07T16:02:54Z</time>
      </trkpt>
      <trkpt lat="45.51383" lon="7.25952">
        <ele>3671.2</ele>
        <time>2021-11-07T16:02:55Z</time>
      </trkpt>
      <trkpt lat="45.5138" lon="7.25945">
        <ele>3670</ele>
        <time>2021-11-07T16:02:56Z</time>
      </trkpt>
      <trkpt lat="45.51378" lon="7.25939">
        <ele>3668.8</ele>
        <time>2021-11-07T16:02:57Z</time>
      </trkpt>
      <trkpt lat="45.51378" lon="7.25933">
        <ele>3667.9</ele>
        <time>2021-11-07T16:02:58Z</time>
      </trkpt>
      <trkpt lat="45.51378" lon="7.25929">
        <ele>3667.2</ele>
        <time>2021-11-07T16:02:59Z</time>
      </trkpt>
      <trkpt lat="45.51378" lon="7.25927">
        <ele>3666.9</ele>
        <time>2021-11-07T16:03:00Z</time>
      </trkpt>
      <trkpt lat="45.51378" lon="7.25927">
        <ele>3666.8</ele>
        <time>2021-11-07T16:03:01Z</time>
      </trkpt>
      <trkpt lat="45.51378" lon="7.25926">
        <ele>3666.7</ele>
        <time>2021-11-07T16:03:02Z</time>
      </trkpt>
      <trkpt lat="45.51379" lon="7.25926">
        <ele>3666.6</ele>
        <time>2021-11-07T16:03:06Z</time>
      </trkpt>
      <trkpt lat="45.51379" lon="7.25926">
        <ele>3666.5</ele>
        <time>2021-11-07T16:03:09Z</time>
      </trkpt>
      <trkpt lat="45.51379" lon="7.25926">
        <ele>3666.5</ele>
        <time>2021-11-07T16:03:12Z</time>
      </trkpt>
      <trkpt lat="45.51379" lon="7.25926">
        <ele>3666.4</ele>
        <time>2021-11-07T16:03:13Z</time>
      </trkpt>
      <trkpt lat="45.51379" lon="7.25926">
        <ele>3666.4</ele>
        <time>2021-11-07T16:03:21Z</time>
      </trkpt>
      <trkpt lat="45.5138" lon="7.25926">
        <ele>3666.3</ele>
        <time>2021-11-07T16:03:23Z</time>
      </trkpt>
      <trkpt lat="45.51379" lon="7.25926">
        <ele>3666.1</ele>
        <time>2021-11-07T16:03:25Z</time>
      </trkpt>
      <trkpt lat="45.51378" lon="7.25924">
        <ele>3665.7</ele>
        <time>2021-11-07T16:03:30Z</time>
      </trkpt>
      <trkpt lat="45.51376" lon="7.25921">
        <ele>3665</ele>
        <time>2021-11-07T16:03:31Z</time>
      </trkpt>
      <trkpt lat="45.51375" lon="7.25908">
        <ele>3663</ele>
        <time>2021-11-07T16:03:33Z</time>
      </trkpt>
      <trkpt lat="45.51373" lon="7.259">
        <ele>3661.6</ele>
        <time>2021-11-07T16:03:34Z</time>
      </trkpt>
      <trkpt lat="45.51371" lon="7.25892">
        <ele>3660.2</ele>
        <time>2021-11-07T16:03:35Z</time>
      </trkpt>
      <trkpt lat="45.51369" lon="7.25884">
        <ele>3658.7</ele>
        <time>2021-11-07T16:03:36Z</time>
      </trkpt>
      <trkpt lat="45.51367" lon="7.25876">
        <ele>3657.3</ele>
        <time>2021-11-07T16:03:37Z</time>
      </trkpt>
      <trkpt lat="45.51363" lon="7.25868">
        <ele>3655.8</ele>
        <time>2021-11-07T16:03:38Z</time>
      </trkpt>
      <trkpt lat="45.51362" lon="7.25861">
        <ele>3654.6</ele>
        <time>2021-11-07T16:03:39Z</time>
      </trkpt>
      <trkpt lat="45.51358" lon="7.25855">
        <ele>3653.3</ele>
        <time>2021-11-07T16:03:40Z</time>
      </trkpt>
      <trkpt lat="45.51356" lon="7.25847">
        <ele>3651.9</ele>
        <time>2021-11-07T16:03:41Z</time>
      </trkpt>
      <trkpt lat="45.51354" lon="7.2584">
        <ele>3650.6</ele>
        <time>2021-11-07T16:03:42Z</time>
      </trkpt>
      <trkpt lat="45.51352" lon="7.25832">
        <ele>3649.2</ele>
        <time>2021-11-07T16:03:43Z</time>
      </trkpt>
      <trkpt lat="45.5135" lon="7.25824">
        <ele>3647.9</ele>
        <time>2021-11-07T16:03:44Z</time>
      </trkpt>
      <trkpt lat="45.5135" lon="7.25816">
        <ele>3646.5</ele>
        <time>2021-11-07T16:03:45Z</time>
      </trkpt>
      <trkpt lat="45.51351" lon="7.25809">
        <ele>3645.3</ele>
        <time>2021-11-07T16:03:46Z</time>
      </trkpt>
      <trkpt lat="45.51355" lon="7.25804">
        <ele>3644</ele>
        <time>2021-11-07T16:03:47Z</time>
      </trkpt>
      <trkpt lat="45.51357" lon="7.25798">
        <ele>3642.9</ele>
        <time>2021-11-07T16:03:48Z</time>
      </trkpt>
      <trkpt lat="45.51358" lon="7.25791">
        <ele>3641.7</ele>
        <time>2021-11-07T16:03:49Z</time>
      </trkpt>
      <trkpt lat="45.51359" lon="7.25784">
        <ele>3640.6</ele>
        <time>2021-11-07T16:03:50Z</time>
      </trkpt>
      <trkpt lat="45.51359" lon="7.25777">
        <ele>3639.4</ele>
        <time>2021-11-07T16:03:51Z</time>
      </trkpt>
      <trkpt lat="45.51358" lon="7.25769">
        <ele>3638.1</ele>
        <time>2021-11-07T16:03:52Z</time>
      </trkpt>
      <trkpt lat="45.51359" lon="7.25761">
        <ele>3636.8</ele>
        <time>2021-11-07T16:03:53Z</time>
      </trkpt>
      <trkpt lat="45.51358" lon="7.25754">
        <ele>3635.6</ele>
        <time>2021-11-07T16:03:54Z</time>
      </trkpt>
      <trkpt lat="45.51357" lon="7.25746">
        <ele>3634.2</ele>
        <time>2021-11-07T16:03:55Z</time>
      </trkpt>
      <trkpt lat="45.51354" lon="7.25736">
        <ele>3632.5</ele>
        <time>2021-11-07T16:03:56Z</time>
      </trkpt>
      <trkpt lat="45.51354" lon="7.25726">
        <ele>3630.8</ele>
        <time>2021-11-07T16:03:57Z</time>
      </trkpt>
      <trkpt lat="45.51356" lon="7.25717">
        <ele>3629.4</ele>
        <time>2021-11-07T16:03:58Z</time>
      </trkpt>
      <trkpt lat="45.51361" lon="7.25714">
        <ele>3628</ele>
        <time>2021-11-07T16:03:59Z</time>
      </trkpt>
      <trkpt lat="45.51366" lon="7.25713">
        <ele>3626.8</ele>
        <time>2021-11-07T16:04:00Z</time>
      </trkpt>
      <trkpt lat="45.51369" lon="7.25713">
        <ele>3626.1</ele>
        <time>2021-11-07T16:04:01Z</time>
      </trkpt>
      <trkpt lat="45.51371" lon="7.25712">
        <ele>3625.7</ele>
        <time>2021-11-07T16:04:02Z</time>
      </trkpt>
      <trkpt lat="45.51369" lon="7.25713">
        <ele>3625.2</ele>
        <time>2021-11-07T16:04:03Z</time>
      </trkpt>
      <trkpt lat="45.51369" lon="7.25713">
        <ele>3625.1</ele>
        <time>2021-11-07T16:04:04Z</time>
      </trkpt>
      <trkpt lat="45.51369" lon="7.25713">
        <ele>3625</ele>
        <time>2021-11-07T16:04:05Z</time>
      </trkpt>
      <trkpt lat="45.51369" lon="7.25714">
        <ele>3625</ele>
        <time>2021-11-07T16:04:06Z</time>
      </trkpt>
      <trkpt lat="45.51369" lon="7.25714">
        <ele>3624.9</ele>
        <time>2021-11-07T16:04:08Z</time>
      </trkpt>
      <trkpt lat="45.5137" lon="7.25714">
        <ele>3624.8</ele>
        <time>2021-11-07T16:04:11Z</time>
      </trkpt>
      <trkpt lat="45.5137" lon="7.25714">
        <ele>3624.8</ele>
        <time>2021-11-07T16:04:12Z</time>
      </trkpt>
      <trkpt lat="45.5137" lon="7.25714">
        <ele>3624.8</ele>
        <time>2021-11-07T16:04:13Z</time>
      </trkpt>
      <trkpt lat="45.5137" lon="7.25714">
        <ele>3624.7</ele>
        <time>2021-11-07T16:04:19Z</time>
      </trkpt>
      <trkpt lat="45.5137" lon="7.25714">
        <ele>3624.7</ele>
        <time>2021-11-07T16:04:20Z</time>
      </trkpt>
      <trkpt lat="45.5137" lon="7.25714">
        <ele>3624.6</ele>
        <time>2021-11-07T16:04:21Z</time>
      </trkpt>
      <trkpt lat="45.5137" lon="7.25714">
        <ele>3624.6</ele>
        <time>2021-11-07T16:04:23Z</time>
      </trkpt>
      <trkpt lat="45.5137" lon="7.25714">
        <ele>3624.5</ele>
        <time>2021-11-07T16:04:25Z</time>
      </trkpt>
      <trkpt lat="45.51369" lon="7.25715">
        <ele>3624.3</ele>
        <time>2021-11-07T16:04:32Z</time>
      </trkpt>
      <trkpt lat="45.51367" lon="7.25708">
        <ele>3623</ele>
        <time>2021-11-07T16:04:39Z</time>
      </trkpt>
      <trkpt lat="45.51368" lon="7.25704">
        <ele>3622.3</ele>
        <time>2021-11-07T16:04:40Z</time>
      </trkpt>
      <trkpt lat="45.51373" lon="7.25698">
        <ele>3620.6</ele>
        <time>2021-11-07T16:04:42Z</time>
      </trkpt>
      <trkpt lat="45.51375" lon="7.25693">
        <ele>3619.8</ele>
        <time>2021-11-07T16:04:43Z</time>
      </trkpt>
      <trkpt lat="45.51375" lon="7.25687">
        <ele>3618.8</ele>
        <time>2021-11-07T16:04:44Z</time>
      </trkpt>
      <trkpt lat="45.51376" lon="7.25682">
        <ele>3617.9</ele>
        <time>2021-11-07T16:04:45Z</time>
      </trkpt>
      <trkpt lat="45.51378" lon="7.25677">
        <ele>3617</ele>
        <time>2021-11-07T16:04:46Z</time>
      </trkpt>
      <trkpt lat="45.51378" lon="7.25672">
        <ele>3616.1</ele>
        <time>2021-11-07T16:04:47Z</time>
      </trkpt>
      <trkpt lat="45.5138" lon="7.25666">
        <ele>3615.1</ele>
        <time>2021-11-07T16:04:48Z</time>
      </trkpt>
      <trkpt lat="45.51382" lon="7.25661">
        <ele>3614.1</ele>
        <time>2021-11-07T16:04:49Z</time>
      </trkpt>
      <trkpt lat="45.51384" lon="7.25656">
        <ele>3613.1</ele>
        <time>2021-11-07T16:04:50Z</time>
      </trkpt>
      <trkpt lat="45.51387" lon="7.2565">
        <ele>3611.9</ele>
        <time>2021-11-07T16:04:51Z</time>
      </trkpt>
      <trkpt lat="45.5139" lon="7.25645">
        <ele>3610.9</ele>
        <time>2021-11-07T16:04:52Z</time>
      </trkpt>
      <trkpt lat="45.51393" lon="7.25641">
        <ele>3609.9</ele>
        <time>2021-11-07T16:04:53Z</time>
      </trkpt>
      <trkpt lat="45.51394" lon="7.25636">
        <ele>3609</ele>
        <time>2021-11-07T16:04:54Z</time>
      </trkpt>
      <trkpt lat="45.51395" lon="7.2563">
        <ele>3608</ele>
        <time>2021-11-07T16:04:55Z</time>
      </trkpt>
      <trkpt lat="45.51397" lon="7.25625">
        <ele>3606.9</ele>
        <time>2021-11-07T16:04:56Z</time>
      </trkpt>
      <trkpt lat="45.51401" lon="7.25621">
        <ele>3605.9</ele>
        <time>2021-11-07T16:04:57Z</time>
      </trkpt>
      <trkpt lat="45.51403" lon="7.25616">
        <ele>3605</ele>
        <time>2021-11-07T16:04:58Z</time>
      </trkpt>
      <trkpt lat="45.51404" lon="7.25611">
        <ele>3604.1</ele>
        <time>2021-11-07T16:04:59Z</time>
      </trkpt>
      <trkpt lat="45.51403" lon="7.25606">
        <ele>3603.3</ele>
        <time>2021-11-07T16:05:00Z</time>
      </trkpt>
      <trkpt lat="45.51402" lon="7.25602">
        <ele>3602.5</ele>
        <time>2021-11-07T16:05:01Z</time>
      </trkpt>
      <trkpt lat="45.51403" lon="7.25596">
        <ele>3601.6</ele>
        <time>2021-11-07T16:05:02Z</time>
      </trkpt>
      <trkpt lat="45.51406" lon="7.25592">
        <ele>3600.6</ele>
        <time>2021-11-07T16:05:03Z</time>
      </trkpt>
      <trkpt lat="45.5141" lon="7.25591">
        <ele>3599.5</ele>
        <time>2021-11-07T16:05:04Z</time>
      </trkpt>
      <trkpt lat="45.51414" lon="7.25592">
        <ele>3598.6</ele>
        <time>2021-11-07T16:05:05Z</time>
      </trkpt>
      <trkpt lat="45.51417" lon="7.25593">
        <ele>3597.9</ele>
        <time>2021-11-07T16:05:06Z</time>
      </trkpt>
      <trkpt lat="45.51418" lon="7.25593">
        <ele>3597.5</ele>
        <time>2021-11-07T16:05:07Z</time>
      </trkpt>
      <trkpt lat="45.51419" lon="7.25594">
        <ele>3597.2</ele>
        <time>2021-11-07T16:05:09Z</time>
      </trkpt>
      <trkpt lat="45.5142" lon="7.25595">
        <ele>3597.2</ele>
        <time>2021-11-07T16:05:10Z</time>
      </trkpt>
      <trkpt lat="45.5142" lon="7.25595">
        <ele>3597.1</ele>
        <time>2021-11-07T16:05:12Z</time>
      </trkpt>
      <trkpt lat="45.5142" lon="7.25595">
        <ele>3597</ele>
        <time>2021-11-07T16:05:14Z</time>
      </trkpt>
      <trkpt lat="45.5142" lon="7.25595">
        <ele>3597</ele>
        <time>2021-11-07T16:05:20Z</time>
      </trkpt>
      <trkpt lat="45.5142" lon="7.25595">
        <ele>3596.9</ele>
        <time>2021-11-07T16:05:24Z</time>
      </trkpt>
      <trkpt lat="45.5142" lon="7.25596">
        <ele>3596.8</ele>
        <time>2021-11-07T16:05:29Z</time>
      </trkpt>
      <trkpt lat="45.51421" lon="7.25596">
        <ele>3596.8</ele>
        <time>2021-11-07T16:05:32Z</time>
      </trkpt>
      <trkpt lat="45.51421" lon="7.25596">
        <ele>3596.7</ele>
        <time>2021-11-07T16:05:36Z</time>
      </trkpt>
      <trkpt lat="45.51421" lon="7.25596">
        <ele>3596.6</ele>
        <time>2021-11-07T16:05:38Z</time>
      </trkpt>
      <trkpt lat="45.51421" lon="7.25598">
        <ele>3596.2</ele>
        <time>2021-11-07T16:05:50Z</time>
      </trkpt>
      <trkpt lat="45.51427" lon="7.25592">
        <ele>3594.4</ele>
        <time>2021-11-07T16:05:55Z</time>
      </trkpt>
      <trkpt lat="45.51428" lon="7.25587">
        <ele>3593.6</ele>
        <time>2021-11-07T16:05:57Z</time>
      </trkpt>
      <trkpt lat="45.51428" lon="7.25584">
        <ele>3593</ele>
        <time>2021-11-07T16:05:58Z</time>
      </trkpt>
      <trkpt lat="45.51428" lon="7.25578">
        <ele>3592.1</ele>
        <time>2021-11-07T16:06:00Z</time>
      </trkpt>
      <trkpt lat="45.5143" lon="7.25576">
        <ele>3591.5</ele>
        <time>2021-11-07T16:06:01Z</time>
      </trkpt>
      <trkpt lat="45.51432" lon="7.25576">
        <ele>3591</ele>
        <time>2021-11-07T16:06:02Z</time>
      </trkpt>
      <trkpt lat="45.51434" lon="7.25576">
        <ele>3590.5</ele>
        <time>2021-11-07T16:06:03Z</time>
      </trkpt>
      <trkpt lat="45.51437" lon="7.25576">
        <ele>3590</ele>
        <time>2021-11-07T16:06:05Z</time>
      </trkpt>
      <trkpt lat="45.51437" lon="7.25576">
        <ele>3589.9</ele>
        <time>2021-11-07T16:06:06Z</time>
      </trkpt>
      <trkpt lat="45.51437" lon="7.25576">
        <ele>3589.8</ele>
        <time>2021-11-07T16:06:07Z</time>
      </trkpt>
      <trkpt lat="45.51438" lon="7.25576">
        <ele>3589.7</ele>
        <time>2021-11-07T16:06:08Z</time>
      </trkpt>
      <trkpt lat="45.51438" lon="7.25576">
        <ele>3589.5</ele>
        <time>2021-11-07T16:06:11Z</time>
      </trkpt>
      <trkpt lat="45.51439" lon="7.25575">
        <ele>3589.5</ele>
        <time>2021-11-07T16:06:18Z</time>
      </trkpt>
      <trkpt lat="45.51439" lon="7.25575">
        <ele>3589.4</ele>
        <time>2021-11-07T16:06:20Z</time>
      </trkpt>
      <trkpt lat="45.51439" lon="7.25578">
        <ele>3588.9</ele>
        <time>2021-11-07T16:06:31Z</time>
      </trkpt>
      <trkpt lat="45.51439" lon="7.25579">
        <ele>3588.8</ele>
        <time>2021-11-07T16:06:37Z</time>
      </trkpt>
      <trkpt lat="45.5144" lon="7.25579">
        <ele>3588.7</ele>
        <time>2021-11-07T16:06:39Z</time>
      </trkpt>
      <trkpt lat="45.5144" lon="7.25578">
        <ele>3588.6</ele>
        <time>2021-11-07T16:06:41Z</time>
      </trkpt>
      <trkpt lat="45.51439" lon="7.25578">
        <ele>3588.5</ele>
        <time>2021-11-07T16:06:45Z</time>
      </trkpt>
      <trkpt lat="45.51439" lon="7.25578">
        <ele>3588.4</ele>
        <time>2021-11-07T16:06:59Z</time>
      </trkpt>
      <trkpt lat="45.51439" lon="7.25578">
        <ele>3588.3</ele>
        <time>2021-11-07T16:07:00Z</time>
      </trkpt>
      <trkpt lat="45.51439" lon="7.25578">
        <ele>3588.3</ele>
        <time>2021-11-07T16:07:01Z</time>
      </trkpt>
      <trkpt lat="45.51439" lon="7.25578">
        <ele>3588.3</ele>
        <time>2021-11-07T16:07:04Z</time>
      </trkpt>
      <trkpt lat="45.51439" lon="7.25578">
        <ele>3588.3</ele>
        <time>2021-11-07T16:07:17Z</time>
      </trkpt>
      <trkpt lat="45.51439" lon="7.25578">
        <ele>3588.3</ele>
        <time>2021-11-07T16:07:18Z</time>
      </trkpt>
      <trkpt lat="45.51439" lon="7.25578">
        <ele>3588.2</ele>
        <time>2021-11-07T16:07:24Z</time>
      </trkpt>
      <trkpt lat="45.5144" lon="7.25578">
        <ele>3587.8</ele>
        <time>2021-11-07T16:07:33Z</time>
      </trkpt>
      <trkpt lat="45.51442" lon="7.25578">
        <ele>3587.5</ele>
        <time>2021-11-07T16:07:34Z</time>
      </trkpt>
      <trkpt lat="45.51445" lon="7.25578">
        <ele>3586.8</ele>
        <time>2021-11-07T16:07:36Z</time>
      </trkpt>
      <trkpt lat="45.51447" lon="7.25577">
        <ele>3586.3</ele>
        <time>2021-11-07T16:07:37Z</time>
      </trkpt>
      <trkpt lat="45.51452" lon="7.25576">
        <ele>3585</ele>
        <time>2021-11-07T16:07:39Z</time>
      </trkpt>
      <trkpt lat="45.51455" lon="7.25576">
        <ele>3584.2</ele>
        <time>2021-11-07T16:07:40Z</time>
      </trkpt>
      <trkpt lat="45.51467" lon="7.25572">
        <ele>3581.4</ele>
        <time>2021-11-07T16:07:43Z</time>
      </trkpt>
      <trkpt lat="45.51477" lon="7.2557">
        <ele>3579.1</ele>
        <time>2021-11-07T16:07:45Z</time>
      </trkpt>
      <trkpt lat="45.51487" lon="7.25568">
        <ele>3576.7</ele>
        <time>2021-11-07T16:07:47Z</time>
      </trkpt>
      <trkpt lat="45.51497" lon="7.25565">
        <ele>3574.3</ele>
        <time>2021-11-07T16:07:49Z</time>
      </trkpt>
      <trkpt lat="45.51512" lon="7.2556">
        <ele>3570.7</ele>
        <time>2021-11-07T16:07:52Z</time>
      </trkpt>
      <trkpt lat="45.51516" lon="7.25559">
        <ele>3569.7</ele>
        <time>2021-11-07T16:07:53Z</time>
      </trkpt>
      <trkpt lat="45.51519" lon="7.25558">
        <ele>3569</ele>
        <time>2021-11-07T16:07:54Z</time>
      </trkpt>
      <trkpt lat="45.5152" lon="7.25555">
        <ele>3568.4</ele>
        <time>2021-11-07T16:07:56Z</time>
      </trkpt>
      <trkpt lat="45.51518" lon="7.25554">
        <ele>3567.9</ele>
        <time>2021-11-07T16:07:57Z</time>
      </trkpt>
      <trkpt lat="45.51517" lon="7.25553">
        <ele>3567.6</ele>
        <time>2021-11-07T16:07:59Z</time>
      </trkpt>
      <trkpt lat="45.51517" lon="7.25554">
        <ele>3567.5</ele>
        <time>2021-11-07T16:08:00Z</time>
      </trkpt>
      <trkpt lat="45.51516" lon="7.25554">
        <ele>3567.3</ele>
        <time>2021-11-07T16:08:04Z</time>
      </trkpt>
      <trkpt lat="45.51516" lon="7.25554">
        <ele>3567.3</ele>
        <time>2021-11-07T16:08:06Z</time>
      </trkpt>
      <trkpt lat="45.51516" lon="7.25554">
        <ele>3567.3</ele>
        <time>2021-11-07T16:08:11Z</time>
      </trkpt>
      <trkpt lat="45.51517" lon="7.25555">
        <ele>3567.1</ele>
        <time>2021-11-07T16:08:13Z</time>
      </trkpt>
      <trkpt lat="45.51517" lon="7.25555">
        <ele>3567.1</ele>
        <time>2021-11-07T16:08:18Z</time>
      </trkpt>
      <trkpt lat="45.51517" lon="7.25555">
        <ele>3567</ele>
        <time>2021-11-07T16:08:22Z</time>
      </trkpt>
      <trkpt lat="45.51517" lon="7.25555">
        <ele>3566.9</ele>
        <time>2021-11-07T16:08:30Z</time>
      </trkpt>
      <trkpt lat="45.51516" lon="7.25555">
        <ele>3566.7</ele>
        <time>2021-11-07T16:08:35Z</time>
      </trkpt>
      <trkpt lat="45.51516" lon="7.25555">
        <ele>3566.7</ele>
        <time>2021-11-07T16:08:38Z</time>
      </trkpt>
      <trkpt lat="45.51516" lon="7.25555">
        <ele>3566.6</ele>
        <time>2021-11-07T16:08:42Z</time>
      </trkpt>
      <trkpt lat="45.51516" lon="7.25555">
        <ele>3566.6</ele>
        <time>2021-11-07T16:08:43Z</time>
      </trkpt>
      <trkpt lat="45.51516" lon="7.25555">
        <ele>3566.6</ele>
        <time>2021-11-07T16:08:45Z</time>
      </trkpt>
      <trkpt lat="45.51516" lon="7.25556">
        <ele>3566.4</ele>
        <time>2021-11-07T16:08:50Z</time>
      </trkpt>
      <trkpt lat="45.51516" lon="7.25556">
        <ele>3566.4</ele>
        <time>2021-11-07T16:08:53Z</time>
      </trkpt>
      <trkpt lat="45.51516" lon="7.25556">
        <ele>3566.4</ele>
        <time>2021-11-07T16:08:55Z</time>
      </trkpt>
      <trkpt lat="45.51516" lon="7.25556">
        <ele>3566.3</ele>
        <time>2021-11-07T16:08:57Z</time>
      </trkpt>
      <trkpt lat="45.51516" lon="7.25556">
        <ele>3566.3</ele>
        <time>2021-11-07T16:08:59Z</time>
      </trkpt>
      <trkpt lat="45.51511" lon="7.25554">
        <ele>3565</ele>
        <time>2021-11-07T16:09:08Z</time>
      </trkpt>
      <trkpt lat="45.51508" lon="7.25553">
        <ele>3564.5</ele>
        <time>2021-11-07T16:09:09Z</time>
      </trkpt>
      <trkpt lat="45.51505" lon="7.25552">
        <ele>3563.7</ele>
        <time>2021-11-07T16:09:10Z</time>
      </trkpt>
      <trkpt lat="45.51497" lon="7.25548">
        <ele>3561.7</ele>
        <time>2021-11-07T16:09:12Z</time>
      </trkpt>
      <trkpt lat="45.51492" lon="7.25544">
        <ele>3560.3</ele>
        <time>2021-11-07T16:09:13Z</time>
      </trkpt>
      <trkpt lat="45.51486" lon="7.2554">
        <ele>3558.7</ele>
        <time>2021-11-07T16:09:14Z</time>
      </trkpt>
      <trkpt lat="45.51479" lon="7.25536">
        <ele>3557.1</ele>
        <time>2021-11-07T16:09:15Z</time>
      </trkpt>
      <trkpt lat="45.51473" lon="7.25532">
        <ele>3555.5</ele>
        <time>2021-11-07T16:09:16Z</time>
      </trkpt>
      <trkpt lat="45.51468" lon="7.25529">
        <ele>3554</ele>
        <time>2021-11-07T16:09:17Z</time>
      </trkpt>
      <trkpt lat="45.51463" lon="7.25525">
        <ele>3552.7</ele>
        <time>2021-11-07T16:09:18Z</time>
      </trkpt>
      <trkpt lat="45.51458" lon="7.25522">
        <ele>3551.4</ele>
        <time>2021-11-07T16:09:19Z</time>
      </trkpt>
      <trkpt lat="45.51453" lon="7.25518">
        <ele>3550.2</ele>
        <time>2021-11-07T16:09:20Z</time>
      </trkpt>
      <trkpt lat="45.51448" lon="7.25515">
        <ele>3548.9</ele>
        <time>2021-11-07T16:09:21Z</time>
      </trkpt>
      <trkpt lat="45.51444" lon="7.25512">
        <ele>3547.8</ele>
        <time>2021-11-07T16:09:22Z</time>
      </trkpt>
      <trkpt lat="45.5144" lon="7.25509">
        <ele>3546.7</ele>
        <time>2021-11-07T16:09:23Z</time>
      </trkpt>
      <trkpt lat="45.51434" lon="7.25503">
        <ele>3545.1</ele>
        <time>2021-11-07T16:09:25Z</time>
      </trkpt>
      <trkpt lat="45.51431" lon="7.25498">
        <ele>3544.2</ele>
        <time>2021-11-07T16:09:27Z</time>
      </trkpt>
      <trkpt lat="45.51432" lon="7.25494">
        <ele>3541.9</ele>
        <time>2021-11-07T16:09:28Z</time>
      </trkpt>
      <trkpt lat="45.51435" lon="7.25491">
        <ele>3539.7</ele>
        <time>2021-11-07T16:09:29Z</time>
      </trkpt>
      <trkpt lat="45.5144" lon="7.2549">
        <ele>3539.4</ele>
        <time>2021-11-07T16:09:30Z</time>
      </trkpt>
      <trkpt lat="45.51446" lon="7.25488">
        <ele>3536.9</ele>
        <time>2021-11-07T16:09:31Z</time>
      </trkpt>
      <trkpt lat="45.51452" lon="7.25487">
        <ele>3536.2</ele>
        <time>2021-11-07T16:09:32Z</time>
      </trkpt>
      <trkpt lat="45.51458" lon="7.25485">
        <ele>3535.4</ele>
        <time>2021-11-07T16:09:33Z</time>
      </trkpt>
      <trkpt lat="45.51466" lon="7.25483">
        <ele>3531.6</ele>
        <time>2021-11-07T16:09:34Z</time>
      </trkpt>
      <trkpt lat="45.51473" lon="7.25481">
        <ele>3530.4</ele>
        <time>2021-11-07T16:09:35Z</time>
      </trkpt>
      <trkpt lat="45.51481" lon="7.25478">
        <ele>3526.4</ele>
        <time>2021-11-07T16:09:36Z</time>
      </trkpt>
      <trkpt lat="45.5149" lon="7.25475">
        <ele>3524.8</ele>
        <time>2021-11-07T16:09:37Z</time>
      </trkpt>
      <trkpt lat="45.51498" lon="7.25473">
        <ele>3521.2</ele>
        <time>2021-11-07T16:09:38Z</time>
      </trkpt>
      <trkpt lat="45.51506" lon="7.2547">
        <ele>3518.2</ele>
        <time>2021-11-07T16:09:39Z</time>
      </trkpt>
      <trkpt lat="45.51514" lon="7.25467">
        <ele>3517.2</ele>
        <time>2021-11-07T16:09:40Z</time>
      </trkpt>
      <trkpt lat="45.51522" lon="7.25464">
        <ele>3514</ele>
        <time>2021-11-07T16:09:41Z</time>
      </trkpt>
      <trkpt lat="45.5153" lon="7.25461">
        <ele>3511.1</ele>
        <time>2021-11-07T16:09:42Z</time>
      </trkpt>
      <trkpt lat="45.51537" lon="7.25458">
        <ele>3507.5</ele>
        <time>2021-11-07T16:09:43Z</time>
      </trkpt>
      <trkpt lat="45.51544" lon="7.25455">
        <ele>3506.7</ele>
        <time>2021-11-07T16:09:44Z</time>
      </trkpt>
      <trkpt lat="45.5155" lon="7.25452">
        <ele>3503.4</ele>
        <time>2021-11-07T16:09:45Z</time>
      </trkpt>
      <trkpt lat="45.51554" lon="7.25449">
        <ele>3500.3</ele>
        <time>2021-11-07T16:09:46Z</time>
      </trkpt>
      <trkpt lat="45.51555" lon="7.25444">
        <ele>3497.8</ele>
        <time>2021-11-07T16:09:47Z</time>
      </trkpt>
      <trkpt lat="45.51549" lon="7.25438">
        <ele>3495.8</ele>
        <time>2021-11-07T16:09:49Z</time>
      </trkpt>
      <trkpt lat="45.51547" lon="7.25437">
        <ele>3496.6</ele>
        <time>2021-11-07T16:09:50Z</time>
      </trkpt>
      <trkpt lat="45.51545" lon="7.25437">
        <ele>3497.4</ele>
        <time>2021-11-07T16:09:51Z</time>
      </trkpt>
      <trkpt lat="45.51545" lon="7.25437">
        <ele>3497.6</ele>
        <time>2021-11-07T16:09:52Z</time>
      </trkpt>
      <trkpt lat="45.51545" lon="7.25436">
        <ele>3494.9</ele>
        <time>2021-11-07T16:09:53Z</time>
      </trkpt>
      <trkpt lat="45.51546" lon="7.25436">
        <ele>3495.1</ele>
        <time>2021-11-07T16:09:54Z</time>
      </trkpt>
      <trkpt lat="45.51545" lon="7.25436">
        <ele>3495.3</ele>
        <time>2021-11-07T16:09:58Z</time>
      </trkpt>
      <trkpt lat="45.51545" lon="7.25436">
        <ele>3495.5</ele>
        <time>2021-11-07T16:09:59Z</time>
      </trkpt>
      <trkpt lat="45.51545" lon="7.25436">
        <ele>3495.7</ele>
        <time>2021-11-07T16:10:10Z</time>
      </trkpt>
      <trkpt lat="45.51545" lon="7.25436">
        <ele>3495.9</ele>
        <time>2021-11-07T16:10:18Z</time>
      </trkpt>
      <trkpt lat="45.51542" lon="7.25433">
        <ele>3496.7</ele>
        <time>2021-11-07T16:10:20Z</time>
      </trkpt>
      <trkpt lat="45.51539" lon="7.2543">
        <ele>3494.7</ele>
        <time>2021-11-07T16:10:21Z</time>
      </trkpt>
      <trkpt lat="45.51536" lon="7.25426">
        <ele>3492.9</ele>
        <time>2021-11-07T16:10:22Z</time>
      </trkpt>
      <trkpt lat="45.5153" lon="7.25417">
        <ele>3489.4</ele>
        <time>2021-11-07T16:10:24Z</time>
      </trkpt>
      <trkpt lat="45.51528" lon="7.25416">
        <ele>3489.6</ele>
        <time>2021-11-07T16:10:25Z</time>
      </trkpt>
      <trkpt lat="45.51528" lon="7.25416">
        <ele>3490.5</ele>
        <time>2021-11-07T16:10:26Z</time>
      </trkpt>
      <trkpt lat="45.51527" lon="7.25414">
        <ele>3488.2</ele>
        <time>2021-11-07T16:10:27Z</time>
      </trkpt>
      <trkpt lat="45.51526" lon="7.25412">
        <ele>3488.4</ele>
        <time>2021-11-07T16:10:28Z</time>
      </trkpt>
      <trkpt lat="45.51523" lon="7.25411">
        <ele>3486.9</ele>
        <time>2021-11-07T16:10:29Z</time>
      </trkpt>
      <trkpt lat="45.5152" lon="7.25409">
        <ele>3487.9</ele>
        <time>2021-11-07T16:10:30Z</time>
      </trkpt>
      <trkpt lat="45.51517" lon="7.25408">
        <ele>3488.8</ele>
        <time>2021-11-07T16:10:31Z</time>
      </trkpt>
      <trkpt lat="45.51515" lon="7.25406">
        <ele>3487.1</ele>
        <time>2021-11-07T16:10:32Z</time>
      </trkpt>
      <trkpt lat="45.51515" lon="7.25403">
        <ele>3487.3</ele>
        <time>2021-11-07T16:10:33Z</time>
      </trkpt>
      <trkpt lat="45.51517" lon="7.254">
        <ele>3484.3</ele>
        <time>2021-11-07T16:10:34Z</time>
      </trkpt>
      <trkpt lat="45.5152" lon="7.25398">
        <ele>3481.3</ele>
        <time>2021-11-07T16:10:35Z</time>
      </trkpt>
      <trkpt lat="45.51523" lon="7.25394">
        <ele>3480.8</ele>
        <time>2021-11-07T16:10:36Z</time>
      </trkpt>
      <trkpt lat="45.51527" lon="7.25391">
        <ele>3477.6</ele>
        <time>2021-11-07T16:10:37Z</time>
      </trkpt>
      <trkpt lat="45.51531" lon="7.25387">
        <ele>3473.8</ele>
        <time>2021-11-07T16:10:38Z</time>
      </trkpt>
      <trkpt lat="45.51535" lon="7.25386">
        <ele>3473.3</ele>
        <time>2021-11-07T16:10:39Z</time>
      </trkpt>
      <trkpt lat="45.51537" lon="7.25385">
        <ele>3471</ele>
        <time>2021-11-07T16:10:40Z</time>
      </trkpt>
      <trkpt lat="45.51537" lon="7.25385">
        <ele>3470.6</ele>
        <time>2021-11-07T16:10:41Z</time>
      </trkpt>
      <trkpt lat="45.51538" lon="7.25385">
        <ele>3470.8</ele>
        <time>2021-11-07T16:10:43Z</time>
      </trkpt>
      <trkpt lat="45.51538" lon="7.25386">
        <ele>3473.5</ele>
        <time>2021-11-07T16:10:47Z</time>
      </trkpt>
      <trkpt lat="45.51539" lon="7.25383">
        <ele>3471.2</ele>
        <time>2021-11-07T16:10:51Z</time>
      </trkpt>
      <trkpt lat="45.5154" lon="7.25378">
        <ele>3469</ele>
        <time>2021-11-07T16:10:53Z</time>
      </trkpt>
      <trkpt lat="45.51543" lon="7.25374">
        <ele>3466.4</ele>
        <time>2021-11-07T16:10:55Z</time>
      </trkpt>
      <trkpt lat="45.51544" lon="7.25372">
        <ele>3464</ele>
        <time>2021-11-07T16:10:57Z</time>
      </trkpt>
      <trkpt lat="45.51542" lon="7.25371">
        <ele>3464.7</ele>
        <time>2021-11-07T16:10:59Z</time>
      </trkpt>
      <trkpt lat="45.51542" lon="7.25372">
        <ele>3464.9</ele>
        <time>2021-11-07T16:11:00Z</time>
      </trkpt>
      <trkpt lat="45.5154" lon="7.25372">
        <ele>3465.1</ele>
        <time>2021-11-07T16:11:06Z</time>
      </trkpt>
      <trkpt lat="45.5154" lon="7.25372">
        <ele>3465.3</ele>
        <time>2021-11-07T16:11:09Z</time>
      </trkpt>
      <trkpt lat="45.5154" lon="7.25372">
        <ele>3465.5</ele>
        <time>2021-11-07T16:11:10Z</time>
      </trkpt>
      <trkpt lat="45.51537" lon="7.2537">
        <ele>3466.2</ele>
        <time>2021-11-07T16:11:17Z</time>
      </trkpt>
      <trkpt lat="45.51536" lon="7.25369">
        <ele>3467</ele>
        <time>2021-11-07T16:11:18Z</time>
      </trkpt>
      <trkpt lat="45.51535" lon="7.25369">
        <ele>3467.2</ele>
        <time>2021-11-07T16:11:22Z</time>
      </trkpt>
      <trkpt lat="45.51537" lon="7.25366">
        <ele>3465.3</ele>
        <time>2021-11-07T16:11:26Z</time>
      </trkpt>
      <trkpt lat="45.5154" lon="7.25363">
        <ele>3462.5</ele>
        <time>2021-11-07T16:11:28Z</time>
      </trkpt>
      <trkpt lat="45.51542" lon="7.25362">
        <ele>3462.7</ele>
        <time>2021-11-07T16:11:29Z</time>
      </trkpt>
      <trkpt lat="45.51543" lon="7.2536">
        <ele>3462.9</ele>
        <time>2021-11-07T16:11:30Z</time>
      </trkpt>
      <trkpt lat="45.51543" lon="7.25358">
        <ele>3461.1</ele>
        <time>2021-11-07T16:11:31Z</time>
      </trkpt>
      <trkpt lat="45.51543" lon="7.25357">
        <ele>3461.3</ele>
        <time>2021-11-07T16:11:32Z</time>
      </trkpt>
      <trkpt lat="45.51543" lon="7.25357">
        <ele>3461.5</ele>
        <time>2021-11-07T16:11:35Z</time>
      </trkpt>
      <trkpt lat="45.51542" lon="7.25358">
        <ele>3461.7</ele>
        <time>2021-11-07T16:11:42Z</time>
      </trkpt>
      <trkpt lat="45.51542" lon="7.25358">
        <ele>3461.8</ele>
        <time>2021-11-07T16:11:55Z</time>
      </trkpt>
      <trkpt lat="45.51543" lon="7.25358">
        <ele>3462</ele>
        <time>2021-11-07T16:11:59Z</time>
      </trkpt>
      <trkpt lat="45.51539" lon="7.25355">
        <ele>3460.7</ele>
        <time>2021-11-07T16:12:02Z</time>
      </trkpt>
      <trkpt lat="45.51537" lon="7.25354">
        <ele>3461.4</ele>
        <time>2021-11-07T16:12:03Z</time>
      </trkpt>
      <trkpt lat="45.51535" lon="7.25354">
        <ele>3461.6</ele>
        <time>2021-11-07T16:12:04Z</time>
      </trkpt>
      <trkpt lat="45.51533" lon="7.25354">
        <ele>3462.3</ele>
        <time>2021-11-07T16:12:06Z</time>
      </trkpt>
      <trkpt lat="45.51532" lon="7.25353">
        <ele>3462.5</ele>
        <time>2021-11-07T16:12:08Z</time>
      </trkpt>
      <trkpt lat="45.51529" lon="7.25351">
        <ele>3461.3</ele>
        <time>2021-11-07T16:12:11Z</time>
      </trkpt>
      <trkpt lat="45.51528" lon="7.2535">
        <ele>3461.5</ele>
        <time>2021-11-07T16:12:12Z</time>
      </trkpt>
      <trkpt lat="45.51528" lon="7.2535">
        <ele>3461.7</ele>
        <time>2021-11-07T16:12:13Z</time>
      </trkpt>
      <trkpt lat="45.51527" lon="7.25349">
        <ele>3462.4</ele>
        <time>2021-11-07T16:12:14Z</time>
      </trkpt>
      <trkpt lat="45.51527" lon="7.25349">
        <ele>3462.6</ele>
        <time>2021-11-07T16:12:15Z</time>
      </trkpt>
      <trkpt lat="45.51527" lon="7.25349">
        <ele>3462.8</ele>
        <time>2021-11-07T16:12:22Z</time>
      </trkpt>
      <trkpt lat="45.51528" lon="7.2535">
        <ele>3462.4</ele>
        <time>2021-11-07T16:12:26Z</time>
      </trkpt>
      <trkpt lat="45.51531" lon="7.25344">
        <ele>3460.6</ele>
        <time>2021-11-07T16:12:31Z</time>
      </trkpt>
      <trkpt lat="45.51535" lon="7.25341">
        <ele>3457.9</ele>
        <time>2021-11-07T16:12:33Z</time>
      </trkpt>
      <trkpt lat="45.51537" lon="7.25339">
        <ele>3458.1</ele>
        <time>2021-11-07T16:12:34Z</time>
      </trkpt>
      <trkpt lat="45.51537" lon="7.25337">
        <ele>3456.1</ele>
        <time>2021-11-07T16:12:35Z</time>
      </trkpt>
      <trkpt lat="45.51537" lon="7.25334">
        <ele>3455</ele>
        <time>2021-11-07T16:12:36Z</time>
      </trkpt>
      <trkpt lat="45.51535" lon="7.25331">
        <ele>3455.2</ele>
        <time>2021-11-07T16:12:37Z</time>
      </trkpt>
      <trkpt lat="45.51533" lon="7.25329">
        <ele>3454.2</ele>
        <time>2021-11-07T16:12:40Z</time>
      </trkpt>
      <trkpt lat="45.51533" lon="7.25329">
        <ele>3454.4</ele>
        <time>2021-11-07T16:12:41Z</time>
      </trkpt>
      <trkpt lat="45.51532" lon="7.2533">
        <ele>3456.2</ele>
        <time>2021-11-07T16:12:50Z</time>
      </trkpt>
      <trkpt lat="45.51525" lon="7.25325">
        <ele>3455.7</ele>
        <time>2021-11-07T16:12:56Z</time>
      </trkpt>
      <trkpt lat="45.51523" lon="7.25323">
        <ele>3454.8</ele>
        <time>2021-11-07T16:12:59Z</time>
      </trkpt>
      <trkpt lat="45.51522" lon="7.25323">
        <ele>3455.5</ele>
        <time>2021-11-07T16:13:01Z</time>
      </trkpt>
      <trkpt lat="45.51519" lon="7.25321">
        <ele>3455.7</ele>
        <time>2021-11-07T16:13:06Z</time>
      </trkpt>
      <trkpt lat="45.51517" lon="7.25318">
        <ele>3454.8</ele>
        <time>2021-11-07T16:13:09Z</time>
      </trkpt>
      <trkpt lat="45.51516" lon="7.25314">
        <ele>3453.4</ele>
        <time>2021-11-07T16:13:11Z</time>
      </trkpt>
      <trkpt lat="45.51511" lon="7.25308">
        <ele>3451.1</ele>
        <time>2021-11-07T16:13:16Z</time>
      </trkpt>
      <trkpt lat="45.51508" lon="7.25306">
        <ele>3451.6</ele>
        <time>2021-11-07T16:13:19Z</time>
      </trkpt>
      <trkpt lat="45.51508" lon="7.25306">
        <ele>3451.8</ele>
        <time>2021-11-07T16:13:21Z</time>
      </trkpt>
      <trkpt lat="45.51506" lon="7.25306">
        <ele>3452.4</ele>
        <time>2021-11-07T16:13:24Z</time>
      </trkpt>
      <trkpt lat="45.51504" lon="7.25307">
        <ele>3453.1</ele>
        <time>2021-11-07T16:13:30Z</time>
      </trkpt>
      <trkpt lat="45.51503" lon="7.25307">
        <ele>3453.3</ele>
        <time>2021-11-07T16:13:31Z</time>
      </trkpt>
      <trkpt lat="45.51502" lon="7.25307">
        <ele>3453.4</ele>
        <time>2021-11-07T16:13:33Z</time>
      </trkpt>
      <trkpt lat="45.51501" lon="7.25307">
        <ele>3453.6</ele>
        <time>2021-11-07T16:13:34Z</time>
      </trkpt>
      <trkpt lat="45.515" lon="7.25307">
        <ele>3454.3</ele>
        <time>2021-11-07T16:13:36Z</time>
      </trkpt>
      <trkpt lat="45.51499" lon="7.25307">
        <ele>3454.5</ele>
        <time>2021-11-07T16:13:38Z</time>
      </trkpt>
      <trkpt lat="45.51498" lon="7.25307">
        <ele>3454.7</ele>
        <time>2021-11-07T16:13:40Z</time>
      </trkpt>
      <trkpt lat="45.51498" lon="7.25306">
        <ele>3455.3</ele>
        <time>2021-11-07T16:13:41Z</time>
      </trkpt>
      <trkpt lat="45.51496" lon="7.25299">
        <ele>3451.7</ele>
        <time>2021-11-07T16:13:49Z</time>
      </trkpt>
      <trkpt lat="45.51493" lon="7.25294">
        <ele>3450.5</ele>
        <time>2021-11-07T16:13:53Z</time>
      </trkpt>
      <trkpt lat="45.51492" lon="7.25292">
        <ele>3450.7</ele>
        <time>2021-11-07T16:13:56Z</time>
      </trkpt>
      <trkpt lat="45.51493" lon="7.25289">
        <ele>3449.2</ele>
        <time>2021-11-07T16:13:57Z</time>
      </trkpt>
      <trkpt lat="45.51496" lon="7.25285">
        <ele>3447.5</ele>
        <time>2021-11-07T16:13:59Z</time>
      </trkpt>
      <trkpt lat="45.51497" lon="7.25284">
        <ele>3447.7</ele>
        <time>2021-11-07T16:14:01Z</time>
      </trkpt>
      <trkpt lat="45.51497" lon="7.25285">
        <ele>3447.9</ele>
        <time>2021-11-07T16:14:04Z</time>
      </trkpt>
      <trkpt lat="45.51497" lon="7.25284">
        <ele>3448.1</ele>
        <time>2021-11-07T16:14:05Z</time>
      </trkpt>
      <trkpt lat="45.51498" lon="7.25284">
        <ele>3448.3</ele>
        <time>2021-11-07T16:14:08Z</time>
      </trkpt>
      <trkpt lat="45.51502" lon="7.25281">
        <ele>3446.2</ele>
        <time>2021-11-07T16:14:13Z</time>
      </trkpt>
      <trkpt lat="45.51503" lon="7.25281">
        <ele>3446.4</ele>
        <time>2021-11-07T16:14:14Z</time>
      </trkpt>
      <trkpt lat="45.51503" lon="7.25281">
        <ele>3446.7</ele>
        <time>2021-11-07T16:14:16Z</time>
      </trkpt>
      <trkpt lat="45.51503" lon="7.25281">
        <ele>3446.9</ele>
        <time>2021-11-07T16:14:18Z</time>
      </trkpt>
      <trkpt lat="45.51503" lon="7.25281">
        <ele>3447.2</ele>
        <time>2021-11-07T16:14:22Z</time>
      </trkpt>
      <trkpt lat="45.51503" lon="7.25281">
        <ele>3447.4</ele>
        <time>2021-11-07T16:14:31Z</time>
      </trkpt>
      <trkpt lat="45.51503" lon="7.25281">
        <ele>3447.7</ele>
        <time>2021-11-07T16:14:33Z</time>
      </trkpt>
      <trkpt lat="45.51503" lon="7.25281">
        <ele>3447.9</ele>
        <time>2021-11-07T16:14:37Z</time>
      </trkpt>
      <trkpt lat="45.51503" lon="7.25281">
        <ele>3448.1</ele>
        <time>2021-11-07T16:14:41Z</time>
      </trkpt>
      <trkpt lat="45.51503" lon="7.25281">
        <ele>3448.4</ele>
        <time>2021-11-07T16:14:47Z</time>
      </trkpt>
      <trkpt lat="45.51502" lon="7.25281">
        <ele>3448.6</ele>
        <time>2021-11-07T16:14:50Z</time>
      </trkpt>
      <trkpt lat="45.51502" lon="7.25281">
        <ele>3448.8</ele>
        <time>2021-11-07T16:14:53Z</time>
      </trkpt>
      <trkpt lat="45.51502" lon="7.2528">
        <ele>3449</ele>
        <time>2021-11-07T16:15:01Z</time>
      </trkpt>
      <trkpt lat="45.51501" lon="7.25278">
        <ele>3449.5</ele>
        <time>2021-11-07T16:15:02Z</time>
      </trkpt>
      <trkpt lat="45.51492" lon="7.25274">
        <ele>3449</ele>
        <time>2021-11-07T16:15:05Z</time>
      </trkpt>
      <trkpt lat="45.51487" lon="7.25273">
        <ele>3448.4</ele>
        <time>2021-11-07T16:15:07Z</time>
      </trkpt>
      <trkpt lat="45.51483" lon="7.25269">
        <ele>3447.5</ele>
        <time>2021-11-07T16:15:11Z</time>
      </trkpt>
      <trkpt lat="45.51482" lon="7.25268">
        <ele>3448.1</ele>
        <time>2021-11-07T16:15:12Z</time>
      </trkpt>
      <trkpt lat="45.51481" lon="7.25266">
        <ele>3448.3</ele>
        <time>2021-11-07T16:15:14Z</time>
      </trkpt>
      <trkpt lat="45.5148" lon="7.25265">
        <ele>3448.8</ele>
        <time>2021-11-07T16:15:16Z</time>
      </trkpt>
      <trkpt lat="45.51479" lon="7.25265">
        <ele>3449</ele>
        <time>2021-11-07T16:15:19Z</time>
      </trkpt>
      <trkpt lat="45.51477" lon="7.25266">
        <ele>3449.1</ele>
        <time>2021-11-07T16:15:21Z</time>
      </trkpt>
      <trkpt lat="45.51473" lon="7.25266">
        <ele>3450.1</ele>
        <time>2021-11-07T16:15:27Z</time>
      </trkpt>
      <trkpt lat="45.51464" lon="7.25265">
        <ele>3451.6</ele>
        <time>2021-11-07T16:15:35Z</time>
      </trkpt>
      <trkpt lat="45.51463" lon="7.25265">
        <ele>3450.2</ele>
        <time>2021-11-07T16:15:38Z</time>
      </trkpt>
      <trkpt lat="45.51462" lon="7.25265">
        <ele>3450.8</ele>
        <time>2021-11-07T16:15:40Z</time>
      </trkpt>
      <trkpt lat="45.51461" lon="7.25264">
        <ele>3451</ele>
        <time>2021-11-07T16:15:41Z</time>
      </trkpt>
      <trkpt lat="45.51461" lon="7.25265">
        <ele>3451.1</ele>
        <time>2021-11-07T16:15:42Z</time>
      </trkpt>
      <trkpt lat="45.51459" lon="7.25265">
        <ele>3451.3</ele>
        <time>2021-11-07T16:15:46Z</time>
      </trkpt>
      <trkpt lat="45.51459" lon="7.25265">
        <ele>3451.4</ele>
        <time>2021-11-07T16:15:47Z</time>
      </trkpt>
      <trkpt lat="45.51459" lon="7.25265">
        <ele>3452</ele>
        <time>2021-11-07T16:15:48Z</time>
      </trkpt>
      <trkpt lat="45.51458" lon="7.25264">
        <ele>3452.2</ele>
        <time>2021-11-07T16:15:50Z</time>
      </trkpt>
      <trkpt lat="45.51451" lon="7.25259">
        <ele>3451.5</ele>
        <time>2021-11-07T16:15:56Z</time>
      </trkpt>
      <trkpt lat="45.51452" lon="7.25256">
        <ele>3450.8</ele>
        <time>2021-11-07T16:15:57Z</time>
      </trkpt>
      <trkpt lat="45.51453" lon="7.25254">
        <ele>3450.3</ele>
        <time>2021-11-07T16:15:58Z</time>
      </trkpt>
      <trkpt lat="45.51454" lon="7.25253">
        <ele>3450</ele>
        <time>2021-11-07T16:15:59Z</time>
      </trkpt>
      <trkpt lat="45.51454" lon="7.25252">
        <ele>3449.6</ele>
        <time>2021-11-07T16:16:00Z</time>
      </trkpt>
      <trkpt lat="45.51455" lon="7.2525">
        <ele>3449.1</ele>
        <time>2021-11-07T16:16:02Z</time>
      </trkpt>
      <trkpt lat="45.51455" lon="7.25248">
        <ele>3448.7</ele>
        <time>2021-11-07T16:16:06Z</time>
      </trkpt>
      <trkpt lat="45.51455" lon="7.25248">
        <ele>3448.6</ele>
        <time>2021-11-07T16:16:07Z</time>
      </trkpt>
      <trkpt lat="45.5145" lon="7.25247">
        <ele>3447.2</ele>
        <time>2021-11-07T16:16:13Z</time>
      </trkpt>
      <trkpt lat="45.51451" lon="7.25247">
        <ele>3447</ele>
        <time>2021-11-07T16:16:21Z</time>
      </trkpt>
      <trkpt lat="45.51451" lon="7.25247">
        <ele>3447</ele>
        <time>2021-11-07T16:16:22Z</time>
      </trkpt>
      <trkpt lat="45.5145" lon="7.25247">
        <ele>3446.7</ele>
        <time>2021-11-07T16:16:25Z</time>
      </trkpt>
      <trkpt lat="45.51444" lon="7.25243">
        <ele>3444.6</ele>
        <time>2021-11-07T16:16:29Z</time>
      </trkpt>
      <trkpt lat="45.51442" lon="7.25241">
        <ele>3443.9</ele>
        <time>2021-11-07T16:16:30Z</time>
      </trkpt>
      <trkpt lat="45.5144" lon="7.2524">
        <ele>3443.1</ele>
        <time>2021-11-07T16:16:31Z</time>
      </trkpt>
      <trkpt lat="45.51436" lon="7.25239">
        <ele>3441.9</ele>
        <time>2021-11-07T16:16:33Z</time>
      </trkpt>
      <trkpt lat="45.51435" lon="7.25237">
        <ele>3441.4</ele>
        <time>2021-11-07T16:16:34Z</time>
      </trkpt>
      <trkpt lat="45.51435" lon="7.25234">
        <ele>3440.8</ele>
        <time>2021-11-07T16:16:35Z</time>
      </trkpt>
      <trkpt lat="45.5144" lon="7.2523">
        <ele>3439.1</ele>
        <time>2021-11-07T16:16:37Z</time>
      </trkpt>
      <trkpt lat="45.51442" lon="7.25228">
        <ele>3438.2</ele>
        <time>2021-11-07T16:16:38Z</time>
      </trkpt>
      <trkpt lat="45.51447" lon="7.25224">
        <ele>3436.5</ele>
        <time>2021-11-07T16:16:40Z</time>
      </trkpt>
      <trkpt lat="45.51451" lon="7.2522">
        <ele>3434.9</ele>
        <time>2021-11-07T16:16:42Z</time>
      </trkpt>
      <trkpt lat="45.51454" lon="7.25214">
        <ele>3433.5</ele>
        <time>2021-11-07T16:16:44Z</time>
      </trkpt>
      <trkpt lat="45.51454" lon="7.252">
        <ele>3430.3</ele>
        <time>2021-11-07T16:16:47Z</time>
      </trkpt>
      <trkpt lat="45.51454" lon="7.25196">
        <ele>3429.4</ele>
        <time>2021-11-07T16:16:48Z</time>
      </trkpt>
      <trkpt lat="45.51453" lon="7.25191">
        <ele>3428.5</ele>
        <time>2021-11-07T16:16:49Z</time>
      </trkpt>
      <trkpt lat="45.51452" lon="7.25187">
        <ele>3427.5</ele>
        <time>2021-11-07T16:16:50Z</time>
      </trkpt>
      <trkpt lat="45.51452" lon="7.25183">
        <ele>3426.5</ele>
        <time>2021-11-07T16:16:51Z</time>
      </trkpt>
      <trkpt lat="45.51455" lon="7.25175">
        <ele>3424.6</ele>
        <time>2021-11-07T16:16:53Z</time>
      </trkpt>
      <trkpt lat="45.51457" lon="7.25172">
        <ele>3423.6</ele>
        <time>2021-11-07T16:16:54Z</time>
      </trkpt>
      <trkpt lat="45.5146" lon="7.25172">
        <ele>3422.9</ele>
        <time>2021-11-07T16:16:55Z</time>
      </trkpt>
      <trkpt lat="45.51461" lon="7.25172">
        <ele>3422.4</ele>
        <time>2021-11-07T16:16:57Z</time>
      </trkpt>
      <trkpt lat="45.51462" lon="7.25172">
        <ele>3422.1</ele>
        <time>2021-11-07T16:16:58Z</time>
      </trkpt>
      <trkpt lat="45.51463" lon="7.25171">
        <ele>3421.7</ele>
        <time>2021-11-07T16:16:59Z</time>
      </trkpt>
      <trkpt lat="45.51465" lon="7.25169">
        <ele>3421.1</ele>
        <time>2021-11-07T16:17:00Z</time>
      </trkpt>
      <trkpt lat="45.51467" lon="7.25166">
        <ele>3420.2</ele>
        <time>2021-11-07T16:17:01Z</time>
      </trkpt>
      <trkpt lat="45.51469" lon="7.25164">
        <ele>3419.4</ele>
        <time>2021-11-07T16:17:02Z</time>
      </trkpt>
      <trkpt lat="45.5147" lon="7.25162">
        <ele>3418.9</ele>
        <time>2021-11-07T16:17:03Z</time>
      </trkpt>
      <trkpt lat="45.51473" lon="7.25161">
        <ele>3417.9</ele>
        <time>2021-11-07T16:17:04Z</time>
      </trkpt>
      <trkpt lat="45.51476" lon="7.2516">
        <ele>3416.9</ele>
        <time>2021-11-07T16:17:05Z</time>
      </trkpt>
      <trkpt lat="45.51479" lon="7.2516">
        <ele>3416.1</ele>
        <time>2021-11-07T16:17:07Z</time>
      </trkpt>
      <trkpt lat="45.51479" lon="7.2516">
        <ele>3415.9</ele>
        <time>2021-11-07T16:17:09Z</time>
      </trkpt>
      <trkpt lat="45.51479" lon="7.2516">
        <ele>3415.9</ele>
        <time>2021-11-07T16:17:10Z</time>
      </trkpt>
      <trkpt lat="45.51482" lon="7.25159">
        <ele>3415.1</ele>
        <time>2021-11-07T16:17:12Z</time>
      </trkpt>
      <trkpt lat="45.51484" lon="7.25158">
        <ele>3414.3</ele>
        <time>2021-11-07T16:17:13Z</time>
      </trkpt>
      <trkpt lat="45.51487" lon="7.25158">
        <ele>3413.5</ele>
        <time>2021-11-07T16:17:14Z</time>
      </trkpt>
      <trkpt lat="45.51493" lon="7.25159">
        <ele>3411.6</ele>
        <time>2021-11-07T16:17:16Z</time>
      </trkpt>
      <trkpt lat="45.515" lon="7.2516">
        <ele>3409.5</ele>
        <time>2021-11-07T16:17:18Z</time>
      </trkpt>
      <trkpt lat="45.51502" lon="7.25161">
        <ele>3408.7</ele>
        <time>2021-11-07T16:17:20Z</time>
      </trkpt>
      <trkpt lat="45.51502" lon="7.25161">
        <ele>3408.7</ele>
        <time>2021-11-07T16:17:21Z</time>
      </trkpt>
      <trkpt lat="45.51503" lon="7.2516">
        <ele>3408.3</ele>
        <time>2021-11-07T16:17:31Z</time>
      </trkpt>
      <trkpt lat="45.51504" lon="7.25159">
        <ele>3408</ele>
        <time>2021-11-07T16:17:32Z</time>
      </trkpt>
      <trkpt lat="45.51504" lon="7.25153">
        <ele>3406.6</ele>
        <time>2021-11-07T16:17:35Z</time>
      </trkpt>
      <trkpt lat="45.51503" lon="7.25151">
        <ele>3406.1</ele>
        <time>2021-11-07T16:17:36Z</time>
      </trkpt>
      <trkpt lat="45.51502" lon="7.25148">
        <ele>3405.4</ele>
        <time>2021-11-07T16:17:37Z</time>
      </trkpt>
      <trkpt lat="45.51501" lon="7.25144">
        <ele>3404.5</ele>
        <time>2021-11-07T16:17:38Z</time>
      </trkpt>
      <trkpt lat="45.51503" lon="7.25135">
        <ele>3402.3</ele>
        <time>2021-11-07T16:17:40Z</time>
      </trkpt>
      <trkpt lat="45.51506" lon="7.25133">
        <ele>3401.2</ele>
        <time>2021-11-07T16:17:41Z</time>
      </trkpt>
      <trkpt lat="45.51508" lon="7.25131">
        <ele>3400.5</ele>
        <time>2021-11-07T16:17:42Z</time>
      </trkpt>
      <trkpt lat="45.51509" lon="7.25128">
        <ele>3399.8</ele>
        <time>2021-11-07T16:17:43Z</time>
      </trkpt>
      <trkpt lat="45.51511" lon="7.25121">
        <ele>3398.1</ele>
        <time>2021-11-07T16:17:45Z</time>
      </trkpt>
      <trkpt lat="45.51513" lon="7.25118">
        <ele>3397.3</ele>
        <time>2021-11-07T16:17:46Z</time>
      </trkpt>
      <trkpt lat="45.51514" lon="7.25115">
        <ele>3396.6</ele>
        <time>2021-11-07T16:17:47Z</time>
      </trkpt>
      <trkpt lat="45.51514" lon="7.25113">
        <ele>3396.1</ele>
        <time>2021-11-07T16:17:48Z</time>
      </trkpt>
      <trkpt lat="45.51513" lon="7.25112">
        <ele>3395.9</ele>
        <time>2021-11-07T16:17:49Z</time>
      </trkpt>
      <trkpt lat="45.51513" lon="7.25112">
        <ele>3395.8</ele>
        <time>2021-11-07T16:17:50Z</time>
      </trkpt>
      <trkpt lat="45.51513" lon="7.25112">
        <ele>3395.8</ele>
        <time>2021-11-07T16:17:53Z</time>
      </trkpt>
      <trkpt lat="45.51509" lon="7.25109">
        <ele>3394.4</ele>
        <time>2021-11-07T16:17:57Z</time>
      </trkpt>
      <trkpt lat="45.51504" lon="7.25105">
        <ele>3392.5</ele>
        <time>2021-11-07T16:17:59Z</time>
      </trkpt>
      <trkpt lat="45.51501" lon="7.25103">
        <ele>3391.5</ele>
        <time>2021-11-07T16:18:00Z</time>
      </trkpt>
      <trkpt lat="45.51499" lon="7.25102">
        <ele>3390.9</ele>
        <time>2021-11-07T16:18:01Z</time>
      </trkpt>
      <trkpt lat="45.51496" lon="7.25101">
        <ele>3389.8</ele>
        <time>2021-11-07T16:18:04Z</time>
      </trkpt>
      <trkpt lat="45.51496" lon="7.25101">
        <ele>3389.8</ele>
        <time>2021-11-07T16:18:05Z</time>
      </trkpt>
      <trkpt lat="45.51494" lon="7.25103">
        <ele>3389.2</ele>
        <time>2021-11-07T16:18:09Z</time>
      </trkpt>
      <trkpt lat="45.51493" lon="7.25103">
        <ele>3388.9</ele>
        <time>2021-11-07T16:18:14Z</time>
      </trkpt>
      <trkpt lat="45.51491" lon="7.25104">
        <ele>3388.3</ele>
        <time>2021-11-07T16:18:24Z</time>
      </trkpt>
      <trkpt lat="45.51491" lon="7.25105">
        <ele>3388</ele>
        <time>2021-11-07T16:18:31Z</time>
      </trkpt>
      <trkpt lat="45.5149" lon="7.25105">
        <ele>3387.8</ele>
        <time>2021-11-07T16:18:35Z</time>
      </trkpt>
      <trkpt lat="45.51487" lon="7.25099">
        <ele>3386.2</ele>
        <time>2021-11-07T16:18:44Z</time>
      </trkpt>
      <trkpt lat="45.51484" lon="7.25094">
        <ele>3384.7</ele>
        <time>2021-11-07T16:18:48Z</time>
      </trkpt>
      <trkpt lat="45.51484" lon="7.25091">
        <ele>3384.1</ele>
        <time>2021-11-07T16:18:49Z</time>
      </trkpt>
      <trkpt lat="45.51485" lon="7.25088">
        <ele>3383.4</ele>
        <time>2021-11-07T16:18:50Z</time>
      </trkpt>
      <trkpt lat="45.51486" lon="7.25084">
        <ele>3382.4</ele>
        <time>2021-11-07T16:18:51Z</time>
      </trkpt>
      <trkpt lat="45.51487" lon="7.25079">
        <ele>3381.3</ele>
        <time>2021-11-07T16:18:52Z</time>
      </trkpt>
      <trkpt lat="45.5149" lon="7.25075">
        <ele>3380.1</ele>
        <time>2021-11-07T16:18:53Z</time>
      </trkpt>
      <trkpt lat="45.51494" lon="7.25074">
        <ele>3378.9</ele>
        <time>2021-11-07T16:18:54Z</time>
      </trkpt>
      <trkpt lat="45.51497" lon="7.25074">
        <ele>3375.9</ele>
        <time>2021-11-07T16:18:55Z</time>
      </trkpt>
      <trkpt lat="45.51498" lon="7.25075">
        <ele>3375.3</ele>
        <time>2021-11-07T16:18:56Z</time>
      </trkpt>
      <trkpt lat="45.51499" lon="7.25075">
        <ele>3375.1</ele>
        <time>2021-11-07T16:18:57Z</time>
      </trkpt>
      <trkpt lat="45.51499" lon="7.25076">
        <ele>3375</ele>
        <time>2021-11-07T16:18:59Z</time>
      </trkpt>
      <trkpt lat="45.51499" lon="7.25076">
        <ele>3374.9</ele>
        <time>2021-11-07T16:19:01Z</time>
      </trkpt>
      <trkpt lat="45.51499" lon="7.25076">
        <ele>3374.9</ele>
        <time>2021-11-07T16:19:06Z</time>
      </trkpt>
      <trkpt lat="45.51499" lon="7.25076">
        <ele>3374.8</ele>
        <time>2021-11-07T16:19:08Z</time>
      </trkpt>
      <trkpt lat="45.51498" lon="7.25075">
        <ele>3374.6</ele>
        <time>2021-11-07T16:19:13Z</time>
      </trkpt>
      <trkpt lat="45.51499" lon="7.25075">
        <ele>3374.4</ele>
        <time>2021-11-07T16:19:22Z</time>
      </trkpt>
      <trkpt lat="45.51499" lon="7.25075">
        <ele>3374.4</ele>
        <time>2021-11-07T16:19:23Z</time>
      </trkpt>
      <trkpt lat="45.515" lon="7.25076">
        <ele>3374</ele>
        <time>2021-11-07T16:19:38Z</time>
      </trkpt>
      <trkpt lat="45.515" lon="7.25076">
        <ele>3373.9</ele>
        <time>2021-11-07T16:19:43Z</time>
      </trkpt>
      <trkpt lat="45.515" lon="7.25076">
        <ele>3373.9</ele>
        <time>2021-11-07T16:19:45Z</time>
      </trkpt>
      <trkpt lat="45.515" lon="7.25076">
        <ele>3373.7</ele>
        <time>2021-11-07T16:19:48Z</time>
      </trkpt>
      <trkpt lat="45.515" lon="7.25075">
        <ele>3373.4</ele>
        <time>2021-11-07T16:19:53Z</time>
      </trkpt>
      <trkpt lat="45.515" lon="7.25074">
        <ele>3373.3</ele>
        <time>2021-11-07T16:19:57Z</time>
      </trkpt>
      <trkpt lat="45.515" lon="7.25074">
        <ele>3373.2</ele>
        <time>2021-11-07T16:19:58Z</time>
      </trkpt>
      <trkpt lat="45.515" lon="7.25074">
        <ele>3373.2</ele>
        <time>2021-11-07T16:20:08Z</time>
      </trkpt>
      <trkpt lat="45.51501" lon="7.25074">
        <ele>3372.8</ele>
        <time>2021-11-07T16:20:16Z</time>
      </trkpt>
      <trkpt lat="45.51501" lon="7.25074">
        <ele>3372.6</ele>
        <time>2021-11-07T16:20:19Z</time>
      </trkpt>
      <trkpt lat="45.51508" lon="7.25062">
        <ele>3368.9</ele>
        <time>2021-11-07T16:20:23Z</time>
      </trkpt>
      <trkpt lat="45.5151" lon="7.25057">
        <ele>3367.2</ele>
        <time>2021-11-07T16:20:24Z</time>
      </trkpt>
      <trkpt lat="45.51514" lon="7.25053">
        <ele>3365.6</ele>
        <time>2021-11-07T16:20:25Z</time>
      </trkpt>
      <trkpt lat="45.51517" lon="7.25049">
        <ele>3364.1</ele>
        <time>2021-11-07T16:20:26Z</time>
      </trkpt>
      <trkpt lat="45.5152" lon="7.25044">
        <ele>3362.5</ele>
        <time>2021-11-07T16:20:27Z</time>
      </trkpt>
      <trkpt lat="45.51526" lon="7.25033">
        <ele>3359.1</ele>
        <time>2021-11-07T16:20:29Z</time>
      </trkpt>
      <trkpt lat="45.51527" lon="7.25026">
        <ele>3357.1</ele>
        <time>2021-11-07T16:20:30Z</time>
      </trkpt>
      <trkpt lat="45.51529" lon="7.25018">
        <ele>3355</ele>
        <time>2021-11-07T16:20:31Z</time>
      </trkpt>
      <trkpt lat="45.51531" lon="7.25011">
        <ele>3353</ele>
        <time>2021-11-07T16:20:32Z</time>
      </trkpt>
      <trkpt lat="45.51534" lon="7.25003">
        <ele>3350.8</ele>
        <time>2021-11-07T16:20:33Z</time>
      </trkpt>
      <trkpt lat="45.51536" lon="7.24993">
        <ele>3348.4</ele>
        <time>2021-11-07T16:20:34Z</time>
      </trkpt>
      <trkpt lat="45.51537" lon="7.24984">
        <ele>3346</ele>
        <time>2021-11-07T16:20:35Z</time>
      </trkpt>
      <trkpt lat="45.5154" lon="7.24976">
        <ele>3343.8</ele>
        <time>2021-11-07T16:20:36Z</time>
      </trkpt>
      <trkpt lat="45.51543" lon="7.24968">
        <ele>3341.5</ele>
        <time>2021-11-07T16:20:37Z</time>
      </trkpt>
      <trkpt lat="45.51545" lon="7.24958">
        <ele>3339.1</ele>
        <time>2021-11-07T16:20:38Z</time>
      </trkpt>
      <trkpt lat="45.51545" lon="7.24948">
        <ele>3336.5</ele>
        <time>2021-11-07T16:20:39Z</time>
      </trkpt>
      <trkpt lat="45.51547" lon="7.24937">
        <ele>3333.8</ele>
        <time>2021-11-07T16:20:40Z</time>
      </trkpt>
      <trkpt lat="45.5155" lon="7.24931">
        <ele>3331.7</ele>
        <time>2021-11-07T16:20:41Z</time>
      </trkpt>
      <trkpt lat="45.51556" lon="7.24927">
        <ele>3329.5</ele>
        <time>2021-11-07T16:20:42Z</time>
      </trkpt>
      <trkpt lat="45.51561" lon="7.24922">
        <ele>3327.3</ele>
        <time>2021-11-07T16:20:43Z</time>
      </trkpt>
      <trkpt lat="45.51564" lon="7.24913">
        <ele>3324.9</ele>
        <time>2021-11-07T16:20:44Z</time>
      </trkpt>
      <trkpt lat="45.51567" lon="7.24904">
        <ele>3322.4</ele>
        <time>2021-11-07T16:20:45Z</time>
      </trkpt>
      <trkpt lat="45.51572" lon="7.24898">
        <ele>3320</ele>
        <time>2021-11-07T16:20:46Z</time>
      </trkpt>
      <trkpt lat="45.5158" lon="7.24895">
        <ele>3317.3</ele>
        <time>2021-11-07T16:20:47Z</time>
      </trkpt>
      <trkpt lat="45.51587" lon="7.24892">
        <ele>3314.5</ele>
        <time>2021-11-07T16:20:48Z</time>
      </trkpt>
      <trkpt lat="45.51594" lon="7.24885">
        <ele>3311.6</ele>
        <time>2021-11-07T16:20:49Z</time>
      </trkpt>
      <trkpt lat="45.51597" lon="7.24874">
        <ele>3308.5</ele>
        <time>2021-11-07T16:20:50Z</time>
      </trkpt>
      <trkpt lat="45.51601" lon="7.24864">
        <ele>3305.7</ele>
        <time>2021-11-07T16:20:51Z</time>
      </trkpt>
      <trkpt lat="45.51607" lon="7.24858">
        <ele>3303.1</ele>
        <time>2021-11-07T16:20:52Z</time>
      </trkpt>
      <trkpt lat="45.51614" lon="7.24857">
        <ele>3300.6</ele>
        <time>2021-11-07T16:20:53Z</time>
      </trkpt>
      <trkpt lat="45.51621" lon="7.24853">
        <ele>3297.9</ele>
        <time>2021-11-07T16:20:54Z</time>
      </trkpt>
      <trkpt lat="45.51627" lon="7.24845">
        <ele>3294.9</ele>
        <time>2021-11-07T16:20:55Z</time>
      </trkpt>
      <trkpt lat="45.51634" lon="7.24836">
        <ele>3291.6</ele>
        <time>2021-11-07T16:20:56Z</time>
      </trkpt>
      <trkpt lat="45.51641" lon="7.2483">
        <ele>3288.6</ele>
        <time>2021-11-07T16:20:57Z</time>
      </trkpt>
      <trkpt lat="45.5165" lon="7.24829">
        <ele>3285.6</ele>
        <time>2021-11-07T16:20:58Z</time>
      </trkpt>
      <trkpt lat="45.51658" lon="7.24834">
        <ele>3282.5</ele>
        <time>2021-11-07T16:20:59Z</time>
      </trkpt>
      <trkpt lat="45.51665" lon="7.24837">
        <ele>3279.9</ele>
        <time>2021-11-07T16:21:00Z</time>
      </trkpt>
      <trkpt lat="45.5167" lon="7.24836">
        <ele>3277.9</ele>
        <time>2021-11-07T16:21:01Z</time>
      </trkpt>
      <trkpt lat="45.51673" lon="7.2483">
        <ele>3276.2</ele>
        <time>2021-11-07T16:21:02Z</time>
      </trkpt>
      <trkpt lat="45.51675" lon="7.24825">
        <ele>3274.8</ele>
        <time>2021-11-07T16:21:03Z</time>
      </trkpt>
      <trkpt lat="45.51676" lon="7.24822">
        <ele>3273.8</ele>
        <time>2021-11-07T16:21:04Z</time>
      </trkpt>
      <trkpt lat="45.51677" lon="7.2482">
        <ele>3273.3</ele>
        <time>2021-11-07T16:21:05Z</time>
      </trkpt>
      <trkpt lat="45.51677" lon="7.24819">
        <ele>3273</ele>
        <time>2021-11-07T16:21:07Z</time>
      </trkpt>
      <trkpt lat="45.51677" lon="7.2482">
        <ele>3272.9</ele>
        <time>2021-11-07T16:21:10Z</time>
      </trkpt>
      <trkpt lat="45.51677" lon="7.24821">
        <ele>3272.7</ele>
        <time>2021-11-07T16:21:13Z</time>
      </trkpt>
      <trkpt lat="45.51677" lon="7.24821">
        <ele>3272.6</ele>
        <time>2021-11-07T16:21:14Z</time>
      </trkpt>
      <trkpt lat="45.51676" lon="7.24822">
        <ele>3272.1</ele>
        <time>2021-11-07T16:21:22Z</time>
      </trkpt>
      <trkpt lat="45.51675" lon="7.24822">
        <ele>3272</ele>
        <time>2021-11-07T16:21:24Z</time>
      </trkpt>
      <trkpt lat="45.51675" lon="7.24823">
        <ele>3271.8</ele>
        <time>2021-11-07T16:21:30Z</time>
      </trkpt>
      <trkpt lat="45.51675" lon="7.24824">
        <ele>3271.6</ele>
        <time>2021-11-07T16:21:36Z</time>
      </trkpt>
      <trkpt lat="45.51675" lon="7.24824">
        <ele>3271.5</ele>
        <time>2021-11-07T16:21:41Z</time>
      </trkpt>
      <trkpt lat="45.51674" lon="7.24825">
        <ele>3271.1</ele>
        <time>2021-11-07T16:21:49Z</time>
      </trkpt>
      <trkpt lat="45.51674" lon="7.24825">
        <ele>3271.1</ele>
        <time>2021-11-07T16:21:53Z</time>
      </trkpt>
      <trkpt lat="45.51678" lon="7.24827">
        <ele>3269.7</ele>
        <time>2021-11-07T16:22:01Z</time>
      </trkpt>
      <trkpt lat="45.51681" lon="7.24833">
        <ele>3267.9</ele>
        <time>2021-11-07T16:22:03Z</time>
      </trkpt>
      <trkpt lat="45.51683" lon="7.24837">
        <ele>3266.5</ele>
        <time>2021-11-07T16:22:04Z</time>
      </trkpt>
      <trkpt lat="45.51688" lon="7.24845">
        <ele>3263.9</ele>
        <time>2021-11-07T16:22:06Z</time>
      </trkpt>
      <trkpt lat="45.51691" lon="7.24849">
        <ele>3262.4</ele>
        <time>2021-11-07T16:22:08Z</time>
      </trkpt>
      <trkpt lat="45.51691" lon="7.2485">
        <ele>3262.3</ele>
        <time>2021-11-07T16:22:09Z</time>
      </trkpt>
      <trkpt lat="45.51691" lon="7.2485">
        <ele>3262.2</ele>
        <time>2021-11-07T16:22:11Z</time>
      </trkpt>
      <trkpt lat="45.51691" lon="7.2485">
        <ele>3262.1</ele>
        <time>2021-11-07T16:22:13Z</time>
      </trkpt>
      <trkpt lat="45.51691" lon="7.2485">
        <ele>3262</ele>
        <time>2021-11-07T16:22:15Z</time>
      </trkpt>
      <trkpt lat="45.5169" lon="7.2485">
        <ele>3261.9</ele>
        <time>2021-11-07T16:22:21Z</time>
      </trkpt>
      <trkpt lat="45.51691" lon="7.24851">
        <ele>3261.7</ele>
        <time>2021-11-07T16:22:28Z</time>
      </trkpt>
      <trkpt lat="45.51691" lon="7.24851">
        <ele>3261.7</ele>
        <time>2021-11-07T16:22:29Z</time>
      </trkpt>
      <trkpt lat="45.51691" lon="7.24851">
        <ele>3261.6</ele>
        <time>2021-11-07T16:22:40Z</time>
      </trkpt>
      <trkpt lat="45.5169" lon="7.24851">
        <ele>3261.5</ele>
        <time>2021-11-07T16:22:49Z</time>
      </trkpt>
      <trkpt lat="45.5169" lon="7.24851">
        <ele>3261.5</ele>
        <time>2021-11-07T16:22:57Z</time>
      </trkpt>
      <trkpt lat="45.51691" lon="7.24851">
        <ele>3261.4</ele>
        <time>2021-11-07T16:23:01Z</time>
      </trkpt>
      <trkpt lat="45.5169" lon="7.24851">
        <ele>3261.3</ele>
        <time>2021-11-07T16:23:02Z</time>
      </trkpt>
      <trkpt lat="45.51692" lon="7.24852">
        <ele>3260.9</ele>
        <time>2021-11-07T16:23:10Z</time>
      </trkpt>
      <trkpt lat="45.51698" lon="7.24858">
        <ele>3258.3</ele>
        <time>2021-11-07T16:23:14Z</time>
      </trkpt>
      <trkpt lat="45.517" lon="7.24859">
        <ele>3257.5</ele>
        <time>2021-11-07T16:23:15Z</time>
      </trkpt>
      <trkpt lat="45.51704" lon="7.24864">
        <ele>3255.4</ele>
        <time>2021-11-07T16:23:18Z</time>
      </trkpt>
      <trkpt lat="45.51705" lon="7.24866">
        <ele>3254.9</ele>
        <time>2021-11-07T16:23:19Z</time>
      </trkpt>
      <trkpt lat="45.51706" lon="7.24867">
        <ele>3254.4</ele>
        <time>2021-11-07T16:23:21Z</time>
      </trkpt>
      <trkpt lat="45.51707" lon="7.24868">
        <ele>3254.2</ele>
        <time>2021-11-07T16:23:32Z</time>
      </trkpt>
      <trkpt lat="45.51707" lon="7.24868">
        <ele>3254.2</ele>
        <time>2021-11-07T16:23:34Z</time>
      </trkpt>
      <trkpt lat="45.51706" lon="7.24867">
        <ele>3253.8</ele>
        <time>2021-11-07T16:23:41Z</time>
      </trkpt>
      <trkpt lat="45.51706" lon="7.24867">
        <ele>3253.7</ele>
        <time>2021-11-07T16:23:42Z</time>
      </trkpt>
      <trkpt lat="45.51707" lon="7.24867">
        <ele>3253.5</ele>
        <time>2021-11-07T16:23:43Z</time>
      </trkpt>
      <trkpt lat="45.51708" lon="7.24867">
        <ele>3253.2</ele>
        <time>2021-11-07T16:23:44Z</time>
      </trkpt>
      <trkpt lat="45.51716" lon="7.2486">
        <ele>3249.8</ele>
        <time>2021-11-07T16:23:49Z</time>
      </trkpt>
      <trkpt lat="45.5172" lon="7.24858">
        <ele>3248.3</ele>
        <time>2021-11-07T16:23:50Z</time>
      </trkpt>
      <trkpt lat="45.51724" lon="7.24857">
        <ele>3246.8</ele>
        <time>2021-11-07T16:23:51Z</time>
      </trkpt>
      <trkpt lat="45.51727" lon="7.24856">
        <ele>3245.7</ele>
        <time>2021-11-07T16:23:52Z</time>
      </trkpt>
      <trkpt lat="45.51727" lon="7.24852">
        <ele>3244.8</ele>
        <time>2021-11-07T16:23:53Z</time>
      </trkpt>
      <trkpt lat="45.51727" lon="7.24848">
        <ele>3243.9</ele>
        <time>2021-11-07T16:23:54Z</time>
      </trkpt>
      <trkpt lat="45.51727" lon="7.24847">
        <ele>3243.6</ele>
        <time>2021-11-07T16:23:55Z</time>
      </trkpt>
      <trkpt lat="45.51727" lon="7.24847">
        <ele>3243.5</ele>
        <time>2021-11-07T16:23:56Z</time>
      </trkpt>
      <trkpt lat="45.51727" lon="7.24846">
        <ele>3243.4</ele>
        <time>2021-11-07T16:23:57Z</time>
      </trkpt>
      <trkpt lat="45.51727" lon="7.24846">
        <ele>3243.2</ele>
        <time>2021-11-07T16:23:58Z</time>
      </trkpt>
      <trkpt lat="45.51734" lon="7.24846">
        <ele>3241</ele>
        <time>2021-11-07T16:24:02Z</time>
      </trkpt>
      <trkpt lat="45.51736" lon="7.24848">
        <ele>3239.9</ele>
        <time>2021-11-07T16:24:03Z</time>
      </trkpt>
      <trkpt lat="45.51743" lon="7.24855">
        <ele>3237</ele>
        <time>2021-11-07T16:24:05Z</time>
      </trkpt>
      <trkpt lat="45.5175" lon="7.2486">
        <ele>3234.2</ele>
        <time>2021-11-07T16:24:07Z</time>
      </trkpt>
      <trkpt lat="45.51753" lon="7.2486">
        <ele>3233.2</ele>
        <time>2021-11-07T16:24:08Z</time>
      </trkpt>
      <trkpt lat="45.51755" lon="7.24858">
        <ele>3232</ele>
        <time>2021-11-07T16:24:09Z</time>
      </trkpt>
      <trkpt lat="45.51759" lon="7.24855">
        <ele>3230.6</ele>
        <time>2021-11-07T16:24:10Z</time>
      </trkpt>
      <trkpt lat="45.51763" lon="7.24853">
        <ele>3228.9</ele>
        <time>2021-11-07T16:24:11Z</time>
      </trkpt>
      <trkpt lat="45.51767" lon="7.2485">
        <ele>3227.3</ele>
        <time>2021-11-07T16:24:12Z</time>
      </trkpt>
      <trkpt lat="45.51771" lon="7.24845">
        <ele>3225.6</ele>
        <time>2021-11-07T16:24:13Z</time>
      </trkpt>
      <trkpt lat="45.51775" lon="7.24843">
        <ele>3224</ele>
        <time>2021-11-07T16:24:14Z</time>
      </trkpt>
      <trkpt lat="45.51779" lon="7.24841">
        <ele>3222.5</ele>
        <time>2021-11-07T16:24:15Z</time>
      </trkpt>
      <trkpt lat="45.51782" lon="7.24837">
        <ele>3221</ele>
        <time>2021-11-07T16:24:16Z</time>
      </trkpt>
      <trkpt lat="45.51785" lon="7.24831">
        <ele>3219.3</ele>
        <time>2021-11-07T16:24:17Z</time>
      </trkpt>
      <trkpt lat="45.51789" lon="7.24827">
        <ele>3195.2</ele>
        <time>2021-11-07T16:24:18Z</time>
      </trkpt>
      <trkpt lat="45.51794" lon="7.24827">
        <ele>3194.5</ele>
        <time>2021-11-07T16:24:19Z</time>
      </trkpt>
      <trkpt lat="45.51799" lon="7.24826">
        <ele>3193.7</ele>
        <time>2021-11-07T16:24:20Z</time>
      </trkpt>
      <trkpt lat="45.51802" lon="7.24821">
        <ele>3193.1</ele>
        <time>2021-11-07T16:24:21Z</time>
      </trkpt>
      <trkpt lat="45.51805" lon="7.24816">
        <ele>3192.4</ele>
        <time>2021-11-07T16:24:22Z</time>
      </trkpt>
      <trkpt lat="45.51809" lon="7.24814">
        <ele>3191.9</ele>
        <time>2021-11-07T16:24:23Z</time>
      </trkpt>
      <trkpt lat="45.51813" lon="7.24814">
        <ele>3191.3</ele>
        <time>2021-11-07T16:24:24Z</time>
      </trkpt>
      <trkpt lat="45.51816" lon="7.24811">
        <ele>3190.8</ele>
        <time>2021-11-07T16:24:25Z</time>
      </trkpt>
      <trkpt lat="45.51818" lon="7.24808">
        <ele>3190.4</ele>
        <time>2021-11-07T16:24:26Z</time>
      </trkpt>
      <trkpt lat="45.51817" lon="7.24805">
        <ele>3190.1</ele>
        <time>2021-11-07T16:24:27Z</time>
      </trkpt>
      <trkpt lat="45.51817" lon="7.24804">
        <ele>3190</ele>
        <time>2021-11-07T16:24:28Z</time>
      </trkpt>
      <trkpt lat="45.51816" lon="7.24804">
        <ele>3189.9</ele>
        <time>2021-11-07T16:24:29Z</time>
      </trkpt>
      <trkpt lat="45.51816" lon="7.24804">
        <ele>3189.9</ele>
        <time>2021-11-07T16:24:31Z</time>
      </trkpt>
      <trkpt lat="45.51812" lon="7.24803">
        <ele>3189.3</ele>
        <time>2021-11-07T16:24:37Z</time>
      </trkpt>
      <trkpt lat="45.5181" lon="7.24802">
        <ele>3189</ele>
        <time>2021-11-07T16:24:40Z</time>
      </trkpt>
      <trkpt lat="45.51809" lon="7.24803">
        <ele>3188.9</ele>
        <time>2021-11-07T16:24:46Z</time>
      </trkpt>
      <trkpt lat="45.51809" lon="7.24803">
        <ele>3188.9</ele>
        <time>2021-11-07T16:24:48Z</time>
      </trkpt>
      <trkpt lat="45.51812" lon="7.24801">
        <ele>3188.4</ele>
        <time>2021-11-07T16:24:53Z</time>
      </trkpt>
      <trkpt lat="45.51817" lon="7.24804">
        <ele>3187.7</ele>
        <time>2021-11-07T16:24:55Z</time>
      </trkpt>
      <trkpt lat="45.51819" lon="7.24801">
        <ele>3187.3</ele>
        <time>2021-11-07T16:24:56Z</time>
      </trkpt>
      <trkpt lat="45.5182" lon="7.24797">
        <ele>3186.8</ele>
        <time>2021-11-07T16:24:57Z</time>
      </trkpt>
      <trkpt lat="45.5182" lon="7.24794">
        <ele>3186.6</ele>
        <time>2021-11-07T16:24:58Z</time>
      </trkpt>
      <trkpt lat="45.51821" lon="7.24794">
        <ele>3186.5</ele>
        <time>2021-11-07T16:24:59Z</time>
      </trkpt>
      <trkpt lat="45.51821" lon="7.24794">
        <ele>3186.5</ele>
        <time>2021-11-07T16:25:00Z</time>
      </trkpt>
      <trkpt lat="45.5182" lon="7.24794">
        <ele>3186.4</ele>
        <time>2021-11-07T16:25:02Z</time>
      </trkpt>
      <trkpt lat="45.51822" lon="7.24794">
        <ele>3186.2</ele>
        <time>2021-11-07T16:25:08Z</time>
      </trkpt>
      <trkpt lat="45.51822" lon="7.24795">
        <ele>3186.1</ele>
        <time>2021-11-07T16:25:11Z</time>
      </trkpt>
      <trkpt lat="45.51825" lon="7.24795">
        <ele>3185.7</ele>
        <time>2021-11-07T16:25:22Z</time>
      </trkpt>
      <trkpt lat="45.51836" lon="7.24797">
        <ele>3184.2</ele>
        <time>2021-11-07T16:25:25Z</time>
      </trkpt>
      <trkpt lat="45.51839" lon="7.24794">
        <ele>3183.7</ele>
        <time>2021-11-07T16:25:26Z</time>
      </trkpt>
      <trkpt lat="45.51842" lon="7.2479">
        <ele>3183.2</ele>
        <time>2021-11-07T16:25:27Z</time>
      </trkpt>
      <trkpt lat="45.51845" lon="7.24788">
        <ele>3182.7</ele>
        <time>2021-11-07T16:25:28Z</time>
      </trkpt>
      <trkpt lat="45.51848" lon="7.24789">
        <ele>3182.3</ele>
        <time>2021-11-07T16:25:29Z</time>
      </trkpt>
      <trkpt lat="45.51851" lon="7.24789">
        <ele>3181.9</ele>
        <time>2021-11-07T16:25:30Z</time>
      </trkpt>
      <trkpt lat="45.51852" lon="7.24788">
        <ele>3181.7</ele>
        <time>2021-11-07T16:25:31Z</time>
      </trkpt>
      <trkpt lat="45.51853" lon="7.24788">
        <ele>3181.6</ele>
        <time>2021-11-07T16:25:32Z</time>
      </trkpt>
      <trkpt lat="45.51853" lon="7.24788">
        <ele>3181.5</ele>
        <time>2021-11-07T16:25:34Z</time>
      </trkpt>
      <trkpt lat="45.51855" lon="7.24788">
        <ele>3181.4</ele>
        <time>2021-11-07T16:25:35Z</time>
      </trkpt>
      <trkpt lat="45.51855" lon="7.2479">
        <ele>3181.2</ele>
        <time>2021-11-07T16:25:37Z</time>
      </trkpt>
      <trkpt lat="45.51855" lon="7.2479">
        <ele>3181.1</ele>
        <time>2021-11-07T16:25:41Z</time>
      </trkpt>
      <trkpt lat="45.51854" lon="7.24789">
        <ele>3181.1</ele>
        <time>2021-11-07T16:25:43Z</time>
      </trkpt>
      <trkpt lat="45.51854" lon="7.24789">
        <ele>3181.1</ele>
        <time>2021-11-07T16:25:48Z</time>
      </trkpt>
      <trkpt lat="45.51854" lon="7.24789">
        <ele>3181</ele>
        <time>2021-11-07T16:25:52Z</time>
      </trkpt>
      <trkpt lat="45.51854" lon="7.24789">
        <ele>3181</ele>
        <time>2021-11-07T16:25:55Z</time>
      </trkpt>
      <trkpt lat="45.51854" lon="7.24789">
        <ele>3180.9</ele>
        <time>2021-11-07T16:25:56Z</time>
      </trkpt>
      <trkpt lat="45.51853" lon="7.24789">
        <ele>3180.9</ele>
        <time>2021-11-07T16:26:03Z</time>
      </trkpt>
      <trkpt lat="45.51853" lon="7.24789">
        <ele>3180.9</ele>
        <time>2021-11-07T16:26:07Z</time>
      </trkpt>
      <trkpt lat="45.51853" lon="7.2479">
        <ele>3180.8</ele>
        <time>2021-11-07T16:26:15Z</time>
      </trkpt>
      <trkpt lat="45.51853" lon="7.2479">
        <ele>3180.8</ele>
        <time>2021-11-07T16:26:16Z</time>
      </trkpt>
      <trkpt lat="45.51853" lon="7.2479">
        <ele>3180.8</ele>
        <time>2021-11-07T16:26:17Z</time>
      </trkpt>
      <trkpt lat="45.51853" lon="7.2479">
        <ele>3180.8</ele>
        <time>2021-11-07T16:26:20Z</time>
      </trkpt>
      <trkpt lat="45.51852" lon="7.24789">
        <ele>3180.8</ele>
        <time>2021-11-07T16:26:28Z</time>
      </trkpt>
      <trkpt lat="45.51852" lon="7.24789">
        <ele>3180.7</ele>
        <time>2021-11-07T16:26:35Z</time>
      </trkpt>
      <trkpt lat="45.51852" lon="7.24789">
        <ele>3180.7</ele>
        <time>2021-11-07T16:26:40Z</time>
      </trkpt>
      <trkpt lat="45.51852" lon="7.24789">
        <ele>3180.7</ele>
        <time>2021-11-07T16:26:42Z</time>
      </trkpt>
      <trkpt lat="45.51852" lon="7.24789">
        <ele>3180.7</ele>
        <time>2021-11-07T16:26:43Z</time>
      </trkpt>
      <trkpt lat="45.51852" lon="7.24789">
        <ele>3180.6</ele>
        <time>2021-11-07T16:26:50Z</time>
      </trkpt>
      <trkpt lat="45.51853" lon="7.24789">
        <ele>3180.5</ele>
        <time>2021-11-07T16:26:51Z</time>
      </trkpt>
      <trkpt lat="45.51854" lon="7.24787">
        <ele>3180.3</ele>
        <time>2021-11-07T16:26:52Z</time>
      </trkpt>
      <trkpt lat="45.51857" lon="7.24784">
        <ele>3179.8</ele>
        <time>2021-11-07T16:26:55Z</time>
      </trkpt>
      <trkpt lat="45.51859" lon="7.24785">
        <ele>3179.5</ele>
        <time>2021-11-07T16:26:56Z</time>
      </trkpt>
      <trkpt lat="45.51862" lon="7.24789">
        <ele>3179</ele>
        <time>2021-11-07T16:26:58Z</time>
      </trkpt>
      <trkpt lat="45.51862" lon="7.2479">
        <ele>3179</ele>
        <time>2021-11-07T16:26:59Z</time>
      </trkpt>
      <trkpt lat="45.51863" lon="7.2479">
        <ele>3178.9</ele>
        <time>2021-11-07T16:27:00Z</time>
      </trkpt>
      <trkpt lat="45.51863" lon="7.2479">
        <ele>3178.9</ele>
        <time>2021-11-07T16:27:01Z</time>
      </trkpt>
      <trkpt lat="45.51864" lon="7.24789">
        <ele>3178.7</ele>
        <time>2021-11-07T16:27:03Z</time>
      </trkpt>
      <trkpt lat="45.51866" lon="7.24787">
        <ele>3178.5</ele>
        <time>2021-11-07T16:27:05Z</time>
      </trkpt>
      <trkpt lat="45.51866" lon="7.24787">
        <ele>3178.4</ele>
        <time>2021-11-07T16:27:08Z</time>
      </trkpt>
      <trkpt lat="45.51868" lon="7.24787">
        <ele>3178.1</ele>
        <time>2021-11-07T16:27:10Z</time>
      </trkpt>
      <trkpt lat="45.5187" lon="7.24788">
        <ele>3177.9</ele>
        <time>2021-11-07T16:27:11Z</time>
      </trkpt>
      <trkpt lat="45.51871" lon="7.24789">
        <ele>3177.7</ele>
        <time>2021-11-07T16:27:12Z</time>
      </trkpt>
      <trkpt lat="45.51873" lon="7.24789">
        <ele>3177.5</ele>
        <time>2021-11-07T16:27:13Z</time>
      </trkpt>
      <trkpt lat="45.51873" lon="7.24788">
        <ele>3177.4</ele>
        <time>2021-11-07T16:27:14Z</time>
      </trkpt>
      <trkpt lat="45.51874" lon="7.24786">
        <ele>3177.2</ele>
        <time>2021-11-07T16:27:16Z</time>
      </trkpt>
      <trkpt lat="45.51874" lon="7.24786">
        <ele>3177.2</ele>
        <time>2021-11-07T16:27:17Z</time>
      </trkpt>
      <trkpt lat="45.51882" lon="7.24782">
        <ele>3176.2</ele>
        <time>2021-11-07T16:27:22Z</time>
      </trkpt>
      <trkpt lat="45.51886" lon="7.24775">
        <ele>3175.4</ele>
        <time>2021-11-07T16:27:25Z</time>
      </trkpt>
      <trkpt lat="45.51888" lon="7.24774">
        <ele>3175.1</ele>
        <time>2021-11-07T16:27:26Z</time>
      </trkpt>
      <trkpt lat="45.51891" lon="7.24773">
        <ele>3174.8</ele>
        <time>2021-11-07T16:27:27Z</time>
      </trkpt>
      <trkpt lat="45.51892" lon="7.24772">
        <ele>3174.6</ele>
        <time>2021-11-07T16:27:28Z</time>
      </trkpt>
      <trkpt lat="45.51893" lon="7.24772">
        <ele>3174.5</ele>
        <time>2021-11-07T16:27:29Z</time>
      </trkpt>
      <trkpt lat="45.51893" lon="7.24772">
        <ele>3174.4</ele>
        <time>2021-11-07T16:27:30Z</time>
      </trkpt>
      <trkpt lat="45.51893" lon="7.24771">
        <ele>3174.4</ele>
        <time>2021-11-07T16:27:31Z</time>
      </trkpt>
      <trkpt lat="45.51893" lon="7.2477">
        <ele>3174.3</ele>
        <time>2021-11-07T16:27:33Z</time>
      </trkpt>
      <trkpt lat="45.51894" lon="7.24769">
        <ele>3174.2</ele>
        <time>2021-11-07T16:27:35Z</time>
      </trkpt>
      <trkpt lat="45.51896" lon="7.24761">
        <ele>3173.5</ele>
        <time>2021-11-07T16:27:38Z</time>
      </trkpt>
      <trkpt lat="45.51897" lon="7.24757">
        <ele>3173.1</ele>
        <time>2021-11-07T16:27:39Z</time>
      </trkpt>
      <trkpt lat="45.51898" lon="7.2475">
        <ele>3172.4</ele>
        <time>2021-11-07T16:27:41Z</time>
      </trkpt>
      <trkpt lat="45.51898" lon="7.24747">
        <ele>3172.2</ele>
        <time>2021-11-07T16:27:42Z</time>
      </trkpt>
      <trkpt lat="45.51899" lon="7.24745">
        <ele>3172</ele>
        <time>2021-11-07T16:27:43Z</time>
      </trkpt>
      <trkpt lat="45.51899" lon="7.24744">
        <ele>3171.9</ele>
        <time>2021-11-07T16:27:44Z</time>
      </trkpt>
      <trkpt lat="45.51901" lon="7.24744">
        <ele>3171.6</ele>
        <time>2021-11-07T16:27:46Z</time>
      </trkpt>
      <trkpt lat="45.51902" lon="7.24744">
        <ele>3171.6</ele>
        <time>2021-11-07T16:27:47Z</time>
      </trkpt>
      <trkpt lat="45.51902" lon="7.24744">
        <ele>3171.5</ele>
        <time>2021-11-07T16:27:51Z</time>
      </trkpt>
      <trkpt lat="45.51902" lon="7.24744">
        <ele>3171.5</ele>
        <time>2021-11-07T16:27:52Z</time>
      </trkpt>
      <trkpt lat="45.51902" lon="7.24744">
        <ele>3171.5</ele>
        <time>2021-11-07T16:27:54Z</time>
      </trkpt>
      <trkpt lat="45.51908" lon="7.2475">
        <ele>3170.5</ele>
        <time>2021-11-07T16:28:00Z</time>
      </trkpt>
      <trkpt lat="45.51909" lon="7.24751">
        <ele>3170.4</ele>
        <time>2021-11-07T16:28:01Z</time>
      </trkpt>
      <trkpt lat="45.51909" lon="7.2475">
        <ele>3170.3</ele>
        <time>2021-11-07T16:28:02Z</time>
      </trkpt>
      <trkpt lat="45.51908" lon="7.2475">
        <ele>3170.2</ele>
        <time>2021-11-07T16:28:03Z</time>
      </trkpt>
      <trkpt lat="45.51911" lon="7.24747">
        <ele>3169.7</ele>
        <time>2021-11-07T16:28:08Z</time>
      </trkpt>
      <trkpt lat="45.51912" lon="7.24747">
        <ele>3169.6</ele>
        <time>2021-11-07T16:28:09Z</time>
      </trkpt>
      <trkpt lat="45.51912" lon="7.24747">
        <ele>3169.6</ele>
        <time>2021-11-07T16:28:10Z</time>
      </trkpt>
      <trkpt lat="45.51912" lon="7.24747">
        <ele>3169.6</ele>
        <time>2021-11-07T16:28:14Z</time>
      </trkpt>
      <trkpt lat="45.51912" lon="7.24748">
        <ele>3169.5</ele>
        <time>2021-11-07T16:28:17Z</time>
      </trkpt>
      <trkpt lat="45.51909" lon="7.24747">
        <ele>3169.2</ele>
        <time>2021-11-07T16:28:31Z</time>
      </trkpt>
      <trkpt lat="45.51909" lon="7.24747">
        <ele>3169.1</ele>
        <time>2021-11-07T16:28:36Z</time>
      </trkpt>
      <trkpt lat="45.51908" lon="7.24747">
        <ele>3169</ele>
        <time>2021-11-07T16:28:39Z</time>
      </trkpt>
      <trkpt lat="45.51908" lon="7.24747">
        <ele>3169</ele>
        <time>2021-11-07T16:28:45Z</time>
      </trkpt>
      <trkpt lat="45.51908" lon="7.24748">
        <ele>3169</ele>
        <time>2021-11-07T16:28:46Z</time>
      </trkpt>
      <trkpt lat="45.51909" lon="7.24748">
        <ele>3168.9</ele>
        <time>2021-11-07T16:28:54Z</time>
      </trkpt>
      <trkpt lat="45.51908" lon="7.24748">
        <ele>3168.8</ele>
        <time>2021-11-07T16:28:59Z</time>
      </trkpt>
      <trkpt lat="45.51909" lon="7.24748">
        <ele>3168.8</ele>
        <time>2021-11-07T16:29:02Z</time>
      </trkpt>
      <trkpt lat="45.51909" lon="7.24747">
        <ele>3168.7</ele>
        <time>2021-11-07T16:29:13Z</time>
      </trkpt>
      <trkpt lat="45.51909" lon="7.24747">
        <ele>3168.7</ele>
        <time>2021-11-07T16:29:17Z</time>
      </trkpt>
      <trkpt lat="45.51909" lon="7.24748">
        <ele>3168.7</ele>
        <time>2021-11-07T16:29:24Z</time>
      </trkpt>
      <trkpt lat="45.51908" lon="7.24748">
        <ele>3168.6</ele>
        <time>2021-11-07T16:29:26Z</time>
      </trkpt>
      <trkpt lat="45.51908" lon="7.24748">
        <ele>3168.6</ele>
        <time>2021-11-07T16:29:27Z</time>
      </trkpt>
      <trkpt lat="45.51908" lon="7.24748">
        <ele>3168.6</ele>
        <time>2021-11-07T16:29:29Z</time>
      </trkpt>
      <trkpt lat="45.51907" lon="7.24749">
        <ele>3168.4</ele>
        <time>2021-11-07T16:29:43Z</time>
      </trkpt>
      <trkpt lat="45.51906" lon="7.24752">
        <ele>3168.2</ele>
        <time>2021-11-07T16:29:46Z</time>
      </trkpt>
      <trkpt lat="45.51903" lon="7.24756">
        <ele>3167.6</ele>
        <time>2021-11-07T16:29:51Z</time>
      </trkpt>
      <trkpt lat="45.51903" lon="7.24759">
        <ele>3167.4</ele>
        <time>2021-11-07T16:29:56Z</time>
      </trkpt>
      <trkpt lat="45.51902" lon="7.2476">
        <ele>3167.3</ele>
        <time>2021-11-07T16:29:57Z</time>
      </trkpt>
      <trkpt lat="45.51903" lon="7.2476">
        <ele>3167.2</ele>
        <time>2021-11-07T16:29:59Z</time>
      </trkpt>
      <trkpt lat="45.51903" lon="7.2476">
        <ele>3167.2</ele>
        <time>2021-11-07T16:30:00Z</time>
      </trkpt>
      <trkpt lat="45.51901" lon="7.2476">
        <ele>3167.1</ele>
        <time>2021-11-07T16:30:12Z</time>
      </trkpt>
      <trkpt lat="45.51901" lon="7.24759">
        <ele>3167</ele>
        <time>2021-11-07T16:30:17Z</time>
      </trkpt>
      <trkpt lat="45.51902" lon="7.24761">
        <ele>3166.9</ele>
        <time>2021-11-07T16:30:26Z</time>
      </trkpt>
      <trkpt lat="45.51905" lon="7.2476">
        <ele>3166.5</ele>
        <time>2021-11-07T16:30:40Z</time>
      </trkpt>
      <trkpt lat="45.51906" lon="7.24762">
        <ele>3166.3</ele>
        <time>2021-11-07T16:30:52Z</time>
      </trkpt>
      <trkpt lat="45.51906" lon="7.24762">
        <ele>3166.3</ele>
        <time>2021-11-07T16:30:53Z</time>
      </trkpt>
      <trkpt lat="45.51907" lon="7.24757">
        <ele>3165.9</ele>
        <time>2021-11-07T16:31:04Z</time>
      </trkpt>
      <trkpt lat="45.51907" lon="7.24757">
        <ele>3165.9</ele>
        <time>2021-11-07T16:31:05Z</time>
      </trkpt>
      <trkpt lat="45.51907" lon="7.24758">
        <ele>3165.8</ele>
        <time>2021-11-07T16:31:12Z</time>
      </trkpt>
      <trkpt lat="45.51908" lon="7.24758">
        <ele>3165.7</ele>
        <time>2021-11-07T16:31:17Z</time>
      </trkpt>
      <trkpt lat="45.51909" lon="7.2476">
        <ele>3165.4</ele>
        <time>2021-11-07T16:31:22Z</time>
      </trkpt>
      <trkpt lat="45.51907" lon="7.24759">
        <ele>3165.2</ele>
        <time>2021-11-07T16:31:29Z</time>
      </trkpt>
      <trkpt lat="45.51907" lon="7.24758">
        <ele>3165.1</ele>
        <time>2021-11-07T16:31:30Z</time>
      </trkpt>
      <trkpt lat="45.51907" lon="7.24757">
        <ele>3164.9</ele>
        <time>2021-11-07T16:31:33Z</time>
      </trkpt>
      <trkpt lat="45.51907" lon="7.24757">
        <ele>3164.9</ele>
        <time>2021-11-07T16:31:42Z</time>
      </trkpt>
      <trkpt lat="45.51908" lon="7.24758">
        <ele>3164.8</ele>
        <time>2021-11-07T16:31:46Z</time>
      </trkpt>
      <trkpt lat="45.51907" lon="7.24758">
        <ele>3164.7</ele>
        <time>2021-11-07T16:31:48Z</time>
      </trkpt>
      <trkpt lat="45.51907" lon="7.24758">
        <ele>3164.7</ele>
        <time>2021-11-07T16:31:49Z</time>
      </trkpt>
      <trkpt lat="45.51909" lon="7.24757">
        <ele>3164.5</ele>
        <time>2021-11-07T16:31:57Z</time>
      </trkpt>
      <trkpt lat="45.5191" lon="7.24757">
        <ele>3164.4</ele>
        <time>2021-11-07T16:32:11Z</time>
      </trkpt>
      <trkpt lat="45.51909" lon="7.24757">
        <ele>3164.3</ele>
        <time>2021-11-07T16:32:12Z</time>
      </trkpt>
      <trkpt lat="45.51905" lon="7.24755">
        <ele>3163.7</ele>
        <time>2021-11-07T16:32:26Z</time>
      </trkpt>
      <trkpt lat="45.51904" lon="7.24755">
        <ele>3163.7</ele>
        <time>2021-11-07T16:32:33Z</time>
      </trkpt>
      <trkpt lat="45.51904" lon="7.24755">
        <ele>3163.6</ele>
        <time>2021-11-07T16:32:40Z</time>
      </trkpt>
      <trkpt lat="45.51908" lon="7.24756">
        <ele>3163.2</ele>
        <time>2021-11-07T16:32:57Z</time>
      </trkpt>
      <trkpt lat="45.51908" lon="7.24756">
        <ele>3163.2</ele>
        <time>2021-11-07T16:32:58Z</time>
      </trkpt>
      <trkpt lat="45.51904" lon="7.24756">
        <ele>3162.8</ele>
        <time>2021-11-07T16:33:06Z</time>
      </trkpt>
      <trkpt lat="45.51903" lon="7.24755">
        <ele>3162.6</ele>
        <time>2021-11-07T16:33:14Z</time>
      </trkpt>
      <trkpt lat="45.51904" lon="7.24753">
        <ele>3162.4</ele>
        <time>2021-11-07T16:33:24Z</time>
      </trkpt>
      <trkpt lat="45.51904" lon="7.2475">
        <ele>3162.2</ele>
        <time>2021-11-07T16:33:32Z</time>
      </trkpt>
      <trkpt lat="45.51905" lon="7.24749">
        <ele>3162</ele>
        <time>2021-11-07T16:33:41Z</time>
      </trkpt>
      <trkpt lat="45.51905" lon="7.24748">
        <ele>3161.9</ele>
        <time>2021-11-07T16:33:50Z</time>
      </trkpt>
      <trkpt lat="45.51905" lon="7.24748">
        <ele>3161.9</ele>
        <time>2021-11-07T16:33:51Z</time>
      </trkpt>
      <trkpt lat="45.51906" lon="7.24748">
        <ele>3161.9</ele>
        <time>2021-11-07T16:33:52Z</time>
      </trkpt>
      <trkpt lat="45.51906" lon="7.24748">
        <ele>3161.9</ele>
        <time>2021-11-07T16:33:53Z</time>
      </trkpt>
      <trkpt lat="45.51904" lon="7.24747">
        <ele>3161.7</ele>
        <time>2021-11-07T16:34:06Z</time>
      </trkpt>
      <trkpt lat="45.51904" lon="7.24747">
        <ele>3161.7</ele>
        <time>2021-11-07T16:34:10Z</time>
      </trkpt>
      <trkpt lat="45.51902" lon="7.24749">
        <ele>3161.4</ele>
        <time>2021-11-07T16:34:18Z</time>
      </trkpt>
      <trkpt lat="45.51902" lon="7.24749">
        <ele>3161.4</ele>
        <time>2021-11-07T16:34:19Z</time>
      </trkpt>
      <trkpt lat="45.51902" lon="7.24749">
        <ele>3161.4</ele>
        <time>2021-11-07T16:34:21Z</time>
      </trkpt>
      <trkpt lat="45.51902" lon="7.24749">
        <ele>3161.4</ele>
        <time>2021-11-07T16:34:22Z</time>
      </trkpt>
      <trkpt lat="45.51902" lon="7.2475">
        <ele>3161.3</ele>
        <time>2021-11-07T16:34:24Z</time>
      </trkpt>
      <trkpt lat="45.51903" lon="7.24749">
        <ele>3161.2</ele>
        <time>2021-11-07T16:34:29Z</time>
      </trkpt>
      <trkpt lat="45.51905" lon="7.24748">
        <ele>3161</ele>
        <time>2021-11-07T16:34:34Z</time>
      </trkpt>
      <trkpt lat="45.51905" lon="7.24749">
        <ele>3160.9</ele>
        <time>2021-11-07T16:34:41Z</time>
      </trkpt>
      <trkpt lat="45.51905" lon="7.24749">
        <ele>3160.9</ele>
        <time>2021-11-07T16:34:42Z</time>
      </trkpt>
      <trkpt lat="45.51905" lon="7.24748">
        <ele>3160.9</ele>
        <time>2021-11-07T16:34:45Z</time>
      </trkpt>
      <trkpt lat="45.51905" lon="7.24748">
        <ele>3160.8</ele>
        <time>2021-11-07T16:34:49Z</time>
      </trkpt>
      <trkpt lat="45.51905" lon="7.24748">
        <ele>3160.8</ele>
        <time>2021-11-07T16:34:53Z</time>
      </trkpt>
      <trkpt lat="45.51904" lon="7.24748">
        <ele>3160.7</ele>
        <time>2021-11-07T16:34:58Z</time>
      </trkpt>
      <trkpt lat="45.51904" lon="7.24747">
        <ele>3160.6</ele>
        <time>2021-11-07T16:35:01Z</time>
      </trkpt>
      <trkpt lat="45.51903" lon="7.24747">
        <ele>3160.6</ele>
        <time>2021-11-07T16:35:02Z</time>
      </trkpt>
      <trkpt lat="45.51905" lon="7.24748">
        <ele>3160.4</ele>
        <time>2021-11-07T16:35:05Z</time>
      </trkpt>
      <trkpt lat="45.51905" lon="7.24747">
        <ele>3160.4</ele>
        <time>2021-11-07T16:35:12Z</time>
      </trkpt>
      <trkpt lat="45.51904" lon="7.24748">
        <ele>3160.4</ele>
        <time>2021-11-07T16:35:15Z</time>
      </trkpt>
      <trkpt lat="45.51904" lon="7.24747">
        <ele>3160.2</ele>
        <time>2021-11-07T16:35:18Z</time>
      </trkpt>
      <trkpt lat="45.51904" lon="7.24745">
        <ele>3160.1</ele>
        <time>2021-11-07T16:35:23Z</time>
      </trkpt>
      <trkpt lat="45.51904" lon="7.24745">
        <ele>3160.1</ele>
        <time>2021-11-07T16:35:24Z</time>
      </trkpt>
      <trkpt lat="45.51904" lon="7.24745">
        <ele>3160.1</ele>
        <time>2021-11-07T16:35:29Z</time>
      </trkpt>
      <trkpt lat="45.51904" lon="7.24745">
        <ele>3160.1</ele>
        <time>2021-11-07T16:35:31Z</time>
      </trkpt>
      <trkpt lat="45.51904" lon="7.24745">
        <ele>3160.1</ele>
        <time>2021-11-07T16:35:33Z</time>
      </trkpt>
      <trkpt lat="45.51904" lon="7.24745">
        <ele>3160.1</ele>
        <time>2021-11-07T16:35:34Z</time>
      </trkpt>
      <trkpt lat="45.51904" lon="7.24745">
        <ele>3160.1</ele>
        <time>2021-11-07T16:35:38Z</time>
      </trkpt>
      <trkpt lat="45.51905" lon="7.24746">
        <ele>3159.9</ele>
        <time>2021-11-07T16:35:48Z</time>
      </trkpt>
      <trkpt lat="45.51904" lon="7.24745">
        <ele>3159.7</ele>
        <time>2021-11-07T16:35:58Z</time>
      </trkpt>
      <trkpt lat="45.51904" lon="7.24745">
        <ele>3159.7</ele>
        <time>2021-11-07T16:36:00Z</time>
      </trkpt>
      <trkpt lat="45.51904" lon="7.24746">
        <ele>3159.7</ele>
        <time>2021-11-07T16:36:02Z</time>
      </trkpt>
      <trkpt lat="45.51902" lon="7.24746">
        <ele>3159.5</ele>
        <time>2021-11-07T16:36:10Z</time>
      </trkpt>
      <trkpt lat="45.51901" lon="7.24745">
        <ele>3159.4</ele>
        <time>2021-11-07T16:36:14Z</time>
      </trkpt>
      <trkpt lat="45.51901" lon="7.24745">
        <ele>3159.3</ele>
        <time>2021-11-07T16:36:15Z</time>
      </trkpt>
      <trkpt lat="45.51901" lon="7.24746">
        <ele>3159.3</ele>
        <time>2021-11-07T16:36:16Z</time>
      </trkpt>
      <trkpt lat="45.51902" lon="7.24747">
        <ele>3159.1</ele>
        <time>2021-11-07T16:36:20Z</time>
      </trkpt>
      <trkpt lat="45.51904" lon="7.24749">
        <ele>3158.9</ele>
        <time>2021-11-07T16:36:26Z</time>
      </trkpt>
      <trkpt lat="45.51904" lon="7.24749">
        <ele>3158.8</ele>
        <time>2021-11-07T16:36:28Z</time>
      </trkpt>
      <trkpt lat="45.51904" lon="7.24749">
        <ele>3158.8</ele>
        <time>2021-11-07T16:36:31Z</time>
      </trkpt>
      <trkpt lat="45.51904" lon="7.24749">
        <ele>3158.8</ele>
        <time>2021-11-07T16:36:32Z</time>
      </trkpt>
      <trkpt lat="45.51906" lon="7.24748">
        <ele>3158.6</ele>
        <time>2021-11-07T16:36:36Z</time>
      </trkpt>
      <trkpt lat="45.51905" lon="7.24748">
        <ele>3158.5</ele>
        <time>2021-11-07T16:36:47Z</time>
      </trkpt>
      <trkpt lat="45.51905" lon="7.24748">
        <ele>3158.5</ele>
        <time>2021-11-07T16:36:55Z</time>
      </trkpt>
      <trkpt lat="45.51906" lon="7.24748">
        <ele>3158.5</ele>
        <time>2021-11-07T16:36:57Z</time>
      </trkpt>
      <trkpt lat="45.51906" lon="7.24747">
        <ele>3158.5</ele>
        <time>2021-11-07T16:36:59Z</time>
      </trkpt>
      <trkpt lat="45.51905" lon="7.24747">
        <ele>3158.4</ele>
        <time>2021-11-07T16:37:06Z</time>
      </trkpt>
      <trkpt lat="45.51904" lon="7.24747">
        <ele>3158.3</ele>
        <time>2021-11-07T16:37:14Z</time>
      </trkpt>
      <trkpt lat="45.51905" lon="7.24748">
        <ele>3158.1</ele>
        <time>2021-11-07T16:37:21Z</time>
      </trkpt>
      <trkpt lat="45.51905" lon="7.24748">
        <ele>3158.1</ele>
        <time>2021-11-07T16:37:26Z</time>
      </trkpt>
      <trkpt lat="45.51904" lon="7.24748">
        <ele>3158</ele>
        <time>2021-11-07T16:37:38Z</time>
      </trkpt>
      <trkpt lat="45.51904" lon="7.24748">
        <ele>3157.9</ele>
        <time>2021-11-07T16:37:39Z</time>
      </trkpt>
      <trkpt lat="45.51904" lon="7.24749">
        <ele>3157.9</ele>
        <time>2021-11-07T16:37:48Z</time>
      </trkpt>
      <trkpt lat="45.51904" lon="7.24749">
        <ele>3157.9</ele>
        <time>2021-11-07T16:37:50Z</time>
      </trkpt>
      <trkpt lat="45.51904" lon="7.2475">
        <ele>3157.8</ele>
        <time>2021-11-07T16:37:57Z</time>
      </trkpt>
      <trkpt lat="45.51904" lon="7.2475">
        <ele>3157.8</ele>
        <time>2021-11-07T16:37:58Z</time>
      </trkpt>
      <trkpt lat="45.51904" lon="7.2475">
        <ele>3157.8</ele>
        <time>2021-11-07T16:37:59Z</time>
      </trkpt>
      <trkpt lat="45.51905" lon="7.2475">
        <ele>3157.7</ele>
        <time>2021-11-07T16:38:03Z</time>
      </trkpt>
      <trkpt lat="45.51905" lon="7.2475">
        <ele>3157.7</ele>
        <time>2021-11-07T16:38:06Z</time>
      </trkpt>
      <trkpt lat="45.51905" lon="7.24751">
        <ele>3157.6</ele>
        <time>2021-11-07T16:38:14Z</time>
      </trkpt>
      <trkpt lat="45.51906" lon="7.24751">
        <ele>3157.5</ele>
        <time>2021-11-07T16:38:20Z</time>
      </trkpt>
      <trkpt lat="45.51905" lon="7.24749">
        <ele>3157.3</ele>
        <time>2021-11-07T16:38:32Z</time>
      </trkpt>
      <trkpt lat="45.51905" lon="7.2475">
        <ele>3157.2</ele>
        <time>2021-11-07T16:38:35Z</time>
      </trkpt>
      <trkpt lat="45.51905" lon="7.2475">
        <ele>3157.2</ele>
        <time>2021-11-07T16:38:39Z</time>
      </trkpt>
      <trkpt lat="45.51905" lon="7.24749">
        <ele>3157.2</ele>
        <time>2021-11-07T16:38:43Z</time>
      </trkpt>
      <trkpt lat="45.51905" lon="7.24749">
        <ele>3157.2</ele>
        <time>2021-11-07T16:38:47Z</time>
      </trkpt>
      <trkpt lat="45.51905" lon="7.24748">
        <ele>3157.1</ele>
        <time>2021-11-07T16:38:51Z</time>
      </trkpt>
      <trkpt lat="45.51905" lon="7.24748">
        <ele>3157.1</ele>
        <time>2021-11-07T16:38:54Z</time>
      </trkpt>
      <trkpt lat="45.51904" lon="7.24749">
        <ele>3157</ele>
        <time>2021-11-07T16:38:59Z</time>
      </trkpt>
      <trkpt lat="45.51905" lon="7.24749">
        <ele>3156.9</ele>
        <time>2021-11-07T16:39:01Z</time>
      </trkpt>
      <trkpt lat="45.51905" lon="7.24749">
        <ele>3156.9</ele>
        <time>2021-11-07T16:39:02Z</time>
      </trkpt>
      <trkpt lat="45.51905" lon="7.24749">
        <ele>3156.9</ele>
        <time>2021-11-07T16:39:05Z</time>
      </trkpt>
      <trkpt lat="45.51906" lon="7.24749">
        <ele>3156.8</ele>
        <time>2021-11-07T16:39:07Z</time>
      </trkpt>
      <trkpt lat="45.51905" lon="7.2475">
        <ele>3156.7</ele>
        <time>2021-11-07T16:39:12Z</time>
      </trkpt>
      <trkpt lat="45.51905" lon="7.2475">
        <ele>3156.7</ele>
        <time>2021-11-07T16:39:13Z</time>
      </trkpt>
      <trkpt lat="45.51905" lon="7.24752">
        <ele>3156.6</ele>
        <time>2021-11-07T16:39:23Z</time>
      </trkpt>
      <trkpt lat="45.51905" lon="7.24753">
        <ele>3156.4</ele>
        <time>2021-11-07T16:39:26Z</time>
      </trkpt>
      <trkpt lat="45.51905" lon="7.24753">
        <ele>3156.4</ele>
        <time>2021-11-07T16:39:27Z</time>
      </trkpt>
      <trkpt lat="45.51905" lon="7.24753">
        <ele>3156.4</ele>
        <time>2021-11-07T16:39:28Z</time>
      </trkpt>
      <trkpt lat="45.51905" lon="7.2475">
        <ele>3156.2</ele>
        <time>2021-11-07T16:39:40Z</time>
      </trkpt>
      <trkpt lat="45.51903" lon="7.24749">
        <ele>3155.9</ele>
        <time>2021-11-07T16:39:49Z</time>
      </trkpt>
      <trkpt lat="45.51903" lon="7.24749">
        <ele>3155.9</ele>
        <time>2021-11-07T16:39:53Z</time>
      </trkpt>
      <trkpt lat="45.51905" lon="7.24748">
        <ele>3155.6</ele>
        <time>2021-11-07T16:40:04Z</time>
      </trkpt>
      <trkpt lat="45.51906" lon="7.24749">
        <ele>3155.6</ele>
        <time>2021-11-07T16:40:09Z</time>
      </trkpt>
      <trkpt lat="45.51904" lon="7.24749">
        <ele>3155.4</ele>
        <time>2021-11-07T16:40:14Z</time>
      </trkpt>
      <trkpt lat="45.51904" lon="7.24749">
        <ele>3155.4</ele>
        <time>2021-11-07T16:40:28Z</time>
      </trkpt>
      <trkpt lat="45.51904" lon="7.24749">
        <ele>3155.4</ele>
        <time>2021-11-07T16:40:30Z</time>
      </trkpt>
      <trkpt lat="45.51904" lon="7.24749">
        <ele>3155.4</ele>
        <time>2021-11-07T16:40:31Z</time>
      </trkpt>
      <trkpt lat="45.51904" lon="7.24748">
        <ele>3155.2</ele>
        <time>2021-11-07T16:40:48Z</time>
      </trkpt>
      <trkpt lat="45.51904" lon="7.24747">
        <ele>3155.2</ele>
        <time>2021-11-07T16:40:51Z</time>
      </trkpt>
      <trkpt lat="45.51905" lon="7.24748">
        <ele>3155.1</ele>
        <time>2021-11-07T16:41:04Z</time>
      </trkpt>
      <trkpt lat="45.51904" lon="7.24748">
        <ele>3155.1</ele>
        <time>2021-11-07T16:41:09Z</time>
      </trkpt>
      <trkpt lat="45.51904" lon="7.24748">
        <ele>3155.1</ele>
        <time>2021-11-07T16:41:10Z</time>
      </trkpt>
      <trkpt lat="45.51904" lon="7.24748">
        <ele>3155</ele>
        <time>2021-11-07T16:41:15Z</time>
      </trkpt>
      <trkpt lat="45.51904" lon="7.24748">
        <ele>3155</ele>
        <time>2021-11-07T16:41:17Z</time>
      </trkpt>
      <trkpt lat="45.51904" lon="7.24748">
        <ele>3155</ele>
        <time>2021-11-07T16:41:19Z</time>
      </trkpt>
      <trkpt lat="45.51904" lon="7.24749">
        <ele>3154.9</ele>
        <time>2021-11-07T16:41:32Z</time>
      </trkpt>
      <trkpt lat="45.51904" lon="7.24749">
        <ele>3154.9</ele>
        <time>2021-11-07T16:41:35Z</time>
      </trkpt>
      <trkpt lat="45.51904" lon="7.24749">
        <ele>3154.9</ele>
        <time>2021-11-07T16:41:36Z</time>
      </trkpt>
      <trkpt lat="45.51905" lon="7.24749">
        <ele>3154.8</ele>
        <time>2021-11-07T16:41:39Z</time>
      </trkpt>
      <trkpt lat="45.51904" lon="7.24749">
        <ele>3154.8</ele>
        <time>2021-11-07T16:41:40Z</time>
      </trkpt>
      <trkpt lat="45.51905" lon="7.24749">
        <ele>3154.7</ele>
        <time>2021-11-07T16:41:46Z</time>
      </trkpt>
      <trkpt lat="45.51905" lon="7.24749">
        <ele>3154.7</ele>
        <time>2021-11-07T16:41:47Z</time>
      </trkpt>
      <trkpt lat="45.51905" lon="7.2475">
        <ele>3154.7</ele>
        <time>2021-11-07T16:41:58Z</time>
      </trkpt>
      <trkpt lat="45.51906" lon="7.24751">
        <ele>3154.5</ele>
        <time>2021-11-07T16:42:10Z</time>
      </trkpt>
      <trkpt lat="45.51906" lon="7.24751">
        <ele>3154.5</ele>
        <time>2021-11-07T16:42:11Z</time>
      </trkpt>
      <trkpt lat="45.51907" lon="7.24748">
        <ele>3154.3</ele>
        <time>2021-11-07T16:42:24Z</time>
      </trkpt>
      <trkpt lat="45.51906" lon="7.2475">
        <ele>3154</ele>
        <time>2021-11-07T16:42:28Z</time>
      </trkpt>
      <trkpt lat="45.51905" lon="7.24752">
        <ele>3153.9</ele>
        <time>2021-11-07T16:42:31Z</time>
      </trkpt>
      <trkpt lat="45.51905" lon="7.24752">
        <ele>3153.8</ele>
        <time>2021-11-07T16:42:32Z</time>
      </trkpt>
      <trkpt lat="45.51904" lon="7.24753">
        <ele>3153.7</ele>
        <time>2021-11-07T16:42:37Z</time>
      </trkpt>
      <trkpt lat="45.51903" lon="7.24753">
        <ele>3153.6</ele>
        <time>2021-11-07T16:42:41Z</time>
      </trkpt>
      <trkpt lat="45.51903" lon="7.24752">
        <ele>3153.5</ele>
        <time>2021-11-07T16:42:45Z</time>
      </trkpt>
      <trkpt lat="45.51902" lon="7.24752">
        <ele>3153.5</ele>
        <time>2021-11-07T16:42:48Z</time>
      </trkpt>
      <trkpt lat="45.51902" lon="7.24752">
        <ele>3153.4</ele>
        <time>2021-11-07T16:42:50Z</time>
      </trkpt>
      <trkpt lat="45.51904" lon="7.24751">
        <ele>3153.3</ele>
        <time>2021-11-07T16:42:58Z</time>
      </trkpt>
      <trkpt lat="45.51904" lon="7.24754">
        <ele>3153.1</ele>
        <time>2021-11-07T16:43:03Z</time>
      </trkpt>
      <trkpt lat="45.51906" lon="7.24756">
        <ele>3152.7</ele>
        <time>2021-11-07T16:43:07Z</time>
      </trkpt>
      <trkpt lat="45.51908" lon="7.24756">
        <ele>3152.6</ele>
        <time>2021-11-07T16:43:08Z</time>
      </trkpt>
      <trkpt lat="45.51911" lon="7.24756">
        <ele>3152.2</ele>
        <time>2021-11-07T16:43:12Z</time>
      </trkpt>
      <trkpt lat="45.51913" lon="7.24757">
        <ele>3151.9</ele>
        <time>2021-11-07T16:43:15Z</time>
      </trkpt>
      <trkpt lat="45.51914" lon="7.24757">
        <ele>3151.7</ele>
        <time>2021-11-07T16:43:16Z</time>
      </trkpt>
      <trkpt lat="45.51915" lon="7.24757">
        <ele>3151.6</ele>
        <time>2021-11-07T16:43:17Z</time>
      </trkpt>
      <trkpt lat="45.51917" lon="7.24756">
        <ele>3151.5</ele>
        <time>2021-11-07T16:43:18Z</time>
      </trkpt>
      <trkpt lat="45.51917" lon="7.24756">
        <ele>3151.4</ele>
        <time>2021-11-07T16:43:19Z</time>
      </trkpt>
      <trkpt lat="45.51917" lon="7.24756">
        <ele>3151.3</ele>
        <time>2021-11-07T16:43:20Z</time>
      </trkpt>
      <trkpt lat="45.51918" lon="7.24754">
        <ele>3151.3</ele>
        <time>2021-11-07T16:43:24Z</time>
      </trkpt>
      <trkpt lat="45.51918" lon="7.24754">
        <ele>3151.2</ele>
        <time>2021-11-07T16:43:26Z</time>
      </trkpt>
      <trkpt lat="45.5192" lon="7.24753">
        <ele>3150.9</ele>
        <time>2021-11-07T16:43:33Z</time>
      </trkpt>
      <trkpt lat="45.51924" lon="7.24748">
        <ele>3150.3</ele>
        <time>2021-11-07T16:43:37Z</time>
      </trkpt>
      <trkpt lat="45.51925" lon="7.24747">
        <ele>3150.1</ele>
        <time>2021-11-07T16:43:38Z</time>
      </trkpt>
      <trkpt lat="45.51927" lon="7.24744">
        <ele>3149.8</ele>
        <time>2021-11-07T16:43:40Z</time>
      </trkpt>
      <trkpt lat="45.51928" lon="7.24743">
        <ele>3149.6</ele>
        <time>2021-11-07T16:43:41Z</time>
      </trkpt>
      <trkpt lat="45.51928" lon="7.24742">
        <ele>3149.5</ele>
        <time>2021-11-07T16:43:42Z</time>
      </trkpt>
      <trkpt lat="45.51929" lon="7.24741">
        <ele>3149.4</ele>
        <time>2021-11-07T16:43:43Z</time>
      </trkpt>
      <trkpt lat="45.5193" lon="7.2474">
        <ele>3149.3</ele>
        <time>2021-11-07T16:43:44Z</time>
      </trkpt>
      <trkpt lat="45.51932" lon="7.24739">
        <ele>3149.1</ele>
        <time>2021-11-07T16:43:46Z</time>
      </trkpt>
      <trkpt lat="45.51934" lon="7.24738">
        <ele>3147.8</ele>
        <time>2021-11-07T16:43:49Z</time>
      </trkpt>
      <trkpt lat="45.51934" lon="7.24738">
        <ele>3147.7</ele>
        <time>2021-11-07T16:43:50Z</time>
      </trkpt>
      <trkpt lat="45.51934" lon="7.24738">
        <ele>3147.6</ele>
        <time>2021-11-07T16:43:51Z</time>
      </trkpt>
      <trkpt lat="45.51934" lon="7.24738">
        <ele>3147.4</ele>
        <time>2021-11-07T16:43:52Z</time>
      </trkpt>
      <trkpt lat="45.51936" lon="7.24736">
        <ele>3146.8</ele>
        <time>2021-11-07T16:43:55Z</time>
      </trkpt>
      <trkpt lat="45.51937" lon="7.24736">
        <ele>3146.3</ele>
        <time>2021-11-07T16:43:57Z</time>
      </trkpt>
      <trkpt lat="45.51939" lon="7.24735">
        <ele>3145.6</ele>
        <time>2021-11-07T16:43:59Z</time>
      </trkpt>
      <trkpt lat="45.5194" lon="7.24735">
        <ele>3145.3</ele>
        <time>2021-11-07T16:44:00Z</time>
      </trkpt>
      <trkpt lat="45.51943" lon="7.24732">
        <ele>3143.8</ele>
        <time>2021-11-07T16:44:06Z</time>
      </trkpt>
      <trkpt lat="45.51944" lon="7.24731">
        <ele>3143.4</ele>
        <time>2021-11-07T16:44:08Z</time>
      </trkpt>
      <trkpt lat="45.51945" lon="7.24731">
        <ele>3143.3</ele>
        <time>2021-11-07T16:44:10Z</time>
      </trkpt>
      <trkpt lat="45.51945" lon="7.24731">
        <ele>3143.2</ele>
        <time>2021-11-07T16:44:11Z</time>
      </trkpt>
      <trkpt lat="45.51945" lon="7.2473">
        <ele>3143.1</ele>
        <time>2021-11-07T16:44:18Z</time>
      </trkpt>
      <trkpt lat="45.51945" lon="7.2473">
        <ele>3143</ele>
        <time>2021-11-07T16:44:20Z</time>
      </trkpt>
      <trkpt lat="45.51946" lon="7.2473">
        <ele>3142.6</ele>
        <time>2021-11-07T16:44:23Z</time>
      </trkpt>
      <trkpt lat="45.51948" lon="7.24728">
        <ele>3141.8</ele>
        <time>2021-11-07T16:44:27Z</time>
      </trkpt>
      <trkpt lat="45.51949" lon="7.24727">
        <ele>3141.5</ele>
        <time>2021-11-07T16:44:30Z</time>
      </trkpt>
      <trkpt lat="45.51948" lon="7.24727">
        <ele>3141.4</ele>
        <time>2021-11-07T16:44:32Z</time>
      </trkpt>
      <trkpt lat="45.5195" lon="7.24726">
        <ele>3140.8</ele>
        <time>2021-11-07T16:44:35Z</time>
      </trkpt>
      <trkpt lat="45.5195" lon="7.24725">
        <ele>3140.6</ele>
        <time>2021-11-07T16:44:37Z</time>
      </trkpt>
      <trkpt lat="45.51951" lon="7.24725">
        <ele>3140.4</ele>
        <time>2021-11-07T16:44:40Z</time>
      </trkpt>
      <trkpt lat="45.51951" lon="7.24724">
        <ele>3140.3</ele>
        <time>2021-11-07T16:44:41Z</time>
      </trkpt>
      <trkpt lat="45.51951" lon="7.24722">
        <ele>3139.8</ele>
        <time>2021-11-07T16:44:45Z</time>
      </trkpt>
      <trkpt lat="45.51951" lon="7.24721">
        <ele>3139.6</ele>
        <time>2021-11-07T16:44:46Z</time>
      </trkpt>
      <trkpt lat="45.5195" lon="7.2472">
        <ele>3139.2</ele>
        <time>2021-11-07T16:44:48Z</time>
      </trkpt>
      <trkpt lat="45.5195" lon="7.24719">
        <ele>3139.1</ele>
        <time>2021-11-07T16:44:49Z</time>
      </trkpt>
      <trkpt lat="45.51949" lon="7.24716">
        <ele>3138.4</ele>
        <time>2021-11-07T16:44:52Z</time>
      </trkpt>
      <trkpt lat="45.51949" lon="7.2471">
        <ele>3137.2</ele>
        <time>2021-11-07T16:44:59Z</time>
      </trkpt>
      <trkpt lat="45.5195" lon="7.24709">
        <ele>3136.7</ele>
        <time>2021-11-07T16:45:02Z</time>
      </trkpt>
      <trkpt lat="45.5195" lon="7.24709">
        <ele>3136.5</ele>
        <time>2021-11-07T16:45:11Z</time>
      </trkpt>
      <trkpt lat="45.51949" lon="7.24708">
        <ele>3136.1</ele>
        <time>2021-11-07T16:45:20Z</time>
      </trkpt>
      <trkpt lat="45.5195" lon="7.24705">
        <ele>3135.3</ele>
        <time>2021-11-07T16:45:25Z</time>
      </trkpt>
      <trkpt lat="45.51952" lon="7.24703">
        <ele>3134.4</ele>
        <time>2021-11-07T16:45:28Z</time>
      </trkpt>
      <trkpt lat="45.51955" lon="7.24701">
        <ele>3133.6</ele>
        <time>2021-11-07T16:45:30Z</time>
      </trkpt>
      <trkpt lat="45.51956" lon="7.247">
        <ele>3133.2</ele>
        <time>2021-11-07T16:45:31Z</time>
      </trkpt>
      <trkpt lat="45.51959" lon="7.24699">
        <ele>3132.4</ele>
        <time>2021-11-07T16:45:34Z</time>
      </trkpt>
      <trkpt lat="45.5196" lon="7.247">
        <ele>3132.2</ele>
        <time>2021-11-07T16:45:35Z</time>
      </trkpt>
      <trkpt lat="45.5196" lon="7.247">
        <ele>3132.1</ele>
        <time>2021-11-07T16:45:36Z</time>
      </trkpt>
      <trkpt lat="45.5196" lon="7.24699">
        <ele>3132</ele>
        <time>2021-11-07T16:45:42Z</time>
      </trkpt>
      <trkpt lat="45.51963" lon="7.24693">
        <ele>3130.5</ele>
        <time>2021-11-07T16:45:50Z</time>
      </trkpt>
      <trkpt lat="45.51963" lon="7.24692">
        <ele>3130.3</ele>
        <time>2021-11-07T16:45:51Z</time>
      </trkpt>
      <trkpt lat="45.51965" lon="7.24689">
        <ele>3129.5</ele>
        <time>2021-11-07T16:45:54Z</time>
      </trkpt>
      <trkpt lat="45.51968" lon="7.24688">
        <ele>3128.9</ele>
        <time>2021-11-07T16:45:57Z</time>
      </trkpt>
      <trkpt lat="45.51968" lon="7.24688">
        <ele>3128.8</ele>
        <time>2021-11-07T16:45:59Z</time>
      </trkpt>
      <trkpt lat="45.51968" lon="7.24688">
        <ele>3128.7</ele>
        <time>2021-11-07T16:46:00Z</time>
      </trkpt>
      <trkpt lat="45.51969" lon="7.24686">
        <ele>3128.3</ele>
        <time>2021-11-07T16:46:04Z</time>
      </trkpt>
      <trkpt lat="45.5197" lon="7.24683">
        <ele>3127.6</ele>
        <time>2021-11-07T16:46:09Z</time>
      </trkpt>
      <trkpt lat="45.51971" lon="7.24682">
        <ele>3127.3</ele>
        <time>2021-11-07T16:46:11Z</time>
      </trkpt>
      <trkpt lat="45.51973" lon="7.24679">
        <ele>3126.6</ele>
        <time>2021-11-07T16:46:16Z</time>
      </trkpt>
      <trkpt lat="45.51974" lon="7.24676">
        <ele>3125.8</ele>
        <time>2021-11-07T16:46:20Z</time>
      </trkpt>
      <trkpt lat="45.51974" lon="7.24675">
        <ele>3125.7</ele>
        <time>2021-11-07T16:46:21Z</time>
      </trkpt>
      <trkpt lat="45.51974" lon="7.24674">
        <ele>3125.5</ele>
        <time>2021-11-07T16:46:24Z</time>
      </trkpt>
      <trkpt lat="45.51977" lon="7.24671">
        <ele>3124.5</ele>
        <time>2021-11-07T16:46:31Z</time>
      </trkpt>
      <trkpt lat="45.5198" lon="7.24666">
        <ele>3123.3</ele>
        <time>2021-11-07T16:46:36Z</time>
      </trkpt>
      <trkpt lat="45.51981" lon="7.24663">
        <ele>3122.5</ele>
        <time>2021-11-07T16:46:39Z</time>
      </trkpt>
      <trkpt lat="45.51982" lon="7.2466">
        <ele>3121.9</ele>
        <time>2021-11-07T16:46:42Z</time>
      </trkpt>
      <trkpt lat="45.51984" lon="7.24655">
        <ele>3120.7</ele>
        <time>2021-11-07T16:46:46Z</time>
      </trkpt>
      <trkpt lat="45.51985" lon="7.24654">
        <ele>3120.3</ele>
        <time>2021-11-07T16:46:51Z</time>
      </trkpt>
      <trkpt lat="45.51986" lon="7.24655">
        <ele>3120</ele>
        <time>2021-11-07T16:47:00Z</time>
      </trkpt>
      <trkpt lat="45.51986" lon="7.24655">
        <ele>3119.9</ele>
        <time>2021-11-07T16:47:02Z</time>
      </trkpt>
      <trkpt lat="45.51987" lon="7.24658">
        <ele>3119.4</ele>
        <time>2021-11-07T16:47:11Z</time>
      </trkpt>
      <trkpt lat="45.51988" lon="7.24659">
        <ele>3119.1</ele>
        <time>2021-11-07T16:47:14Z</time>
      </trkpt>
      <trkpt lat="45.51987" lon="7.2466">
        <ele>3118.8</ele>
        <time>2021-11-07T16:47:16Z</time>
      </trkpt>
      <trkpt lat="45.51986" lon="7.24661">
        <ele>3118.6</ele>
        <time>2021-11-07T16:47:17Z</time>
      </trkpt>
      <trkpt lat="45.51985" lon="7.24661">
        <ele>3118.4</ele>
        <time>2021-11-07T16:47:28Z</time>
      </trkpt>
      <trkpt lat="45.51983" lon="7.24656">
        <ele>3117.2</ele>
        <time>2021-11-07T16:47:36Z</time>
      </trkpt>
      <trkpt lat="45.51983" lon="7.24655">
        <ele>3117.1</ele>
        <time>2021-11-07T16:47:37Z</time>
      </trkpt>
      <trkpt lat="45.51983" lon="7.24654">
        <ele>3116.9</ele>
        <time>2021-11-07T16:47:38Z</time>
      </trkpt>
      <trkpt lat="45.51982" lon="7.24648">
        <ele>3115.7</ele>
        <time>2021-11-07T16:47:49Z</time>
      </trkpt>
      <trkpt lat="45.51981" lon="7.24639">
        <ele>3113.7</ele>
        <time>2021-11-07T16:47:59Z</time>
      </trkpt>
      <trkpt lat="45.51981" lon="7.24639">
        <ele>3113.6</ele>
        <time>2021-11-07T16:48:01Z</time>
      </trkpt>
      <trkpt lat="45.51981" lon="7.24633">
        <ele>3112.8</ele>
        <time>2021-11-07T16:48:09Z</time>
      </trkpt>
      <trkpt lat="45.51981" lon="7.24632">
        <ele>3112.6</ele>
        <time>2021-11-07T16:48:10Z</time>
      </trkpt>
      <trkpt lat="45.51981" lon="7.24631">
        <ele>3112.4</ele>
        <time>2021-11-07T16:48:11Z</time>
      </trkpt>
      <trkpt lat="45.51982" lon="7.24628">
        <ele>3112</ele>
        <time>2021-11-07T16:48:13Z</time>
      </trkpt>
      <trkpt lat="45.51983" lon="7.24615">
        <ele>3110</ele>
        <time>2021-11-07T16:48:22Z</time>
      </trkpt>
      <trkpt lat="45.51984" lon="7.24614">
        <ele>3109.8</ele>
        <time>2021-11-07T16:48:23Z</time>
      </trkpt>
      <trkpt lat="45.51984" lon="7.24609">
        <ele>3109.1</ele>
        <time>2021-11-07T16:48:26Z</time>
      </trkpt>
      <trkpt lat="45.51984" lon="7.24608">
        <ele>3109</ele>
        <time>2021-11-07T16:48:27Z</time>
      </trkpt>
      <trkpt lat="45.51983" lon="7.246">
        <ele>3107.7</ele>
        <time>2021-11-07T16:48:33Z</time>
      </trkpt>
      <trkpt lat="45.51983" lon="7.24596">
        <ele>3107.2</ele>
        <time>2021-11-07T16:48:36Z</time>
      </trkpt>
      <trkpt lat="45.51983" lon="7.24595">
        <ele>3107.1</ele>
        <time>2021-11-07T16:48:37Z</time>
      </trkpt>
      <trkpt lat="45.51983" lon="7.24595">
        <ele>3107</ele>
        <time>2021-11-07T16:48:38Z</time>
      </trkpt>
      <trkpt lat="45.51983" lon="7.24593">
        <ele>3106.8</ele>
        <time>2021-11-07T16:48:40Z</time>
      </trkpt>
      <trkpt lat="45.51982" lon="7.24592">
        <ele>3106.5</ele>
        <time>2021-11-07T16:48:42Z</time>
      </trkpt>
      <trkpt lat="45.51982" lon="7.2459">
        <ele>3106.2</ele>
        <time>2021-11-07T16:48:46Z</time>
      </trkpt>
      <trkpt lat="45.51982" lon="7.2459">
        <ele>3106.1</ele>
        <time>2021-11-07T16:48:47Z</time>
      </trkpt>
      <trkpt lat="45.51982" lon="7.24587">
        <ele>3105.8</ele>
        <time>2021-11-07T16:48:52Z</time>
      </trkpt>
      <trkpt lat="45.51982" lon="7.24583">
        <ele>3105.2</ele>
        <time>2021-11-07T16:48:56Z</time>
      </trkpt>
      <trkpt lat="45.51983" lon="7.24582">
        <ele>3105</ele>
        <time>2021-11-07T16:48:59Z</time>
      </trkpt>
      <trkpt lat="45.51983" lon="7.24581">
        <ele>3104.8</ele>
        <time>2021-11-07T16:49:01Z</time>
      </trkpt>
      <trkpt lat="45.51982" lon="7.24576">
        <ele>3104.1</ele>
        <time>2021-11-07T16:49:08Z</time>
      </trkpt>
      <trkpt lat="45.51982" lon="7.24576">
        <ele>3104</ele>
        <time>2021-11-07T16:49:09Z</time>
      </trkpt>
      <trkpt lat="45.51984" lon="7.24564">
        <ele>3102.2</ele>
        <time>2021-11-07T16:49:20Z</time>
      </trkpt>
      <trkpt lat="45.51983" lon="7.24563">
        <ele>3102.1</ele>
        <time>2021-11-07T16:49:21Z</time>
      </trkpt>
      <trkpt lat="45.51983" lon="7.24561">
        <ele>3101.8</ele>
        <time>2021-11-07T16:49:23Z</time>
      </trkpt>
      <trkpt lat="45.51983" lon="7.24558">
        <ele>3101.4</ele>
        <time>2021-11-07T16:49:26Z</time>
      </trkpt>
      <trkpt lat="45.51983" lon="7.24558">
        <ele>3101.3</ele>
        <time>2021-11-07T16:49:27Z</time>
      </trkpt>
      <trkpt lat="45.5198" lon="7.24555">
        <ele>3100.6</ele>
        <time>2021-11-07T16:49:32Z</time>
      </trkpt>
      <trkpt lat="45.5198" lon="7.24554">
        <ele>3100.4</ele>
        <time>2021-11-07T16:49:33Z</time>
      </trkpt>
      <trkpt lat="45.51978" lon="7.24554">
        <ele>3100.1</ele>
        <time>2021-11-07T16:49:37Z</time>
      </trkpt>
      <trkpt lat="45.51976" lon="7.24553">
        <ele>3099.6</ele>
        <time>2021-11-07T16:49:41Z</time>
      </trkpt>
      <trkpt lat="45.51975" lon="7.24553">
        <ele>3099.6</ele>
        <time>2021-11-07T16:49:42Z</time>
      </trkpt>
      <trkpt lat="45.51972" lon="7.24546">
        <ele>3098.3</ele>
        <time>2021-11-07T16:49:51Z</time>
      </trkpt>
      <trkpt lat="45.51971" lon="7.24544">
        <ele>3097.9</ele>
        <time>2021-11-07T16:49:54Z</time>
      </trkpt>
      <trkpt lat="45.51971" lon="7.24543">
        <ele>3097.7</ele>
        <time>2021-11-07T16:49:55Z</time>
      </trkpt>
      <trkpt lat="45.51972" lon="7.2454">
        <ele>3097.2</ele>
        <time>2021-11-07T16:49:58Z</time>
      </trkpt>
      <trkpt lat="45.51974" lon="7.24536">
        <ele>3096.6</ele>
        <time>2021-11-07T16:50:01Z</time>
      </trkpt>
      <trkpt lat="45.51974" lon="7.24535">
        <ele>3096.4</ele>
        <time>2021-11-07T16:50:02Z</time>
      </trkpt>
      <trkpt lat="45.51975" lon="7.24528">
        <ele>3095.3</ele>
        <time>2021-11-07T16:50:10Z</time>
      </trkpt>
      <trkpt lat="45.51976" lon="7.24525">
        <ele>3094.9</ele>
        <time>2021-11-07T16:50:13Z</time>
      </trkpt>
      <trkpt lat="45.51975" lon="7.24524">
        <ele>3094.8</ele>
        <time>2021-11-07T16:50:14Z</time>
      </trkpt>
      <trkpt lat="45.51975" lon="7.24523">
        <ele>3094.5</ele>
        <time>2021-11-07T16:50:16Z</time>
      </trkpt>
      <trkpt lat="45.51975" lon="7.24515">
        <ele>3093.4</ele>
        <time>2021-11-07T16:50:25Z</time>
      </trkpt>
      <trkpt lat="45.51975" lon="7.24513">
        <ele>3093.2</ele>
        <time>2021-11-07T16:50:27Z</time>
      </trkpt>
      <trkpt lat="45.51975" lon="7.24511">
        <ele>3092.7</ele>
        <time>2021-11-07T16:50:34Z</time>
      </trkpt>
      <trkpt lat="45.51975" lon="7.24507">
        <ele>3092.3</ele>
        <time>2021-11-07T16:50:39Z</time>
      </trkpt>
      <trkpt lat="45.51973" lon="7.24505">
        <ele>3091.8</ele>
        <time>2021-11-07T16:50:42Z</time>
      </trkpt>
      <trkpt lat="45.51973" lon="7.24504">
        <ele>3091.6</ele>
        <time>2021-11-07T16:50:43Z</time>
      </trkpt>
      <trkpt lat="45.51971" lon="7.245">
        <ele>3090.9</ele>
        <time>2021-11-07T16:50:48Z</time>
      </trkpt>
      <trkpt lat="45.51969" lon="7.24496">
        <ele>3090.3</ele>
        <time>2021-11-07T16:50:52Z</time>
      </trkpt>
      <trkpt lat="45.51969" lon="7.24495">
        <ele>3090.1</ele>
        <time>2021-11-07T16:50:53Z</time>
      </trkpt>
      <trkpt lat="45.51969" lon="7.24493">
        <ele>3089.8</ele>
        <time>2021-11-07T16:50:57Z</time>
      </trkpt>
      <trkpt lat="45.51969" lon="7.24493">
        <ele>3089.8</ele>
        <time>2021-11-07T16:50:58Z</time>
      </trkpt>
      <trkpt lat="45.51968" lon="7.24494">
        <ele>3089.8</ele>
        <time>2021-11-07T16:51:01Z</time>
      </trkpt>
      <trkpt lat="45.51967" lon="7.2449">
        <ele>3089.2</ele>
        <time>2021-11-07T16:51:11Z</time>
      </trkpt>
      <trkpt lat="45.51967" lon="7.24488">
        <ele>3088.8</ele>
        <time>2021-11-07T16:51:13Z</time>
      </trkpt>
      <trkpt lat="45.51969" lon="7.24485">
        <ele>3088.3</ele>
        <time>2021-11-07T16:51:20Z</time>
      </trkpt>
      <trkpt lat="45.51969" lon="7.24484">
        <ele>3088.1</ele>
        <time>2021-11-07T16:51:22Z</time>
      </trkpt>
      <trkpt lat="45.51969" lon="7.24482">
        <ele>3087.8</ele>
        <time>2021-11-07T16:51:29Z</time>
      </trkpt>
      <trkpt lat="45.51969" lon="7.24482">
        <ele>3087.8</ele>
        <time>2021-11-07T16:51:32Z</time>
      </trkpt>
      <trkpt lat="45.51969" lon="7.24481">
        <ele>3087.6</ele>
        <time>2021-11-07T16:51:39Z</time>
      </trkpt>
      <trkpt lat="45.51969" lon="7.24479">
        <ele>3087.3</ele>
        <time>2021-11-07T16:51:43Z</time>
      </trkpt>
      <trkpt lat="45.51968" lon="7.24476">
        <ele>3086.9</ele>
        <time>2021-11-07T16:51:48Z</time>
      </trkpt>
      <trkpt lat="45.51969" lon="7.24475">
        <ele>3086.8</ele>
        <time>2021-11-07T16:51:50Z</time>
      </trkpt>
      <trkpt lat="45.51968" lon="7.24474">
        <ele>3086.5</ele>
        <time>2021-11-07T16:51:53Z</time>
      </trkpt>
      <trkpt lat="45.51968" lon="7.24473">
        <ele>3086.5</ele>
        <time>2021-11-07T16:51:54Z</time>
      </trkpt>
      <trkpt lat="45.51969" lon="7.24469">
        <ele>3085.8</ele>
        <time>2021-11-07T16:52:01Z</time>
      </trkpt>
      <trkpt lat="45.51969" lon="7.24467">
        <ele>3085.5</ele>
        <time>2021-11-07T16:52:03Z</time>
      </trkpt>
      <trkpt lat="45.51968" lon="7.24464">
        <ele>3085.1</ele>
        <time>2021-11-07T16:52:06Z</time>
      </trkpt>
      <trkpt lat="45.51968" lon="7.24464">
        <ele>3085</ele>
        <time>2021-11-07T16:52:07Z</time>
      </trkpt>
      <trkpt lat="45.51969" lon="7.24462">
        <ele>3084.7</ele>
        <time>2021-11-07T16:52:10Z</time>
      </trkpt>
      <trkpt lat="45.5197" lon="7.24462">
        <ele>3084.5</ele>
        <time>2021-11-07T16:52:12Z</time>
      </trkpt>
      <trkpt lat="45.51972" lon="7.24462">
        <ele>3084.2</ele>
        <time>2021-11-07T16:52:14Z</time>
      </trkpt>
      <trkpt lat="45.51973" lon="7.24461">
        <ele>3084</ele>
        <time>2021-11-07T16:52:16Z</time>
      </trkpt>
      <trkpt lat="45.51973" lon="7.2446">
        <ele>3083.7</ele>
        <time>2021-11-07T16:52:18Z</time>
      </trkpt>
      <trkpt lat="45.51974" lon="7.2446">
        <ele>3083.6</ele>
        <time>2021-11-07T16:52:20Z</time>
      </trkpt>
      <trkpt lat="45.51974" lon="7.24459">
        <ele>3083.5</ele>
        <time>2021-11-07T16:52:29Z</time>
      </trkpt>
      <trkpt lat="45.51976" lon="7.24454">
        <ele>3082.7</ele>
        <time>2021-11-07T16:52:39Z</time>
      </trkpt>
      <trkpt lat="45.51977" lon="7.24454">
        <ele>3082.5</ele>
        <time>2021-11-07T16:52:40Z</time>
      </trkpt>
      <trkpt lat="45.51979" lon="7.2445">
        <ele>3081.7</ele>
        <time>2021-11-07T16:52:45Z</time>
      </trkpt>
      <trkpt lat="45.51983" lon="7.24446">
        <ele>3080.8</ele>
        <time>2021-11-07T16:52:49Z</time>
      </trkpt>
      <trkpt lat="45.51984" lon="7.24445">
        <ele>3080.5</ele>
        <time>2021-11-07T16:52:51Z</time>
      </trkpt>
      <trkpt lat="45.51986" lon="7.24444">
        <ele>3080.1</ele>
        <time>2021-11-07T16:52:53Z</time>
      </trkpt>
      <trkpt lat="45.51988" lon="7.2444">
        <ele>3079.3</ele>
        <time>2021-11-07T16:52:58Z</time>
      </trkpt>
      <trkpt lat="45.51989" lon="7.24439">
        <ele>3079</ele>
        <time>2021-11-07T16:53:00Z</time>
      </trkpt>
      <trkpt lat="45.51991" lon="7.24437">
        <ele>3078.5</ele>
        <time>2021-11-07T16:53:03Z</time>
      </trkpt>
      <trkpt lat="45.51992" lon="7.24436">
        <ele>3078.4</ele>
        <time>2021-11-07T16:53:04Z</time>
      </trkpt>
      <trkpt lat="45.51993" lon="7.24433">
        <ele>3077.8</ele>
        <time>2021-11-07T16:53:08Z</time>
      </trkpt>
      <trkpt lat="45.51996" lon="7.24429">
        <ele>3077</ele>
        <time>2021-11-07T16:53:13Z</time>
      </trkpt>
      <trkpt lat="45.51997" lon="7.24428">
        <ele>3076.8</ele>
        <time>2021-11-07T16:53:14Z</time>
      </trkpt>
      <trkpt lat="45.51997" lon="7.24427">
        <ele>3076.6</ele>
        <time>2021-11-07T16:53:16Z</time>
      </trkpt>
      <trkpt lat="45.51997" lon="7.24427">
        <ele>3076.5</ele>
        <time>2021-11-07T16:53:17Z</time>
      </trkpt>
      <trkpt lat="45.51999" lon="7.24426">
        <ele>3076.2</ele>
        <time>2021-11-07T16:53:20Z</time>
      </trkpt>
      <trkpt lat="45.52" lon="7.24424">
        <ele>3075.9</ele>
        <time>2021-11-07T16:53:24Z</time>
      </trkpt>
      <trkpt lat="45.52" lon="7.24421">
        <ele>3075.4</ele>
        <time>2021-11-07T16:53:31Z</time>
      </trkpt>
      <trkpt lat="45.51999" lon="7.2442">
        <ele>3075.1</ele>
        <time>2021-11-07T16:53:33Z</time>
      </trkpt>
      <trkpt lat="45.51996" lon="7.24417">
        <ele>3074.4</ele>
        <time>2021-11-07T16:53:38Z</time>
      </trkpt>
      <trkpt lat="45.51996" lon="7.24417">
        <ele>3074.3</ele>
        <time>2021-11-07T16:53:39Z</time>
      </trkpt>
      <trkpt lat="45.51994" lon="7.24416">
        <ele>3073.9</ele>
        <time>2021-11-07T16:53:42Z</time>
      </trkpt>
      <trkpt lat="45.51993" lon="7.24416">
        <ele>3073.7</ele>
        <time>2021-11-07T16:53:43Z</time>
      </trkpt>
      <trkpt lat="45.51992" lon="7.24413">
        <ele>3073.2</ele>
        <time>2021-11-07T16:53:47Z</time>
      </trkpt>
      <trkpt lat="45.5199" lon="7.24411">
        <ele>3072.7</ele>
        <time>2021-11-07T16:53:51Z</time>
      </trkpt>
      <trkpt lat="45.51989" lon="7.2441">
        <ele>3072.5</ele>
        <time>2021-11-07T16:53:52Z</time>
      </trkpt>
      <trkpt lat="45.51988" lon="7.24409">
        <ele>3072.2</ele>
        <time>2021-11-07T16:53:54Z</time>
      </trkpt>
      <trkpt lat="45.51987" lon="7.24409">
        <ele>3072.1</ele>
        <time>2021-11-07T16:53:55Z</time>
      </trkpt>
      <trkpt lat="45.51984" lon="7.24409">
        <ele>3071.5</ele>
        <time>2021-11-07T16:54:00Z</time>
      </trkpt>
      <trkpt lat="45.51982" lon="7.24409">
        <ele>3070.8</ele>
        <time>2021-11-07T16:54:05Z</time>
      </trkpt>
      <trkpt lat="45.51976" lon="7.2441">
        <ele>3070.1</ele>
        <time>2021-11-07T16:54:14Z</time>
      </trkpt>
      <trkpt lat="45.51976" lon="7.2441">
        <ele>3069.3</ele>
        <time>2021-11-07T16:54:16Z</time>
      </trkpt>
      <trkpt lat="45.51974" lon="7.24409">
        <ele>3069.3</ele>
        <time>2021-11-07T16:54:19Z</time>
      </trkpt>
      <trkpt lat="45.51972" lon="7.24407">
        <ele>3068.6</ele>
        <time>2021-11-07T16:54:27Z</time>
      </trkpt>
      <trkpt lat="45.51971" lon="7.24405">
        <ele>3067.5</ele>
        <time>2021-11-07T16:54:30Z</time>
      </trkpt>
      <trkpt lat="45.51972" lon="7.24404">
        <ele>3067.5</ele>
        <time>2021-11-07T16:54:33Z</time>
      </trkpt>
      <trkpt lat="45.51973" lon="7.24404">
        <ele>3067.5</ele>
        <time>2021-11-07T16:54:34Z</time>
      </trkpt>
      <trkpt lat="45.51973" lon="7.24403">
        <ele>3068.2</ele>
        <time>2021-11-07T16:54:36Z</time>
      </trkpt>
      <trkpt lat="45.51975" lon="7.24399">
        <ele>3067.2</ele>
        <time>2021-11-07T16:54:42Z</time>
      </trkpt>
      <trkpt lat="45.51978" lon="7.24395">
        <ele>3066.9</ele>
        <time>2021-11-07T16:54:47Z</time>
      </trkpt>
      <trkpt lat="45.51979" lon="7.24395">
        <ele>3067.6</ele>
        <time>2021-11-07T16:54:48Z</time>
      </trkpt>
      <trkpt lat="45.51983" lon="7.24394">
        <ele>3068.4</ele>
        <time>2021-11-07T16:54:54Z</time>
      </trkpt>
      <trkpt lat="45.51983" lon="7.24394">
        <ele>3068.4</ele>
        <time>2021-11-07T16:54:56Z</time>
      </trkpt>
      <trkpt lat="45.51983" lon="7.24394">
        <ele>3068.4</ele>
        <time>2021-11-07T16:54:58Z</time>
      </trkpt>
      <trkpt lat="45.51984" lon="7.24394">
        <ele>3068.4</ele>
        <time>2021-11-07T16:55:12Z</time>
      </trkpt>
      <trkpt lat="45.51986" lon="7.24391">
        <ele>3068.1</ele>
        <time>2021-11-07T16:55:17Z</time>
      </trkpt>
      <trkpt lat="45.51988" lon="7.24388">
        <ele>3067.1</ele>
        <time>2021-11-07T16:55:20Z</time>
      </trkpt>
      <trkpt lat="45.51988" lon="7.24387">
        <ele>3067.9</ele>
        <time>2021-11-07T16:55:21Z</time>
      </trkpt>
      <trkpt lat="45.51992" lon="7.24384">
        <ele>3067.8</ele>
        <time>2021-11-07T16:55:26Z</time>
      </trkpt>
      <trkpt lat="45.51993" lon="7.24383">
        <ele>3067.8</ele>
        <time>2021-11-07T16:55:28Z</time>
      </trkpt>
      <trkpt lat="45.51993" lon="7.24382">
        <ele>3067.8</ele>
        <time>2021-11-07T16:55:29Z</time>
      </trkpt>
      <trkpt lat="45.51994" lon="7.2438">
        <ele>3066.9</ele>
        <time>2021-11-07T16:55:31Z</time>
      </trkpt>
      <trkpt lat="45.51994" lon="7.24378">
        <ele>3067.8</ele>
        <time>2021-11-07T16:55:32Z</time>
      </trkpt>
      <trkpt lat="45.51997" lon="7.24373">
        <ele>3066.8</ele>
        <time>2021-11-07T16:55:37Z</time>
      </trkpt>
      <trkpt lat="45.51998" lon="7.24372">
        <ele>3066.8</ele>
        <time>2021-11-07T16:55:39Z</time>
      </trkpt>
      <trkpt lat="45.51999" lon="7.2437">
        <ele>3066.8</ele>
        <time>2021-11-07T16:55:42Z</time>
      </trkpt>
      <trkpt lat="45.52005" lon="7.2436">
        <ele>3066.8</ele>
        <time>2021-11-07T16:55:53Z</time>
      </trkpt>
      <trkpt lat="45.52007" lon="7.24358">
        <ele>3066.8</ele>
        <time>2021-11-07T16:55:55Z</time>
      </trkpt>
      <trkpt lat="45.52011" lon="7.24354">
        <ele>3066.8</ele>
        <time>2021-11-07T16:56:00Z</time>
      </trkpt>
      <trkpt lat="45.52012" lon="7.24353">
        <ele>3066.8</ele>
        <time>2021-11-07T16:56:01Z</time>
      </trkpt>
      <trkpt lat="45.52013" lon="7.24351">
        <ele>3067.8</ele>
        <time>2021-11-07T16:56:03Z</time>
      </trkpt>
      <trkpt lat="45.52016" lon="7.24346">
        <ele>3066.8</ele>
        <time>2021-11-07T16:56:08Z</time>
      </trkpt>
      <trkpt lat="45.52019" lon="7.2434">
        <ele>3066.9</ele>
        <time>2021-11-07T16:56:13Z</time>
      </trkpt>
      <trkpt lat="45.52021" lon="7.24338">
        <ele>3066.1</ele>
        <time>2021-11-07T16:56:16Z</time>
      </trkpt>
      <trkpt lat="45.52021" lon="7.24338">
        <ele>3066.1</ele>
        <time>2021-11-07T16:56:17Z</time>
      </trkpt>
      <trkpt lat="45.52021" lon="7.24336">
        <ele>3067.1</ele>
        <time>2021-11-07T16:56:19Z</time>
      </trkpt>
      <trkpt lat="45.52021" lon="7.24333">
        <ele>3066.3</ele>
        <time>2021-11-07T16:56:22Z</time>
      </trkpt>
      <trkpt lat="45.52021" lon="7.24329">
        <ele>3064.4</ele>
        <time>2021-11-07T16:56:26Z</time>
      </trkpt>
      <trkpt lat="45.52021" lon="7.24328">
        <ele>3064.4</ele>
        <time>2021-11-07T16:56:27Z</time>
      </trkpt>
      <trkpt lat="45.52023" lon="7.24322">
        <ele>3064.7</ele>
        <time>2021-11-07T16:56:35Z</time>
      </trkpt>
      <trkpt lat="45.52025" lon="7.24315">
        <ele>3064.3</ele>
        <time>2021-11-07T16:56:44Z</time>
      </trkpt>
      <trkpt lat="45.52027" lon="7.24312">
        <ele>3063.5</ele>
        <time>2021-11-07T16:56:47Z</time>
      </trkpt>
      <trkpt lat="45.5203" lon="7.24306">
        <ele>3064</ele>
        <time>2021-11-07T16:56:53Z</time>
      </trkpt>
      <trkpt lat="45.5203" lon="7.24305">
        <ele>3065.3</ele>
        <time>2021-11-07T16:56:54Z</time>
      </trkpt>
      <trkpt lat="45.52031" lon="7.24301">
        <ele>3064.6</ele>
        <time>2021-11-07T16:56:58Z</time>
      </trkpt>
      <trkpt lat="45.52032" lon="7.24297">
        <ele>3063.8</ele>
        <time>2021-11-07T16:57:01Z</time>
      </trkpt>
      <trkpt lat="45.52032" lon="7.24296">
        <ele>3063.8</ele>
        <time>2021-11-07T16:57:02Z</time>
      </trkpt>
      <trkpt lat="45.52034" lon="7.24293">
        <ele>3064.5</ele>
        <time>2021-11-07T16:57:05Z</time>
      </trkpt>
      <trkpt lat="45.52036" lon="7.2429">
        <ele>3063.8</ele>
        <time>2021-11-07T16:57:09Z</time>
      </trkpt>
      <trkpt lat="45.52037" lon="7.24288">
        <ele>3065</ele>
        <time>2021-11-07T16:57:14Z</time>
      </trkpt>
      <trkpt lat="45.52037" lon="7.24287">
        <ele>3065</ele>
        <time>2021-11-07T16:57:15Z</time>
      </trkpt>
      <trkpt lat="45.52037" lon="7.24286">
        <ele>3064.4</ele>
        <time>2021-11-07T16:57:16Z</time>
      </trkpt>
      <trkpt lat="45.52037" lon="7.24285">
        <ele>3064.4</ele>
        <time>2021-11-07T16:57:17Z</time>
      </trkpt>
      <trkpt lat="45.52037" lon="7.24282">
        <ele>3063.8</ele>
        <time>2021-11-07T16:57:19Z</time>
      </trkpt>
      <trkpt lat="45.52038" lon="7.24278">
        <ele>3063.2</ele>
        <time>2021-11-07T16:57:23Z</time>
      </trkpt>
      <trkpt lat="45.52039" lon="7.24276">
        <ele>3063.2</ele>
        <time>2021-11-07T16:57:25Z</time>
      </trkpt>
      <trkpt lat="45.52039" lon="7.24272">
        <ele>3063.7</ele>
        <time>2021-11-07T16:57:31Z</time>
      </trkpt>
      <trkpt lat="45.52039" lon="7.24269">
        <ele>3062</ele>
        <time>2021-11-07T16:57:36Z</time>
      </trkpt>
      <trkpt lat="45.52038" lon="7.24268">
        <ele>3062</ele>
        <time>2021-11-07T16:57:43Z</time>
      </trkpt>
      <trkpt lat="45.52037" lon="7.24268">
        <ele>3062</ele>
        <time>2021-11-07T16:57:45Z</time>
      </trkpt>
      <trkpt lat="45.52037" lon="7.24268">
        <ele>3062</ele>
        <time>2021-11-07T16:57:47Z</time>
      </trkpt>
      <trkpt lat="45.52036" lon="7.24264">
        <ele>3060.2</ele>
        <time>2021-11-07T16:57:55Z</time>
      </trkpt>
      <trkpt lat="45.52036" lon="7.24263">
        <ele>3060.2</ele>
        <time>2021-11-07T16:57:57Z</time>
      </trkpt>
      <trkpt lat="45.52036" lon="7.24262">
        <ele>3061.4</ele>
        <time>2021-11-07T16:57:58Z</time>
      </trkpt>
      <trkpt lat="45.52038" lon="7.2426">
        <ele>3060.9</ele>
        <time>2021-11-07T16:58:04Z</time>
      </trkpt>
      <trkpt lat="45.52038" lon="7.2426">
        <ele>3060.9</ele>
        <time>2021-11-07T16:58:07Z</time>
      </trkpt>
      <trkpt lat="45.52038" lon="7.2426">
        <ele>3060.9</ele>
        <time>2021-11-07T16:58:09Z</time>
      </trkpt>
      <trkpt lat="45.52038" lon="7.24257">
        <ele>3060.9</ele>
        <time>2021-11-07T16:58:17Z</time>
      </trkpt>
      <trkpt lat="45.52038" lon="7.24257">
        <ele>3060.9</ele>
        <time>2021-11-07T16:58:20Z</time>
      </trkpt>
      <trkpt lat="45.52038" lon="7.24257">
        <ele>3060.9</ele>
        <time>2021-11-07T16:58:24Z</time>
      </trkpt>
      <trkpt lat="45.52038" lon="7.24257">
        <ele>3060.9</ele>
        <time>2021-11-07T16:58:40Z</time>
      </trkpt>
      <trkpt lat="45.52039" lon="7.24255">
        <ele>3060.4</ele>
        <time>2021-11-07T16:58:45Z</time>
      </trkpt>
      <trkpt lat="45.5204" lon="7.24252">
        <ele>3061.5</ele>
        <time>2021-11-07T16:58:49Z</time>
      </trkpt>
      <trkpt lat="45.52041" lon="7.2425">
        <ele>3061</ele>
        <time>2021-11-07T16:58:51Z</time>
      </trkpt>
      <trkpt lat="45.5204" lon="7.24247">
        <ele>3060.6</ele>
        <time>2021-11-07T16:58:57Z</time>
      </trkpt>
      <trkpt lat="45.5204" lon="7.24246">
        <ele>3060.6</ele>
        <time>2021-11-07T16:58:58Z</time>
      </trkpt>
      <trkpt lat="45.52039" lon="7.24247">
        <ele>3060.6</ele>
        <time>2021-11-07T16:59:00Z</time>
      </trkpt>
      <trkpt lat="45.52039" lon="7.24247">
        <ele>3059.5</ele>
        <time>2021-11-07T16:59:01Z</time>
      </trkpt>
      <trkpt lat="45.52038" lon="7.24247">
        <ele>3059.5</ele>
        <time>2021-11-07T16:59:02Z</time>
      </trkpt>
      <trkpt lat="45.52038" lon="7.24246">
        <ele>3059.5</ele>
        <time>2021-11-07T16:59:03Z</time>
      </trkpt>
      <trkpt lat="45.52037" lon="7.24246">
        <ele>3059.5</ele>
        <time>2021-11-07T16:59:05Z</time>
      </trkpt>
      <trkpt lat="45.52035" lon="7.24244">
        <ele>3058.2</ele>
        <time>2021-11-07T16:59:10Z</time>
      </trkpt>
      <trkpt lat="45.52034" lon="7.24241">
        <ele>3057.8</ele>
        <time>2021-11-07T16:59:14Z</time>
      </trkpt>
      <trkpt lat="45.52034" lon="7.2424">
        <ele>3057.8</ele>
        <time>2021-11-07T16:59:17Z</time>
      </trkpt>
      <trkpt lat="45.52034" lon="7.2424">
        <ele>3057.8</ele>
        <time>2021-11-07T16:59:18Z</time>
      </trkpt>
      <trkpt lat="45.52034" lon="7.2424">
        <ele>3057.8</ele>
        <time>2021-11-07T16:59:19Z</time>
      </trkpt>
      <trkpt lat="45.52035" lon="7.24237">
        <ele>3057.4</ele>
        <time>2021-11-07T16:59:22Z</time>
      </trkpt>
      <trkpt lat="45.52035" lon="7.24236">
        <ele>3057.4</ele>
        <time>2021-11-07T16:59:24Z</time>
      </trkpt>
      <trkpt lat="45.52036" lon="7.24236">
        <ele>3057.4</ele>
        <time>2021-11-07T16:59:26Z</time>
      </trkpt>
      <trkpt lat="45.52036" lon="7.24235">
        <ele>3058.6</ele>
        <time>2021-11-07T16:59:28Z</time>
      </trkpt>
      <trkpt lat="45.52036" lon="7.24235">
        <ele>3058.6</ele>
        <time>2021-11-07T16:59:29Z</time>
      </trkpt>
      <trkpt lat="45.52037" lon="7.24231">
        <ele>3058.3</ele>
        <time>2021-11-07T16:59:39Z</time>
      </trkpt>
      <trkpt lat="45.52037" lon="7.24231">
        <ele>3057.9</ele>
        <time>2021-11-07T16:59:40Z</time>
      </trkpt>
      <trkpt lat="45.52037" lon="7.24229">
        <ele>3057.9</ele>
        <time>2021-11-07T16:59:44Z</time>
      </trkpt>
      <trkpt lat="45.52037" lon="7.24228">
        <ele>3057.9</ele>
        <time>2021-11-07T16:59:45Z</time>
      </trkpt>
      <trkpt lat="45.52038" lon="7.24226">
        <ele>3057.5</ele>
        <time>2021-11-07T16:59:47Z</time>
      </trkpt>
      <trkpt lat="45.52038" lon="7.24225">
        <ele>3057.5</ele>
        <time>2021-11-07T16:59:48Z</time>
      </trkpt>
      <trkpt lat="45.52037" lon="7.24222">
        <ele>3057.5</ele>
        <time>2021-11-07T16:59:53Z</time>
      </trkpt>
      <trkpt lat="45.52038" lon="7.24222">
        <ele>3057.2</ele>
        <time>2021-11-07T16:59:56Z</time>
      </trkpt>
      <trkpt lat="45.52035" lon="7.24225">
        <ele>3056.2</ele>
        <time>2021-11-07T17:00:06Z</time>
      </trkpt>
      <trkpt lat="45.52033" lon="7.24224">
        <ele>3054.9</ele>
        <time>2021-11-07T17:00:15Z</time>
      </trkpt>
      <trkpt lat="45.52033" lon="7.24225">
        <ele>3054.8</ele>
        <time>2021-11-07T17:00:16Z</time>
      </trkpt>
      <trkpt lat="45.52031" lon="7.24224">
        <ele>3054.8</ele>
        <time>2021-11-07T17:00:21Z</time>
      </trkpt>
      <trkpt lat="45.52034" lon="7.24224">
        <ele>3056.2</ele>
        <time>2021-11-07T17:00:25Z</time>
      </trkpt>
      <trkpt lat="45.52034" lon="7.24224">
        <ele>3056.2</ele>
        <time>2021-11-07T17:00:26Z</time>
      </trkpt>
      <trkpt lat="45.52035" lon="7.24218">
        <ele>3055.5</ele>
        <time>2021-11-07T17:00:33Z</time>
      </trkpt>
      <trkpt lat="45.52035" lon="7.24217">
        <ele>3055.5</ele>
        <time>2021-11-07T17:00:34Z</time>
      </trkpt>
      <trkpt lat="45.52033" lon="7.24203">
        <ele>3054.6</ele>
        <time>2021-11-07T17:00:45Z</time>
      </trkpt>
      <trkpt lat="45.52033" lon="7.24199">
        <ele>3053</ele>
        <time>2021-11-07T17:00:48Z</time>
      </trkpt>
      <trkpt lat="45.52032" lon="7.24198">
        <ele>3053</ele>
        <time>2021-11-07T17:00:49Z</time>
      </trkpt>
      <trkpt lat="45.52031" lon="7.24193">
        <ele>3052.7</ele>
        <time>2021-11-07T17:00:54Z</time>
      </trkpt>
      <trkpt lat="45.5203" lon="7.24193">
        <ele>3052.7</ele>
        <time>2021-11-07T17:00:57Z</time>
      </trkpt>
      <trkpt lat="45.5203" lon="7.24191">
        <ele>3052.4</ele>
        <time>2021-11-07T17:01:01Z</time>
      </trkpt>
      <trkpt lat="45.5203" lon="7.24189">
        <ele>3052.4</ele>
        <time>2021-11-07T17:01:04Z</time>
      </trkpt>
      <trkpt lat="45.5203" lon="7.24184">
        <ele>3050.8</ele>
        <time>2021-11-07T17:01:09Z</time>
      </trkpt>
      <trkpt lat="45.5203" lon="7.24183">
        <ele>3050.5</ele>
        <time>2021-11-07T17:01:10Z</time>
      </trkpt>
      <trkpt lat="45.5203" lon="7.24182">
        <ele>3051.9</ele>
        <time>2021-11-07T17:01:11Z</time>
      </trkpt>
      <trkpt lat="45.5203" lon="7.24182">
        <ele>3050.5</ele>
        <time>2021-11-07T17:01:13Z</time>
      </trkpt>
      <trkpt lat="45.52029" lon="7.24178">
        <ele>3050.2</ele>
        <time>2021-11-07T17:01:17Z</time>
      </trkpt>
      <trkpt lat="45.52029" lon="7.24176">
        <ele>3050.2</ele>
        <time>2021-11-07T17:01:19Z</time>
      </trkpt>
      <trkpt lat="45.52028" lon="7.24171">
        <ele>3050</ele>
        <time>2021-11-07T17:01:23Z</time>
      </trkpt>
      <trkpt lat="45.52028" lon="7.24169">
        <ele>3049.8</ele>
        <time>2021-11-07T17:01:25Z</time>
      </trkpt>
      <trkpt lat="45.52027" lon="7.24163">
        <ele>3048.2</ele>
        <time>2021-11-07T17:01:31Z</time>
      </trkpt>
      <trkpt lat="45.52027" lon="7.24162">
        <ele>3048</ele>
        <time>2021-11-07T17:01:32Z</time>
      </trkpt>
      <trkpt lat="45.52027" lon="7.24161">
        <ele>3048</ele>
        <time>2021-11-07T17:01:33Z</time>
      </trkpt>
      <trkpt lat="45.52027" lon="7.24159">
        <ele>3048</ele>
        <time>2021-11-07T17:01:35Z</time>
      </trkpt>
      <trkpt lat="45.52027" lon="7.24157">
        <ele>3047.7</ele>
        <time>2021-11-07T17:01:37Z</time>
      </trkpt>
      <trkpt lat="45.52027" lon="7.24156">
        <ele>3047.7</ele>
        <time>2021-11-07T17:01:40Z</time>
      </trkpt>
      <trkpt lat="45.52027" lon="7.24156">
        <ele>3047.7</ele>
        <time>2021-11-07T17:01:41Z</time>
      </trkpt>
      <trkpt lat="45.52026" lon="7.24153">
        <ele>3047.5</ele>
        <time>2021-11-07T17:01:44Z</time>
      </trkpt>
      <trkpt lat="45.52026" lon="7.24151">
        <ele>3047.5</ele>
        <time>2021-11-07T17:01:45Z</time>
      </trkpt>
      <trkpt lat="45.52026" lon="7.2415">
        <ele>3047.5</ele>
        <time>2021-11-07T17:01:46Z</time>
      </trkpt>
      <trkpt lat="45.52026" lon="7.24149">
        <ele>3047.2</ele>
        <time>2021-11-07T17:01:47Z</time>
      </trkpt>
      <trkpt lat="45.52026" lon="7.24147">
        <ele>3047.2</ele>
        <time>2021-11-07T17:01:48Z</time>
      </trkpt>
      <trkpt lat="45.52025" lon="7.24144">
        <ele>3046.9</ele>
        <time>2021-11-07T17:01:51Z</time>
      </trkpt>
      <trkpt lat="45.52024" lon="7.2414">
        <ele>3046.5</ele>
        <time>2021-11-07T17:01:55Z</time>
      </trkpt>
      <trkpt lat="45.52024" lon="7.24137">
        <ele>3046.5</ele>
        <time>2021-11-07T17:01:57Z</time>
      </trkpt>
      <trkpt lat="45.52025" lon="7.24136">
        <ele>3046.1</ele>
        <time>2021-11-07T17:01:58Z</time>
      </trkpt>
      <trkpt lat="45.52024" lon="7.24132">
        <ele>3044.5</ele>
        <time>2021-11-07T17:02:02Z</time>
      </trkpt>
      <trkpt lat="45.52023" lon="7.2413">
        <ele>3044.5</ele>
        <time>2021-11-07T17:02:04Z</time>
      </trkpt>
      <trkpt lat="45.52023" lon="7.24126">
        <ele>3044.2</ele>
        <time>2021-11-07T17:02:08Z</time>
      </trkpt>
      <trkpt lat="45.52022" lon="7.24124">
        <ele>3044.2</ele>
        <time>2021-11-07T17:02:10Z</time>
      </trkpt>
      <trkpt lat="45.52022" lon="7.24122">
        <ele>3043.9</ele>
        <time>2021-11-07T17:02:12Z</time>
      </trkpt>
      <trkpt lat="45.52022" lon="7.24121">
        <ele>3043.9</ele>
        <time>2021-11-07T17:02:14Z</time>
      </trkpt>
      <trkpt lat="45.52021" lon="7.2412">
        <ele>3043.9</ele>
        <time>2021-11-07T17:02:15Z</time>
      </trkpt>
      <trkpt lat="45.52021" lon="7.24115">
        <ele>3042.5</ele>
        <time>2021-11-07T17:02:20Z</time>
      </trkpt>
      <trkpt lat="45.52019" lon="7.24111">
        <ele>3042.3</ele>
        <time>2021-11-07T17:02:24Z</time>
      </trkpt>
      <trkpt lat="45.52019" lon="7.24108">
        <ele>3042.1</ele>
        <time>2021-11-07T17:02:27Z</time>
      </trkpt>
      <trkpt lat="45.52019" lon="7.24107">
        <ele>3042.1</ele>
        <time>2021-11-07T17:02:28Z</time>
      </trkpt>
      <trkpt lat="45.52018" lon="7.24102">
        <ele>3041.9</ele>
        <time>2021-11-07T17:02:33Z</time>
      </trkpt>
      <trkpt lat="45.52017" lon="7.24096">
        <ele>3040.5</ele>
        <time>2021-11-07T17:02:39Z</time>
      </trkpt>
      <trkpt lat="45.52016" lon="7.24093">
        <ele>3040.3</ele>
        <time>2021-11-07T17:02:42Z</time>
      </trkpt>
      <trkpt lat="45.52014" lon="7.24089">
        <ele>3039.1</ele>
        <time>2021-11-07T17:02:46Z</time>
      </trkpt>
      <trkpt lat="45.52013" lon="7.24088">
        <ele>3038.9</ele>
        <time>2021-11-07T17:02:48Z</time>
      </trkpt>
      <trkpt lat="45.52013" lon="7.24086">
        <ele>3038.9</ele>
        <time>2021-11-07T17:02:50Z</time>
      </trkpt>
      <trkpt lat="45.52013" lon="7.24086">
        <ele>3038.9</ele>
        <time>2021-11-07T17:02:51Z</time>
      </trkpt>
      <trkpt lat="45.52013" lon="7.24085">
        <ele>3038.9</ele>
        <time>2021-11-07T17:02:52Z</time>
      </trkpt>
      <trkpt lat="45.52012" lon="7.24084">
        <ele>3037.4</ele>
        <time>2021-11-07T17:02:59Z</time>
      </trkpt>
      <trkpt lat="45.52009" lon="7.2408">
        <ele>3037.1</ele>
        <time>2021-11-07T17:03:05Z</time>
      </trkpt>
      <trkpt lat="45.52009" lon="7.24075">
        <ele>3035.5</ele>
        <time>2021-11-07T17:03:09Z</time>
      </trkpt>
      <trkpt lat="45.52008" lon="7.24074">
        <ele>3035.5</ele>
        <time>2021-11-07T17:03:10Z</time>
      </trkpt>
      <trkpt lat="45.52007" lon="7.24065">
        <ele>3035</ele>
        <time>2021-11-07T17:03:17Z</time>
      </trkpt>
      <trkpt lat="45.52007" lon="7.24063">
        <ele>3034.7</ele>
        <time>2021-11-07T17:03:20Z</time>
      </trkpt>
      <trkpt lat="45.52007" lon="7.24062">
        <ele>3034.7</ele>
        <time>2021-11-07T17:03:21Z</time>
      </trkpt>
      <trkpt lat="45.52005" lon="7.24058">
        <ele>3033.1</ele>
        <time>2021-11-07T17:03:28Z</time>
      </trkpt>
      <trkpt lat="45.52005" lon="7.24055">
        <ele>3033.1</ele>
        <time>2021-11-07T17:03:30Z</time>
      </trkpt>
      <trkpt lat="45.52004" lon="7.24053">
        <ele>3032.8</ele>
        <time>2021-11-07T17:03:33Z</time>
      </trkpt>
      <trkpt lat="45.52004" lon="7.24052">
        <ele>3032.8</ele>
        <time>2021-11-07T17:03:34Z</time>
      </trkpt>
      <trkpt lat="45.52004" lon="7.24051">
        <ele>3032.8</ele>
        <time>2021-11-07T17:03:35Z</time>
      </trkpt>
      <trkpt lat="45.52004" lon="7.24048">
        <ele>3032.5</ele>
        <time>2021-11-07T17:03:37Z</time>
      </trkpt>
      <trkpt lat="45.52004" lon="7.24047">
        <ele>3032.5</ele>
        <time>2021-11-07T17:03:38Z</time>
      </trkpt>
      <trkpt lat="45.52004" lon="7.24045">
        <ele>3032.2</ele>
        <time>2021-11-07T17:03:40Z</time>
      </trkpt>
      <trkpt lat="45.52005" lon="7.2404">
        <ele>3031.8</ele>
        <time>2021-11-07T17:03:45Z</time>
      </trkpt>
      <trkpt lat="45.52005" lon="7.24039">
        <ele>3031.8</ele>
        <time>2021-11-07T17:03:48Z</time>
      </trkpt>
      <trkpt lat="45.52005" lon="7.24037">
        <ele>3031.4</ele>
        <time>2021-11-07T17:03:50Z</time>
      </trkpt>
      <trkpt lat="45.52005" lon="7.2403">
        <ele>3031</ele>
        <time>2021-11-07T17:03:59Z</time>
      </trkpt>
      <trkpt lat="45.52004" lon="7.24024">
        <ele>3030.2</ele>
        <time>2021-11-07T17:04:06Z</time>
      </trkpt>
      <trkpt lat="45.52004" lon="7.24021">
        <ele>3030.2</ele>
        <time>2021-11-07T17:04:08Z</time>
      </trkpt>
      <trkpt lat="45.52004" lon="7.24018">
        <ele>3029.8</ele>
        <time>2021-11-07T17:04:11Z</time>
      </trkpt>
      <trkpt lat="45.52002" lon="7.24014">
        <ele>3028.2</ele>
        <time>2021-11-07T17:04:15Z</time>
      </trkpt>
      <trkpt lat="45.52002" lon="7.24014">
        <ele>3028.2</ele>
        <time>2021-11-07T17:04:16Z</time>
      </trkpt>
      <trkpt lat="45.52002" lon="7.24013">
        <ele>3028.2</ele>
        <time>2021-11-07T17:04:17Z</time>
      </trkpt>
      <trkpt lat="45.51998" lon="7.24011">
        <ele>3026.5</ele>
        <time>2021-11-07T17:04:26Z</time>
      </trkpt>
      <trkpt lat="45.51997" lon="7.24009">
        <ele>3026.5</ele>
        <time>2021-11-07T17:04:28Z</time>
      </trkpt>
      <trkpt lat="45.51997" lon="7.24007">
        <ele>3024.8</ele>
        <time>2021-11-07T17:04:30Z</time>
      </trkpt>
      <trkpt lat="45.51997" lon="7.24003">
        <ele>3024.4</ele>
        <time>2021-11-07T17:04:34Z</time>
      </trkpt>
      <trkpt lat="45.51997" lon="7.24001">
        <ele>3025.6</ele>
        <time>2021-11-07T17:04:36Z</time>
      </trkpt>
      <trkpt lat="45.51998" lon="7.23997">
        <ele>3024.8</ele>
        <time>2021-11-07T17:04:43Z</time>
      </trkpt>
      <trkpt lat="45.51997" lon="7.23996">
        <ele>3024.8</ele>
        <time>2021-11-07T17:04:45Z</time>
      </trkpt>
      <trkpt lat="45.51997" lon="7.23995">
        <ele>3024.8</ele>
        <time>2021-11-07T17:04:46Z</time>
      </trkpt>
      <trkpt lat="45.51997" lon="7.23992">
        <ele>3024.3</ele>
        <time>2021-11-07T17:04:52Z</time>
      </trkpt>
      <trkpt lat="45.51996" lon="7.23991">
        <ele>3023.1</ele>
        <time>2021-11-07T17:04:56Z</time>
      </trkpt>
      <trkpt lat="45.51996" lon="7.23991">
        <ele>3023.1</ele>
        <time>2021-11-07T17:04:57Z</time>
      </trkpt>
      <trkpt lat="45.51996" lon="7.2399">
        <ele>3022.7</ele>
        <time>2021-11-07T17:04:59Z</time>
      </trkpt>
      <trkpt lat="45.51996" lon="7.23989">
        <ele>3022.7</ele>
        <time>2021-11-07T17:05:00Z</time>
      </trkpt>
      <trkpt lat="45.51996" lon="7.23989">
        <ele>3022.7</ele>
        <time>2021-11-07T17:05:01Z</time>
      </trkpt>
      <trkpt lat="45.51995" lon="7.2399">
        <ele>3022.7</ele>
        <time>2021-11-07T17:05:02Z</time>
      </trkpt>
      <trkpt lat="45.51995" lon="7.2399">
        <ele>3022.7</ele>
        <time>2021-11-07T17:05:03Z</time>
      </trkpt>
      <trkpt lat="45.51995" lon="7.23989">
        <ele>3022.7</ele>
        <time>2021-11-07T17:05:05Z</time>
      </trkpt>
      <trkpt lat="45.51994" lon="7.23988">
        <ele>3022.7</ele>
        <time>2021-11-07T17:05:07Z</time>
      </trkpt>
      <trkpt lat="45.51994" lon="7.23987">
        <ele>3022.7</ele>
        <time>2021-11-07T17:05:08Z</time>
      </trkpt>
      <trkpt lat="45.51995" lon="7.23983">
        <ele>3022.2</ele>
        <time>2021-11-07T17:05:13Z</time>
      </trkpt>
      <trkpt lat="45.51995" lon="7.23982">
        <ele>3022.2</ele>
        <time>2021-11-07T17:05:16Z</time>
      </trkpt>
      <trkpt lat="45.51995" lon="7.23982">
        <ele>3022.2</ele>
        <time>2021-11-07T17:05:19Z</time>
      </trkpt>
      <trkpt lat="45.51994" lon="7.23981">
        <ele>3021.8</ele>
        <time>2021-11-07T17:05:25Z</time>
      </trkpt>
      <trkpt lat="45.51994" lon="7.2398">
        <ele>3020.6</ele>
        <time>2021-11-07T17:05:27Z</time>
      </trkpt>
      <trkpt lat="45.51994" lon="7.23979">
        <ele>3020.6</ele>
        <time>2021-11-07T17:05:32Z</time>
      </trkpt>
      <trkpt lat="45.51993" lon="7.23979">
        <ele>3020.6</ele>
        <time>2021-11-07T17:05:34Z</time>
      </trkpt>
      <trkpt lat="45.51993" lon="7.23978">
        <ele>3020.6</ele>
        <time>2021-11-07T17:05:37Z</time>
      </trkpt>
      <trkpt lat="45.51993" lon="7.23977">
        <ele>3020.2</ele>
        <time>2021-11-07T17:05:42Z</time>
      </trkpt>
      <trkpt lat="45.51994" lon="7.23975">
        <ele>3020.2</ele>
        <time>2021-11-07T17:05:45Z</time>
      </trkpt>
      <trkpt lat="45.51992" lon="7.23972">
        <ele>3019.8</ele>
        <time>2021-11-07T17:05:50Z</time>
      </trkpt>
      <trkpt lat="45.51992" lon="7.2397">
        <ele>3019.8</ele>
        <time>2021-11-07T17:05:54Z</time>
      </trkpt>
      <trkpt lat="45.51991" lon="7.2397">
        <ele>3019.8</ele>
        <time>2021-11-07T17:05:59Z</time>
      </trkpt>
      <trkpt lat="45.51991" lon="7.23967">
        <ele>3019.4</ele>
        <time>2021-11-07T17:06:04Z</time>
      </trkpt>
      <trkpt lat="45.51994" lon="7.23966">
        <ele>3019.3</ele>
        <time>2021-11-07T17:06:13Z</time>
      </trkpt>
      <trkpt lat="45.51994" lon="7.23966">
        <ele>3019.3</ele>
        <time>2021-11-07T17:06:15Z</time>
      </trkpt>
      <trkpt lat="45.51992" lon="7.23965">
        <ele>3018.9</ele>
        <time>2021-11-07T17:06:23Z</time>
      </trkpt>
      <trkpt lat="45.51992" lon="7.23965">
        <ele>3019.3</ele>
        <time>2021-11-07T17:06:24Z</time>
      </trkpt>
      <trkpt lat="45.51991" lon="7.23964">
        <ele>3017.8</ele>
        <time>2021-11-07T17:06:31Z</time>
      </trkpt>
      <trkpt lat="45.51991" lon="7.23963">
        <ele>3017.7</ele>
        <time>2021-11-07T17:06:33Z</time>
      </trkpt>
      <trkpt lat="45.5199" lon="7.23961">
        <ele>3017.7</ele>
        <time>2021-11-07T17:06:36Z</time>
      </trkpt>
      <trkpt lat="45.51989" lon="7.23958">
        <ele>3017.3</ele>
        <time>2021-11-07T17:06:42Z</time>
      </trkpt>
      <trkpt lat="45.51989" lon="7.23957">
        <ele>3017.3</ele>
        <time>2021-11-07T17:06:43Z</time>
      </trkpt>
      <trkpt lat="45.51988" lon="7.23954">
        <ele>3016.8</ele>
        <time>2021-11-07T17:06:47Z</time>
      </trkpt>
      <trkpt lat="45.51988" lon="7.23953">
        <ele>3015.7</ele>
        <time>2021-11-07T17:06:49Z</time>
      </trkpt>
      <trkpt lat="45.51988" lon="7.23949">
        <ele>3015.2</ele>
        <time>2021-11-07T17:06:53Z</time>
      </trkpt>
      <trkpt lat="45.51988" lon="7.23948">
        <ele>3015.2</ele>
        <time>2021-11-07T17:06:54Z</time>
      </trkpt>
      <trkpt lat="45.51987" lon="7.23945">
        <ele>3014.7</ele>
        <time>2021-11-07T17:06:57Z</time>
      </trkpt>
      <trkpt lat="45.51987" lon="7.23944">
        <ele>3014.7</ele>
        <time>2021-11-07T17:06:59Z</time>
      </trkpt>
      <trkpt lat="45.51987" lon="7.23941">
        <ele>3014.2</ele>
        <time>2021-11-07T17:07:04Z</time>
      </trkpt>
      <trkpt lat="45.51987" lon="7.23939">
        <ele>3014.2</ele>
        <time>2021-11-07T17:07:06Z</time>
      </trkpt>
      <trkpt lat="45.51985" lon="7.23937">
        <ele>3012.7</ele>
        <time>2021-11-07T17:07:11Z</time>
      </trkpt>
      <trkpt lat="45.51985" lon="7.23937">
        <ele>3012.7</ele>
        <time>2021-11-07T17:07:12Z</time>
      </trkpt>
      <trkpt lat="45.51984" lon="7.23937">
        <ele>3012.7</ele>
        <time>2021-11-07T17:07:13Z</time>
      </trkpt>
      <trkpt lat="45.51983" lon="7.23936">
        <ele>3012.7</ele>
        <time>2021-11-07T17:07:16Z</time>
      </trkpt>
      <trkpt lat="45.51982" lon="7.23935">
        <ele>3012.7</ele>
        <time>2021-11-07T17:07:18Z</time>
      </trkpt>
      <trkpt lat="45.5198" lon="7.23935">
        <ele>3011.7</ele>
        <time>2021-11-07T17:07:21Z</time>
      </trkpt>
      <trkpt lat="45.51979" lon="7.23935">
        <ele>3010.2</ele>
        <time>2021-11-07T17:07:23Z</time>
      </trkpt>
      <trkpt lat="45.51977" lon="7.23935">
        <ele>3010.6</ele>
        <time>2021-11-07T17:07:25Z</time>
      </trkpt>
      <trkpt lat="45.51977" lon="7.23935">
        <ele>3010.6</ele>
        <time>2021-11-07T17:07:27Z</time>
      </trkpt>
      <trkpt lat="45.51977" lon="7.23935">
        <ele>3010.6</ele>
        <time>2021-11-07T17:07:28Z</time>
      </trkpt>
      <trkpt lat="45.51976" lon="7.23935">
        <ele>3009</ele>
        <time>2021-11-07T17:07:31Z</time>
      </trkpt>
      <trkpt lat="45.51976" lon="7.23933">
        <ele>3008.9</ele>
        <time>2021-11-07T17:07:34Z</time>
      </trkpt>
      <trkpt lat="45.51975" lon="7.23933">
        <ele>3008.9</ele>
        <time>2021-11-07T17:07:39Z</time>
      </trkpt>
      <trkpt lat="45.51974" lon="7.23931">
        <ele>3008.9</ele>
        <time>2021-11-07T17:07:43Z</time>
      </trkpt>
      <trkpt lat="45.51974" lon="7.2393">
        <ele>3008.5</ele>
        <time>2021-11-07T17:07:46Z</time>
      </trkpt>
      <trkpt lat="45.51975" lon="7.23929">
        <ele>3008.5</ele>
        <time>2021-11-07T17:07:49Z</time>
      </trkpt>
      <trkpt lat="45.51974" lon="7.23929">
        <ele>3008.5</ele>
        <time>2021-11-07T17:07:51Z</time>
      </trkpt>
      <trkpt lat="45.51974" lon="7.23928">
        <ele>3008.5</ele>
        <time>2021-11-07T17:07:54Z</time>
      </trkpt>
      <trkpt lat="45.51973" lon="7.23928">
        <ele>3008.5</ele>
        <time>2021-11-07T17:08:01Z</time>
      </trkpt>
      <trkpt lat="45.51974" lon="7.23927">
        <ele>3008.5</ele>
        <time>2021-11-07T17:08:03Z</time>
      </trkpt>
      <trkpt lat="45.51975" lon="7.23927">
        <ele>3008.5</ele>
        <time>2021-11-07T17:08:06Z</time>
      </trkpt>
      <trkpt lat="45.51974" lon="7.23922">
        <ele>3008.1</ele>
        <time>2021-11-07T17:08:16Z</time>
      </trkpt>
      <trkpt lat="45.51974" lon="7.23921">
        <ele>3007.6</ele>
        <time>2021-11-07T17:08:19Z</time>
      </trkpt>
      <trkpt lat="45.51974" lon="7.23919">
        <ele>3007.6</ele>
        <time>2021-11-07T17:08:21Z</time>
      </trkpt>
      <trkpt lat="45.51974" lon="7.23917">
        <ele>3007.1</ele>
        <time>2021-11-07T17:08:25Z</time>
      </trkpt>
      <trkpt lat="45.51974" lon="7.23917">
        <ele>3007.1</ele>
        <time>2021-11-07T17:08:26Z</time>
      </trkpt>
      <trkpt lat="45.51972" lon="7.23915">
        <ele>3005.8</ele>
        <time>2021-11-07T17:08:30Z</time>
      </trkpt>
      <trkpt lat="45.51971" lon="7.23913">
        <ele>3005.3</ele>
        <time>2021-11-07T17:08:35Z</time>
      </trkpt>
      <trkpt lat="45.51971" lon="7.23911">
        <ele>3005.3</ele>
        <time>2021-11-07T17:08:37Z</time>
      </trkpt>
      <trkpt lat="45.51971" lon="7.2391">
        <ele>3005.3</ele>
        <time>2021-11-07T17:08:38Z</time>
      </trkpt>
      <trkpt lat="45.51969" lon="7.23907">
        <ele>3003.4</ele>
        <time>2021-11-07T17:08:44Z</time>
      </trkpt>
      <trkpt lat="45.51968" lon="7.23906">
        <ele>3003.4</ele>
        <time>2021-11-07T17:08:46Z</time>
      </trkpt>
      <trkpt lat="45.51968" lon="7.23904">
        <ele>3002.9</ele>
        <time>2021-11-07T17:08:51Z</time>
      </trkpt>
      <trkpt lat="45.51968" lon="7.23903">
        <ele>3002.9</ele>
        <time>2021-11-07T17:08:53Z</time>
      </trkpt>
      <trkpt lat="45.51967" lon="7.23903">
        <ele>3002.9</ele>
        <time>2021-11-07T17:08:56Z</time>
      </trkpt>
      <trkpt lat="45.51966" lon="7.23903">
        <ele>3001.6</ele>
        <time>2021-11-07T17:08:58Z</time>
      </trkpt>
      <trkpt lat="45.51964" lon="7.23902">
        <ele>3001.6</ele>
        <time>2021-11-07T17:09:07Z</time>
      </trkpt>
      <trkpt lat="45.51965" lon="7.23902">
        <ele>3001.5</ele>
        <time>2021-11-07T17:09:11Z</time>
      </trkpt>
      <trkpt lat="45.51964" lon="7.23902">
        <ele>3001.5</ele>
        <time>2021-11-07T17:09:19Z</time>
      </trkpt>
      <trkpt lat="45.51965" lon="7.23902">
        <ele>3001.5</ele>
        <time>2021-11-07T17:09:20Z</time>
      </trkpt>
      <trkpt lat="45.51963" lon="7.23902">
        <ele>3000.3</ele>
        <time>2021-11-07T17:09:29Z</time>
      </trkpt>
      <trkpt lat="45.51962" lon="7.239">
        <ele>2999.9</ele>
        <time>2021-11-07T17:09:32Z</time>
      </trkpt>
      <trkpt lat="45.5196" lon="7.23897">
        <ele>2998.7</ele>
        <time>2021-11-07T17:09:37Z</time>
      </trkpt>
      <trkpt lat="45.51961" lon="7.23896">
        <ele>2998.7</ele>
        <time>2021-11-07T17:09:41Z</time>
      </trkpt>
      <trkpt lat="45.5196" lon="7.23895">
        <ele>2998.4</ele>
        <time>2021-11-07T17:09:47Z</time>
      </trkpt>
      <trkpt lat="45.5196" lon="7.23895">
        <ele>2998.4</ele>
        <time>2021-11-07T17:09:48Z</time>
      </trkpt>
      <trkpt lat="45.51959" lon="7.23895">
        <ele>2998.4</ele>
        <time>2021-11-07T17:09:50Z</time>
      </trkpt>
      <trkpt lat="45.51958" lon="7.23895">
        <ele>2998.3</ele>
        <time>2021-11-07T17:09:51Z</time>
      </trkpt>
      <trkpt lat="45.51956" lon="7.23895">
        <ele>2997.3</ele>
        <time>2021-11-07T17:09:55Z</time>
      </trkpt>
      <trkpt lat="45.51956" lon="7.23894">
        <ele>2997.3</ele>
        <time>2021-11-07T17:10:00Z</time>
      </trkpt>
      <trkpt lat="45.51956" lon="7.23894">
        <ele>2997.2</ele>
        <time>2021-11-07T17:10:03Z</time>
      </trkpt>
      <trkpt lat="45.51954" lon="7.23889">
        <ele>2995.8</ele>
        <time>2021-11-07T17:10:11Z</time>
      </trkpt>
      <trkpt lat="45.51953" lon="7.23887">
        <ele>2995.5</ele>
        <time>2021-11-07T17:10:17Z</time>
      </trkpt>
      <trkpt lat="45.51953" lon="7.23885">
        <ele>2995.5</ele>
        <time>2021-11-07T17:10:19Z</time>
      </trkpt>
      <trkpt lat="45.51952" lon="7.23884">
        <ele>2995.5</ele>
        <time>2021-11-07T17:10:23Z</time>
      </trkpt>
      <trkpt lat="45.51952" lon="7.23886">
        <ele>2994.3</ele>
        <time>2021-11-07T17:10:27Z</time>
      </trkpt>
      <trkpt lat="45.51952" lon="7.23886">
        <ele>2995.5</ele>
        <time>2021-11-07T17:10:29Z</time>
      </trkpt>
      <trkpt lat="45.51952" lon="7.23887">
        <ele>2994.3</ele>
        <time>2021-11-07T17:10:33Z</time>
      </trkpt>
      <trkpt lat="45.5195" lon="7.23886">
        <ele>2994.3</ele>
        <time>2021-11-07T17:10:37Z</time>
      </trkpt>
      <trkpt lat="45.51949" lon="7.23884">
        <ele>2994.2</ele>
        <time>2021-11-07T17:10:39Z</time>
      </trkpt>
      <trkpt lat="45.51948" lon="7.23884">
        <ele>2992.9</ele>
        <time>2021-11-07T17:10:40Z</time>
      </trkpt>
      <trkpt lat="45.51946" lon="7.23881">
        <ele>2992.6</ele>
        <time>2021-11-07T17:10:44Z</time>
      </trkpt>
      <trkpt lat="45.51946" lon="7.23878">
        <ele>2990.9</ele>
        <time>2021-11-07T17:10:49Z</time>
      </trkpt>
      <trkpt lat="45.51945" lon="7.23875">
        <ele>2990.9</ele>
        <time>2021-11-07T17:10:55Z</time>
      </trkpt>
      <trkpt lat="45.51944" lon="7.23872">
        <ele>2990.6</ele>
        <time>2021-11-07T17:10:58Z</time>
      </trkpt>
      <trkpt lat="45.51943" lon="7.2387">
        <ele>2990.2</ele>
        <time>2021-11-07T17:11:02Z</time>
      </trkpt>
      <trkpt lat="45.51941" lon="7.23869">
        <ele>2988.8</ele>
        <time>2021-11-07T17:11:08Z</time>
      </trkpt>
      <trkpt lat="45.51941" lon="7.23869">
        <ele>2988.8</ele>
        <time>2021-11-07T17:11:09Z</time>
      </trkpt>
      <trkpt lat="45.5194" lon="7.23868">
        <ele>2988.8</ele>
        <time>2021-11-07T17:11:11Z</time>
      </trkpt>
      <trkpt lat="45.51939" lon="7.2387">
        <ele>2987.4</ele>
        <time>2021-11-07T17:11:16Z</time>
      </trkpt>
      <trkpt lat="45.51938" lon="7.23869">
        <ele>2987.4</ele>
        <time>2021-11-07T17:11:17Z</time>
      </trkpt>
      <trkpt lat="45.51934" lon="7.23866">
        <ele>2984.8</ele>
        <time>2021-11-07T17:11:27Z</time>
      </trkpt>
      <trkpt lat="45.51933" lon="7.23866">
        <ele>2984.8</ele>
        <time>2021-11-07T17:11:28Z</time>
      </trkpt>
      <trkpt lat="45.51933" lon="7.23867">
        <ele>2984.8</ele>
        <time>2021-11-07T17:11:29Z</time>
      </trkpt>
      <trkpt lat="45.51931" lon="7.23865">
        <ele>2984.4</ele>
        <time>2021-11-07T17:11:32Z</time>
      </trkpt>
      <trkpt lat="45.51931" lon="7.23864">
        <ele>2983.1</ele>
        <time>2021-11-07T17:11:34Z</time>
      </trkpt>
      <trkpt lat="45.5193" lon="7.23863">
        <ele>2983.1</ele>
        <time>2021-11-07T17:11:35Z</time>
      </trkpt>
      <trkpt lat="45.5193" lon="7.23862">
        <ele>2983.1</ele>
        <time>2021-11-07T17:11:36Z</time>
      </trkpt>
      <trkpt lat="45.51929" lon="7.2386">
        <ele>2982.7</ele>
        <time>2021-11-07T17:11:39Z</time>
      </trkpt>
      <trkpt lat="45.51928" lon="7.23856">
        <ele>2982.3</ele>
        <time>2021-11-07T17:11:45Z</time>
      </trkpt>
      <trkpt lat="45.51928" lon="7.23856">
        <ele>2982.3</ele>
        <time>2021-11-07T17:11:46Z</time>
      </trkpt>
      <trkpt lat="45.51928" lon="7.23856">
        <ele>2982.3</ele>
        <time>2021-11-07T17:11:47Z</time>
      </trkpt>
      <trkpt lat="45.51928" lon="7.23856">
        <ele>2982.2</ele>
        <time>2021-11-07T17:11:51Z</time>
      </trkpt>
      <trkpt lat="45.51928" lon="7.23855">
        <ele>2982.2</ele>
        <time>2021-11-07T17:11:54Z</time>
      </trkpt>
      <trkpt lat="45.51928" lon="7.23856">
        <ele>2982.2</ele>
        <time>2021-11-07T17:11:57Z</time>
      </trkpt>
      <trkpt lat="45.51928" lon="7.23856">
        <ele>2980.9</ele>
        <time>2021-11-07T17:11:59Z</time>
      </trkpt>
      <trkpt lat="45.51928" lon="7.23856">
        <ele>2980.9</ele>
        <time>2021-11-07T17:12:02Z</time>
      </trkpt>
      <trkpt lat="45.51928" lon="7.23857">
        <ele>2980.8</ele>
        <time>2021-11-07T17:12:03Z</time>
      </trkpt>
      <trkpt lat="45.51927" lon="7.23854">
        <ele>2980.8</ele>
        <time>2021-11-07T17:12:09Z</time>
      </trkpt>
      <trkpt lat="45.51927" lon="7.23854">
        <ele>2980.8</ele>
        <time>2021-11-07T17:12:10Z</time>
      </trkpt>
      <trkpt lat="45.51926" lon="7.23848">
        <ele>2980.1</ele>
        <time>2021-11-07T17:12:19Z</time>
      </trkpt>
      <trkpt lat="45.51927" lon="7.23842">
        <ele>2979.8</ele>
        <time>2021-11-07T17:12:29Z</time>
      </trkpt>
      <trkpt lat="45.51926" lon="7.23841">
        <ele>2979.8</ele>
        <time>2021-11-07T17:12:30Z</time>
      </trkpt>
      <trkpt lat="45.51927" lon="7.23839">
        <ele>2979.4</ele>
        <time>2021-11-07T17:12:32Z</time>
      </trkpt>
      <trkpt lat="45.51926" lon="7.23838">
        <ele>2979.4</ele>
        <time>2021-11-07T17:12:33Z</time>
      </trkpt>
      <trkpt lat="45.51926" lon="7.23837">
        <ele>2979.4</ele>
        <time>2021-11-07T17:12:34Z</time>
      </trkpt>
      <trkpt lat="45.51924" lon="7.23836">
        <ele>2978</ele>
        <time>2021-11-07T17:12:38Z</time>
      </trkpt>
      <trkpt lat="45.51923" lon="7.23837">
        <ele>2978</ele>
        <time>2021-11-07T17:12:40Z</time>
      </trkpt>
      <trkpt lat="45.51921" lon="7.23835">
        <ele>2976.2</ele>
        <time>2021-11-07T17:12:45Z</time>
      </trkpt>
      <trkpt lat="45.51921" lon="7.23835">
        <ele>2976.2</ele>
        <time>2021-11-07T17:12:46Z</time>
      </trkpt>
      <trkpt lat="45.5192" lon="7.23834">
        <ele>2976.2</ele>
        <time>2021-11-07T17:12:48Z</time>
      </trkpt>
      <trkpt lat="45.5192" lon="7.23834">
        <ele>2976.1</ele>
        <time>2021-11-07T17:12:49Z</time>
      </trkpt>
      <trkpt lat="45.51919" lon="7.23827">
        <ele>2973.8</ele>
        <time>2021-11-07T17:12:58Z</time>
      </trkpt>
      <trkpt lat="45.51919" lon="7.23826">
        <ele>2975.3</ele>
        <time>2021-11-07T17:12:59Z</time>
      </trkpt>
      <trkpt lat="45.51917" lon="7.23823">
        <ele>2973.8</ele>
        <time>2021-11-07T17:13:04Z</time>
      </trkpt>
      <trkpt lat="45.51916" lon="7.23823">
        <ele>2973.4</ele>
        <time>2021-11-07T17:13:05Z</time>
      </trkpt>
      <trkpt lat="45.51916" lon="7.23821">
        <ele>2971.8</ele>
        <time>2021-11-07T17:13:07Z</time>
      </trkpt>
      <trkpt lat="45.51916" lon="7.23817">
        <ele>2972.9</ele>
        <time>2021-11-07T17:13:15Z</time>
      </trkpt>
      <trkpt lat="45.51914" lon="7.23811">
        <ele>2970.8</ele>
        <time>2021-11-07T17:13:25Z</time>
      </trkpt>
      <trkpt lat="45.51913" lon="7.2381">
        <ele>2968.8</ele>
        <time>2021-11-07T17:13:27Z</time>
      </trkpt>
      <trkpt lat="45.51911" lon="7.23806">
        <ele>2968.8</ele>
        <time>2021-11-07T17:13:32Z</time>
      </trkpt>
      <trkpt lat="45.5191" lon="7.23805">
        <ele>2968.3</ele>
        <time>2021-11-07T17:13:36Z</time>
      </trkpt>
      <trkpt lat="45.51909" lon="7.23804">
        <ele>2966.8</ele>
        <time>2021-11-07T17:13:39Z</time>
      </trkpt>
      <trkpt lat="45.51906" lon="7.23806">
        <ele>2965.3</ele>
        <time>2021-11-07T17:13:47Z</time>
      </trkpt>
      <trkpt lat="45.519" lon="7.23806">
        <ele>2962.3</ele>
        <time>2021-11-07T17:13:55Z</time>
      </trkpt>
      <trkpt lat="45.519" lon="7.23806">
        <ele>2962.6</ele>
        <time>2021-11-07T17:13:56Z</time>
      </trkpt>
      <trkpt lat="45.51898" lon="7.23807">
        <ele>2961.1</ele>
        <time>2021-11-07T17:13:59Z</time>
      </trkpt>
      <trkpt lat="45.51895" lon="7.23804">
        <ele>2960.7</ele>
        <time>2021-11-07T17:14:04Z</time>
      </trkpt>
      <trkpt lat="45.51894" lon="7.23802">
        <ele>2959.2</ele>
        <time>2021-11-07T17:14:06Z</time>
      </trkpt>
      <trkpt lat="45.51892" lon="7.238">
        <ele>2958.8</ele>
        <time>2021-11-07T17:14:09Z</time>
      </trkpt>
      <trkpt lat="45.51888" lon="7.23799">
        <ele>2955.5</ele>
        <time>2021-11-07T17:14:16Z</time>
      </trkpt>
      <trkpt lat="45.51887" lon="7.23798">
        <ele>2955.5</ele>
        <time>2021-11-07T17:14:18Z</time>
      </trkpt>
      <trkpt lat="45.51886" lon="7.23795">
        <ele>2955.2</ele>
        <time>2021-11-07T17:14:21Z</time>
      </trkpt>
      <trkpt lat="45.51886" lon="7.23794">
        <ele>2955.2</ele>
        <time>2021-11-07T17:14:22Z</time>
      </trkpt>
      <trkpt lat="45.51885" lon="7.23792">
        <ele>2953.1</ele>
        <time>2021-11-07T17:14:26Z</time>
      </trkpt>
      <trkpt lat="45.51885" lon="7.23791">
        <ele>2953.1</ele>
        <time>2021-11-07T17:14:27Z</time>
      </trkpt>
      <trkpt lat="45.51882" lon="7.23784">
        <ele>2950.7</ele>
        <time>2021-11-07T17:14:35Z</time>
      </trkpt>
      <trkpt lat="45.51881" lon="7.23782">
        <ele>2950.7</ele>
        <time>2021-11-07T17:14:37Z</time>
      </trkpt>
      <trkpt lat="45.51879" lon="7.23781">
        <ele>2949.1</ele>
        <time>2021-11-07T17:14:40Z</time>
      </trkpt>
      <trkpt lat="45.51878" lon="7.2378">
        <ele>2948.7</ele>
        <time>2021-11-07T17:14:42Z</time>
      </trkpt>
      <trkpt lat="45.51878" lon="7.23779">
        <ele>2948.7</ele>
        <time>2021-11-07T17:14:43Z</time>
      </trkpt>
      <trkpt lat="45.51877" lon="7.23778">
        <ele>2948.7</ele>
        <time>2021-11-07T17:14:45Z</time>
      </trkpt>
      <trkpt lat="45.51877" lon="7.23778">
        <ele>2947.2</ele>
        <time>2021-11-07T17:14:46Z</time>
      </trkpt>
      <trkpt lat="45.51876" lon="7.23778">
        <ele>2947.2</ele>
        <time>2021-11-07T17:14:48Z</time>
      </trkpt>
      <trkpt lat="45.51876" lon="7.23776">
        <ele>2947.2</ele>
        <time>2021-11-07T17:14:52Z</time>
      </trkpt>
      <trkpt lat="45.51874" lon="7.2377">
        <ele>2944.9</ele>
        <time>2021-11-07T17:15:02Z</time>
      </trkpt>
      <trkpt lat="45.51874" lon="7.2377">
        <ele>2944.9</ele>
        <time>2021-11-07T17:15:05Z</time>
      </trkpt>
      <trkpt lat="45.51874" lon="7.23771">
        <ele>2946.4</ele>
        <time>2021-11-07T17:15:10Z</time>
      </trkpt>
      <trkpt lat="45.51874" lon="7.23772">
        <ele>2945.3</ele>
        <time>2021-11-07T17:15:15Z</time>
      </trkpt>
      <trkpt lat="45.51872" lon="7.23771">
        <ele>2944.9</ele>
        <time>2021-11-07T17:15:20Z</time>
      </trkpt>
      <trkpt lat="45.51872" lon="7.23771">
        <ele>2944.9</ele>
        <time>2021-11-07T17:15:22Z</time>
      </trkpt>
      <trkpt lat="45.51872" lon="7.23771">
        <ele>2944.9</ele>
        <time>2021-11-07T17:15:24Z</time>
      </trkpt>
      <trkpt lat="45.5187" lon="7.23773">
        <ele>2943.6</ele>
        <time>2021-11-07T17:15:33Z</time>
      </trkpt>
      <trkpt lat="45.51868" lon="7.23772">
        <ele>2943.6</ele>
        <time>2021-11-07T17:15:38Z</time>
      </trkpt>
      <trkpt lat="45.51867" lon="7.23773">
        <ele>2941.9</ele>
        <time>2021-11-07T17:15:42Z</time>
      </trkpt>
      <trkpt lat="45.51867" lon="7.23773">
        <ele>2941.9</ele>
        <time>2021-11-07T17:15:43Z</time>
      </trkpt>
      <trkpt lat="45.51866" lon="7.23773">
        <ele>2941.9</ele>
        <time>2021-11-07T17:15:45Z</time>
      </trkpt>
      <trkpt lat="45.51865" lon="7.23774">
        <ele>2941.9</ele>
        <time>2021-11-07T17:15:49Z</time>
      </trkpt>
      <trkpt lat="45.51865" lon="7.23774">
        <ele>2940</ele>
        <time>2021-11-07T17:15:52Z</time>
      </trkpt>
      <trkpt lat="45.51865" lon="7.23774">
        <ele>2940</ele>
        <time>2021-11-07T17:15:55Z</time>
      </trkpt>
      <trkpt lat="45.51865" lon="7.23774">
        <ele>2941.9</ele>
        <time>2021-11-07T17:15:56Z</time>
      </trkpt>
      <trkpt lat="45.51864" lon="7.23774">
        <ele>2940</ele>
        <time>2021-11-07T17:15:59Z</time>
      </trkpt>
      <trkpt lat="45.51864" lon="7.23775">
        <ele>2940</ele>
        <time>2021-11-07T17:16:00Z</time>
      </trkpt>
      <trkpt lat="45.51864" lon="7.23775">
        <ele>2940</ele>
        <time>2021-11-07T17:16:02Z</time>
      </trkpt>
      <trkpt lat="45.51864" lon="7.23775">
        <ele>2940</ele>
        <time>2021-11-07T17:16:04Z</time>
      </trkpt>
      <trkpt lat="45.51864" lon="7.23775">
        <ele>2940</ele>
        <time>2021-11-07T17:16:05Z</time>
      </trkpt>
      <trkpt lat="45.51863" lon="7.23775">
        <ele>2940</ele>
        <time>2021-11-07T17:16:08Z</time>
      </trkpt>
      <trkpt lat="45.51862" lon="7.23773">
        <ele>2938.1</ele>
        <time>2021-11-07T17:16:14Z</time>
      </trkpt>
      <trkpt lat="45.51861" lon="7.2377">
        <ele>2937.8</ele>
        <time>2021-11-07T17:16:19Z</time>
      </trkpt>
      <trkpt lat="45.51861" lon="7.23766">
        <ele>2937.5</ele>
        <time>2021-11-07T17:16:24Z</time>
      </trkpt>
      <trkpt lat="45.51861" lon="7.23764">
        <ele>2937.5</ele>
        <time>2021-11-07T17:16:31Z</time>
      </trkpt>
      <trkpt lat="45.51861" lon="7.23764">
        <ele>2937.5</ele>
        <time>2021-11-07T17:16:33Z</time>
      </trkpt>
      <trkpt lat="45.51861" lon="7.23764">
        <ele>2937.5</ele>
        <time>2021-11-07T17:16:34Z</time>
      </trkpt>
      <trkpt lat="45.5186" lon="7.23763">
        <ele>2937.5</ele>
        <time>2021-11-07T17:16:45Z</time>
      </trkpt>
      <trkpt lat="45.5186" lon="7.23763">
        <ele>2937.5</ele>
        <time>2021-11-07T17:16:46Z</time>
      </trkpt>
      <trkpt lat="45.51859" lon="7.23761">
        <ele>2937.2</ele>
        <time>2021-11-07T17:16:52Z</time>
      </trkpt>
      <trkpt lat="45.51859" lon="7.2376">
        <ele>2937.2</ele>
        <time>2021-11-07T17:16:54Z</time>
      </trkpt>
      <trkpt lat="45.5186" lon="7.23759">
        <ele>2937</ele>
        <time>2021-11-07T17:16:56Z</time>
      </trkpt>
      <trkpt lat="45.5186" lon="7.23756">
        <ele>2937</ele>
        <time>2021-11-07T17:17:01Z</time>
      </trkpt>
      <trkpt lat="45.5186" lon="7.23755">
        <ele>2937</ele>
        <time>2021-11-07T17:17:03Z</time>
      </trkpt>
      <trkpt lat="45.5186" lon="7.23755">
        <ele>2937</ele>
        <time>2021-11-07T17:17:04Z</time>
      </trkpt>
      <trkpt lat="45.5186" lon="7.23754">
        <ele>2936.8</ele>
        <time>2021-11-07T17:17:05Z</time>
      </trkpt>
      <trkpt lat="45.5186" lon="7.23752">
        <ele>2936.7</ele>
        <time>2021-11-07T17:17:07Z</time>
      </trkpt>
      <trkpt lat="45.51861" lon="7.23752">
        <ele>2936.7</ele>
        <time>2021-11-07T17:17:11Z</time>
      </trkpt>
      <trkpt lat="45.51861" lon="7.23751">
        <ele>2936.7</ele>
        <time>2021-11-07T17:17:15Z</time>
      </trkpt>
      <trkpt lat="45.51861" lon="7.23749">
        <ele>2936.5</ele>
        <time>2021-11-07T17:17:20Z</time>
      </trkpt>
      <trkpt lat="45.51859" lon="7.23747">
        <ele>2936.5</ele>
        <time>2021-11-07T17:17:25Z</time>
      </trkpt>
      <trkpt lat="45.51858" lon="7.23747">
        <ele>2934.7</ele>
        <time>2021-11-07T17:17:26Z</time>
      </trkpt>
      <trkpt lat="45.51857" lon="7.23744">
        <ele>2934.5</ele>
        <time>2021-11-07T17:17:30Z</time>
      </trkpt>
      <trkpt lat="45.51857" lon="7.23741">
        <ele>2934.3</ele>
        <time>2021-11-07T17:17:38Z</time>
      </trkpt>
      <trkpt lat="45.51856" lon="7.2374">
        <ele>2934.3</ele>
        <time>2021-11-07T17:17:40Z</time>
      </trkpt>
      <trkpt lat="45.51856" lon="7.23737">
        <ele>2932.6</ele>
        <time>2021-11-07T17:17:45Z</time>
      </trkpt>
      <trkpt lat="45.51855" lon="7.23737">
        <ele>2932.3</ele>
        <time>2021-11-07T17:17:46Z</time>
      </trkpt>
      <trkpt lat="45.51854" lon="7.23732">
        <ele>2932.1</ele>
        <time>2021-11-07T17:17:52Z</time>
      </trkpt>
      <trkpt lat="45.51854" lon="7.23731">
        <ele>2931.9</ele>
        <time>2021-11-07T17:17:54Z</time>
      </trkpt>
      <trkpt lat="45.51854" lon="7.23731">
        <ele>2931.8</ele>
        <time>2021-11-07T17:17:55Z</time>
      </trkpt>
      <trkpt lat="45.51853" lon="7.2373">
        <ele>2931.6</ele>
        <time>2021-11-07T17:17:58Z</time>
      </trkpt>
      <trkpt lat="45.51853" lon="7.2373">
        <ele>2931.6</ele>
        <time>2021-11-07T17:17:59Z</time>
      </trkpt>
      <trkpt lat="45.51853" lon="7.23727">
        <ele>2931.1</ele>
        <time>2021-11-07T17:18:04Z</time>
      </trkpt>
      <trkpt lat="45.51852" lon="7.23726">
        <ele>2930.9</ele>
        <time>2021-11-07T17:18:06Z</time>
      </trkpt>
      <trkpt lat="45.51852" lon="7.23724">
        <ele>2930.5</ele>
        <time>2021-11-07T17:18:10Z</time>
      </trkpt>
      <trkpt lat="45.51852" lon="7.2372">
        <ele>2929.9</ele>
        <time>2021-11-07T17:18:16Z</time>
      </trkpt>
      <trkpt lat="45.51851" lon="7.23719">
        <ele>2929.6</ele>
        <time>2021-11-07T17:18:26Z</time>
      </trkpt>
      <trkpt lat="45.51851" lon="7.23718">
        <ele>2929.5</ele>
        <time>2021-11-07T17:18:28Z</time>
      </trkpt>
      <trkpt lat="45.51852" lon="7.23716">
        <ele>2929</ele>
        <time>2021-11-07T17:18:31Z</time>
      </trkpt>
      <trkpt lat="45.51852" lon="7.23714">
        <ele>2928.7</ele>
        <time>2021-11-07T17:18:34Z</time>
      </trkpt>
      <trkpt lat="45.51852" lon="7.23714">
        <ele>2928.7</ele>
        <time>2021-11-07T17:18:36Z</time>
      </trkpt>
      <trkpt lat="45.51851" lon="7.23713">
        <ele>2928.3</ele>
        <time>2021-11-07T17:18:42Z</time>
      </trkpt>
      <trkpt lat="45.51851" lon="7.23712">
        <ele>2928.1</ele>
        <time>2021-11-07T17:18:44Z</time>
      </trkpt>
      <trkpt lat="45.5185" lon="7.2371">
        <ele>2927.8</ele>
        <time>2021-11-07T17:18:46Z</time>
      </trkpt>
      <trkpt lat="45.51849" lon="7.23709">
        <ele>2927.5</ele>
        <time>2021-11-07T17:18:53Z</time>
      </trkpt>
      <trkpt lat="45.51848" lon="7.23709">
        <ele>2927.2</ele>
        <time>2021-11-07T17:18:56Z</time>
      </trkpt>
      <trkpt lat="45.51848" lon="7.23709">
        <ele>2927.1</ele>
        <time>2021-11-07T17:18:57Z</time>
      </trkpt>
      <trkpt lat="45.51847" lon="7.23709">
        <ele>2926.9</ele>
        <time>2021-11-07T17:19:02Z</time>
      </trkpt>
      <trkpt lat="45.51847" lon="7.23708">
        <ele>2926.7</ele>
        <time>2021-11-07T17:19:04Z</time>
      </trkpt>
      <trkpt lat="45.51846" lon="7.23708">
        <ele>2926.5</ele>
        <time>2021-11-07T17:19:06Z</time>
      </trkpt>
      <trkpt lat="45.51843" lon="7.23705">
        <ele>2925.7</ele>
        <time>2021-11-07T17:19:12Z</time>
      </trkpt>
      <trkpt lat="45.51843" lon="7.23704">
        <ele>2925.5</ele>
        <time>2021-11-07T17:19:14Z</time>
      </trkpt>
      <trkpt lat="45.51841" lon="7.23701">
        <ele>2924.8</ele>
        <time>2021-11-07T17:19:20Z</time>
      </trkpt>
      <trkpt lat="45.51841" lon="7.23699">
        <ele>2924.4</ele>
        <time>2021-11-07T17:19:25Z</time>
      </trkpt>
      <trkpt lat="45.51841" lon="7.23699">
        <ele>2924.3</ele>
        <time>2021-11-07T17:19:26Z</time>
      </trkpt>
      <trkpt lat="45.51839" lon="7.23696">
        <ele>2923.7</ele>
        <time>2021-11-07T17:19:32Z</time>
      </trkpt>
      <trkpt lat="45.51839" lon="7.23695">
        <ele>2923.6</ele>
        <time>2021-11-07T17:19:33Z</time>
      </trkpt>
      <trkpt lat="45.51839" lon="7.23693">
        <ele>2923.3</ele>
        <time>2021-11-07T17:19:36Z</time>
      </trkpt>
      <trkpt lat="45.51839" lon="7.23693">
        <ele>2923.2</ele>
        <time>2021-11-07T17:19:38Z</time>
      </trkpt>
      <trkpt lat="45.51839" lon="7.23689">
        <ele>2922.5</ele>
        <time>2021-11-07T17:19:46Z</time>
      </trkpt>
      <trkpt lat="45.51839" lon="7.23689">
        <ele>2922.4</ele>
        <time>2021-11-07T17:19:47Z</time>
      </trkpt>
      <trkpt lat="45.51839" lon="7.23687">
        <ele>2922.2</ele>
        <time>2021-11-07T17:19:57Z</time>
      </trkpt>
      <trkpt lat="45.51839" lon="7.23687">
        <ele>2922.1</ele>
        <time>2021-11-07T17:19:59Z</time>
      </trkpt>
      <trkpt lat="45.51839" lon="7.23686">
        <ele>2922</ele>
        <time>2021-11-07T17:20:00Z</time>
      </trkpt>
      <trkpt lat="45.51838" lon="7.23686">
        <ele>2921.9</ele>
        <time>2021-11-07T17:20:03Z</time>
      </trkpt>
      <trkpt lat="45.51836" lon="7.23686">
        <ele>2921.4</ele>
        <time>2021-11-07T17:20:11Z</time>
      </trkpt>
      <trkpt lat="45.51836" lon="7.23686">
        <ele>2921.3</ele>
        <time>2021-11-07T17:20:13Z</time>
      </trkpt>
      <trkpt lat="45.51835" lon="7.23686">
        <ele>2921.1</ele>
        <time>2021-11-07T17:20:15Z</time>
      </trkpt>
      <trkpt lat="45.51834" lon="7.23686">
        <ele>2920.8</ele>
        <time>2021-11-07T17:20:21Z</time>
      </trkpt>
      <trkpt lat="45.51834" lon="7.23686">
        <ele>2920.8</ele>
        <time>2021-11-07T17:20:22Z</time>
      </trkpt>
      <trkpt lat="45.51834" lon="7.23686">
        <ele>2920.7</ele>
        <time>2021-11-07T17:20:23Z</time>
      </trkpt>
      <trkpt lat="45.51834" lon="7.23686">
        <ele>2920.6</ele>
        <time>2021-11-07T17:20:24Z</time>
      </trkpt>
      <trkpt lat="45.51833" lon="7.23685">
        <ele>2920.4</ele>
        <time>2021-11-07T17:20:31Z</time>
      </trkpt>
      <trkpt lat="45.51832" lon="7.23684">
        <ele>2920.1</ele>
        <time>2021-11-07T17:20:35Z</time>
      </trkpt>
      <trkpt lat="45.51832" lon="7.23683">
        <ele>2920</ele>
        <time>2021-11-07T17:20:36Z</time>
      </trkpt>
      <trkpt lat="45.51832" lon="7.23683">
        <ele>2919.9</ele>
        <time>2021-11-07T17:20:37Z</time>
      </trkpt>
      <trkpt lat="45.51831" lon="7.2368">
        <ele>2919.4</ele>
        <time>2021-11-07T17:20:41Z</time>
      </trkpt>
      <trkpt lat="45.51831" lon="7.23679">
        <ele>2919.3</ele>
        <time>2021-11-07T17:20:42Z</time>
      </trkpt>
      <trkpt lat="45.51831" lon="7.23679">
        <ele>2919.2</ele>
        <time>2021-11-07T17:20:43Z</time>
      </trkpt>
      <trkpt lat="45.51831" lon="7.23678">
        <ele>2919</ele>
        <time>2021-11-07T17:20:46Z</time>
      </trkpt>
      <trkpt lat="45.51831" lon="7.23677">
        <ele>2918.8</ele>
        <time>2021-11-07T17:20:49Z</time>
      </trkpt>
      <trkpt lat="45.51832" lon="7.23676">
        <ele>2918.6</ele>
        <time>2021-11-07T17:21:00Z</time>
      </trkpt>
      <trkpt lat="45.5183" lon="7.23674">
        <ele>2918</ele>
        <time>2021-11-07T17:21:10Z</time>
      </trkpt>
      <trkpt lat="45.51828" lon="7.23673">
        <ele>2917.6</ele>
        <time>2021-11-07T17:21:17Z</time>
      </trkpt>
      <trkpt lat="45.51828" lon="7.23672">
        <ele>2917.4</ele>
        <time>2021-11-07T17:21:18Z</time>
      </trkpt>
      <trkpt lat="45.51827" lon="7.2367">
        <ele>2917.1</ele>
        <time>2021-11-07T17:21:20Z</time>
      </trkpt>
      <trkpt lat="45.51827" lon="7.23669">
        <ele>2916.8</ele>
        <time>2021-11-07T17:21:24Z</time>
      </trkpt>
      <trkpt lat="45.51827" lon="7.23668">
        <ele>2916.7</ele>
        <time>2021-11-07T17:21:28Z</time>
      </trkpt>
      <trkpt lat="45.51826" lon="7.23664">
        <ele>2915.9</ele>
        <time>2021-11-07T17:21:36Z</time>
      </trkpt>
      <trkpt lat="45.51825" lon="7.23664">
        <ele>2915.6</ele>
        <time>2021-11-07T17:21:40Z</time>
      </trkpt>
      <trkpt lat="45.51823" lon="7.23663">
        <ele>2915.3</ele>
        <time>2021-11-07T17:21:45Z</time>
      </trkpt>
      <trkpt lat="45.5182" lon="7.23661">
        <ele>2914.4</ele>
        <time>2021-11-07T17:21:50Z</time>
      </trkpt>
      <trkpt lat="45.5182" lon="7.23661">
        <ele>2914.3</ele>
        <time>2021-11-07T17:21:51Z</time>
      </trkpt>
      <trkpt lat="45.51819" lon="7.2366">
        <ele>2914.1</ele>
        <time>2021-11-07T17:21:52Z</time>
      </trkpt>
      <trkpt lat="45.51818" lon="7.2366">
        <ele>2913.7</ele>
        <time>2021-11-07T17:21:54Z</time>
      </trkpt>
      <trkpt lat="45.51816" lon="7.23659">
        <ele>2913.2</ele>
        <time>2021-11-07T17:21:57Z</time>
      </trkpt>
      <trkpt lat="45.51815" lon="7.23659">
        <ele>2913</ele>
        <time>2021-11-07T17:21:58Z</time>
      </trkpt>
      <trkpt lat="45.51815" lon="7.23656">
        <ele>2912.5</ele>
        <time>2021-11-07T17:22:01Z</time>
      </trkpt>
      <trkpt lat="45.51815" lon="7.23655">
        <ele>2912.3</ele>
        <time>2021-11-07T17:22:02Z</time>
      </trkpt>
      <trkpt lat="45.51815" lon="7.23654">
        <ele>2912.2</ele>
        <time>2021-11-07T17:22:03Z</time>
      </trkpt>
      <trkpt lat="45.51814" lon="7.23652">
        <ele>2911.8</ele>
        <time>2021-11-07T17:22:05Z</time>
      </trkpt>
      <trkpt lat="45.51814" lon="7.23649">
        <ele>2911.3</ele>
        <time>2021-11-07T17:22:07Z</time>
      </trkpt>
      <trkpt lat="45.51815" lon="7.23645">
        <ele>2910.7</ele>
        <time>2021-11-07T17:22:11Z</time>
      </trkpt>
      <trkpt lat="45.51816" lon="7.23644">
        <ele>2910.4</ele>
        <time>2021-11-07T17:22:12Z</time>
      </trkpt>
      <trkpt lat="45.51816" lon="7.23644">
        <ele>2910.3</ele>
        <time>2021-11-07T17:22:13Z</time>
      </trkpt>
      <trkpt lat="45.51816" lon="7.23642">
        <ele>2909.9</ele>
        <time>2021-11-07T17:22:16Z</time>
      </trkpt>
      <trkpt lat="45.51815" lon="7.23641">
        <ele>2909.5</ele>
        <time>2021-11-07T17:22:19Z</time>
      </trkpt>
      <trkpt lat="45.51814" lon="7.2364">
        <ele>2909.3</ele>
        <time>2021-11-07T17:22:21Z</time>
      </trkpt>
      <trkpt lat="45.51812" lon="7.23637">
        <ele>2908.4</ele>
        <time>2021-11-07T17:22:27Z</time>
      </trkpt>
      <trkpt lat="45.51811" lon="7.23637">
        <ele>2908.3</ele>
        <time>2021-11-07T17:22:28Z</time>
      </trkpt>
      <trkpt lat="45.5181" lon="7.23637">
        <ele>2908.1</ele>
        <time>2021-11-07T17:22:29Z</time>
      </trkpt>
      <trkpt lat="45.51809" lon="7.23635">
        <ele>2907.5</ele>
        <time>2021-11-07T17:22:32Z</time>
      </trkpt>
      <trkpt lat="45.51806" lon="7.23629">
        <ele>2906.3</ele>
        <time>2021-11-07T17:22:38Z</time>
      </trkpt>
      <trkpt lat="45.51806" lon="7.23628">
        <ele>2906.1</ele>
        <time>2021-11-07T17:22:39Z</time>
      </trkpt>
      <trkpt lat="45.51806" lon="7.23627">
        <ele>2905.9</ele>
        <time>2021-11-07T17:22:40Z</time>
      </trkpt>
      <trkpt lat="45.51804" lon="7.23625">
        <ele>2905.3</ele>
        <time>2021-11-07T17:22:43Z</time>
      </trkpt>
      <trkpt lat="45.51804" lon="7.23624">
        <ele>2905.2</ele>
        <time>2021-11-07T17:22:44Z</time>
      </trkpt>
      <trkpt lat="45.51803" lon="7.23624">
        <ele>2905</ele>
        <time>2021-11-07T17:22:45Z</time>
      </trkpt>
      <trkpt lat="45.518" lon="7.23619">
        <ele>2903.8</ele>
        <time>2021-11-07T17:22:52Z</time>
      </trkpt>
      <trkpt lat="45.51798" lon="7.23616">
        <ele>2903</ele>
        <time>2021-11-07T17:22:58Z</time>
      </trkpt>
      <trkpt lat="45.51797" lon="7.23615">
        <ele>2902.8</ele>
        <time>2021-11-07T17:22:59Z</time>
      </trkpt>
      <trkpt lat="45.51796" lon="7.23614">
        <ele>2902.4</ele>
        <time>2021-11-07T17:23:01Z</time>
      </trkpt>
      <trkpt lat="45.51794" lon="7.23613">
        <ele>2902</ele>
        <time>2021-11-07T17:23:03Z</time>
      </trkpt>
      <trkpt lat="45.51793" lon="7.23612">
        <ele>2901.6</ele>
        <time>2021-11-07T17:23:05Z</time>
      </trkpt>
      <trkpt lat="45.51793" lon="7.23611">
        <ele>2901.4</ele>
        <time>2021-11-07T17:23:06Z</time>
      </trkpt>
      <trkpt lat="45.51791" lon="7.23607">
        <ele>2900.6</ele>
        <time>2021-11-07T17:23:10Z</time>
      </trkpt>
      <trkpt lat="45.5179" lon="7.23604">
        <ele>2900.1</ele>
        <time>2021-11-07T17:23:13Z</time>
      </trkpt>
      <trkpt lat="45.51789" lon="7.23603">
        <ele>2899.7</ele>
        <time>2021-11-07T17:23:15Z</time>
      </trkpt>
      <trkpt lat="45.51788" lon="7.23602">
        <ele>2899.4</ele>
        <time>2021-11-07T17:23:17Z</time>
      </trkpt>
      <trkpt lat="45.51787" lon="7.23601">
        <ele>2899.1</ele>
        <time>2021-11-07T17:23:18Z</time>
      </trkpt>
      <trkpt lat="45.51785" lon="7.23597">
        <ele>2898.4</ele>
        <time>2021-11-07T17:23:22Z</time>
      </trkpt>
      <trkpt lat="45.51783" lon="7.23584">
        <ele>2896.1</ele>
        <time>2021-11-07T17:23:34Z</time>
      </trkpt>
      <trkpt lat="45.51783" lon="7.23583">
        <ele>2895.9</ele>
        <time>2021-11-07T17:23:35Z</time>
      </trkpt>
      <trkpt lat="45.51782" lon="7.23581">
        <ele>2895.5</ele>
        <time>2021-11-07T17:23:37Z</time>
      </trkpt>
      <trkpt lat="45.51781" lon="7.23579">
        <ele>2895</ele>
        <time>2021-11-07T17:23:40Z</time>
      </trkpt>
      <trkpt lat="45.5178" lon="7.23578">
        <ele>2894.8</ele>
        <time>2021-11-07T17:23:41Z</time>
      </trkpt>
      <trkpt lat="45.5178" lon="7.23576">
        <ele>2894.5</ele>
        <time>2021-11-07T17:23:43Z</time>
      </trkpt>
      <trkpt lat="45.51779" lon="7.23573">
        <ele>2893.8</ele>
        <time>2021-11-07T17:23:47Z</time>
      </trkpt>
      <trkpt lat="45.5178" lon="7.23566">
        <ele>2892.8</ele>
        <time>2021-11-07T17:23:53Z</time>
      </trkpt>
      <trkpt lat="45.51779" lon="7.23564">
        <ele>2892.4</ele>
        <time>2021-11-07T17:23:55Z</time>
      </trkpt>
      <trkpt lat="45.51779" lon="7.23562">
        <ele>2892</ele>
        <time>2021-11-07T17:23:57Z</time>
      </trkpt>
      <trkpt lat="45.51779" lon="7.2356">
        <ele>2891.7</ele>
        <time>2021-11-07T17:23:59Z</time>
      </trkpt>
      <trkpt lat="45.51778" lon="7.23557">
        <ele>2891.2</ele>
        <time>2021-11-07T17:24:02Z</time>
      </trkpt>
      <trkpt lat="45.51778" lon="7.23555">
        <ele>2890.8</ele>
        <time>2021-11-07T17:24:04Z</time>
      </trkpt>
      <trkpt lat="45.51778" lon="7.23549">
        <ele>2889.7</ele>
        <time>2021-11-07T17:24:10Z</time>
      </trkpt>
      <trkpt lat="45.51778" lon="7.23546">
        <ele>2889.2</ele>
        <time>2021-11-07T17:24:12Z</time>
      </trkpt>
      <trkpt lat="45.51778" lon="7.23545">
        <ele>2889</ele>
        <time>2021-11-07T17:24:13Z</time>
      </trkpt>
      <trkpt lat="45.51778" lon="7.2354">
        <ele>2888.5</ele>
        <time>2021-11-07T17:24:17Z</time>
      </trkpt>
      <trkpt lat="45.51778" lon="7.2354">
        <ele>2888.3</ele>
        <time>2021-11-07T17:24:19Z</time>
      </trkpt>
      <trkpt lat="45.51779" lon="7.2354">
        <ele>2888.2</ele>
        <time>2021-11-07T17:24:27Z</time>
      </trkpt>
      <trkpt lat="45.51778" lon="7.23538">
        <ele>2887.6</ele>
        <time>2021-11-07T17:24:32Z</time>
      </trkpt>
      <trkpt lat="45.51776" lon="7.23528">
        <ele>2885.7</ele>
        <time>2021-11-07T17:24:44Z</time>
      </trkpt>
      <trkpt lat="45.51775" lon="7.23527">
        <ele>2885</ele>
        <time>2021-11-07T17:24:45Z</time>
      </trkpt>
      <trkpt lat="45.51775" lon="7.23526">
        <ele>2884.9</ele>
        <time>2021-11-07T17:24:46Z</time>
      </trkpt>
      <trkpt lat="45.51775" lon="7.23525">
        <ele>2884.7</ele>
        <time>2021-11-07T17:24:47Z</time>
      </trkpt>
      <trkpt lat="45.51774" lon="7.23522">
        <ele>2883.3</ele>
        <time>2021-11-07T17:24:50Z</time>
      </trkpt>
      <trkpt lat="45.51773" lon="7.23522">
        <ele>2883.1</ele>
        <time>2021-11-07T17:24:52Z</time>
      </trkpt>
      <trkpt lat="45.51773" lon="7.2352">
        <ele>2883</ele>
        <time>2021-11-07T17:24:53Z</time>
      </trkpt>
      <trkpt lat="45.51774" lon="7.23517">
        <ele>2882.2</ele>
        <time>2021-11-07T17:24:56Z</time>
      </trkpt>
      <trkpt lat="45.51773" lon="7.23515">
        <ele>2882</ele>
        <time>2021-11-07T17:24:59Z</time>
      </trkpt>
      <trkpt lat="45.51772" lon="7.23507">
        <ele>2880.4</ele>
        <time>2021-11-07T17:25:08Z</time>
      </trkpt>
      <trkpt lat="45.51771" lon="7.23507">
        <ele>2879.5</ele>
        <time>2021-11-07T17:25:09Z</time>
      </trkpt>
      <trkpt lat="45.5177" lon="7.23505">
        <ele>2878.5</ele>
        <time>2021-11-07T17:25:11Z</time>
      </trkpt>
      <trkpt lat="45.5177" lon="7.23505">
        <ele>2878.4</ele>
        <time>2021-11-07T17:25:12Z</time>
      </trkpt>
      <trkpt lat="45.51769" lon="7.23503">
        <ele>2878.2</ele>
        <time>2021-11-07T17:25:16Z</time>
      </trkpt>
      <trkpt lat="45.51768" lon="7.23501">
        <ele>2876.6</ele>
        <time>2021-11-07T17:25:18Z</time>
      </trkpt>
      <trkpt lat="45.51769" lon="7.235">
        <ele>2877.1</ele>
        <time>2021-11-07T17:25:19Z</time>
      </trkpt>
      <trkpt lat="45.5177" lon="7.23497">
        <ele>2877</ele>
        <time>2021-11-07T17:25:24Z</time>
      </trkpt>
      <trkpt lat="45.51769" lon="7.23496">
        <ele>2875.9</ele>
        <time>2021-11-07T17:25:27Z</time>
      </trkpt>
      <trkpt lat="45.51768" lon="7.23492">
        <ele>2874.3</ele>
        <time>2021-11-07T17:25:33Z</time>
      </trkpt>
      <trkpt lat="45.51768" lon="7.23491">
        <ele>2874.2</ele>
        <time>2021-11-07T17:25:34Z</time>
      </trkpt>
      <trkpt lat="45.51767" lon="7.23488">
        <ele>2873.2</ele>
        <time>2021-11-07T17:25:38Z</time>
      </trkpt>
      <trkpt lat="45.51764" lon="7.23485">
        <ele>2872.5</ele>
        <time>2021-11-07T17:25:43Z</time>
      </trkpt>
      <trkpt lat="45.51764" lon="7.23483">
        <ele>2871.5</ele>
        <time>2021-11-07T17:25:45Z</time>
      </trkpt>
      <trkpt lat="45.51765" lon="7.23476">
        <ele>2870.6</ele>
        <time>2021-11-07T17:25:51Z</time>
      </trkpt>
      <trkpt lat="45.51765" lon="7.23475">
        <ele>2869.7</ele>
        <time>2021-11-07T17:25:53Z</time>
      </trkpt>
      <trkpt lat="45.51765" lon="7.23474">
        <ele>2869.6</ele>
        <time>2021-11-07T17:25:54Z</time>
      </trkpt>
      <trkpt lat="45.51766" lon="7.23472">
        <ele>2870</ele>
        <time>2021-11-07T17:25:55Z</time>
      </trkpt>
      <trkpt lat="45.51766" lon="7.2347">
        <ele>2869.1</ele>
        <time>2021-11-07T17:25:57Z</time>
      </trkpt>
      <trkpt lat="45.51766" lon="7.23469">
        <ele>2868.9</ele>
        <time>2021-11-07T17:25:58Z</time>
      </trkpt>
      <trkpt lat="45.51766" lon="7.23466">
        <ele>2868</ele>
        <time>2021-11-07T17:26:01Z</time>
      </trkpt>
      <trkpt lat="45.51766" lon="7.23465">
        <ele>2867.8</ele>
        <time>2021-11-07T17:26:02Z</time>
      </trkpt>
      <trkpt lat="45.51766" lon="7.23464">
        <ele>2867.7</ele>
        <time>2021-11-07T17:26:03Z</time>
      </trkpt>
      <trkpt lat="45.51766" lon="7.23463">
        <ele>2867.6</ele>
        <time>2021-11-07T17:26:04Z</time>
      </trkpt>
      <trkpt lat="45.51766" lon="7.23457">
        <ele>2865.7</ele>
        <time>2021-11-07T17:26:10Z</time>
      </trkpt>
      <trkpt lat="45.51766" lon="7.23455">
        <ele>2865.5</ele>
        <time>2021-11-07T17:26:12Z</time>
      </trkpt>
      <trkpt lat="45.51767" lon="7.2345">
        <ele>2864.5</ele>
        <time>2021-11-07T17:26:16Z</time>
      </trkpt>
      <trkpt lat="45.51767" lon="7.23446">
        <ele>2863.4</ele>
        <time>2021-11-07T17:26:19Z</time>
      </trkpt>
      <trkpt lat="45.51768" lon="7.23443">
        <ele>2862.4</ele>
        <time>2021-11-07T17:26:22Z</time>
      </trkpt>
      <trkpt lat="45.51768" lon="7.23443">
        <ele>2862.3</ele>
        <time>2021-11-07T17:26:23Z</time>
      </trkpt>
      <trkpt lat="45.51768" lon="7.23442">
        <ele>2862.1</ele>
        <time>2021-11-07T17:26:25Z</time>
      </trkpt>
      <trkpt lat="45.51768" lon="7.23442">
        <ele>2862</ele>
        <time>2021-11-07T17:26:26Z</time>
      </trkpt>
      <trkpt lat="45.51768" lon="7.23442">
        <ele>2861.8</ele>
        <time>2021-11-07T17:26:32Z</time>
      </trkpt>
      <trkpt lat="45.51769" lon="7.23443">
        <ele>2862.4</ele>
        <time>2021-11-07T17:26:40Z</time>
      </trkpt>
      <trkpt lat="45.51768" lon="7.23443">
        <ele>2861.6</ele>
        <time>2021-11-07T17:26:44Z</time>
      </trkpt>
      <trkpt lat="45.51769" lon="7.2344">
        <ele>2861.2</ele>
        <time>2021-11-07T17:26:47Z</time>
      </trkpt>
      <trkpt lat="45.51769" lon="7.23439">
        <ele>2861.1</ele>
        <time>2021-11-07T17:26:48Z</time>
      </trkpt>
      <trkpt lat="45.51768" lon="7.23436">
        <ele>2859.3</ele>
        <time>2021-11-07T17:26:51Z</time>
      </trkpt>
      <trkpt lat="45.51767" lon="7.23436">
        <ele>2859.2</ele>
        <time>2021-11-07T17:26:52Z</time>
      </trkpt>
      <trkpt lat="45.51765" lon="7.23431">
        <ele>2857.4</ele>
        <time>2021-11-07T17:26:57Z</time>
      </trkpt>
      <trkpt lat="45.51764" lon="7.2343">
        <ele>2857.2</ele>
        <time>2021-11-07T17:26:58Z</time>
      </trkpt>
      <trkpt lat="45.51764" lon="7.23427">
        <ele>2856.1</ele>
        <time>2021-11-07T17:27:00Z</time>
      </trkpt>
      <trkpt lat="45.51764" lon="7.23424">
        <ele>2855.9</ele>
        <time>2021-11-07T17:27:03Z</time>
      </trkpt>
      <trkpt lat="45.51764" lon="7.23422">
        <ele>2854.7</ele>
        <time>2021-11-07T17:27:07Z</time>
      </trkpt>
      <trkpt lat="45.51765" lon="7.23421">
        <ele>2854.6</ele>
        <time>2021-11-07T17:27:09Z</time>
      </trkpt>
      <trkpt lat="45.51764" lon="7.23418">
        <ele>2853.2</ele>
        <time>2021-11-07T17:27:19Z</time>
      </trkpt>
      <trkpt lat="45.51763" lon="7.23417">
        <ele>2853.1</ele>
        <time>2021-11-07T17:27:20Z</time>
      </trkpt>
      <trkpt lat="45.51763" lon="7.23413">
        <ele>2851.7</ele>
        <time>2021-11-07T17:27:25Z</time>
      </trkpt>
      <trkpt lat="45.51762" lon="7.23409">
        <ele>2849.7</ele>
        <time>2021-11-07T17:27:30Z</time>
      </trkpt>
      <trkpt lat="45.51765" lon="7.23401">
        <ele>2847.8</ele>
        <time>2021-11-07T17:27:38Z</time>
      </trkpt>
      <trkpt lat="45.51765" lon="7.234">
        <ele>2847.7</ele>
        <time>2021-11-07T17:27:39Z</time>
      </trkpt>
      <trkpt lat="45.51763" lon="7.23397">
        <ele>2846.4</ele>
        <time>2021-11-07T17:27:45Z</time>
      </trkpt>
      <trkpt lat="45.51763" lon="7.23396">
        <ele>2846.3</ele>
        <time>2021-11-07T17:27:46Z</time>
      </trkpt>
      <trkpt lat="45.51762" lon="7.23396">
        <ele>2845.5</ele>
        <time>2021-11-07T17:27:52Z</time>
      </trkpt>
      <trkpt lat="45.51762" lon="7.23395">
        <ele>2845.4</ele>
        <time>2021-11-07T17:27:55Z</time>
      </trkpt>
      <trkpt lat="45.51761" lon="7.23394">
        <ele>2844.1</ele>
        <time>2021-11-07T17:27:56Z</time>
      </trkpt>
      <trkpt lat="45.5176" lon="7.2339">
        <ele>2844</ele>
        <time>2021-11-07T17:28:00Z</time>
      </trkpt>
      <trkpt lat="45.5176" lon="7.23389">
        <ele>2842.7</ele>
        <time>2021-11-07T17:28:01Z</time>
      </trkpt>
      <trkpt lat="45.5176" lon="7.23386">
        <ele>2842.6</ele>
        <time>2021-11-07T17:28:03Z</time>
      </trkpt>
      <trkpt lat="45.5176" lon="7.23383">
        <ele>2841.4</ele>
        <time>2021-11-07T17:28:06Z</time>
      </trkpt>
      <trkpt lat="45.5176" lon="7.23382">
        <ele>2841.2</ele>
        <time>2021-11-07T17:28:07Z</time>
      </trkpt>
      <trkpt lat="45.5176" lon="7.23379">
        <ele>2840</ele>
        <time>2021-11-07T17:28:10Z</time>
      </trkpt>
      <trkpt lat="45.51759" lon="7.23375">
        <ele>2838.1</ele>
        <time>2021-11-07T17:28:14Z</time>
      </trkpt>
      <trkpt lat="45.51759" lon="7.23374">
        <ele>2837.9</ele>
        <time>2021-11-07T17:28:15Z</time>
      </trkpt>
      <trkpt lat="45.5176" lon="7.23366">
        <ele>2836.1</ele>
        <time>2021-11-07T17:28:22Z</time>
      </trkpt>
      <trkpt lat="45.51759" lon="7.23365">
        <ele>2835.3</ele>
        <time>2021-11-07T17:28:23Z</time>
      </trkpt>
      <trkpt lat="45.51757" lon="7.23359">
        <ele>2832.8</ele>
        <time>2021-11-07T17:28:29Z</time>
      </trkpt>
      <trkpt lat="45.51757" lon="7.23359">
        <ele>2832.6</ele>
        <time>2021-11-07T17:28:31Z</time>
      </trkpt>
      <trkpt lat="45.51756" lon="7.23358">
        <ele>2832.5</ele>
        <time>2021-11-07T17:28:33Z</time>
      </trkpt>
      <trkpt lat="45.51756" lon="7.23358">
        <ele>2832.4</ele>
        <time>2021-11-07T17:28:35Z</time>
      </trkpt>
      <trkpt lat="45.51756" lon="7.23358">
        <ele>2832.4</ele>
        <time>2021-11-07T17:28:44Z</time>
      </trkpt>
      <trkpt lat="45.51753" lon="7.23357">
        <ele>2831.9</ele>
        <time>2021-11-07T17:28:49Z</time>
      </trkpt>
      <trkpt lat="45.51751" lon="7.23357">
        <ele>2831.4</ele>
        <time>2021-11-07T17:28:53Z</time>
      </trkpt>
      <trkpt lat="45.51751" lon="7.23356">
        <ele>2831.4</ele>
        <time>2021-11-07T17:28:54Z</time>
      </trkpt>
      <trkpt lat="45.5175" lon="7.23356">
        <ele>2831.2</ele>
        <time>2021-11-07T17:29:03Z</time>
      </trkpt>
      <trkpt lat="45.51749" lon="7.23354">
        <ele>2830.8</ele>
        <time>2021-11-07T17:29:05Z</time>
      </trkpt>
      <trkpt lat="45.51746" lon="7.23352">
        <ele>2830.3</ele>
        <time>2021-11-07T17:29:11Z</time>
      </trkpt>
      <trkpt lat="45.51746" lon="7.23351">
        <ele>2830.2</ele>
        <time>2021-11-07T17:29:15Z</time>
      </trkpt>
      <trkpt lat="45.51746" lon="7.23352">
        <ele>2830.2</ele>
        <time>2021-11-07T17:29:16Z</time>
      </trkpt>
      <trkpt lat="45.51746" lon="7.23352">
        <ele>2830.2</ele>
        <time>2021-11-07T17:29:17Z</time>
      </trkpt>
      <trkpt lat="45.51746" lon="7.23352">
        <ele>2830.2</ele>
        <time>2021-11-07T17:29:22Z</time>
      </trkpt>
      <trkpt lat="45.51746" lon="7.23351">
        <ele>2830</ele>
        <time>2021-11-07T17:29:31Z</time>
      </trkpt>
      <trkpt lat="45.51746" lon="7.2335">
        <ele>2830</ele>
        <time>2021-11-07T17:29:33Z</time>
      </trkpt>
      <trkpt lat="45.51744" lon="7.23348">
        <ele>2829.5</ele>
        <time>2021-11-07T17:29:40Z</time>
      </trkpt>
      <trkpt lat="45.51743" lon="7.23346">
        <ele>2829.2</ele>
        <time>2021-11-07T17:29:42Z</time>
      </trkpt>
      <trkpt lat="45.51739" lon="7.23339">
        <ele>2828.1</ele>
        <time>2021-11-07T17:29:49Z</time>
      </trkpt>
      <trkpt lat="45.51739" lon="7.23338">
        <ele>2828</ele>
        <time>2021-11-07T17:29:50Z</time>
      </trkpt>
      <trkpt lat="45.51739" lon="7.23337">
        <ele>2827.8</ele>
        <time>2021-11-07T17:29:51Z</time>
      </trkpt>
      <trkpt lat="45.51741" lon="7.23335">
        <ele>2827.4</ele>
        <time>2021-11-07T17:29:54Z</time>
      </trkpt>
      <trkpt lat="45.51741" lon="7.23332">
        <ele>2827.1</ele>
        <time>2021-11-07T17:29:56Z</time>
      </trkpt>
      <trkpt lat="45.51741" lon="7.2333">
        <ele>2826.7</ele>
        <time>2021-11-07T17:29:58Z</time>
      </trkpt>
      <trkpt lat="45.51739" lon="7.23328">
        <ele>2826.4</ele>
        <time>2021-11-07T17:30:00Z</time>
      </trkpt>
      <trkpt lat="45.51739" lon="7.23328">
        <ele>2826.3</ele>
        <time>2021-11-07T17:30:01Z</time>
      </trkpt>
      <trkpt lat="45.51738" lon="7.23327">
        <ele>2826.1</ele>
        <time>2021-11-07T17:30:02Z</time>
      </trkpt>
      <trkpt lat="45.51735" lon="7.23325">
        <ele>2825.4</ele>
        <time>2021-11-07T17:30:06Z</time>
      </trkpt>
      <trkpt lat="45.51734" lon="7.23323">
        <ele>2825</ele>
        <time>2021-11-07T17:30:08Z</time>
      </trkpt>
      <trkpt lat="45.51734" lon="7.23321">
        <ele>2824.6</ele>
        <time>2021-11-07T17:30:10Z</time>
      </trkpt>
      <trkpt lat="45.51734" lon="7.2332">
        <ele>2824.5</ele>
        <time>2021-11-07T17:30:11Z</time>
      </trkpt>
      <trkpt lat="45.51736" lon="7.23316">
        <ele>2823.6</ele>
        <time>2021-11-07T17:30:16Z</time>
      </trkpt>
      <trkpt lat="45.51736" lon="7.23315">
        <ele>2823.5</ele>
        <time>2021-11-07T17:30:17Z</time>
      </trkpt>
      <trkpt lat="45.51736" lon="7.23314">
        <ele>2823.4</ele>
        <time>2021-11-07T17:30:18Z</time>
      </trkpt>
      <trkpt lat="45.51736" lon="7.23314">
        <ele>2823.2</ele>
        <time>2021-11-07T17:30:20Z</time>
      </trkpt>
      <trkpt lat="45.51735" lon="7.23313">
        <ele>2823.1</ele>
        <time>2021-11-07T17:30:24Z</time>
      </trkpt>
      <trkpt lat="45.51734" lon="7.23313">
        <ele>2822.9</ele>
        <time>2021-11-07T17:30:32Z</time>
      </trkpt>
      <trkpt lat="45.51732" lon="7.23311">
        <ele>2822</ele>
        <time>2021-11-07T17:30:37Z</time>
      </trkpt>
      <trkpt lat="45.51732" lon="7.23309">
        <ele>2821.8</ele>
        <time>2021-11-07T17:30:39Z</time>
      </trkpt>
      <trkpt lat="45.51732" lon="7.23309">
        <ele>2821.6</ele>
        <time>2021-11-07T17:30:40Z</time>
      </trkpt>
      <trkpt lat="45.51732" lon="7.23307">
        <ele>2821.3</ele>
        <time>2021-11-07T17:30:42Z</time>
      </trkpt>
      <trkpt lat="45.51732" lon="7.23304">
        <ele>2820.7</ele>
        <time>2021-11-07T17:30:45Z</time>
      </trkpt>
      <trkpt lat="45.51734" lon="7.23299">
        <ele>2819.7</ele>
        <time>2021-11-07T17:30:50Z</time>
      </trkpt>
      <trkpt lat="45.51735" lon="7.23297">
        <ele>2819.2</ele>
        <time>2021-11-07T17:30:52Z</time>
      </trkpt>
      <trkpt lat="45.51735" lon="7.23295">
        <ele>2818.8</ele>
        <time>2021-11-07T17:30:54Z</time>
      </trkpt>
      <trkpt lat="45.51735" lon="7.23295">
        <ele>2818.6</ele>
        <time>2021-11-07T17:30:56Z</time>
      </trkpt>
      <trkpt lat="45.51735" lon="7.23294">
        <ele>2818.5</ele>
        <time>2021-11-07T17:30:57Z</time>
      </trkpt>
      <trkpt lat="45.51734" lon="7.23294">
        <ele>2818.4</ele>
        <time>2021-11-07T17:30:58Z</time>
      </trkpt>
      <trkpt lat="45.51734" lon="7.23294">
        <ele>2818.2</ele>
        <time>2021-11-07T17:30:59Z</time>
      </trkpt>
      <trkpt lat="45.51731" lon="7.23293">
        <ele>2817.5</ele>
        <time>2021-11-07T17:31:03Z</time>
      </trkpt>
      <trkpt lat="45.5173" lon="7.23292">
        <ele>2817</ele>
        <time>2021-11-07T17:31:06Z</time>
      </trkpt>
      <trkpt lat="45.51725" lon="7.2329">
        <ele>2815.7</ele>
        <time>2021-11-07T17:31:12Z</time>
      </trkpt>
      <trkpt lat="45.51723" lon="7.23289">
        <ele>2815</ele>
        <time>2021-11-07T17:31:15Z</time>
      </trkpt>
      <trkpt lat="45.51722" lon="7.23289">
        <ele>2814.7</ele>
        <time>2021-11-07T17:31:16Z</time>
      </trkpt>
      <trkpt lat="45.51721" lon="7.23288">
        <ele>2814.3</ele>
        <time>2021-11-07T17:31:17Z</time>
      </trkpt>
      <trkpt lat="45.5172" lon="7.23286">
        <ele>2813.7</ele>
        <time>2021-11-07T17:31:19Z</time>
      </trkpt>
      <trkpt lat="45.5172" lon="7.23283">
        <ele>2813.2</ele>
        <time>2021-11-07T17:31:21Z</time>
      </trkpt>
      <trkpt lat="45.5172" lon="7.23282">
        <ele>2812.9</ele>
        <time>2021-11-07T17:31:22Z</time>
      </trkpt>
      <trkpt lat="45.51719" lon="7.23278">
        <ele>2812.1</ele>
        <time>2021-11-07T17:31:25Z</time>
      </trkpt>
      <trkpt lat="45.51718" lon="7.23277">
        <ele>2811.9</ele>
        <time>2021-11-07T17:31:26Z</time>
      </trkpt>
      <trkpt lat="45.51716" lon="7.23277">
        <ele>2811.1</ele>
        <time>2021-11-07T17:31:29Z</time>
      </trkpt>
      <trkpt lat="45.51711" lon="7.23274">
        <ele>2809.7</ele>
        <time>2021-11-07T17:31:34Z</time>
      </trkpt>
      <trkpt lat="45.51708" lon="7.23272">
        <ele>2808.9</ele>
        <time>2021-11-07T17:31:37Z</time>
      </trkpt>
      <trkpt lat="45.51705" lon="7.2327">
        <ele>2807.9</ele>
        <time>2021-11-07T17:31:41Z</time>
      </trkpt>
      <trkpt lat="45.51704" lon="7.23269">
        <ele>2807.7</ele>
        <time>2021-11-07T17:31:42Z</time>
      </trkpt>
      <trkpt lat="45.51704" lon="7.23269">
        <ele>2807.5</ele>
        <time>2021-11-07T17:31:43Z</time>
      </trkpt>
      <trkpt lat="45.51703" lon="7.23267">
        <ele>2807</ele>
        <time>2021-11-07T17:31:45Z</time>
      </trkpt>
      <trkpt lat="45.51701" lon="7.23265">
        <ele>2806.4</ele>
        <time>2021-11-07T17:31:47Z</time>
      </trkpt>
      <trkpt lat="45.51698" lon="7.23259">
        <ele>2804.7</ele>
        <time>2021-11-07T17:31:53Z</time>
      </trkpt>
      <trkpt lat="45.51697" lon="7.23257">
        <ele>2804.2</ele>
        <time>2021-11-07T17:31:55Z</time>
      </trkpt>
      <trkpt lat="45.51697" lon="7.23256">
        <ele>2804.1</ele>
        <time>2021-11-07T17:31:56Z</time>
      </trkpt>
      <trkpt lat="45.51698" lon="7.23253">
        <ele>2803.5</ele>
        <time>2021-11-07T17:31:59Z</time>
      </trkpt>
      <trkpt lat="45.51698" lon="7.23252">
        <ele>2803.3</ele>
        <time>2021-11-07T17:32:00Z</time>
      </trkpt>
      <trkpt lat="45.51698" lon="7.23252">
        <ele>2803.1</ele>
        <time>2021-11-07T17:32:01Z</time>
      </trkpt>
      <trkpt lat="45.51697" lon="7.23249">
        <ele>2802.4</ele>
        <time>2021-11-07T17:32:04Z</time>
      </trkpt>
      <trkpt lat="45.51694" lon="7.23246">
        <ele>2801.3</ele>
        <time>2021-11-07T17:32:08Z</time>
      </trkpt>
      <trkpt lat="45.51693" lon="7.23245">
        <ele>2801</ele>
        <time>2021-11-07T17:32:09Z</time>
      </trkpt>
      <trkpt lat="45.51692" lon="7.23245">
        <ele>2800.6</ele>
        <time>2021-11-07T17:32:11Z</time>
      </trkpt>
      <trkpt lat="45.51691" lon="7.23245">
        <ele>2800.2</ele>
        <time>2021-11-07T17:32:13Z</time>
      </trkpt>
      <trkpt lat="45.51689" lon="7.23244">
        <ele>2799.8</ele>
        <time>2021-11-07T17:32:17Z</time>
      </trkpt>
      <trkpt lat="45.51689" lon="7.23244">
        <ele>2799.8</ele>
        <time>2021-11-07T17:32:21Z</time>
      </trkpt>
      <trkpt lat="45.5169" lon="7.23245">
        <ele>2799.6</ele>
        <time>2021-11-07T17:32:28Z</time>
      </trkpt>
      <trkpt lat="45.5169" lon="7.23245">
        <ele>2799.5</ele>
        <time>2021-11-07T17:32:33Z</time>
      </trkpt>
      <trkpt lat="45.51689" lon="7.23245">
        <ele>2799.5</ele>
        <time>2021-11-07T17:32:35Z</time>
      </trkpt>
      <trkpt lat="45.5169" lon="7.23245">
        <ele>2799.4</ele>
        <time>2021-11-07T17:32:45Z</time>
      </trkpt>
      <trkpt lat="45.5169" lon="7.23245">
        <ele>2799.2</ele>
        <time>2021-11-07T17:32:47Z</time>
      </trkpt>
      <trkpt lat="45.5169" lon="7.23245">
        <ele>2799.2</ele>
        <time>2021-11-07T17:32:49Z</time>
      </trkpt>
      <trkpt lat="45.5169" lon="7.23246">
        <ele>2799.1</ele>
        <time>2021-11-07T17:32:50Z</time>
      </trkpt>
      <trkpt lat="45.5169" lon="7.23246">
        <ele>2798.9</ele>
        <time>2021-11-07T17:32:54Z</time>
      </trkpt>
      <trkpt lat="45.51689" lon="7.23248">
        <ele>2798.5</ele>
        <time>2021-11-07T17:33:03Z</time>
      </trkpt>
      <trkpt lat="45.51685" lon="7.23249">
        <ele>2797.3</ele>
        <time>2021-11-07T17:33:13Z</time>
      </trkpt>
      <trkpt lat="45.51683" lon="7.23248">
        <ele>2796.6</ele>
        <time>2021-11-07T17:33:17Z</time>
      </trkpt>
      <trkpt lat="45.5168" lon="7.23248">
        <ele>2795.8</ele>
        <time>2021-11-07T17:33:22Z</time>
      </trkpt>
      <trkpt lat="45.5168" lon="7.23247">
        <ele>2795.6</ele>
        <time>2021-11-07T17:33:23Z</time>
      </trkpt>
      <trkpt lat="45.51678" lon="7.23245">
        <ele>2794.9</ele>
        <time>2021-11-07T17:33:26Z</time>
      </trkpt>
      <trkpt lat="45.51677" lon="7.23245">
        <ele>2794.4</ele>
        <time>2021-11-07T17:33:28Z</time>
      </trkpt>
      <trkpt lat="45.51676" lon="7.23244">
        <ele>2794</ele>
        <time>2021-11-07T17:33:30Z</time>
      </trkpt>
      <trkpt lat="45.51675" lon="7.23244">
        <ele>2793.8</ele>
        <time>2021-11-07T17:33:31Z</time>
      </trkpt>
      <trkpt lat="45.51674" lon="7.23243">
        <ele>2793.2</ele>
        <time>2021-11-07T17:33:34Z</time>
      </trkpt>
      <trkpt lat="45.51673" lon="7.23241">
        <ele>2792.7</ele>
        <time>2021-11-07T17:33:38Z</time>
      </trkpt>
      <trkpt lat="45.51674" lon="7.2324">
        <ele>2792.5</ele>
        <time>2021-11-07T17:33:39Z</time>
      </trkpt>
      <trkpt lat="45.51674" lon="7.23239">
        <ele>2792.2</ele>
        <time>2021-11-07T17:33:40Z</time>
      </trkpt>
      <trkpt lat="45.51674" lon="7.23238">
        <ele>2792</ele>
        <time>2021-11-07T17:33:41Z</time>
      </trkpt>
      <trkpt lat="45.51674" lon="7.23238">
        <ele>2791.9</ele>
        <time>2021-11-07T17:33:42Z</time>
      </trkpt>
      <trkpt lat="45.51674" lon="7.23237">
        <ele>2791.7</ele>
        <time>2021-11-07T17:33:44Z</time>
      </trkpt>
      <trkpt lat="45.51672" lon="7.23237">
        <ele>2790.9</ele>
        <time>2021-11-07T17:33:49Z</time>
      </trkpt>
      <trkpt lat="45.5167" lon="7.23237">
        <ele>2790.3</ele>
        <time>2021-11-07T17:33:52Z</time>
      </trkpt>
      <trkpt lat="45.5167" lon="7.23237">
        <ele>2790.1</ele>
        <time>2021-11-07T17:33:54Z</time>
      </trkpt>
      <trkpt lat="45.51669" lon="7.23238">
        <ele>2789.8</ele>
        <time>2021-11-07T17:33:56Z</time>
      </trkpt>
      <trkpt lat="45.51669" lon="7.23238">
        <ele>2789.7</ele>
        <time>2021-11-07T17:33:57Z</time>
      </trkpt>
      <trkpt lat="45.51668" lon="7.23238">
        <ele>2789.5</ele>
        <time>2021-11-07T17:33:58Z</time>
      </trkpt>
      <trkpt lat="45.51668" lon="7.23239">
        <ele>2789.5</ele>
        <time>2021-11-07T17:33:59Z</time>
      </trkpt>
      <trkpt lat="45.51668" lon="7.23239">
        <ele>2789.2</ele>
        <time>2021-11-07T17:34:01Z</time>
      </trkpt>
      <trkpt lat="45.51664" lon="7.23241">
        <ele>2788.1</ele>
        <time>2021-11-07T17:34:06Z</time>
      </trkpt>
      <trkpt lat="45.51664" lon="7.23238">
        <ele>2787.5</ele>
        <time>2021-11-07T17:34:12Z</time>
      </trkpt>
      <trkpt lat="45.51664" lon="7.23237">
        <ele>2787.4</ele>
        <time>2021-11-07T17:34:13Z</time>
      </trkpt>
      <trkpt lat="45.51664" lon="7.23236">
        <ele>2787</ele>
        <time>2021-11-07T17:34:16Z</time>
      </trkpt>
      <trkpt lat="45.51664" lon="7.23233">
        <ele>2786.4</ele>
        <time>2021-11-07T17:34:20Z</time>
      </trkpt>
      <trkpt lat="45.51664" lon="7.23231">
        <ele>2785.9</ele>
        <time>2021-11-07T17:34:23Z</time>
      </trkpt>
      <trkpt lat="45.51664" lon="7.2323">
        <ele>2785.8</ele>
        <time>2021-11-07T17:34:24Z</time>
      </trkpt>
      <trkpt lat="45.51662" lon="7.23229">
        <ele>2785.1</ele>
        <time>2021-11-07T17:34:28Z</time>
      </trkpt>
      <trkpt lat="45.51661" lon="7.23229">
        <ele>2784.8</ele>
        <time>2021-11-07T17:34:30Z</time>
      </trkpt>
      <trkpt lat="45.51659" lon="7.23229">
        <ele>2784.3</ele>
        <time>2021-11-07T17:34:33Z</time>
      </trkpt>
      <trkpt lat="45.51658" lon="7.23229">
        <ele>2784</ele>
        <time>2021-11-07T17:34:35Z</time>
      </trkpt>
      <trkpt lat="45.51656" lon="7.23229">
        <ele>2783.3</ele>
        <time>2021-11-07T17:34:38Z</time>
      </trkpt>
      <trkpt lat="45.51655" lon="7.2323">
        <ele>2782.8</ele>
        <time>2021-11-07T17:34:40Z</time>
      </trkpt>
      <trkpt lat="45.51654" lon="7.23232">
        <ele>2782.3</ele>
        <time>2021-11-07T17:34:42Z</time>
      </trkpt>
      <trkpt lat="45.51652" lon="7.23233">
        <ele>2781.7</ele>
        <time>2021-11-07T17:34:45Z</time>
      </trkpt>
      <trkpt lat="45.51651" lon="7.23232">
        <ele>2781.3</ele>
        <time>2021-11-07T17:34:48Z</time>
      </trkpt>
      <trkpt lat="45.51651" lon="7.23232">
        <ele>2781.3</ele>
        <time>2021-11-07T17:34:49Z</time>
      </trkpt>
      <trkpt lat="45.5165" lon="7.23231">
        <ele>2780.8</ele>
        <time>2021-11-07T17:34:54Z</time>
      </trkpt>
      <trkpt lat="45.51649" lon="7.23231">
        <ele>2780.7</ele>
        <time>2021-11-07T17:34:55Z</time>
      </trkpt>
      <trkpt lat="45.51649" lon="7.23231">
        <ele>2780.5</ele>
        <time>2021-11-07T17:34:57Z</time>
      </trkpt>
      <trkpt lat="45.51648" lon="7.23231">
        <ele>2780.4</ele>
        <time>2021-11-07T17:35:00Z</time>
      </trkpt>
      <trkpt lat="45.51649" lon="7.23228">
        <ele>2779.7</ele>
        <time>2021-11-07T17:35:11Z</time>
      </trkpt>
      <trkpt lat="45.51649" lon="7.23223">
        <ele>2778.7</ele>
        <time>2021-11-07T17:35:20Z</time>
      </trkpt>
      <trkpt lat="45.51649" lon="7.23222">
        <ele>2778.5</ele>
        <time>2021-11-07T17:35:22Z</time>
      </trkpt>
      <trkpt lat="45.51648" lon="7.23222">
        <ele>2778.2</ele>
        <time>2021-11-07T17:35:25Z</time>
      </trkpt>
      <trkpt lat="45.51646" lon="7.23222">
        <ele>2777.7</ele>
        <time>2021-11-07T17:35:32Z</time>
      </trkpt>
      <trkpt lat="45.51646" lon="7.23222">
        <ele>2777.6</ele>
        <time>2021-11-07T17:35:34Z</time>
      </trkpt>
      <trkpt lat="45.51644" lon="7.23221">
        <ele>2777</ele>
        <time>2021-11-07T17:35:40Z</time>
      </trkpt>
      <trkpt lat="45.51642" lon="7.2322">
        <ele>2776.5</ele>
        <time>2021-11-07T17:35:44Z</time>
      </trkpt>
      <trkpt lat="45.51641" lon="7.23219">
        <ele>2776.2</ele>
        <time>2021-11-07T17:35:47Z</time>
      </trkpt>
      <trkpt lat="45.51641" lon="7.2322">
        <ele>2776.1</ele>
        <time>2021-11-07T17:35:52Z</time>
      </trkpt>
      <trkpt lat="45.5164" lon="7.23219">
        <ele>2775.9</ele>
        <time>2021-11-07T17:35:55Z</time>
      </trkpt>
      <trkpt lat="45.5164" lon="7.23219">
        <ele>2775.8</ele>
        <time>2021-11-07T17:35:56Z</time>
      </trkpt>
      <trkpt lat="45.51638" lon="7.2322">
        <ele>2775.1</ele>
        <time>2021-11-07T17:36:01Z</time>
      </trkpt>
      <trkpt lat="45.51635" lon="7.2322">
        <ele>2774.4</ele>
        <time>2021-11-07T17:36:06Z</time>
      </trkpt>
      <trkpt lat="45.51634" lon="7.23221">
        <ele>2774.2</ele>
        <time>2021-11-07T17:36:07Z</time>
      </trkpt>
      <trkpt lat="45.51633" lon="7.23221">
        <ele>2774</ele>
        <time>2021-11-07T17:36:08Z</time>
      </trkpt>
      <trkpt lat="45.51632" lon="7.23221">
        <ele>2773.8</ele>
        <time>2021-11-07T17:36:10Z</time>
      </trkpt>
      <trkpt lat="45.5163" lon="7.23222">
        <ele>2773.2</ele>
        <time>2021-11-07T17:36:14Z</time>
      </trkpt>
      <trkpt lat="45.51629" lon="7.23221">
        <ele>2773</ele>
        <time>2021-11-07T17:36:16Z</time>
      </trkpt>
      <trkpt lat="45.51625" lon="7.23221">
        <ele>2772</ele>
        <time>2021-11-07T17:36:24Z</time>
      </trkpt>
      <trkpt lat="45.51625" lon="7.23221">
        <ele>2771.8</ele>
        <time>2021-11-07T17:36:25Z</time>
      </trkpt>
      <trkpt lat="45.51624" lon="7.23222">
        <ele>2771.5</ele>
        <time>2021-11-07T17:36:27Z</time>
      </trkpt>
      <trkpt lat="45.51623" lon="7.23222">
        <ele>2771.4</ele>
        <time>2021-11-07T17:36:28Z</time>
      </trkpt>
      <trkpt lat="45.51618" lon="7.23221">
        <ele>2770</ele>
        <time>2021-11-07T17:36:35Z</time>
      </trkpt>
      <trkpt lat="45.51617" lon="7.23221">
        <ele>2769.9</ele>
        <time>2021-11-07T17:36:36Z</time>
      </trkpt>
      <trkpt lat="45.51615" lon="7.23221">
        <ele>2769.3</ele>
        <time>2021-11-07T17:36:41Z</time>
      </trkpt>
      <trkpt lat="45.51615" lon="7.23221">
        <ele>2769.2</ele>
        <time>2021-11-07T17:36:43Z</time>
      </trkpt>
      <trkpt lat="45.51614" lon="7.23221">
        <ele>2769</ele>
        <time>2021-11-07T17:36:44Z</time>
      </trkpt>
      <trkpt lat="45.51613" lon="7.23218">
        <ele>2768.5</ele>
        <time>2021-11-07T17:36:48Z</time>
      </trkpt>
      <trkpt lat="45.51613" lon="7.23217">
        <ele>2768.3</ele>
        <time>2021-11-07T17:36:49Z</time>
      </trkpt>
      <trkpt lat="45.51613" lon="7.23215">
        <ele>2767.9</ele>
        <time>2021-11-07T17:36:54Z</time>
      </trkpt>
      <trkpt lat="45.5161" lon="7.23215">
        <ele>2767.2</ele>
        <time>2021-11-07T17:36:58Z</time>
      </trkpt>
      <trkpt lat="45.51609" lon="7.23215">
        <ele>2766.9</ele>
        <time>2021-11-07T17:37:00Z</time>
      </trkpt>
      <trkpt lat="45.51608" lon="7.23213">
        <ele>2766.6</ele>
        <time>2021-11-07T17:37:03Z</time>
      </trkpt>
      <trkpt lat="45.51607" lon="7.23213">
        <ele>2766.4</ele>
        <time>2021-11-07T17:37:05Z</time>
      </trkpt>
      <trkpt lat="45.51607" lon="7.23213">
        <ele>2766.3</ele>
        <time>2021-11-07T17:37:06Z</time>
      </trkpt>
      <trkpt lat="45.51606" lon="7.23212">
        <ele>2765.9</ele>
        <time>2021-11-07T17:37:08Z</time>
      </trkpt>
      <trkpt lat="45.51605" lon="7.23211">
        <ele>2765.6</ele>
        <time>2021-11-07T17:37:10Z</time>
      </trkpt>
      <trkpt lat="45.51604" lon="7.2321">
        <ele>2765.5</ele>
        <time>2021-11-07T17:37:11Z</time>
      </trkpt>
      <trkpt lat="45.51601" lon="7.23207">
        <ele>2764.5</ele>
        <time>2021-11-07T17:37:17Z</time>
      </trkpt>
      <trkpt lat="45.516" lon="7.23206">
        <ele>2764.1</ele>
        <time>2021-11-07T17:37:19Z</time>
      </trkpt>
      <trkpt lat="45.51599" lon="7.23205">
        <ele>2763.9</ele>
        <time>2021-11-07T17:37:20Z</time>
      </trkpt>
      <trkpt lat="45.51599" lon="7.23205">
        <ele>2763.8</ele>
        <time>2021-11-07T17:37:21Z</time>
      </trkpt>
      <trkpt lat="45.51599" lon="7.23204">
        <ele>2763.7</ele>
        <time>2021-11-07T17:37:22Z</time>
      </trkpt>
      <trkpt lat="45.51597" lon="7.23203">
        <ele>2763.3</ele>
        <time>2021-11-07T17:37:26Z</time>
      </trkpt>
      <trkpt lat="45.51597" lon="7.23202">
        <ele>2763.2</ele>
        <time>2021-11-07T17:37:27Z</time>
      </trkpt>
      <trkpt lat="45.51597" lon="7.23202">
        <ele>2763.1</ele>
        <time>2021-11-07T17:37:29Z</time>
      </trkpt>
      <trkpt lat="45.51596" lon="7.23201">
        <ele>2763</ele>
        <time>2021-11-07T17:37:31Z</time>
      </trkpt>
      <trkpt lat="45.51595" lon="7.232">
        <ele>2762.6</ele>
        <time>2021-11-07T17:37:41Z</time>
      </trkpt>
      <trkpt lat="45.51593" lon="7.23197">
        <ele>2762</ele>
        <time>2021-11-07T17:37:47Z</time>
      </trkpt>
      <trkpt lat="45.51591" lon="7.23194">
        <ele>2761.4</ele>
        <time>2021-11-07T17:37:51Z</time>
      </trkpt>
      <trkpt lat="45.51591" lon="7.23193">
        <ele>2761.2</ele>
        <time>2021-11-07T17:37:52Z</time>
      </trkpt>
      <trkpt lat="45.5159" lon="7.23191">
        <ele>2760.8</ele>
        <time>2021-11-07T17:37:54Z</time>
      </trkpt>
      <trkpt lat="45.51588" lon="7.23186">
        <ele>2759.9</ele>
        <time>2021-11-07T17:38:01Z</time>
      </trkpt>
      <trkpt lat="45.51588" lon="7.23185">
        <ele>2759.8</ele>
        <time>2021-11-07T17:38:02Z</time>
      </trkpt>
      <trkpt lat="45.51587" lon="7.23184">
        <ele>2759.7</ele>
        <time>2021-11-07T17:38:04Z</time>
      </trkpt>
      <trkpt lat="45.51587" lon="7.23184">
        <ele>2759.6</ele>
        <time>2021-11-07T17:38:05Z</time>
      </trkpt>
      <trkpt lat="45.51587" lon="7.23184">
        <ele>2759.5</ele>
        <time>2021-11-07T17:38:06Z</time>
      </trkpt>
      <trkpt lat="45.51585" lon="7.23183">
        <ele>2759.2</ele>
        <time>2021-11-07T17:38:08Z</time>
      </trkpt>
      <trkpt lat="45.51584" lon="7.2318">
        <ele>2758.7</ele>
        <time>2021-11-07T17:38:12Z</time>
      </trkpt>
      <trkpt lat="45.51583" lon="7.2318">
        <ele>2758.6</ele>
        <time>2021-11-07T17:38:13Z</time>
      </trkpt>
      <trkpt lat="45.51581" lon="7.23178">
        <ele>2758.3</ele>
        <time>2021-11-07T17:38:16Z</time>
      </trkpt>
      <trkpt lat="45.5158" lon="7.23175">
        <ele>2757.8</ele>
        <time>2021-11-07T17:38:20Z</time>
      </trkpt>
      <trkpt lat="45.5158" lon="7.23175">
        <ele>2757.7</ele>
        <time>2021-11-07T17:38:21Z</time>
      </trkpt>
      <trkpt lat="45.51579" lon="7.23173">
        <ele>2757.5</ele>
        <time>2021-11-07T17:38:23Z</time>
      </trkpt>
      <trkpt lat="45.51577" lon="7.23171">
        <ele>2757.1</ele>
        <time>2021-11-07T17:38:26Z</time>
      </trkpt>
      <trkpt lat="45.51577" lon="7.23171">
        <ele>2757</ele>
        <time>2021-11-07T17:38:27Z</time>
      </trkpt>
      <trkpt lat="45.51576" lon="7.23171">
        <ele>2756.9</ele>
        <time>2021-11-07T17:38:28Z</time>
      </trkpt>
      <trkpt lat="45.51573" lon="7.23167">
        <ele>2756.3</ele>
        <time>2021-11-07T17:38:33Z</time>
      </trkpt>
      <trkpt lat="45.51572" lon="7.23166">
        <ele>2756.2</ele>
        <time>2021-11-07T17:38:34Z</time>
      </trkpt>
      <trkpt lat="45.51569" lon="7.23165">
        <ele>2755.7</ele>
        <time>2021-11-07T17:38:38Z</time>
      </trkpt>
      <trkpt lat="45.51565" lon="7.23164">
        <ele>2755.1</ele>
        <time>2021-11-07T17:38:43Z</time>
      </trkpt>
      <trkpt lat="45.51563" lon="7.23163">
        <ele>2754.9</ele>
        <time>2021-11-07T17:38:45Z</time>
      </trkpt>
      <trkpt lat="45.51562" lon="7.23162">
        <ele>2754.7</ele>
        <time>2021-11-07T17:38:46Z</time>
      </trkpt>
      <trkpt lat="45.51561" lon="7.23162">
        <ele>2754.6</ele>
        <time>2021-11-07T17:38:47Z</time>
      </trkpt>
      <trkpt lat="45.5156" lon="7.23161">
        <ele>2754.5</ele>
        <time>2021-11-07T17:38:48Z</time>
      </trkpt>
      <trkpt lat="45.51558" lon="7.2316">
        <ele>2754.2</ele>
        <time>2021-11-07T17:38:50Z</time>
      </trkpt>
      <trkpt lat="45.51554" lon="7.23159">
        <ele>2753.6</ele>
        <time>2021-11-07T17:38:55Z</time>
      </trkpt>
      <trkpt lat="45.5155" lon="7.23157">
        <ele>2753</ele>
        <time>2021-11-07T17:39:00Z</time>
      </trkpt>
      <trkpt lat="45.51548" lon="7.23157">
        <ele>2752.8</ele>
        <time>2021-11-07T17:39:03Z</time>
      </trkpt>
      <trkpt lat="45.51548" lon="7.23158">
        <ele>2752.8</ele>
        <time>2021-11-07T17:39:05Z</time>
      </trkpt>
      <trkpt lat="45.51543" lon="7.23157">
        <ele>2752.2</ele>
        <time>2021-11-07T17:39:13Z</time>
      </trkpt>
      <trkpt lat="45.51541" lon="7.23157">
        <ele>2751.8</ele>
        <time>2021-11-07T17:39:16Z</time>
      </trkpt>
      <trkpt lat="45.51534" lon="7.23154">
        <ele>2750.9</ele>
        <time>2021-11-07T17:39:23Z</time>
      </trkpt>
      <trkpt lat="45.51533" lon="7.23153">
        <ele>2750.7</ele>
        <time>2021-11-07T17:39:24Z</time>
      </trkpt>
      <trkpt lat="45.51526" lon="7.2315">
        <ele>2749.6</ele>
        <time>2021-11-07T17:39:31Z</time>
      </trkpt>
      <trkpt lat="45.51525" lon="7.2315">
        <ele>2749.5</ele>
        <time>2021-11-07T17:39:32Z</time>
      </trkpt>
      <trkpt lat="45.51524" lon="7.23149">
        <ele>2749.3</ele>
        <time>2021-11-07T17:39:33Z</time>
      </trkpt>
      <trkpt lat="45.51524" lon="7.23148">
        <ele>2749.3</ele>
        <time>2021-11-07T17:39:34Z</time>
      </trkpt>
      <trkpt lat="45.51521" lon="7.23146">
        <ele>2749</ele>
        <time>2021-11-07T17:39:37Z</time>
      </trkpt>
      <trkpt lat="45.51521" lon="7.23145">
        <ele>2748.9</ele>
        <time>2021-11-07T17:39:38Z</time>
      </trkpt>
      <trkpt lat="45.5152" lon="7.23143">
        <ele>2748.7</ele>
        <time>2021-11-07T17:39:40Z</time>
      </trkpt>
      <trkpt lat="45.5152" lon="7.23142">
        <ele>2748.6</ele>
        <time>2021-11-07T17:39:41Z</time>
      </trkpt>
      <trkpt lat="45.5152" lon="7.2314">
        <ele>2748.5</ele>
        <time>2021-11-07T17:39:48Z</time>
      </trkpt>
      <trkpt lat="45.51516" lon="7.23137">
        <ele>2748</ele>
        <time>2021-11-07T17:39:58Z</time>
      </trkpt>
      <trkpt lat="45.51507" lon="7.23127">
        <ele>2746.5</ele>
        <time>2021-11-07T17:40:09Z</time>
      </trkpt>
      <trkpt lat="45.51503" lon="7.23119">
        <ele>2745.4</ele>
        <time>2021-11-07T17:40:17Z</time>
      </trkpt>
      <trkpt lat="45.51503" lon="7.23118">
        <ele>2745.3</ele>
        <time>2021-11-07T17:40:18Z</time>
      </trkpt>
      <trkpt lat="45.51502" lon="7.23118">
        <ele>2745.1</ele>
        <time>2021-11-07T17:40:24Z</time>
      </trkpt>
      <trkpt lat="45.51496" lon="7.23117">
        <ele>2743.9</ele>
        <time>2021-11-07T17:40:33Z</time>
      </trkpt>
      <trkpt lat="45.51494" lon="7.23117">
        <ele>2743.6</ele>
        <time>2021-11-07T17:40:35Z</time>
      </trkpt>
      <trkpt lat="45.51492" lon="7.23118">
        <ele>2743.2</ele>
        <time>2021-11-07T17:40:38Z</time>
      </trkpt>
      <trkpt lat="45.51489" lon="7.23117">
        <ele>2742.6</ele>
        <time>2021-11-07T17:40:42Z</time>
      </trkpt>
      <trkpt lat="45.51488" lon="7.23117">
        <ele>2742.4</ele>
        <time>2021-11-07T17:40:43Z</time>
      </trkpt>
      <trkpt lat="45.51487" lon="7.23115">
        <ele>2742</ele>
        <time>2021-11-07T17:40:46Z</time>
      </trkpt>
      <trkpt lat="45.51484" lon="7.23113">
        <ele>2741.4</ele>
        <time>2021-11-07T17:40:49Z</time>
      </trkpt>
      <trkpt lat="45.51482" lon="7.23113">
        <ele>2740.9</ele>
        <time>2021-11-07T17:40:52Z</time>
      </trkpt>
      <trkpt lat="45.51479" lon="7.23114">
        <ele>2740.3</ele>
        <time>2021-11-07T17:40:55Z</time>
      </trkpt>
      <trkpt lat="45.51478" lon="7.23114">
        <ele>2740</ele>
        <time>2021-11-07T17:40:57Z</time>
      </trkpt>
      <trkpt lat="45.51477" lon="7.23114">
        <ele>2739.8</ele>
        <time>2021-11-07T17:40:58Z</time>
      </trkpt>
      <trkpt lat="45.51475" lon="7.23116">
        <ele>2739.2</ele>
        <time>2021-11-07T17:41:01Z</time>
      </trkpt>
      <trkpt lat="45.51472" lon="7.23117">
        <ele>2738.6</ele>
        <time>2021-11-07T17:41:05Z</time>
      </trkpt>
      <trkpt lat="45.51472" lon="7.23117">
        <ele>2738.6</ele>
        <time>2021-11-07T17:41:06Z</time>
      </trkpt>
      <trkpt lat="45.5147" lon="7.23116">
        <ele>2738</ele>
        <time>2021-11-07T17:41:10Z</time>
      </trkpt>
      <trkpt lat="45.51469" lon="7.23115">
        <ele>2737.7</ele>
        <time>2021-11-07T17:41:12Z</time>
      </trkpt>
      <trkpt lat="45.51467" lon="7.23114">
        <ele>2737.2</ele>
        <time>2021-11-07T17:41:14Z</time>
      </trkpt>
      <trkpt lat="45.51465" lon="7.23112">
        <ele>2736.8</ele>
        <time>2021-11-07T17:41:16Z</time>
      </trkpt>
      <trkpt lat="45.51464" lon="7.23111">
        <ele>2736.3</ele>
        <time>2021-11-07T17:41:18Z</time>
      </trkpt>
      <trkpt lat="45.51461" lon="7.23109">
        <ele>2735.7</ele>
        <time>2021-11-07T17:41:21Z</time>
      </trkpt>
      <trkpt lat="45.5146" lon="7.23109">
        <ele>2735.4</ele>
        <time>2021-11-07T17:41:23Z</time>
      </trkpt>
      <trkpt lat="45.51459" lon="7.23109">
        <ele>2735.2</ele>
        <time>2021-11-07T17:41:24Z</time>
      </trkpt>
      <trkpt lat="45.51459" lon="7.23109">
        <ele>2735.2</ele>
        <time>2021-11-07T17:41:26Z</time>
      </trkpt>
      <trkpt lat="45.51459" lon="7.23109">
        <ele>2735.2</ele>
        <time>2021-11-07T17:41:27Z</time>
      </trkpt>
      <trkpt lat="45.51459" lon="7.23109">
        <ele>2735.1</ele>
        <time>2021-11-07T17:41:30Z</time>
      </trkpt>
      <trkpt lat="45.51459" lon="7.23109">
        <ele>2735.1</ele>
        <time>2021-11-07T17:41:34Z</time>
      </trkpt>
      <trkpt lat="45.51458" lon="7.2311">
        <ele>2735</ele>
        <time>2021-11-07T17:41:35Z</time>
      </trkpt>
      <trkpt lat="45.51456" lon="7.2311">
        <ele>2734.4</ele>
        <time>2021-11-07T17:41:38Z</time>
      </trkpt>
      <trkpt lat="45.51452" lon="7.23112">
        <ele>2733.4</ele>
        <time>2021-11-07T17:41:44Z</time>
      </trkpt>
      <trkpt lat="45.51451" lon="7.23112">
        <ele>2733.2</ele>
        <time>2021-11-07T17:41:46Z</time>
      </trkpt>
      <trkpt lat="45.51451" lon="7.23111">
        <ele>2733.1</ele>
        <time>2021-11-07T17:41:47Z</time>
      </trkpt>
      <trkpt lat="45.5145" lon="7.2311">
        <ele>2732.8</ele>
        <time>2021-11-07T17:41:50Z</time>
      </trkpt>
      <trkpt lat="45.51448" lon="7.2311">
        <ele>2732.5</ele>
        <time>2021-11-07T17:41:52Z</time>
      </trkpt>
      <trkpt lat="45.51445" lon="7.23111">
        <ele>2731.7</ele>
        <time>2021-11-07T17:41:57Z</time>
      </trkpt>
      <trkpt lat="45.51442" lon="7.23111">
        <ele>2731</ele>
        <time>2021-11-07T17:42:02Z</time>
      </trkpt>
      <trkpt lat="45.51441" lon="7.2311">
        <ele>2730.7</ele>
        <time>2021-11-07T17:42:03Z</time>
      </trkpt>
      <trkpt lat="45.51438" lon="7.23109">
        <ele>2729.8</ele>
        <time>2021-11-07T17:42:07Z</time>
      </trkpt>
      <trkpt lat="45.51435" lon="7.23105">
        <ele>2728.6</ele>
        <time>2021-11-07T17:42:14Z</time>
      </trkpt>
      <trkpt lat="45.51435" lon="7.23104">
        <ele>2728.5</ele>
        <time>2021-11-07T17:42:15Z</time>
      </trkpt>
      <trkpt lat="45.51434" lon="7.23104">
        <ele>2728.3</ele>
        <time>2021-11-07T17:42:16Z</time>
      </trkpt>
      <trkpt lat="45.51433" lon="7.231">
        <ele>2727.6</ele>
        <time>2021-11-07T17:42:19Z</time>
      </trkpt>
      <trkpt lat="45.51432" lon="7.23098">
        <ele>2727.1</ele>
        <time>2021-11-07T17:42:21Z</time>
      </trkpt>
      <trkpt lat="45.51432" lon="7.23096">
        <ele>2726.5</ele>
        <time>2021-11-07T17:42:23Z</time>
      </trkpt>
      <trkpt lat="45.51432" lon="7.23094">
        <ele>2726.3</ele>
        <time>2021-11-07T17:42:24Z</time>
      </trkpt>
      <trkpt lat="45.51432" lon="7.2309">
        <ele>2725.4</ele>
        <time>2021-11-07T17:42:28Z</time>
      </trkpt>
      <trkpt lat="45.51432" lon="7.23089">
        <ele>2725.3</ele>
        <time>2021-11-07T17:42:29Z</time>
      </trkpt>
      <trkpt lat="45.51431" lon="7.23087">
        <ele>2724.7</ele>
        <time>2021-11-07T17:42:32Z</time>
      </trkpt>
      <trkpt lat="45.51431" lon="7.23085">
        <ele>2724.2</ele>
        <time>2021-11-07T17:42:34Z</time>
      </trkpt>
      <trkpt lat="45.5143" lon="7.2308">
        <ele>2723.3</ele>
        <time>2021-11-07T17:42:38Z</time>
      </trkpt>
      <trkpt lat="45.51428" lon="7.23079">
        <ele>2722.7</ele>
        <time>2021-11-07T17:42:41Z</time>
      </trkpt>
      <trkpt lat="45.51425" lon="7.23077">
        <ele>2721.8</ele>
        <time>2021-11-07T17:42:46Z</time>
      </trkpt>
      <trkpt lat="45.51423" lon="7.23073">
        <ele>2720.9</ele>
        <time>2021-11-07T17:42:51Z</time>
      </trkpt>
      <trkpt lat="45.51422" lon="7.23073">
        <ele>2720.8</ele>
        <time>2021-11-07T17:42:52Z</time>
      </trkpt>
      <trkpt lat="45.51419" lon="7.23072">
        <ele>2719.9</ele>
        <time>2021-11-07T17:42:59Z</time>
      </trkpt>
      <trkpt lat="45.51415" lon="7.23069">
        <ele>2718.9</ele>
        <time>2021-11-07T17:43:07Z</time>
      </trkpt>
      <trkpt lat="45.51415" lon="7.23068">
        <ele>2718.8</ele>
        <time>2021-11-07T17:43:08Z</time>
      </trkpt>
      <trkpt lat="45.51413" lon="7.23065">
        <ele>2718.2</ele>
        <time>2021-11-07T17:43:13Z</time>
      </trkpt>
      <trkpt lat="45.51413" lon="7.23063">
        <ele>2717.8</ele>
        <time>2021-11-07T17:43:16Z</time>
      </trkpt>
      <trkpt lat="45.51413" lon="7.23062">
        <ele>2717.7</ele>
        <time>2021-11-07T17:43:17Z</time>
      </trkpt>
      <trkpt lat="45.51412" lon="7.23061">
        <ele>2717.5</ele>
        <time>2021-11-07T17:43:21Z</time>
      </trkpt>
      <trkpt lat="45.5141" lon="7.23061">
        <ele>2717.1</ele>
        <time>2021-11-07T17:43:24Z</time>
      </trkpt>
      <trkpt lat="45.51408" lon="7.23062">
        <ele>2716.6</ele>
        <time>2021-11-07T17:43:34Z</time>
      </trkpt>
      <trkpt lat="45.51407" lon="7.23062">
        <ele>2716.5</ele>
        <time>2021-11-07T17:43:38Z</time>
      </trkpt>
      <trkpt lat="45.51407" lon="7.23062">
        <ele>2716.5</ele>
        <time>2021-11-07T17:43:39Z</time>
      </trkpt>
      <trkpt lat="45.51407" lon="7.23062">
        <ele>2716.4</ele>
        <time>2021-11-07T17:43:48Z</time>
      </trkpt>
      <trkpt lat="45.51407" lon="7.23063">
        <ele>2716.3</ele>
        <time>2021-11-07T17:43:51Z</time>
      </trkpt>
      <trkpt lat="45.51405" lon="7.23064">
        <ele>2716</ele>
        <time>2021-11-07T17:43:55Z</time>
      </trkpt>
      <trkpt lat="45.51404" lon="7.23064">
        <ele>2715.9</ele>
        <time>2021-11-07T17:43:56Z</time>
      </trkpt>
      <trkpt lat="45.51403" lon="7.23064">
        <ele>2715.7</ele>
        <time>2021-11-07T17:44:00Z</time>
      </trkpt>
      <trkpt lat="45.51402" lon="7.23064">
        <ele>2715.5</ele>
        <time>2021-11-07T17:44:05Z</time>
      </trkpt>
      <trkpt lat="45.51402" lon="7.23064">
        <ele>2715.5</ele>
        <time>2021-11-07T17:44:06Z</time>
      </trkpt>
      <trkpt lat="45.51403" lon="7.23064">
        <ele>2715.4</ele>
        <time>2021-11-07T17:44:09Z</time>
      </trkpt>
      <trkpt lat="45.51403" lon="7.23064">
        <ele>2715.4</ele>
        <time>2021-11-07T17:44:15Z</time>
      </trkpt>
      <trkpt lat="45.51402" lon="7.23066">
        <ele>2715.2</ele>
        <time>2021-11-07T17:44:22Z</time>
      </trkpt>
      <trkpt lat="45.51401" lon="7.23066">
        <ele>2715.1</ele>
        <time>2021-11-07T17:44:27Z</time>
      </trkpt>
      <trkpt lat="45.51403" lon="7.23064">
        <ele>2714.9</ele>
        <time>2021-11-07T17:44:30Z</time>
      </trkpt>
      <trkpt lat="45.51402" lon="7.23062">
        <ele>2714.5</ele>
        <time>2021-11-07T17:44:35Z</time>
      </trkpt>
      <trkpt lat="45.514" lon="7.23061">
        <ele>2714.3</ele>
        <time>2021-11-07T17:44:38Z</time>
      </trkpt>
      <trkpt lat="45.51398" lon="7.23062">
        <ele>2714.1</ele>
        <time>2021-11-07T17:44:44Z</time>
      </trkpt>
      <trkpt lat="45.51396" lon="7.23062">
        <ele>2713.9</ele>
        <time>2021-11-07T17:44:47Z</time>
      </trkpt>
      <trkpt lat="45.5139" lon="7.2306">
        <ele>2713.2</ele>
        <time>2021-11-07T17:44:57Z</time>
      </trkpt>
      <trkpt lat="45.51385" lon="7.23057">
        <ele>2712.6</ele>
        <time>2021-11-07T17:45:06Z</time>
      </trkpt>
      <trkpt lat="45.51381" lon="7.23054">
        <ele>2712.2</ele>
        <time>2021-11-07T17:45:14Z</time>
      </trkpt>
      <trkpt lat="45.51379" lon="7.23052">
        <ele>2711.9</ele>
        <time>2021-11-07T17:45:18Z</time>
      </trkpt>
      <trkpt lat="45.51375" lon="7.2305">
        <ele>2711.5</ele>
        <time>2021-11-07T17:45:23Z</time>
      </trkpt>
      <trkpt lat="45.5137" lon="7.23047">
        <ele>2711</ele>
        <time>2021-11-07T17:45:31Z</time>
      </trkpt>
      <trkpt lat="45.51369" lon="7.23045">
        <ele>2711</ele>
        <time>2021-11-07T17:45:33Z</time>
      </trkpt>
      <trkpt lat="45.51369" lon="7.23044">
        <ele>2710.9</ele>
        <time>2021-11-07T17:45:34Z</time>
      </trkpt>
      <trkpt lat="45.51369" lon="7.23043">
        <ele>2710.9</ele>
        <time>2021-11-07T17:45:35Z</time>
      </trkpt>
      <trkpt lat="45.51369" lon="7.23043">
        <ele>2710.9</ele>
        <time>2021-11-07T17:45:36Z</time>
      </trkpt>
      <trkpt lat="45.51366" lon="7.23042">
        <ele>2710.8</ele>
        <time>2021-11-07T17:45:41Z</time>
      </trkpt>
      <trkpt lat="45.51365" lon="7.23042">
        <ele>2710.7</ele>
        <time>2021-11-07T17:45:42Z</time>
      </trkpt>
      <trkpt lat="45.51362" lon="7.23041">
        <ele>2710.6</ele>
        <time>2021-11-07T17:45:47Z</time>
      </trkpt>
      <trkpt lat="45.51361" lon="7.23041">
        <ele>2710.6</ele>
        <time>2021-11-07T17:45:49Z</time>
      </trkpt>
      <trkpt lat="45.5136" lon="7.23041">
        <ele>2710.6</ele>
        <time>2021-11-07T17:45:50Z</time>
      </trkpt>
      <trkpt lat="45.51358" lon="7.23041">
        <ele>2710.5</ele>
        <time>2021-11-07T17:45:53Z</time>
      </trkpt>
      <trkpt lat="45.51355" lon="7.23041">
        <ele>2710.5</ele>
        <time>2021-11-07T17:45:57Z</time>
      </trkpt>
      <trkpt lat="45.51354" lon="7.23041">
        <ele>2710.5</ele>
        <time>2021-11-07T17:46:00Z</time>
      </trkpt>
      <trkpt lat="45.51354" lon="7.23041">
        <ele>2710.5</ele>
        <time>2021-11-07T17:46:02Z</time>
      </trkpt>
      <trkpt lat="45.51354" lon="7.23041">
        <ele>2710.5</ele>
        <time>2021-11-07T17:46:08Z</time>
      </trkpt>
      <trkpt lat="45.51352" lon="7.23041">
        <ele>2710.4</ele>
        <time>2021-11-07T17:46:11Z</time>
      </trkpt>
      <trkpt lat="45.51352" lon="7.23042">
        <ele>2710.4</ele>
        <time>2021-11-07T17:46:12Z</time>
      </trkpt>
      <trkpt lat="45.51351" lon="7.23042">
        <ele>2710.4</ele>
        <time>2021-11-07T17:46:13Z</time>
      </trkpt>
      <trkpt lat="45.51346" lon="7.23044">
        <ele>2710.3</ele>
        <time>2021-11-07T17:46:20Z</time>
      </trkpt>
      <trkpt lat="45.51345" lon="7.23044">
        <ele>2710.3</ele>
        <time>2021-11-07T17:46:21Z</time>
      </trkpt>
      <trkpt lat="45.5134" lon="7.23042">
        <ele>2710.2</ele>
        <time>2021-11-07T17:46:29Z</time>
      </trkpt>
      <trkpt lat="45.51338" lon="7.23041">
        <ele>2710.1</ele>
        <time>2021-11-07T17:46:31Z</time>
      </trkpt>
      <trkpt lat="45.51337" lon="7.2304">
        <ele>2710.1</ele>
        <time>2021-11-07T17:46:32Z</time>
      </trkpt>
      <trkpt lat="45.51335" lon="7.23038">
        <ele>2710.1</ele>
        <time>2021-11-07T17:46:35Z</time>
      </trkpt>
      <trkpt lat="45.51335" lon="7.23038">
        <ele>2710</ele>
        <time>2021-11-07T17:46:36Z</time>
      </trkpt>
      <trkpt lat="45.51333" lon="7.23037">
        <ele>2710</ele>
        <time>2021-11-07T17:46:40Z</time>
      </trkpt>
      <trkpt lat="45.51332" lon="7.23037">
        <ele>2709.9</ele>
        <time>2021-11-07T17:46:41Z</time>
      </trkpt>
      <trkpt lat="45.5133" lon="7.23036">
        <ele>2709.9</ele>
        <time>2021-11-07T17:46:43Z</time>
      </trkpt>
      <trkpt lat="45.5133" lon="7.23035">
        <ele>2709.8</ele>
        <time>2021-11-07T17:46:44Z</time>
      </trkpt>
      <trkpt lat="45.51329" lon="7.23034">
        <ele>2709.8</ele>
        <time>2021-11-07T17:46:45Z</time>
      </trkpt>
      <trkpt lat="45.51329" lon="7.23033">
        <ele>2709.8</ele>
        <time>2021-11-07T17:46:46Z</time>
      </trkpt>
      <trkpt lat="45.51328" lon="7.23033">
        <ele>2709.8</ele>
        <time>2021-11-07T17:46:47Z</time>
      </trkpt>
      <trkpt lat="45.51326" lon="7.23031">
        <ele>2709.6</ele>
        <time>2021-11-07T17:46:50Z</time>
      </trkpt>
      <trkpt lat="45.51326" lon="7.23031">
        <ele>2709.6</ele>
        <time>2021-11-07T17:46:51Z</time>
      </trkpt>
      <trkpt lat="45.5132" lon="7.2303">
        <ele>2709.4</ele>
        <time>2021-11-07T17:46:57Z</time>
      </trkpt>
      <trkpt lat="45.51316" lon="7.23027">
        <ele>2709.1</ele>
        <time>2021-11-07T17:47:04Z</time>
      </trkpt>
      <trkpt lat="45.51315" lon="7.23026">
        <ele>2709.1</ele>
        <time>2021-11-07T17:47:05Z</time>
      </trkpt>
      <trkpt lat="45.51312" lon="7.23022">
        <ele>2709</ele>
        <time>2021-11-07T17:47:09Z</time>
      </trkpt>
      <trkpt lat="45.5131" lon="7.23016">
        <ele>2709</ele>
        <time>2021-11-07T17:47:14Z</time>
      </trkpt>
      <trkpt lat="45.51309" lon="7.23014">
        <ele>2709.1</ele>
        <time>2021-11-07T17:47:17Z</time>
      </trkpt>
      <trkpt lat="45.51307" lon="7.23014">
        <ele>2709.1</ele>
        <time>2021-11-07T17:47:20Z</time>
      </trkpt>
      <trkpt lat="45.51306" lon="7.23013">
        <ele>2709.2</ele>
        <time>2021-11-07T17:47:22Z</time>
      </trkpt>
      <trkpt lat="45.51304" lon="7.23013">
        <ele>2709.3</ele>
        <time>2021-11-07T17:47:24Z</time>
      </trkpt>
      <trkpt lat="45.51298" lon="7.23012">
        <ele>2709.7</ele>
        <time>2021-11-07T17:47:32Z</time>
      </trkpt>
      <trkpt lat="45.51296" lon="7.23012">
        <ele>2709.8</ele>
        <time>2021-11-07T17:47:34Z</time>
      </trkpt>
      <trkpt lat="45.51292" lon="7.23008">
        <ele>2710.2</ele>
        <time>2021-11-07T17:47:43Z</time>
      </trkpt>
      <trkpt lat="45.51291" lon="7.23007">
        <ele>2710.3</ele>
        <time>2021-11-07T17:47:45Z</time>
      </trkpt>
      <trkpt lat="45.51291" lon="7.23007">
        <ele>2710.3</ele>
        <time>2021-11-07T17:47:50Z</time>
      </trkpt>
      <trkpt lat="45.51291" lon="7.23006">
        <ele>2710.4</ele>
        <time>2021-11-07T17:47:52Z</time>
      </trkpt>
      <trkpt lat="45.51289" lon="7.23002">
        <ele>2710.6</ele>
        <time>2021-11-07T17:47:58Z</time>
      </trkpt>
      <trkpt lat="45.51289" lon="7.23001">
        <ele>2710.7</ele>
        <time>2021-11-07T17:47:59Z</time>
      </trkpt>
      <trkpt lat="45.51288" lon="7.23">
        <ele>2710.7</ele>
        <time>2021-11-07T17:48:00Z</time>
      </trkpt>
      <trkpt lat="45.51288" lon="7.22998">
        <ele>2710.7</ele>
        <time>2021-11-07T17:48:02Z</time>
      </trkpt>
      <trkpt lat="45.51286" lon="7.22997">
        <ele>2710.8</ele>
        <time>2021-11-07T17:48:05Z</time>
      </trkpt>
      <trkpt lat="45.51284" lon="7.22996">
        <ele>2710.8</ele>
        <time>2021-11-07T17:48:07Z</time>
      </trkpt>
      <trkpt lat="45.51283" lon="7.22996">
        <ele>2710.8</ele>
        <time>2021-11-07T17:48:09Z</time>
      </trkpt>
      <trkpt lat="45.5128" lon="7.22997">
        <ele>2710.9</ele>
        <time>2021-11-07T17:48:13Z</time>
      </trkpt>
      <trkpt lat="45.51279" lon="7.22998">
        <ele>2710.9</ele>
        <time>2021-11-07T17:48:15Z</time>
      </trkpt>
      <trkpt lat="45.51278" lon="7.22998">
        <ele>2710.9</ele>
        <time>2021-11-07T17:48:16Z</time>
      </trkpt>
      <trkpt lat="45.51276" lon="7.23">
        <ele>2711</ele>
        <time>2021-11-07T17:48:22Z</time>
      </trkpt>
      <trkpt lat="45.51275" lon="7.22999">
        <ele>2711</ele>
        <time>2021-11-07T17:48:24Z</time>
      </trkpt>
      <trkpt lat="45.51274" lon="7.22999">
        <ele>2711.1</ele>
        <time>2021-11-07T17:48:26Z</time>
      </trkpt>
      <trkpt lat="45.51271" lon="7.23002">
        <ele>2711.1</ele>
        <time>2021-11-07T17:48:31Z</time>
      </trkpt>
      <trkpt lat="45.5127" lon="7.23003">
        <ele>2711.1</ele>
        <time>2021-11-07T17:48:33Z</time>
      </trkpt>
      <trkpt lat="45.5127" lon="7.23004">
        <ele>2711.2</ele>
        <time>2021-11-07T17:48:35Z</time>
      </trkpt>
      <trkpt lat="45.51268" lon="7.23008">
        <ele>2711.2</ele>
        <time>2021-11-07T17:48:39Z</time>
      </trkpt>
      <trkpt lat="45.51266" lon="7.2301">
        <ele>2711.3</ele>
        <time>2021-11-07T17:48:42Z</time>
      </trkpt>
      <trkpt lat="45.51264" lon="7.2301">
        <ele>2711.4</ele>
        <time>2021-11-07T17:48:44Z</time>
      </trkpt>
      <trkpt lat="45.51263" lon="7.2301">
        <ele>2711.3</ele>
        <time>2021-11-07T17:48:45Z</time>
      </trkpt>
      <trkpt lat="45.5126" lon="7.23005">
        <ele>2710.9</ele>
        <time>2021-11-07T17:48:51Z</time>
      </trkpt>
      <trkpt lat="45.5126" lon="7.23004">
        <ele>2710.8</ele>
        <time>2021-11-07T17:48:52Z</time>
      </trkpt>
      <trkpt lat="45.51261" lon="7.23">
        <ele>2710.6</ele>
        <time>2021-11-07T17:48:56Z</time>
      </trkpt>
      <trkpt lat="45.51261" lon="7.22999">
        <ele>2710.5</ele>
        <time>2021-11-07T17:48:59Z</time>
      </trkpt>
      <trkpt lat="45.51261" lon="7.22999">
        <ele>2710.5</ele>
        <time>2021-11-07T17:49:02Z</time>
      </trkpt>
      <trkpt lat="45.51261" lon="7.22999">
        <ele>2710.5</ele>
        <time>2021-11-07T17:49:07Z</time>
      </trkpt>
      <trkpt lat="45.51261" lon="7.22974">
        <ele>2708.9</ele>
        <time>2021-11-07T17:54:50Z</time>
      </trkpt>
      <trkpt lat="45.51261" lon="7.22974">
        <ele>2708.9</ele>
        <time>2021-11-07T17:54:51Z</time>
      </trkpt>
      <trkpt lat="45.51261" lon="7.22974">
        <ele>2708.9</ele>
        <time>2021-11-07T17:54:52Z</time>
      </trkpt>
      <trkpt lat="45.5126" lon="7.22972">
        <ele>2708.7</ele>
        <time>2021-11-07T17:54:59Z</time>
      </trkpt>
      <trkpt lat="45.5126" lon="7.22973">
        <ele>2708.7</ele>
        <time>2021-11-07T17:55:10Z</time>
      </trkpt>
      <trkpt lat="45.51259" lon="7.22973">
        <ele>2708.6</ele>
        <time>2021-11-07T17:55:13Z</time>
      </trkpt>
      <trkpt lat="45.51254" lon="7.2298">
        <ele>2708</ele>
        <time>2021-11-07T17:55:23Z</time>
      </trkpt>
      <trkpt lat="45.51252" lon="7.22982">
        <ele>2706.5</ele>
        <time>2021-11-07T17:55:26Z</time>
      </trkpt>
      <trkpt lat="45.51248" lon="7.22985">
        <ele>2706.2</ele>
        <time>2021-11-07T17:55:30Z</time>
      </trkpt>
      <trkpt lat="45.51247" lon="7.22981">
        <ele>2706</ele>
        <time>2021-11-07T17:55:33Z</time>
      </trkpt>
      <trkpt lat="45.51248" lon="7.22979">
        <ele>2705.9</ele>
        <time>2021-11-07T17:55:35Z</time>
      </trkpt>
      <trkpt lat="45.51248" lon="7.22976">
        <ele>2705.7</ele>
        <time>2021-11-07T17:55:37Z</time>
      </trkpt>
      <trkpt lat="45.51248" lon="7.22975">
        <ele>2705.7</ele>
        <time>2021-11-07T17:55:38Z</time>
      </trkpt>
      <trkpt lat="45.51248" lon="7.22971">
        <ele>2705.4</ele>
        <time>2021-11-07T17:55:42Z</time>
      </trkpt>
      <trkpt lat="45.51247" lon="7.22967">
        <ele>2705.2</ele>
        <time>2021-11-07T17:55:46Z</time>
      </trkpt>
      <trkpt lat="45.51246" lon="7.22966">
        <ele>2705.1</ele>
        <time>2021-11-07T17:55:49Z</time>
      </trkpt>
      <trkpt lat="45.51244" lon="7.22964">
        <ele>2704.9</ele>
        <time>2021-11-07T17:55:52Z</time>
      </trkpt>
      <trkpt lat="45.51244" lon="7.22963">
        <ele>2704.9</ele>
        <time>2021-11-07T17:55:53Z</time>
      </trkpt>
      <trkpt lat="45.51244" lon="7.22957">
        <ele>2704.3</ele>
        <time>2021-11-07T17:55:58Z</time>
      </trkpt>
      <trkpt lat="45.51245" lon="7.22955">
        <ele>2704.1</ele>
        <time>2021-11-07T17:56:00Z</time>
      </trkpt>
      <trkpt lat="45.51246" lon="7.22946">
        <ele>2703.2</ele>
        <time>2021-11-07T17:56:07Z</time>
      </trkpt>
      <trkpt lat="45.51251" lon="7.22936">
        <ele>2702.1</ele>
        <time>2021-11-07T17:56:16Z</time>
      </trkpt>
      <trkpt lat="45.51254" lon="7.22929">
        <ele>2701.3</ele>
        <time>2021-11-07T17:56:22Z</time>
      </trkpt>
      <trkpt lat="45.51256" lon="7.22923">
        <ele>2700.7</ele>
        <time>2021-11-07T17:56:27Z</time>
      </trkpt>
      <trkpt lat="45.51259" lon="7.22918">
        <ele>2700.2</ele>
        <time>2021-11-07T17:56:31Z</time>
      </trkpt>
      <trkpt lat="45.51263" lon="7.2291">
        <ele>2698.9</ele>
        <time>2021-11-07T17:56:38Z</time>
      </trkpt>
      <trkpt lat="45.51263" lon="7.22909">
        <ele>2698.7</ele>
        <time>2021-11-07T17:56:39Z</time>
      </trkpt>
      <trkpt lat="45.51266" lon="7.22903">
        <ele>2697.7</ele>
        <time>2021-11-07T17:56:45Z</time>
      </trkpt>
      <trkpt lat="45.51267" lon="7.22901">
        <ele>2697.4</ele>
        <time>2021-11-07T17:56:47Z</time>
      </trkpt>
      <trkpt lat="45.51267" lon="7.229">
        <ele>2697.2</ele>
        <time>2021-11-07T17:56:48Z</time>
      </trkpt>
      <trkpt lat="45.51268" lon="7.22896">
        <ele>2696.7</ele>
        <time>2021-11-07T17:56:54Z</time>
      </trkpt>
      <trkpt lat="45.51268" lon="7.22895">
        <ele>2696.5</ele>
        <time>2021-11-07T17:56:57Z</time>
      </trkpt>
      <trkpt lat="45.51268" lon="7.22894">
        <ele>2696.4</ele>
        <time>2021-11-07T17:56:59Z</time>
      </trkpt>
      <trkpt lat="45.51269" lon="7.22893">
        <ele>2696.2</ele>
        <time>2021-11-07T17:57:04Z</time>
      </trkpt>
      <trkpt lat="45.51269" lon="7.22892">
        <ele>2696.1</ele>
        <time>2021-11-07T17:57:06Z</time>
      </trkpt>
      <trkpt lat="45.51269" lon="7.22885">
        <ele>2695.3</ele>
        <time>2021-11-07T17:57:12Z</time>
      </trkpt>
      <trkpt lat="45.51274" lon="7.22883">
        <ele>2694.4</ele>
        <time>2021-11-07T17:57:18Z</time>
      </trkpt>
      <trkpt lat="45.51277" lon="7.2288">
        <ele>2693.8</ele>
        <time>2021-11-07T17:57:22Z</time>
      </trkpt>
      <trkpt lat="45.51278" lon="7.22879">
        <ele>2693.6</ele>
        <time>2021-11-07T17:57:24Z</time>
      </trkpt>
      <trkpt lat="45.51279" lon="7.22877">
        <ele>2693.4</ele>
        <time>2021-11-07T17:57:26Z</time>
      </trkpt>
      <trkpt lat="45.51279" lon="7.22877">
        <ele>2693.3</ele>
        <time>2021-11-07T17:57:27Z</time>
      </trkpt>
      <trkpt lat="45.5128" lon="7.22871">
        <ele>2692.6</ele>
        <time>2021-11-07T17:57:32Z</time>
      </trkpt>
      <trkpt lat="45.51282" lon="7.22862">
        <ele>2691.8</ele>
        <time>2021-11-07T17:57:40Z</time>
      </trkpt>
      <trkpt lat="45.51282" lon="7.22861">
        <ele>2691.6</ele>
        <time>2021-11-07T17:57:41Z</time>
      </trkpt>
      <trkpt lat="45.51281" lon="7.22854">
        <ele>2690.9</ele>
        <time>2021-11-07T17:57:47Z</time>
      </trkpt>
      <trkpt lat="45.51281" lon="7.22854">
        <ele>2690.8</ele>
        <time>2021-11-07T17:57:48Z</time>
      </trkpt>
      <trkpt lat="45.5128" lon="7.22853">
        <ele>2690.7</ele>
        <time>2021-11-07T17:57:49Z</time>
      </trkpt>
      <trkpt lat="45.51279" lon="7.22851">
        <ele>2690.4</ele>
        <time>2021-11-07T17:57:51Z</time>
      </trkpt>
      <trkpt lat="45.51277" lon="7.22849">
        <ele>2690</ele>
        <time>2021-11-07T17:57:54Z</time>
      </trkpt>
      <trkpt lat="45.51276" lon="7.2285">
        <ele>2689.8</ele>
        <time>2021-11-07T17:57:56Z</time>
      </trkpt>
      <trkpt lat="45.51275" lon="7.2285">
        <ele>2689.7</ele>
        <time>2021-11-07T17:57:57Z</time>
      </trkpt>
      <trkpt lat="45.51273" lon="7.2285">
        <ele>2689.3</ele>
        <time>2021-11-07T17:58:00Z</time>
      </trkpt>
      <trkpt lat="45.5127" lon="7.22852">
        <ele>2688.8</ele>
        <time>2021-11-07T17:58:03Z</time>
      </trkpt>
      <trkpt lat="45.51267" lon="7.22854">
        <ele>2688.1</ele>
        <time>2021-11-07T17:58:07Z</time>
      </trkpt>
      <trkpt lat="45.51265" lon="7.22856">
        <ele>2687.5</ele>
        <time>2021-11-07T17:58:10Z</time>
      </trkpt>
      <trkpt lat="45.51262" lon="7.2286">
        <ele>2686.3</ele>
        <time>2021-11-07T17:58:16Z</time>
      </trkpt>
      <trkpt lat="45.51261" lon="7.22861">
        <ele>2686.2</ele>
        <time>2021-11-07T17:58:18Z</time>
      </trkpt>
      <trkpt lat="45.51259" lon="7.22864">
        <ele>2685.9</ele>
        <time>2021-11-07T17:58:23Z</time>
      </trkpt>
      <trkpt lat="45.51257" lon="7.2286">
        <ele>2685.6</ele>
        <time>2021-11-07T17:58:27Z</time>
      </trkpt>
      <trkpt lat="45.51257" lon="7.22858">
        <ele>2685.5</ele>
        <time>2021-11-07T17:58:28Z</time>
      </trkpt>
      <trkpt lat="45.51257" lon="7.22857">
        <ele>2685.5</ele>
        <time>2021-11-07T17:58:29Z</time>
      </trkpt>
      <trkpt lat="45.51256" lon="7.22852">
        <ele>2685.1</ele>
        <time>2021-11-07T17:58:33Z</time>
      </trkpt>
      <trkpt lat="45.51256" lon="7.2285">
        <ele>2685</ele>
        <time>2021-11-07T17:58:34Z</time>
      </trkpt>
      <trkpt lat="45.51255" lon="7.22844">
        <ele>2684.6</ele>
        <time>2021-11-07T17:58:38Z</time>
      </trkpt>
      <trkpt lat="45.51252" lon="7.22837">
        <ele>2684</ele>
        <time>2021-11-07T17:58:44Z</time>
      </trkpt>
      <trkpt lat="45.51246" lon="7.22828">
        <ele>2682.8</ele>
        <time>2021-11-07T17:58:52Z</time>
      </trkpt>
      <trkpt lat="45.51245" lon="7.22827">
        <ele>2682.4</ele>
        <time>2021-11-07T17:58:54Z</time>
      </trkpt>
      <trkpt lat="45.51244" lon="7.22825">
        <ele>2682.1</ele>
        <time>2021-11-07T17:58:56Z</time>
      </trkpt>
      <trkpt lat="45.51244" lon="7.22824">
        <ele>2682</ele>
        <time>2021-11-07T17:58:57Z</time>
      </trkpt>
      <trkpt lat="45.51244" lon="7.22823">
        <ele>2681.9</ele>
        <time>2021-11-07T17:58:58Z</time>
      </trkpt>
      <trkpt lat="45.51243" lon="7.22822">
        <ele>2681.7</ele>
        <time>2021-11-07T17:59:00Z</time>
      </trkpt>
      <trkpt lat="45.51242" lon="7.22819">
        <ele>2681.2</ele>
        <time>2021-11-07T17:59:03Z</time>
      </trkpt>
      <trkpt lat="45.51244" lon="7.22813">
        <ele>2680.4</ele>
        <time>2021-11-07T17:59:09Z</time>
      </trkpt>
      <trkpt lat="45.51244" lon="7.22813">
        <ele>2680.3</ele>
        <time>2021-11-07T17:59:10Z</time>
      </trkpt>
      <trkpt lat="45.51243" lon="7.22808">
        <ele>2679.6</ele>
        <time>2021-11-07T17:59:14Z</time>
      </trkpt>
      <trkpt lat="45.51243" lon="7.22805">
        <ele>2679.2</ele>
        <time>2021-11-07T17:59:16Z</time>
      </trkpt>
      <trkpt lat="45.51242" lon="7.22803">
        <ele>2678.9</ele>
        <time>2021-11-07T17:59:18Z</time>
      </trkpt>
      <trkpt lat="45.51242" lon="7.22802">
        <ele>2678.7</ele>
        <time>2021-11-07T17:59:19Z</time>
      </trkpt>
      <trkpt lat="45.51241" lon="7.22798">
        <ele>2678</ele>
        <time>2021-11-07T17:59:23Z</time>
      </trkpt>
      <trkpt lat="45.51241" lon="7.22796">
        <ele>2677.7</ele>
        <time>2021-11-07T17:59:25Z</time>
      </trkpt>
      <trkpt lat="45.51241" lon="7.22792">
        <ele>2676.9</ele>
        <time>2021-11-07T17:59:30Z</time>
      </trkpt>
      <trkpt lat="45.5124" lon="7.22788">
        <ele>2676.3</ele>
        <time>2021-11-07T17:59:35Z</time>
      </trkpt>
      <trkpt lat="45.5124" lon="7.22786">
        <ele>2676</ele>
        <time>2021-11-07T17:59:39Z</time>
      </trkpt>
      <trkpt lat="45.51238" lon="7.22784">
        <ele>2675.4</ele>
        <time>2021-11-07T17:59:43Z</time>
      </trkpt>
      <trkpt lat="45.51238" lon="7.22783">
        <ele>2675.4</ele>
        <time>2021-11-07T17:59:44Z</time>
      </trkpt>
      <trkpt lat="45.51239" lon="7.22782">
        <ele>2675</ele>
        <time>2021-11-07T17:59:51Z</time>
      </trkpt>
      <trkpt lat="45.51239" lon="7.2278">
        <ele>2674.8</ele>
        <time>2021-11-07T17:59:53Z</time>
      </trkpt>
      <trkpt lat="45.5124" lon="7.22779">
        <ele>2674.5</ele>
        <time>2021-11-07T17:59:55Z</time>
      </trkpt>
      <trkpt lat="45.5124" lon="7.22778">
        <ele>2674.4</ele>
        <time>2021-11-07T17:59:56Z</time>
      </trkpt>
      <trkpt lat="45.51242" lon="7.22773">
        <ele>2673.5</ele>
        <time>2021-11-07T18:00:04Z</time>
      </trkpt>
      <trkpt lat="45.51241" lon="7.22773">
        <ele>2673.3</ele>
        <time>2021-11-07T18:00:05Z</time>
      </trkpt>
      <trkpt lat="45.5124" lon="7.22772">
        <ele>2673.1</ele>
        <time>2021-11-07T18:00:10Z</time>
      </trkpt>
      <trkpt lat="45.5124" lon="7.22767">
        <ele>2672.4</ele>
        <time>2021-11-07T18:00:16Z</time>
      </trkpt>
      <trkpt lat="45.5124" lon="7.22767">
        <ele>2672.3</ele>
        <time>2021-11-07T18:00:17Z</time>
      </trkpt>
      <trkpt lat="45.51241" lon="7.22766">
        <ele>2672.1</ele>
        <time>2021-11-07T18:00:18Z</time>
      </trkpt>
      <trkpt lat="45.51241" lon="7.22762">
        <ele>2671.6</ele>
        <time>2021-11-07T18:00:21Z</time>
      </trkpt>
      <trkpt lat="45.51241" lon="7.2276">
        <ele>2671.4</ele>
        <time>2021-11-07T18:00:23Z</time>
      </trkpt>
      <trkpt lat="45.51241" lon="7.22757">
        <ele>2670.9</ele>
        <time>2021-11-07T18:00:26Z</time>
      </trkpt>
      <trkpt lat="45.5124" lon="7.22755">
        <ele>2670.6</ele>
        <time>2021-11-07T18:00:28Z</time>
      </trkpt>
      <trkpt lat="45.5124" lon="7.22753">
        <ele>2670.4</ele>
        <time>2021-11-07T18:00:30Z</time>
      </trkpt>
      <trkpt lat="45.51239" lon="7.2275">
        <ele>2670</ele>
        <time>2021-11-07T18:00:36Z</time>
      </trkpt>
      <trkpt lat="45.51238" lon="7.22748">
        <ele>2669.8</ele>
        <time>2021-11-07T18:00:38Z</time>
      </trkpt>
      <trkpt lat="45.51238" lon="7.22737">
        <ele>2668.5</ele>
        <time>2021-11-07T18:00:47Z</time>
      </trkpt>
      <trkpt lat="45.51239" lon="7.22736">
        <ele>2668.4</ele>
        <time>2021-11-07T18:00:48Z</time>
      </trkpt>
      <trkpt lat="45.51244" lon="7.22727">
        <ele>2667.1</ele>
        <time>2021-11-07T18:00:56Z</time>
      </trkpt>
      <trkpt lat="45.51244" lon="7.22726">
        <ele>2666.9</ele>
        <time>2021-11-07T18:00:58Z</time>
      </trkpt>
      <trkpt lat="45.51244" lon="7.22724">
        <ele>2666.6</ele>
        <time>2021-11-07T18:01:02Z</time>
      </trkpt>
      <trkpt lat="45.51244" lon="7.22723">
        <ele>2666.5</ele>
        <time>2021-11-07T18:01:03Z</time>
      </trkpt>
      <trkpt lat="45.51244" lon="7.2272">
        <ele>2666.1</ele>
        <time>2021-11-07T18:01:06Z</time>
      </trkpt>
      <trkpt lat="45.51243" lon="7.22717">
        <ele>2665.6</ele>
        <time>2021-11-07T18:01:09Z</time>
      </trkpt>
      <trkpt lat="45.51241" lon="7.22716">
        <ele>2665.2</ele>
        <time>2021-11-07T18:01:12Z</time>
      </trkpt>
      <trkpt lat="45.5124" lon="7.22716">
        <ele>2665</ele>
        <time>2021-11-07T18:01:13Z</time>
      </trkpt>
      <trkpt lat="45.51237" lon="7.22716">
        <ele>2664.2</ele>
        <time>2021-11-07T18:01:17Z</time>
      </trkpt>
      <trkpt lat="45.51236" lon="7.22717">
        <ele>2664</ele>
        <time>2021-11-07T18:01:18Z</time>
      </trkpt>
      <trkpt lat="45.51235" lon="7.22718">
        <ele>2663.8</ele>
        <time>2021-11-07T18:01:19Z</time>
      </trkpt>
      <trkpt lat="45.51234" lon="7.22719">
        <ele>2663.4</ele>
        <time>2021-11-07T18:01:21Z</time>
      </trkpt>
      <trkpt lat="45.51232" lon="7.22715">
        <ele>2662.8</ele>
        <time>2021-11-07T18:01:25Z</time>
      </trkpt>
      <trkpt lat="45.51232" lon="7.22714">
        <ele>2662.5</ele>
        <time>2021-11-07T18:01:27Z</time>
      </trkpt>
      <trkpt lat="45.51231" lon="7.22712">
        <ele>2662.1</ele>
        <time>2021-11-07T18:01:31Z</time>
      </trkpt>
      <trkpt lat="45.51231" lon="7.22708">
        <ele>2661.5</ele>
        <time>2021-11-07T18:01:36Z</time>
      </trkpt>
      <trkpt lat="45.51231" lon="7.22707">
        <ele>2661.3</ele>
        <time>2021-11-07T18:01:37Z</time>
      </trkpt>
      <trkpt lat="45.51231" lon="7.22704">
        <ele>2660.9</ele>
        <time>2021-11-07T18:01:39Z</time>
      </trkpt>
      <trkpt lat="45.51232" lon="7.227">
        <ele>2660.2</ele>
        <time>2021-11-07T18:01:43Z</time>
      </trkpt>
      <trkpt lat="45.51232" lon="7.22696">
        <ele>2659.7</ele>
        <time>2021-11-07T18:01:46Z</time>
      </trkpt>
      <trkpt lat="45.51232" lon="7.22695">
        <ele>2659.5</ele>
        <time>2021-11-07T18:01:47Z</time>
      </trkpt>
      <trkpt lat="45.51232" lon="7.22694">
        <ele>2659.3</ele>
        <time>2021-11-07T18:01:48Z</time>
      </trkpt>
      <trkpt lat="45.51233" lon="7.22691">
        <ele>2659</ele>
        <time>2021-11-07T18:01:50Z</time>
      </trkpt>
      <trkpt lat="45.51233" lon="7.2269">
        <ele>2658.8</ele>
        <time>2021-11-07T18:01:51Z</time>
      </trkpt>
      <trkpt lat="45.51235" lon="7.22687">
        <ele>2658.2</ele>
        <time>2021-11-07T18:01:55Z</time>
      </trkpt>
      <trkpt lat="45.51236" lon="7.22687">
        <ele>2658</ele>
        <time>2021-11-07T18:01:56Z</time>
      </trkpt>
      <trkpt lat="45.51237" lon="7.22683">
        <ele>2657.4</ele>
        <time>2021-11-07T18:02:00Z</time>
      </trkpt>
      <trkpt lat="45.51238" lon="7.22683">
        <ele>2657.3</ele>
        <time>2021-11-07T18:02:01Z</time>
      </trkpt>
      <trkpt lat="45.51239" lon="7.2268">
        <ele>2656.8</ele>
        <time>2021-11-07T18:02:05Z</time>
      </trkpt>
      <trkpt lat="45.51241" lon="7.22677">
        <ele>2656.2</ele>
        <time>2021-11-07T18:02:09Z</time>
      </trkpt>
      <trkpt lat="45.51242" lon="7.22675">
        <ele>2655.7</ele>
        <time>2021-11-07T18:02:12Z</time>
      </trkpt>
      <trkpt lat="45.51243" lon="7.22671">
        <ele>2655.1</ele>
        <time>2021-11-07T18:02:16Z</time>
      </trkpt>
      <trkpt lat="45.51244" lon="7.2267">
        <ele>2654.8</ele>
        <time>2021-11-07T18:02:17Z</time>
      </trkpt>
      <trkpt lat="45.51245" lon="7.22668">
        <ele>2654.5</ele>
        <time>2021-11-07T18:02:19Z</time>
      </trkpt>
      <trkpt lat="45.51245" lon="7.22666">
        <ele>2654.2</ele>
        <time>2021-11-07T18:02:21Z</time>
      </trkpt>
      <trkpt lat="45.51246" lon="7.22665">
        <ele>2654</ele>
        <time>2021-11-07T18:02:22Z</time>
      </trkpt>
      <trkpt lat="45.51247" lon="7.22662">
        <ele>2653.5</ele>
        <time>2021-11-07T18:02:27Z</time>
      </trkpt>
      <trkpt lat="45.51247" lon="7.22659">
        <ele>2653.1</ele>
        <time>2021-11-07T18:02:30Z</time>
      </trkpt>
      <trkpt lat="45.51247" lon="7.22656">
        <ele>2652.6</ele>
        <time>2021-11-07T18:02:33Z</time>
      </trkpt>
      <trkpt lat="45.51248" lon="7.22651">
        <ele>2651.8</ele>
        <time>2021-11-07T18:02:38Z</time>
      </trkpt>
      <trkpt lat="45.51249" lon="7.22649">
        <ele>2651.4</ele>
        <time>2021-11-07T18:02:40Z</time>
      </trkpt>
      <trkpt lat="45.5125" lon="7.22644">
        <ele>2650.8</ele>
        <time>2021-11-07T18:02:44Z</time>
      </trkpt>
      <trkpt lat="45.51249" lon="7.2264">
        <ele>2650.1</ele>
        <time>2021-11-07T18:02:48Z</time>
      </trkpt>
      <trkpt lat="45.51249" lon="7.22638">
        <ele>2649.8</ele>
        <time>2021-11-07T18:02:50Z</time>
      </trkpt>
      <trkpt lat="45.51249" lon="7.22637">
        <ele>2649.6</ele>
        <time>2021-11-07T18:02:51Z</time>
      </trkpt>
      <trkpt lat="45.51249" lon="7.22633">
        <ele>2649</ele>
        <time>2021-11-07T18:02:55Z</time>
      </trkpt>
      <trkpt lat="45.5125" lon="7.22631">
        <ele>2648.5</ele>
        <time>2021-11-07T18:02:57Z</time>
      </trkpt>
      <trkpt lat="45.51251" lon="7.22629">
        <ele>2648</ele>
        <time>2021-11-07T18:03:00Z</time>
      </trkpt>
      <trkpt lat="45.51251" lon="7.22628">
        <ele>2647.9</ele>
        <time>2021-11-07T18:03:01Z</time>
      </trkpt>
      <trkpt lat="45.51251" lon="7.22627">
        <ele>2647.7</ele>
        <time>2021-11-07T18:03:03Z</time>
      </trkpt>
      <trkpt lat="45.51251" lon="7.22626">
        <ele>2647.5</ele>
        <time>2021-11-07T18:03:04Z</time>
      </trkpt>
      <trkpt lat="45.5125" lon="7.22625">
        <ele>2647.3</ele>
        <time>2021-11-07T18:03:06Z</time>
      </trkpt>
      <trkpt lat="45.5125" lon="7.22623">
        <ele>2646.9</ele>
        <time>2021-11-07T18:03:09Z</time>
      </trkpt>
      <trkpt lat="45.5125" lon="7.2262">
        <ele>2646.4</ele>
        <time>2021-11-07T18:03:12Z</time>
      </trkpt>
      <trkpt lat="45.51247" lon="7.22615">
        <ele>2645</ele>
        <time>2021-11-07T18:03:19Z</time>
      </trkpt>
      <trkpt lat="45.51247" lon="7.22614">
        <ele>2644.9</ele>
        <time>2021-11-07T18:03:20Z</time>
      </trkpt>
      <trkpt lat="45.51247" lon="7.22613">
        <ele>2644.7</ele>
        <time>2021-11-07T18:03:21Z</time>
      </trkpt>
      <trkpt lat="45.51247" lon="7.2261">
        <ele>2644.1</ele>
        <time>2021-11-07T18:03:24Z</time>
      </trkpt>
      <trkpt lat="45.51249" lon="7.22605">
        <ele>2643</ele>
        <time>2021-11-07T18:03:29Z</time>
      </trkpt>
      <trkpt lat="45.51252" lon="7.226">
        <ele>2641.9</ele>
        <time>2021-11-07T18:03:34Z</time>
      </trkpt>
      <trkpt lat="45.51252" lon="7.22599">
        <ele>2641.6</ele>
        <time>2021-11-07T18:03:35Z</time>
      </trkpt>
      <trkpt lat="45.51254" lon="7.22599">
        <ele>2641.2</ele>
        <time>2021-11-07T18:03:37Z</time>
      </trkpt>
      <trkpt lat="45.51255" lon="7.22598">
        <ele>2641</ele>
        <time>2021-11-07T18:03:39Z</time>
      </trkpt>
      <trkpt lat="45.51256" lon="7.22598">
        <ele>2640.6</ele>
        <time>2021-11-07T18:03:42Z</time>
      </trkpt>
      <trkpt lat="45.51257" lon="7.22598">
        <ele>2640.3</ele>
        <time>2021-11-07T18:03:44Z</time>
      </trkpt>
      <trkpt lat="45.51257" lon="7.22598">
        <ele>2640.2</ele>
        <time>2021-11-07T18:03:47Z</time>
      </trkpt>
      <trkpt lat="45.51258" lon="7.22598">
        <ele>2640.2</ele>
        <time>2021-11-07T18:03:48Z</time>
      </trkpt>
      <trkpt lat="45.51258" lon="7.22598">
        <ele>2640.1</ele>
        <time>2021-11-07T18:03:49Z</time>
      </trkpt>
      <trkpt lat="45.51258" lon="7.22598">
        <ele>2640.1</ele>
        <time>2021-11-07T18:03:51Z</time>
      </trkpt>
      <trkpt lat="45.5126" lon="7.22597">
        <ele>2639.3</ele>
        <time>2021-11-07T18:03:59Z</time>
      </trkpt>
      <trkpt lat="45.51261" lon="7.22596">
        <ele>2639</ele>
        <time>2021-11-07T18:04:01Z</time>
      </trkpt>
      <trkpt lat="45.51261" lon="7.22595">
        <ele>2638.9</ele>
        <time>2021-11-07T18:04:02Z</time>
      </trkpt>
      <trkpt lat="45.51261" lon="7.22595">
        <ele>2638.7</ele>
        <time>2021-11-07T18:04:03Z</time>
      </trkpt>
      <trkpt lat="45.51263" lon="7.22594">
        <ele>2638.1</ele>
        <time>2021-11-07T18:04:07Z</time>
      </trkpt>
      <trkpt lat="45.51264" lon="7.22592">
        <ele>2637.6</ele>
        <time>2021-11-07T18:04:10Z</time>
      </trkpt>
      <trkpt lat="45.51264" lon="7.22591">
        <ele>2637.3</ele>
        <time>2021-11-07T18:04:12Z</time>
      </trkpt>
      <trkpt lat="45.51265" lon="7.22589">
        <ele>2636.7</ele>
        <time>2021-11-07T18:04:16Z</time>
      </trkpt>
      <trkpt lat="45.51266" lon="7.22587">
        <ele>2636.3</ele>
        <time>2021-11-07T18:04:18Z</time>
      </trkpt>
      <trkpt lat="45.51267" lon="7.22585">
        <ele>2635.8</ele>
        <time>2021-11-07T18:04:21Z</time>
      </trkpt>
      <trkpt lat="45.51268" lon="7.22582">
        <ele>2635</ele>
        <time>2021-11-07T18:04:26Z</time>
      </trkpt>
      <trkpt lat="45.51268" lon="7.22582">
        <ele>2634.9</ele>
        <time>2021-11-07T18:04:27Z</time>
      </trkpt>
      <trkpt lat="45.51269" lon="7.2258">
        <ele>2634.5</ele>
        <time>2021-11-07T18:04:32Z</time>
      </trkpt>
      <trkpt lat="45.51268" lon="7.22578">
        <ele>2634.1</ele>
        <time>2021-11-07T18:04:38Z</time>
      </trkpt>
      <trkpt lat="45.51268" lon="7.22578">
        <ele>2634</ele>
        <time>2021-11-07T18:04:39Z</time>
      </trkpt>
      <trkpt lat="45.51263" lon="7.22582">
        <ele>2632.4</ele>
        <time>2021-11-07T18:04:45Z</time>
      </trkpt>
      <trkpt lat="45.51258" lon="7.22585">
        <ele>2631.1</ele>
        <time>2021-11-07T18:04:51Z</time>
      </trkpt>
      <trkpt lat="45.51256" lon="7.22585">
        <ele>2630.6</ele>
        <time>2021-11-07T18:04:54Z</time>
      </trkpt>
      <trkpt lat="45.51256" lon="7.22584">
        <ele>2630.5</ele>
        <time>2021-11-07T18:04:55Z</time>
      </trkpt>
      <trkpt lat="45.51255" lon="7.22581">
        <ele>2630</ele>
        <time>2021-11-07T18:04:59Z</time>
      </trkpt>
      <trkpt lat="45.51256" lon="7.22578">
        <ele>2629.4</ele>
        <time>2021-11-07T18:05:02Z</time>
      </trkpt>
      <trkpt lat="45.51257" lon="7.22577">
        <ele>2629.2</ele>
        <time>2021-11-07T18:05:03Z</time>
      </trkpt>
      <trkpt lat="45.51257" lon="7.22576">
        <ele>2629</ele>
        <time>2021-11-07T18:05:04Z</time>
      </trkpt>
      <trkpt lat="45.51259" lon="7.22571">
        <ele>2628.1</ele>
        <time>2021-11-07T18:05:09Z</time>
      </trkpt>
      <trkpt lat="45.5126" lon="7.22569">
        <ele>2627.7</ele>
        <time>2021-11-07T18:05:11Z</time>
      </trkpt>
      <trkpt lat="45.51261" lon="7.22568">
        <ele>2627.5</ele>
        <time>2021-11-07T18:05:12Z</time>
      </trkpt>
      <trkpt lat="45.51263" lon="7.22566">
        <ele>2627.1</ele>
        <time>2021-11-07T18:05:14Z</time>
      </trkpt>
      <trkpt lat="45.51263" lon="7.22566">
        <ele>2626.9</ele>
        <time>2021-11-07T18:05:15Z</time>
      </trkpt>
      <trkpt lat="45.51265" lon="7.22563">
        <ele>2626.4</ele>
        <time>2021-11-07T18:05:18Z</time>
      </trkpt>
      <trkpt lat="45.51268" lon="7.2256">
        <ele>2625.7</ele>
        <time>2021-11-07T18:05:22Z</time>
      </trkpt>
      <trkpt lat="45.51268" lon="7.22559">
        <ele>2625.4</ele>
        <time>2021-11-07T18:05:24Z</time>
      </trkpt>
      <trkpt lat="45.51269" lon="7.22558">
        <ele>2625.2</ele>
        <time>2021-11-07T18:05:26Z</time>
      </trkpt>
      <trkpt lat="45.5127" lon="7.22557">
        <ele>2625</ele>
        <time>2021-11-07T18:05:29Z</time>
      </trkpt>
      <trkpt lat="45.51271" lon="7.22554">
        <ele>2624.5</ele>
        <time>2021-11-07T18:05:32Z</time>
      </trkpt>
      <trkpt lat="45.51271" lon="7.22552">
        <ele>2624.3</ele>
        <time>2021-11-07T18:05:34Z</time>
      </trkpt>
      <trkpt lat="45.51271" lon="7.22552">
        <ele>2624.2</ele>
        <time>2021-11-07T18:05:35Z</time>
      </trkpt>
      <trkpt lat="45.51273" lon="7.22551">
        <ele>2623.8</ele>
        <time>2021-11-07T18:05:38Z</time>
      </trkpt>
      <trkpt lat="45.51273" lon="7.2255">
        <ele>2623.7</ele>
        <time>2021-11-07T18:05:39Z</time>
      </trkpt>
      <trkpt lat="45.51273" lon="7.22549">
        <ele>2623.5</ele>
        <time>2021-11-07T18:05:40Z</time>
      </trkpt>
      <trkpt lat="45.51275" lon="7.22543">
        <ele>2622.5</ele>
        <time>2021-11-07T18:05:45Z</time>
      </trkpt>
      <trkpt lat="45.51275" lon="7.22542">
        <ele>2622.3</ele>
        <time>2021-11-07T18:05:46Z</time>
      </trkpt>
      <trkpt lat="45.51276" lon="7.22541">
        <ele>2622.1</ele>
        <time>2021-11-07T18:05:47Z</time>
      </trkpt>
      <trkpt lat="45.51276" lon="7.22539">
        <ele>2621.8</ele>
        <time>2021-11-07T18:05:49Z</time>
      </trkpt>
      <trkpt lat="45.51276" lon="7.22537">
        <ele>2621.4</ele>
        <time>2021-11-07T18:05:51Z</time>
      </trkpt>
      <trkpt lat="45.51278" lon="7.22532">
        <ele>2620.5</ele>
        <time>2021-11-07T18:05:55Z</time>
      </trkpt>
      <trkpt lat="45.51279" lon="7.22529">
        <ele>2619.9</ele>
        <time>2021-11-07T18:05:58Z</time>
      </trkpt>
      <trkpt lat="45.51281" lon="7.22526">
        <ele>2619.4</ele>
        <time>2021-11-07T18:06:01Z</time>
      </trkpt>
      <trkpt lat="45.51282" lon="7.22522">
        <ele>2618.8</ele>
        <time>2021-11-07T18:06:05Z</time>
      </trkpt>
      <trkpt lat="45.51285" lon="7.22517">
        <ele>2617.7</ele>
        <time>2021-11-07T18:06:12Z</time>
      </trkpt>
      <trkpt lat="45.51285" lon="7.22516">
        <ele>2617.6</ele>
        <time>2021-11-07T18:06:13Z</time>
      </trkpt>
      <trkpt lat="45.51287" lon="7.22514">
        <ele>2617.1</ele>
        <time>2021-11-07T18:06:17Z</time>
      </trkpt>
      <trkpt lat="45.51288" lon="7.22513">
        <ele>2617</ele>
        <time>2021-11-07T18:06:19Z</time>
      </trkpt>
      <trkpt lat="45.51289" lon="7.22509">
        <ele>2616.4</ele>
        <time>2021-11-07T18:06:22Z</time>
      </trkpt>
      <trkpt lat="45.51289" lon="7.22508">
        <ele>2616.2</ele>
        <time>2021-11-07T18:06:23Z</time>
      </trkpt>
      <trkpt lat="45.51293" lon="7.225">
        <ele>2614.9</ele>
        <time>2021-11-07T18:06:29Z</time>
      </trkpt>
      <trkpt lat="45.51294" lon="7.22498">
        <ele>2614.5</ele>
        <time>2021-11-07T18:06:31Z</time>
      </trkpt>
      <trkpt lat="45.51294" lon="7.22497">
        <ele>2614.4</ele>
        <time>2021-11-07T18:06:32Z</time>
      </trkpt>
      <trkpt lat="45.51295" lon="7.22494">
        <ele>2613.9</ele>
        <time>2021-11-07T18:06:35Z</time>
      </trkpt>
      <trkpt lat="45.51295" lon="7.22493">
        <ele>2613.8</ele>
        <time>2021-11-07T18:06:36Z</time>
      </trkpt>
      <trkpt lat="45.51295" lon="7.22489">
        <ele>2613.1</ele>
        <time>2021-11-07T18:06:40Z</time>
      </trkpt>
      <trkpt lat="45.51295" lon="7.22486">
        <ele>2612.7</ele>
        <time>2021-11-07T18:06:43Z</time>
      </trkpt>
      <trkpt lat="45.51295" lon="7.22484">
        <ele>2612.3</ele>
        <time>2021-11-07T18:06:46Z</time>
      </trkpt>
      <trkpt lat="45.51296" lon="7.22482">
        <ele>2611.8</ele>
        <time>2021-11-07T18:06:49Z</time>
      </trkpt>
      <trkpt lat="45.51296" lon="7.22479">
        <ele>2611.4</ele>
        <time>2021-11-07T18:06:52Z</time>
      </trkpt>
      <trkpt lat="45.51295" lon="7.22475">
        <ele>2610.6</ele>
        <time>2021-11-07T18:06:56Z</time>
      </trkpt>
      <trkpt lat="45.51296" lon="7.22474">
        <ele>2610.4</ele>
        <time>2021-11-07T18:06:57Z</time>
      </trkpt>
      <trkpt lat="45.51296" lon="7.22473">
        <ele>2610.2</ele>
        <time>2021-11-07T18:06:58Z</time>
      </trkpt>
      <trkpt lat="45.51296" lon="7.22471">
        <ele>2609.9</ele>
        <time>2021-11-07T18:07:00Z</time>
      </trkpt>
      <trkpt lat="45.51297" lon="7.22467">
        <ele>2609.2</ele>
        <time>2021-11-07T18:07:04Z</time>
      </trkpt>
      <trkpt lat="45.51297" lon="7.22465">
        <ele>2608.9</ele>
        <time>2021-11-07T18:07:08Z</time>
      </trkpt>
      <trkpt lat="45.51297" lon="7.22464">
        <ele>2608.6</ele>
        <time>2021-11-07T18:07:11Z</time>
      </trkpt>
      <trkpt lat="45.51297" lon="7.22461">
        <ele>2608.2</ele>
        <time>2021-11-07T18:07:14Z</time>
      </trkpt>
      <trkpt lat="45.51299" lon="7.22457">
        <ele>2607.4</ele>
        <time>2021-11-07T18:07:18Z</time>
      </trkpt>
      <trkpt lat="45.51299" lon="7.22456">
        <ele>2607.3</ele>
        <time>2021-11-07T18:07:20Z</time>
      </trkpt>
      <trkpt lat="45.51299" lon="7.22454">
        <ele>2607</ele>
        <time>2021-11-07T18:07:22Z</time>
      </trkpt>
      <trkpt lat="45.51298" lon="7.22451">
        <ele>2606.6</ele>
        <time>2021-11-07T18:07:26Z</time>
      </trkpt>
      <trkpt lat="45.51297" lon="7.2245">
        <ele>2606.3</ele>
        <time>2021-11-07T18:07:29Z</time>
      </trkpt>
      <trkpt lat="45.51297" lon="7.22449">
        <ele>2606.3</ele>
        <time>2021-11-07T18:07:32Z</time>
      </trkpt>
      <trkpt lat="45.51297" lon="7.22449">
        <ele>2606.3</ele>
        <time>2021-11-07T18:07:33Z</time>
      </trkpt>
      <trkpt lat="45.51297" lon="7.22447">
        <ele>2606</ele>
        <time>2021-11-07T18:07:38Z</time>
      </trkpt>
      <trkpt lat="45.51298" lon="7.22445">
        <ele>2605.7</ele>
        <time>2021-11-07T18:07:40Z</time>
      </trkpt>
      <trkpt lat="45.51301" lon="7.22438">
        <ele>2604.9</ele>
        <time>2021-11-07T18:07:46Z</time>
      </trkpt>
      <trkpt lat="45.51301" lon="7.22437">
        <ele>2604.8</ele>
        <time>2021-11-07T18:07:47Z</time>
      </trkpt>
      <trkpt lat="45.51303" lon="7.22433">
        <ele>2604.3</ele>
        <time>2021-11-07T18:07:52Z</time>
      </trkpt>
      <trkpt lat="45.51303" lon="7.22432">
        <ele>2604.2</ele>
        <time>2021-11-07T18:07:53Z</time>
      </trkpt>
      <trkpt lat="45.51304" lon="7.22427">
        <ele>2603.7</ele>
        <time>2021-11-07T18:07:59Z</time>
      </trkpt>
      <trkpt lat="45.51305" lon="7.22421">
        <ele>2603.2</ele>
        <time>2021-11-07T18:08:04Z</time>
      </trkpt>
      <trkpt lat="45.51305" lon="7.22421">
        <ele>2603.1</ele>
        <time>2021-11-07T18:08:07Z</time>
      </trkpt>
      <trkpt lat="45.51305" lon="7.22421">
        <ele>2603</ele>
        <time>2021-11-07T18:08:13Z</time>
      </trkpt>
      <trkpt lat="45.51306" lon="7.2242">
        <ele>2602.9</ele>
        <time>2021-11-07T18:08:24Z</time>
      </trkpt>
      <trkpt lat="45.51306" lon="7.2242">
        <ele>2602.9</ele>
        <time>2021-11-07T18:08:28Z</time>
      </trkpt>
      <trkpt lat="45.51307" lon="7.22421">
        <ele>2602.8</ele>
        <time>2021-11-07T18:08:32Z</time>
      </trkpt>
      <trkpt lat="45.51306" lon="7.22421">
        <ele>2602.8</ele>
        <time>2021-11-07T18:08:35Z</time>
      </trkpt>
      <trkpt lat="45.51306" lon="7.22421">
        <ele>2602.7</ele>
        <time>2021-11-07T18:08:41Z</time>
      </trkpt>
      <trkpt lat="45.51306" lon="7.22421">
        <ele>2602.7</ele>
        <time>2021-11-07T18:09:00Z</time>
      </trkpt>
      <trkpt lat="45.51307" lon="7.22421">
        <ele>2602.7</ele>
        <time>2021-11-07T18:09:01Z</time>
      </trkpt>
      <trkpt lat="45.51306" lon="7.22421">
        <ele>2602.6</ele>
        <time>2021-11-07T18:09:06Z</time>
      </trkpt>
      <trkpt lat="45.51306" lon="7.22421">
        <ele>2602.6</ele>
        <time>2021-11-07T18:09:13Z</time>
      </trkpt>
      <trkpt lat="45.51306" lon="7.22415">
        <ele>2602</ele>
        <time>2021-11-07T18:09:17Z</time>
      </trkpt>
      <trkpt lat="45.51307" lon="7.22408">
        <ele>2601.2</ele>
        <time>2021-11-07T18:09:22Z</time>
      </trkpt>
      <trkpt lat="45.51308" lon="7.22404">
        <ele>2600.8</ele>
        <time>2021-11-07T18:09:24Z</time>
      </trkpt>
      <trkpt lat="45.51308" lon="7.22402">
        <ele>2600.6</ele>
        <time>2021-11-07T18:09:25Z</time>
      </trkpt>
      <trkpt lat="45.51308" lon="7.22396">
        <ele>2599.8</ele>
        <time>2021-11-07T18:09:29Z</time>
      </trkpt>
      <trkpt lat="45.51309" lon="7.22394">
        <ele>2599.6</ele>
        <time>2021-11-07T18:09:30Z</time>
      </trkpt>
      <trkpt lat="45.5131" lon="7.22392">
        <ele>2599.2</ele>
        <time>2021-11-07T18:09:32Z</time>
      </trkpt>
      <trkpt lat="45.5131" lon="7.22387">
        <ele>2598.6</ele>
        <time>2021-11-07T18:09:35Z</time>
      </trkpt>
      <trkpt lat="45.51311" lon="7.22383">
        <ele>2598</ele>
        <time>2021-11-07T18:09:38Z</time>
      </trkpt>
      <trkpt lat="45.51311" lon="7.22382">
        <ele>2597.9</ele>
        <time>2021-11-07T18:09:39Z</time>
      </trkpt>
      <trkpt lat="45.51311" lon="7.22381">
        <ele>2597.7</ele>
        <time>2021-11-07T18:09:40Z</time>
      </trkpt>
      <trkpt lat="45.51311" lon="7.22375">
        <ele>2596.8</ele>
        <time>2021-11-07T18:09:44Z</time>
      </trkpt>
      <trkpt lat="45.51311" lon="7.22374">
        <ele>2596.5</ele>
        <time>2021-11-07T18:09:45Z</time>
      </trkpt>
      <trkpt lat="45.51312" lon="7.22372">
        <ele>2596.2</ele>
        <time>2021-11-07T18:09:46Z</time>
      </trkpt>
      <trkpt lat="45.51312" lon="7.22365">
        <ele>2595.2</ele>
        <time>2021-11-07T18:09:50Z</time>
      </trkpt>
      <trkpt lat="45.51312" lon="7.22363">
        <ele>2594.9</ele>
        <time>2021-11-07T18:09:51Z</time>
      </trkpt>
      <trkpt lat="45.51313" lon="7.2236">
        <ele>2594.4</ele>
        <time>2021-11-07T18:09:53Z</time>
      </trkpt>
      <trkpt lat="45.51313" lon="7.22358">
        <ele>2594.1</ele>
        <time>2021-11-07T18:09:54Z</time>
      </trkpt>
      <trkpt lat="45.51316" lon="7.22349">
        <ele>2592.5</ele>
        <time>2021-11-07T18:10:00Z</time>
      </trkpt>
      <trkpt lat="45.51317" lon="7.22348">
        <ele>2592.2</ele>
        <time>2021-11-07T18:10:02Z</time>
      </trkpt>
      <trkpt lat="45.51317" lon="7.22345">
        <ele>2591.8</ele>
        <time>2021-11-07T18:10:05Z</time>
      </trkpt>
      <trkpt lat="45.51317" lon="7.22341">
        <ele>2591.1</ele>
        <time>2021-11-07T18:10:09Z</time>
      </trkpt>
      <trkpt lat="45.51319" lon="7.22336">
        <ele>2590.1</ele>
        <time>2021-11-07T18:10:13Z</time>
      </trkpt>
      <trkpt lat="45.51319" lon="7.22335">
        <ele>2589.9</ele>
        <time>2021-11-07T18:10:14Z</time>
      </trkpt>
      <trkpt lat="45.5132" lon="7.22329">
        <ele>2588.9</ele>
        <time>2021-11-07T18:10:18Z</time>
      </trkpt>
      <trkpt lat="45.5132" lon="7.22328">
        <ele>2588.7</ele>
        <time>2021-11-07T18:10:19Z</time>
      </trkpt>
      <trkpt lat="45.51321" lon="7.22327">
        <ele>2588.5</ele>
        <time>2021-11-07T18:10:20Z</time>
      </trkpt>
      <trkpt lat="45.51321" lon="7.22326">
        <ele>2588.3</ele>
        <time>2021-11-07T18:10:21Z</time>
      </trkpt>
      <trkpt lat="45.51321" lon="7.22322">
        <ele>2587.6</ele>
        <time>2021-11-07T18:10:24Z</time>
      </trkpt>
      <trkpt lat="45.51322" lon="7.22321">
        <ele>2587.4</ele>
        <time>2021-11-07T18:10:25Z</time>
      </trkpt>
      <trkpt lat="45.51322" lon="7.22318">
        <ele>2587</ele>
        <time>2021-11-07T18:10:27Z</time>
      </trkpt>
      <trkpt lat="45.51322" lon="7.22317">
        <ele>2586.7</ele>
        <time>2021-11-07T18:10:28Z</time>
      </trkpt>
      <trkpt lat="45.51324" lon="7.22312">
        <ele>2585.9</ele>
        <time>2021-11-07T18:10:31Z</time>
      </trkpt>
      <trkpt lat="45.51324" lon="7.22311">
        <ele>2585.7</ele>
        <time>2021-11-07T18:10:32Z</time>
      </trkpt>
      <trkpt lat="45.51325" lon="7.22308">
        <ele>2585.2</ele>
        <time>2021-11-07T18:10:34Z</time>
      </trkpt>
      <trkpt lat="45.51326" lon="7.22303">
        <ele>2584.5</ele>
        <time>2021-11-07T18:10:37Z</time>
      </trkpt>
      <trkpt lat="45.51327" lon="7.22302">
        <ele>2584.2</ele>
        <time>2021-11-07T18:10:38Z</time>
      </trkpt>
      <trkpt lat="45.51328" lon="7.22301">
        <ele>2584</ele>
        <time>2021-11-07T18:10:39Z</time>
      </trkpt>
      <trkpt lat="45.51329" lon="7.22299">
        <ele>2583.6</ele>
        <time>2021-11-07T18:10:41Z</time>
      </trkpt>
      <trkpt lat="45.5133" lon="7.22298">
        <ele>2583.4</ele>
        <time>2021-11-07T18:10:42Z</time>
      </trkpt>
      <trkpt lat="45.51331" lon="7.22297">
        <ele>2583.2</ele>
        <time>2021-11-07T18:10:43Z</time>
      </trkpt>
      <trkpt lat="45.51331" lon="7.22296">
        <ele>2583</ele>
        <time>2021-11-07T18:10:44Z</time>
      </trkpt>
      <trkpt lat="45.51333" lon="7.22293">
        <ele>2582.5</ele>
        <time>2021-11-07T18:10:46Z</time>
      </trkpt>
      <trkpt lat="45.51334" lon="7.22291">
        <ele>2582.1</ele>
        <time>2021-11-07T18:10:48Z</time>
      </trkpt>
      <trkpt lat="45.51335" lon="7.2229">
        <ele>2581.9</ele>
        <time>2021-11-07T18:10:49Z</time>
      </trkpt>
      <trkpt lat="45.51336" lon="7.22287">
        <ele>2581.4</ele>
        <time>2021-11-07T18:10:51Z</time>
      </trkpt>
      <trkpt lat="45.51339" lon="7.22285">
        <ele>2580.8</ele>
        <time>2021-11-07T18:10:54Z</time>
      </trkpt>
      <trkpt lat="45.5134" lon="7.22284">
        <ele>2580.6</ele>
        <time>2021-11-07T18:10:56Z</time>
      </trkpt>
      <trkpt lat="45.51341" lon="7.22278">
        <ele>2579.8</ele>
        <time>2021-11-07T18:11:00Z</time>
      </trkpt>
      <trkpt lat="45.51343" lon="7.22276">
        <ele>2579.3</ele>
        <time>2021-11-07T18:11:02Z</time>
      </trkpt>
      <trkpt lat="45.51345" lon="7.22272">
        <ele>2578.6</ele>
        <time>2021-11-07T18:11:06Z</time>
      </trkpt>
      <trkpt lat="45.51346" lon="7.2227">
        <ele>2578.2</ele>
        <time>2021-11-07T18:11:09Z</time>
      </trkpt>
      <trkpt lat="45.51348" lon="7.22265">
        <ele>2577.5</ele>
        <time>2021-11-07T18:11:13Z</time>
      </trkpt>
      <trkpt lat="45.51349" lon="7.22262">
        <ele>2577</ele>
        <time>2021-11-07T18:11:16Z</time>
      </trkpt>
      <trkpt lat="45.51349" lon="7.22261">
        <ele>2576.9</ele>
        <time>2021-11-07T18:11:17Z</time>
      </trkpt>
      <trkpt lat="45.5135" lon="7.2226">
        <ele>2576.6</ele>
        <time>2021-11-07T18:11:19Z</time>
      </trkpt>
      <trkpt lat="45.51353" lon="7.22256">
        <ele>2575.8</ele>
        <time>2021-11-07T18:11:24Z</time>
      </trkpt>
      <trkpt lat="45.51354" lon="7.22254">
        <ele>2575.5</ele>
        <time>2021-11-07T18:11:26Z</time>
      </trkpt>
      <trkpt lat="45.51355" lon="7.2225">
        <ele>2574.8</ele>
        <time>2021-11-07T18:11:30Z</time>
      </trkpt>
      <trkpt lat="45.51356" lon="7.22249">
        <ele>2574.6</ele>
        <time>2021-11-07T18:11:31Z</time>
      </trkpt>
      <trkpt lat="45.51356" lon="7.22246">
        <ele>2574.2</ele>
        <time>2021-11-07T18:11:33Z</time>
      </trkpt>
      <trkpt lat="45.51357" lon="7.22244">
        <ele>2573.9</ele>
        <time>2021-11-07T18:11:35Z</time>
      </trkpt>
      <trkpt lat="45.51358" lon="7.22242">
        <ele>2573.5</ele>
        <time>2021-11-07T18:11:37Z</time>
      </trkpt>
      <trkpt lat="45.5136" lon="7.22238">
        <ele>2572.7</ele>
        <time>2021-11-07T18:11:41Z</time>
      </trkpt>
      <trkpt lat="45.51362" lon="7.22236">
        <ele>2572.2</ele>
        <time>2021-11-07T18:11:44Z</time>
      </trkpt>
      <trkpt lat="45.51362" lon="7.22234">
        <ele>2572</ele>
        <time>2021-11-07T18:11:45Z</time>
      </trkpt>
      <trkpt lat="45.51365" lon="7.2223">
        <ele>2571</ele>
        <time>2021-11-07T18:11:51Z</time>
      </trkpt>
      <trkpt lat="45.51365" lon="7.22229">
        <ele>2570.9</ele>
        <time>2021-11-07T18:11:53Z</time>
      </trkpt>
      <trkpt lat="45.51366" lon="7.22226">
        <ele>2570.4</ele>
        <time>2021-11-07T18:11:56Z</time>
      </trkpt>
      <trkpt lat="45.51366" lon="7.22225">
        <ele>2570.2</ele>
        <time>2021-11-07T18:11:57Z</time>
      </trkpt>
      <trkpt lat="45.51367" lon="7.2222">
        <ele>2569.3</ele>
        <time>2021-11-07T18:12:03Z</time>
      </trkpt>
      <trkpt lat="45.51367" lon="7.22219">
        <ele>2569</ele>
        <time>2021-11-07T18:12:06Z</time>
      </trkpt>
      <trkpt lat="45.51368" lon="7.22217">
        <ele>2568.7</ele>
        <time>2021-11-07T18:12:08Z</time>
      </trkpt>
      <trkpt lat="45.51368" lon="7.22214">
        <ele>2568.4</ele>
        <time>2021-11-07T18:12:10Z</time>
      </trkpt>
      <trkpt lat="45.51368" lon="7.22213">
        <ele>2568.1</ele>
        <time>2021-11-07T18:12:13Z</time>
      </trkpt>
      <trkpt lat="45.51368" lon="7.22212">
        <ele>2567.9</ele>
        <time>2021-11-07T18:12:14Z</time>
      </trkpt>
      <trkpt lat="45.5137" lon="7.22206">
        <ele>2567</ele>
        <time>2021-11-07T18:12:19Z</time>
      </trkpt>
      <trkpt lat="45.5137" lon="7.22202">
        <ele>2566.4</ele>
        <time>2021-11-07T18:12:23Z</time>
      </trkpt>
      <trkpt lat="45.5137" lon="7.22201">
        <ele>2566.3</ele>
        <time>2021-11-07T18:12:24Z</time>
      </trkpt>
      <trkpt lat="45.51371" lon="7.222">
        <ele>2566</ele>
        <time>2021-11-07T18:12:26Z</time>
      </trkpt>
      <trkpt lat="45.51372" lon="7.22189">
        <ele>2564.5</ele>
        <time>2021-11-07T18:12:34Z</time>
      </trkpt>
      <trkpt lat="45.51373" lon="7.22188">
        <ele>2564.3</ele>
        <time>2021-11-07T18:12:35Z</time>
      </trkpt>
      <trkpt lat="45.51375" lon="7.22183">
        <ele>2563.5</ele>
        <time>2021-11-07T18:12:42Z</time>
      </trkpt>
      <trkpt lat="45.51375" lon="7.22181">
        <ele>2563.2</ele>
        <time>2021-11-07T18:12:44Z</time>
      </trkpt>
      <trkpt lat="45.51376" lon="7.22178">
        <ele>2562.8</ele>
        <time>2021-11-07T18:12:47Z</time>
      </trkpt>
      <trkpt lat="45.51377" lon="7.22176">
        <ele>2562.4</ele>
        <time>2021-11-07T18:12:50Z</time>
      </trkpt>
      <trkpt lat="45.51379" lon="7.22173">
        <ele>2561.9</ele>
        <time>2021-11-07T18:12:53Z</time>
      </trkpt>
      <trkpt lat="45.51379" lon="7.22172">
        <ele>2561.8</ele>
        <time>2021-11-07T18:12:55Z</time>
      </trkpt>
      <trkpt lat="45.51379" lon="7.2217">
        <ele>2561.6</ele>
        <time>2021-11-07T18:12:57Z</time>
      </trkpt>
      <trkpt lat="45.51381" lon="7.22167">
        <ele>2561.1</ele>
        <time>2021-11-07T18:13:00Z</time>
      </trkpt>
      <trkpt lat="45.51381" lon="7.22166">
        <ele>2560.9</ele>
        <time>2021-11-07T18:13:01Z</time>
      </trkpt>
      <trkpt lat="45.51382" lon="7.22165">
        <ele>2560.7</ele>
        <time>2021-11-07T18:13:03Z</time>
      </trkpt>
      <trkpt lat="45.51377" lon="7.22166">
        <ele>2560</ele>
        <time>2021-11-07T18:13:10Z</time>
      </trkpt>
      <trkpt lat="45.51372" lon="7.22176">
        <ele>2558.6</ele>
        <time>2021-11-07T18:13:20Z</time>
      </trkpt>
      <trkpt lat="45.51367" lon="7.22186">
        <ele>2557.3</ele>
        <time>2021-11-07T18:13:30Z</time>
      </trkpt>
      <trkpt lat="45.51366" lon="7.22189">
        <ele>2556.9</ele>
        <time>2021-11-07T18:13:35Z</time>
      </trkpt>
      <trkpt lat="45.51365" lon="7.22191">
        <ele>2556.6</ele>
        <time>2021-11-07T18:13:38Z</time>
      </trkpt>
      <trkpt lat="45.51362" lon="7.22197">
        <ele>2555.7</ele>
        <time>2021-11-07T18:13:46Z</time>
      </trkpt>
      <trkpt lat="45.51358" lon="7.22203">
        <ele>2554.5</ele>
        <time>2021-11-07T18:13:55Z</time>
      </trkpt>
      <trkpt lat="45.51358" lon="7.22204">
        <ele>2554.3</ele>
        <time>2021-11-07T18:13:56Z</time>
      </trkpt>
      <trkpt lat="45.51356" lon="7.22206">
        <ele>2553.9</ele>
        <time>2021-11-07T18:13:59Z</time>
      </trkpt>
      <trkpt lat="45.51356" lon="7.22206">
        <ele>2553.7</ele>
        <time>2021-11-07T18:14:01Z</time>
      </trkpt>
      <trkpt lat="45.51354" lon="7.22203">
        <ele>2553.2</ele>
        <time>2021-11-07T18:14:05Z</time>
      </trkpt>
      <trkpt lat="45.51354" lon="7.222">
        <ele>2552.8</ele>
        <time>2021-11-07T18:14:07Z</time>
      </trkpt>
      <trkpt lat="45.51355" lon="7.22198">
        <ele>2552.3</ele>
        <time>2021-11-07T18:14:10Z</time>
      </trkpt>
      <trkpt lat="45.51356" lon="7.22194">
        <ele>2551.8</ele>
        <time>2021-11-07T18:14:13Z</time>
      </trkpt>
      <trkpt lat="45.51356" lon="7.22192">
        <ele>2551.4</ele>
        <time>2021-11-07T18:14:15Z</time>
      </trkpt>
      <trkpt lat="45.51357" lon="7.22191">
        <ele>2551.1</ele>
        <time>2021-11-07T18:14:17Z</time>
      </trkpt>
      <trkpt lat="45.51357" lon="7.22189">
        <ele>2550.9</ele>
        <time>2021-11-07T18:14:18Z</time>
      </trkpt>
      <trkpt lat="45.51358" lon="7.22187">
        <ele>2550.5</ele>
        <time>2021-11-07T18:14:20Z</time>
      </trkpt>
      <trkpt lat="45.51359" lon="7.22184">
        <ele>2550</ele>
        <time>2021-11-07T18:14:23Z</time>
      </trkpt>
      <trkpt lat="45.51359" lon="7.22183">
        <ele>2549.8</ele>
        <time>2021-11-07T18:14:24Z</time>
      </trkpt>
      <trkpt lat="45.51359" lon="7.22181">
        <ele>2549.4</ele>
        <time>2021-11-07T18:14:26Z</time>
      </trkpt>
      <trkpt lat="45.51359" lon="7.22178">
        <ele>2549.1</ele>
        <time>2021-11-07T18:14:28Z</time>
      </trkpt>
      <trkpt lat="45.5136" lon="7.22175">
        <ele>2548.6</ele>
        <time>2021-11-07T18:14:31Z</time>
      </trkpt>
      <trkpt lat="45.51361" lon="7.22172">
        <ele>2548.1</ele>
        <time>2021-11-07T18:14:34Z</time>
      </trkpt>
      <trkpt lat="45.51361" lon="7.22171">
        <ele>2547.9</ele>
        <time>2021-11-07T18:14:35Z</time>
      </trkpt>
      <trkpt lat="45.51362" lon="7.22169">
        <ele>2547.6</ele>
        <time>2021-11-07T18:14:37Z</time>
      </trkpt>
      <trkpt lat="45.51362" lon="7.22168">
        <ele>2547.5</ele>
        <time>2021-11-07T18:14:38Z</time>
      </trkpt>
      <trkpt lat="45.51363" lon="7.22165">
        <ele>2546.9</ele>
        <time>2021-11-07T18:14:41Z</time>
      </trkpt>
      <trkpt lat="45.51364" lon="7.22162">
        <ele>2546.5</ele>
        <time>2021-11-07T18:14:43Z</time>
      </trkpt>
      <trkpt lat="45.51365" lon="7.22159">
        <ele>2545.9</ele>
        <time>2021-11-07T18:14:46Z</time>
      </trkpt>
      <trkpt lat="45.51366" lon="7.22156">
        <ele>2545.5</ele>
        <time>2021-11-07T18:14:49Z</time>
      </trkpt>
      <trkpt lat="45.51366" lon="7.22155">
        <ele>2545.2</ele>
        <time>2021-11-07T18:14:53Z</time>
      </trkpt>
      <trkpt lat="45.51367" lon="7.22151">
        <ele>2544.6</ele>
        <time>2021-11-07T18:14:58Z</time>
      </trkpt>
      <trkpt lat="45.51366" lon="7.22147">
        <ele>2543.9</ele>
        <time>2021-11-07T18:15:05Z</time>
      </trkpt>
      <trkpt lat="45.51365" lon="7.22147">
        <ele>2543.5</ele>
        <time>2021-11-07T18:15:09Z</time>
      </trkpt>
      <trkpt lat="45.51364" lon="7.22147">
        <ele>2543.4</ele>
        <time>2021-11-07T18:15:10Z</time>
      </trkpt>
      <trkpt lat="45.51361" lon="7.2215">
        <ele>2542.7</ele>
        <time>2021-11-07T18:15:16Z</time>
      </trkpt>
      <trkpt lat="45.51359" lon="7.22152">
        <ele>2542</ele>
        <time>2021-11-07T18:15:23Z</time>
      </trkpt>
      <trkpt lat="45.51358" lon="7.22153">
        <ele>2541.7</ele>
        <time>2021-11-07T18:15:26Z</time>
      </trkpt>
      <trkpt lat="45.51354" lon="7.22157">
        <ele>2540.7</ele>
        <time>2021-11-07T18:15:32Z</time>
      </trkpt>
      <trkpt lat="45.51354" lon="7.22158">
        <ele>2540.6</ele>
        <time>2021-11-07T18:15:33Z</time>
      </trkpt>
      <trkpt lat="45.51352" lon="7.2216">
        <ele>2540.1</ele>
        <time>2021-11-07T18:15:37Z</time>
      </trkpt>
      <trkpt lat="45.51349" lon="7.22163">
        <ele>2539.1</ele>
        <time>2021-11-07T18:15:46Z</time>
      </trkpt>
      <trkpt lat="45.51346" lon="7.22165">
        <ele>2538.4</ele>
        <time>2021-11-07T18:15:52Z</time>
      </trkpt>
      <trkpt lat="45.51344" lon="7.22163">
        <ele>2537.8</ele>
        <time>2021-11-07T18:15:58Z</time>
      </trkpt>
      <trkpt lat="45.51344" lon="7.22162">
        <ele>2537.6</ele>
        <time>2021-11-07T18:16:00Z</time>
      </trkpt>
      <trkpt lat="45.51344" lon="7.22159">
        <ele>2537.1</ele>
        <time>2021-11-07T18:16:05Z</time>
      </trkpt>
      <trkpt lat="45.51344" lon="7.22158">
        <ele>2536.9</ele>
        <time>2021-11-07T18:16:07Z</time>
      </trkpt>
      <trkpt lat="45.51344" lon="7.22155">
        <ele>2536.5</ele>
        <time>2021-11-07T18:16:10Z</time>
      </trkpt>
      <trkpt lat="45.51345" lon="7.22152">
        <ele>2536</ele>
        <time>2021-11-07T18:16:14Z</time>
      </trkpt>
      <trkpt lat="45.51345" lon="7.22151">
        <ele>2535.9</ele>
        <time>2021-11-07T18:16:15Z</time>
      </trkpt>
      <trkpt lat="45.51345" lon="7.22149">
        <ele>2535.5</ele>
        <time>2021-11-07T18:16:19Z</time>
      </trkpt>
      <trkpt lat="45.51345" lon="7.22148">
        <ele>2535.4</ele>
        <time>2021-11-07T18:16:20Z</time>
      </trkpt>
      <trkpt lat="45.51346" lon="7.22143">
        <ele>2534.6</ele>
        <time>2021-11-07T18:16:25Z</time>
      </trkpt>
      <trkpt lat="45.51346" lon="7.22142">
        <ele>2534.4</ele>
        <time>2021-11-07T18:16:26Z</time>
      </trkpt>
      <trkpt lat="45.51346" lon="7.22141">
        <ele>2534.3</ele>
        <time>2021-11-07T18:16:27Z</time>
      </trkpt>
      <trkpt lat="45.51348" lon="7.22131">
        <ele>2532.8</ele>
        <time>2021-11-07T18:16:35Z</time>
      </trkpt>
      <trkpt lat="45.51348" lon="7.22129">
        <ele>2532.7</ele>
        <time>2021-11-07T18:16:36Z</time>
      </trkpt>
      <trkpt lat="45.5135" lon="7.22121">
        <ele>2531.6</ele>
        <time>2021-11-07T18:16:42Z</time>
      </trkpt>
      <trkpt lat="45.5135" lon="7.2212">
        <ele>2531.4</ele>
        <time>2021-11-07T18:16:43Z</time>
      </trkpt>
      <trkpt lat="45.51351" lon="7.22119">
        <ele>2531.1</ele>
        <time>2021-11-07T18:16:45Z</time>
      </trkpt>
      <trkpt lat="45.51351" lon="7.22118">
        <ele>2531</ele>
        <time>2021-11-07T18:16:46Z</time>
      </trkpt>
      <trkpt lat="45.51353" lon="7.22115">
        <ele>2530.5</ele>
        <time>2021-11-07T18:16:50Z</time>
      </trkpt>
      <trkpt lat="45.51353" lon="7.22113">
        <ele>2530.1</ele>
        <time>2021-11-07T18:16:52Z</time>
      </trkpt>
      <trkpt lat="45.51355" lon="7.22108">
        <ele>2529.4</ele>
        <time>2021-11-07T18:16:56Z</time>
      </trkpt>
      <trkpt lat="45.51356" lon="7.22107">
        <ele>2529.2</ele>
        <time>2021-11-07T18:16:57Z</time>
      </trkpt>
      <trkpt lat="45.51356" lon="7.22107">
        <ele>2529.1</ele>
        <time>2021-11-07T18:16:58Z</time>
      </trkpt>
      <trkpt lat="45.51357" lon="7.22105">
        <ele>2528.8</ele>
        <time>2021-11-07T18:17:00Z</time>
      </trkpt>
      <trkpt lat="45.51357" lon="7.22104">
        <ele>2528.7</ele>
        <time>2021-11-07T18:17:01Z</time>
      </trkpt>
      <trkpt lat="45.51358" lon="7.22101">
        <ele>2528.1</ele>
        <time>2021-11-07T18:17:04Z</time>
      </trkpt>
      <trkpt lat="45.51359" lon="7.221">
        <ele>2528</ele>
        <time>2021-11-07T18:17:05Z</time>
      </trkpt>
      <trkpt lat="45.51361" lon="7.22097">
        <ele>2527.3</ele>
        <time>2021-11-07T18:17:09Z</time>
      </trkpt>
      <trkpt lat="45.51361" lon="7.22096">
        <ele>2527.2</ele>
        <time>2021-11-07T18:17:10Z</time>
      </trkpt>
      <trkpt lat="45.51357" lon="7.22093">
        <ele>2526.2</ele>
        <time>2021-11-07T18:17:19Z</time>
      </trkpt>
      <trkpt lat="45.51354" lon="7.22096">
        <ele>2525.5</ele>
        <time>2021-11-07T18:17:23Z</time>
      </trkpt>
      <trkpt lat="45.51352" lon="7.22098">
        <ele>2524.9</ele>
        <time>2021-11-07T18:17:26Z</time>
      </trkpt>
      <trkpt lat="45.51349" lon="7.221">
        <ele>2524.3</ele>
        <time>2021-11-07T18:17:29Z</time>
      </trkpt>
      <trkpt lat="45.51349" lon="7.221">
        <ele>2524.2</ele>
        <time>2021-11-07T18:17:30Z</time>
      </trkpt>
      <trkpt lat="45.51348" lon="7.22101">
        <ele>2524</ele>
        <time>2021-11-07T18:17:36Z</time>
      </trkpt>
      <trkpt lat="45.51348" lon="7.22101">
        <ele>2523.9</ele>
        <time>2021-11-07T18:17:38Z</time>
      </trkpt>
      <trkpt lat="45.51349" lon="7.221">
        <ele>2523.8</ele>
        <time>2021-11-07T18:17:47Z</time>
      </trkpt>
      <trkpt lat="45.51349" lon="7.221">
        <ele>2523.7</ele>
        <time>2021-11-07T18:17:50Z</time>
      </trkpt>
      <trkpt lat="45.51342" lon="7.22104">
        <ele>2522</ele>
        <time>2021-11-07T18:17:59Z</time>
      </trkpt>
      <trkpt lat="45.51338" lon="7.22109">
        <ele>2520.7</ele>
        <time>2021-11-07T18:18:04Z</time>
      </trkpt>
      <trkpt lat="45.51336" lon="7.2211">
        <ele>2520.3</ele>
        <time>2021-11-07T18:18:06Z</time>
      </trkpt>
      <trkpt lat="45.51336" lon="7.22111">
        <ele>2520.1</ele>
        <time>2021-11-07T18:18:08Z</time>
      </trkpt>
      <trkpt lat="45.51334" lon="7.22107">
        <ele>2519.3</ele>
        <time>2021-11-07T18:18:15Z</time>
      </trkpt>
      <trkpt lat="45.51335" lon="7.22105">
        <ele>2518.9</ele>
        <time>2021-11-07T18:18:17Z</time>
      </trkpt>
      <trkpt lat="45.51335" lon="7.22102">
        <ele>2518.4</ele>
        <time>2021-11-07T18:18:19Z</time>
      </trkpt>
      <trkpt lat="45.51336" lon="7.22098">
        <ele>2517.6</ele>
        <time>2021-11-07T18:18:22Z</time>
      </trkpt>
      <trkpt lat="45.51338" lon="7.22095">
        <ele>2516.9</ele>
        <time>2021-11-07T18:18:25Z</time>
      </trkpt>
      <trkpt lat="45.51338" lon="7.22094">
        <ele>2516.7</ele>
        <time>2021-11-07T18:18:26Z</time>
      </trkpt>
      <trkpt lat="45.51339" lon="7.22092">
        <ele>2516.3</ele>
        <time>2021-11-07T18:18:28Z</time>
      </trkpt>
      <trkpt lat="45.51339" lon="7.22091">
        <ele>2516.2</ele>
        <time>2021-11-07T18:18:29Z</time>
      </trkpt>
      <trkpt lat="45.5134" lon="7.2209">
        <ele>2515.8</ele>
        <time>2021-11-07T18:18:31Z</time>
      </trkpt>
      <trkpt lat="45.51342" lon="7.22088">
        <ele>2515.4</ele>
        <time>2021-11-07T18:18:33Z</time>
      </trkpt>
      <trkpt lat="45.51342" lon="7.22087">
        <ele>2515.3</ele>
        <time>2021-11-07T18:18:34Z</time>
      </trkpt>
      <trkpt lat="45.51343" lon="7.22084">
        <ele>2514.7</ele>
        <time>2021-11-07T18:18:37Z</time>
      </trkpt>
      <trkpt lat="45.51344" lon="7.22082">
        <ele>2514.3</ele>
        <time>2021-11-07T18:18:39Z</time>
      </trkpt>
      <trkpt lat="45.51344" lon="7.22081">
        <ele>2514.1</ele>
        <time>2021-11-07T18:18:40Z</time>
      </trkpt>
      <trkpt lat="45.51346" lon="7.22075">
        <ele>2513.3</ele>
        <time>2021-11-07T18:18:45Z</time>
      </trkpt>
      <trkpt lat="45.51346" lon="7.22075">
        <ele>2513.1</ele>
        <time>2021-11-07T18:18:46Z</time>
      </trkpt>
      <trkpt lat="45.51349" lon="7.2207">
        <ele>2512.3</ele>
        <time>2021-11-07T18:18:52Z</time>
      </trkpt>
      <trkpt lat="45.5135" lon="7.22069">
        <ele>2511.9</ele>
        <time>2021-11-07T18:18:54Z</time>
      </trkpt>
      <trkpt lat="45.51351" lon="7.22068">
        <ele>2511.8</ele>
        <time>2021-11-07T18:18:55Z</time>
      </trkpt>
      <trkpt lat="45.51351" lon="7.22067">
        <ele>2511.6</ele>
        <time>2021-11-07T18:18:56Z</time>
      </trkpt>
      <trkpt lat="45.51352" lon="7.22066">
        <ele>2511.4</ele>
        <time>2021-11-07T18:18:57Z</time>
      </trkpt>
      <trkpt lat="45.51353" lon="7.22065">
        <ele>2511.2</ele>
        <time>2021-11-07T18:18:58Z</time>
      </trkpt>
      <trkpt lat="45.51354" lon="7.22064">
        <ele>2511</ele>
        <time>2021-11-07T18:18:59Z</time>
      </trkpt>
      <trkpt lat="45.51354" lon="7.22063">
        <ele>2510.8</ele>
        <time>2021-11-07T18:19:00Z</time>
      </trkpt>
      <trkpt lat="45.51357" lon="7.22061">
        <ele>2510.3</ele>
        <time>2021-11-07T18:19:03Z</time>
      </trkpt>
      <trkpt lat="45.51358" lon="7.2206">
        <ele>2510</ele>
        <time>2021-11-07T18:19:05Z</time>
      </trkpt>
      <trkpt lat="45.51359" lon="7.22059">
        <ele>2509.7</ele>
        <time>2021-11-07T18:19:07Z</time>
      </trkpt>
      <trkpt lat="45.5136" lon="7.22057">
        <ele>2509.5</ele>
        <time>2021-11-07T18:19:09Z</time>
      </trkpt>
      <trkpt lat="45.51361" lon="7.22052">
        <ele>2508.9</ele>
        <time>2021-11-07T18:19:13Z</time>
      </trkpt>
      <trkpt lat="45.51362" lon="7.2205">
        <ele>2508.6</ele>
        <time>2021-11-07T18:19:15Z</time>
      </trkpt>
      <trkpt lat="45.51363" lon="7.22043">
        <ele>2507.7</ele>
        <time>2021-11-07T18:19:20Z</time>
      </trkpt>
      <trkpt lat="45.51365" lon="7.22037">
        <ele>2507.1</ele>
        <time>2021-11-07T18:19:24Z</time>
      </trkpt>
      <trkpt lat="45.51367" lon="7.22032">
        <ele>2506.4</ele>
        <time>2021-11-07T18:19:28Z</time>
      </trkpt>
      <trkpt lat="45.51367" lon="7.22028">
        <ele>2506</ele>
        <time>2021-11-07T18:19:31Z</time>
      </trkpt>
      <trkpt lat="45.51368" lon="7.22025">
        <ele>2505.5</ele>
        <time>2021-11-07T18:19:34Z</time>
      </trkpt>
      <trkpt lat="45.51368" lon="7.22021">
        <ele>2504.9</ele>
        <time>2021-11-07T18:19:37Z</time>
      </trkpt>
      <trkpt lat="45.51367" lon="7.22014">
        <ele>2503.9</ele>
        <time>2021-11-07T18:19:43Z</time>
      </trkpt>
      <trkpt lat="45.51367" lon="7.22013">
        <ele>2503.8</ele>
        <time>2021-11-07T18:19:44Z</time>
      </trkpt>
      <trkpt lat="45.51368" lon="7.22012">
        <ele>2503.6</ele>
        <time>2021-11-07T18:19:45Z</time>
      </trkpt>
      <trkpt lat="45.51367" lon="7.2201">
        <ele>2503.3</ele>
        <time>2021-11-07T18:19:47Z</time>
      </trkpt>
      <trkpt lat="45.51367" lon="7.22008">
        <ele>2502.9</ele>
        <time>2021-11-07T18:19:49Z</time>
      </trkpt>
      <trkpt lat="45.51366" lon="7.22004">
        <ele>2502.2</ele>
        <time>2021-11-07T18:19:53Z</time>
      </trkpt>
      <trkpt lat="45.51366" lon="7.22003">
        <ele>2501.9</ele>
        <time>2021-11-07T18:19:55Z</time>
      </trkpt>
      <trkpt lat="45.51363" lon="7.21992">
        <ele>2499.6</ele>
        <time>2021-11-07T18:20:05Z</time>
      </trkpt>
      <trkpt lat="45.51362" lon="7.21987">
        <ele>2498.9</ele>
        <time>2021-11-07T18:20:09Z</time>
      </trkpt>
      <trkpt lat="45.51362" lon="7.2198">
        <ele>2497.9</ele>
        <time>2021-11-07T18:20:14Z</time>
      </trkpt>
      <trkpt lat="45.51362" lon="7.21979">
        <ele>2497.7</ele>
        <time>2021-11-07T18:20:15Z</time>
      </trkpt>
      <trkpt lat="45.51362" lon="7.21977">
        <ele>2497.5</ele>
        <time>2021-11-07T18:20:16Z</time>
      </trkpt>
      <trkpt lat="45.51361" lon="7.21975">
        <ele>2497.1</ele>
        <time>2021-11-07T18:20:18Z</time>
      </trkpt>
      <trkpt lat="45.51361" lon="7.2197">
        <ele>2496.4</ele>
        <time>2021-11-07T18:20:22Z</time>
      </trkpt>
      <trkpt lat="45.51361" lon="7.21969">
        <ele>2496.2</ele>
        <time>2021-11-07T18:20:23Z</time>
      </trkpt>
      <trkpt lat="45.5136" lon="7.21962">
        <ele>2495.1</ele>
        <time>2021-11-07T18:20:28Z</time>
      </trkpt>
      <trkpt lat="45.5136" lon="7.21961">
        <ele>2494.9</ele>
        <time>2021-11-07T18:20:29Z</time>
      </trkpt>
      <trkpt lat="45.5136" lon="7.2196">
        <ele>2494.7</ele>
        <time>2021-11-07T18:20:30Z</time>
      </trkpt>
      <trkpt lat="45.51359" lon="7.21953">
        <ele>2493.6</ele>
        <time>2021-11-07T18:20:35Z</time>
      </trkpt>
      <trkpt lat="45.5136" lon="7.21949">
        <ele>2493</ele>
        <time>2021-11-07T18:20:38Z</time>
      </trkpt>
      <trkpt lat="45.5136" lon="7.21946">
        <ele>2492.5</ele>
        <time>2021-11-07T18:20:41Z</time>
      </trkpt>
      <trkpt lat="45.5136" lon="7.21942">
        <ele>2492</ele>
        <time>2021-11-07T18:20:44Z</time>
      </trkpt>
      <trkpt lat="45.5136" lon="7.21939">
        <ele>2491.5</ele>
        <time>2021-11-07T18:20:47Z</time>
      </trkpt>
      <trkpt lat="45.5136" lon="7.21935">
        <ele>2490.8</ele>
        <time>2021-11-07T18:20:50Z</time>
      </trkpt>
      <trkpt lat="45.5136" lon="7.2193">
        <ele>2490.1</ele>
        <time>2021-11-07T18:20:54Z</time>
      </trkpt>
      <trkpt lat="45.5136" lon="7.21928">
        <ele>2489.8</ele>
        <time>2021-11-07T18:20:56Z</time>
      </trkpt>
      <trkpt lat="45.51359" lon="7.21925">
        <ele>2489.2</ele>
        <time>2021-11-07T18:20:59Z</time>
      </trkpt>
      <trkpt lat="45.51359" lon="7.21923">
        <ele>2488.9</ele>
        <time>2021-11-07T18:21:00Z</time>
      </trkpt>
      <trkpt lat="45.51359" lon="7.21919">
        <ele>2488.2</ele>
        <time>2021-11-07T18:21:03Z</time>
      </trkpt>
      <trkpt lat="45.5136" lon="7.21918">
        <ele>2488</ele>
        <time>2021-11-07T18:21:04Z</time>
      </trkpt>
      <trkpt lat="45.5136" lon="7.21913">
        <ele>2487.3</ele>
        <time>2021-11-07T18:21:08Z</time>
      </trkpt>
      <trkpt lat="45.51359" lon="7.21912">
        <ele>2487</ele>
        <time>2021-11-07T18:21:09Z</time>
      </trkpt>
      <trkpt lat="45.51359" lon="7.21911">
        <ele>2486.8</ele>
        <time>2021-11-07T18:21:10Z</time>
      </trkpt>
      <trkpt lat="45.51359" lon="7.21907">
        <ele>2486.2</ele>
        <time>2021-11-07T18:21:13Z</time>
      </trkpt>
      <trkpt lat="45.51359" lon="7.21903">
        <ele>2485.3</ele>
        <time>2021-11-07T18:21:17Z</time>
      </trkpt>
      <trkpt lat="45.51358" lon="7.21903">
        <ele>2485.1</ele>
        <time>2021-11-07T18:21:19Z</time>
      </trkpt>
      <trkpt lat="45.51357" lon="7.21906">
        <ele>2484.8</ele>
        <time>2021-11-07T18:21:22Z</time>
      </trkpt>
      <trkpt lat="45.51354" lon="7.21914">
        <ele>2483.8</ele>
        <time>2021-11-07T18:21:28Z</time>
      </trkpt>
      <trkpt lat="45.51351" lon="7.21921">
        <ele>2483</ele>
        <time>2021-11-07T18:21:33Z</time>
      </trkpt>
      <trkpt lat="45.51349" lon="7.21925">
        <ele>2482.5</ele>
        <time>2021-11-07T18:21:37Z</time>
      </trkpt>
      <trkpt lat="45.51347" lon="7.21931">
        <ele>2482</ele>
        <time>2021-11-07T18:21:41Z</time>
      </trkpt>
      <trkpt lat="45.51343" lon="7.21942">
        <ele>2480.8</ele>
        <time>2021-11-07T18:21:49Z</time>
      </trkpt>
      <trkpt lat="45.5134" lon="7.2195">
        <ele>2479.9</ele>
        <time>2021-11-07T18:21:55Z</time>
      </trkpt>
      <trkpt lat="45.5134" lon="7.21951">
        <ele>2479.8</ele>
        <time>2021-11-07T18:21:56Z</time>
      </trkpt>
      <trkpt lat="45.51338" lon="7.21957">
        <ele>2479</ele>
        <time>2021-11-07T18:22:00Z</time>
      </trkpt>
      <trkpt lat="45.51338" lon="7.21958">
        <ele>2478.8</ele>
        <time>2021-11-07T18:22:01Z</time>
      </trkpt>
      <trkpt lat="45.51335" lon="7.21964">
        <ele>2478</ele>
        <time>2021-11-07T18:22:05Z</time>
      </trkpt>
      <trkpt lat="45.51335" lon="7.21965">
        <ele>2477.8</ele>
        <time>2021-11-07T18:22:06Z</time>
      </trkpt>
      <trkpt lat="45.51334" lon="7.21966">
        <ele>2477.5</ele>
        <time>2021-11-07T18:22:08Z</time>
      </trkpt>
      <trkpt lat="45.51333" lon="7.21968">
        <ele>2477.2</ele>
        <time>2021-11-07T18:22:10Z</time>
      </trkpt>
      <trkpt lat="45.51331" lon="7.21971">
        <ele>2476.7</ele>
        <time>2021-11-07T18:22:15Z</time>
      </trkpt>
      <trkpt lat="45.5133" lon="7.21972">
        <ele>2476.5</ele>
        <time>2021-11-07T18:22:17Z</time>
      </trkpt>
      <trkpt lat="45.5133" lon="7.21974">
        <ele>2476.3</ele>
        <time>2021-11-07T18:22:18Z</time>
      </trkpt>
      <trkpt lat="45.51329" lon="7.21974">
        <ele>2476.2</ele>
        <time>2021-11-07T18:22:19Z</time>
      </trkpt>
      <trkpt lat="45.51328" lon="7.21975">
        <ele>2476</ele>
        <time>2021-11-07T18:22:20Z</time>
      </trkpt>
      <trkpt lat="45.51324" lon="7.21977">
        <ele>2475.3</ele>
        <time>2021-11-07T18:22:24Z</time>
      </trkpt>
      <trkpt lat="45.51323" lon="7.21977">
        <ele>2475</ele>
        <time>2021-11-07T18:22:26Z</time>
      </trkpt>
      <trkpt lat="45.51322" lon="7.21977">
        <ele>2474.9</ele>
        <time>2021-11-07T18:22:27Z</time>
      </trkpt>
      <trkpt lat="45.51322" lon="7.21975">
        <ele>2474.6</ele>
        <time>2021-11-07T18:22:29Z</time>
      </trkpt>
      <trkpt lat="45.51322" lon="7.21974">
        <ele>2474.5</ele>
        <time>2021-11-07T18:22:30Z</time>
      </trkpt>
      <trkpt lat="45.51323" lon="7.21974">
        <ele>2474.4</ele>
        <time>2021-11-07T18:22:31Z</time>
      </trkpt>
      <trkpt lat="45.51324" lon="7.21971">
        <ele>2474</ele>
        <time>2021-11-07T18:22:34Z</time>
      </trkpt>
      <trkpt lat="45.51325" lon="7.21968">
        <ele>2473.5</ele>
        <time>2021-11-07T18:22:37Z</time>
      </trkpt>
      <trkpt lat="45.51325" lon="7.21967">
        <ele>2473.4</ele>
        <time>2021-11-07T18:22:38Z</time>
      </trkpt>
      <trkpt lat="45.51326" lon="7.21964">
        <ele>2473</ele>
        <time>2021-11-07T18:22:40Z</time>
      </trkpt>
      <trkpt lat="45.51327" lon="7.21959">
        <ele>2472.4</ele>
        <time>2021-11-07T18:22:44Z</time>
      </trkpt>
      <trkpt lat="45.51327" lon="7.21955">
        <ele>2471.9</ele>
        <time>2021-11-07T18:22:47Z</time>
      </trkpt>
      <trkpt lat="45.51327" lon="7.21952">
        <ele>2471.6</ele>
        <time>2021-11-07T18:22:49Z</time>
      </trkpt>
      <trkpt lat="45.51327" lon="7.21951">
        <ele>2471.5</ele>
        <time>2021-11-07T18:22:50Z</time>
      </trkpt>
      <trkpt lat="45.51326" lon="7.21951">
        <ele>2471.4</ele>
        <time>2021-11-07T18:22:51Z</time>
      </trkpt>
      <trkpt lat="45.51326" lon="7.21949">
        <ele>2471.1</ele>
        <time>2021-11-07T18:22:54Z</time>
      </trkpt>
      <trkpt lat="45.51325" lon="7.21948">
        <ele>2471</ele>
        <time>2021-11-07T18:22:56Z</time>
      </trkpt>
      <trkpt lat="45.51325" lon="7.21946">
        <ele>2470.8</ele>
        <time>2021-11-07T18:23:02Z</time>
      </trkpt>
      <trkpt lat="45.51325" lon="7.21946">
        <ele>2470.8</ele>
        <time>2021-11-07T18:23:03Z</time>
      </trkpt>
      <trkpt lat="45.51325" lon="7.21945">
        <ele>2470.7</ele>
        <time>2021-11-07T18:23:05Z</time>
      </trkpt>
      <trkpt lat="45.51326" lon="7.21942">
        <ele>2470.3</ele>
        <time>2021-11-07T18:23:09Z</time>
      </trkpt>
      <trkpt lat="45.51326" lon="7.2194">
        <ele>2470.1</ele>
        <time>2021-11-07T18:23:10Z</time>
      </trkpt>
      <trkpt lat="45.51327" lon="7.21936">
        <ele>2469.7</ele>
        <time>2021-11-07T18:23:13Z</time>
      </trkpt>
      <trkpt lat="45.51326" lon="7.21933">
        <ele>2469.4</ele>
        <time>2021-11-07T18:23:15Z</time>
      </trkpt>
      <trkpt lat="45.51327" lon="7.21932">
        <ele>2469.2</ele>
        <time>2021-11-07T18:23:16Z</time>
      </trkpt>
      <trkpt lat="45.51327" lon="7.21928">
        <ele>2468.9</ele>
        <time>2021-11-07T18:23:19Z</time>
      </trkpt>
      <trkpt lat="45.51327" lon="7.21925">
        <ele>2468.6</ele>
        <time>2021-11-07T18:23:21Z</time>
      </trkpt>
      <trkpt lat="45.51327" lon="7.21924">
        <ele>2468.5</ele>
        <time>2021-11-07T18:23:22Z</time>
      </trkpt>
      <trkpt lat="45.51327" lon="7.21923">
        <ele>2468.4</ele>
        <time>2021-11-07T18:23:23Z</time>
      </trkpt>
      <trkpt lat="45.51328" lon="7.2192">
        <ele>2468.1</ele>
        <time>2021-11-07T18:23:26Z</time>
      </trkpt>
      <trkpt lat="45.51328" lon="7.21915">
        <ele>2467.6</ele>
        <time>2021-11-07T18:23:30Z</time>
      </trkpt>
      <trkpt lat="45.5133" lon="7.21909">
        <ele>2467.1</ele>
        <time>2021-11-07T18:23:34Z</time>
      </trkpt>
      <trkpt lat="45.5133" lon="7.21907">
        <ele>2466.8</ele>
        <time>2021-11-07T18:23:36Z</time>
      </trkpt>
      <trkpt lat="45.51331" lon="7.21904">
        <ele>2466.6</ele>
        <time>2021-11-07T18:23:38Z</time>
      </trkpt>
      <trkpt lat="45.51331" lon="7.21902">
        <ele>2466.4</ele>
        <time>2021-11-07T18:23:40Z</time>
      </trkpt>
      <trkpt lat="45.51333" lon="7.21898">
        <ele>2466</ele>
        <time>2021-11-07T18:23:44Z</time>
      </trkpt>
      <trkpt lat="45.51333" lon="7.21896">
        <ele>2465.9</ele>
        <time>2021-11-07T18:23:45Z</time>
      </trkpt>
      <trkpt lat="45.51334" lon="7.21893">
        <ele>2465.6</ele>
        <time>2021-11-07T18:23:48Z</time>
      </trkpt>
      <trkpt lat="45.51336" lon="7.21885">
        <ele>2465.2</ele>
        <time>2021-11-07T18:23:53Z</time>
      </trkpt>
      <trkpt lat="45.51337" lon="7.21883">
        <ele>2465</ele>
        <time>2021-11-07T18:23:55Z</time>
      </trkpt>
      <trkpt lat="45.51341" lon="7.21874">
        <ele>2464.7</ele>
        <time>2021-11-07T18:24:02Z</time>
      </trkpt>
      <trkpt lat="45.51346" lon="7.21863">
        <ele>2464.4</ele>
        <time>2021-11-07T18:24:11Z</time>
      </trkpt>
      <trkpt lat="45.51349" lon="7.21859">
        <ele>2464.2</ele>
        <time>2021-11-07T18:24:15Z</time>
      </trkpt>
      <trkpt lat="45.5135" lon="7.21856">
        <ele>2464.1</ele>
        <time>2021-11-07T18:24:17Z</time>
      </trkpt>
      <trkpt lat="45.5135" lon="7.21855">
        <ele>2464.1</ele>
        <time>2021-11-07T18:24:18Z</time>
      </trkpt>
      <trkpt lat="45.51351" lon="7.21854">
        <ele>2464</ele>
        <time>2021-11-07T18:24:19Z</time>
      </trkpt>
      <trkpt lat="45.51354" lon="7.21846">
        <ele>2463.6</ele>
        <time>2021-11-07T18:24:25Z</time>
      </trkpt>
      <trkpt lat="45.51357" lon="7.21838">
        <ele>2463.1</ele>
        <time>2021-11-07T18:24:32Z</time>
      </trkpt>
      <trkpt lat="45.51357" lon="7.21837">
        <ele>2463</ele>
        <time>2021-11-07T18:24:33Z</time>
      </trkpt>
      <trkpt lat="45.51358" lon="7.21834">
        <ele>2462.9</ele>
        <time>2021-11-07T18:24:35Z</time>
      </trkpt>
      <trkpt lat="45.51359" lon="7.21831">
        <ele>2462.7</ele>
        <time>2021-11-07T18:24:37Z</time>
      </trkpt>
      <trkpt lat="45.51362" lon="7.21824">
        <ele>2462.1</ele>
        <time>2021-11-07T18:24:43Z</time>
      </trkpt>
      <trkpt lat="45.51363" lon="7.21822">
        <ele>2462</ele>
        <time>2021-11-07T18:24:44Z</time>
      </trkpt>
      <trkpt lat="45.51365" lon="7.21818">
        <ele>2461.6</ele>
        <time>2021-11-07T18:24:48Z</time>
      </trkpt>
      <trkpt lat="45.51366" lon="7.21815">
        <ele>2461.4</ele>
        <time>2021-11-07T18:24:50Z</time>
      </trkpt>
      <trkpt lat="45.51367" lon="7.21814">
        <ele>2461.3</ele>
        <time>2021-11-07T18:24:51Z</time>
      </trkpt>
      <trkpt lat="45.51372" lon="7.21806">
        <ele>2460.6</ele>
        <time>2021-11-07T18:24:59Z</time>
      </trkpt>
      <trkpt lat="45.51372" lon="7.21805">
        <ele>2460.5</ele>
        <time>2021-11-07T18:25:00Z</time>
      </trkpt>
      <trkpt lat="45.51377" lon="7.21798">
        <ele>2459.8</ele>
        <time>2021-11-07T18:25:07Z</time>
      </trkpt>
      <trkpt lat="45.51378" lon="7.21795">
        <ele>2459.6</ele>
        <time>2021-11-07T18:25:10Z</time>
      </trkpt>
      <trkpt lat="45.51379" lon="7.21794">
        <ele>2459.5</ele>
        <time>2021-11-07T18:25:11Z</time>
      </trkpt>
      <trkpt lat="45.51381" lon="7.21791">
        <ele>2459.1</ele>
        <time>2021-11-07T18:25:15Z</time>
      </trkpt>
      <trkpt lat="45.51383" lon="7.21789">
        <ele>2458.9</ele>
        <time>2021-11-07T18:25:17Z</time>
      </trkpt>
      <trkpt lat="45.51384" lon="7.21787">
        <ele>2458.7</ele>
        <time>2021-11-07T18:25:19Z</time>
      </trkpt>
      <trkpt lat="45.51388" lon="7.21781">
        <ele>2458</ele>
        <time>2021-11-07T18:25:25Z</time>
      </trkpt>
      <trkpt lat="45.51392" lon="7.21776">
        <ele>2457.4</ele>
        <time>2021-11-07T18:25:31Z</time>
      </trkpt>
      <trkpt lat="45.51394" lon="7.21773">
        <ele>2456.8</ele>
        <time>2021-11-07T18:25:34Z</time>
      </trkpt>
      <trkpt lat="45.51395" lon="7.21772">
        <ele>2456.6</ele>
        <time>2021-11-07T18:25:35Z</time>
      </trkpt>
      <trkpt lat="45.51399" lon="7.21762">
        <ele>2455.2</ele>
        <time>2021-11-07T18:25:45Z</time>
      </trkpt>
      <trkpt lat="45.51402" lon="7.21759">
        <ele>2454.4</ele>
        <time>2021-11-07T18:25:50Z</time>
      </trkpt>
      <trkpt lat="45.51403" lon="7.21759">
        <ele>2454.4</ele>
        <time>2021-11-07T18:25:51Z</time>
      </trkpt>
      <trkpt lat="45.51402" lon="7.21758">
        <ele>2454.2</ele>
        <time>2021-11-07T18:25:54Z</time>
      </trkpt>
      <trkpt lat="45.51402" lon="7.21757">
        <ele>2454.1</ele>
        <time>2021-11-07T18:25:55Z</time>
      </trkpt>
      <trkpt lat="45.514" lon="7.21757">
        <ele>2453.8</ele>
        <time>2021-11-07T18:25:57Z</time>
      </trkpt>
      <trkpt lat="45.51395" lon="7.2176">
        <ele>2452.7</ele>
        <time>2021-11-07T18:26:04Z</time>
      </trkpt>
      <trkpt lat="45.51391" lon="7.21764">
        <ele>2451.9</ele>
        <time>2021-11-07T18:26:09Z</time>
      </trkpt>
      <trkpt lat="45.51389" lon="7.21765">
        <ele>2451.5</ele>
        <time>2021-11-07T18:26:11Z</time>
      </trkpt>
      <trkpt lat="45.51388" lon="7.21766">
        <ele>2451.4</ele>
        <time>2021-11-07T18:26:12Z</time>
      </trkpt>
      <trkpt lat="45.51384" lon="7.21768">
        <ele>2450.6</ele>
        <time>2021-11-07T18:26:17Z</time>
      </trkpt>
      <trkpt lat="45.51377" lon="7.21772">
        <ele>2449.5</ele>
        <time>2021-11-07T18:26:24Z</time>
      </trkpt>
      <trkpt lat="45.51376" lon="7.21773">
        <ele>2449.4</ele>
        <time>2021-11-07T18:26:26Z</time>
      </trkpt>
      <trkpt lat="45.51374" lon="7.21774">
        <ele>2449</ele>
        <time>2021-11-07T18:26:29Z</time>
      </trkpt>
      <trkpt lat="45.51373" lon="7.21775">
        <ele>2448.9</ele>
        <time>2021-11-07T18:26:30Z</time>
      </trkpt>
      <trkpt lat="45.51365" lon="7.21786">
        <ele>2447.8</ele>
        <time>2021-11-07T18:26:40Z</time>
      </trkpt>
      <trkpt lat="45.51364" lon="7.21787">
        <ele>2447.7</ele>
        <time>2021-11-07T18:26:41Z</time>
      </trkpt>
      <trkpt lat="45.51362" lon="7.21789">
        <ele>2447.6</ele>
        <time>2021-11-07T18:26:43Z</time>
      </trkpt>
      <trkpt lat="45.51358" lon="7.21794">
        <ele>2447.2</ele>
        <time>2021-11-07T18:26:48Z</time>
      </trkpt>
      <trkpt lat="45.51355" lon="7.21798">
        <ele>2446.9</ele>
        <time>2021-11-07T18:26:52Z</time>
      </trkpt>
      <trkpt lat="45.5135" lon="7.21805">
        <ele>2446.2</ele>
        <time>2021-11-07T18:26:59Z</time>
      </trkpt>
      <trkpt lat="45.51347" lon="7.21808">
        <ele>2445.7</ele>
        <time>2021-11-07T18:27:03Z</time>
      </trkpt>
      <trkpt lat="45.51345" lon="7.2181">
        <ele>2445.2</ele>
        <time>2021-11-07T18:27:08Z</time>
      </trkpt>
      <trkpt lat="45.51343" lon="7.21811">
        <ele>2445</ele>
        <time>2021-11-07T18:27:10Z</time>
      </trkpt>
      <trkpt lat="45.51342" lon="7.21812">
        <ele>2444.8</ele>
        <time>2021-11-07T18:27:11Z</time>
      </trkpt>
      <trkpt lat="45.51338" lon="7.21813">
        <ele>2444</ele>
        <time>2021-11-07T18:27:19Z</time>
      </trkpt>
      <trkpt lat="45.51337" lon="7.21813">
        <ele>2443.9</ele>
        <time>2021-11-07T18:27:20Z</time>
      </trkpt>
      <trkpt lat="45.51336" lon="7.21813">
        <ele>2443.6</ele>
        <time>2021-11-07T18:27:23Z</time>
      </trkpt>
      <trkpt lat="45.51335" lon="7.21814">
        <ele>2443.5</ele>
        <time>2021-11-07T18:27:25Z</time>
      </trkpt>
      <trkpt lat="45.51335" lon="7.21814">
        <ele>2443.4</ele>
        <time>2021-11-07T18:27:30Z</time>
      </trkpt>
      <trkpt lat="45.51333" lon="7.21814">
        <ele>2443.1</ele>
        <time>2021-11-07T18:27:34Z</time>
      </trkpt>
      <trkpt lat="45.51334" lon="7.21811">
        <ele>2442.6</ele>
        <time>2021-11-07T18:27:37Z</time>
      </trkpt>
      <trkpt lat="45.51335" lon="7.21807">
        <ele>2442.1</ele>
        <time>2021-11-07T18:27:40Z</time>
      </trkpt>
      <trkpt lat="45.51335" lon="7.21804">
        <ele>2441.5</ele>
        <time>2021-11-07T18:27:44Z</time>
      </trkpt>
      <trkpt lat="45.51336" lon="7.218">
        <ele>2440.8</ele>
        <time>2021-11-07T18:27:49Z</time>
      </trkpt>
      <trkpt lat="45.51338" lon="7.21797">
        <ele>2440.2</ele>
        <time>2021-11-07T18:27:55Z</time>
      </trkpt>
      <trkpt lat="45.51338" lon="7.21796">
        <ele>2440</ele>
        <time>2021-11-07T18:27:56Z</time>
      </trkpt>
      <trkpt lat="45.51338" lon="7.21795">
        <ele>2439.8</ele>
        <time>2021-11-07T18:27:57Z</time>
      </trkpt>
      <trkpt lat="45.51339" lon="7.21795">
        <ele>2439.7</ele>
        <time>2021-11-07T18:27:58Z</time>
      </trkpt>
      <trkpt lat="45.51339" lon="7.21792">
        <ele>2439.2</ele>
        <time>2021-11-07T18:28:01Z</time>
      </trkpt>
      <trkpt lat="45.51341" lon="7.2179">
        <ele>2438.7</ele>
        <time>2021-11-07T18:28:04Z</time>
      </trkpt>
      <trkpt lat="45.51342" lon="7.21788">
        <ele>2438.2</ele>
        <time>2021-11-07T18:28:07Z</time>
      </trkpt>
      <trkpt lat="45.51342" lon="7.21787">
        <ele>2438</ele>
        <time>2021-11-07T18:28:08Z</time>
      </trkpt>
      <trkpt lat="45.51342" lon="7.21785">
        <ele>2437.6</ele>
        <time>2021-11-07T18:28:10Z</time>
      </trkpt>
      <trkpt lat="45.51342" lon="7.21781">
        <ele>2437</ele>
        <time>2021-11-07T18:28:14Z</time>
      </trkpt>
      <trkpt lat="45.51342" lon="7.2178">
        <ele>2436.7</ele>
        <time>2021-11-07T18:28:15Z</time>
      </trkpt>
      <trkpt lat="45.51343" lon="7.21777">
        <ele>2436.1</ele>
        <time>2021-11-07T18:28:18Z</time>
      </trkpt>
      <trkpt lat="45.51343" lon="7.21776">
        <ele>2435.9</ele>
        <time>2021-11-07T18:28:19Z</time>
      </trkpt>
      <trkpt lat="45.51344" lon="7.21774">
        <ele>2435.4</ele>
        <time>2021-11-07T18:28:21Z</time>
      </trkpt>
      <trkpt lat="45.51346" lon="7.2177">
        <ele>2434.6</ele>
        <time>2021-11-07T18:28:24Z</time>
      </trkpt>
      <trkpt lat="45.51347" lon="7.21767">
        <ele>2433.8</ele>
        <time>2021-11-07T18:28:28Z</time>
      </trkpt>
      <trkpt lat="45.51349" lon="7.21761">
        <ele>2432.6</ele>
        <time>2021-11-07T18:28:33Z</time>
      </trkpt>
      <trkpt lat="45.5135" lon="7.21759">
        <ele>2432.3</ele>
        <time>2021-11-07T18:28:34Z</time>
      </trkpt>
      <trkpt lat="45.51351" lon="7.21755">
        <ele>2431.4</ele>
        <time>2021-11-07T18:28:38Z</time>
      </trkpt>
      <trkpt lat="45.51353" lon="7.21751">
        <ele>2430.6</ele>
        <time>2021-11-07T18:28:42Z</time>
      </trkpt>
      <trkpt lat="45.51355" lon="7.21749">
        <ele>2430.1</ele>
        <time>2021-11-07T18:28:44Z</time>
      </trkpt>
      <trkpt lat="45.51355" lon="7.21748">
        <ele>2429.9</ele>
        <time>2021-11-07T18:28:45Z</time>
      </trkpt>
      <trkpt lat="45.51357" lon="7.21746">
        <ele>2429.3</ele>
        <time>2021-11-07T18:28:48Z</time>
      </trkpt>
      <trkpt lat="45.51357" lon="7.21744">
        <ele>2429</ele>
        <time>2021-11-07T18:28:49Z</time>
      </trkpt>
      <trkpt lat="45.51359" lon="7.21741">
        <ele>2428.3</ele>
        <time>2021-11-07T18:28:52Z</time>
      </trkpt>
      <trkpt lat="45.51361" lon="7.21734">
        <ele>2427</ele>
        <time>2021-11-07T18:28:57Z</time>
      </trkpt>
      <trkpt lat="45.51363" lon="7.21731">
        <ele>2426.3</ele>
        <time>2021-11-07T18:29:00Z</time>
      </trkpt>
      <trkpt lat="45.51366" lon="7.21726">
        <ele>2425.4</ele>
        <time>2021-11-07T18:29:05Z</time>
      </trkpt>
      <trkpt lat="45.51367" lon="7.21724">
        <ele>2425</ele>
        <time>2021-11-07T18:29:07Z</time>
      </trkpt>
      <trkpt lat="45.51368" lon="7.21721">
        <ele>2424.4</ele>
        <time>2021-11-07T18:29:10Z</time>
      </trkpt>
      <trkpt lat="45.51369" lon="7.21716">
        <ele>2423.7</ele>
        <time>2021-11-07T18:29:14Z</time>
      </trkpt>
      <trkpt lat="45.51369" lon="7.21715">
        <ele>2423.5</ele>
        <time>2021-11-07T18:29:15Z</time>
      </trkpt>
      <trkpt lat="45.5137" lon="7.2171">
        <ele>2422.7</ele>
        <time>2021-11-07T18:29:19Z</time>
      </trkpt>
      <trkpt lat="45.5137" lon="7.21708">
        <ele>2422.4</ele>
        <time>2021-11-07T18:29:21Z</time>
      </trkpt>
      <trkpt lat="45.51371" lon="7.21705">
        <ele>2422</ele>
        <time>2021-11-07T18:29:23Z</time>
      </trkpt>
      <trkpt lat="45.51372" lon="7.21702">
        <ele>2421.5</ele>
        <time>2021-11-07T18:29:26Z</time>
      </trkpt>
      <trkpt lat="45.51373" lon="7.21696">
        <ele>2420.5</ele>
        <time>2021-11-07T18:29:32Z</time>
      </trkpt>
      <trkpt lat="45.51373" lon="7.21694">
        <ele>2420.2</ele>
        <time>2021-11-07T18:29:34Z</time>
      </trkpt>
      <trkpt lat="45.51373" lon="7.21691">
        <ele>2419.8</ele>
        <time>2021-11-07T18:29:37Z</time>
      </trkpt>
      <trkpt lat="45.51374" lon="7.21691">
        <ele>2419.6</ele>
        <time>2021-11-07T18:29:38Z</time>
      </trkpt>
      <trkpt lat="45.51376" lon="7.21689">
        <ele>2419.1</ele>
        <time>2021-11-07T18:29:41Z</time>
      </trkpt>
      <trkpt lat="45.51378" lon="7.21686">
        <ele>2418.6</ele>
        <time>2021-11-07T18:29:44Z</time>
      </trkpt>
      <trkpt lat="45.51378" lon="7.21685">
        <ele>2418.4</ele>
        <time>2021-11-07T18:29:45Z</time>
      </trkpt>
      <trkpt lat="45.51378" lon="7.21684">
        <ele>2418.2</ele>
        <time>2021-11-07T18:29:46Z</time>
      </trkpt>
      <trkpt lat="45.5138" lon="7.21681">
        <ele>2417.6</ele>
        <time>2021-11-07T18:29:49Z</time>
      </trkpt>
      <trkpt lat="45.51381" lon="7.2168">
        <ele>2417.2</ele>
        <time>2021-11-07T18:29:51Z</time>
      </trkpt>
      <trkpt lat="45.51382" lon="7.21679">
        <ele>2417.1</ele>
        <time>2021-11-07T18:29:52Z</time>
      </trkpt>
      <trkpt lat="45.51382" lon="7.21679">
        <ele>2416.9</ele>
        <time>2021-11-07T18:29:53Z</time>
      </trkpt>
      <trkpt lat="45.51383" lon="7.21674">
        <ele>2416.1</ele>
        <time>2021-11-07T18:29:57Z</time>
      </trkpt>
      <trkpt lat="45.51385" lon="7.21671">
        <ele>2415.5</ele>
        <time>2021-11-07T18:30:00Z</time>
      </trkpt>
      <trkpt lat="45.51386" lon="7.2167">
        <ele>2415.3</ele>
        <time>2021-11-07T18:30:01Z</time>
      </trkpt>
      <trkpt lat="45.51387" lon="7.21669">
        <ele>2414.9</ele>
        <time>2021-11-07T18:30:03Z</time>
      </trkpt>
      <trkpt lat="45.51388" lon="7.21668">
        <ele>2414.6</ele>
        <time>2021-11-07T18:30:04Z</time>
      </trkpt>
      <trkpt lat="45.5139" lon="7.21664">
        <ele>2413.7</ele>
        <time>2021-11-07T18:30:09Z</time>
      </trkpt>
      <trkpt lat="45.51393" lon="7.21663">
        <ele>2412.9</ele>
        <time>2021-11-07T18:30:14Z</time>
      </trkpt>
      <trkpt lat="45.51394" lon="7.21662">
        <ele>2412.7</ele>
        <time>2021-11-07T18:30:15Z</time>
      </trkpt>
      <trkpt lat="45.51394" lon="7.21662">
        <ele>2412.6</ele>
        <time>2021-11-07T18:30:16Z</time>
      </trkpt>
      <trkpt lat="45.51395" lon="7.21661">
        <ele>2412.3</ele>
        <time>2021-11-07T18:30:18Z</time>
      </trkpt>
      <trkpt lat="45.51397" lon="7.21659">
        <ele>2411.8</ele>
        <time>2021-11-07T18:30:21Z</time>
      </trkpt>
      <trkpt lat="45.51397" lon="7.2166">
        <ele>2411.6</ele>
        <time>2021-11-07T18:30:24Z</time>
      </trkpt>
      <trkpt lat="45.51397" lon="7.2166">
        <ele>2411.5</ele>
        <time>2021-11-07T18:30:38Z</time>
      </trkpt>
      <trkpt lat="45.51396" lon="7.21659">
        <ele>2411.1</ele>
        <time>2021-11-07T18:30:43Z</time>
      </trkpt>
      <trkpt lat="45.51396" lon="7.21659">
        <ele>2411</ele>
        <time>2021-11-07T18:30:46Z</time>
      </trkpt>
      <trkpt lat="45.51396" lon="7.21659">
        <ele>2411</ele>
        <time>2021-11-07T18:30:47Z</time>
      </trkpt>
      <trkpt lat="45.51396" lon="7.21658">
        <ele>2410.8</ele>
        <time>2021-11-07T18:30:52Z</time>
      </trkpt>
      <trkpt lat="45.51395" lon="7.21657">
        <ele>2410.5</ele>
        <time>2021-11-07T18:30:55Z</time>
      </trkpt>
      <trkpt lat="45.51395" lon="7.21657">
        <ele>2410.4</ele>
        <time>2021-11-07T18:30:56Z</time>
      </trkpt>
      <trkpt lat="45.51391" lon="7.21658">
        <ele>2409.5</ele>
        <time>2021-11-07T18:31:01Z</time>
      </trkpt>
      <trkpt lat="45.51385" lon="7.21659">
        <ele>2408.2</ele>
        <time>2021-11-07T18:31:07Z</time>
      </trkpt>
      <trkpt lat="45.51379" lon="7.21659">
        <ele>2407.1</ele>
        <time>2021-11-07T18:31:13Z</time>
      </trkpt>
      <trkpt lat="45.51376" lon="7.2166">
        <ele>2406.7</ele>
        <time>2021-11-07T18:31:16Z</time>
      </trkpt>
      <trkpt lat="45.51374" lon="7.21661">
        <ele>2406.3</ele>
        <time>2021-11-07T18:31:18Z</time>
      </trkpt>
      <trkpt lat="45.5137" lon="7.21664">
        <ele>2405.8</ele>
        <time>2021-11-07T18:31:22Z</time>
      </trkpt>
      <trkpt lat="45.51366" lon="7.21665">
        <ele>2405.2</ele>
        <time>2021-11-07T18:31:26Z</time>
      </trkpt>
      <trkpt lat="45.51363" lon="7.21667">
        <ele>2404.6</ele>
        <time>2021-11-07T18:31:30Z</time>
      </trkpt>
      <trkpt lat="45.51358" lon="7.2167">
        <ele>2403.6</ele>
        <time>2021-11-07T18:31:36Z</time>
      </trkpt>
      <trkpt lat="45.51357" lon="7.2167">
        <ele>2403.4</ele>
        <time>2021-11-07T18:31:37Z</time>
      </trkpt>
      <trkpt lat="45.51352" lon="7.21674">
        <ele>2402.2</ele>
        <time>2021-11-07T18:31:45Z</time>
      </trkpt>
      <trkpt lat="45.51351" lon="7.21676">
        <ele>2401.9</ele>
        <time>2021-11-07T18:31:47Z</time>
      </trkpt>
      <trkpt lat="45.51349" lon="7.21677">
        <ele>2401.5</ele>
        <time>2021-11-07T18:31:49Z</time>
      </trkpt>
      <trkpt lat="45.51347" lon="7.21678">
        <ele>2401</ele>
        <time>2021-11-07T18:31:52Z</time>
      </trkpt>
      <trkpt lat="45.51347" lon="7.21677">
        <ele>2400.9</ele>
        <time>2021-11-07T18:31:53Z</time>
      </trkpt>
      <trkpt lat="45.51347" lon="7.21675">
        <ele>2400.6</ele>
        <time>2021-11-07T18:31:55Z</time>
      </trkpt>
      <trkpt lat="45.51347" lon="7.21674">
        <ele>2400.4</ele>
        <time>2021-11-07T18:31:56Z</time>
      </trkpt>
      <trkpt lat="45.51346" lon="7.21671">
        <ele>2399.8</ele>
        <time>2021-11-07T18:32:00Z</time>
      </trkpt>
      <trkpt lat="45.51344" lon="7.21667">
        <ele>2399</ele>
        <time>2021-11-07T18:32:04Z</time>
      </trkpt>
      <trkpt lat="45.51344" lon="7.21663">
        <ele>2398.3</ele>
        <time>2021-11-07T18:32:06Z</time>
      </trkpt>
      <trkpt lat="45.51344" lon="7.2166">
        <ele>2397.9</ele>
        <time>2021-11-07T18:32:08Z</time>
      </trkpt>
      <trkpt lat="45.51345" lon="7.21657">
        <ele>2397.1</ele>
        <time>2021-11-07T18:32:12Z</time>
      </trkpt>
      <trkpt lat="45.51347" lon="7.21654">
        <ele>2396.6</ele>
        <time>2021-11-07T18:32:15Z</time>
      </trkpt>
      <trkpt lat="45.51347" lon="7.21653">
        <ele>2396.3</ele>
        <time>2021-11-07T18:32:16Z</time>
      </trkpt>
      <trkpt lat="45.51349" lon="7.21648">
        <ele>2395.4</ele>
        <time>2021-11-07T18:32:20Z</time>
      </trkpt>
      <trkpt lat="45.51349" lon="7.21645">
        <ele>2394.9</ele>
        <time>2021-11-07T18:32:23Z</time>
      </trkpt>
      <trkpt lat="45.51349" lon="7.21644">
        <ele>2394.8</ele>
        <time>2021-11-07T18:32:24Z</time>
      </trkpt>
      <trkpt lat="45.5135" lon="7.21641">
        <ele>2394.1</ele>
        <time>2021-11-07T18:32:27Z</time>
      </trkpt>
      <trkpt lat="45.5135" lon="7.2164">
        <ele>2393.9</ele>
        <time>2021-11-07T18:32:28Z</time>
      </trkpt>
      <trkpt lat="45.51352" lon="7.21635">
        <ele>2393.1</ele>
        <time>2021-11-07T18:32:32Z</time>
      </trkpt>
      <trkpt lat="45.51352" lon="7.21634">
        <ele>2392.7</ele>
        <time>2021-11-07T18:32:34Z</time>
      </trkpt>
      <trkpt lat="45.51354" lon="7.21631">
        <ele>2392.1</ele>
        <time>2021-11-07T18:32:37Z</time>
      </trkpt>
      <trkpt lat="45.51356" lon="7.21628">
        <ele>2391.3</ele>
        <time>2021-11-07T18:32:41Z</time>
      </trkpt>
      <trkpt lat="45.51359" lon="7.21625">
        <ele>2390.5</ele>
        <time>2021-11-07T18:32:45Z</time>
      </trkpt>
      <trkpt lat="45.51362" lon="7.21622">
        <ele>2389.5</ele>
        <time>2021-11-07T18:32:50Z</time>
      </trkpt>
      <trkpt lat="45.51364" lon="7.2162">
        <ele>2388.9</ele>
        <time>2021-11-07T18:32:54Z</time>
      </trkpt>
      <trkpt lat="45.51364" lon="7.21619">
        <ele>2388.8</ele>
        <time>2021-11-07T18:32:55Z</time>
      </trkpt>
      <trkpt lat="45.51365" lon="7.21619">
        <ele>2388.6</ele>
        <time>2021-11-07T18:32:56Z</time>
      </trkpt>
      <trkpt lat="45.51366" lon="7.21618">
        <ele>2388.2</ele>
        <time>2021-11-07T18:32:58Z</time>
      </trkpt>
      <trkpt lat="45.51369" lon="7.21616">
        <ele>2387.3</ele>
        <time>2021-11-07T18:33:03Z</time>
      </trkpt>
      <trkpt lat="45.51374" lon="7.21613">
        <ele>2386.1</ele>
        <time>2021-11-07T18:33:09Z</time>
      </trkpt>
      <trkpt lat="45.51375" lon="7.21613">
        <ele>2385.9</ele>
        <time>2021-11-07T18:33:10Z</time>
      </trkpt>
      <trkpt lat="45.5138" lon="7.21612">
        <ele>2384.8</ele>
        <time>2021-11-07T18:33:16Z</time>
      </trkpt>
      <trkpt lat="45.51381" lon="7.2161">
        <ele>2384.5</ele>
        <time>2021-11-07T18:33:18Z</time>
      </trkpt>
      <trkpt lat="45.51383" lon="7.21609">
        <ele>2383.9</ele>
        <time>2021-11-07T18:33:21Z</time>
      </trkpt>
      <trkpt lat="45.51384" lon="7.21608">
        <ele>2383.7</ele>
        <time>2021-11-07T18:33:22Z</time>
      </trkpt>
      <trkpt lat="45.51387" lon="7.21605">
        <ele>2382.9</ele>
        <time>2021-11-07T18:33:26Z</time>
      </trkpt>
      <trkpt lat="45.51391" lon="7.21603">
        <ele>2382</ele>
        <time>2021-11-07T18:33:30Z</time>
      </trkpt>
      <trkpt lat="45.51391" lon="7.21602">
        <ele>2381.9</ele>
        <time>2021-11-07T18:33:31Z</time>
      </trkpt>
      <trkpt lat="45.51394" lon="7.21598">
        <ele>2381</ele>
        <time>2021-11-07T18:33:35Z</time>
      </trkpt>
      <trkpt lat="45.51395" lon="7.21597">
        <ele>2380.8</ele>
        <time>2021-11-07T18:33:36Z</time>
      </trkpt>
      <trkpt lat="45.51398" lon="7.21592">
        <ele>2380</ele>
        <time>2021-11-07T18:33:41Z</time>
      </trkpt>
      <trkpt lat="45.51399" lon="7.21591">
        <ele>2379.8</ele>
        <time>2021-11-07T18:33:42Z</time>
      </trkpt>
      <trkpt lat="45.51401" lon="7.21587">
        <ele>2379.1</ele>
        <time>2021-11-07T18:33:47Z</time>
      </trkpt>
      <trkpt lat="45.51401" lon="7.21585">
        <ele>2378.9</ele>
        <time>2021-11-07T18:33:49Z</time>
      </trkpt>
      <trkpt lat="45.51402" lon="7.2158">
        <ele>2378.2</ele>
        <time>2021-11-07T18:33:54Z</time>
      </trkpt>
      <trkpt lat="45.51403" lon="7.21577">
        <ele>2377.8</ele>
        <time>2021-11-07T18:33:56Z</time>
      </trkpt>
      <trkpt lat="45.51403" lon="7.21575">
        <ele>2377.6</ele>
        <time>2021-11-07T18:33:57Z</time>
      </trkpt>
      <trkpt lat="45.51403" lon="7.21572">
        <ele>2377.2</ele>
        <time>2021-11-07T18:33:59Z</time>
      </trkpt>
      <trkpt lat="45.51404" lon="7.21571">
        <ele>2376.9</ele>
        <time>2021-11-07T18:34:00Z</time>
      </trkpt>
      <trkpt lat="45.51406" lon="7.21564">
        <ele>2376</ele>
        <time>2021-11-07T18:34:05Z</time>
      </trkpt>
      <trkpt lat="45.51409" lon="7.21558">
        <ele>2374.9</ele>
        <time>2021-11-07T18:34:12Z</time>
      </trkpt>
      <trkpt lat="45.5141" lon="7.21556">
        <ele>2374.5</ele>
        <time>2021-11-07T18:34:14Z</time>
      </trkpt>
      <trkpt lat="45.51413" lon="7.21551">
        <ele>2373.8</ele>
        <time>2021-11-07T18:34:18Z</time>
      </trkpt>
      <trkpt lat="45.51414" lon="7.21545">
        <ele>2373.1</ele>
        <time>2021-11-07T18:34:22Z</time>
      </trkpt>
      <trkpt lat="45.51415" lon="7.21542">
        <ele>2372.8</ele>
        <time>2021-11-07T18:34:25Z</time>
      </trkpt>
      <trkpt lat="45.51418" lon="7.21538">
        <ele>2371.3</ele>
        <time>2021-11-07T18:34:30Z</time>
      </trkpt>
      <trkpt lat="45.5142" lon="7.21536">
        <ele>2370.8</ele>
        <time>2021-11-07T18:34:33Z</time>
      </trkpt>
      <trkpt lat="45.51421" lon="7.21536">
        <ele>2370.7</ele>
        <time>2021-11-07T18:34:34Z</time>
      </trkpt>
      <trkpt lat="45.51422" lon="7.21535">
        <ele>2370.5</ele>
        <time>2021-11-07T18:34:35Z</time>
      </trkpt>
      <trkpt lat="45.51423" lon="7.21533">
        <ele>2370</ele>
        <time>2021-11-07T18:34:38Z</time>
      </trkpt>
      <trkpt lat="45.51421" lon="7.21526">
        <ele>2369.2</ele>
        <time>2021-11-07T18:34:44Z</time>
      </trkpt>
      <trkpt lat="45.51421" lon="7.21525">
        <ele>2369</ele>
        <time>2021-11-07T18:34:45Z</time>
      </trkpt>
      <trkpt lat="45.5142" lon="7.21524">
        <ele>2368.8</ele>
        <time>2021-11-07T18:34:47Z</time>
      </trkpt>
      <trkpt lat="45.51419" lon="7.21523">
        <ele>2368.6</ele>
        <time>2021-11-07T18:34:48Z</time>
      </trkpt>
      <trkpt lat="45.51415" lon="7.21518">
        <ele>2367.6</ele>
        <time>2021-11-07T18:34:54Z</time>
      </trkpt>
      <trkpt lat="45.51414" lon="7.21517">
        <ele>2367.4</ele>
        <time>2021-11-07T18:34:55Z</time>
      </trkpt>
      <trkpt lat="45.51413" lon="7.21514">
        <ele>2367</ele>
        <time>2021-11-07T18:34:58Z</time>
      </trkpt>
      <trkpt lat="45.51412" lon="7.21513">
        <ele>2366.8</ele>
        <time>2021-11-07T18:34:59Z</time>
      </trkpt>
      <trkpt lat="45.51409" lon="7.21506">
        <ele>2365.8</ele>
        <time>2021-11-07T18:35:06Z</time>
      </trkpt>
      <trkpt lat="45.51408" lon="7.21503">
        <ele>2365.3</ele>
        <time>2021-11-07T18:35:09Z</time>
      </trkpt>
      <trkpt lat="45.51408" lon="7.21501">
        <ele>2365</ele>
        <time>2021-11-07T18:35:11Z</time>
      </trkpt>
      <trkpt lat="45.51408" lon="7.215">
        <ele>2364.9</ele>
        <time>2021-11-07T18:35:12Z</time>
      </trkpt>
      <trkpt lat="45.51406" lon="7.21496">
        <ele>2364.2</ele>
        <time>2021-11-07T18:35:16Z</time>
      </trkpt>
      <trkpt lat="45.51405" lon="7.21494">
        <ele>2363.8</ele>
        <time>2021-11-07T18:35:18Z</time>
      </trkpt>
      <trkpt lat="45.51403" lon="7.2149">
        <ele>2363.1</ele>
        <time>2021-11-07T18:35:22Z</time>
      </trkpt>
      <trkpt lat="45.51402" lon="7.2149">
        <ele>2363</ele>
        <time>2021-11-07T18:35:23Z</time>
      </trkpt>
      <trkpt lat="45.514" lon="7.21486">
        <ele>2362.3</ele>
        <time>2021-11-07T18:35:28Z</time>
      </trkpt>
      <trkpt lat="45.51402" lon="7.21483">
        <ele>2361.8</ele>
        <time>2021-11-07T18:35:34Z</time>
      </trkpt>
      <trkpt lat="45.51404" lon="7.21484">
        <ele>2361.2</ele>
        <time>2021-11-07T18:35:38Z</time>
      </trkpt>
      <trkpt lat="45.51406" lon="7.21485">
        <ele>2360.9</ele>
        <time>2021-11-07T18:35:40Z</time>
      </trkpt>
      <trkpt lat="45.51407" lon="7.21485">
        <ele>2360.8</ele>
        <time>2021-11-07T18:35:41Z</time>
      </trkpt>
      <trkpt lat="45.51408" lon="7.21485">
        <ele>2360.5</ele>
        <time>2021-11-07T18:35:43Z</time>
      </trkpt>
      <trkpt lat="45.5141" lon="7.21486">
        <ele>2360.2</ele>
        <time>2021-11-07T18:35:45Z</time>
      </trkpt>
      <trkpt lat="45.51413" lon="7.21483">
        <ele>2359.6</ele>
        <time>2021-11-07T18:35:50Z</time>
      </trkpt>
      <trkpt lat="45.51414" lon="7.2148">
        <ele>2359.1</ele>
        <time>2021-11-07T18:35:54Z</time>
      </trkpt>
      <trkpt lat="45.51414" lon="7.21476">
        <ele>2358.7</ele>
        <time>2021-11-07T18:35:57Z</time>
      </trkpt>
      <trkpt lat="45.51414" lon="7.21475">
        <ele>2358.6</ele>
        <time>2021-11-07T18:35:58Z</time>
      </trkpt>
      <trkpt lat="45.51416" lon="7.21471">
        <ele>2358</ele>
        <time>2021-11-07T18:36:02Z</time>
      </trkpt>
      <trkpt lat="45.51416" lon="7.2147">
        <ele>2357.9</ele>
        <time>2021-11-07T18:36:03Z</time>
      </trkpt>
      <trkpt lat="45.51419" lon="7.21467">
        <ele>2357.3</ele>
        <time>2021-11-07T18:36:08Z</time>
      </trkpt>
      <trkpt lat="45.51422" lon="7.21469">
        <ele>2356.7</ele>
        <time>2021-11-07T18:36:13Z</time>
      </trkpt>
      <trkpt lat="45.51425" lon="7.21473">
        <ele>2355.9</ele>
        <time>2021-11-07T18:36:18Z</time>
      </trkpt>
      <trkpt lat="45.51428" lon="7.21478">
        <ele>2355</ele>
        <time>2021-11-07T18:36:25Z</time>
      </trkpt>
      <trkpt lat="45.5143" lon="7.21477">
        <ele>2354.7</ele>
        <time>2021-11-07T18:36:29Z</time>
      </trkpt>
      <trkpt lat="45.5143" lon="7.21476">
        <ele>2354.5</ele>
        <time>2021-11-07T18:36:30Z</time>
      </trkpt>
      <trkpt lat="45.5143" lon="7.21474">
        <ele>2354.2</ele>
        <time>2021-11-07T18:36:32Z</time>
      </trkpt>
      <trkpt lat="45.51429" lon="7.21469">
        <ele>2353.5</ele>
        <time>2021-11-07T18:36:36Z</time>
      </trkpt>
      <trkpt lat="45.51427" lon="7.21462">
        <ele>2352.6</ele>
        <time>2021-11-07T18:36:41Z</time>
      </trkpt>
      <trkpt lat="45.51427" lon="7.21459">
        <ele>2352.2</ele>
        <time>2021-11-07T18:36:44Z</time>
      </trkpt>
      <trkpt lat="45.51427" lon="7.21458">
        <ele>2352</ele>
        <time>2021-11-07T18:36:45Z</time>
      </trkpt>
      <trkpt lat="45.51426" lon="7.21457">
        <ele>2351.9</ele>
        <time>2021-11-07T18:36:46Z</time>
      </trkpt>
      <trkpt lat="45.51425" lon="7.21453">
        <ele>2351.4</ele>
        <time>2021-11-07T18:36:50Z</time>
      </trkpt>
      <trkpt lat="45.51424" lon="7.21448">
        <ele>2350.6</ele>
        <time>2021-11-07T18:36:55Z</time>
      </trkpt>
      <trkpt lat="45.51424" lon="7.21447">
        <ele>2350.5</ele>
        <time>2021-11-07T18:36:56Z</time>
      </trkpt>
      <trkpt lat="45.51423" lon="7.21444">
        <ele>2350.1</ele>
        <time>2021-11-07T18:36:59Z</time>
      </trkpt>
      <trkpt lat="45.51422" lon="7.21438">
        <ele>2349.2</ele>
        <time>2021-11-07T18:37:04Z</time>
      </trkpt>
      <trkpt lat="45.51421" lon="7.21435">
        <ele>2348.8</ele>
        <time>2021-11-07T18:37:06Z</time>
      </trkpt>
      <trkpt lat="45.51421" lon="7.21434">
        <ele>2348.7</ele>
        <time>2021-11-07T18:37:07Z</time>
      </trkpt>
      <trkpt lat="45.51421" lon="7.21432">
        <ele>2348.4</ele>
        <time>2021-11-07T18:37:09Z</time>
      </trkpt>
      <trkpt lat="45.51421" lon="7.21429">
        <ele>2347.9</ele>
        <time>2021-11-07T18:37:12Z</time>
      </trkpt>
      <trkpt lat="45.51421" lon="7.21427">
        <ele>2347.7</ele>
        <time>2021-11-07T18:37:13Z</time>
      </trkpt>
      <trkpt lat="45.5142" lon="7.21424">
        <ele>2347.2</ele>
        <time>2021-11-07T18:37:16Z</time>
      </trkpt>
      <trkpt lat="45.51419" lon="7.21418">
        <ele>2346.5</ele>
        <time>2021-11-07T18:37:20Z</time>
      </trkpt>
      <trkpt lat="45.51418" lon="7.21417">
        <ele>2346.3</ele>
        <time>2021-11-07T18:37:21Z</time>
      </trkpt>
      <trkpt lat="45.51416" lon="7.21406">
        <ele>2344.9</ele>
        <time>2021-11-07T18:37:30Z</time>
      </trkpt>
      <trkpt lat="45.51414" lon="7.21399">
        <ele>2343.9</ele>
        <time>2021-11-07T18:37:36Z</time>
      </trkpt>
      <trkpt lat="45.51412" lon="7.21394">
        <ele>2343.2</ele>
        <time>2021-11-07T18:37:40Z</time>
      </trkpt>
      <trkpt lat="45.51411" lon="7.21392">
        <ele>2342.9</ele>
        <time>2021-11-07T18:37:42Z</time>
      </trkpt>
      <trkpt lat="45.5141" lon="7.21391">
        <ele>2342.6</ele>
        <time>2021-11-07T18:37:44Z</time>
      </trkpt>
      <trkpt lat="45.5141" lon="7.21388">
        <ele>2342.2</ele>
        <time>2021-11-07T18:37:49Z</time>
      </trkpt>
      <trkpt lat="45.5141" lon="7.21387">
        <ele>2342.1</ele>
        <time>2021-11-07T18:37:51Z</time>
      </trkpt>
      <trkpt lat="45.51409" lon="7.21383">
        <ele>2341.5</ele>
        <time>2021-11-07T18:37:57Z</time>
      </trkpt>
      <trkpt lat="45.51408" lon="7.21381">
        <ele>2341.1</ele>
        <time>2021-11-07T18:37:59Z</time>
      </trkpt>
      <trkpt lat="45.51407" lon="7.21378">
        <ele>2340.7</ele>
        <time>2021-11-07T18:38:02Z</time>
      </trkpt>
      <trkpt lat="45.51406" lon="7.21374">
        <ele>2340</ele>
        <time>2021-11-07T18:38:06Z</time>
      </trkpt>
      <trkpt lat="45.51404" lon="7.2137">
        <ele>2339.4</ele>
        <time>2021-11-07T18:38:10Z</time>
      </trkpt>
      <trkpt lat="45.51404" lon="7.21369">
        <ele>2339.2</ele>
        <time>2021-11-07T18:38:11Z</time>
      </trkpt>
      <trkpt lat="45.51403" lon="7.21367">
        <ele>2338.9</ele>
        <time>2021-11-07T18:38:13Z</time>
      </trkpt>
      <trkpt lat="45.51401" lon="7.21366">
        <ele>2338.4</ele>
        <time>2021-11-07T18:38:16Z</time>
      </trkpt>
      <trkpt lat="45.51397" lon="7.21364">
        <ele>2337.4</ele>
        <time>2021-11-07T18:38:22Z</time>
      </trkpt>
      <trkpt lat="45.51396" lon="7.21364">
        <ele>2337.4</ele>
        <time>2021-11-07T18:38:23Z</time>
      </trkpt>
      <trkpt lat="45.51394" lon="7.21359">
        <ele>2336.6</ele>
        <time>2021-11-07T18:38:31Z</time>
      </trkpt>
      <trkpt lat="45.51399" lon="7.21347">
        <ele>2334.6</ele>
        <time>2021-11-07T18:38:41Z</time>
      </trkpt>
      <trkpt lat="45.51402" lon="7.21347">
        <ele>2334.1</ele>
        <time>2021-11-07T18:38:45Z</time>
      </trkpt>
      <trkpt lat="45.51405" lon="7.21348">
        <ele>2333.4</ele>
        <time>2021-11-07T18:38:49Z</time>
      </trkpt>
      <trkpt lat="45.51406" lon="7.21349">
        <ele>2333.3</ele>
        <time>2021-11-07T18:38:50Z</time>
      </trkpt>
      <trkpt lat="45.51406" lon="7.2135">
        <ele>2333.1</ele>
        <time>2021-11-07T18:38:51Z</time>
      </trkpt>
      <trkpt lat="45.51407" lon="7.2135">
        <ele>2332.9</ele>
        <time>2021-11-07T18:38:52Z</time>
      </trkpt>
      <trkpt lat="45.51409" lon="7.21351">
        <ele>2332.5</ele>
        <time>2021-11-07T18:38:54Z</time>
      </trkpt>
      <trkpt lat="45.5141" lon="7.21351">
        <ele>2332.4</ele>
        <time>2021-11-07T18:38:55Z</time>
      </trkpt>
      <trkpt lat="45.51411" lon="7.21351">
        <ele>2332</ele>
        <time>2021-11-07T18:38:57Z</time>
      </trkpt>
      <trkpt lat="45.51414" lon="7.21352">
        <ele>2331.5</ele>
        <time>2021-11-07T18:39:01Z</time>
      </trkpt>
      <trkpt lat="45.51417" lon="7.21354">
        <ele>2330.9</ele>
        <time>2021-11-07T18:39:05Z</time>
      </trkpt>
      <trkpt lat="45.51418" lon="7.21354">
        <ele>2330.7</ele>
        <time>2021-11-07T18:39:06Z</time>
      </trkpt>
      <trkpt lat="45.51419" lon="7.21355">
        <ele>2330.4</ele>
        <time>2021-11-07T18:39:08Z</time>
      </trkpt>
      <trkpt lat="45.51424" lon="7.21357">
        <ele>2329.4</ele>
        <time>2021-11-07T18:39:14Z</time>
      </trkpt>
      <trkpt lat="45.51425" lon="7.21358">
        <ele>2329.2</ele>
        <time>2021-11-07T18:39:15Z</time>
      </trkpt>
      <trkpt lat="45.51426" lon="7.21358">
        <ele>2329</ele>
        <time>2021-11-07T18:39:16Z</time>
      </trkpt>
      <trkpt lat="45.5143" lon="7.21359">
        <ele>2328.2</ele>
        <time>2021-11-07T18:39:22Z</time>
      </trkpt>
      <trkpt lat="45.51432" lon="7.21359">
        <ele>2327.9</ele>
        <time>2021-11-07T18:39:25Z</time>
      </trkpt>
      <trkpt lat="45.51432" lon="7.21358">
        <ele>2327.8</ele>
        <time>2021-11-07T18:39:26Z</time>
      </trkpt>
      <trkpt lat="45.51432" lon="7.21357">
        <ele>2327.7</ele>
        <time>2021-11-07T18:39:27Z</time>
      </trkpt>
      <trkpt lat="45.5143" lon="7.21354">
        <ele>2327.2</ele>
        <time>2021-11-07T18:39:31Z</time>
      </trkpt>
      <trkpt lat="45.51429" lon="7.21353">
        <ele>2326.9</ele>
        <time>2021-11-07T18:39:33Z</time>
      </trkpt>
      <trkpt lat="45.51427" lon="7.2135">
        <ele>2326.4</ele>
        <time>2021-11-07T18:39:36Z</time>
      </trkpt>
      <trkpt lat="45.51424" lon="7.21348">
        <ele>2325.9</ele>
        <time>2021-11-07T18:39:39Z</time>
      </trkpt>
      <trkpt lat="45.51422" lon="7.21345">
        <ele>2325.4</ele>
        <time>2021-11-07T18:39:42Z</time>
      </trkpt>
      <trkpt lat="45.51421" lon="7.21344">
        <ele>2325.2</ele>
        <time>2021-11-07T18:39:43Z</time>
      </trkpt>
      <trkpt lat="45.51418" lon="7.2134">
        <ele>2324.5</ele>
        <time>2021-11-07T18:39:47Z</time>
      </trkpt>
      <trkpt lat="45.51417" lon="7.21339">
        <ele>2324.4</ele>
        <time>2021-11-07T18:39:48Z</time>
      </trkpt>
      <trkpt lat="45.51415" lon="7.21336">
        <ele>2323.8</ele>
        <time>2021-11-07T18:39:51Z</time>
      </trkpt>
      <trkpt lat="45.51408" lon="7.2133">
        <ele>2322.5</ele>
        <time>2021-11-07T18:40:00Z</time>
      </trkpt>
      <trkpt lat="45.51407" lon="7.21329">
        <ele>2322.2</ele>
        <time>2021-11-07T18:40:02Z</time>
      </trkpt>
      <trkpt lat="45.51405" lon="7.21327">
        <ele>2321.8</ele>
        <time>2021-11-07T18:40:06Z</time>
      </trkpt>
      <trkpt lat="45.51404" lon="7.21325">
        <ele>2321.5</ele>
        <time>2021-11-07T18:40:08Z</time>
      </trkpt>
      <trkpt lat="45.51404" lon="7.21321">
        <ele>2320.8</ele>
        <time>2021-11-07T18:40:15Z</time>
      </trkpt>
      <trkpt lat="45.51406" lon="7.2132">
        <ele>2320.5</ele>
        <time>2021-11-07T18:40:17Z</time>
      </trkpt>
      <trkpt lat="45.51411" lon="7.21321">
        <ele>2319.3</ele>
        <time>2021-11-07T18:40:23Z</time>
      </trkpt>
      <trkpt lat="45.51414" lon="7.21322">
        <ele>2318.8</ele>
        <time>2021-11-07T18:40:26Z</time>
      </trkpt>
      <trkpt lat="45.51415" lon="7.21322">
        <ele>2318.4</ele>
        <time>2021-11-07T18:40:28Z</time>
      </trkpt>
      <trkpt lat="45.51417" lon="7.21322">
        <ele>2318</ele>
        <time>2021-11-07T18:40:30Z</time>
      </trkpt>
      <trkpt lat="45.51422" lon="7.21323">
        <ele>2316.9</ele>
        <time>2021-11-07T18:40:36Z</time>
      </trkpt>
      <trkpt lat="45.51427" lon="7.21322">
        <ele>2315.9</ele>
        <time>2021-11-07T18:40:41Z</time>
      </trkpt>
      <trkpt lat="45.51429" lon="7.21323">
        <ele>2315.6</ele>
        <time>2021-11-07T18:40:43Z</time>
      </trkpt>
      <trkpt lat="45.51433" lon="7.21323">
        <ele>2314.7</ele>
        <time>2021-11-07T18:40:48Z</time>
      </trkpt>
      <trkpt lat="45.51434" lon="7.21323">
        <ele>2314.6</ele>
        <time>2021-11-07T18:40:49Z</time>
      </trkpt>
      <trkpt lat="45.51436" lon="7.21322">
        <ele>2314.1</ele>
        <time>2021-11-07T18:40:53Z</time>
      </trkpt>
      <trkpt lat="45.51436" lon="7.2132">
        <ele>2313.7</ele>
        <time>2021-11-07T18:40:55Z</time>
      </trkpt>
      <trkpt lat="45.51435" lon="7.21317">
        <ele>2313.3</ele>
        <time>2021-11-07T18:40:57Z</time>
      </trkpt>
      <trkpt lat="45.51435" lon="7.21316">
        <ele>2313.1</ele>
        <time>2021-11-07T18:40:58Z</time>
      </trkpt>
      <trkpt lat="45.51429" lon="7.21309">
        <ele>2311.7</ele>
        <time>2021-11-07T18:41:05Z</time>
      </trkpt>
      <trkpt lat="45.51427" lon="7.21307">
        <ele>2311.2</ele>
        <time>2021-11-07T18:41:08Z</time>
      </trkpt>
      <trkpt lat="45.51425" lon="7.21304">
        <ele>2310.7</ele>
        <time>2021-11-07T18:41:11Z</time>
      </trkpt>
      <trkpt lat="45.51421" lon="7.21302">
        <ele>2309.8</ele>
        <time>2021-11-07T18:41:17Z</time>
      </trkpt>
      <trkpt lat="45.5142" lon="7.21301">
        <ele>2309.7</ele>
        <time>2021-11-07T18:41:18Z</time>
      </trkpt>
      <trkpt lat="45.51417" lon="7.213">
        <ele>2309.1</ele>
        <time>2021-11-07T18:41:22Z</time>
      </trkpt>
      <trkpt lat="45.51414" lon="7.21298">
        <ele>2308.5</ele>
        <time>2021-11-07T18:41:26Z</time>
      </trkpt>
      <trkpt lat="45.51412" lon="7.21297">
        <ele>2308.2</ele>
        <time>2021-11-07T18:41:29Z</time>
      </trkpt>
      <trkpt lat="45.51412" lon="7.21296">
        <ele>2308</ele>
        <time>2021-11-07T18:41:31Z</time>
      </trkpt>
      <trkpt lat="45.5141" lon="7.21295">
        <ele>2307.7</ele>
        <time>2021-11-07T18:41:34Z</time>
      </trkpt>
      <trkpt lat="45.5141" lon="7.21294">
        <ele>2307.6</ele>
        <time>2021-11-07T18:41:35Z</time>
      </trkpt>
      <trkpt lat="45.51405" lon="7.21291">
        <ele>2306.6</ele>
        <time>2021-11-07T18:41:42Z</time>
      </trkpt>
      <trkpt lat="45.51402" lon="7.21288">
        <ele>2305.8</ele>
        <time>2021-11-07T18:41:47Z</time>
      </trkpt>
      <trkpt lat="45.51396" lon="7.21285">
        <ele>2304.6</ele>
        <time>2021-11-07T18:41:56Z</time>
      </trkpt>
      <trkpt lat="45.51401" lon="7.21282">
        <ele>2303.6</ele>
        <time>2021-11-07T18:42:02Z</time>
      </trkpt>
      <trkpt lat="45.51401" lon="7.21282">
        <ele>2303.5</ele>
        <time>2021-11-07T18:42:03Z</time>
      </trkpt>
      <trkpt lat="45.51404" lon="7.21282">
        <ele>2302.9</ele>
        <time>2021-11-07T18:42:06Z</time>
      </trkpt>
      <trkpt lat="45.51405" lon="7.21282">
        <ele>2302.7</ele>
        <time>2021-11-07T18:42:07Z</time>
      </trkpt>
      <trkpt lat="45.51408" lon="7.21282">
        <ele>2302.1</ele>
        <time>2021-11-07T18:42:10Z</time>
      </trkpt>
      <trkpt lat="45.51411" lon="7.21281">
        <ele>2301.5</ele>
        <time>2021-11-07T18:42:13Z</time>
      </trkpt>
      <trkpt lat="45.51415" lon="7.2128">
        <ele>2300.8</ele>
        <time>2021-11-07T18:42:18Z</time>
      </trkpt>
      <trkpt lat="45.51419" lon="7.21279">
        <ele>2300.1</ele>
        <time>2021-11-07T18:42:22Z</time>
      </trkpt>
      <trkpt lat="45.5142" lon="7.21279">
        <ele>2299.8</ele>
        <time>2021-11-07T18:42:25Z</time>
      </trkpt>
      <trkpt lat="45.51423" lon="7.21279">
        <ele>2299.4</ele>
        <time>2021-11-07T18:42:28Z</time>
      </trkpt>
      <trkpt lat="45.51426" lon="7.21277">
        <ele>2298.8</ele>
        <time>2021-11-07T18:42:33Z</time>
      </trkpt>
      <trkpt lat="45.51428" lon="7.21276">
        <ele>2298.3</ele>
        <time>2021-11-07T18:42:37Z</time>
      </trkpt>
      <trkpt lat="45.51429" lon="7.21276">
        <ele>2298.2</ele>
        <time>2021-11-07T18:42:38Z</time>
      </trkpt>
      <trkpt lat="45.51432" lon="7.21274">
        <ele>2297.6</ele>
        <time>2021-11-07T18:42:42Z</time>
      </trkpt>
      <trkpt lat="45.51436" lon="7.21274">
        <ele>2297</ele>
        <time>2021-11-07T18:42:46Z</time>
      </trkpt>
      <trkpt lat="45.51436" lon="7.21273">
        <ele>2296.9</ele>
        <time>2021-11-07T18:42:47Z</time>
      </trkpt>
      <trkpt lat="45.51439" lon="7.21273">
        <ele>2296.4</ele>
        <time>2021-11-07T18:42:51Z</time>
      </trkpt>
      <trkpt lat="45.5144" lon="7.21273">
        <ele>2296.2</ele>
        <time>2021-11-07T18:42:54Z</time>
      </trkpt>
      <trkpt lat="45.51439" lon="7.21269">
        <ele>2295.7</ele>
        <time>2021-11-07T18:42:58Z</time>
      </trkpt>
      <trkpt lat="45.51438" lon="7.21269">
        <ele>2295.6</ele>
        <time>2021-11-07T18:42:59Z</time>
      </trkpt>
      <trkpt lat="45.51435" lon="7.21267">
        <ele>2295</ele>
        <time>2021-11-07T18:43:03Z</time>
      </trkpt>
      <trkpt lat="45.51431" lon="7.21265">
        <ele>2294.3</ele>
        <time>2021-11-07T18:43:07Z</time>
      </trkpt>
      <trkpt lat="45.51421" lon="7.2126">
        <ele>2292.7</ele>
        <time>2021-11-07T18:43:19Z</time>
      </trkpt>
      <trkpt lat="45.5142" lon="7.2126">
        <ele>2292.5</ele>
        <time>2021-11-07T18:43:21Z</time>
      </trkpt>
      <trkpt lat="45.51419" lon="7.2126">
        <ele>2292.4</ele>
        <time>2021-11-07T18:43:22Z</time>
      </trkpt>
      <trkpt lat="45.51414" lon="7.2126">
        <ele>2291.8</ele>
        <time>2021-11-07T18:43:27Z</time>
      </trkpt>
      <trkpt lat="45.51412" lon="7.2126">
        <ele>2291.4</ele>
        <time>2021-11-07T18:43:31Z</time>
      </trkpt>
      <trkpt lat="45.51402" lon="7.21254">
        <ele>2290.1</ele>
        <time>2021-11-07T18:43:42Z</time>
      </trkpt>
      <trkpt lat="45.51398" lon="7.21253">
        <ele>2289.6</ele>
        <time>2021-11-07T18:43:46Z</time>
      </trkpt>
      <trkpt lat="45.51395" lon="7.2125">
        <ele>2289.1</ele>
        <time>2021-11-07T18:43:50Z</time>
      </trkpt>
      <trkpt lat="45.51393" lon="7.21248">
        <ele>2288.8</ele>
        <time>2021-11-07T18:43:53Z</time>
      </trkpt>
      <trkpt lat="45.51392" lon="7.21247">
        <ele>2288.7</ele>
        <time>2021-11-07T18:43:54Z</time>
      </trkpt>
      <trkpt lat="45.51391" lon="7.21246">
        <ele>2288.4</ele>
        <time>2021-11-07T18:43:56Z</time>
      </trkpt>
      <trkpt lat="45.51388" lon="7.21244">
        <ele>2288.1</ele>
        <time>2021-11-07T18:44:00Z</time>
      </trkpt>
      <trkpt lat="45.51387" lon="7.21244">
        <ele>2288</ele>
        <time>2021-11-07T18:44:02Z</time>
      </trkpt>
      <trkpt lat="45.51386" lon="7.21243">
        <ele>2287.7</ele>
        <time>2021-11-07T18:44:04Z</time>
      </trkpt>
      <trkpt lat="45.51386" lon="7.21243">
        <ele>2287.6</ele>
        <time>2021-11-07T18:44:05Z</time>
      </trkpt>
      <trkpt lat="45.51389" lon="7.21237">
        <ele>2286.9</ele>
        <time>2021-11-07T18:44:10Z</time>
      </trkpt>
      <trkpt lat="45.5139" lon="7.21237">
        <ele>2286.7</ele>
        <time>2021-11-07T18:44:11Z</time>
      </trkpt>
      <trkpt lat="45.514" lon="7.21241">
        <ele>2285</ele>
        <time>2021-11-07T18:44:20Z</time>
      </trkpt>
      <trkpt lat="45.51401" lon="7.21242">
        <ele>2284.8</ele>
        <time>2021-11-07T18:44:23Z</time>
      </trkpt>
      <trkpt lat="45.51404" lon="7.21242">
        <ele>2284.2</ele>
        <time>2021-11-07T18:44:26Z</time>
      </trkpt>
      <trkpt lat="45.51407" lon="7.21242">
        <ele>2283.7</ele>
        <time>2021-11-07T18:44:29Z</time>
      </trkpt>
      <trkpt lat="45.51408" lon="7.21243">
        <ele>2283.4</ele>
        <time>2021-11-07T18:44:31Z</time>
      </trkpt>
      <trkpt lat="45.51409" lon="7.21243">
        <ele>2283.3</ele>
        <time>2021-11-07T18:44:32Z</time>
      </trkpt>
      <trkpt lat="45.51412" lon="7.21243">
        <ele>2282.7</ele>
        <time>2021-11-07T18:44:36Z</time>
      </trkpt>
      <trkpt lat="45.51413" lon="7.21243">
        <ele>2282.5</ele>
        <time>2021-11-07T18:44:37Z</time>
      </trkpt>
      <trkpt lat="45.51415" lon="7.21244">
        <ele>2282</ele>
        <time>2021-11-07T18:44:41Z</time>
      </trkpt>
      <trkpt lat="45.51417" lon="7.21243">
        <ele>2281.8</ele>
        <time>2021-11-07T18:44:44Z</time>
      </trkpt>
      <trkpt lat="45.51416" lon="7.21242">
        <ele>2281.6</ele>
        <time>2021-11-07T18:44:46Z</time>
      </trkpt>
      <trkpt lat="45.51414" lon="7.21239">
        <ele>2281</ele>
        <time>2021-11-07T18:44:50Z</time>
      </trkpt>
      <trkpt lat="45.51413" lon="7.21238">
        <ele>2280.9</ele>
        <time>2021-11-07T18:44:51Z</time>
      </trkpt>
      <trkpt lat="45.51409" lon="7.21236">
        <ele>2280.1</ele>
        <time>2021-11-07T18:44:56Z</time>
      </trkpt>
      <trkpt lat="45.51407" lon="7.21234">
        <ele>2279.5</ele>
        <time>2021-11-07T18:44:59Z</time>
      </trkpt>
      <trkpt lat="45.51404" lon="7.21232">
        <ele>2279</ele>
        <time>2021-11-07T18:45:02Z</time>
      </trkpt>
      <trkpt lat="45.51404" lon="7.21231">
        <ele>2278.9</ele>
        <time>2021-11-07T18:45:03Z</time>
      </trkpt>
      <trkpt lat="45.51402" lon="7.21228">
        <ele>2278.3</ele>
        <time>2021-11-07T18:45:07Z</time>
      </trkpt>
      <trkpt lat="45.51398" lon="7.21223">
        <ele>2277.5</ele>
        <time>2021-11-07T18:45:13Z</time>
      </trkpt>
      <trkpt lat="45.51398" lon="7.21222">
        <ele>2277.4</ele>
        <time>2021-11-07T18:45:14Z</time>
      </trkpt>
      <trkpt lat="45.51394" lon="7.21218">
        <ele>2276.7</ele>
        <time>2021-11-07T18:45:19Z</time>
      </trkpt>
      <trkpt lat="45.51393" lon="7.21216">
        <ele>2276.4</ele>
        <time>2021-11-07T18:45:21Z</time>
      </trkpt>
      <trkpt lat="45.5139" lon="7.21211">
        <ele>2275.8</ele>
        <time>2021-11-07T18:45:26Z</time>
      </trkpt>
      <trkpt lat="45.51389" lon="7.21211">
        <ele>2275.7</ele>
        <time>2021-11-07T18:45:27Z</time>
      </trkpt>
      <trkpt lat="45.51388" lon="7.2121">
        <ele>2275.4</ele>
        <time>2021-11-07T18:45:29Z</time>
      </trkpt>
      <trkpt lat="45.51387" lon="7.21209">
        <ele>2275.3</ele>
        <time>2021-11-07T18:45:30Z</time>
      </trkpt>
      <trkpt lat="45.51386" lon="7.21208">
        <ele>2275.1</ele>
        <time>2021-11-07T18:45:31Z</time>
      </trkpt>
      <trkpt lat="45.51384" lon="7.21207">
        <ele>2274.8</ele>
        <time>2021-11-07T18:45:33Z</time>
      </trkpt>
      <trkpt lat="45.51379" lon="7.21207">
        <ele>2274</ele>
        <time>2021-11-07T18:45:39Z</time>
      </trkpt>
      <trkpt lat="45.51374" lon="7.21203">
        <ele>2272.9</ele>
        <time>2021-11-07T18:45:48Z</time>
      </trkpt>
      <trkpt lat="45.51374" lon="7.21201">
        <ele>2272.6</ele>
        <time>2021-11-07T18:45:50Z</time>
      </trkpt>
      <trkpt lat="45.51375" lon="7.21199">
        <ele>2272.3</ele>
        <time>2021-11-07T18:45:53Z</time>
      </trkpt>
      <trkpt lat="45.51374" lon="7.21195">
        <ele>2271.6</ele>
        <time>2021-11-07T18:45:59Z</time>
      </trkpt>
      <trkpt lat="45.51373" lon="7.21195">
        <ele>2271.4</ele>
        <time>2021-11-07T18:46:00Z</time>
      </trkpt>
      <trkpt lat="45.51369" lon="7.21195">
        <ele>2270.4</ele>
        <time>2021-11-07T18:46:06Z</time>
      </trkpt>
      <trkpt lat="45.51368" lon="7.21195">
        <ele>2270.2</ele>
        <time>2021-11-07T18:46:07Z</time>
      </trkpt>
      <trkpt lat="45.51367" lon="7.21194">
        <ele>2270</ele>
        <time>2021-11-07T18:46:09Z</time>
      </trkpt>
      <trkpt lat="45.5137" lon="7.2119">
        <ele>2269</ele>
        <time>2021-11-07T18:46:16Z</time>
      </trkpt>
      <trkpt lat="45.51372" lon="7.21189">
        <ele>2268.6</ele>
        <time>2021-11-07T18:46:18Z</time>
      </trkpt>
      <trkpt lat="45.51378" lon="7.21187">
        <ele>2267.4</ele>
        <time>2021-11-07T18:46:25Z</time>
      </trkpt>
      <trkpt lat="45.51381" lon="7.21188">
        <ele>2266.6</ele>
        <time>2021-11-07T18:46:29Z</time>
      </trkpt>
      <trkpt lat="45.51385" lon="7.21189">
        <ele>2266</ele>
        <time>2021-11-07T18:46:33Z</time>
      </trkpt>
      <trkpt lat="45.51385" lon="7.21189">
        <ele>2265.8</ele>
        <time>2021-11-07T18:46:34Z</time>
      </trkpt>
      <trkpt lat="45.51387" lon="7.21189">
        <ele>2265.5</ele>
        <time>2021-11-07T18:46:36Z</time>
      </trkpt>
      <trkpt lat="45.51389" lon="7.21189">
        <ele>2265.2</ele>
        <time>2021-11-07T18:46:38Z</time>
      </trkpt>
      <trkpt lat="45.5139" lon="7.21189">
        <ele>2265</ele>
        <time>2021-11-07T18:46:39Z</time>
      </trkpt>
      <trkpt lat="45.51391" lon="7.21189">
        <ele>2264.7</ele>
        <time>2021-11-07T18:46:41Z</time>
      </trkpt>
      <trkpt lat="45.51395" lon="7.2119">
        <ele>2264</ele>
        <time>2021-11-07T18:46:45Z</time>
      </trkpt>
      <trkpt lat="45.51399" lon="7.21189">
        <ele>2263.1</ele>
        <time>2021-11-07T18:46:51Z</time>
      </trkpt>
      <trkpt lat="45.51401" lon="7.21188">
        <ele>2262.7</ele>
        <time>2021-11-07T18:46:53Z</time>
      </trkpt>
      <trkpt lat="45.51402" lon="7.21188">
        <ele>2262.6</ele>
        <time>2021-11-07T18:46:54Z</time>
      </trkpt>
      <trkpt lat="45.51405" lon="7.21189">
        <ele>2262</ele>
        <time>2021-11-07T18:46:58Z</time>
      </trkpt>
      <trkpt lat="45.51407" lon="7.2119">
        <ele>2261.4</ele>
        <time>2021-11-07T18:47:01Z</time>
      </trkpt>
      <trkpt lat="45.51408" lon="7.2119">
        <ele>2261.2</ele>
        <time>2021-11-07T18:47:02Z</time>
      </trkpt>
      <trkpt lat="45.51412" lon="7.21193">
        <ele>2260.4</ele>
        <time>2021-11-07T18:47:06Z</time>
      </trkpt>
      <trkpt lat="45.51413" lon="7.21193">
        <ele>2260.3</ele>
        <time>2021-11-07T18:47:07Z</time>
      </trkpt>
      <trkpt lat="45.51416" lon="7.21196">
        <ele>2259.6</ele>
        <time>2021-11-07T18:47:12Z</time>
      </trkpt>
      <trkpt lat="45.51418" lon="7.21197">
        <ele>2259</ele>
        <time>2021-11-07T18:47:17Z</time>
      </trkpt>
      <trkpt lat="45.51419" lon="7.21196">
        <ele>2258.9</ele>
        <time>2021-11-07T18:47:19Z</time>
      </trkpt>
      <trkpt lat="45.51418" lon="7.21195">
        <ele>2258.8</ele>
        <time>2021-11-07T18:47:21Z</time>
      </trkpt>
      <trkpt lat="45.51413" lon="7.21185">
        <ele>2257.3</ele>
        <time>2021-11-07T18:47:27Z</time>
      </trkpt>
      <trkpt lat="45.51402" lon="7.21176">
        <ele>2255.5</ele>
        <time>2021-11-07T18:47:39Z</time>
      </trkpt>
      <trkpt lat="45.51398" lon="7.21175">
        <ele>2255</ele>
        <time>2021-11-07T18:47:43Z</time>
      </trkpt>
      <trkpt lat="45.51393" lon="7.21172">
        <ele>2254.3</ele>
        <time>2021-11-07T18:47:49Z</time>
      </trkpt>
      <trkpt lat="45.51391" lon="7.21171">
        <ele>2254</ele>
        <time>2021-11-07T18:47:51Z</time>
      </trkpt>
      <trkpt lat="45.51388" lon="7.21169">
        <ele>2253.6</ele>
        <time>2021-11-07T18:47:54Z</time>
      </trkpt>
      <trkpt lat="45.5138" lon="7.21164">
        <ele>2252.6</ele>
        <time>2021-11-07T18:48:04Z</time>
      </trkpt>
      <trkpt lat="45.5138" lon="7.21164">
        <ele>2252.5</ele>
        <time>2021-11-07T18:48:05Z</time>
      </trkpt>
      <trkpt lat="45.51376" lon="7.21161">
        <ele>2251.9</ele>
        <time>2021-11-07T18:48:10Z</time>
      </trkpt>
      <trkpt lat="45.51374" lon="7.21157">
        <ele>2251.4</ele>
        <time>2021-11-07T18:48:14Z</time>
      </trkpt>
      <trkpt lat="45.51372" lon="7.21155">
        <ele>2251.1</ele>
        <time>2021-11-07T18:48:16Z</time>
      </trkpt>
      <trkpt lat="45.5137" lon="7.21153">
        <ele>2250.7</ele>
        <time>2021-11-07T18:48:19Z</time>
      </trkpt>
      <trkpt lat="45.51364" lon="7.2115">
        <ele>2249.7</ele>
        <time>2021-11-07T18:48:26Z</time>
      </trkpt>
      <trkpt lat="45.51363" lon="7.2115">
        <ele>2249.5</ele>
        <time>2021-11-07T18:48:28Z</time>
      </trkpt>
      <trkpt lat="45.51362" lon="7.2115">
        <ele>2249.3</ele>
        <time>2021-11-07T18:48:30Z</time>
      </trkpt>
      <trkpt lat="45.51361" lon="7.2115">
        <ele>2249.1</ele>
        <time>2021-11-07T18:48:31Z</time>
      </trkpt>
      <trkpt lat="45.5136" lon="7.21148">
        <ele>2248.8</ele>
        <time>2021-11-07T18:48:34Z</time>
      </trkpt>
      <trkpt lat="45.5136" lon="7.21147">
        <ele>2248.6</ele>
        <time>2021-11-07T18:48:35Z</time>
      </trkpt>
      <trkpt lat="45.51361" lon="7.21146">
        <ele>2248.5</ele>
        <time>2021-11-07T18:48:36Z</time>
      </trkpt>
      <trkpt lat="45.51363" lon="7.21142">
        <ele>2247.7</ele>
        <time>2021-11-07T18:48:41Z</time>
      </trkpt>
      <trkpt lat="45.51365" lon="7.21139">
        <ele>2247</ele>
        <time>2021-11-07T18:48:44Z</time>
      </trkpt>
      <trkpt lat="45.51366" lon="7.21138">
        <ele>2246.6</ele>
        <time>2021-11-07T18:48:46Z</time>
      </trkpt>
      <trkpt lat="45.51368" lon="7.21138">
        <ele>2246.1</ele>
        <time>2021-11-07T18:48:48Z</time>
      </trkpt>
      <trkpt lat="45.5137" lon="7.21138">
        <ele>2245.7</ele>
        <time>2021-11-07T18:48:51Z</time>
      </trkpt>
      <trkpt lat="45.51371" lon="7.21138">
        <ele>2245.4</ele>
        <time>2021-11-07T18:48:53Z</time>
      </trkpt>
      <trkpt lat="45.51372" lon="7.21139">
        <ele>2245.2</ele>
        <time>2021-11-07T18:48:54Z</time>
      </trkpt>
      <trkpt lat="45.51375" lon="7.21139">
        <ele>2244.4</ele>
        <time>2021-11-07T18:48:58Z</time>
      </trkpt>
      <trkpt lat="45.51378" lon="7.21141">
        <ele>2243.8</ele>
        <time>2021-11-07T18:49:01Z</time>
      </trkpt>
      <trkpt lat="45.51379" lon="7.21142">
        <ele>2243.4</ele>
        <time>2021-11-07T18:49:03Z</time>
      </trkpt>
      <trkpt lat="45.51381" lon="7.21143">
        <ele>2243</ele>
        <time>2021-11-07T18:49:05Z</time>
      </trkpt>
      <trkpt lat="45.51382" lon="7.21143">
        <ele>2242.8</ele>
        <time>2021-11-07T18:49:06Z</time>
      </trkpt>
      <trkpt lat="45.51385" lon="7.21144">
        <ele>2242.1</ele>
        <time>2021-11-07T18:49:10Z</time>
      </trkpt>
      <trkpt lat="45.51387" lon="7.21145">
        <ele>2241.7</ele>
        <time>2021-11-07T18:49:12Z</time>
      </trkpt>
      <trkpt lat="45.51389" lon="7.21145">
        <ele>2241.2</ele>
        <time>2021-11-07T18:49:16Z</time>
      </trkpt>
      <trkpt lat="45.5139" lon="7.21145">
        <ele>2241.1</ele>
        <time>2021-11-07T18:49:17Z</time>
      </trkpt>
      <trkpt lat="45.51395" lon="7.21144">
        <ele>2239.9</ele>
        <time>2021-11-07T18:49:24Z</time>
      </trkpt>
      <trkpt lat="45.51399" lon="7.21144">
        <ele>2239</ele>
        <time>2021-11-07T18:49:29Z</time>
      </trkpt>
      <trkpt lat="45.51402" lon="7.21143">
        <ele>2238.5</ele>
        <time>2021-11-07T18:49:32Z</time>
      </trkpt>
      <trkpt lat="45.51406" lon="7.21142">
        <ele>2237.6</ele>
        <time>2021-11-07T18:49:38Z</time>
      </trkpt>
      <trkpt lat="45.51408" lon="7.21141">
        <ele>2237.4</ele>
        <time>2021-11-07T18:49:40Z</time>
      </trkpt>
      <trkpt lat="45.5141" lon="7.21141">
        <ele>2236.9</ele>
        <time>2021-11-07T18:49:43Z</time>
      </trkpt>
      <trkpt lat="45.51412" lon="7.21141">
        <ele>2236.6</ele>
        <time>2021-11-07T18:49:46Z</time>
      </trkpt>
      <trkpt lat="45.51412" lon="7.21141">
        <ele>2236.4</ele>
        <time>2021-11-07T18:49:47Z</time>
      </trkpt>
      <trkpt lat="45.51413" lon="7.21141">
        <ele>2236.3</ele>
        <time>2021-11-07T18:49:48Z</time>
      </trkpt>
      <trkpt lat="45.51414" lon="7.21141">
        <ele>2236.2</ele>
        <time>2021-11-07T18:49:49Z</time>
      </trkpt>
      <trkpt lat="45.51415" lon="7.21141">
        <ele>2235.9</ele>
        <time>2021-11-07T18:49:51Z</time>
      </trkpt>
      <trkpt lat="45.51416" lon="7.21141">
        <ele>2235.8</ele>
        <time>2021-11-07T18:49:52Z</time>
      </trkpt>
      <trkpt lat="45.51417" lon="7.21141">
        <ele>2235.5</ele>
        <time>2021-11-07T18:49:55Z</time>
      </trkpt>
      <trkpt lat="45.51419" lon="7.2114">
        <ele>2235.2</ele>
        <time>2021-11-07T18:49:58Z</time>
      </trkpt>
      <trkpt lat="45.51421" lon="7.2114">
        <ele>2235</ele>
        <time>2021-11-07T18:50:00Z</time>
      </trkpt>
      <trkpt lat="45.51427" lon="7.21143">
        <ele>2234</ele>
        <time>2021-11-07T18:50:07Z</time>
      </trkpt>
      <trkpt lat="45.51429" lon="7.21145">
        <ele>2233.6</ele>
        <time>2021-11-07T18:50:10Z</time>
      </trkpt>
      <trkpt lat="45.5143" lon="7.21146">
        <ele>2233.4</ele>
        <time>2021-11-07T18:50:11Z</time>
      </trkpt>
      <trkpt lat="45.51432" lon="7.21148">
        <ele>2233</ele>
        <time>2021-11-07T18:50:15Z</time>
      </trkpt>
      <trkpt lat="45.51436" lon="7.2115">
        <ele>2232.4</ele>
        <time>2021-11-07T18:50:20Z</time>
      </trkpt>
      <trkpt lat="45.51436" lon="7.2115">
        <ele>2232.4</ele>
        <time>2021-11-07T18:50:21Z</time>
      </trkpt>
      <trkpt lat="45.51438" lon="7.21151">
        <ele>2232.1</ele>
        <time>2021-11-07T18:50:24Z</time>
      </trkpt>
      <trkpt lat="45.51443" lon="7.21154">
        <ele>2231.3</ele>
        <time>2021-11-07T18:50:31Z</time>
      </trkpt>
      <trkpt lat="45.51444" lon="7.21155">
        <ele>2231.1</ele>
        <time>2021-11-07T18:50:32Z</time>
      </trkpt>
      <trkpt lat="45.51453" lon="7.21158">
        <ele>2230</ele>
        <time>2021-11-07T18:50:41Z</time>
      </trkpt>
      <trkpt lat="45.51454" lon="7.21158">
        <ele>2229.8</ele>
        <time>2021-11-07T18:50:42Z</time>
      </trkpt>
      <trkpt lat="45.51456" lon="7.21158">
        <ele>2229.5</ele>
        <time>2021-11-07T18:50:44Z</time>
      </trkpt>
      <trkpt lat="45.51457" lon="7.21158">
        <ele>2229.3</ele>
        <time>2021-11-07T18:50:45Z</time>
      </trkpt>
      <trkpt lat="45.5146" lon="7.21158">
        <ele>2228.8</ele>
        <time>2021-11-07T18:50:49Z</time>
      </trkpt>
      <trkpt lat="45.51461" lon="7.21157">
        <ele>2228.6</ele>
        <time>2021-11-07T18:50:53Z</time>
      </trkpt>
      <trkpt lat="45.51461" lon="7.21156">
        <ele>2228.5</ele>
        <time>2021-11-07T18:50:54Z</time>
      </trkpt>
      <trkpt lat="45.51456" lon="7.21155">
        <ele>2227.7</ele>
        <time>2021-11-07T18:51:03Z</time>
      </trkpt>
      <trkpt lat="45.51453" lon="7.21149">
        <ele>2226.7</ele>
        <time>2021-11-07T18:51:13Z</time>
      </trkpt>
      <trkpt lat="45.51452" lon="7.21148">
        <ele>2226.6</ele>
        <time>2021-11-07T18:51:14Z</time>
      </trkpt>
      <trkpt lat="45.51447" lon="7.2114">
        <ele>2225.5</ele>
        <time>2021-11-07T18:51:22Z</time>
      </trkpt>
      <trkpt lat="45.51442" lon="7.21135">
        <ele>2224.9</ele>
        <time>2021-11-07T18:51:28Z</time>
      </trkpt>
      <trkpt lat="45.51433" lon="7.21127">
        <ele>2223.9</ele>
        <time>2021-11-07T18:51:40Z</time>
      </trkpt>
      <trkpt lat="45.51432" lon="7.21126">
        <ele>2223.8</ele>
        <time>2021-11-07T18:51:41Z</time>
      </trkpt>
      <trkpt lat="45.51431" lon="7.21123">
        <ele>2223.4</ele>
        <time>2021-11-07T18:51:47Z</time>
      </trkpt>
      <trkpt lat="45.51429" lon="7.21121">
        <ele>2223.1</ele>
        <time>2021-11-07T18:51:50Z</time>
      </trkpt>
      <trkpt lat="45.51428" lon="7.2112">
        <ele>2223</ele>
        <time>2021-11-07T18:51:51Z</time>
      </trkpt>
      <trkpt lat="45.51426" lon="7.21116">
        <ele>2222.4</ele>
        <time>2021-11-07T18:51:57Z</time>
      </trkpt>
      <trkpt lat="45.51424" lon="7.21113">
        <ele>2222</ele>
        <time>2021-11-07T18:52:00Z</time>
      </trkpt>
      <trkpt lat="45.51424" lon="7.21112">
        <ele>2221.6</ele>
        <time>2021-11-07T18:52:02Z</time>
      </trkpt>
      <trkpt lat="45.51422" lon="7.2111">
        <ele>2221.2</ele>
        <time>2021-11-07T18:52:04Z</time>
      </trkpt>
      <trkpt lat="45.51421" lon="7.21109">
        <ele>2220.9</ele>
        <time>2021-11-07T18:52:06Z</time>
      </trkpt>
      <trkpt lat="45.51418" lon="7.21107">
        <ele>2219.8</ele>
        <time>2021-11-07T18:52:12Z</time>
      </trkpt>
      <trkpt lat="45.51415" lon="7.21104">
        <ele>2219</ele>
        <time>2021-11-07T18:52:16Z</time>
      </trkpt>
      <trkpt lat="45.51411" lon="7.21103">
        <ele>2218.1</ele>
        <time>2021-11-07T18:52:20Z</time>
      </trkpt>
      <trkpt lat="45.51408" lon="7.21101">
        <ele>2217.2</ele>
        <time>2021-11-07T18:52:26Z</time>
      </trkpt>
      <trkpt lat="45.51407" lon="7.211">
        <ele>2217</ele>
        <time>2021-11-07T18:52:27Z</time>
      </trkpt>
      <trkpt lat="45.51407" lon="7.211">
        <ele>2216.8</ele>
        <time>2021-11-07T18:52:28Z</time>
      </trkpt>
      <trkpt lat="45.51406" lon="7.21099">
        <ele>2216.6</ele>
        <time>2021-11-07T18:52:30Z</time>
      </trkpt>
      <trkpt lat="45.51406" lon="7.21096">
        <ele>2216</ele>
        <time>2021-11-07T18:52:36Z</time>
      </trkpt>
      <trkpt lat="45.51407" lon="7.21094">
        <ele>2215.6</ele>
        <time>2021-11-07T18:52:39Z</time>
      </trkpt>
      <trkpt lat="45.5141" lon="7.21093">
        <ele>2214.9</ele>
        <time>2021-11-07T18:52:43Z</time>
      </trkpt>
      <trkpt lat="45.51413" lon="7.21092">
        <ele>2214.1</ele>
        <time>2021-11-07T18:52:47Z</time>
      </trkpt>
      <trkpt lat="45.51413" lon="7.21092">
        <ele>2214</ele>
        <time>2021-11-07T18:52:48Z</time>
      </trkpt>
      <trkpt lat="45.51414" lon="7.21091">
        <ele>2213.7</ele>
        <time>2021-11-07T18:52:50Z</time>
      </trkpt>
      <trkpt lat="45.51417" lon="7.21087">
        <ele>2212.7</ele>
        <time>2021-11-07T18:52:56Z</time>
      </trkpt>
      <trkpt lat="45.51418" lon="7.21087">
        <ele>2212.5</ele>
        <time>2021-11-07T18:52:57Z</time>
      </trkpt>
      <trkpt lat="45.5142" lon="7.21087">
        <ele>2211.9</ele>
        <time>2021-11-07T18:53:00Z</time>
      </trkpt>
      <trkpt lat="45.51424" lon="7.21087">
        <ele>2211.1</ele>
        <time>2021-11-07T18:53:03Z</time>
      </trkpt>
      <trkpt lat="45.51424" lon="7.21087">
        <ele>2210.9</ele>
        <time>2021-11-07T18:53:04Z</time>
      </trkpt>
      <trkpt lat="45.51425" lon="7.21087">
        <ele>2210.7</ele>
        <time>2021-11-07T18:53:05Z</time>
      </trkpt>
      <trkpt lat="45.51426" lon="7.21088">
        <ele>2210.5</ele>
        <time>2021-11-07T18:53:06Z</time>
      </trkpt>
      <trkpt lat="45.51428" lon="7.21088">
        <ele>2210.1</ele>
        <time>2021-11-07T18:53:08Z</time>
      </trkpt>
      <trkpt lat="45.51434" lon="7.21087">
        <ele>2208.4</ele>
        <time>2021-11-07T18:53:15Z</time>
      </trkpt>
      <trkpt lat="45.51437" lon="7.21086">
        <ele>2207.8</ele>
        <time>2021-11-07T18:53:18Z</time>
      </trkpt>
      <trkpt lat="45.51437" lon="7.21086">
        <ele>2207.6</ele>
        <time>2021-11-07T18:53:19Z</time>
      </trkpt>
      <trkpt lat="45.51439" lon="7.21086">
        <ele>2207.2</ele>
        <time>2021-11-07T18:53:21Z</time>
      </trkpt>
      <trkpt lat="45.51441" lon="7.21086">
        <ele>2206.7</ele>
        <time>2021-11-07T18:53:23Z</time>
      </trkpt>
      <trkpt lat="45.51443" lon="7.21087">
        <ele>2206.1</ele>
        <time>2021-11-07T18:53:26Z</time>
      </trkpt>
      <trkpt lat="45.51444" lon="7.21087">
        <ele>2205.9</ele>
        <time>2021-11-07T18:53:27Z</time>
      </trkpt>
      <trkpt lat="45.51447" lon="7.21089">
        <ele>2205.1</ele>
        <time>2021-11-07T18:53:31Z</time>
      </trkpt>
      <trkpt lat="45.5145" lon="7.21091">
        <ele>2204.3</ele>
        <time>2021-11-07T18:53:35Z</time>
      </trkpt>
      <trkpt lat="45.5145" lon="7.21092">
        <ele>2204.1</ele>
        <time>2021-11-07T18:53:36Z</time>
      </trkpt>
      <trkpt lat="45.51453" lon="7.21094">
        <ele>2203.3</ele>
        <time>2021-11-07T18:53:40Z</time>
      </trkpt>
      <trkpt lat="45.51456" lon="7.21097">
        <ele>2202.4</ele>
        <time>2021-11-07T18:53:44Z</time>
      </trkpt>
      <trkpt lat="45.51457" lon="7.21098">
        <ele>2202.1</ele>
        <time>2021-11-07T18:53:45Z</time>
      </trkpt>
      <trkpt lat="45.51459" lon="7.21101">
        <ele>2201.4</ele>
        <time>2021-11-07T18:53:48Z</time>
      </trkpt>
      <trkpt lat="45.5146" lon="7.21102">
        <ele>2201.1</ele>
        <time>2021-11-07T18:53:49Z</time>
      </trkpt>
      <trkpt lat="45.51461" lon="7.21104">
        <ele>2200.7</ele>
        <time>2021-11-07T18:53:51Z</time>
      </trkpt>
      <trkpt lat="45.51464" lon="7.21105">
        <ele>2199.8</ele>
        <time>2021-11-07T18:53:55Z</time>
      </trkpt>
      <trkpt lat="45.51468" lon="7.21107">
        <ele>2198.8</ele>
        <time>2021-11-07T18:54:00Z</time>
      </trkpt>
      <trkpt lat="45.51468" lon="7.21108">
        <ele>2198.7</ele>
        <time>2021-11-07T18:54:01Z</time>
      </trkpt>
      <trkpt lat="45.51469" lon="7.21109">
        <ele>2198.4</ele>
        <time>2021-11-07T18:54:03Z</time>
      </trkpt>
      <trkpt lat="45.5147" lon="7.21104">
        <ele>2197.6</ele>
        <time>2021-11-07T18:54:09Z</time>
      </trkpt>
      <trkpt lat="45.5147" lon="7.21103">
        <ele>2197.7</ele>
        <time>2021-11-07T18:54:10Z</time>
      </trkpt>
      <trkpt lat="45.51469" lon="7.21102">
        <ele>2195.2</ele>
        <time>2021-11-07T18:54:11Z</time>
      </trkpt>
      <trkpt lat="45.51467" lon="7.21096">
        <ele>2193.4</ele>
        <time>2021-11-07T18:54:16Z</time>
      </trkpt>
      <trkpt lat="45.51465" lon="7.21084">
        <ele>2185.7</ele>
        <time>2021-11-07T18:54:26Z</time>
      </trkpt>
      <trkpt lat="45.51465" lon="7.21079">
        <ele>2183</ele>
        <time>2021-11-07T18:54:32Z</time>
      </trkpt>
      <trkpt lat="45.51465" lon="7.21074">
        <ele>2180.9</ele>
        <time>2021-11-07T18:54:38Z</time>
      </trkpt>
      <trkpt lat="45.51464" lon="7.21073">
        <ele>2181</ele>
        <time>2021-11-07T18:54:40Z</time>
      </trkpt>
      <trkpt lat="45.51465" lon="7.21069">
        <ele>2178.3</ele>
        <time>2021-11-07T18:54:43Z</time>
      </trkpt>
      <trkpt lat="45.51468" lon="7.21067">
        <ele>2175.2</ele>
        <time>2021-11-07T18:54:51Z</time>
      </trkpt>
      <trkpt lat="45.51468" lon="7.21068">
        <ele>2177.1</ele>
        <time>2021-11-07T18:54:52Z</time>
      </trkpt>
      <trkpt lat="45.51471" lon="7.21076">
        <ele>2179.1</ele>
        <time>2021-11-07T18:55:00Z</time>
      </trkpt>
      <trkpt lat="45.51472" lon="7.21077">
        <ele>2181.9</ele>
        <time>2021-11-07T18:55:02Z</time>
      </trkpt>
      <trkpt lat="45.51472" lon="7.21078">
        <ele>2181.9</ele>
        <time>2021-11-07T18:55:03Z</time>
      </trkpt>
      <trkpt lat="45.51474" lon="7.21082">
        <ele>2184.7</ele>
        <time>2021-11-07T18:55:07Z</time>
      </trkpt>
      <trkpt lat="45.51476" lon="7.21085">
        <ele>2184.1</ele>
        <time>2021-11-07T18:55:11Z</time>
      </trkpt>
      <trkpt lat="45.51479" lon="7.21087">
        <ele>2186.3</ele>
        <time>2021-11-07T18:55:14Z</time>
      </trkpt>
      <trkpt lat="45.5148" lon="7.2109">
        <ele>2188.4</ele>
        <time>2021-11-07T18:55:17Z</time>
      </trkpt>
      <trkpt lat="45.51483" lon="7.21094">
        <ele>2190.6</ele>
        <time>2021-11-07T18:55:22Z</time>
      </trkpt>
      <trkpt lat="45.51485" lon="7.21097">
        <ele>2190.6</ele>
        <time>2021-11-07T18:55:26Z</time>
      </trkpt>
      <trkpt lat="45.51489" lon="7.211">
        <ele>2192.8</ele>
        <time>2021-11-07T18:55:31Z</time>
      </trkpt>
      <trkpt lat="45.51489" lon="7.21101">
        <ele>2192.5</ele>
        <time>2021-11-07T18:55:32Z</time>
      </trkpt>
      <trkpt lat="45.51494" lon="7.211">
        <ele>2192.2</ele>
        <time>2021-11-07T18:55:37Z</time>
      </trkpt>
      <trkpt lat="45.51499" lon="7.211">
        <ele>2191.9</ele>
        <time>2021-11-07T18:55:42Z</time>
      </trkpt>
      <trkpt lat="45.515" lon="7.211">
        <ele>2192</ele>
        <time>2021-11-07T18:55:44Z</time>
      </trkpt>
      <trkpt lat="45.51503" lon="7.211">
        <ele>2192</ele>
        <time>2021-11-07T18:55:47Z</time>
      </trkpt>
      <trkpt lat="45.51505" lon="7.21098">
        <ele>2189.4</ele>
        <time>2021-11-07T18:55:51Z</time>
      </trkpt>
      <trkpt lat="45.51509" lon="7.21097">
        <ele>2189.5</ele>
        <time>2021-11-07T18:55:55Z</time>
      </trkpt>
      <trkpt lat="45.51511" lon="7.21097">
        <ele>2189.7</ele>
        <time>2021-11-07T18:55:58Z</time>
      </trkpt>
      <trkpt lat="45.51512" lon="7.21097">
        <ele>2189.7</ele>
        <time>2021-11-07T18:55:59Z</time>
      </trkpt>
      <trkpt lat="45.51512" lon="7.21096">
        <ele>2189.8</ele>
        <time>2021-11-07T18:56:00Z</time>
      </trkpt>
      <trkpt lat="45.51513" lon="7.21096">
        <ele>2190</ele>
        <time>2021-11-07T18:56:02Z</time>
      </trkpt>
      <trkpt lat="45.51516" lon="7.21093">
        <ele>2187.8</ele>
        <time>2021-11-07T18:56:06Z</time>
      </trkpt>
      <trkpt lat="45.51518" lon="7.21091">
        <ele>2187.8</ele>
        <time>2021-11-07T18:56:10Z</time>
      </trkpt>
      <trkpt lat="45.51519" lon="7.21088">
        <ele>2185.5</ele>
        <time>2021-11-07T18:56:12Z</time>
      </trkpt>
      <trkpt lat="45.5152" lon="7.21085">
        <ele>2185.6</ele>
        <time>2021-11-07T18:56:14Z</time>
      </trkpt>
      <trkpt lat="45.5152" lon="7.21085">
        <ele>2185.6</ele>
        <time>2021-11-07T18:56:15Z</time>
      </trkpt>
      <trkpt lat="45.5152" lon="7.21085">
        <ele>2182.8</ele>
        <time>2021-11-07T18:56:18Z</time>
      </trkpt>
      <trkpt lat="45.51519" lon="7.21084">
        <ele>2182.5</ele>
        <time>2021-11-07T18:56:22Z</time>
      </trkpt>
      <trkpt lat="45.51515" lon="7.21082">
        <ele>2182.2</ele>
        <time>2021-11-07T18:56:25Z</time>
      </trkpt>
      <trkpt lat="45.51516" lon="7.21079">
        <ele>2179.4</ele>
        <time>2021-11-07T18:56:31Z</time>
      </trkpt>
      <trkpt lat="45.51518" lon="7.21077">
        <ele>2179.7</ele>
        <time>2021-11-07T18:56:36Z</time>
      </trkpt>
      <trkpt lat="45.51519" lon="7.21076">
        <ele>2177.3</ele>
        <time>2021-11-07T18:56:39Z</time>
      </trkpt>
      <trkpt lat="45.5152" lon="7.21077">
        <ele>2180.2</ele>
        <time>2021-11-07T18:56:40Z</time>
      </trkpt>
      <trkpt lat="45.51521" lon="7.21078">
        <ele>2180.3</ele>
        <time>2021-11-07T18:56:43Z</time>
      </trkpt>
      <trkpt lat="45.51525" lon="7.21078">
        <ele>2180.8</ele>
        <time>2021-11-07T18:56:49Z</time>
      </trkpt>
      <trkpt lat="45.51526" lon="7.21078">
        <ele>2181.4</ele>
        <time>2021-11-07T18:56:52Z</time>
      </trkpt>
      <trkpt lat="45.51527" lon="7.21078">
        <ele>2181.4</ele>
        <time>2021-11-07T18:56:53Z</time>
      </trkpt>
      <trkpt lat="45.51528" lon="7.2108">
        <ele>2181.4</ele>
        <time>2021-11-07T18:56:55Z</time>
      </trkpt>
      <trkpt lat="45.51528" lon="7.21081">
        <ele>2182.1</ele>
        <time>2021-11-07T18:56:56Z</time>
      </trkpt>
      <trkpt lat="45.51529" lon="7.21082">
        <ele>2185</ele>
        <time>2021-11-07T18:56:57Z</time>
      </trkpt>
      <trkpt lat="45.51531" lon="7.21084">
        <ele>2185.7</ele>
        <time>2021-11-07T18:57:00Z</time>
      </trkpt>
      <trkpt lat="45.51533" lon="7.21085">
        <ele>2188.6</ele>
        <time>2021-11-07T18:57:03Z</time>
      </trkpt>
      <trkpt lat="45.51535" lon="7.21085">
        <ele>2189.4</ele>
        <time>2021-11-07T18:57:06Z</time>
      </trkpt>
      <trkpt lat="45.51536" lon="7.21084">
        <ele>2186.6</ele>
        <time>2021-11-07T18:57:07Z</time>
      </trkpt>
      <trkpt lat="45.51538" lon="7.21081">
        <ele>2187.4</ele>
        <time>2021-11-07T18:57:11Z</time>
      </trkpt>
      <trkpt lat="45.51539" lon="7.21079">
        <ele>2184.6</ele>
        <time>2021-11-07T18:57:14Z</time>
      </trkpt>
      <trkpt lat="45.51538" lon="7.21076">
        <ele>2181.7</ele>
        <time>2021-11-07T18:57:17Z</time>
      </trkpt>
      <trkpt lat="45.51538" lon="7.21074">
        <ele>2181.8</ele>
        <time>2021-11-07T18:57:20Z</time>
      </trkpt>
      <trkpt lat="45.51538" lon="7.21072">
        <ele>2179</ele>
        <time>2021-11-07T18:57:22Z</time>
      </trkpt>
      <trkpt lat="45.51537" lon="7.2107">
        <ele>2179.1</ele>
        <time>2021-11-07T18:57:24Z</time>
      </trkpt>
      <trkpt lat="45.51537" lon="7.21065">
        <ele>2175.7</ele>
        <time>2021-11-07T18:57:29Z</time>
      </trkpt>
      <trkpt lat="45.51537" lon="7.21064">
        <ele>2175.7</ele>
        <time>2021-11-07T18:57:30Z</time>
      </trkpt>
      <trkpt lat="45.5153" lon="7.21059">
        <ele>2169.4</ele>
        <time>2021-11-07T18:57:41Z</time>
      </trkpt>
      <trkpt lat="45.51528" lon="7.21058">
        <ele>2169.4</ele>
        <time>2021-11-07T18:57:43Z</time>
      </trkpt>
      <trkpt lat="45.51526" lon="7.21053">
        <ele>2166.4</ele>
        <time>2021-11-07T18:57:48Z</time>
      </trkpt>
      <trkpt lat="45.51527" lon="7.21052">
        <ele>2166.4</ele>
        <time>2021-11-07T18:57:50Z</time>
      </trkpt>
      <trkpt lat="45.51528" lon="7.21052">
        <ele>2166.5</ele>
        <time>2021-11-07T18:57:51Z</time>
      </trkpt>
      <trkpt lat="45.51529" lon="7.21052">
        <ele>2167.1</ele>
        <time>2021-11-07T18:57:54Z</time>
      </trkpt>
      <trkpt lat="45.51534" lon="7.2105">
        <ele>2165.4</ele>
        <time>2021-11-07T18:58:01Z</time>
      </trkpt>
      <trkpt lat="45.51536" lon="7.21048">
        <ele>2166.2</ele>
        <time>2021-11-07T18:58:07Z</time>
      </trkpt>
      <trkpt lat="45.51535" lon="7.21047">
        <ele>2166.2</ele>
        <time>2021-11-07T18:58:13Z</time>
      </trkpt>
      <trkpt lat="45.51535" lon="7.21046">
        <ele>2163.8</ele>
        <time>2021-11-07T18:58:14Z</time>
      </trkpt>
      <trkpt lat="45.5153" lon="7.21047">
        <ele>2164.9</ele>
        <time>2021-11-07T18:58:20Z</time>
      </trkpt>
      <trkpt lat="45.51526" lon="7.21048">
        <ele>2164.4</ele>
        <time>2021-11-07T18:58:24Z</time>
      </trkpt>
      <trkpt lat="45.51525" lon="7.21047">
        <ele>2163.9</ele>
        <time>2021-11-07T18:58:27Z</time>
      </trkpt>
      <trkpt lat="45.51522" lon="7.21048">
        <ele>2163.9</ele>
        <time>2021-11-07T18:58:30Z</time>
      </trkpt>
      <trkpt lat="45.51515" lon="7.21046">
        <ele>2160.5</ele>
        <time>2021-11-07T18:58:38Z</time>
      </trkpt>
      <trkpt lat="45.51513" lon="7.21045">
        <ele>2160.6</ele>
        <time>2021-11-07T18:58:43Z</time>
      </trkpt>
      <trkpt lat="45.5151" lon="7.21041">
        <ele>2158.1</ele>
        <time>2021-11-07T18:58:48Z</time>
      </trkpt>
      <trkpt lat="45.51508" lon="7.21039">
        <ele>2158.2</ele>
        <time>2021-11-07T18:58:52Z</time>
      </trkpt>
      <trkpt lat="45.51507" lon="7.21036">
        <ele>2155.7</ele>
        <time>2021-11-07T18:58:55Z</time>
      </trkpt>
      <trkpt lat="45.51506" lon="7.21031">
        <ele>2153.3</ele>
        <time>2021-11-07T18:59:02Z</time>
      </trkpt>
      <trkpt lat="45.51507" lon="7.21029">
        <ele>2150.7</ele>
        <time>2021-11-07T18:59:05Z</time>
      </trkpt>
      <trkpt lat="45.51506" lon="7.21025">
        <ele>2148.2</ele>
        <time>2021-11-07T18:59:10Z</time>
      </trkpt>
      <trkpt lat="45.51506" lon="7.21024">
        <ele>2148.3</ele>
        <time>2021-11-07T18:59:12Z</time>
      </trkpt>
      <trkpt lat="45.51505" lon="7.21019">
        <ele>2145.9</ele>
        <time>2021-11-07T18:59:16Z</time>
      </trkpt>
      <trkpt lat="45.51504" lon="7.21016">
        <ele>2143.7</ele>
        <time>2021-11-07T18:59:19Z</time>
      </trkpt>
      <trkpt lat="45.51504" lon="7.21014">
        <ele>2143.8</ele>
        <time>2021-11-07T18:59:22Z</time>
      </trkpt>
      <trkpt lat="45.515" lon="7.21014">
        <ele>2144</ele>
        <time>2021-11-07T18:59:28Z</time>
      </trkpt>
      <trkpt lat="45.51498" lon="7.21013">
        <ele>2144.1</ele>
        <time>2021-11-07T18:59:31Z</time>
      </trkpt>
      <trkpt lat="45.51496" lon="7.2101">
        <ele>2142.1</ele>
        <time>2021-11-07T18:59:35Z</time>
      </trkpt>
      <trkpt lat="45.51498" lon="7.21005">
        <ele>2139.6</ele>
        <time>2021-11-07T18:59:40Z</time>
      </trkpt>
      <trkpt lat="45.51498" lon="7.21004">
        <ele>2139.7</ele>
        <time>2021-11-07T18:59:41Z</time>
      </trkpt>
      <trkpt lat="45.51497" lon="7.21004">
        <ele>2139.9</ele>
        <time>2021-11-07T18:59:42Z</time>
      </trkpt>
      <trkpt lat="45.51498" lon="7.21005">
        <ele>2139.8</ele>
        <time>2021-11-07T18:59:45Z</time>
      </trkpt>
      <trkpt lat="45.51498" lon="7.21005">
        <ele>2139.8</ele>
        <time>2021-11-07T18:59:46Z</time>
      </trkpt>
      <trkpt lat="45.51499" lon="7.21006">
        <ele>2139.8</ele>
        <time>2021-11-07T18:59:48Z</time>
      </trkpt>
      <trkpt lat="45.51499" lon="7.21006">
        <ele>2139.9</ele>
        <time>2021-11-07T18:59:49Z</time>
      </trkpt>
      <trkpt lat="45.51505" lon="7.21009">
        <ele>2141.9</ele>
        <time>2021-11-07T18:59:56Z</time>
      </trkpt>
      <trkpt lat="45.51508" lon="7.21008">
        <ele>2141.8</ele>
        <time>2021-11-07T19:00:00Z</time>
      </trkpt>
      <trkpt lat="45.51509" lon="7.21007">
        <ele>2139.7</ele>
        <time>2021-11-07T19:00:02Z</time>
      </trkpt>
      <trkpt lat="45.5151" lon="7.21005">
        <ele>2139.7</ele>
        <time>2021-11-07T19:00:06Z</time>
      </trkpt>
      <trkpt lat="45.51509" lon="7.21002">
        <ele>2137.4</ele>
        <time>2021-11-07T19:00:11Z</time>
      </trkpt>
      <trkpt lat="45.5151" lon="7.21003">
        <ele>2137.4</ele>
        <time>2021-11-07T19:00:14Z</time>
      </trkpt>
      <trkpt lat="45.5151" lon="7.21002">
        <ele>2137.5</ele>
        <time>2021-11-07T19:00:15Z</time>
      </trkpt>
      <trkpt lat="45.51512" lon="7.21003">
        <ele>2137.5</ele>
        <time>2021-11-07T19:00:21Z</time>
      </trkpt>
      <trkpt lat="45.51512" lon="7.21002">
        <ele>2137.5</ele>
        <time>2021-11-07T19:00:23Z</time>
      </trkpt>
      <trkpt lat="45.51512" lon="7.21">
        <ele>2137.6</ele>
        <time>2021-11-07T19:00:25Z</time>
      </trkpt>
      <trkpt lat="45.51512" lon="7.20999">
        <ele>2135.2</ele>
        <time>2021-11-07T19:00:26Z</time>
      </trkpt>
      <trkpt lat="45.5151" lon="7.20996">
        <ele>2135.3</ele>
        <time>2021-11-07T19:00:33Z</time>
      </trkpt>
      <trkpt lat="45.51508" lon="7.20996">
        <ele>2135.3</ele>
        <time>2021-11-07T19:00:35Z</time>
      </trkpt>
      <trkpt lat="45.51507" lon="7.20995">
        <ele>2135.4</ele>
        <time>2021-11-07T19:00:37Z</time>
      </trkpt>
      <trkpt lat="45.51504" lon="7.20994">
        <ele>2133</ele>
        <time>2021-11-07T19:00:40Z</time>
      </trkpt>
      <trkpt lat="45.51502" lon="7.20994">
        <ele>2133.1</ele>
        <time>2021-11-07T19:00:43Z</time>
      </trkpt>
      <trkpt lat="45.51502" lon="7.20995">
        <ele>2133.1</ele>
        <time>2021-11-07T19:00:45Z</time>
      </trkpt>
      <trkpt lat="45.51501" lon="7.20995">
        <ele>2135.7</ele>
        <time>2021-11-07T19:00:46Z</time>
      </trkpt>
      <trkpt lat="45.51501" lon="7.20996">
        <ele>2135.7</ele>
        <time>2021-11-07T19:00:47Z</time>
      </trkpt>
      <trkpt lat="45.51501" lon="7.20995">
        <ele>2135.7</ele>
        <time>2021-11-07T19:00:49Z</time>
      </trkpt>
      <trkpt lat="45.51502" lon="7.20995">
        <ele>2133.3</ele>
        <time>2021-11-07T19:00:52Z</time>
      </trkpt>
      <trkpt lat="45.51503" lon="7.20995">
        <ele>2133.3</ele>
        <time>2021-11-07T19:00:54Z</time>
      </trkpt>
      <trkpt lat="45.51505" lon="7.20993">
        <ele>2133.3</ele>
        <time>2021-11-07T19:00:57Z</time>
      </trkpt>
      <trkpt lat="45.51506" lon="7.20991">
        <ele>2133.3</ele>
        <time>2021-11-07T19:01:02Z</time>
      </trkpt>
      <trkpt lat="45.51509" lon="7.20989">
        <ele>2130.8</ele>
        <time>2021-11-07T19:01:06Z</time>
      </trkpt>
      <trkpt lat="45.51509" lon="7.20988">
        <ele>2130.8</ele>
        <time>2021-11-07T19:01:09Z</time>
      </trkpt>
      <trkpt lat="45.51509" lon="7.20987">
        <ele>2130.9</ele>
        <time>2021-11-07T19:01:10Z</time>
      </trkpt>
      <trkpt lat="45.51506" lon="7.20986">
        <ele>2128.4</ele>
        <time>2021-11-07T19:01:16Z</time>
      </trkpt>
      <trkpt lat="45.51505" lon="7.20986">
        <ele>2128.5</ele>
        <time>2021-11-07T19:01:20Z</time>
      </trkpt>
      <trkpt lat="45.51504" lon="7.20985">
        <ele>2128.5</ele>
        <time>2021-11-07T19:01:23Z</time>
      </trkpt>
      <trkpt lat="45.51503" lon="7.20986">
        <ele>2128.6</ele>
        <time>2021-11-07T19:01:25Z</time>
      </trkpt>
      <trkpt lat="45.51503" lon="7.20986">
        <ele>2128.6</ele>
        <time>2021-11-07T19:01:26Z</time>
      </trkpt>
      <trkpt lat="45.51501" lon="7.20987">
        <ele>2131.2</ele>
        <time>2021-11-07T19:01:29Z</time>
      </trkpt>
      <trkpt lat="45.515" lon="7.20986">
        <ele>2131.3</ele>
        <time>2021-11-07T19:01:31Z</time>
      </trkpt>
      <trkpt lat="45.51499" lon="7.20987">
        <ele>2131.3</ele>
        <time>2021-11-07T19:01:33Z</time>
      </trkpt>
      <trkpt lat="45.51499" lon="7.20987">
        <ele>2131.4</ele>
        <time>2021-11-07T19:01:34Z</time>
      </trkpt>
      <trkpt lat="45.51496" lon="7.20988">
        <ele>2131.5</ele>
        <time>2021-11-07T19:01:37Z</time>
      </trkpt>
      <trkpt lat="45.51496" lon="7.20988">
        <ele>2131.5</ele>
        <time>2021-11-07T19:01:40Z</time>
      </trkpt>
      <trkpt lat="45.51496" lon="7.20988">
        <ele>2131.6</ele>
        <time>2021-11-07T19:01:42Z</time>
      </trkpt>
      <trkpt lat="45.51497" lon="7.20986">
        <ele>2129</ele>
        <time>2021-11-07T19:01:46Z</time>
      </trkpt>
      <trkpt lat="45.51497" lon="7.20985">
        <ele>2129.1</ele>
        <time>2021-11-07T19:01:48Z</time>
      </trkpt>
      <trkpt lat="45.51496" lon="7.20985">
        <ele>2129.1</ele>
        <time>2021-11-07T19:01:49Z</time>
      </trkpt>
      <trkpt lat="45.51494" lon="7.20985">
        <ele>2129.3</ele>
        <time>2021-11-07T19:01:53Z</time>
      </trkpt>
      <trkpt lat="45.51491" lon="7.20985">
        <ele>2129.5</ele>
        <time>2021-11-07T19:01:57Z</time>
      </trkpt>
      <trkpt lat="45.51491" lon="7.20985">
        <ele>2129.5</ele>
        <time>2021-11-07T19:01:59Z</time>
      </trkpt>
      <trkpt lat="45.51491" lon="7.20987">
        <ele>2132.2</ele>
        <time>2021-11-07T19:02:01Z</time>
      </trkpt>
      <trkpt lat="45.5149" lon="7.20988">
        <ele>2132.2</ele>
        <time>2021-11-07T19:02:03Z</time>
      </trkpt>
      <trkpt lat="45.51489" lon="7.20988">
        <ele>2132.3</ele>
        <time>2021-11-07T19:02:06Z</time>
      </trkpt>
      <trkpt lat="45.51487" lon="7.20988">
        <ele>2132.5</ele>
        <time>2021-11-07T19:02:09Z</time>
      </trkpt>
      <trkpt lat="45.51476" lon="7.20984">
        <ele>2130.8</ele>
        <time>2021-11-07T19:02:17Z</time>
      </trkpt>
      <trkpt lat="45.51473" lon="7.20984">
        <ele>2131.1</ele>
        <time>2021-11-07T19:02:20Z</time>
      </trkpt>
      <trkpt lat="45.5147" lon="7.20983">
        <ele>2131.3</ele>
        <time>2021-11-07T19:02:24Z</time>
      </trkpt>
      <trkpt lat="45.51468" lon="7.2098">
        <ele>2128.6</ele>
        <time>2021-11-07T19:02:29Z</time>
      </trkpt>
      <trkpt lat="45.51465" lon="7.20977">
        <ele>2126.1</ele>
        <time>2021-11-07T19:02:33Z</time>
      </trkpt>
      <trkpt lat="45.51463" lon="7.20973">
        <ele>2123.6</ele>
        <time>2021-11-07T19:02:38Z</time>
      </trkpt>
      <trkpt lat="45.51461" lon="7.2097">
        <ele>2123.8</ele>
        <time>2021-11-07T19:02:41Z</time>
      </trkpt>
      <trkpt lat="45.51461" lon="7.2097">
        <ele>2123.8</ele>
        <time>2021-11-07T19:02:42Z</time>
      </trkpt>
      <trkpt lat="45.51461" lon="7.20968">
        <ele>2121.3</ele>
        <time>2021-11-07T19:02:46Z</time>
      </trkpt>
      <trkpt lat="45.51459" lon="7.20964">
        <ele>2118.8</ele>
        <time>2021-11-07T19:02:50Z</time>
      </trkpt>
      <trkpt lat="45.51459" lon="7.20963">
        <ele>2118.9</ele>
        <time>2021-11-07T19:02:51Z</time>
      </trkpt>
      <trkpt lat="45.51463" lon="7.20962">
        <ele>2118.8</ele>
        <time>2021-11-07T19:02:56Z</time>
      </trkpt>
      <trkpt lat="45.51463" lon="7.20962">
        <ele>2118.9</ele>
        <time>2021-11-07T19:02:57Z</time>
      </trkpt>
      <trkpt lat="45.51466" lon="7.20963">
        <ele>2118.8</ele>
        <time>2021-11-07T19:03:03Z</time>
      </trkpt>
      <trkpt lat="45.51469" lon="7.20964">
        <ele>2118.8</ele>
        <time>2021-11-07T19:03:09Z</time>
      </trkpt>
      <trkpt lat="45.5147" lon="7.20963">
        <ele>2118.8</ele>
        <time>2021-11-07T19:03:12Z</time>
      </trkpt>
      <trkpt lat="45.5147" lon="7.20963">
        <ele>2118.9</ele>
        <time>2021-11-07T19:03:13Z</time>
      </trkpt>
      <trkpt lat="45.5147" lon="7.20962">
        <ele>2118.9</ele>
        <time>2021-11-07T19:03:20Z</time>
      </trkpt>
      <trkpt lat="45.51471" lon="7.20962">
        <ele>2118.9</ele>
        <time>2021-11-07T19:03:22Z</time>
      </trkpt>
      <trkpt lat="45.51472" lon="7.20963">
        <ele>2118.9</ele>
        <time>2021-11-07T19:03:26Z</time>
      </trkpt>
      <trkpt lat="45.51472" lon="7.20961">
        <ele>2119</ele>
        <time>2021-11-07T19:03:31Z</time>
      </trkpt>
      <trkpt lat="45.51472" lon="7.20961">
        <ele>2119</ele>
        <time>2021-11-07T19:03:32Z</time>
      </trkpt>
      <trkpt lat="45.51471" lon="7.2096">
        <ele>2116.7</ele>
        <time>2021-11-07T19:03:34Z</time>
      </trkpt>
      <trkpt lat="45.51468" lon="7.20958">
        <ele>2116.8</ele>
        <time>2021-11-07T19:03:38Z</time>
      </trkpt>
      <trkpt lat="45.51465" lon="7.20958">
        <ele>2116.8</ele>
        <time>2021-11-07T19:03:43Z</time>
      </trkpt>
      <trkpt lat="45.51464" lon="7.20956">
        <ele>2114.4</ele>
        <time>2021-11-07T19:03:46Z</time>
      </trkpt>
      <trkpt lat="45.51462" lon="7.20955">
        <ele>2114.5</ele>
        <time>2021-11-07T19:03:48Z</time>
      </trkpt>
      <trkpt lat="45.51461" lon="7.20954">
        <ele>2114.5</ele>
        <time>2021-11-07T19:03:50Z</time>
      </trkpt>
      <trkpt lat="45.51459" lon="7.20952">
        <ele>2114.6</ele>
        <time>2021-11-07T19:03:53Z</time>
      </trkpt>
      <trkpt lat="45.51458" lon="7.20952">
        <ele>2112</ele>
        <time>2021-11-07T19:03:54Z</time>
      </trkpt>
      <trkpt lat="45.51457" lon="7.20951">
        <ele>2112</ele>
        <time>2021-11-07T19:03:56Z</time>
      </trkpt>
      <trkpt lat="45.5146" lon="7.20948">
        <ele>2112.1</ele>
        <time>2021-11-07T19:04:00Z</time>
      </trkpt>
      <trkpt lat="45.5146" lon="7.20948">
        <ele>2112.1</ele>
        <time>2021-11-07T19:04:01Z</time>
      </trkpt>
      <trkpt lat="45.51462" lon="7.20947">
        <ele>2109.5</ele>
        <time>2021-11-07T19:04:06Z</time>
      </trkpt>
      <trkpt lat="45.51465" lon="7.20946">
        <ele>2109.5</ele>
        <time>2021-11-07T19:04:10Z</time>
      </trkpt>
      <trkpt lat="45.51465" lon="7.20945">
        <ele>2109.6</ele>
        <time>2021-11-07T19:04:11Z</time>
      </trkpt>
      <trkpt lat="45.51469" lon="7.20945">
        <ele>2109.6</ele>
        <time>2021-11-07T19:04:15Z</time>
      </trkpt>
      <trkpt lat="45.51471" lon="7.20944">
        <ele>2109.7</ele>
        <time>2021-11-07T19:04:21Z</time>
      </trkpt>
      <trkpt lat="45.51472" lon="7.20943">
        <ele>2107.1</ele>
        <time>2021-11-07T19:04:26Z</time>
      </trkpt>
      <trkpt lat="45.51477" lon="7.20944">
        <ele>2109.8</ele>
        <time>2021-11-07T19:04:37Z</time>
      </trkpt>
      <trkpt lat="45.51479" lon="7.20944">
        <ele>2109.8</ele>
        <time>2021-11-07T19:04:44Z</time>
      </trkpt>
      <trkpt lat="45.51479" lon="7.20944">
        <ele>2109.9</ele>
        <time>2021-11-07T19:04:46Z</time>
      </trkpt>
      <trkpt lat="45.51479" lon="7.20945">
        <ele>2109.9</ele>
        <time>2021-11-07T19:04:48Z</time>
      </trkpt>
      <trkpt lat="45.51479" lon="7.20942">
        <ele>2107.3</ele>
        <time>2021-11-07T19:04:55Z</time>
      </trkpt>
      <trkpt lat="45.51479" lon="7.20939">
        <ele>2104.8</ele>
        <time>2021-11-07T19:04:59Z</time>
      </trkpt>
      <trkpt lat="45.51479" lon="7.20936">
        <ele>2104.8</ele>
        <time>2021-11-07T19:05:06Z</time>
      </trkpt>
      <trkpt lat="45.5148" lon="7.20936">
        <ele>2104.9</ele>
        <time>2021-11-07T19:05:08Z</time>
      </trkpt>
      <trkpt lat="45.51484" lon="7.20935">
        <ele>2102.6</ele>
        <time>2021-11-07T19:05:19Z</time>
      </trkpt>
      <trkpt lat="45.51485" lon="7.20933">
        <ele>2102.6</ele>
        <time>2021-11-07T19:05:22Z</time>
      </trkpt>
      <trkpt lat="45.51488" lon="7.20932">
        <ele>2102.7</ele>
        <time>2021-11-07T19:05:29Z</time>
      </trkpt>
      <trkpt lat="45.51487" lon="7.20929">
        <ele>2100.4</ele>
        <time>2021-11-07T19:05:33Z</time>
      </trkpt>
      <trkpt lat="45.51489" lon="7.20928">
        <ele>2100.5</ele>
        <time>2021-11-07T19:05:35Z</time>
      </trkpt>
      <trkpt lat="45.5149" lon="7.20926">
        <ele>2098.4</ele>
        <time>2021-11-07T19:05:41Z</time>
      </trkpt>
      <trkpt lat="45.5149" lon="7.20925">
        <ele>2098.4</ele>
        <time>2021-11-07T19:05:42Z</time>
      </trkpt>
      <trkpt lat="45.51491" lon="7.20924">
        <ele>2098.4</ele>
        <time>2021-11-07T19:05:44Z</time>
      </trkpt>
      <trkpt lat="45.5149" lon="7.2092">
        <ele>2096.3</ele>
        <time>2021-11-07T19:05:51Z</time>
      </trkpt>
      <trkpt lat="45.51485" lon="7.20922">
        <ele>2098.4</ele>
        <time>2021-11-07T19:05:58Z</time>
      </trkpt>
      <trkpt lat="45.51481" lon="7.20922">
        <ele>2098.4</ele>
        <time>2021-11-07T19:06:01Z</time>
      </trkpt>
      <trkpt lat="45.51478" lon="7.20922">
        <ele>2098.3</ele>
        <time>2021-11-07T19:06:03Z</time>
      </trkpt>
      <trkpt lat="45.51477" lon="7.20922">
        <ele>2096.2</ele>
        <time>2021-11-07T19:06:04Z</time>
      </trkpt>
      <trkpt lat="45.51475" lon="7.20922">
        <ele>2096.1</ele>
        <time>2021-11-07T19:06:08Z</time>
      </trkpt>
      <trkpt lat="45.51475" lon="7.20922">
        <ele>2098.3</ele>
        <time>2021-11-07T19:06:10Z</time>
      </trkpt>
      <trkpt lat="45.51475" lon="7.20922">
        <ele>2098.4</ele>
        <time>2021-11-07T19:06:11Z</time>
      </trkpt>
      <trkpt lat="45.51477" lon="7.20915">
        <ele>2094.1</ele>
        <time>2021-11-07T19:06:16Z</time>
      </trkpt>
      <trkpt lat="45.51477" lon="7.20915">
        <ele>2094.2</ele>
        <time>2021-11-07T19:06:17Z</time>
      </trkpt>
      <trkpt lat="45.51481" lon="7.20913">
        <ele>2092.2</ele>
        <time>2021-11-07T19:06:20Z</time>
      </trkpt>
      <trkpt lat="45.51484" lon="7.20911">
        <ele>2092.3</ele>
        <time>2021-11-07T19:06:25Z</time>
      </trkpt>
      <trkpt lat="45.51485" lon="7.20911">
        <ele>2092.3</ele>
        <time>2021-11-07T19:06:28Z</time>
      </trkpt>
      <trkpt lat="45.51485" lon="7.20912">
        <ele>2092.4</ele>
        <time>2021-11-07T19:06:32Z</time>
      </trkpt>
      <trkpt lat="45.51484" lon="7.20913">
        <ele>2092.4</ele>
        <time>2021-11-07T19:06:33Z</time>
      </trkpt>
      <trkpt lat="45.51481" lon="7.20914">
        <ele>2094.5</ele>
        <time>2021-11-07T19:06:39Z</time>
      </trkpt>
      <trkpt lat="45.5148" lon="7.20913">
        <ele>2092.4</ele>
        <time>2021-11-07T19:06:40Z</time>
      </trkpt>
      <trkpt lat="45.51479" lon="7.20912">
        <ele>2092.4</ele>
        <time>2021-11-07T19:06:43Z</time>
      </trkpt>
      <trkpt lat="45.51481" lon="7.20909">
        <ele>2090.3</ele>
        <time>2021-11-07T19:06:48Z</time>
      </trkpt>
      <trkpt lat="45.51482" lon="7.20907">
        <ele>2090.4</ele>
        <time>2021-11-07T19:06:52Z</time>
      </trkpt>
      <trkpt lat="45.51483" lon="7.20907">
        <ele>2090.5</ele>
        <time>2021-11-07T19:06:53Z</time>
      </trkpt>
      <trkpt lat="45.51483" lon="7.20906">
        <ele>2090.5</ele>
        <time>2021-11-07T19:06:55Z</time>
      </trkpt>
      <trkpt lat="45.51485" lon="7.20904">
        <ele>2088.4</ele>
        <time>2021-11-07T19:06:58Z</time>
      </trkpt>
      <trkpt lat="45.51485" lon="7.20903">
        <ele>2088.4</ele>
        <time>2021-11-07T19:06:59Z</time>
      </trkpt>
      <trkpt lat="45.51488" lon="7.20902">
        <ele>2088.5</ele>
        <time>2021-11-07T19:07:04Z</time>
      </trkpt>
      <trkpt lat="45.51488" lon="7.20903">
        <ele>2088.6</ele>
        <time>2021-11-07T19:07:11Z</time>
      </trkpt>
      <trkpt lat="45.51487" lon="7.20905">
        <ele>2088.6</ele>
        <time>2021-11-07T19:07:15Z</time>
      </trkpt>
      <trkpt lat="45.51486" lon="7.20906">
        <ele>2090.9</ele>
        <time>2021-11-07T19:07:17Z</time>
      </trkpt>
      <trkpt lat="45.51481" lon="7.20906">
        <ele>2090.7</ele>
        <time>2021-11-07T19:07:23Z</time>
      </trkpt>
      <trkpt lat="45.51475" lon="7.20905">
        <ele>2090.5</ele>
        <time>2021-11-07T19:07:27Z</time>
      </trkpt>
      <trkpt lat="45.51471" lon="7.20905">
        <ele>2088.1</ele>
        <time>2021-11-07T19:07:32Z</time>
      </trkpt>
      <trkpt lat="45.51466" lon="7.20903">
        <ele>2088.1</ele>
        <time>2021-11-07T19:07:37Z</time>
      </trkpt>
      <trkpt lat="45.51462" lon="7.20901">
        <ele>2087.9</ele>
        <time>2021-11-07T19:07:41Z</time>
      </trkpt>
      <trkpt lat="45.51459" lon="7.209">
        <ele>2085.5</ele>
        <time>2021-11-07T19:07:44Z</time>
      </trkpt>
      <trkpt lat="45.51457" lon="7.20899">
        <ele>2085.5</ele>
        <time>2021-11-07T19:07:47Z</time>
      </trkpt>
      <trkpt lat="45.51456" lon="7.20897">
        <ele>2085.4</ele>
        <time>2021-11-07T19:07:49Z</time>
      </trkpt>
      <trkpt lat="45.51457" lon="7.20895">
        <ele>2083.3</ele>
        <time>2021-11-07T19:07:54Z</time>
      </trkpt>
      <trkpt lat="45.51457" lon="7.20894">
        <ele>2083.3</ele>
        <time>2021-11-07T19:07:55Z</time>
      </trkpt>
      <trkpt lat="45.51459" lon="7.20892">
        <ele>2081</ele>
        <time>2021-11-07T19:07:58Z</time>
      </trkpt>
      <trkpt lat="45.51461" lon="7.20888">
        <ele>2079</ele>
        <time>2021-11-07T19:08:03Z</time>
      </trkpt>
      <trkpt lat="45.51462" lon="7.20887">
        <ele>2079.2</ele>
        <time>2021-11-07T19:08:05Z</time>
      </trkpt>
      <trkpt lat="45.51463" lon="7.20886">
        <ele>2079.2</ele>
        <time>2021-11-07T19:08:06Z</time>
      </trkpt>
      <trkpt lat="45.51465" lon="7.20885">
        <ele>2079.4</ele>
        <time>2021-11-07T19:08:08Z</time>
      </trkpt>
      <trkpt lat="45.51466" lon="7.20884">
        <ele>2079.5</ele>
        <time>2021-11-07T19:08:10Z</time>
      </trkpt>
      <trkpt lat="45.5147" lon="7.20883">
        <ele>2077.6</ele>
        <time>2021-11-07T19:08:13Z</time>
      </trkpt>
      <trkpt lat="45.5147" lon="7.20883">
        <ele>2077.6</ele>
        <time>2021-11-07T19:08:14Z</time>
      </trkpt>
      <trkpt lat="45.51471" lon="7.20883">
        <ele>2077.6</ele>
        <time>2021-11-07T19:08:15Z</time>
      </trkpt>
      <trkpt lat="45.51472" lon="7.20884">
        <ele>2079.9</ele>
        <time>2021-11-07T19:08:17Z</time>
      </trkpt>
      <trkpt lat="45.51472" lon="7.20884">
        <ele>2080</ele>
        <time>2021-11-07T19:08:18Z</time>
      </trkpt>
      <trkpt lat="45.51472" lon="7.20883">
        <ele>2080</ele>
        <time>2021-11-07T19:08:19Z</time>
      </trkpt>
      <trkpt lat="45.51473" lon="7.20883">
        <ele>2078</ele>
        <time>2021-11-07T19:08:20Z</time>
      </trkpt>
      <trkpt lat="45.51472" lon="7.20883">
        <ele>2078</ele>
        <time>2021-11-07T19:08:25Z</time>
      </trkpt>
      <trkpt lat="45.5147" lon="7.20882">
        <ele>2077.9</ele>
        <time>2021-11-07T19:08:28Z</time>
      </trkpt>
      <trkpt lat="45.51469" lon="7.20881">
        <ele>2077.9</ele>
        <time>2021-11-07T19:08:29Z</time>
      </trkpt>
      <trkpt lat="45.51469" lon="7.20881">
        <ele>2077.9</ele>
        <time>2021-11-07T19:08:30Z</time>
      </trkpt>
      <trkpt lat="45.51462" lon="7.20878">
        <ele>2075.5</ele>
        <time>2021-11-07T19:08:35Z</time>
      </trkpt>
      <trkpt lat="45.51458" lon="7.20877">
        <ele>2075.4</ele>
        <time>2021-11-07T19:08:38Z</time>
      </trkpt>
      <trkpt lat="45.51457" lon="7.20877">
        <ele>2075.4</ele>
        <time>2021-11-07T19:08:40Z</time>
      </trkpt>
      <trkpt lat="45.51456" lon="7.20877">
        <ele>2075.4</ele>
        <time>2021-11-07T19:08:41Z</time>
      </trkpt>
      <trkpt lat="45.51451" lon="7.20876">
        <ele>2075.2</ele>
        <time>2021-11-07T19:08:45Z</time>
      </trkpt>
      <trkpt lat="45.51451" lon="7.20877">
        <ele>2075.2</ele>
        <time>2021-11-07T19:08:47Z</time>
      </trkpt>
      <trkpt lat="45.5145" lon="7.20877">
        <ele>2075.3</ele>
        <time>2021-11-07T19:08:49Z</time>
      </trkpt>
      <trkpt lat="45.51449" lon="7.20877">
        <ele>2075.2</ele>
        <time>2021-11-07T19:08:50Z</time>
      </trkpt>
      <trkpt lat="45.51449" lon="7.20876">
        <ele>2075.2</ele>
        <time>2021-11-07T19:08:51Z</time>
      </trkpt>
      <trkpt lat="45.51448" lon="7.20876">
        <ele>2075.2</ele>
        <time>2021-11-07T19:08:53Z</time>
      </trkpt>
      <trkpt lat="45.51446" lon="7.20876">
        <ele>2075.2</ele>
        <time>2021-11-07T19:08:57Z</time>
      </trkpt>
      <trkpt lat="45.51445" lon="7.20875">
        <ele>2075.2</ele>
        <time>2021-11-07T19:08:58Z</time>
      </trkpt>
      <trkpt lat="45.51443" lon="7.20876">
        <ele>2075.1</ele>
        <time>2021-11-07T19:09:01Z</time>
      </trkpt>
      <trkpt lat="45.51439" lon="7.20875">
        <ele>2075.1</ele>
        <time>2021-11-07T19:09:05Z</time>
      </trkpt>
      <trkpt lat="45.51438" lon="7.20875">
        <ele>2075.1</ele>
        <time>2021-11-07T19:09:07Z</time>
      </trkpt>
      <trkpt lat="45.51436" lon="7.20875">
        <ele>2075.1</ele>
        <time>2021-11-07T19:09:09Z</time>
      </trkpt>
      <trkpt lat="45.51435" lon="7.20875">
        <ele>2075.2</ele>
        <time>2021-11-07T19:09:10Z</time>
      </trkpt>
      <trkpt lat="45.51431" lon="7.20875">
        <ele>2073.3</ele>
        <time>2021-11-07T19:09:13Z</time>
      </trkpt>
      <trkpt lat="45.5143" lon="7.20875">
        <ele>2073.3</ele>
        <time>2021-11-07T19:09:14Z</time>
      </trkpt>
      <trkpt lat="45.51426" lon="7.20874">
        <ele>2073.4</ele>
        <time>2021-11-07T19:09:17Z</time>
      </trkpt>
      <trkpt lat="45.51426" lon="7.20875">
        <ele>2073.4</ele>
        <time>2021-11-07T19:09:18Z</time>
      </trkpt>
      <trkpt lat="45.51425" lon="7.20877">
        <ele>2075.5</ele>
        <time>2021-11-07T19:09:22Z</time>
      </trkpt>
      <trkpt lat="45.51426" lon="7.20877">
        <ele>2075.5</ele>
        <time>2021-11-07T19:09:23Z</time>
      </trkpt>
      <trkpt lat="45.51425" lon="7.20877">
        <ele>2075.5</ele>
        <time>2021-11-07T19:09:24Z</time>
      </trkpt>
      <trkpt lat="45.51426" lon="7.20879">
        <ele>2077.5</ele>
        <time>2021-11-07T19:09:28Z</time>
      </trkpt>
      <trkpt lat="45.51426" lon="7.2088">
        <ele>2077.6</ele>
        <time>2021-11-07T19:09:30Z</time>
      </trkpt>
      <trkpt lat="45.51424" lon="7.2088">
        <ele>2077.6</ele>
        <time>2021-11-07T19:09:31Z</time>
      </trkpt>
      <trkpt lat="45.51424" lon="7.2088">
        <ele>2077.7</ele>
        <time>2021-11-07T19:09:32Z</time>
      </trkpt>
      <trkpt lat="45.51422" lon="7.2088">
        <ele>2077.8</ele>
        <time>2021-11-07T19:09:34Z</time>
      </trkpt>
      <trkpt lat="45.51421" lon="7.20881">
        <ele>2077.8</ele>
        <time>2021-11-07T19:09:35Z</time>
      </trkpt>
      <trkpt lat="45.51419" lon="7.20881">
        <ele>2078</ele>
        <time>2021-11-07T19:09:36Z</time>
      </trkpt>
      <trkpt lat="45.51418" lon="7.20881">
        <ele>2078</ele>
        <time>2021-11-07T19:09:38Z</time>
      </trkpt>
      <trkpt lat="45.51418" lon="7.2088">
        <ele>2078.1</ele>
        <time>2021-11-07T19:09:39Z</time>
      </trkpt>
      <trkpt lat="45.51417" lon="7.20874">
        <ele>2074.2</ele>
        <time>2021-11-07T19:09:44Z</time>
      </trkpt>
      <trkpt lat="45.51418" lon="7.20873">
        <ele>2074.2</ele>
        <time>2021-11-07T19:09:45Z</time>
      </trkpt>
      <trkpt lat="45.5142" lon="7.20868">
        <ele>2072.2</ele>
        <time>2021-11-07T19:09:50Z</time>
      </trkpt>
      <trkpt lat="45.51421" lon="7.20866">
        <ele>2070.3</ele>
        <time>2021-11-07T19:09:52Z</time>
      </trkpt>
      <trkpt lat="45.51422" lon="7.20866">
        <ele>2072.3</ele>
        <time>2021-11-07T19:09:54Z</time>
      </trkpt>
      <trkpt lat="45.51425" lon="7.20864">
        <ele>2070.3</ele>
        <time>2021-11-07T19:09:58Z</time>
      </trkpt>
      <trkpt lat="45.51426" lon="7.20864">
        <ele>2070.3</ele>
        <time>2021-11-07T19:10:00Z</time>
      </trkpt>
      <trkpt lat="45.51427" lon="7.20863">
        <ele>2070.3</ele>
        <time>2021-11-07T19:10:01Z</time>
      </trkpt>
      <trkpt lat="45.51431" lon="7.20862">
        <ele>2068.3</ele>
        <time>2021-11-07T19:10:06Z</time>
      </trkpt>
      <trkpt lat="45.51433" lon="7.20861">
        <ele>2067.8</ele>
        <time>2021-11-07T19:10:09Z</time>
      </trkpt>
      <trkpt lat="45.51434" lon="7.20859">
        <ele>2067.4</ele>
        <time>2021-11-07T19:10:13Z</time>
      </trkpt>
      <trkpt lat="45.51435" lon="7.20858">
        <ele>2067.2</ele>
        <time>2021-11-07T19:10:14Z</time>
      </trkpt>
      <trkpt lat="45.51436" lon="7.20857">
        <ele>2066.9</ele>
        <time>2021-11-07T19:10:16Z</time>
      </trkpt>
      <trkpt lat="45.51439" lon="7.20856">
        <ele>2066.1</ele>
        <time>2021-11-07T19:10:21Z</time>
      </trkpt>
      <trkpt lat="45.51442" lon="7.20854">
        <ele>2065.6</ele>
        <time>2021-11-07T19:10:24Z</time>
      </trkpt>
      <trkpt lat="45.51446" lon="7.20851">
        <ele>2064.6</ele>
        <time>2021-11-07T19:10:29Z</time>
      </trkpt>
      <trkpt lat="45.51452" lon="7.20849">
        <ele>2063.3</ele>
        <time>2021-11-07T19:10:36Z</time>
      </trkpt>
      <trkpt lat="45.51452" lon="7.20849">
        <ele>2063.2</ele>
        <time>2021-11-07T19:10:37Z</time>
      </trkpt>
      <trkpt lat="45.51453" lon="7.20848">
        <ele>2063</ele>
        <time>2021-11-07T19:10:39Z</time>
      </trkpt>
      <trkpt lat="45.51455" lon="7.20848">
        <ele>2062.6</ele>
        <time>2021-11-07T19:10:43Z</time>
      </trkpt>
      <trkpt lat="45.51457" lon="7.20848">
        <ele>2062.1</ele>
        <time>2021-11-07T19:10:47Z</time>
      </trkpt>
      <trkpt lat="45.5146" lon="7.20848">
        <ele>2061.6</ele>
        <time>2021-11-07T19:10:51Z</time>
      </trkpt>
      <trkpt lat="45.51461" lon="7.20846">
        <ele>2061.2</ele>
        <time>2021-11-07T19:10:53Z</time>
      </trkpt>
      <trkpt lat="45.51462" lon="7.20846">
        <ele>2061.1</ele>
        <time>2021-11-07T19:10:54Z</time>
      </trkpt>
      <trkpt lat="45.51468" lon="7.20843">
        <ele>2059.8</ele>
        <time>2021-11-07T19:11:01Z</time>
      </trkpt>
      <trkpt lat="45.5147" lon="7.20842">
        <ele>2059.4</ele>
        <time>2021-11-07T19:11:04Z</time>
      </trkpt>
      <trkpt lat="45.51471" lon="7.20842">
        <ele>2059.1</ele>
        <time>2021-11-07T19:11:06Z</time>
      </trkpt>
      <trkpt lat="45.51474" lon="7.20841">
        <ele>2058.5</ele>
        <time>2021-11-07T19:11:09Z</time>
      </trkpt>
      <trkpt lat="45.51477" lon="7.20841">
        <ele>2057.9</ele>
        <time>2021-11-07T19:11:12Z</time>
      </trkpt>
      <trkpt lat="45.5148" lon="7.2084">
        <ele>2057.2</ele>
        <time>2021-11-07T19:11:18Z</time>
      </trkpt>
      <trkpt lat="45.51481" lon="7.20839">
        <ele>2056.9</ele>
        <time>2021-11-07T19:11:20Z</time>
      </trkpt>
      <trkpt lat="45.51482" lon="7.20837">
        <ele>2056.5</ele>
        <time>2021-11-07T19:11:22Z</time>
      </trkpt>
      <trkpt lat="45.51484" lon="7.20834">
        <ele>2055.9</ele>
        <time>2021-11-07T19:11:24Z</time>
      </trkpt>
      <trkpt lat="45.51485" lon="7.20832">
        <ele>2055.6</ele>
        <time>2021-11-07T19:11:26Z</time>
      </trkpt>
      <trkpt lat="45.51486" lon="7.20831">
        <ele>2055.3</ele>
        <time>2021-11-07T19:11:28Z</time>
      </trkpt>
      <trkpt lat="45.51488" lon="7.20829">
        <ele>2054.8</ele>
        <time>2021-11-07T19:11:32Z</time>
      </trkpt>
      <trkpt lat="45.51491" lon="7.20829">
        <ele>2054.2</ele>
        <time>2021-11-07T19:11:39Z</time>
      </trkpt>
      <trkpt lat="45.51493" lon="7.20827">
        <ele>2053.7</ele>
        <time>2021-11-07T19:11:44Z</time>
      </trkpt>
      <trkpt lat="45.51494" lon="7.20825">
        <ele>2053.4</ele>
        <time>2021-11-07T19:11:47Z</time>
      </trkpt>
      <trkpt lat="45.51497" lon="7.20823">
        <ele>2052.7</ele>
        <time>2021-11-07T19:11:52Z</time>
      </trkpt>
      <trkpt lat="45.51498" lon="7.20822">
        <ele>2052.3</ele>
        <time>2021-11-07T19:11:54Z</time>
      </trkpt>
      <trkpt lat="45.515" lon="7.20822">
        <ele>2052.1</ele>
        <time>2021-11-07T19:11:56Z</time>
      </trkpt>
      <trkpt lat="45.515" lon="7.20821">
        <ele>2051.9</ele>
        <time>2021-11-07T19:11:57Z</time>
      </trkpt>
      <trkpt lat="45.51503" lon="7.20818">
        <ele>2051.2</ele>
        <time>2021-11-07T19:12:02Z</time>
      </trkpt>
      <trkpt lat="45.51506" lon="7.20816">
        <ele>2050.5</ele>
        <time>2021-11-07T19:12:07Z</time>
      </trkpt>
      <trkpt lat="45.51508" lon="7.20815">
        <ele>2050</ele>
        <time>2021-11-07T19:12:11Z</time>
      </trkpt>
      <trkpt lat="45.51509" lon="7.20814">
        <ele>2049.7</ele>
        <time>2021-11-07T19:12:13Z</time>
      </trkpt>
      <trkpt lat="45.51511" lon="7.2081">
        <ele>2049.1</ele>
        <time>2021-11-07T19:12:19Z</time>
      </trkpt>
      <trkpt lat="45.51511" lon="7.20809">
        <ele>2048.9</ele>
        <time>2021-11-07T19:12:22Z</time>
      </trkpt>
      <trkpt lat="45.51511" lon="7.2081">
        <ele>2048.7</ele>
        <time>2021-11-07T19:12:28Z</time>
      </trkpt>
      <trkpt lat="45.51509" lon="7.2081">
        <ele>2048.4</ele>
        <time>2021-11-07T19:12:29Z</time>
      </trkpt>
      <trkpt lat="45.51509" lon="7.2081">
        <ele>2048.4</ele>
        <time>2021-11-07T19:12:30Z</time>
      </trkpt>
      <trkpt lat="45.51508" lon="7.20812">
        <ele>2048</ele>
        <time>2021-11-07T19:12:34Z</time>
      </trkpt>
      <trkpt lat="45.51506" lon="7.20813">
        <ele>2047.6</ele>
        <time>2021-11-07T19:12:36Z</time>
      </trkpt>
      <trkpt lat="45.51502" lon="7.20814">
        <ele>2046.7</ele>
        <time>2021-11-07T19:12:41Z</time>
      </trkpt>
      <trkpt lat="45.51502" lon="7.20815">
        <ele>2046.6</ele>
        <time>2021-11-07T19:12:42Z</time>
      </trkpt>
      <trkpt lat="45.51502" lon="7.20815">
        <ele>2046.5</ele>
        <time>2021-11-07T19:12:43Z</time>
      </trkpt>
      <trkpt lat="45.51497" lon="7.20817">
        <ele>2045.4</ele>
        <time>2021-11-07T19:12:49Z</time>
      </trkpt>
      <trkpt lat="45.51495" lon="7.20817">
        <ele>2045</ele>
        <time>2021-11-07T19:12:51Z</time>
      </trkpt>
      <trkpt lat="45.51492" lon="7.20819">
        <ele>2044.3</ele>
        <time>2021-11-07T19:12:55Z</time>
      </trkpt>
      <trkpt lat="45.5149" lon="7.20818">
        <ele>2043.9</ele>
        <time>2021-11-07T19:12:58Z</time>
      </trkpt>
      <trkpt lat="45.5149" lon="7.20818">
        <ele>2043.8</ele>
        <time>2021-11-07T19:12:59Z</time>
      </trkpt>
      <trkpt lat="45.5149" lon="7.20817">
        <ele>2043.7</ele>
        <time>2021-11-07T19:13:01Z</time>
      </trkpt>
      <trkpt lat="45.51487" lon="7.20816">
        <ele>2043.2</ele>
        <time>2021-11-07T19:13:04Z</time>
      </trkpt>
      <trkpt lat="45.51483" lon="7.20815">
        <ele>2042.3</ele>
        <time>2021-11-07T19:13:09Z</time>
      </trkpt>
      <trkpt lat="45.51483" lon="7.20816">
        <ele>2042.2</ele>
        <time>2021-11-07T19:13:10Z</time>
      </trkpt>
      <trkpt lat="45.51482" lon="7.20816">
        <ele>2042.1</ele>
        <time>2021-11-07T19:13:11Z</time>
      </trkpt>
      <trkpt lat="45.51476" lon="7.20814">
        <ele>2040.7</ele>
        <time>2021-11-07T19:13:18Z</time>
      </trkpt>
      <trkpt lat="45.5147" lon="7.2081">
        <ele>2039.3</ele>
        <time>2021-11-07T19:13:25Z</time>
      </trkpt>
      <trkpt lat="45.51469" lon="7.20809">
        <ele>2039.1</ele>
        <time>2021-11-07T19:13:26Z</time>
      </trkpt>
      <trkpt lat="45.51467" lon="7.20809">
        <ele>2038.8</ele>
        <time>2021-11-07T19:13:28Z</time>
      </trkpt>
      <trkpt lat="45.51466" lon="7.20809">
        <ele>2038.5</ele>
        <time>2021-11-07T19:13:30Z</time>
      </trkpt>
      <trkpt lat="45.51464" lon="7.20807">
        <ele>2037.9</ele>
        <time>2021-11-07T19:13:33Z</time>
      </trkpt>
      <trkpt lat="45.51459" lon="7.20803">
        <ele>2036.8</ele>
        <time>2021-11-07T19:13:38Z</time>
      </trkpt>
      <trkpt lat="45.51456" lon="7.20799">
        <ele>2036</ele>
        <time>2021-11-07T19:13:41Z</time>
      </trkpt>
      <trkpt lat="45.51455" lon="7.20799">
        <ele>2035.7</ele>
        <time>2021-11-07T19:13:42Z</time>
      </trkpt>
      <trkpt lat="45.51453" lon="7.208">
        <ele>2035.3</ele>
        <time>2021-11-07T19:13:44Z</time>
      </trkpt>
      <trkpt lat="45.51453" lon="7.20801">
        <ele>2035.1</ele>
        <time>2021-11-07T19:13:46Z</time>
      </trkpt>
      <trkpt lat="45.51451" lon="7.20801">
        <ele>2034.8</ele>
        <time>2021-11-07T19:13:48Z</time>
      </trkpt>
      <trkpt lat="45.51449" lon="7.20798">
        <ele>2034.2</ele>
        <time>2021-11-07T19:13:55Z</time>
      </trkpt>
      <trkpt lat="45.51447" lon="7.20796">
        <ele>2033.7</ele>
        <time>2021-11-07T19:13:58Z</time>
      </trkpt>
      <trkpt lat="45.51446" lon="7.20795">
        <ele>2033.3</ele>
        <time>2021-11-07T19:14:00Z</time>
      </trkpt>
      <trkpt lat="45.51444" lon="7.20794">
        <ele>2033.1</ele>
        <time>2021-11-07T19:14:02Z</time>
      </trkpt>
      <trkpt lat="45.51443" lon="7.20793">
        <ele>2032.8</ele>
        <time>2021-11-07T19:14:03Z</time>
      </trkpt>
      <trkpt lat="45.51437" lon="7.2079">
        <ele>2031.3</ele>
        <time>2021-11-07T19:14:09Z</time>
      </trkpt>
      <trkpt lat="45.51436" lon="7.20789">
        <ele>2031.2</ele>
        <time>2021-11-07T19:14:10Z</time>
      </trkpt>
      <trkpt lat="45.51434" lon="7.20788">
        <ele>2030.7</ele>
        <time>2021-11-07T19:14:13Z</time>
      </trkpt>
      <trkpt lat="45.51434" lon="7.20788">
        <ele>2030.6</ele>
        <time>2021-11-07T19:14:14Z</time>
      </trkpt>
      <trkpt lat="45.51433" lon="7.20788">
        <ele>2030.5</ele>
        <time>2021-11-07T19:14:15Z</time>
      </trkpt>
      <trkpt lat="45.51432" lon="7.20787">
        <ele>2030.2</ele>
        <time>2021-11-07T19:14:17Z</time>
      </trkpt>
      <trkpt lat="45.51429" lon="7.20786">
        <ele>2029.6</ele>
        <time>2021-11-07T19:14:22Z</time>
      </trkpt>
      <trkpt lat="45.51428" lon="7.20784">
        <ele>2029.3</ele>
        <time>2021-11-07T19:14:24Z</time>
      </trkpt>
      <trkpt lat="45.51427" lon="7.20783">
        <ele>2029.1</ele>
        <time>2021-11-07T19:14:25Z</time>
      </trkpt>
      <trkpt lat="45.51424" lon="7.20781">
        <ele>2028.4</ele>
        <time>2021-11-07T19:14:27Z</time>
      </trkpt>
      <trkpt lat="45.51422" lon="7.20778">
        <ele>2027.7</ele>
        <time>2021-11-07T19:14:30Z</time>
      </trkpt>
      <trkpt lat="45.51419" lon="7.20779">
        <ele>2027.1</ele>
        <time>2021-11-07T19:14:36Z</time>
      </trkpt>
      <trkpt lat="45.51414" lon="7.20777">
        <ele>2026</ele>
        <time>2021-11-07T19:14:43Z</time>
      </trkpt>
      <trkpt lat="45.51412" lon="7.20776">
        <ele>2025.6</ele>
        <time>2021-11-07T19:14:44Z</time>
      </trkpt>
      <trkpt lat="45.51412" lon="7.20776">
        <ele>2025.6</ele>
        <time>2021-11-07T19:14:45Z</time>
      </trkpt>
      <trkpt lat="45.5141" lon="7.20776">
        <ele>2025.3</ele>
        <time>2021-11-07T19:14:47Z</time>
      </trkpt>
      <trkpt lat="45.51407" lon="7.20777">
        <ele>2024.5</ele>
        <time>2021-11-07T19:14:50Z</time>
      </trkpt>
      <trkpt lat="45.51406" lon="7.20777">
        <ele>2024.3</ele>
        <time>2021-11-07T19:14:51Z</time>
      </trkpt>
      <trkpt lat="45.51404" lon="7.20777">
        <ele>2024</ele>
        <time>2021-11-07T19:14:52Z</time>
      </trkpt>
      <trkpt lat="45.51402" lon="7.20777">
        <ele>2023.4</ele>
        <time>2021-11-07T19:14:54Z</time>
      </trkpt>
      <trkpt lat="45.51401" lon="7.20776">
        <ele>2023.2</ele>
        <time>2021-11-07T19:14:56Z</time>
      </trkpt>
      <trkpt lat="45.51399" lon="7.20776">
        <ele>2022.8</ele>
        <time>2021-11-07T19:14:58Z</time>
      </trkpt>
      <trkpt lat="45.51399" lon="7.20775">
        <ele>2022.6</ele>
        <time>2021-11-07T19:15:01Z</time>
      </trkpt>
      <trkpt lat="45.51399" lon="7.20772">
        <ele>2022.2</ele>
        <time>2021-11-07T19:15:04Z</time>
      </trkpt>
      <trkpt lat="45.514" lon="7.20772">
        <ele>2022</ele>
        <time>2021-11-07T19:15:06Z</time>
      </trkpt>
      <trkpt lat="45.51402" lon="7.20771">
        <ele>2021.6</ele>
        <time>2021-11-07T19:15:08Z</time>
      </trkpt>
      <trkpt lat="45.51403" lon="7.20769">
        <ele>2021.3</ele>
        <time>2021-11-07T19:15:11Z</time>
      </trkpt>
      <trkpt lat="45.51404" lon="7.20769">
        <ele>2021</ele>
        <time>2021-11-07T19:15:12Z</time>
      </trkpt>
      <trkpt lat="45.51405" lon="7.20768">
        <ele>2020.8</ele>
        <time>2021-11-07T19:15:13Z</time>
      </trkpt>
      <trkpt lat="45.51405" lon="7.20766">
        <ele>2020.5</ele>
        <time>2021-11-07T19:15:15Z</time>
      </trkpt>
      <trkpt lat="45.51406" lon="7.20762">
        <ele>2019.9</ele>
        <time>2021-11-07T19:15:19Z</time>
      </trkpt>
      <trkpt lat="45.51405" lon="7.20758">
        <ele>2019.2</ele>
        <time>2021-11-07T19:15:23Z</time>
      </trkpt>
      <trkpt lat="45.51405" lon="7.20756">
        <ele>2019</ele>
        <time>2021-11-07T19:15:26Z</time>
      </trkpt>
      <trkpt lat="45.51405" lon="7.20755">
        <ele>2018.8</ele>
        <time>2021-11-07T19:15:28Z</time>
      </trkpt>
      <trkpt lat="45.51408" lon="7.20752">
        <ele>2017.9</ele>
        <time>2021-11-07T19:15:34Z</time>
      </trkpt>
      <trkpt lat="45.51408" lon="7.2075">
        <ele>2017.7</ele>
        <time>2021-11-07T19:15:35Z</time>
      </trkpt>
      <trkpt lat="45.51411" lon="7.20748">
        <ele>2017</ele>
        <time>2021-11-07T19:15:40Z</time>
      </trkpt>
      <trkpt lat="45.51415" lon="7.20747">
        <ele>2016.1</ele>
        <time>2021-11-07T19:15:44Z</time>
      </trkpt>
      <trkpt lat="45.51417" lon="7.20744">
        <ele>2015.6</ele>
        <time>2021-11-07T19:15:47Z</time>
      </trkpt>
      <trkpt lat="45.51418" lon="7.20742">
        <ele>2015.2</ele>
        <time>2021-11-07T19:15:49Z</time>
      </trkpt>
      <trkpt lat="45.51422" lon="7.20739">
        <ele>2014.4</ele>
        <time>2021-11-07T19:15:53Z</time>
      </trkpt>
      <trkpt lat="45.51422" lon="7.20739">
        <ele>2014.3</ele>
        <time>2021-11-07T19:15:54Z</time>
      </trkpt>
      <trkpt lat="45.51424" lon="7.20737">
        <ele>2013.8</ele>
        <time>2021-11-07T19:15:56Z</time>
      </trkpt>
      <trkpt lat="45.51426" lon="7.20735">
        <ele>2013.2</ele>
        <time>2021-11-07T19:15:58Z</time>
      </trkpt>
      <trkpt lat="45.51428" lon="7.20733">
        <ele>2012.7</ele>
        <time>2021-11-07T19:16:00Z</time>
      </trkpt>
      <trkpt lat="45.51431" lon="7.2073">
        <ele>2011.9</ele>
        <time>2021-11-07T19:16:03Z</time>
      </trkpt>
      <trkpt lat="45.51433" lon="7.20728">
        <ele>2011.4</ele>
        <time>2021-11-07T19:16:06Z</time>
      </trkpt>
      <trkpt lat="45.51435" lon="7.20728">
        <ele>2011.1</ele>
        <time>2021-11-07T19:16:08Z</time>
      </trkpt>
      <trkpt lat="45.51436" lon="7.20728">
        <ele>2010.9</ele>
        <time>2021-11-07T19:16:09Z</time>
      </trkpt>
      <trkpt lat="45.51437" lon="7.20725">
        <ele>2010.4</ele>
        <time>2021-11-07T19:16:12Z</time>
      </trkpt>
      <trkpt lat="45.51443" lon="7.20723">
        <ele>2009.2</ele>
        <time>2021-11-07T19:16:18Z</time>
      </trkpt>
      <trkpt lat="45.51444" lon="7.20722">
        <ele>2009</ele>
        <time>2021-11-07T19:16:19Z</time>
      </trkpt>
      <trkpt lat="45.51445" lon="7.20721">
        <ele>2008.6</ele>
        <time>2021-11-07T19:16:21Z</time>
      </trkpt>
      <trkpt lat="45.51448" lon="7.20722">
        <ele>2008</ele>
        <time>2021-11-07T19:16:24Z</time>
      </trkpt>
      <trkpt lat="45.51449" lon="7.20723">
        <ele>2007.8</ele>
        <time>2021-11-07T19:16:25Z</time>
      </trkpt>
      <trkpt lat="45.51453" lon="7.20726">
        <ele>2006.8</ele>
        <time>2021-11-07T19:16:30Z</time>
      </trkpt>
      <trkpt lat="45.51454" lon="7.20726">
        <ele>2006.6</ele>
        <time>2021-11-07T19:16:31Z</time>
      </trkpt>
      <trkpt lat="45.51455" lon="7.20726">
        <ele>2006.4</ele>
        <time>2021-11-07T19:16:32Z</time>
      </trkpt>
      <trkpt lat="45.51457" lon="7.20724">
        <ele>2006</ele>
        <time>2021-11-07T19:16:35Z</time>
      </trkpt>
      <trkpt lat="45.51458" lon="7.20722">
        <ele>2005.7</ele>
        <time>2021-11-07T19:16:38Z</time>
      </trkpt>
      <trkpt lat="45.51458" lon="7.20722">
        <ele>2005.5</ele>
        <time>2021-11-07T19:16:39Z</time>
      </trkpt>
      <trkpt lat="45.51459" lon="7.20721">
        <ele>2005.2</ele>
        <time>2021-11-07T19:16:41Z</time>
      </trkpt>
      <trkpt lat="45.5146" lon="7.20718">
        <ele>2004.8</ele>
        <time>2021-11-07T19:16:44Z</time>
      </trkpt>
      <trkpt lat="45.5146" lon="7.20715">
        <ele>2004.3</ele>
        <time>2021-11-07T19:16:46Z</time>
      </trkpt>
      <trkpt lat="45.51463" lon="7.20711">
        <ele>2003.6</ele>
        <time>2021-11-07T19:16:49Z</time>
      </trkpt>
      <trkpt lat="45.51464" lon="7.2071">
        <ele>2003.3</ele>
        <time>2021-11-07T19:16:51Z</time>
      </trkpt>
      <trkpt lat="45.51466" lon="7.20709">
        <ele>2002.8</ele>
        <time>2021-11-07T19:16:54Z</time>
      </trkpt>
      <trkpt lat="45.51468" lon="7.20708">
        <ele>2002.4</ele>
        <time>2021-11-07T19:16:56Z</time>
      </trkpt>
      <trkpt lat="45.51469" lon="7.20708">
        <ele>2002.2</ele>
        <time>2021-11-07T19:16:57Z</time>
      </trkpt>
      <trkpt lat="45.5147" lon="7.20707">
        <ele>2001.9</ele>
        <time>2021-11-07T19:16:59Z</time>
      </trkpt>
      <trkpt lat="45.51473" lon="7.20703">
        <ele>2000.9</ele>
        <time>2021-11-07T19:17:04Z</time>
      </trkpt>
      <trkpt lat="45.51476" lon="7.20697">
        <ele>1999.9</ele>
        <time>2021-11-07T19:17:08Z</time>
      </trkpt>
      <trkpt lat="45.51478" lon="7.20696">
        <ele>1999.6</ele>
        <time>2021-11-07T19:17:11Z</time>
      </trkpt>
      <trkpt lat="45.51481" lon="7.20691">
        <ele>1999.2</ele>
        <time>2021-11-07T19:17:15Z</time>
      </trkpt>
      <trkpt lat="45.51483" lon="7.2069">
        <ele>1999.2</ele>
        <time>2021-11-07T19:17:17Z</time>
      </trkpt>
      <trkpt lat="45.51484" lon="7.20689">
        <ele>1999.1</ele>
        <time>2021-11-07T19:17:18Z</time>
      </trkpt>
      <trkpt lat="45.51489" lon="7.20684">
        <ele>1998.7</ele>
        <time>2021-11-07T19:17:23Z</time>
      </trkpt>
      <trkpt lat="45.51492" lon="7.20681">
        <ele>1998.4</ele>
        <time>2021-11-07T19:17:27Z</time>
      </trkpt>
      <trkpt lat="45.51492" lon="7.2068">
        <ele>1998.3</ele>
        <time>2021-11-07T19:17:29Z</time>
      </trkpt>
      <trkpt lat="45.51495" lon="7.20674">
        <ele>1997.9</ele>
        <time>2021-11-07T19:17:36Z</time>
      </trkpt>
      <trkpt lat="45.51498" lon="7.20672">
        <ele>1997.6</ele>
        <time>2021-11-07T19:17:41Z</time>
      </trkpt>
      <trkpt lat="45.51499" lon="7.20669">
        <ele>1997.4</ele>
        <time>2021-11-07T19:17:45Z</time>
      </trkpt>
      <trkpt lat="45.51503" lon="7.20659">
        <ele>1996.8</ele>
        <time>2021-11-07T19:17:56Z</time>
      </trkpt>
      <trkpt lat="45.51504" lon="7.20646">
        <ele>1996.2</ele>
        <time>2021-11-07T19:18:02Z</time>
      </trkpt>
      <trkpt lat="45.5151" lon="7.20636">
        <ele>1995.8</ele>
        <time>2021-11-07T19:18:11Z</time>
      </trkpt>
      <trkpt lat="45.51509" lon="7.20634">
        <ele>1995.7</ele>
        <time>2021-11-07T19:18:12Z</time>
      </trkpt>
      <trkpt lat="45.51511" lon="7.20633">
        <ele>1995.6</ele>
        <time>2021-11-07T19:18:13Z</time>
      </trkpt>
      <trkpt lat="45.51513" lon="7.20618">
        <ele>1994.6</ele>
        <time>2021-11-07T19:18:24Z</time>
      </trkpt>
      <trkpt lat="45.51513" lon="7.20611">
        <ele>1994</ele>
        <time>2021-11-07T19:18:31Z</time>
      </trkpt>
      <trkpt lat="45.51512" lon="7.20609">
        <ele>1993.8</ele>
        <time>2021-11-07T19:18:33Z</time>
      </trkpt>
      <trkpt lat="45.51512" lon="7.20607">
        <ele>1993.7</ele>
        <time>2021-11-07T19:18:34Z</time>
      </trkpt>
      <trkpt lat="45.51512" lon="7.20605">
        <ele>1993.5</ele>
        <time>2021-11-07T19:18:36Z</time>
      </trkpt>
      <trkpt lat="45.51513" lon="7.20604">
        <ele>1993.3</ele>
        <time>2021-11-07T19:18:38Z</time>
      </trkpt>
      <trkpt lat="45.51514" lon="7.20602">
        <ele>1993.1</ele>
        <time>2021-11-07T19:18:40Z</time>
      </trkpt>
      <trkpt lat="45.51514" lon="7.20598">
        <ele>1992.8</ele>
        <time>2021-11-07T19:18:43Z</time>
      </trkpt>
      <trkpt lat="45.51515" lon="7.20595">
        <ele>1992.6</ele>
        <time>2021-11-07T19:18:45Z</time>
      </trkpt>
      <trkpt lat="45.51521" lon="7.20593">
        <ele>1991.9</ele>
        <time>2021-11-07T19:18:49Z</time>
      </trkpt>
      <trkpt lat="45.51528" lon="7.20588">
        <ele>1991.2</ele>
        <time>2021-11-07T19:18:55Z</time>
      </trkpt>
      <trkpt lat="45.51529" lon="7.20587">
        <ele>1991.1</ele>
        <time>2021-11-07T19:18:56Z</time>
      </trkpt>
      <trkpt lat="45.5153" lon="7.20586">
        <ele>1991</ele>
        <time>2021-11-07T19:18:57Z</time>
      </trkpt>
      <trkpt lat="45.51534" lon="7.20581">
        <ele>1990.6</ele>
        <time>2021-11-07T19:19:01Z</time>
      </trkpt>
      <trkpt lat="45.51535" lon="7.2058">
        <ele>1990.6</ele>
        <time>2021-11-07T19:19:02Z</time>
      </trkpt>
      <trkpt lat="45.51545" lon="7.20577">
        <ele>1990.2</ele>
        <time>2021-11-07T19:19:09Z</time>
      </trkpt>
      <trkpt lat="45.51546" lon="7.20578">
        <ele>1990.1</ele>
        <time>2021-11-07T19:19:10Z</time>
      </trkpt>
      <trkpt lat="45.51547" lon="7.20577">
        <ele>1990.1</ele>
        <time>2021-11-07T19:19:11Z</time>
      </trkpt>
      <trkpt lat="45.51548" lon="7.20577">
        <ele>1990</ele>
        <time>2021-11-07T19:19:12Z</time>
      </trkpt>
      <trkpt lat="45.51551" lon="7.20575">
        <ele>1989.9</ele>
        <time>2021-11-07T19:19:15Z</time>
      </trkpt>
      <trkpt lat="45.51558" lon="7.20575">
        <ele>1989.5</ele>
        <time>2021-11-07T19:19:22Z</time>
      </trkpt>
      <trkpt lat="45.51564" lon="7.20575">
        <ele>1989.1</ele>
        <time>2021-11-07T19:19:28Z</time>
      </trkpt>
      <trkpt lat="45.51567" lon="7.20574">
        <ele>1988.9</ele>
        <time>2021-11-07T19:19:31Z</time>
      </trkpt>
      <trkpt lat="45.5157" lon="7.20574">
        <ele>1988.8</ele>
        <time>2021-11-07T19:19:34Z</time>
      </trkpt>
      <trkpt lat="45.51572" lon="7.20573">
        <ele>1988.7</ele>
        <time>2021-11-07T19:19:36Z</time>
      </trkpt>
      <trkpt lat="45.51573" lon="7.20573">
        <ele>1988.7</ele>
        <time>2021-11-07T19:19:37Z</time>
      </trkpt>
      <trkpt lat="45.51577" lon="7.20571">
        <ele>1988.6</ele>
        <time>2021-11-07T19:19:41Z</time>
      </trkpt>
      <trkpt lat="45.51578" lon="7.2057">
        <ele>1988.6</ele>
        <time>2021-11-07T19:19:42Z</time>
      </trkpt>
      <trkpt lat="45.51579" lon="7.2057">
        <ele>1988.6</ele>
        <time>2021-11-07T19:19:43Z</time>
      </trkpt>
      <trkpt lat="45.51581" lon="7.2057">
        <ele>1988.5</ele>
        <time>2021-11-07T19:19:45Z</time>
      </trkpt>
      <trkpt lat="45.51581" lon="7.2057">
        <ele>1988.5</ele>
        <time>2021-11-07T19:19:46Z</time>
      </trkpt>
      <trkpt lat="45.51587" lon="7.20571">
        <ele>1988.4</ele>
        <time>2021-11-07T19:19:51Z</time>
      </trkpt>
      <trkpt lat="45.51596" lon="7.20569">
        <ele>1988.1</ele>
        <time>2021-11-07T19:20:00Z</time>
      </trkpt>
      <trkpt lat="45.51603" lon="7.20567">
        <ele>1987.8</ele>
        <time>2021-11-07T19:20:06Z</time>
      </trkpt>
      <trkpt lat="45.51604" lon="7.20567">
        <ele>1987.8</ele>
        <time>2021-11-07T19:20:07Z</time>
      </trkpt>
      <trkpt lat="45.51613" lon="7.20566">
        <ele>1987.3</ele>
        <time>2021-11-07T19:20:17Z</time>
      </trkpt>
      <trkpt lat="45.51618" lon="7.20565">
        <ele>1987.1</ele>
        <time>2021-11-07T19:20:22Z</time>
      </trkpt>
      <trkpt lat="45.51622" lon="7.20565">
        <ele>1986.9</ele>
        <time>2021-11-07T19:20:25Z</time>
      </trkpt>
      <trkpt lat="45.51622" lon="7.20566">
        <ele>1986.9</ele>
        <time>2021-11-07T19:20:27Z</time>
      </trkpt>
      <trkpt lat="45.51622" lon="7.20567">
        <ele>1986.8</ele>
        <time>2021-11-07T19:20:29Z</time>
      </trkpt>
      <trkpt lat="45.51624" lon="7.20567">
        <ele>1986.7</ele>
        <time>2021-11-07T19:20:32Z</time>
      </trkpt>
      <trkpt lat="45.51625" lon="7.20567">
        <ele>1986.7</ele>
        <time>2021-11-07T19:20:33Z</time>
      </trkpt>
      <trkpt lat="45.51633" lon="7.20563">
        <ele>1986.3</ele>
        <time>2021-11-07T19:20:43Z</time>
      </trkpt>
      <trkpt lat="45.51636" lon="7.20563">
        <ele>1986.2</ele>
        <time>2021-11-07T19:20:46Z</time>
      </trkpt>
      <trkpt lat="45.51637" lon="7.20563">
        <ele>1986.2</ele>
        <time>2021-11-07T19:20:47Z</time>
      </trkpt>
      <trkpt lat="45.51639" lon="7.20563">
        <ele>1986.1</ele>
        <time>2021-11-07T19:20:49Z</time>
      </trkpt>
      <trkpt lat="45.51645" lon="7.20561">
        <ele>1985.9</ele>
        <time>2021-11-07T19:20:55Z</time>
      </trkpt>
      <trkpt lat="45.51645" lon="7.20561">
        <ele>1985.9</ele>
        <time>2021-11-07T19:20:56Z</time>
      </trkpt>
      <trkpt lat="45.5165" lon="7.20559">
        <ele>1985.8</ele>
        <time>2021-11-07T19:21:01Z</time>
      </trkpt>
      <trkpt lat="45.51657" lon="7.20556">
        <ele>1985.6</ele>
        <time>2021-11-07T19:21:09Z</time>
      </trkpt>
      <trkpt lat="45.5166" lon="7.20556">
        <ele>1985.6</ele>
        <time>2021-11-07T19:21:15Z</time>
      </trkpt>
      <trkpt lat="45.51662" lon="7.20555">
        <ele>1985.5</ele>
        <time>2021-11-07T19:21:20Z</time>
      </trkpt>
      <trkpt lat="45.5167" lon="7.20555">
        <ele>1985.3</ele>
        <time>2021-11-07T19:21:30Z</time>
      </trkpt>
      <trkpt lat="45.51672" lon="7.20556">
        <ele>1985.3</ele>
        <time>2021-11-07T19:21:32Z</time>
      </trkpt>
      <trkpt lat="45.51673" lon="7.20556">
        <ele>1985.2</ele>
        <time>2021-11-07T19:21:33Z</time>
      </trkpt>
      <trkpt lat="45.51679" lon="7.20556">
        <ele>1985</ele>
        <time>2021-11-07T19:21:39Z</time>
      </trkpt>
      <trkpt lat="45.5168" lon="7.20555">
        <ele>1984.9</ele>
        <time>2021-11-07T19:21:41Z</time>
      </trkpt>
      <trkpt lat="45.51682" lon="7.20555">
        <ele>1984.7</ele>
        <time>2021-11-07T19:21:44Z</time>
      </trkpt>
      <trkpt lat="45.517" lon="7.20557">
        <ele>1983.4</ele>
        <time>2021-11-07T19:21:59Z</time>
      </trkpt>
      <trkpt lat="45.51706" lon="7.20557">
        <ele>1982.9</ele>
        <time>2021-11-07T19:22:06Z</time>
      </trkpt>
      <trkpt lat="45.51708" lon="7.20557">
        <ele>1982.8</ele>
        <time>2021-11-07T19:22:08Z</time>
      </trkpt>
      <trkpt lat="45.51712" lon="7.20557">
        <ele>1982.5</ele>
        <time>2021-11-07T19:22:12Z</time>
      </trkpt>
      <trkpt lat="45.51714" lon="7.20557">
        <ele>1982.4</ele>
        <time>2021-11-07T19:22:13Z</time>
      </trkpt>
      <trkpt lat="45.51715" lon="7.20556">
        <ele>1982.3</ele>
        <time>2021-11-07T19:22:15Z</time>
      </trkpt>
      <trkpt lat="45.51722" lon="7.20555">
        <ele>1982</ele>
        <time>2021-11-07T19:22:21Z</time>
      </trkpt>
      <trkpt lat="45.51727" lon="7.20555">
        <ele>1981.8</ele>
        <time>2021-11-07T19:22:26Z</time>
      </trkpt>
      <trkpt lat="45.51736" lon="7.2055">
        <ele>1981.4</ele>
        <time>2021-11-07T19:22:37Z</time>
      </trkpt>
      <trkpt lat="45.51739" lon="7.2055">
        <ele>1981.3</ele>
        <time>2021-11-07T19:22:39Z</time>
      </trkpt>
      <trkpt lat="45.51752" lon="7.20546">
        <ele>1980.8</ele>
        <time>2021-11-07T19:22:52Z</time>
      </trkpt>
      <trkpt lat="45.51762" lon="7.20545">
        <ele>1980.5</ele>
        <time>2021-11-07T19:23:02Z</time>
      </trkpt>
      <trkpt lat="45.51765" lon="7.20545">
        <ele>1980.4</ele>
        <time>2021-11-07T19:23:05Z</time>
      </trkpt>
      <trkpt lat="45.51771" lon="7.20545">
        <ele>1980.2</ele>
        <time>2021-11-07T19:23:10Z</time>
      </trkpt>
      <trkpt lat="45.51774" lon="7.20544">
        <ele>1980.1</ele>
        <time>2021-11-07T19:23:13Z</time>
      </trkpt>
      <trkpt lat="45.51779" lon="7.20544">
        <ele>1979.8</ele>
        <time>2021-11-07T19:23:18Z</time>
      </trkpt>
      <trkpt lat="45.51784" lon="7.20543">
        <ele>1979.6</ele>
        <time>2021-11-07T19:23:23Z</time>
      </trkpt>
      <trkpt lat="45.51788" lon="7.20539">
        <ele>1979.4</ele>
        <time>2021-11-07T19:23:29Z</time>
      </trkpt>
      <trkpt lat="45.51789" lon="7.20539">
        <ele>1979.3</ele>
        <time>2021-11-07T19:23:30Z</time>
      </trkpt>
      <trkpt lat="45.51794" lon="7.20534">
        <ele>1979</ele>
        <time>2021-11-07T19:23:39Z</time>
      </trkpt>
      <trkpt lat="45.51799" lon="7.20531">
        <ele>1978.7</ele>
        <time>2021-11-07T19:23:45Z</time>
      </trkpt>
      <trkpt lat="45.51806" lon="7.20529">
        <ele>1978.4</ele>
        <time>2021-11-07T19:23:50Z</time>
      </trkpt>
      <trkpt lat="45.51809" lon="7.20528">
        <ele>1978.2</ele>
        <time>2021-11-07T19:23:53Z</time>
      </trkpt>
      <trkpt lat="45.51811" lon="7.20527">
        <ele>1978.2</ele>
        <time>2021-11-07T19:23:56Z</time>
      </trkpt>
      <trkpt lat="45.51818" lon="7.20524">
        <ele>1977.8</ele>
        <time>2021-11-07T19:24:03Z</time>
      </trkpt>
      <trkpt lat="45.5182" lon="7.20522">
        <ele>1977.7</ele>
        <time>2021-11-07T19:24:06Z</time>
      </trkpt>
      <trkpt lat="45.51824" lon="7.20519">
        <ele>1977.5</ele>
        <time>2021-11-07T19:24:11Z</time>
      </trkpt>
      <trkpt lat="45.51831" lon="7.20516">
        <ele>1977.2</ele>
        <time>2021-11-07T19:24:17Z</time>
      </trkpt>
      <trkpt lat="45.51833" lon="7.20515">
        <ele>1977.1</ele>
        <time>2021-11-07T19:24:19Z</time>
      </trkpt>
      <trkpt lat="45.51843" lon="7.20514">
        <ele>1976.8</ele>
        <time>2021-11-07T19:24:30Z</time>
      </trkpt>
      <trkpt lat="45.51843" lon="7.20514">
        <ele>1976.7</ele>
        <time>2021-11-07T19:24:31Z</time>
      </trkpt>
      <trkpt lat="45.51854" lon="7.2051">
        <ele>1976.4</ele>
        <time>2021-11-07T19:24:44Z</time>
      </trkpt>
      <trkpt lat="45.51864" lon="7.20508">
        <ele>1976.1</ele>
        <time>2021-11-07T19:24:55Z</time>
      </trkpt>
      <trkpt lat="45.51873" lon="7.20507">
        <ele>1975.8</ele>
        <time>2021-11-07T19:25:05Z</time>
      </trkpt>
      <trkpt lat="45.51875" lon="7.20506">
        <ele>1975.8</ele>
        <time>2021-11-07T19:25:06Z</time>
      </trkpt>
      <trkpt lat="45.51879" lon="7.20504">
        <ele>1975.6</ele>
        <time>2021-11-07T19:25:10Z</time>
      </trkpt>
      <trkpt lat="45.51881" lon="7.20503">
        <ele>1975.5</ele>
        <time>2021-11-07T19:25:12Z</time>
      </trkpt>
      <trkpt lat="45.51885" lon="7.205">
        <ele>1975.4</ele>
        <time>2021-11-07T19:25:16Z</time>
      </trkpt>
      <trkpt lat="45.51889" lon="7.20497">
        <ele>1975.2</ele>
        <time>2021-11-07T19:25:20Z</time>
      </trkpt>
      <trkpt lat="45.51894" lon="7.20497">
        <ele>1975.1</ele>
        <time>2021-11-07T19:25:25Z</time>
      </trkpt>
      <trkpt lat="45.51895" lon="7.20497">
        <ele>1975.1</ele>
        <time>2021-11-07T19:25:26Z</time>
      </trkpt>
      <trkpt lat="45.51901" lon="7.20502">
        <ele>1974.9</ele>
        <time>2021-11-07T19:25:33Z</time>
      </trkpt>
      <trkpt lat="45.51903" lon="7.20503">
        <ele>1974.9</ele>
        <time>2021-11-07T19:25:35Z</time>
      </trkpt>
      <trkpt lat="45.51906" lon="7.20504">
        <ele>1974.9</ele>
        <time>2021-11-07T19:25:38Z</time>
      </trkpt>
      <trkpt lat="45.51907" lon="7.20504">
        <ele>1974.9</ele>
        <time>2021-11-07T19:25:39Z</time>
      </trkpt>
      <trkpt lat="45.51911" lon="7.20502">
        <ele>1974.9</ele>
        <time>2021-11-07T19:25:42Z</time>
      </trkpt>
      <trkpt lat="45.51913" lon="7.20499">
        <ele>1974.9</ele>
        <time>2021-11-07T19:25:45Z</time>
      </trkpt>
      <trkpt lat="45.51914" lon="7.20497">
        <ele>1974.9</ele>
        <time>2021-11-07T19:25:46Z</time>
      </trkpt>
      <trkpt lat="45.51916" lon="7.20491">
        <ele>1974.9</ele>
        <time>2021-11-07T19:25:50Z</time>
      </trkpt>
      <trkpt lat="45.51917" lon="7.2049">
        <ele>1974.8</ele>
        <time>2021-11-07T19:25:51Z</time>
      </trkpt>
      <trkpt lat="45.51919" lon="7.20481">
        <ele>1974.8</ele>
        <time>2021-11-07T19:25:58Z</time>
      </trkpt>
      <trkpt lat="45.51922" lon="7.20475">
        <ele>1974.7</ele>
        <time>2021-11-07T19:26:04Z</time>
      </trkpt>
      <trkpt lat="45.51925" lon="7.20472">
        <ele>1974.6</ele>
        <time>2021-11-07T19:26:07Z</time>
      </trkpt>
      <trkpt lat="45.51927" lon="7.2047">
        <ele>1974.5</ele>
        <time>2021-11-07T19:26:10Z</time>
      </trkpt>
      <trkpt lat="45.5193" lon="7.20466">
        <ele>1974.3</ele>
        <time>2021-11-07T19:26:14Z</time>
      </trkpt>
      <trkpt lat="45.51931" lon="7.20466">
        <ele>1974.2</ele>
        <time>2021-11-07T19:26:15Z</time>
      </trkpt>
      <trkpt lat="45.51937" lon="7.20463">
        <ele>1973.9</ele>
        <time>2021-11-07T19:26:21Z</time>
      </trkpt>
      <trkpt lat="45.5194" lon="7.20461">
        <ele>1973.8</ele>
        <time>2021-11-07T19:26:24Z</time>
      </trkpt>
      <trkpt lat="45.51942" lon="7.20458">
        <ele>1973.6</ele>
        <time>2021-11-07T19:26:27Z</time>
      </trkpt>
      <trkpt lat="45.51943" lon="7.20458">
        <ele>1973.5</ele>
        <time>2021-11-07T19:26:28Z</time>
      </trkpt>
      <trkpt lat="45.5195" lon="7.20455">
        <ele>1973.1</ele>
        <time>2021-11-07T19:26:35Z</time>
      </trkpt>
      <trkpt lat="45.51951" lon="7.20454">
        <ele>1973</ele>
        <time>2021-11-07T19:26:37Z</time>
      </trkpt>
      <trkpt lat="45.51954" lon="7.20454">
        <ele>1972.9</ele>
        <time>2021-11-07T19:26:40Z</time>
      </trkpt>
      <trkpt lat="45.5196" lon="7.20453">
        <ele>1972.6</ele>
        <time>2021-11-07T19:26:47Z</time>
      </trkpt>
      <trkpt lat="45.51962" lon="7.20453">
        <ele>1972.5</ele>
        <time>2021-11-07T19:26:49Z</time>
      </trkpt>
      <trkpt lat="45.51967" lon="7.20452">
        <ele>1972.3</ele>
        <time>2021-11-07T19:26:53Z</time>
      </trkpt>
      <trkpt lat="45.51974" lon="7.20448">
        <ele>1971.9</ele>
        <time>2021-11-07T19:27:01Z</time>
      </trkpt>
      <trkpt lat="45.51976" lon="7.20447">
        <ele>1971.8</ele>
        <time>2021-11-07T19:27:02Z</time>
      </trkpt>
      <trkpt lat="45.5198" lon="7.20443">
        <ele>1971.6</ele>
        <time>2021-11-07T19:27:07Z</time>
      </trkpt>
      <trkpt lat="45.51982" lon="7.20441">
        <ele>1971.5</ele>
        <time>2021-11-07T19:27:09Z</time>
      </trkpt>
      <trkpt lat="45.51994" lon="7.20431">
        <ele>1971</ele>
        <time>2021-11-07T19:27:21Z</time>
      </trkpt>
      <trkpt lat="45.51995" lon="7.20431">
        <ele>1971</ele>
        <time>2021-11-07T19:27:22Z</time>
      </trkpt>
      <trkpt lat="45.52006" lon="7.20427">
        <ele>1970.6</ele>
        <time>2021-11-07T19:27:33Z</time>
      </trkpt>
      <trkpt lat="45.5201" lon="7.20424">
        <ele>1970.5</ele>
        <time>2021-11-07T19:27:36Z</time>
      </trkpt>
      <trkpt lat="45.5201" lon="7.20423">
        <ele>1970.5</ele>
        <time>2021-11-07T19:27:37Z</time>
      </trkpt>
      <trkpt lat="45.52015" lon="7.20421">
        <ele>1970.3</ele>
        <time>2021-11-07T19:27:43Z</time>
      </trkpt>
      <trkpt lat="45.52017" lon="7.20421">
        <ele>1970.3</ele>
        <time>2021-11-07T19:27:45Z</time>
      </trkpt>
      <trkpt lat="45.52019" lon="7.2042">
        <ele>1970.2</ele>
        <time>2021-11-07T19:27:47Z</time>
      </trkpt>
      <trkpt lat="45.52024" lon="7.20419">
        <ele>1970</ele>
        <time>2021-11-07T19:27:52Z</time>
      </trkpt>
      <trkpt lat="45.52024" lon="7.20419">
        <ele>1970</ele>
        <time>2021-11-07T19:27:53Z</time>
      </trkpt>
      <trkpt lat="45.52031" lon="7.20415">
        <ele>1969.7</ele>
        <time>2021-11-07T19:28:00Z</time>
      </trkpt>
      <trkpt lat="45.52037" lon="7.20413">
        <ele>1969.5</ele>
        <time>2021-11-07T19:28:07Z</time>
      </trkpt>
      <trkpt lat="45.52038" lon="7.20413">
        <ele>1969.5</ele>
        <time>2021-11-07T19:28:08Z</time>
      </trkpt>
      <trkpt lat="45.52042" lon="7.20412">
        <ele>1969.4</ele>
        <time>2021-11-07T19:28:12Z</time>
      </trkpt>
      <trkpt lat="45.52051" lon="7.20403">
        <ele>1969</ele>
        <time>2021-11-07T19:28:24Z</time>
      </trkpt>
      <trkpt lat="45.52056" lon="7.20394">
        <ele>1968.8</ele>
        <time>2021-11-07T19:28:31Z</time>
      </trkpt>
      <trkpt lat="45.52061" lon="7.20384">
        <ele>1968.6</ele>
        <time>2021-11-07T19:28:36Z</time>
      </trkpt>
      <trkpt lat="45.52058" lon="7.20389">
        <ele>1968.5</ele>
        <time>2021-11-07T19:28:42Z</time>
      </trkpt>
      <trkpt lat="45.52055" lon="7.20389">
        <ele>1968.4</ele>
        <time>2021-11-07T19:28:44Z</time>
      </trkpt>
      <trkpt lat="45.52051" lon="7.20385">
        <ele>1968.4</ele>
        <time>2021-11-07T19:28:46Z</time>
      </trkpt>
      <trkpt lat="45.5205" lon="7.20382">
        <ele>1968.4</ele>
        <time>2021-11-07T19:28:48Z</time>
      </trkpt>
      <trkpt lat="45.52056" lon="7.20378">
        <ele>1968.4</ele>
        <time>2021-11-07T19:28:52Z</time>
      </trkpt>
      <trkpt lat="45.52058" lon="7.20377">
        <ele>1968.4</ele>
        <time>2021-11-07T19:28:53Z</time>
      </trkpt>
      <trkpt lat="45.52072" lon="7.20369">
        <ele>1968.1</ele>
        <time>2021-11-07T19:29:04Z</time>
      </trkpt>
      <trkpt lat="45.52076" lon="7.20363">
        <ele>1967.9</ele>
        <time>2021-11-07T19:29:10Z</time>
      </trkpt>
      <trkpt lat="45.52084" lon="7.20357">
        <ele>1967.6</ele>
        <time>2021-11-07T19:29:18Z</time>
      </trkpt>
      <trkpt lat="45.52085" lon="7.20355">
        <ele>1967.5</ele>
        <time>2021-11-07T19:29:20Z</time>
      </trkpt>
      <trkpt lat="45.5209" lon="7.2035">
        <ele>1967.4</ele>
        <time>2021-11-07T19:29:27Z</time>
      </trkpt>
      <trkpt lat="45.52092" lon="7.20347">
        <ele>1967.4</ele>
        <time>2021-11-07T19:29:30Z</time>
      </trkpt>
      <trkpt lat="45.52097" lon="7.20343">
        <ele>1967.5</ele>
        <time>2021-11-07T19:29:34Z</time>
      </trkpt>
      <trkpt lat="45.52098" lon="7.20342">
        <ele>1967.5</ele>
        <time>2021-11-07T19:29:35Z</time>
      </trkpt>
      <trkpt lat="45.52106" lon="7.20339">
        <ele>1967.9</ele>
        <time>2021-11-07T19:29:42Z</time>
      </trkpt>
      <trkpt lat="45.52112" lon="7.20338">
        <ele>1968.2</ele>
        <time>2021-11-07T19:29:47Z</time>
      </trkpt>
      <trkpt lat="45.52118" lon="7.20334">
        <ele>1968.6</ele>
        <time>2021-11-07T19:29:54Z</time>
      </trkpt>
      <trkpt lat="45.52121" lon="7.20333">
        <ele>1968.6</ele>
        <time>2021-11-07T19:29:56Z</time>
      </trkpt>
      <trkpt lat="45.52125" lon="7.2033">
        <ele>1968.7</ele>
        <time>2021-11-07T19:30:01Z</time>
      </trkpt>
      <trkpt lat="45.52131" lon="7.20329">
        <ele>1968.6</ele>
        <time>2021-11-07T19:30:07Z</time>
      </trkpt>
      <trkpt lat="45.52138" lon="7.20322">
        <ele>1968.3</ele>
        <time>2021-11-07T19:30:15Z</time>
      </trkpt>
      <trkpt lat="45.52139" lon="7.20319">
        <ele>1968.2</ele>
        <time>2021-11-07T19:30:17Z</time>
      </trkpt>
      <trkpt lat="45.5214" lon="7.20318">
        <ele>1968.1</ele>
        <time>2021-11-07T19:30:18Z</time>
      </trkpt>
      <trkpt lat="45.52141" lon="7.20317">
        <ele>1968.1</ele>
        <time>2021-11-07T19:30:19Z</time>
      </trkpt>
      <trkpt lat="45.52146" lon="7.20313">
        <ele>1967.7</ele>
        <time>2021-11-07T19:30:24Z</time>
      </trkpt>
      <trkpt lat="45.52149" lon="7.20311">
        <ele>1967.4</ele>
        <time>2021-11-07T19:30:27Z</time>
      </trkpt>
      <trkpt lat="45.52152" lon="7.20309">
        <ele>1966.9</ele>
        <time>2021-11-07T19:30:31Z</time>
      </trkpt>
      <trkpt lat="45.52154" lon="7.20308">
        <ele>1966.7</ele>
        <time>2021-11-07T19:30:33Z</time>
      </trkpt>
      <trkpt lat="45.52161" lon="7.20306">
        <ele>1966</ele>
        <time>2021-11-07T19:30:42Z</time>
      </trkpt>
      <trkpt lat="45.52164" lon="7.20303">
        <ele>1965.6</ele>
        <time>2021-11-07T19:30:47Z</time>
      </trkpt>
      <trkpt lat="45.52167" lon="7.203">
        <ele>1965.2</ele>
        <time>2021-11-07T19:30:50Z</time>
      </trkpt>
      <trkpt lat="45.52168" lon="7.20299">
        <ele>1965</ele>
        <time>2021-11-07T19:30:51Z</time>
      </trkpt>
      <trkpt lat="45.52173" lon="7.20298">
        <ele>1964.5</ele>
        <time>2021-11-07T19:30:57Z</time>
      </trkpt>
      <trkpt lat="45.52174" lon="7.20297">
        <ele>1964.4</ele>
        <time>2021-11-07T19:30:58Z</time>
      </trkpt>
      <trkpt lat="45.52178" lon="7.20296">
        <ele>1963.9</ele>
        <time>2021-11-07T19:31:02Z</time>
      </trkpt>
      <trkpt lat="45.5218" lon="7.20296">
        <ele>1963.8</ele>
        <time>2021-11-07T19:31:03Z</time>
      </trkpt>
      <trkpt lat="45.52183" lon="7.20295">
        <ele>1963.4</ele>
        <time>2021-11-07T19:31:07Z</time>
      </trkpt>
      <trkpt lat="45.52185" lon="7.20295">
        <ele>1963.3</ele>
        <time>2021-11-07T19:31:08Z</time>
      </trkpt>
      <trkpt lat="45.52189" lon="7.20295">
        <ele>1962.9</ele>
        <time>2021-11-07T19:31:12Z</time>
      </trkpt>
      <trkpt lat="45.5219" lon="7.20295">
        <ele>1962.9</ele>
        <time>2021-11-07T19:31:13Z</time>
      </trkpt>
      <trkpt lat="45.52191" lon="7.20295">
        <ele>1962.8</ele>
        <time>2021-11-07T19:31:14Z</time>
      </trkpt>
      <trkpt lat="45.52194" lon="7.20294">
        <ele>1962.6</ele>
        <time>2021-11-07T19:31:17Z</time>
      </trkpt>
      <trkpt lat="45.52198" lon="7.20293">
        <ele>1962.2</ele>
        <time>2021-11-07T19:31:21Z</time>
      </trkpt>
      <trkpt lat="45.52199" lon="7.20293">
        <ele>1962.1</ele>
        <time>2021-11-07T19:31:22Z</time>
      </trkpt>
      <trkpt lat="45.52203" lon="7.20293">
        <ele>1961.9</ele>
        <time>2021-11-07T19:31:26Z</time>
      </trkpt>
      <trkpt lat="45.52204" lon="7.20293">
        <ele>1961.8</ele>
        <time>2021-11-07T19:31:28Z</time>
      </trkpt>
      <trkpt lat="45.52205" lon="7.20293">
        <ele>1961.8</ele>
        <time>2021-11-07T19:31:29Z</time>
      </trkpt>
      <trkpt lat="45.52211" lon="7.20292">
        <ele>1961.5</ele>
        <time>2021-11-07T19:31:35Z</time>
      </trkpt>
      <trkpt lat="45.5221" lon="7.20287">
        <ele>1961.3</ele>
        <time>2021-11-07T19:31:36Z</time>
      </trkpt>
      <trkpt lat="45.52207" lon="7.20281">
        <ele>1961.2</ele>
        <time>2021-11-07T19:31:44Z</time>
      </trkpt>
      <trkpt lat="45.52205" lon="7.20275">
        <ele>1961</ele>
        <time>2021-11-07T19:31:51Z</time>
      </trkpt>
      <trkpt lat="45.52203" lon="7.2027">
        <ele>1960.9</ele>
        <time>2021-11-07T19:31:52Z</time>
      </trkpt>
      <trkpt lat="45.52201" lon="7.20264">
        <ele>1960.8</ele>
        <time>2021-11-07T19:32:00Z</time>
      </trkpt>
      <trkpt lat="45.52198" lon="7.20259">
        <ele>1960.8</ele>
        <time>2021-11-07T19:32:01Z</time>
      </trkpt>
      <trkpt lat="45.52196" lon="7.20253">
        <ele>1960.7</ele>
        <time>2021-11-07T19:32:03Z</time>
      </trkpt>
      <trkpt lat="45.52194" lon="7.20247">
        <ele>1960.6</ele>
        <time>2021-11-07T19:32:04Z</time>
      </trkpt>
      <trkpt lat="45.52192" lon="7.20242">
        <ele>1960.5</ele>
        <time>2021-11-07T19:32:05Z</time>
      </trkpt>
      <trkpt lat="45.52217" lon="7.20259">
        <ele>1960</ele>
        <time>2021-11-07T19:32:06Z</time>
      </trkpt>
      <trkpt lat="45.52239" lon="7.20268">
        <ele>1959.8</ele>
        <time>2021-11-07T19:32:10Z</time>
      </trkpt>
      <trkpt lat="45.52252" lon="7.20274">
        <ele>1959.6</ele>
        <time>2021-11-07T19:32:16Z</time>
      </trkpt>
      <trkpt lat="45.52254" lon="7.20274">
        <ele>1959.5</ele>
        <time>2021-11-07T19:32:19Z</time>
      </trkpt>
      <trkpt lat="45.5226" lon="7.20275">
        <ele>1959.4</ele>
        <time>2021-11-07T19:32:24Z</time>
      </trkpt>
      <trkpt lat="45.52267" lon="7.20276">
        <ele>1959.2</ele>
        <time>2021-11-07T19:32:30Z</time>
      </trkpt>
      <trkpt lat="45.52275" lon="7.20279">
        <ele>1959</ele>
        <time>2021-11-07T19:32:37Z</time>
      </trkpt>
      <trkpt lat="45.52276" lon="7.20273">
        <ele>1958.9</ele>
        <time>2021-11-07T19:32:44Z</time>
      </trkpt>
      <trkpt lat="45.52285" lon="7.20264">
        <ele>1958.7</ele>
        <time>2021-11-07T19:32:50Z</time>
      </trkpt>
      <trkpt lat="45.52287" lon="7.20259">
        <ele>1958.5</ele>
        <time>2021-11-07T19:32:52Z</time>
      </trkpt>
      <trkpt lat="45.52289" lon="7.20259">
        <ele>1958.5</ele>
        <time>2021-11-07T19:32:53Z</time>
      </trkpt>
      <trkpt lat="45.52289" lon="7.20259">
        <ele>1958.5</ele>
        <time>2021-11-07T19:32:54Z</time>
      </trkpt>
      <trkpt lat="45.52297" lon="7.20263">
        <ele>1958.2</ele>
        <time>2021-11-07T19:32:59Z</time>
      </trkpt>
      <trkpt lat="45.52299" lon="7.20265">
        <ele>1958.2</ele>
        <time>2021-11-07T19:33:01Z</time>
      </trkpt>
      <trkpt lat="45.523" lon="7.20266">
        <ele>1958.1</ele>
        <time>2021-11-07T19:33:02Z</time>
      </trkpt>
      <trkpt lat="45.52304" lon="7.20268">
        <ele>1958</ele>
        <time>2021-11-07T19:33:05Z</time>
      </trkpt>
      <trkpt lat="45.52309" lon="7.20273">
        <ele>1957.7</ele>
        <time>2021-11-07T19:33:08Z</time>
      </trkpt>
      <trkpt lat="45.52316" lon="7.20276">
        <ele>1957.5</ele>
        <time>2021-11-07T19:33:14Z</time>
      </trkpt>
      <trkpt lat="45.52323" lon="7.20277">
        <ele>1957.3</ele>
        <time>2021-11-07T19:33:20Z</time>
      </trkpt>
      <trkpt lat="45.52325" lon="7.20278">
        <ele>1957.2</ele>
        <time>2021-11-07T19:33:22Z</time>
      </trkpt>
      <trkpt lat="45.52326" lon="7.20278">
        <ele>1957.2</ele>
        <time>2021-11-07T19:33:23Z</time>
      </trkpt>
      <trkpt lat="45.52329" lon="7.20278">
        <ele>1957.1</ele>
        <time>2021-11-07T19:33:25Z</time>
      </trkpt>
      <trkpt lat="45.52332" lon="7.20278">
        <ele>1957</ele>
        <time>2021-11-07T19:33:28Z</time>
      </trkpt>
      <trkpt lat="45.52339" lon="7.20277">
        <ele>1956.8</ele>
        <time>2021-11-07T19:33:35Z</time>
      </trkpt>
      <trkpt lat="45.52342" lon="7.20277">
        <ele>1956.7</ele>
        <time>2021-11-07T19:33:38Z</time>
      </trkpt>
      <trkpt lat="45.52347" lon="7.20277">
        <ele>1956.6</ele>
        <time>2021-11-07T19:33:42Z</time>
      </trkpt>
      <trkpt lat="45.5235" lon="7.20277">
        <ele>1956.5</ele>
        <time>2021-11-07T19:33:46Z</time>
      </trkpt>
      <trkpt lat="45.52352" lon="7.20276">
        <ele>1956.5</ele>
        <time>2021-11-07T19:33:49Z</time>
      </trkpt>
      <trkpt lat="45.52358" lon="7.20276">
        <ele>1956.3</ele>
        <time>2021-11-07T19:33:56Z</time>
      </trkpt>
      <trkpt lat="45.52359" lon="7.20276">
        <ele>1956.3</ele>
        <time>2021-11-07T19:33:57Z</time>
      </trkpt>
      <trkpt lat="45.5236" lon="7.20276">
        <ele>1956.2</ele>
        <time>2021-11-07T19:33:59Z</time>
      </trkpt>
      <trkpt lat="45.52361" lon="7.20278">
        <ele>1956.2</ele>
        <time>2021-11-07T19:34:03Z</time>
      </trkpt>
      <trkpt lat="45.52357" lon="7.20279">
        <ele>1956.1</ele>
        <time>2021-11-07T19:34:11Z</time>
      </trkpt>
      <trkpt lat="45.52356" lon="7.20278">
        <ele>1956</ele>
        <time>2021-11-07T19:34:13Z</time>
      </trkpt>
      <trkpt lat="45.5236" lon="7.2028">
        <ele>1955.9</ele>
        <time>2021-11-07T19:34:21Z</time>
      </trkpt>
      <trkpt lat="45.52363" lon="7.20279">
        <ele>1955.8</ele>
        <time>2021-11-07T19:34:24Z</time>
      </trkpt>
      <trkpt lat="45.52367" lon="7.20279">
        <ele>1955.7</ele>
        <time>2021-11-07T19:34:27Z</time>
      </trkpt>
      <trkpt lat="45.52371" lon="7.20277">
        <ele>1955.6</ele>
        <time>2021-11-07T19:34:31Z</time>
      </trkpt>
      <trkpt lat="45.52372" lon="7.20277">
        <ele>1955.6</ele>
        <time>2021-11-07T19:34:32Z</time>
      </trkpt>
      <trkpt lat="45.52378" lon="7.20275">
        <ele>1955.4</ele>
        <time>2021-11-07T19:34:38Z</time>
      </trkpt>
      <trkpt lat="45.52379" lon="7.20274">
        <ele>1955.3</ele>
        <time>2021-11-07T19:34:39Z</time>
      </trkpt>
      <trkpt lat="45.5238" lon="7.20274">
        <ele>1955.3</ele>
        <time>2021-11-07T19:34:40Z</time>
      </trkpt>
      <trkpt lat="45.52385" lon="7.20272">
        <ele>1955.2</ele>
        <time>2021-11-07T19:34:44Z</time>
      </trkpt>
      <trkpt lat="45.52395" lon="7.2027">
        <ele>1954.8</ele>
        <time>2021-11-07T19:34:53Z</time>
      </trkpt>
      <trkpt lat="45.52401" lon="7.2027">
        <ele>1954.6</ele>
        <time>2021-11-07T19:35:00Z</time>
      </trkpt>
      <trkpt lat="45.5241" lon="7.20269">
        <ele>1954.3</ele>
        <time>2021-11-07T19:35:10Z</time>
      </trkpt>
      <trkpt lat="45.52419" lon="7.20266">
        <ele>1954.1</ele>
        <time>2021-11-07T19:35:19Z</time>
      </trkpt>
      <trkpt lat="45.52421" lon="7.20266">
        <ele>1954.1</ele>
        <time>2021-11-07T19:35:21Z</time>
      </trkpt>
      <trkpt lat="45.52422" lon="7.20266">
        <ele>1954.1</ele>
        <time>2021-11-07T19:35:22Z</time>
      </trkpt>
      <trkpt lat="45.52427" lon="7.20265">
        <ele>1954.1</ele>
        <time>2021-11-07T19:35:27Z</time>
      </trkpt>
      <trkpt lat="45.52437" lon="7.20266">
        <ele>1954.2</ele>
        <time>2021-11-07T19:35:36Z</time>
      </trkpt>
      <trkpt lat="45.52443" lon="7.20264">
        <ele>1954.3</ele>
        <time>2021-11-07T19:35:43Z</time>
      </trkpt>
      <trkpt lat="45.52449" lon="7.20259">
        <ele>1954.3</ele>
        <time>2021-11-07T19:35:51Z</time>
      </trkpt>
      <trkpt lat="45.52453" lon="7.20251">
        <ele>1954.4</ele>
        <time>2021-11-07T19:35:58Z</time>
      </trkpt>
      <trkpt lat="45.52455" lon="7.20247">
        <ele>1954.4</ele>
        <time>2021-11-07T19:36:01Z</time>
      </trkpt>
      <trkpt lat="45.52456" lon="7.20246">
        <ele>1954.4</ele>
        <time>2021-11-07T19:36:02Z</time>
      </trkpt>
      <trkpt lat="45.52457" lon="7.20244">
        <ele>1954.4</ele>
        <time>2021-11-07T19:36:04Z</time>
      </trkpt>
      <trkpt lat="45.52457" lon="7.20242">
        <ele>1954.4</ele>
        <time>2021-11-07T19:36:05Z</time>
      </trkpt>
      <trkpt lat="45.52459" lon="7.2024">
        <ele>1954.4</ele>
        <time>2021-11-07T19:36:07Z</time>
      </trkpt>
      <trkpt lat="45.52461" lon="7.20237">
        <ele>1954.4</ele>
        <time>2021-11-07T19:36:10Z</time>
      </trkpt>
      <trkpt lat="45.52462" lon="7.20235">
        <ele>1954.4</ele>
        <time>2021-11-07T19:36:11Z</time>
      </trkpt>
      <trkpt lat="45.52463" lon="7.20233">
        <ele>1954.4</ele>
        <time>2021-11-07T19:36:13Z</time>
      </trkpt>
      <trkpt lat="45.52464" lon="7.2023">
        <ele>1954.4</ele>
        <time>2021-11-07T19:36:15Z</time>
      </trkpt>
      <trkpt lat="45.52466" lon="7.20227">
        <ele>1954.4</ele>
        <time>2021-11-07T19:36:18Z</time>
      </trkpt>
      <trkpt lat="45.52464" lon="7.20224">
        <ele>1954.5</ele>
        <time>2021-11-07T19:36:19Z</time>
      </trkpt>
      <trkpt lat="45.52465" lon="7.20222">
        <ele>1954.5</ele>
        <time>2021-11-07T19:36:21Z</time>
      </trkpt>
      <trkpt lat="45.52466" lon="7.20221">
        <ele>1954.5</ele>
        <time>2021-11-07T19:36:23Z</time>
      </trkpt>
      <trkpt lat="45.52466" lon="7.20214">
        <ele>1954.4</ele>
        <time>2021-11-07T19:36:28Z</time>
      </trkpt>
      <trkpt lat="45.52465" lon="7.20207">
        <ele>1954.4</ele>
        <time>2021-11-07T19:36:31Z</time>
      </trkpt>
      <trkpt lat="45.52465" lon="7.20205">
        <ele>1954.5</ele>
        <time>2021-11-07T19:36:32Z</time>
      </trkpt>
      <trkpt lat="45.52465" lon="7.20201">
        <ele>1954.5</ele>
        <time>2021-11-07T19:36:34Z</time>
      </trkpt>
      <trkpt lat="45.52466" lon="7.20199">
        <ele>1954.5</ele>
        <time>2021-11-07T19:36:36Z</time>
      </trkpt>
      <trkpt lat="45.52468" lon="7.20197">
        <ele>1954.5</ele>
        <time>2021-11-07T19:36:38Z</time>
      </trkpt>
      <trkpt lat="45.52469" lon="7.20195">
        <ele>1954.5</ele>
        <time>2021-11-07T19:36:40Z</time>
      </trkpt>
      <trkpt lat="45.52472" lon="7.20188">
        <ele>1954.6</ele>
        <time>2021-11-07T19:36:45Z</time>
      </trkpt>
      <trkpt lat="45.52473" lon="7.20187">
        <ele>1954.6</ele>
        <time>2021-11-07T19:36:46Z</time>
      </trkpt>
      <trkpt lat="45.52476" lon="7.20183">
        <ele>1954.7</ele>
        <time>2021-11-07T19:36:50Z</time>
      </trkpt>
      <trkpt lat="45.52476" lon="7.20181">
        <ele>1954.7</ele>
        <time>2021-11-07T19:36:52Z</time>
      </trkpt>
      <trkpt lat="45.52478" lon="7.20178">
        <ele>1954.8</ele>
        <time>2021-11-07T19:36:54Z</time>
      </trkpt>
      <trkpt lat="45.5248" lon="7.20176">
        <ele>1954.9</ele>
        <time>2021-11-07T19:36:56Z</time>
      </trkpt>
      <trkpt lat="45.52482" lon="7.20171">
        <ele>1955.2</ele>
        <time>2021-11-07T19:37:00Z</time>
      </trkpt>
      <trkpt lat="45.52485" lon="7.20161">
        <ele>1955.5</ele>
        <time>2021-11-07T19:37:07Z</time>
      </trkpt>
      <trkpt lat="45.52487" lon="7.20157">
        <ele>1955.6</ele>
        <time>2021-11-07T19:37:10Z</time>
      </trkpt>
      <trkpt lat="45.52488" lon="7.20154">
        <ele>1955.6</ele>
        <time>2021-11-07T19:37:12Z</time>
      </trkpt>
      <trkpt lat="45.52489" lon="7.20152">
        <ele>1955.7</ele>
        <time>2021-11-07T19:37:14Z</time>
      </trkpt>
      <trkpt lat="45.5249" lon="7.20151">
        <ele>1955.7</ele>
        <time>2021-11-07T19:37:15Z</time>
      </trkpt>
      <trkpt lat="45.52491" lon="7.20149">
        <ele>1955.9</ele>
        <time>2021-11-07T19:37:17Z</time>
      </trkpt>
      <trkpt lat="45.52492" lon="7.20148">
        <ele>1955.9</ele>
        <time>2021-11-07T19:37:18Z</time>
      </trkpt>
      <trkpt lat="45.52493" lon="7.20146">
        <ele>1956</ele>
        <time>2021-11-07T19:37:20Z</time>
      </trkpt>
      <trkpt lat="45.52495" lon="7.20142">
        <ele>1956.2</ele>
        <time>2021-11-07T19:37:23Z</time>
      </trkpt>
      <trkpt lat="45.52499" lon="7.20136">
        <ele>1956.7</ele>
        <time>2021-11-07T19:37:29Z</time>
      </trkpt>
      <trkpt lat="45.52502" lon="7.2013">
        <ele>1957.1</ele>
        <time>2021-11-07T19:37:34Z</time>
      </trkpt>
      <trkpt lat="45.52503" lon="7.20127">
        <ele>1957.6</ele>
        <time>2021-11-07T19:37:36Z</time>
      </trkpt>
      <trkpt lat="45.52503" lon="7.20125">
        <ele>1957.6</ele>
        <time>2021-11-07T19:37:38Z</time>
      </trkpt>
      <trkpt lat="45.52506" lon="7.20117">
        <ele>1958.4</ele>
        <time>2021-11-07T19:37:43Z</time>
      </trkpt>
      <trkpt lat="45.52506" lon="7.20116">
        <ele>1958.4</ele>
        <time>2021-11-07T19:37:44Z</time>
      </trkpt>
      <trkpt lat="45.52507" lon="7.20114">
        <ele>1958.8</ele>
        <time>2021-11-07T19:37:46Z</time>
      </trkpt>
      <trkpt lat="45.52507" lon="7.20112">
        <ele>1958.8</ele>
        <time>2021-11-07T19:37:47Z</time>
      </trkpt>
      <trkpt lat="45.52508" lon="7.20106">
        <ele>1960</ele>
        <time>2021-11-07T19:37:51Z</time>
      </trkpt>
      <trkpt lat="45.52509" lon="7.20105">
        <ele>1960</ele>
        <time>2021-11-07T19:37:52Z</time>
      </trkpt>
      <trkpt lat="45.5251" lon="7.20104">
        <ele>1960</ele>
        <time>2021-11-07T19:37:56Z</time>
      </trkpt>
      <trkpt lat="45.5251" lon="7.20103">
        <ele>1960</ele>
        <time>2021-11-07T19:38:00Z</time>
      </trkpt>
      <trkpt lat="45.5251" lon="7.20102">
        <ele>1960</ele>
        <time>2021-11-07T19:38:01Z</time>
      </trkpt>
      <trkpt lat="45.52509" lon="7.20102">
        <ele>1960.5</ele>
        <time>2021-11-07T19:38:02Z</time>
      </trkpt>
      <trkpt lat="45.52509" lon="7.20102">
        <ele>1960.5</ele>
        <time>2021-11-07T19:38:03Z</time>
      </trkpt>
      <trkpt lat="45.5251" lon="7.20102">
        <ele>1960.5</ele>
        <time>2021-11-07T19:38:05Z</time>
      </trkpt>
    </trkseg>
  </trk>
</gpx>